<?xml version="1.0" encoding="UTF-8" standalone="no" ?>
<gpx xmlns="http://www.topografix.com/GPX/1/1" xmlns:xsi="http://www.w3.org/2001/XMLSchema-instance" xsi:schemaLocation="http://www.topografix.com/GPX/1/1 http://www.topografix.com/GPX/1/1/gpx.xsd" version="1.1" creator="VisuGPX - https://www.visugpx.com">
  <metadata>
    <name>Sévérac-le-Château - Montée jusqu'aux portes du Lévézou</name>
    <desc><![CDATA[Belle balade sur les hauteurs de Sévérac-le-Château. 50% route, 50% chemin.]]></desc>
  </metadata>
  <trk>
    <name><![CDATA[Sévérac-le-Château🌞24°/30° - Montée jusqu'aux portes du Lévézou (alt.max. 1063m)🥵]]></name>
    <trkseg>
      <trkpt lat="44.32248" lon="3.06342">
        <ele>705.7</ele>
        <time>2023-06-25T07:53:11Z</time>
      </trkpt>
      <trkpt lat="44.3224" lon="3.06353">
        <ele>705.8</ele>
        <time>2023-06-25T07:53:12Z</time>
      </trkpt>
      <trkpt lat="44.3224" lon="3.06354">
        <ele>705.8</ele>
        <time>2023-06-25T07:53:13Z</time>
      </trkpt>
      <trkpt lat="44.32238" lon="3.06353">
        <ele>705.8</ele>
        <time>2023-06-25T07:53:14Z</time>
      </trkpt>
      <trkpt lat="44.32237" lon="3.06353">
        <ele>705.8</ele>
        <time>2023-06-25T07:53:15Z</time>
      </trkpt>
      <trkpt lat="44.32236" lon="3.06352">
        <ele>705.8</ele>
        <time>2023-06-25T07:53:16Z</time>
      </trkpt>
      <trkpt lat="44.32236" lon="3.06352">
        <ele>705.8</ele>
        <time>2023-06-25T07:53:17Z</time>
      </trkpt>
      <trkpt lat="44.32235" lon="3.06353">
        <ele>705.8</ele>
        <time>2023-06-25T07:53:18Z</time>
      </trkpt>
      <trkpt lat="44.32235" lon="3.06353">
        <ele>705.8</ele>
        <time>2023-06-25T07:53:19Z</time>
      </trkpt>
      <trkpt lat="44.32233" lon="3.06354">
        <ele>705.8</ele>
        <time>2023-06-25T07:53:20Z</time>
      </trkpt>
      <trkpt lat="44.32233" lon="3.06354">
        <ele>705.8</ele>
        <time>2023-06-25T07:53:21Z</time>
      </trkpt>
      <trkpt lat="44.32232" lon="3.06354">
        <ele>705.8</ele>
        <time>2023-06-25T07:53:22Z</time>
      </trkpt>
      <trkpt lat="44.32232" lon="3.06353">
        <ele>705.8</ele>
        <time>2023-06-25T07:53:23Z</time>
      </trkpt>
      <trkpt lat="44.32232" lon="3.06353">
        <ele>705.8</ele>
        <time>2023-06-25T07:53:24Z</time>
      </trkpt>
      <trkpt lat="44.32232" lon="3.06353">
        <ele>705.8</ele>
        <time>2023-06-25T07:53:25Z</time>
      </trkpt>
      <trkpt lat="44.32231" lon="3.06353">
        <ele>705.9</ele>
        <time>2023-06-25T07:53:26Z</time>
      </trkpt>
      <trkpt lat="44.32231" lon="3.06352">
        <ele>705.9</ele>
        <time>2023-06-25T07:53:27Z</time>
      </trkpt>
      <trkpt lat="44.32231" lon="3.06352">
        <ele>705.9</ele>
        <time>2023-06-25T07:53:28Z</time>
      </trkpt>
      <trkpt lat="44.32231" lon="3.06352">
        <ele>705.9</ele>
        <time>2023-06-25T07:53:29Z</time>
      </trkpt>
      <trkpt lat="44.32231" lon="3.06353">
        <ele>705.9</ele>
        <time>2023-06-25T07:53:30Z</time>
      </trkpt>
      <trkpt lat="44.32232" lon="3.06354">
        <ele>705.9</ele>
        <time>2023-06-25T07:53:31Z</time>
      </trkpt>
      <trkpt lat="44.32232" lon="3.06355">
        <ele>705.9</ele>
        <time>2023-06-25T07:53:32Z</time>
      </trkpt>
      <trkpt lat="44.32232" lon="3.06356">
        <ele>705.9</ele>
        <time>2023-06-25T07:53:33Z</time>
      </trkpt>
      <trkpt lat="44.32233" lon="3.06356">
        <ele>705.9</ele>
        <time>2023-06-25T07:53:34Z</time>
      </trkpt>
      <trkpt lat="44.32233" lon="3.06357">
        <ele>705.9</ele>
        <time>2023-06-25T07:53:35Z</time>
      </trkpt>
      <trkpt lat="44.32233" lon="3.06358">
        <ele>705.9</ele>
        <time>2023-06-25T07:53:36Z</time>
      </trkpt>
      <trkpt lat="44.32233" lon="3.06359">
        <ele>705.9</ele>
        <time>2023-06-25T07:53:37Z</time>
      </trkpt>
      <trkpt lat="44.32234" lon="3.0636">
        <ele>705.9</ele>
        <time>2023-06-25T07:53:38Z</time>
      </trkpt>
      <trkpt lat="44.32234" lon="3.0636">
        <ele>705.9</ele>
        <time>2023-06-25T07:53:39Z</time>
      </trkpt>
      <trkpt lat="44.32234" lon="3.06361">
        <ele>706</ele>
        <time>2023-06-25T07:54:29Z</time>
      </trkpt>
      <trkpt lat="44.32235" lon="3.06362">
        <ele>706</ele>
        <time>2023-06-25T07:54:30Z</time>
      </trkpt>
      <trkpt lat="44.32238" lon="3.06367">
        <ele>706.1</ele>
        <time>2023-06-25T07:54:31Z</time>
      </trkpt>
      <trkpt lat="44.32239" lon="3.06372">
        <ele>706.1</ele>
        <time>2023-06-25T07:54:32Z</time>
      </trkpt>
      <trkpt lat="44.3224" lon="3.06378">
        <ele>706.4</ele>
        <time>2023-06-25T07:54:33Z</time>
      </trkpt>
      <trkpt lat="44.32241" lon="3.06384">
        <ele>706.7</ele>
        <time>2023-06-25T07:54:34Z</time>
      </trkpt>
      <trkpt lat="44.32242" lon="3.06389">
        <ele>707</ele>
        <time>2023-06-25T07:54:35Z</time>
      </trkpt>
      <trkpt lat="44.32241" lon="3.06393">
        <ele>707.2</ele>
        <time>2023-06-25T07:54:36Z</time>
      </trkpt>
      <trkpt lat="44.32241" lon="3.06395">
        <ele>707.2</ele>
        <time>2023-06-25T07:54:37Z</time>
      </trkpt>
      <trkpt lat="44.32241" lon="3.06397">
        <ele>707.2</ele>
        <time>2023-06-25T07:54:38Z</time>
      </trkpt>
      <trkpt lat="44.32241" lon="3.06399">
        <ele>707.3</ele>
        <time>2023-06-25T07:54:39Z</time>
      </trkpt>
      <trkpt lat="44.32241" lon="3.064">
        <ele>707.3</ele>
        <time>2023-06-25T07:54:40Z</time>
      </trkpt>
      <trkpt lat="44.32241" lon="3.06401">
        <ele>707.3</ele>
        <time>2023-06-25T07:54:41Z</time>
      </trkpt>
      <trkpt lat="44.32241" lon="3.06401">
        <ele>707.3</ele>
        <time>2023-06-25T07:54:42Z</time>
      </trkpt>
      <trkpt lat="44.32241" lon="3.064">
        <ele>707.3</ele>
        <time>2023-06-25T07:54:43Z</time>
      </trkpt>
      <trkpt lat="44.32241" lon="3.064">
        <ele>707.3</ele>
        <time>2023-06-25T07:54:44Z</time>
      </trkpt>
      <trkpt lat="44.32241" lon="3.064">
        <ele>707.3</ele>
        <time>2023-06-25T07:54:45Z</time>
      </trkpt>
      <trkpt lat="44.32241" lon="3.064">
        <ele>707.3</ele>
        <time>2023-06-25T07:54:46Z</time>
      </trkpt>
      <trkpt lat="44.32241" lon="3.064">
        <ele>707.3</ele>
        <time>2023-06-25T07:54:47Z</time>
      </trkpt>
      <trkpt lat="44.32241" lon="3.064">
        <ele>707.3</ele>
        <time>2023-06-25T07:54:48Z</time>
      </trkpt>
      <trkpt lat="44.3224" lon="3.06401">
        <ele>707.4</ele>
        <time>2023-06-25T07:54:49Z</time>
      </trkpt>
      <trkpt lat="44.32239" lon="3.06402">
        <ele>707.4</ele>
        <time>2023-06-25T07:54:50Z</time>
      </trkpt>
      <trkpt lat="44.32236" lon="3.06404">
        <ele>707.2</ele>
        <time>2023-06-25T07:54:51Z</time>
      </trkpt>
      <trkpt lat="44.32231" lon="3.06405">
        <ele>706.8</ele>
        <time>2023-06-25T07:54:52Z</time>
      </trkpt>
      <trkpt lat="44.3223" lon="3.06405">
        <ele>706.7</ele>
        <time>2023-06-25T07:54:53Z</time>
      </trkpt>
      <trkpt lat="44.32225" lon="3.06406">
        <ele>706.3</ele>
        <time>2023-06-25T07:54:54Z</time>
      </trkpt>
      <trkpt lat="44.3222" lon="3.06406">
        <ele>705.9</ele>
        <time>2023-06-25T07:54:55Z</time>
      </trkpt>
      <trkpt lat="44.32215" lon="3.06406">
        <ele>705.5</ele>
        <time>2023-06-25T07:54:56Z</time>
      </trkpt>
      <trkpt lat="44.3221" lon="3.06407">
        <ele>705</ele>
        <time>2023-06-25T07:54:57Z</time>
      </trkpt>
      <trkpt lat="44.32202" lon="3.06407">
        <ele>704.6</ele>
        <time>2023-06-25T07:54:58Z</time>
      </trkpt>
      <trkpt lat="44.32195" lon="3.06408">
        <ele>704.2</ele>
        <time>2023-06-25T07:54:59Z</time>
      </trkpt>
      <trkpt lat="44.32188" lon="3.06409">
        <ele>703.8</ele>
        <time>2023-06-25T07:55:00Z</time>
      </trkpt>
      <trkpt lat="44.32181" lon="3.0641">
        <ele>703.3</ele>
        <time>2023-06-25T07:55:01Z</time>
      </trkpt>
      <trkpt lat="44.32174" lon="3.06411">
        <ele>702.8</ele>
        <time>2023-06-25T07:55:02Z</time>
      </trkpt>
      <trkpt lat="44.32167" lon="3.06412">
        <ele>702.3</ele>
        <time>2023-06-25T07:55:03Z</time>
      </trkpt>
      <trkpt lat="44.32159" lon="3.06413">
        <ele>701.7</ele>
        <time>2023-06-25T07:55:04Z</time>
      </trkpt>
      <trkpt lat="44.3215" lon="3.06414">
        <ele>701</ele>
        <time>2023-06-25T07:55:05Z</time>
      </trkpt>
      <trkpt lat="44.32142" lon="3.06415">
        <ele>700.3</ele>
        <time>2023-06-25T07:55:06Z</time>
      </trkpt>
      <trkpt lat="44.32134" lon="3.06415">
        <ele>699.6</ele>
        <time>2023-06-25T07:55:07Z</time>
      </trkpt>
      <trkpt lat="44.32126" lon="3.06416">
        <ele>698.9</ele>
        <time>2023-06-25T07:55:08Z</time>
      </trkpt>
      <trkpt lat="44.32118" lon="3.06416">
        <ele>698.2</ele>
        <time>2023-06-25T07:55:09Z</time>
      </trkpt>
      <trkpt lat="44.32111" lon="3.06416">
        <ele>697.5</ele>
        <time>2023-06-25T07:55:10Z</time>
      </trkpt>
      <trkpt lat="44.32103" lon="3.06417">
        <ele>696.9</ele>
        <time>2023-06-25T07:55:11Z</time>
      </trkpt>
      <trkpt lat="44.32095" lon="3.06417">
        <ele>696.3</ele>
        <time>2023-06-25T07:55:12Z</time>
      </trkpt>
      <trkpt lat="44.32087" lon="3.06417">
        <ele>695.7</ele>
        <time>2023-06-25T07:55:13Z</time>
      </trkpt>
      <trkpt lat="44.32079" lon="3.06418">
        <ele>695.1</ele>
        <time>2023-06-25T07:55:14Z</time>
      </trkpt>
      <trkpt lat="44.32071" lon="3.06418">
        <ele>694.6</ele>
        <time>2023-06-25T07:55:15Z</time>
      </trkpt>
      <trkpt lat="44.32064" lon="3.06419">
        <ele>694.1</ele>
        <time>2023-06-25T07:55:16Z</time>
      </trkpt>
      <trkpt lat="44.32056" lon="3.06419">
        <ele>693.7</ele>
        <time>2023-06-25T07:55:17Z</time>
      </trkpt>
      <trkpt lat="44.32049" lon="3.0642">
        <ele>693.3</ele>
        <time>2023-06-25T07:55:18Z</time>
      </trkpt>
      <trkpt lat="44.32042" lon="3.0642">
        <ele>693</ele>
        <time>2023-06-25T07:55:19Z</time>
      </trkpt>
      <trkpt lat="44.32035" lon="3.06419">
        <ele>692.7</ele>
        <time>2023-06-25T07:55:20Z</time>
      </trkpt>
      <trkpt lat="44.32028" lon="3.06417">
        <ele>692.3</ele>
        <time>2023-06-25T07:55:21Z</time>
      </trkpt>
      <trkpt lat="44.32021" lon="3.06414">
        <ele>692</ele>
        <time>2023-06-25T07:55:22Z</time>
      </trkpt>
      <trkpt lat="44.32013" lon="3.06412">
        <ele>691.6</ele>
        <time>2023-06-25T07:55:23Z</time>
      </trkpt>
      <trkpt lat="44.32006" lon="3.0641">
        <ele>691.3</ele>
        <time>2023-06-25T07:55:24Z</time>
      </trkpt>
      <trkpt lat="44.31998" lon="3.06408">
        <ele>690.9</ele>
        <time>2023-06-25T07:55:25Z</time>
      </trkpt>
      <trkpt lat="44.3199" lon="3.06406">
        <ele>690.6</ele>
        <time>2023-06-25T07:55:26Z</time>
      </trkpt>
      <trkpt lat="44.31982" lon="3.06404">
        <ele>690.2</ele>
        <time>2023-06-25T07:55:27Z</time>
      </trkpt>
      <trkpt lat="44.31973" lon="3.06402">
        <ele>689.9</ele>
        <time>2023-06-25T07:55:28Z</time>
      </trkpt>
      <trkpt lat="44.31965" lon="3.06401">
        <ele>689.5</ele>
        <time>2023-06-25T07:55:29Z</time>
      </trkpt>
      <trkpt lat="44.31956" lon="3.064">
        <ele>689.1</ele>
        <time>2023-06-25T07:55:30Z</time>
      </trkpt>
      <trkpt lat="44.31947" lon="3.06399">
        <ele>688.7</ele>
        <time>2023-06-25T07:55:31Z</time>
      </trkpt>
      <trkpt lat="44.31938" lon="3.06398">
        <ele>688.4</ele>
        <time>2023-06-25T07:55:32Z</time>
      </trkpt>
      <trkpt lat="44.3193" lon="3.06397">
        <ele>688.1</ele>
        <time>2023-06-25T07:55:33Z</time>
      </trkpt>
      <trkpt lat="44.31921" lon="3.06397">
        <ele>687.8</ele>
        <time>2023-06-25T07:55:34Z</time>
      </trkpt>
      <trkpt lat="44.31913" lon="3.06396">
        <ele>687.5</ele>
        <time>2023-06-25T07:55:35Z</time>
      </trkpt>
      <trkpt lat="44.31905" lon="3.06394">
        <ele>687.3</ele>
        <time>2023-06-25T07:55:36Z</time>
      </trkpt>
      <trkpt lat="44.31897" lon="3.06394">
        <ele>687</ele>
        <time>2023-06-25T07:55:37Z</time>
      </trkpt>
      <trkpt lat="44.31889" lon="3.06393">
        <ele>686.8</ele>
        <time>2023-06-25T07:55:38Z</time>
      </trkpt>
      <trkpt lat="44.31881" lon="3.06393">
        <ele>686.6</ele>
        <time>2023-06-25T07:55:39Z</time>
      </trkpt>
      <trkpt lat="44.31873" lon="3.06393">
        <ele>686.5</ele>
        <time>2023-06-25T07:55:40Z</time>
      </trkpt>
      <trkpt lat="44.31866" lon="3.06393">
        <ele>686.3</ele>
        <time>2023-06-25T07:55:41Z</time>
      </trkpt>
      <trkpt lat="44.31858" lon="3.06393">
        <ele>686.2</ele>
        <time>2023-06-25T07:55:42Z</time>
      </trkpt>
      <trkpt lat="44.31851" lon="3.06392">
        <ele>686.1</ele>
        <time>2023-06-25T07:55:43Z</time>
      </trkpt>
      <trkpt lat="44.31844" lon="3.06391">
        <ele>686</ele>
        <time>2023-06-25T07:55:44Z</time>
      </trkpt>
      <trkpt lat="44.31837" lon="3.06391">
        <ele>685.8</ele>
        <time>2023-06-25T07:55:45Z</time>
      </trkpt>
      <trkpt lat="44.3183" lon="3.0639">
        <ele>685.7</ele>
        <time>2023-06-25T07:55:46Z</time>
      </trkpt>
      <trkpt lat="44.31824" lon="3.06389">
        <ele>685.5</ele>
        <time>2023-06-25T07:55:47Z</time>
      </trkpt>
      <trkpt lat="44.31817" lon="3.06387">
        <ele>685.3</ele>
        <time>2023-06-25T07:55:48Z</time>
      </trkpt>
      <trkpt lat="44.31811" lon="3.06386">
        <ele>685.2</ele>
        <time>2023-06-25T07:55:49Z</time>
      </trkpt>
      <trkpt lat="44.31804" lon="3.06383">
        <ele>685</ele>
        <time>2023-06-25T07:55:50Z</time>
      </trkpt>
      <trkpt lat="44.31798" lon="3.06381">
        <ele>684.8</ele>
        <time>2023-06-25T07:55:51Z</time>
      </trkpt>
      <trkpt lat="44.31792" lon="3.06379">
        <ele>684.7</ele>
        <time>2023-06-25T07:55:52Z</time>
      </trkpt>
      <trkpt lat="44.31786" lon="3.06377">
        <ele>684.5</ele>
        <time>2023-06-25T07:55:53Z</time>
      </trkpt>
      <trkpt lat="44.31781" lon="3.06375">
        <ele>684.3</ele>
        <time>2023-06-25T07:55:54Z</time>
      </trkpt>
      <trkpt lat="44.31776" lon="3.06373">
        <ele>684.2</ele>
        <time>2023-06-25T07:55:55Z</time>
      </trkpt>
      <trkpt lat="44.31771" lon="3.06372">
        <ele>684</ele>
        <time>2023-06-25T07:55:56Z</time>
      </trkpt>
      <trkpt lat="44.31766" lon="3.06371">
        <ele>683.8</ele>
        <time>2023-06-25T07:55:57Z</time>
      </trkpt>
      <trkpt lat="44.31761" lon="3.0637">
        <ele>683.6</ele>
        <time>2023-06-25T07:55:58Z</time>
      </trkpt>
      <trkpt lat="44.31755" lon="3.06369">
        <ele>683.4</ele>
        <time>2023-06-25T07:55:59Z</time>
      </trkpt>
      <trkpt lat="44.31751" lon="3.06369">
        <ele>683.2</ele>
        <time>2023-06-25T07:56:00Z</time>
      </trkpt>
      <trkpt lat="44.31747" lon="3.06368">
        <ele>683</ele>
        <time>2023-06-25T07:56:01Z</time>
      </trkpt>
      <trkpt lat="44.31743" lon="3.06367">
        <ele>682.8</ele>
        <time>2023-06-25T07:56:02Z</time>
      </trkpt>
      <trkpt lat="44.31742" lon="3.06367">
        <ele>682.7</ele>
        <time>2023-06-25T07:56:03Z</time>
      </trkpt>
      <trkpt lat="44.31738" lon="3.06368">
        <ele>682.5</ele>
        <time>2023-06-25T07:56:04Z</time>
      </trkpt>
      <trkpt lat="44.31737" lon="3.06368">
        <ele>682.5</ele>
        <time>2023-06-25T07:56:05Z</time>
      </trkpt>
      <trkpt lat="44.31735" lon="3.06368">
        <ele>682.3</ele>
        <time>2023-06-25T07:56:06Z</time>
      </trkpt>
      <trkpt lat="44.31734" lon="3.06369">
        <ele>682.3</ele>
        <time>2023-06-25T07:56:07Z</time>
      </trkpt>
      <trkpt lat="44.31733" lon="3.06369">
        <ele>682.2</ele>
        <time>2023-06-25T07:56:08Z</time>
      </trkpt>
      <trkpt lat="44.31731" lon="3.06375">
        <ele>682.2</ele>
        <time>2023-06-25T07:56:10Z</time>
      </trkpt>
      <trkpt lat="44.31731" lon="3.0638">
        <ele>682.3</ele>
        <time>2023-06-25T07:56:11Z</time>
      </trkpt>
      <trkpt lat="44.31733" lon="3.06384">
        <ele>682.4</ele>
        <time>2023-06-25T07:56:12Z</time>
      </trkpt>
      <trkpt lat="44.31735" lon="3.0639">
        <ele>682.5</ele>
        <time>2023-06-25T07:56:13Z</time>
      </trkpt>
      <trkpt lat="44.31737" lon="3.06394">
        <ele>682.6</ele>
        <time>2023-06-25T07:56:15Z</time>
      </trkpt>
      <trkpt lat="44.31738" lon="3.06398">
        <ele>682.7</ele>
        <time>2023-06-25T07:56:16Z</time>
      </trkpt>
      <trkpt lat="44.31741" lon="3.06402">
        <ele>682.7</ele>
        <time>2023-06-25T07:56:17Z</time>
      </trkpt>
      <trkpt lat="44.31743" lon="3.06406">
        <ele>682.8</ele>
        <time>2023-06-25T07:56:18Z</time>
      </trkpt>
      <trkpt lat="44.31744" lon="3.0641">
        <ele>682.9</ele>
        <time>2023-06-25T07:56:19Z</time>
      </trkpt>
      <trkpt lat="44.31745" lon="3.06416">
        <ele>682.9</ele>
        <time>2023-06-25T07:56:21Z</time>
      </trkpt>
      <trkpt lat="44.31745" lon="3.0642">
        <ele>683</ele>
        <time>2023-06-25T07:56:22Z</time>
      </trkpt>
      <trkpt lat="44.31746" lon="3.06425">
        <ele>683</ele>
        <time>2023-06-25T07:56:24Z</time>
      </trkpt>
      <trkpt lat="44.31746" lon="3.06429">
        <ele>683.1</ele>
        <time>2023-06-25T07:56:25Z</time>
      </trkpt>
      <trkpt lat="44.31747" lon="3.0643">
        <ele>683.1</ele>
        <time>2023-06-25T07:56:26Z</time>
      </trkpt>
      <trkpt lat="44.31746" lon="3.06429">
        <ele>683.1</ele>
        <time>2023-06-25T07:56:28Z</time>
      </trkpt>
      <trkpt lat="44.31746" lon="3.06429">
        <ele>683.1</ele>
        <time>2023-06-25T07:56:29Z</time>
      </trkpt>
      <trkpt lat="44.31746" lon="3.06429">
        <ele>683.1</ele>
        <time>2023-06-25T07:56:30Z</time>
      </trkpt>
      <trkpt lat="44.31746" lon="3.06429">
        <ele>683.1</ele>
        <time>2023-06-25T07:56:32Z</time>
      </trkpt>
      <trkpt lat="44.31746" lon="3.06429">
        <ele>683.1</ele>
        <time>2023-06-25T07:56:33Z</time>
      </trkpt>
      <trkpt lat="44.31746" lon="3.06428">
        <ele>683.1</ele>
        <time>2023-06-25T07:56:35Z</time>
      </trkpt>
      <trkpt lat="44.31746" lon="3.06428">
        <ele>683.1</ele>
        <time>2023-06-25T07:56:36Z</time>
      </trkpt>
      <trkpt lat="44.31748" lon="3.06431">
        <ele>683.2</ele>
        <time>2023-06-25T07:57:22Z</time>
      </trkpt>
      <trkpt lat="44.31749" lon="3.06435">
        <ele>683.2</ele>
        <time>2023-06-25T07:57:23Z</time>
      </trkpt>
      <trkpt lat="44.3175" lon="3.06439">
        <ele>683.3</ele>
        <time>2023-06-25T07:57:24Z</time>
      </trkpt>
      <trkpt lat="44.3175" lon="3.0644">
        <ele>683.3</ele>
        <time>2023-06-25T07:57:25Z</time>
      </trkpt>
      <trkpt lat="44.31753" lon="3.06455">
        <ele>683.3</ele>
        <time>2023-06-25T07:57:27Z</time>
      </trkpt>
      <trkpt lat="44.31754" lon="3.06463">
        <ele>683.4</ele>
        <time>2023-06-25T07:57:28Z</time>
      </trkpt>
      <trkpt lat="44.31756" lon="3.0647">
        <ele>683.4</ele>
        <time>2023-06-25T07:57:29Z</time>
      </trkpt>
      <trkpt lat="44.31759" lon="3.06486">
        <ele>683.5</ele>
        <time>2023-06-25T07:57:31Z</time>
      </trkpt>
      <trkpt lat="44.31761" lon="3.06493">
        <ele>683.6</ele>
        <time>2023-06-25T07:57:33Z</time>
      </trkpt>
      <trkpt lat="44.31762" lon="3.06499">
        <ele>683.7</ele>
        <time>2023-06-25T07:57:34Z</time>
      </trkpt>
      <trkpt lat="44.31763" lon="3.06506">
        <ele>683.8</ele>
        <time>2023-06-25T07:57:35Z</time>
      </trkpt>
      <trkpt lat="44.31764" lon="3.06512">
        <ele>683.9</ele>
        <time>2023-06-25T07:57:36Z</time>
      </trkpt>
      <trkpt lat="44.31765" lon="3.06518">
        <ele>684</ele>
        <time>2023-06-25T07:57:37Z</time>
      </trkpt>
      <trkpt lat="44.31766" lon="3.06526">
        <ele>684.1</ele>
        <time>2023-06-25T07:57:39Z</time>
      </trkpt>
      <trkpt lat="44.31767" lon="3.06532">
        <ele>684.2</ele>
        <time>2023-06-25T07:57:40Z</time>
      </trkpt>
      <trkpt lat="44.31769" lon="3.06539">
        <ele>684.3</ele>
        <time>2023-06-25T07:57:41Z</time>
      </trkpt>
      <trkpt lat="44.3177" lon="3.06545">
        <ele>684.5</ele>
        <time>2023-06-25T07:57:42Z</time>
      </trkpt>
      <trkpt lat="44.31772" lon="3.06551">
        <ele>684.6</ele>
        <time>2023-06-25T07:57:43Z</time>
      </trkpt>
      <trkpt lat="44.31773" lon="3.06557">
        <ele>684.7</ele>
        <time>2023-06-25T07:57:44Z</time>
      </trkpt>
      <trkpt lat="44.31776" lon="3.06571">
        <ele>685</ele>
        <time>2023-06-25T07:57:46Z</time>
      </trkpt>
      <trkpt lat="44.31777" lon="3.06579">
        <ele>685.1</ele>
        <time>2023-06-25T07:57:48Z</time>
      </trkpt>
      <trkpt lat="44.31778" lon="3.06585">
        <ele>685.3</ele>
        <time>2023-06-25T07:57:49Z</time>
      </trkpt>
      <trkpt lat="44.31779" lon="3.06592">
        <ele>685.4</ele>
        <time>2023-06-25T07:57:50Z</time>
      </trkpt>
      <trkpt lat="44.31781" lon="3.06601">
        <ele>685.6</ele>
        <time>2023-06-25T07:57:52Z</time>
      </trkpt>
      <trkpt lat="44.31782" lon="3.06607">
        <ele>685.8</ele>
        <time>2023-06-25T07:57:53Z</time>
      </trkpt>
      <trkpt lat="44.31784" lon="3.06616">
        <ele>686</ele>
        <time>2023-06-25T07:57:55Z</time>
      </trkpt>
      <trkpt lat="44.31784" lon="3.06622">
        <ele>686.2</ele>
        <time>2023-06-25T07:57:56Z</time>
      </trkpt>
      <trkpt lat="44.31785" lon="3.06627">
        <ele>686.4</ele>
        <time>2023-06-25T07:57:57Z</time>
      </trkpt>
      <trkpt lat="44.31787" lon="3.06633">
        <ele>686.6</ele>
        <time>2023-06-25T07:57:58Z</time>
      </trkpt>
      <trkpt lat="44.31788" lon="3.06639">
        <ele>686.7</ele>
        <time>2023-06-25T07:57:59Z</time>
      </trkpt>
      <trkpt lat="44.3179" lon="3.06646">
        <ele>687</ele>
        <time>2023-06-25T07:58:01Z</time>
      </trkpt>
      <trkpt lat="44.31792" lon="3.06651">
        <ele>687.2</ele>
        <time>2023-06-25T07:58:02Z</time>
      </trkpt>
      <trkpt lat="44.31793" lon="3.06657">
        <ele>687.4</ele>
        <time>2023-06-25T07:58:03Z</time>
      </trkpt>
      <trkpt lat="44.31795" lon="3.06663">
        <ele>687.7</ele>
        <time>2023-06-25T07:58:04Z</time>
      </trkpt>
      <trkpt lat="44.31797" lon="3.06668">
        <ele>687.9</ele>
        <time>2023-06-25T07:58:05Z</time>
      </trkpt>
      <trkpt lat="44.31799" lon="3.06674">
        <ele>688.2</ele>
        <time>2023-06-25T07:58:06Z</time>
      </trkpt>
      <trkpt lat="44.31802" lon="3.06683">
        <ele>688.7</ele>
        <time>2023-06-25T07:58:08Z</time>
      </trkpt>
      <trkpt lat="44.31805" lon="3.06687">
        <ele>688.9</ele>
        <time>2023-06-25T07:58:10Z</time>
      </trkpt>
      <trkpt lat="44.31807" lon="3.06691">
        <ele>689.2</ele>
        <time>2023-06-25T07:58:11Z</time>
      </trkpt>
      <trkpt lat="44.31808" lon="3.06695">
        <ele>689.4</ele>
        <time>2023-06-25T07:58:12Z</time>
      </trkpt>
      <trkpt lat="44.3181" lon="3.06701">
        <ele>689.7</ele>
        <time>2023-06-25T07:58:13Z</time>
      </trkpt>
      <trkpt lat="44.31812" lon="3.06706">
        <ele>689.9</ele>
        <time>2023-06-25T07:58:14Z</time>
      </trkpt>
      <trkpt lat="44.31815" lon="3.06711">
        <ele>690.1</ele>
        <time>2023-06-25T07:58:15Z</time>
      </trkpt>
      <trkpt lat="44.31817" lon="3.06718">
        <ele>690.5</ele>
        <time>2023-06-25T07:58:17Z</time>
      </trkpt>
      <trkpt lat="44.31819" lon="3.06724">
        <ele>690.7</ele>
        <time>2023-06-25T07:58:19Z</time>
      </trkpt>
      <trkpt lat="44.31819" lon="3.06729">
        <ele>690.9</ele>
        <time>2023-06-25T07:58:20Z</time>
      </trkpt>
      <trkpt lat="44.3182" lon="3.06737">
        <ele>691.2</ele>
        <time>2023-06-25T07:58:21Z</time>
      </trkpt>
      <trkpt lat="44.3182" lon="3.06747">
        <ele>691.5</ele>
        <time>2023-06-25T07:58:23Z</time>
      </trkpt>
      <trkpt lat="44.31821" lon="3.06753">
        <ele>691.7</ele>
        <time>2023-06-25T07:58:24Z</time>
      </trkpt>
      <trkpt lat="44.31821" lon="3.06758">
        <ele>691.9</ele>
        <time>2023-06-25T07:58:25Z</time>
      </trkpt>
      <trkpt lat="44.31822" lon="3.06767">
        <ele>692.1</ele>
        <time>2023-06-25T07:58:27Z</time>
      </trkpt>
      <trkpt lat="44.31823" lon="3.06774">
        <ele>692.3</ele>
        <time>2023-06-25T07:58:28Z</time>
      </trkpt>
      <trkpt lat="44.31823" lon="3.06779">
        <ele>692.5</ele>
        <time>2023-06-25T07:58:29Z</time>
      </trkpt>
      <trkpt lat="44.31825" lon="3.06787">
        <ele>692.6</ele>
        <time>2023-06-25T07:58:30Z</time>
      </trkpt>
      <trkpt lat="44.31826" lon="3.06792">
        <ele>692.8</ele>
        <time>2023-06-25T07:58:31Z</time>
      </trkpt>
      <trkpt lat="44.31827" lon="3.06798">
        <ele>692.9</ele>
        <time>2023-06-25T07:58:32Z</time>
      </trkpt>
      <trkpt lat="44.31828" lon="3.06805">
        <ele>693.1</ele>
        <time>2023-06-25T07:58:34Z</time>
      </trkpt>
      <trkpt lat="44.31829" lon="3.06812">
        <ele>693.3</ele>
        <time>2023-06-25T07:58:35Z</time>
      </trkpt>
      <trkpt lat="44.3183" lon="3.06818">
        <ele>693.4</ele>
        <time>2023-06-25T07:58:36Z</time>
      </trkpt>
      <trkpt lat="44.31832" lon="3.06827">
        <ele>693.6</ele>
        <time>2023-06-25T07:58:38Z</time>
      </trkpt>
      <trkpt lat="44.31833" lon="3.06834">
        <ele>693.8</ele>
        <time>2023-06-25T07:58:39Z</time>
      </trkpt>
      <trkpt lat="44.31835" lon="3.06848">
        <ele>694.1</ele>
        <time>2023-06-25T07:58:41Z</time>
      </trkpt>
      <trkpt lat="44.31837" lon="3.06857">
        <ele>694.3</ele>
        <time>2023-06-25T07:58:43Z</time>
      </trkpt>
      <trkpt lat="44.31838" lon="3.06862">
        <ele>694.5</ele>
        <time>2023-06-25T07:58:44Z</time>
      </trkpt>
      <trkpt lat="44.31839" lon="3.06869">
        <ele>694.6</ele>
        <time>2023-06-25T07:58:45Z</time>
      </trkpt>
      <trkpt lat="44.3184" lon="3.06878">
        <ele>694.9</ele>
        <time>2023-06-25T07:58:47Z</time>
      </trkpt>
      <trkpt lat="44.31841" lon="3.06885">
        <ele>695</ele>
        <time>2023-06-25T07:58:48Z</time>
      </trkpt>
      <trkpt lat="44.31842" lon="3.06892">
        <ele>695.2</ele>
        <time>2023-06-25T07:58:49Z</time>
      </trkpt>
      <trkpt lat="44.31843" lon="3.06898">
        <ele>695.4</ele>
        <time>2023-06-25T07:58:50Z</time>
      </trkpt>
      <trkpt lat="44.31845" lon="3.06905">
        <ele>695.6</ele>
        <time>2023-06-25T07:58:52Z</time>
      </trkpt>
      <trkpt lat="44.31846" lon="3.06911">
        <ele>695.8</ele>
        <time>2023-06-25T07:58:53Z</time>
      </trkpt>
      <trkpt lat="44.31847" lon="3.06916">
        <ele>695.9</ele>
        <time>2023-06-25T07:58:54Z</time>
      </trkpt>
      <trkpt lat="44.31849" lon="3.06922">
        <ele>696.1</ele>
        <time>2023-06-25T07:58:55Z</time>
      </trkpt>
      <trkpt lat="44.3185" lon="3.06928">
        <ele>696.3</ele>
        <time>2023-06-25T07:58:56Z</time>
      </trkpt>
      <trkpt lat="44.31852" lon="3.06934">
        <ele>696.5</ele>
        <time>2023-06-25T07:58:57Z</time>
      </trkpt>
      <trkpt lat="44.31854" lon="3.0694">
        <ele>696.7</ele>
        <time>2023-06-25T07:58:59Z</time>
      </trkpt>
      <trkpt lat="44.31857" lon="3.06945">
        <ele>696.9</ele>
        <time>2023-06-25T07:59:00Z</time>
      </trkpt>
      <trkpt lat="44.31859" lon="3.06949">
        <ele>697.1</ele>
        <time>2023-06-25T07:59:01Z</time>
      </trkpt>
      <trkpt lat="44.31861" lon="3.06953">
        <ele>697.3</ele>
        <time>2023-06-25T07:59:02Z</time>
      </trkpt>
      <trkpt lat="44.31864" lon="3.06958">
        <ele>697.5</ele>
        <time>2023-06-25T07:59:03Z</time>
      </trkpt>
      <trkpt lat="44.31867" lon="3.06965">
        <ele>697.8</ele>
        <time>2023-06-25T07:59:05Z</time>
      </trkpt>
      <trkpt lat="44.3187" lon="3.0697">
        <ele>698</ele>
        <time>2023-06-25T07:59:06Z</time>
      </trkpt>
      <trkpt lat="44.31873" lon="3.06974">
        <ele>698.2</ele>
        <time>2023-06-25T07:59:07Z</time>
      </trkpt>
      <trkpt lat="44.31875" lon="3.06979">
        <ele>698.5</ele>
        <time>2023-06-25T07:59:08Z</time>
      </trkpt>
      <trkpt lat="44.31878" lon="3.06984">
        <ele>698.7</ele>
        <time>2023-06-25T07:59:10Z</time>
      </trkpt>
      <trkpt lat="44.3188" lon="3.06988">
        <ele>698.9</ele>
        <time>2023-06-25T07:59:11Z</time>
      </trkpt>
      <trkpt lat="44.31883" lon="3.06992">
        <ele>699.1</ele>
        <time>2023-06-25T07:59:12Z</time>
      </trkpt>
      <trkpt lat="44.31885" lon="3.06995">
        <ele>699.3</ele>
        <time>2023-06-25T07:59:13Z</time>
      </trkpt>
      <trkpt lat="44.31888" lon="3.06999">
        <ele>699.5</ele>
        <time>2023-06-25T07:59:14Z</time>
      </trkpt>
      <trkpt lat="44.31891" lon="3.07005">
        <ele>699.8</ele>
        <time>2023-06-25T07:59:16Z</time>
      </trkpt>
      <trkpt lat="44.31894" lon="3.07008">
        <ele>700.1</ele>
        <time>2023-06-25T07:59:17Z</time>
      </trkpt>
      <trkpt lat="44.31896" lon="3.07013">
        <ele>700.3</ele>
        <time>2023-06-25T07:59:18Z</time>
      </trkpt>
      <trkpt lat="44.31899" lon="3.07017">
        <ele>700.5</ele>
        <time>2023-06-25T07:59:19Z</time>
      </trkpt>
      <trkpt lat="44.31901" lon="3.07023">
        <ele>700.7</ele>
        <time>2023-06-25T07:59:21Z</time>
      </trkpt>
      <trkpt lat="44.31903" lon="3.07028">
        <ele>700.8</ele>
        <time>2023-06-25T07:59:22Z</time>
      </trkpt>
      <trkpt lat="44.31904" lon="3.07033">
        <ele>700.9</ele>
        <time>2023-06-25T07:59:23Z</time>
      </trkpt>
      <trkpt lat="44.31904" lon="3.07039">
        <ele>700.9</ele>
        <time>2023-06-25T07:59:24Z</time>
      </trkpt>
      <trkpt lat="44.31904" lon="3.07045">
        <ele>701</ele>
        <time>2023-06-25T07:59:26Z</time>
      </trkpt>
      <trkpt lat="44.31904" lon="3.07051">
        <ele>701</ele>
        <time>2023-06-25T07:59:27Z</time>
      </trkpt>
      <trkpt lat="44.31903" lon="3.07056">
        <ele>701.1</ele>
        <time>2023-06-25T07:59:28Z</time>
      </trkpt>
      <trkpt lat="44.319" lon="3.07061">
        <ele>701.1</ele>
        <time>2023-06-25T07:59:29Z</time>
      </trkpt>
      <trkpt lat="44.31895" lon="3.07065">
        <ele>701.1</ele>
        <time>2023-06-25T07:59:31Z</time>
      </trkpt>
      <trkpt lat="44.3189" lon="3.07065">
        <ele>701.1</ele>
        <time>2023-06-25T07:59:32Z</time>
      </trkpt>
      <trkpt lat="44.31885" lon="3.07065">
        <ele>701.2</ele>
        <time>2023-06-25T07:59:33Z</time>
      </trkpt>
      <trkpt lat="44.31879" lon="3.07065">
        <ele>701.2</ele>
        <time>2023-06-25T07:59:34Z</time>
      </trkpt>
      <trkpt lat="44.3187" lon="3.07064">
        <ele>701.3</ele>
        <time>2023-06-25T07:59:36Z</time>
      </trkpt>
      <trkpt lat="44.3186" lon="3.07065">
        <ele>701.4</ele>
        <time>2023-06-25T07:59:38Z</time>
      </trkpt>
      <trkpt lat="44.31856" lon="3.07065">
        <ele>701.5</ele>
        <time>2023-06-25T07:59:39Z</time>
      </trkpt>
      <trkpt lat="44.31847" lon="3.07065">
        <ele>701.6</ele>
        <time>2023-06-25T07:59:41Z</time>
      </trkpt>
      <trkpt lat="44.31842" lon="3.07067">
        <ele>701.6</ele>
        <time>2023-06-25T07:59:42Z</time>
      </trkpt>
      <trkpt lat="44.31835" lon="3.07069">
        <ele>701.6</ele>
        <time>2023-06-25T07:59:44Z</time>
      </trkpt>
      <trkpt lat="44.31831" lon="3.07073">
        <ele>701.6</ele>
        <time>2023-06-25T07:59:45Z</time>
      </trkpt>
      <trkpt lat="44.31827" lon="3.07076">
        <ele>701.6</ele>
        <time>2023-06-25T07:59:46Z</time>
      </trkpt>
      <trkpt lat="44.31823" lon="3.07081">
        <ele>701.5</ele>
        <time>2023-06-25T07:59:47Z</time>
      </trkpt>
      <trkpt lat="44.31818" lon="3.07084">
        <ele>701.4</ele>
        <time>2023-06-25T07:59:49Z</time>
      </trkpt>
      <trkpt lat="44.31814" lon="3.07087">
        <ele>701.3</ele>
        <time>2023-06-25T07:59:50Z</time>
      </trkpt>
      <trkpt lat="44.31809" lon="3.07092">
        <ele>701.1</ele>
        <time>2023-06-25T07:59:51Z</time>
      </trkpt>
      <trkpt lat="44.31803" lon="3.07096">
        <ele>700.9</ele>
        <time>2023-06-25T07:59:52Z</time>
      </trkpt>
      <trkpt lat="44.31798" lon="3.071">
        <ele>700.8</ele>
        <time>2023-06-25T07:59:54Z</time>
      </trkpt>
      <trkpt lat="44.3179" lon="3.07103">
        <ele>700.6</ele>
        <time>2023-06-25T07:59:55Z</time>
      </trkpt>
      <trkpt lat="44.31785" lon="3.07106">
        <ele>700.4</ele>
        <time>2023-06-25T07:59:56Z</time>
      </trkpt>
      <trkpt lat="44.3178" lon="3.07109">
        <ele>700.3</ele>
        <time>2023-06-25T07:59:57Z</time>
      </trkpt>
      <trkpt lat="44.31776" lon="3.07112">
        <ele>700.2</ele>
        <time>2023-06-25T07:59:58Z</time>
      </trkpt>
      <trkpt lat="44.31771" lon="3.07116">
        <ele>700.1</ele>
        <time>2023-06-25T07:59:59Z</time>
      </trkpt>
      <trkpt lat="44.31767" lon="3.0712">
        <ele>700.1</ele>
        <time>2023-06-25T08:00:00Z</time>
      </trkpt>
      <trkpt lat="44.31763" lon="3.07123">
        <ele>700</ele>
        <time>2023-06-25T08:00:01Z</time>
      </trkpt>
      <trkpt lat="44.31759" lon="3.07127">
        <ele>699.9</ele>
        <time>2023-06-25T08:00:02Z</time>
      </trkpt>
      <trkpt lat="44.31754" lon="3.07131">
        <ele>699.8</ele>
        <time>2023-06-25T08:00:03Z</time>
      </trkpt>
      <trkpt lat="44.31749" lon="3.07135">
        <ele>699.7</ele>
        <time>2023-06-25T08:00:04Z</time>
      </trkpt>
      <trkpt lat="44.31744" lon="3.07139">
        <ele>699.7</ele>
        <time>2023-06-25T08:00:05Z</time>
      </trkpt>
      <trkpt lat="44.31739" lon="3.07142">
        <ele>699.6</ele>
        <time>2023-06-25T08:00:06Z</time>
      </trkpt>
      <trkpt lat="44.31733" lon="3.07145">
        <ele>699.5</ele>
        <time>2023-06-25T08:00:07Z</time>
      </trkpt>
      <trkpt lat="44.31728" lon="3.07148">
        <ele>699.5</ele>
        <time>2023-06-25T08:00:08Z</time>
      </trkpt>
      <trkpt lat="44.31722" lon="3.0715">
        <ele>699.4</ele>
        <time>2023-06-25T08:00:09Z</time>
      </trkpt>
      <trkpt lat="44.31718" lon="3.07152">
        <ele>699.3</ele>
        <time>2023-06-25T08:00:10Z</time>
      </trkpt>
      <trkpt lat="44.31713" lon="3.07155">
        <ele>699.3</ele>
        <time>2023-06-25T08:00:11Z</time>
      </trkpt>
      <trkpt lat="44.31709" lon="3.07157">
        <ele>699.2</ele>
        <time>2023-06-25T08:00:12Z</time>
      </trkpt>
      <trkpt lat="44.31704" lon="3.0716">
        <ele>699.1</ele>
        <time>2023-06-25T08:00:13Z</time>
      </trkpt>
      <trkpt lat="44.31699" lon="3.07163">
        <ele>699.1</ele>
        <time>2023-06-25T08:00:14Z</time>
      </trkpt>
      <trkpt lat="44.31694" lon="3.07167">
        <ele>699</ele>
        <time>2023-06-25T08:00:15Z</time>
      </trkpt>
      <trkpt lat="44.31688" lon="3.0717">
        <ele>699</ele>
        <time>2023-06-25T08:00:16Z</time>
      </trkpt>
      <trkpt lat="44.31683" lon="3.07173">
        <ele>699</ele>
        <time>2023-06-25T08:00:17Z</time>
      </trkpt>
      <trkpt lat="44.31679" lon="3.07176">
        <ele>699</ele>
        <time>2023-06-25T08:00:18Z</time>
      </trkpt>
      <trkpt lat="44.31674" lon="3.07179">
        <ele>699</ele>
        <time>2023-06-25T08:00:19Z</time>
      </trkpt>
      <trkpt lat="44.31669" lon="3.07182">
        <ele>699</ele>
        <time>2023-06-25T08:00:20Z</time>
      </trkpt>
      <trkpt lat="44.31664" lon="3.07184">
        <ele>699.1</ele>
        <time>2023-06-25T08:00:21Z</time>
      </trkpt>
      <trkpt lat="44.3166" lon="3.07186">
        <ele>699.1</ele>
        <time>2023-06-25T08:00:22Z</time>
      </trkpt>
      <trkpt lat="44.31656" lon="3.07188">
        <ele>699.1</ele>
        <time>2023-06-25T08:00:23Z</time>
      </trkpt>
      <trkpt lat="44.31651" lon="3.0719">
        <ele>699.2</ele>
        <time>2023-06-25T08:00:24Z</time>
      </trkpt>
      <trkpt lat="44.31649" lon="3.07191">
        <ele>699.2</ele>
        <time>2023-06-25T08:00:25Z</time>
      </trkpt>
      <trkpt lat="44.31646" lon="3.07193">
        <ele>699.3</ele>
        <time>2023-06-25T08:00:26Z</time>
      </trkpt>
      <trkpt lat="44.31643" lon="3.07195">
        <ele>699.4</ele>
        <time>2023-06-25T08:00:27Z</time>
      </trkpt>
      <trkpt lat="44.31639" lon="3.07197">
        <ele>699.5</ele>
        <time>2023-06-25T08:00:28Z</time>
      </trkpt>
      <trkpt lat="44.31635" lon="3.07201">
        <ele>699.6</ele>
        <time>2023-06-25T08:00:29Z</time>
      </trkpt>
      <trkpt lat="44.31633" lon="3.07203">
        <ele>699.7</ele>
        <time>2023-06-25T08:00:30Z</time>
      </trkpt>
      <trkpt lat="44.31631" lon="3.07202">
        <ele>699.8</ele>
        <time>2023-06-25T08:00:31Z</time>
      </trkpt>
      <trkpt lat="44.31625" lon="3.07208">
        <ele>700.1</ele>
        <time>2023-06-25T08:00:33Z</time>
      </trkpt>
      <trkpt lat="44.31621" lon="3.07212">
        <ele>700.2</ele>
        <time>2023-06-25T08:00:34Z</time>
      </trkpt>
      <trkpt lat="44.31617" lon="3.07216">
        <ele>700.4</ele>
        <time>2023-06-25T08:00:35Z</time>
      </trkpt>
      <trkpt lat="44.31614" lon="3.07219">
        <ele>700.6</ele>
        <time>2023-06-25T08:00:37Z</time>
      </trkpt>
      <trkpt lat="44.31611" lon="3.07222">
        <ele>700.7</ele>
        <time>2023-06-25T08:00:38Z</time>
      </trkpt>
      <trkpt lat="44.31607" lon="3.07224">
        <ele>700.9</ele>
        <time>2023-06-25T08:00:39Z</time>
      </trkpt>
      <trkpt lat="44.31604" lon="3.07226">
        <ele>701</ele>
        <time>2023-06-25T08:00:40Z</time>
      </trkpt>
      <trkpt lat="44.316" lon="3.0723">
        <ele>701.2</ele>
        <time>2023-06-25T08:00:41Z</time>
      </trkpt>
      <trkpt lat="44.31596" lon="3.07233">
        <ele>701.4</ele>
        <time>2023-06-25T08:00:42Z</time>
      </trkpt>
      <trkpt lat="44.31591" lon="3.07235">
        <ele>701.6</ele>
        <time>2023-06-25T08:00:44Z</time>
      </trkpt>
      <trkpt lat="44.31587" lon="3.07238">
        <ele>701.8</ele>
        <time>2023-06-25T08:00:45Z</time>
      </trkpt>
      <trkpt lat="44.31583" lon="3.07241">
        <ele>702</ele>
        <time>2023-06-25T08:00:46Z</time>
      </trkpt>
      <trkpt lat="44.3158" lon="3.07244">
        <ele>702.1</ele>
        <time>2023-06-25T08:00:47Z</time>
      </trkpt>
      <trkpt lat="44.31575" lon="3.07247">
        <ele>702.3</ele>
        <time>2023-06-25T08:00:48Z</time>
      </trkpt>
      <trkpt lat="44.31571" lon="3.07249">
        <ele>702.5</ele>
        <time>2023-06-25T08:00:49Z</time>
      </trkpt>
      <trkpt lat="44.31566" lon="3.07253">
        <ele>702.7</ele>
        <time>2023-06-25T08:00:51Z</time>
      </trkpt>
      <trkpt lat="44.31561" lon="3.07257">
        <ele>702.8</ele>
        <time>2023-06-25T08:00:52Z</time>
      </trkpt>
      <trkpt lat="44.31557" lon="3.0726">
        <ele>702.9</ele>
        <time>2023-06-25T08:00:53Z</time>
      </trkpt>
      <trkpt lat="44.31553" lon="3.07264">
        <ele>702.9</ele>
        <time>2023-06-25T08:00:54Z</time>
      </trkpt>
      <trkpt lat="44.31548" lon="3.07269">
        <ele>702.8</ele>
        <time>2023-06-25T08:00:56Z</time>
      </trkpt>
      <trkpt lat="44.31543" lon="3.07273">
        <ele>702.7</ele>
        <time>2023-06-25T08:00:57Z</time>
      </trkpt>
      <trkpt lat="44.31536" lon="3.07281">
        <ele>702.3</ele>
        <time>2023-06-25T08:00:58Z</time>
      </trkpt>
      <trkpt lat="44.31531" lon="3.07287">
        <ele>702</ele>
        <time>2023-06-25T08:00:59Z</time>
      </trkpt>
      <trkpt lat="44.31527" lon="3.07293">
        <ele>701.7</ele>
        <time>2023-06-25T08:01:00Z</time>
      </trkpt>
      <trkpt lat="44.31522" lon="3.07299">
        <ele>701.5</ele>
        <time>2023-06-25T08:01:01Z</time>
      </trkpt>
      <trkpt lat="44.31517" lon="3.07305">
        <ele>701.3</ele>
        <time>2023-06-25T08:01:02Z</time>
      </trkpt>
      <trkpt lat="44.31512" lon="3.0731">
        <ele>701.2</ele>
        <time>2023-06-25T08:01:03Z</time>
      </trkpt>
      <trkpt lat="44.31508" lon="3.07315">
        <ele>701.1</ele>
        <time>2023-06-25T08:01:04Z</time>
      </trkpt>
      <trkpt lat="44.31504" lon="3.0732">
        <ele>701.1</ele>
        <time>2023-06-25T08:01:05Z</time>
      </trkpt>
      <trkpt lat="44.315" lon="3.07323">
        <ele>701</ele>
        <time>2023-06-25T08:01:06Z</time>
      </trkpt>
      <trkpt lat="44.31496" lon="3.07325">
        <ele>701</ele>
        <time>2023-06-25T08:01:07Z</time>
      </trkpt>
      <trkpt lat="44.31494" lon="3.07325">
        <ele>700.9</ele>
        <time>2023-06-25T08:01:08Z</time>
      </trkpt>
      <trkpt lat="44.31487" lon="3.07325">
        <ele>700.8</ele>
        <time>2023-06-25T08:01:10Z</time>
      </trkpt>
      <trkpt lat="44.31481" lon="3.07325">
        <ele>700.6</ele>
        <time>2023-06-25T08:01:11Z</time>
      </trkpt>
      <trkpt lat="44.31476" lon="3.07324">
        <ele>700.4</ele>
        <time>2023-06-25T08:01:12Z</time>
      </trkpt>
      <trkpt lat="44.31468" lon="3.07323">
        <ele>700.1</ele>
        <time>2023-06-25T08:01:13Z</time>
      </trkpt>
      <trkpt lat="44.31463" lon="3.07322">
        <ele>699.9</ele>
        <time>2023-06-25T08:01:14Z</time>
      </trkpt>
      <trkpt lat="44.31458" lon="3.0732">
        <ele>699.7</ele>
        <time>2023-06-25T08:01:15Z</time>
      </trkpt>
      <trkpt lat="44.31452" lon="3.07319">
        <ele>699.5</ele>
        <time>2023-06-25T08:01:16Z</time>
      </trkpt>
      <trkpt lat="44.31447" lon="3.07318">
        <ele>699.3</ele>
        <time>2023-06-25T08:01:17Z</time>
      </trkpt>
      <trkpt lat="44.31441" lon="3.07317">
        <ele>699.1</ele>
        <time>2023-06-25T08:01:18Z</time>
      </trkpt>
      <trkpt lat="44.31435" lon="3.07316">
        <ele>698.9</ele>
        <time>2023-06-25T08:01:19Z</time>
      </trkpt>
      <trkpt lat="44.31429" lon="3.07314">
        <ele>698.7</ele>
        <time>2023-06-25T08:01:20Z</time>
      </trkpt>
      <trkpt lat="44.31422" lon="3.07313">
        <ele>698.5</ele>
        <time>2023-06-25T08:01:21Z</time>
      </trkpt>
      <trkpt lat="44.31416" lon="3.07312">
        <ele>698.4</ele>
        <time>2023-06-25T08:01:22Z</time>
      </trkpt>
      <trkpt lat="44.3141" lon="3.0731">
        <ele>698.2</ele>
        <time>2023-06-25T08:01:23Z</time>
      </trkpt>
      <trkpt lat="44.31403" lon="3.07309">
        <ele>698</ele>
        <time>2023-06-25T08:01:24Z</time>
      </trkpt>
      <trkpt lat="44.31397" lon="3.07308">
        <ele>697.8</ele>
        <time>2023-06-25T08:01:25Z</time>
      </trkpt>
      <trkpt lat="44.3139" lon="3.07306">
        <ele>697.6</ele>
        <time>2023-06-25T08:01:26Z</time>
      </trkpt>
      <trkpt lat="44.31383" lon="3.07305">
        <ele>697.5</ele>
        <time>2023-06-25T08:01:27Z</time>
      </trkpt>
      <trkpt lat="44.31376" lon="3.07303">
        <ele>697.3</ele>
        <time>2023-06-25T08:01:28Z</time>
      </trkpt>
      <trkpt lat="44.31369" lon="3.07301">
        <ele>697.1</ele>
        <time>2023-06-25T08:01:29Z</time>
      </trkpt>
      <trkpt lat="44.31362" lon="3.07299">
        <ele>696.9</ele>
        <time>2023-06-25T08:01:30Z</time>
      </trkpt>
      <trkpt lat="44.31355" lon="3.07297">
        <ele>696.7</ele>
        <time>2023-06-25T08:01:31Z</time>
      </trkpt>
      <trkpt lat="44.31348" lon="3.07295">
        <ele>696.5</ele>
        <time>2023-06-25T08:01:32Z</time>
      </trkpt>
      <trkpt lat="44.31341" lon="3.07292">
        <ele>696.3</ele>
        <time>2023-06-25T08:01:33Z</time>
      </trkpt>
      <trkpt lat="44.31334" lon="3.0729">
        <ele>696.1</ele>
        <time>2023-06-25T08:01:34Z</time>
      </trkpt>
      <trkpt lat="44.31327" lon="3.07287">
        <ele>696</ele>
        <time>2023-06-25T08:01:35Z</time>
      </trkpt>
      <trkpt lat="44.3132" lon="3.07285">
        <ele>695.8</ele>
        <time>2023-06-25T08:01:36Z</time>
      </trkpt>
      <trkpt lat="44.31314" lon="3.07282">
        <ele>695.7</ele>
        <time>2023-06-25T08:01:37Z</time>
      </trkpt>
      <trkpt lat="44.31307" lon="3.07279">
        <ele>695.5</ele>
        <time>2023-06-25T08:01:38Z</time>
      </trkpt>
      <trkpt lat="44.313" lon="3.07276">
        <ele>695.3</ele>
        <time>2023-06-25T08:01:39Z</time>
      </trkpt>
      <trkpt lat="44.31293" lon="3.07272">
        <ele>695.1</ele>
        <time>2023-06-25T08:01:40Z</time>
      </trkpt>
      <trkpt lat="44.31286" lon="3.07267">
        <ele>694.8</ele>
        <time>2023-06-25T08:01:41Z</time>
      </trkpt>
      <trkpt lat="44.3128" lon="3.07263">
        <ele>694.6</ele>
        <time>2023-06-25T08:01:42Z</time>
      </trkpt>
      <trkpt lat="44.31273" lon="3.07258">
        <ele>694.4</ele>
        <time>2023-06-25T08:01:43Z</time>
      </trkpt>
      <trkpt lat="44.31267" lon="3.07252">
        <ele>694.2</ele>
        <time>2023-06-25T08:01:44Z</time>
      </trkpt>
      <trkpt lat="44.31261" lon="3.07247">
        <ele>694.1</ele>
        <time>2023-06-25T08:01:45Z</time>
      </trkpt>
      <trkpt lat="44.31255" lon="3.07241">
        <ele>693.9</ele>
        <time>2023-06-25T08:01:46Z</time>
      </trkpt>
      <trkpt lat="44.31249" lon="3.07235">
        <ele>693.8</ele>
        <time>2023-06-25T08:01:47Z</time>
      </trkpt>
      <trkpt lat="44.31243" lon="3.07229">
        <ele>693.6</ele>
        <time>2023-06-25T08:01:48Z</time>
      </trkpt>
      <trkpt lat="44.31238" lon="3.07222">
        <ele>693.4</ele>
        <time>2023-06-25T08:01:49Z</time>
      </trkpt>
      <trkpt lat="44.31232" lon="3.07214">
        <ele>693.3</ele>
        <time>2023-06-25T08:01:50Z</time>
      </trkpt>
      <trkpt lat="44.31227" lon="3.07207">
        <ele>693.1</ele>
        <time>2023-06-25T08:01:51Z</time>
      </trkpt>
      <trkpt lat="44.31221" lon="3.072">
        <ele>693</ele>
        <time>2023-06-25T08:01:52Z</time>
      </trkpt>
      <trkpt lat="44.31216" lon="3.07193">
        <ele>692.9</ele>
        <time>2023-06-25T08:01:53Z</time>
      </trkpt>
      <trkpt lat="44.31211" lon="3.07186">
        <ele>692.7</ele>
        <time>2023-06-25T08:01:54Z</time>
      </trkpt>
      <trkpt lat="44.31206" lon="3.07178">
        <ele>692.6</ele>
        <time>2023-06-25T08:01:55Z</time>
      </trkpt>
      <trkpt lat="44.31202" lon="3.07171">
        <ele>692.6</ele>
        <time>2023-06-25T08:01:56Z</time>
      </trkpt>
      <trkpt lat="44.31197" lon="3.07163">
        <ele>692.5</ele>
        <time>2023-06-25T08:01:57Z</time>
      </trkpt>
      <trkpt lat="44.31193" lon="3.07154">
        <ele>692.4</ele>
        <time>2023-06-25T08:01:58Z</time>
      </trkpt>
      <trkpt lat="44.3119" lon="3.07145">
        <ele>692.3</ele>
        <time>2023-06-25T08:01:59Z</time>
      </trkpt>
      <trkpt lat="44.31187" lon="3.07135">
        <ele>692.2</ele>
        <time>2023-06-25T08:02:00Z</time>
      </trkpt>
      <trkpt lat="44.31184" lon="3.07125">
        <ele>692.1</ele>
        <time>2023-06-25T08:02:01Z</time>
      </trkpt>
      <trkpt lat="44.31182" lon="3.07114">
        <ele>692</ele>
        <time>2023-06-25T08:02:02Z</time>
      </trkpt>
      <trkpt lat="44.31179" lon="3.07105">
        <ele>692</ele>
        <time>2023-06-25T08:02:03Z</time>
      </trkpt>
      <trkpt lat="44.31177" lon="3.07095">
        <ele>691.9</ele>
        <time>2023-06-25T08:02:04Z</time>
      </trkpt>
      <trkpt lat="44.31174" lon="3.07086">
        <ele>691.9</ele>
        <time>2023-06-25T08:02:05Z</time>
      </trkpt>
      <trkpt lat="44.31172" lon="3.07076">
        <ele>691.8</ele>
        <time>2023-06-25T08:02:06Z</time>
      </trkpt>
      <trkpt lat="44.31171" lon="3.07066">
        <ele>691.8</ele>
        <time>2023-06-25T08:02:07Z</time>
      </trkpt>
      <trkpt lat="44.31169" lon="3.07057">
        <ele>691.7</ele>
        <time>2023-06-25T08:02:08Z</time>
      </trkpt>
      <trkpt lat="44.31167" lon="3.07048">
        <ele>691.7</ele>
        <time>2023-06-25T08:02:09Z</time>
      </trkpt>
      <trkpt lat="44.31166" lon="3.07039">
        <ele>691.7</ele>
        <time>2023-06-25T08:02:10Z</time>
      </trkpt>
      <trkpt lat="44.31165" lon="3.0703">
        <ele>691.6</ele>
        <time>2023-06-25T08:02:11Z</time>
      </trkpt>
      <trkpt lat="44.31163" lon="3.07021">
        <ele>691.6</ele>
        <time>2023-06-25T08:02:12Z</time>
      </trkpt>
      <trkpt lat="44.31163" lon="3.07012">
        <ele>691.6</ele>
        <time>2023-06-25T08:02:13Z</time>
      </trkpt>
      <trkpt lat="44.31162" lon="3.07002">
        <ele>691.5</ele>
        <time>2023-06-25T08:02:14Z</time>
      </trkpt>
      <trkpt lat="44.31162" lon="3.06993">
        <ele>691.5</ele>
        <time>2023-06-25T08:02:15Z</time>
      </trkpt>
      <trkpt lat="44.31161" lon="3.06984">
        <ele>691.5</ele>
        <time>2023-06-25T08:02:16Z</time>
      </trkpt>
      <trkpt lat="44.3116" lon="3.06975">
        <ele>691.5</ele>
        <time>2023-06-25T08:02:17Z</time>
      </trkpt>
      <trkpt lat="44.31159" lon="3.06965">
        <ele>691.5</ele>
        <time>2023-06-25T08:02:18Z</time>
      </trkpt>
      <trkpt lat="44.31158" lon="3.06957">
        <ele>691.5</ele>
        <time>2023-06-25T08:02:19Z</time>
      </trkpt>
      <trkpt lat="44.31157" lon="3.06948">
        <ele>691.6</ele>
        <time>2023-06-25T08:02:20Z</time>
      </trkpt>
      <trkpt lat="44.31157" lon="3.06939">
        <ele>691.6</ele>
        <time>2023-06-25T08:02:21Z</time>
      </trkpt>
      <trkpt lat="44.31156" lon="3.0693">
        <ele>691.6</ele>
        <time>2023-06-25T08:02:22Z</time>
      </trkpt>
      <trkpt lat="44.31155" lon="3.06921">
        <ele>691.7</ele>
        <time>2023-06-25T08:02:23Z</time>
      </trkpt>
      <trkpt lat="44.31154" lon="3.06912">
        <ele>691.7</ele>
        <time>2023-06-25T08:02:24Z</time>
      </trkpt>
      <trkpt lat="44.31152" lon="3.06903">
        <ele>691.7</ele>
        <time>2023-06-25T08:02:25Z</time>
      </trkpt>
      <trkpt lat="44.3115" lon="3.06894">
        <ele>691.7</ele>
        <time>2023-06-25T08:02:26Z</time>
      </trkpt>
      <trkpt lat="44.31149" lon="3.06885">
        <ele>691.8</ele>
        <time>2023-06-25T08:02:27Z</time>
      </trkpt>
      <trkpt lat="44.31148" lon="3.06877">
        <ele>691.8</ele>
        <time>2023-06-25T08:02:28Z</time>
      </trkpt>
      <trkpt lat="44.31147" lon="3.06869">
        <ele>691.9</ele>
        <time>2023-06-25T08:02:29Z</time>
      </trkpt>
      <trkpt lat="44.31145" lon="3.06861">
        <ele>691.9</ele>
        <time>2023-06-25T08:02:30Z</time>
      </trkpt>
      <trkpt lat="44.31144" lon="3.06853">
        <ele>692</ele>
        <time>2023-06-25T08:02:31Z</time>
      </trkpt>
      <trkpt lat="44.31142" lon="3.06846">
        <ele>692</ele>
        <time>2023-06-25T08:02:32Z</time>
      </trkpt>
      <trkpt lat="44.31139" lon="3.06838">
        <ele>692.1</ele>
        <time>2023-06-25T08:02:33Z</time>
      </trkpt>
      <trkpt lat="44.31137" lon="3.06831">
        <ele>692.1</ele>
        <time>2023-06-25T08:02:34Z</time>
      </trkpt>
      <trkpt lat="44.31135" lon="3.06824">
        <ele>692.2</ele>
        <time>2023-06-25T08:02:35Z</time>
      </trkpt>
      <trkpt lat="44.31132" lon="3.06816">
        <ele>692.2</ele>
        <time>2023-06-25T08:02:36Z</time>
      </trkpt>
      <trkpt lat="44.31129" lon="3.06809">
        <ele>692.3</ele>
        <time>2023-06-25T08:02:37Z</time>
      </trkpt>
      <trkpt lat="44.31127" lon="3.06802">
        <ele>692.3</ele>
        <time>2023-06-25T08:02:38Z</time>
      </trkpt>
      <trkpt lat="44.31123" lon="3.06794">
        <ele>692.4</ele>
        <time>2023-06-25T08:02:39Z</time>
      </trkpt>
      <trkpt lat="44.3112" lon="3.06787">
        <ele>692.4</ele>
        <time>2023-06-25T08:02:40Z</time>
      </trkpt>
      <trkpt lat="44.31117" lon="3.0678">
        <ele>692.4</ele>
        <time>2023-06-25T08:02:41Z</time>
      </trkpt>
      <trkpt lat="44.31114" lon="3.06773">
        <ele>692.5</ele>
        <time>2023-06-25T08:02:42Z</time>
      </trkpt>
      <trkpt lat="44.3111" lon="3.06766">
        <ele>692.5</ele>
        <time>2023-06-25T08:02:43Z</time>
      </trkpt>
      <trkpt lat="44.31107" lon="3.0676">
        <ele>692.6</ele>
        <time>2023-06-25T08:02:44Z</time>
      </trkpt>
      <trkpt lat="44.31103" lon="3.06753">
        <ele>692.6</ele>
        <time>2023-06-25T08:02:45Z</time>
      </trkpt>
      <trkpt lat="44.31099" lon="3.06747">
        <ele>692.7</ele>
        <time>2023-06-25T08:02:46Z</time>
      </trkpt>
      <trkpt lat="44.31095" lon="3.06741">
        <ele>692.8</ele>
        <time>2023-06-25T08:02:47Z</time>
      </trkpt>
      <trkpt lat="44.31091" lon="3.06735">
        <ele>692.7</ele>
        <time>2023-06-25T08:02:48Z</time>
      </trkpt>
      <trkpt lat="44.31086" lon="3.06729">
        <ele>692.7</ele>
        <time>2023-06-25T08:02:49Z</time>
      </trkpt>
      <trkpt lat="44.31082" lon="3.06724">
        <ele>692.7</ele>
        <time>2023-06-25T08:02:50Z</time>
      </trkpt>
      <trkpt lat="44.31077" lon="3.06719">
        <ele>692.6</ele>
        <time>2023-06-25T08:02:51Z</time>
      </trkpt>
      <trkpt lat="44.31072" lon="3.06714">
        <ele>692.6</ele>
        <time>2023-06-25T08:02:52Z</time>
      </trkpt>
      <trkpt lat="44.31067" lon="3.0671">
        <ele>692.6</ele>
        <time>2023-06-25T08:02:53Z</time>
      </trkpt>
      <trkpt lat="44.31062" lon="3.06705">
        <ele>692.7</ele>
        <time>2023-06-25T08:02:54Z</time>
      </trkpt>
      <trkpt lat="44.31057" lon="3.06702">
        <ele>692.7</ele>
        <time>2023-06-25T08:02:55Z</time>
      </trkpt>
      <trkpt lat="44.31052" lon="3.06698">
        <ele>692.7</ele>
        <time>2023-06-25T08:02:56Z</time>
      </trkpt>
      <trkpt lat="44.31046" lon="3.06694">
        <ele>692.8</ele>
        <time>2023-06-25T08:02:57Z</time>
      </trkpt>
      <trkpt lat="44.31041" lon="3.06691">
        <ele>692.8</ele>
        <time>2023-06-25T08:02:58Z</time>
      </trkpt>
      <trkpt lat="44.31035" lon="3.06688">
        <ele>692.8</ele>
        <time>2023-06-25T08:02:59Z</time>
      </trkpt>
      <trkpt lat="44.3103" lon="3.06684">
        <ele>692.9</ele>
        <time>2023-06-25T08:03:00Z</time>
      </trkpt>
      <trkpt lat="44.31024" lon="3.06681">
        <ele>692.9</ele>
        <time>2023-06-25T08:03:01Z</time>
      </trkpt>
      <trkpt lat="44.31019" lon="3.06678">
        <ele>692.9</ele>
        <time>2023-06-25T08:03:02Z</time>
      </trkpt>
      <trkpt lat="44.31013" lon="3.06675">
        <ele>692.9</ele>
        <time>2023-06-25T08:03:03Z</time>
      </trkpt>
      <trkpt lat="44.31007" lon="3.06673">
        <ele>692.9</ele>
        <time>2023-06-25T08:03:04Z</time>
      </trkpt>
      <trkpt lat="44.31001" lon="3.06671">
        <ele>693</ele>
        <time>2023-06-25T08:03:05Z</time>
      </trkpt>
      <trkpt lat="44.30996" lon="3.06669">
        <ele>693</ele>
        <time>2023-06-25T08:03:06Z</time>
      </trkpt>
      <trkpt lat="44.3099" lon="3.06669">
        <ele>693</ele>
        <time>2023-06-25T08:03:07Z</time>
      </trkpt>
      <trkpt lat="44.30984" lon="3.06668">
        <ele>693</ele>
        <time>2023-06-25T08:03:08Z</time>
      </trkpt>
      <trkpt lat="44.30978" lon="3.06667">
        <ele>693</ele>
        <time>2023-06-25T08:03:09Z</time>
      </trkpt>
      <trkpt lat="44.30973" lon="3.06666">
        <ele>693.1</ele>
        <time>2023-06-25T08:03:10Z</time>
      </trkpt>
      <trkpt lat="44.30967" lon="3.06666">
        <ele>693.1</ele>
        <time>2023-06-25T08:03:11Z</time>
      </trkpt>
      <trkpt lat="44.30961" lon="3.06666">
        <ele>693.1</ele>
        <time>2023-06-25T08:03:12Z</time>
      </trkpt>
      <trkpt lat="44.30956" lon="3.06665">
        <ele>693.2</ele>
        <time>2023-06-25T08:03:13Z</time>
      </trkpt>
      <trkpt lat="44.3095" lon="3.06665">
        <ele>693.2</ele>
        <time>2023-06-25T08:03:14Z</time>
      </trkpt>
      <trkpt lat="44.30945" lon="3.06665">
        <ele>693.2</ele>
        <time>2023-06-25T08:03:15Z</time>
      </trkpt>
      <trkpt lat="44.30939" lon="3.06665">
        <ele>693.3</ele>
        <time>2023-06-25T08:03:16Z</time>
      </trkpt>
      <trkpt lat="44.30933" lon="3.06665">
        <ele>693.3</ele>
        <time>2023-06-25T08:03:17Z</time>
      </trkpt>
      <trkpt lat="44.30928" lon="3.06666">
        <ele>693.3</ele>
        <time>2023-06-25T08:03:18Z</time>
      </trkpt>
      <trkpt lat="44.30923" lon="3.06666">
        <ele>693.3</ele>
        <time>2023-06-25T08:03:19Z</time>
      </trkpt>
      <trkpt lat="44.30917" lon="3.06667">
        <ele>693.3</ele>
        <time>2023-06-25T08:03:20Z</time>
      </trkpt>
      <trkpt lat="44.30912" lon="3.06668">
        <ele>693.4</ele>
        <time>2023-06-25T08:03:21Z</time>
      </trkpt>
      <trkpt lat="44.30906" lon="3.0667">
        <ele>693.4</ele>
        <time>2023-06-25T08:03:22Z</time>
      </trkpt>
      <trkpt lat="44.309" lon="3.06672">
        <ele>693.4</ele>
        <time>2023-06-25T08:03:23Z</time>
      </trkpt>
      <trkpt lat="44.30895" lon="3.06674">
        <ele>693.4</ele>
        <time>2023-06-25T08:03:24Z</time>
      </trkpt>
      <trkpt lat="44.30889" lon="3.06677">
        <ele>693.4</ele>
        <time>2023-06-25T08:03:25Z</time>
      </trkpt>
      <trkpt lat="44.30884" lon="3.0668">
        <ele>693.5</ele>
        <time>2023-06-25T08:03:26Z</time>
      </trkpt>
      <trkpt lat="44.30878" lon="3.06683">
        <ele>693.5</ele>
        <time>2023-06-25T08:03:27Z</time>
      </trkpt>
      <trkpt lat="44.30873" lon="3.06686">
        <ele>693.5</ele>
        <time>2023-06-25T08:03:28Z</time>
      </trkpt>
      <trkpt lat="44.30868" lon="3.0669">
        <ele>693.6</ele>
        <time>2023-06-25T08:03:29Z</time>
      </trkpt>
      <trkpt lat="44.30862" lon="3.06693">
        <ele>693.6</ele>
        <time>2023-06-25T08:03:30Z</time>
      </trkpt>
      <trkpt lat="44.30857" lon="3.06696">
        <ele>693.6</ele>
        <time>2023-06-25T08:03:31Z</time>
      </trkpt>
      <trkpt lat="44.30851" lon="3.06699">
        <ele>693.6</ele>
        <time>2023-06-25T08:03:32Z</time>
      </trkpt>
      <trkpt lat="44.30846" lon="3.06703">
        <ele>693.6</ele>
        <time>2023-06-25T08:03:33Z</time>
      </trkpt>
      <trkpt lat="44.30841" lon="3.06706">
        <ele>693.6</ele>
        <time>2023-06-25T08:03:34Z</time>
      </trkpt>
      <trkpt lat="44.30836" lon="3.0671">
        <ele>693.6</ele>
        <time>2023-06-25T08:03:35Z</time>
      </trkpt>
      <trkpt lat="44.30831" lon="3.06713">
        <ele>693.6</ele>
        <time>2023-06-25T08:03:36Z</time>
      </trkpt>
      <trkpt lat="44.30825" lon="3.06717">
        <ele>693.6</ele>
        <time>2023-06-25T08:03:37Z</time>
      </trkpt>
      <trkpt lat="44.3082" lon="3.0672">
        <ele>693.7</ele>
        <time>2023-06-25T08:03:38Z</time>
      </trkpt>
      <trkpt lat="44.30815" lon="3.06724">
        <ele>693.7</ele>
        <time>2023-06-25T08:03:39Z</time>
      </trkpt>
      <trkpt lat="44.3081" lon="3.06727">
        <ele>693.7</ele>
        <time>2023-06-25T08:03:40Z</time>
      </trkpt>
      <trkpt lat="44.30804" lon="3.06731">
        <ele>693.7</ele>
        <time>2023-06-25T08:03:41Z</time>
      </trkpt>
      <trkpt lat="44.30799" lon="3.06735">
        <ele>693.7</ele>
        <time>2023-06-25T08:03:42Z</time>
      </trkpt>
      <trkpt lat="44.30793" lon="3.06738">
        <ele>693.7</ele>
        <time>2023-06-25T08:03:43Z</time>
      </trkpt>
      <trkpt lat="44.30788" lon="3.06741">
        <ele>693.8</ele>
        <time>2023-06-25T08:03:44Z</time>
      </trkpt>
      <trkpt lat="44.30783" lon="3.06744">
        <ele>693.8</ele>
        <time>2023-06-25T08:03:45Z</time>
      </trkpt>
      <trkpt lat="44.30778" lon="3.06747">
        <ele>693.8</ele>
        <time>2023-06-25T08:03:46Z</time>
      </trkpt>
      <trkpt lat="44.30772" lon="3.0675">
        <ele>693.8</ele>
        <time>2023-06-25T08:03:47Z</time>
      </trkpt>
      <trkpt lat="44.30767" lon="3.06754">
        <ele>693.8</ele>
        <time>2023-06-25T08:03:48Z</time>
      </trkpt>
      <trkpt lat="44.30762" lon="3.06756">
        <ele>693.9</ele>
        <time>2023-06-25T08:03:49Z</time>
      </trkpt>
      <trkpt lat="44.30756" lon="3.06759">
        <ele>693.9</ele>
        <time>2023-06-25T08:03:50Z</time>
      </trkpt>
      <trkpt lat="44.30751" lon="3.06762">
        <ele>693.9</ele>
        <time>2023-06-25T08:03:51Z</time>
      </trkpt>
      <trkpt lat="44.30746" lon="3.06765">
        <ele>693.9</ele>
        <time>2023-06-25T08:03:52Z</time>
      </trkpt>
      <trkpt lat="44.30741" lon="3.06768">
        <ele>693.9</ele>
        <time>2023-06-25T08:03:53Z</time>
      </trkpt>
      <trkpt lat="44.30735" lon="3.06771">
        <ele>693.9</ele>
        <time>2023-06-25T08:03:54Z</time>
      </trkpt>
      <trkpt lat="44.3073" lon="3.06774">
        <ele>693.8</ele>
        <time>2023-06-25T08:03:55Z</time>
      </trkpt>
      <trkpt lat="44.30725" lon="3.06777">
        <ele>693.8</ele>
        <time>2023-06-25T08:03:56Z</time>
      </trkpt>
      <trkpt lat="44.3072" lon="3.06781">
        <ele>693.8</ele>
        <time>2023-06-25T08:03:57Z</time>
      </trkpt>
      <trkpt lat="44.30714" lon="3.06785">
        <ele>693.8</ele>
        <time>2023-06-25T08:03:58Z</time>
      </trkpt>
      <trkpt lat="44.30709" lon="3.06788">
        <ele>693.8</ele>
        <time>2023-06-25T08:03:59Z</time>
      </trkpt>
      <trkpt lat="44.30704" lon="3.06792">
        <ele>693.8</ele>
        <time>2023-06-25T08:04:00Z</time>
      </trkpt>
      <trkpt lat="44.30699" lon="3.06796">
        <ele>693.7</ele>
        <time>2023-06-25T08:04:01Z</time>
      </trkpt>
      <trkpt lat="44.30694" lon="3.068">
        <ele>693.7</ele>
        <time>2023-06-25T08:04:02Z</time>
      </trkpt>
      <trkpt lat="44.3069" lon="3.06804">
        <ele>693.7</ele>
        <time>2023-06-25T08:04:03Z</time>
      </trkpt>
      <trkpt lat="44.30685" lon="3.06808">
        <ele>693.7</ele>
        <time>2023-06-25T08:04:04Z</time>
      </trkpt>
      <trkpt lat="44.3068" lon="3.06812">
        <ele>693.7</ele>
        <time>2023-06-25T08:04:05Z</time>
      </trkpt>
      <trkpt lat="44.30675" lon="3.06816">
        <ele>693.7</ele>
        <time>2023-06-25T08:04:06Z</time>
      </trkpt>
      <trkpt lat="44.3067" lon="3.06819">
        <ele>693.8</ele>
        <time>2023-06-25T08:04:07Z</time>
      </trkpt>
      <trkpt lat="44.30665" lon="3.06823">
        <ele>693.8</ele>
        <time>2023-06-25T08:04:08Z</time>
      </trkpt>
      <trkpt lat="44.30661" lon="3.06827">
        <ele>693.8</ele>
        <time>2023-06-25T08:04:09Z</time>
      </trkpt>
      <trkpt lat="44.30656" lon="3.0683">
        <ele>693.8</ele>
        <time>2023-06-25T08:04:10Z</time>
      </trkpt>
      <trkpt lat="44.30651" lon="3.06834">
        <ele>693.8</ele>
        <time>2023-06-25T08:04:11Z</time>
      </trkpt>
      <trkpt lat="44.30647" lon="3.06837">
        <ele>693.8</ele>
        <time>2023-06-25T08:04:12Z</time>
      </trkpt>
      <trkpt lat="44.30643" lon="3.06841">
        <ele>693.8</ele>
        <time>2023-06-25T08:04:13Z</time>
      </trkpt>
      <trkpt lat="44.30638" lon="3.06845">
        <ele>693.9</ele>
        <time>2023-06-25T08:04:14Z</time>
      </trkpt>
      <trkpt lat="44.30634" lon="3.06849">
        <ele>693.9</ele>
        <time>2023-06-25T08:04:15Z</time>
      </trkpt>
      <trkpt lat="44.30629" lon="3.06853">
        <ele>693.9</ele>
        <time>2023-06-25T08:04:16Z</time>
      </trkpt>
      <trkpt lat="44.30625" lon="3.06857">
        <ele>694</ele>
        <time>2023-06-25T08:04:17Z</time>
      </trkpt>
      <trkpt lat="44.3062" lon="3.06861">
        <ele>694</ele>
        <time>2023-06-25T08:04:18Z</time>
      </trkpt>
      <trkpt lat="44.30616" lon="3.06866">
        <ele>694.1</ele>
        <time>2023-06-25T08:04:19Z</time>
      </trkpt>
      <trkpt lat="44.30611" lon="3.0687">
        <ele>694.1</ele>
        <time>2023-06-25T08:04:20Z</time>
      </trkpt>
      <trkpt lat="44.30607" lon="3.06874">
        <ele>694.2</ele>
        <time>2023-06-25T08:04:21Z</time>
      </trkpt>
      <trkpt lat="44.30602" lon="3.06878">
        <ele>694.2</ele>
        <time>2023-06-25T08:04:22Z</time>
      </trkpt>
      <trkpt lat="44.30598" lon="3.06882">
        <ele>694.3</ele>
        <time>2023-06-25T08:04:23Z</time>
      </trkpt>
      <trkpt lat="44.30594" lon="3.06886">
        <ele>694.4</ele>
        <time>2023-06-25T08:04:24Z</time>
      </trkpt>
      <trkpt lat="44.3059" lon="3.0689">
        <ele>694.5</ele>
        <time>2023-06-25T08:04:25Z</time>
      </trkpt>
      <trkpt lat="44.30585" lon="3.06894">
        <ele>694.5</ele>
        <time>2023-06-25T08:04:26Z</time>
      </trkpt>
      <trkpt lat="44.30581" lon="3.06899">
        <ele>694.6</ele>
        <time>2023-06-25T08:04:27Z</time>
      </trkpt>
      <trkpt lat="44.30576" lon="3.06903">
        <ele>694.7</ele>
        <time>2023-06-25T08:04:28Z</time>
      </trkpt>
      <trkpt lat="44.30572" lon="3.06907">
        <ele>694.8</ele>
        <time>2023-06-25T08:04:29Z</time>
      </trkpt>
      <trkpt lat="44.30568" lon="3.06911">
        <ele>694.9</ele>
        <time>2023-06-25T08:04:30Z</time>
      </trkpt>
      <trkpt lat="44.30563" lon="3.06915">
        <ele>694.9</ele>
        <time>2023-06-25T08:04:31Z</time>
      </trkpt>
      <trkpt lat="44.30559" lon="3.06919">
        <ele>695</ele>
        <time>2023-06-25T08:04:32Z</time>
      </trkpt>
      <trkpt lat="44.30555" lon="3.06923">
        <ele>695.1</ele>
        <time>2023-06-25T08:04:33Z</time>
      </trkpt>
      <trkpt lat="44.3055" lon="3.06926">
        <ele>695.2</ele>
        <time>2023-06-25T08:04:34Z</time>
      </trkpt>
      <trkpt lat="44.30545" lon="3.0693">
        <ele>695.3</ele>
        <time>2023-06-25T08:04:35Z</time>
      </trkpt>
      <trkpt lat="44.3054" lon="3.06934">
        <ele>695.4</ele>
        <time>2023-06-25T08:04:36Z</time>
      </trkpt>
      <trkpt lat="44.30535" lon="3.06937">
        <ele>695.5</ele>
        <time>2023-06-25T08:04:37Z</time>
      </trkpt>
      <trkpt lat="44.30531" lon="3.06941">
        <ele>695.7</ele>
        <time>2023-06-25T08:04:38Z</time>
      </trkpt>
      <trkpt lat="44.30527" lon="3.06945">
        <ele>695.8</ele>
        <time>2023-06-25T08:04:39Z</time>
      </trkpt>
      <trkpt lat="44.30523" lon="3.06949">
        <ele>695.9</ele>
        <time>2023-06-25T08:04:40Z</time>
      </trkpt>
      <trkpt lat="44.30518" lon="3.06953">
        <ele>696</ele>
        <time>2023-06-25T08:04:41Z</time>
      </trkpt>
      <trkpt lat="44.30514" lon="3.06956">
        <ele>696.1</ele>
        <time>2023-06-25T08:04:42Z</time>
      </trkpt>
      <trkpt lat="44.3051" lon="3.0696">
        <ele>696.2</ele>
        <time>2023-06-25T08:04:43Z</time>
      </trkpt>
      <trkpt lat="44.30506" lon="3.06965">
        <ele>696.3</ele>
        <time>2023-06-25T08:04:44Z</time>
      </trkpt>
      <trkpt lat="44.30501" lon="3.06969">
        <ele>696.5</ele>
        <time>2023-06-25T08:04:45Z</time>
      </trkpt>
      <trkpt lat="44.30497" lon="3.06973">
        <ele>696.6</ele>
        <time>2023-06-25T08:04:46Z</time>
      </trkpt>
      <trkpt lat="44.30493" lon="3.06977">
        <ele>696.7</ele>
        <time>2023-06-25T08:04:47Z</time>
      </trkpt>
      <trkpt lat="44.30489" lon="3.06981">
        <ele>696.8</ele>
        <time>2023-06-25T08:04:48Z</time>
      </trkpt>
      <trkpt lat="44.30484" lon="3.06985">
        <ele>697</ele>
        <time>2023-06-25T08:04:49Z</time>
      </trkpt>
      <trkpt lat="44.30481" lon="3.06989">
        <ele>697.1</ele>
        <time>2023-06-25T08:04:50Z</time>
      </trkpt>
      <trkpt lat="44.30477" lon="3.06992">
        <ele>697.2</ele>
        <time>2023-06-25T08:04:51Z</time>
      </trkpt>
      <trkpt lat="44.30472" lon="3.06996">
        <ele>697.3</ele>
        <time>2023-06-25T08:04:52Z</time>
      </trkpt>
      <trkpt lat="44.30468" lon="3.07">
        <ele>697.4</ele>
        <time>2023-06-25T08:04:53Z</time>
      </trkpt>
      <trkpt lat="44.30464" lon="3.07004">
        <ele>697.6</ele>
        <time>2023-06-25T08:04:54Z</time>
      </trkpt>
      <trkpt lat="44.30459" lon="3.07007">
        <ele>697.7</ele>
        <time>2023-06-25T08:04:55Z</time>
      </trkpt>
      <trkpt lat="44.30455" lon="3.07012">
        <ele>697.8</ele>
        <time>2023-06-25T08:04:56Z</time>
      </trkpt>
      <trkpt lat="44.30452" lon="3.07016">
        <ele>697.9</ele>
        <time>2023-06-25T08:04:57Z</time>
      </trkpt>
      <trkpt lat="44.30447" lon="3.0702">
        <ele>698</ele>
        <time>2023-06-25T08:04:58Z</time>
      </trkpt>
      <trkpt lat="44.30443" lon="3.07025">
        <ele>698.1</ele>
        <time>2023-06-25T08:04:59Z</time>
      </trkpt>
      <trkpt lat="44.3044" lon="3.07029">
        <ele>698.2</ele>
        <time>2023-06-25T08:05:00Z</time>
      </trkpt>
      <trkpt lat="44.30436" lon="3.07033">
        <ele>698.3</ele>
        <time>2023-06-25T08:05:01Z</time>
      </trkpt>
      <trkpt lat="44.30432" lon="3.07038">
        <ele>698.4</ele>
        <time>2023-06-25T08:05:02Z</time>
      </trkpt>
      <trkpt lat="44.30428" lon="3.07042">
        <ele>698.5</ele>
        <time>2023-06-25T08:05:03Z</time>
      </trkpt>
      <trkpt lat="44.30424" lon="3.07047">
        <ele>698.6</ele>
        <time>2023-06-25T08:05:04Z</time>
      </trkpt>
      <trkpt lat="44.30421" lon="3.07051">
        <ele>698.7</ele>
        <time>2023-06-25T08:05:05Z</time>
      </trkpt>
      <trkpt lat="44.30417" lon="3.07056">
        <ele>698.8</ele>
        <time>2023-06-25T08:05:06Z</time>
      </trkpt>
      <trkpt lat="44.30413" lon="3.0706">
        <ele>699</ele>
        <time>2023-06-25T08:05:07Z</time>
      </trkpt>
      <trkpt lat="44.3041" lon="3.07065">
        <ele>699.1</ele>
        <time>2023-06-25T08:05:08Z</time>
      </trkpt>
      <trkpt lat="44.30406" lon="3.07069">
        <ele>699.2</ele>
        <time>2023-06-25T08:05:09Z</time>
      </trkpt>
      <trkpt lat="44.30402" lon="3.07074">
        <ele>699.3</ele>
        <time>2023-06-25T08:05:10Z</time>
      </trkpt>
      <trkpt lat="44.30399" lon="3.07078">
        <ele>699.3</ele>
        <time>2023-06-25T08:05:11Z</time>
      </trkpt>
      <trkpt lat="44.30395" lon="3.07083">
        <ele>699.4</ele>
        <time>2023-06-25T08:05:12Z</time>
      </trkpt>
      <trkpt lat="44.30392" lon="3.07088">
        <ele>699.5</ele>
        <time>2023-06-25T08:05:13Z</time>
      </trkpt>
      <trkpt lat="44.30388" lon="3.07092">
        <ele>699.6</ele>
        <time>2023-06-25T08:05:14Z</time>
      </trkpt>
      <trkpt lat="44.30383" lon="3.07097">
        <ele>699.7</ele>
        <time>2023-06-25T08:05:15Z</time>
      </trkpt>
      <trkpt lat="44.30379" lon="3.07101">
        <ele>699.8</ele>
        <time>2023-06-25T08:05:16Z</time>
      </trkpt>
      <trkpt lat="44.30375" lon="3.07106">
        <ele>699.9</ele>
        <time>2023-06-25T08:05:17Z</time>
      </trkpt>
      <trkpt lat="44.3037" lon="3.0711">
        <ele>700</ele>
        <time>2023-06-25T08:05:18Z</time>
      </trkpt>
      <trkpt lat="44.30366" lon="3.07114">
        <ele>700.2</ele>
        <time>2023-06-25T08:05:19Z</time>
      </trkpt>
      <trkpt lat="44.30362" lon="3.07118">
        <ele>700.3</ele>
        <time>2023-06-25T08:05:20Z</time>
      </trkpt>
      <trkpt lat="44.30358" lon="3.07123">
        <ele>700.4</ele>
        <time>2023-06-25T08:05:21Z</time>
      </trkpt>
      <trkpt lat="44.30354" lon="3.07127">
        <ele>700.5</ele>
        <time>2023-06-25T08:05:22Z</time>
      </trkpt>
      <trkpt lat="44.3035" lon="3.07131">
        <ele>700.6</ele>
        <time>2023-06-25T08:05:23Z</time>
      </trkpt>
      <trkpt lat="44.30346" lon="3.07134">
        <ele>700.7</ele>
        <time>2023-06-25T08:05:24Z</time>
      </trkpt>
      <trkpt lat="44.30343" lon="3.07138">
        <ele>700.9</ele>
        <time>2023-06-25T08:05:25Z</time>
      </trkpt>
      <trkpt lat="44.3034" lon="3.07141">
        <ele>700.9</ele>
        <time>2023-06-25T08:05:26Z</time>
      </trkpt>
      <trkpt lat="44.30336" lon="3.07144">
        <ele>701</ele>
        <time>2023-06-25T08:05:27Z</time>
      </trkpt>
      <trkpt lat="44.30332" lon="3.07147">
        <ele>701.1</ele>
        <time>2023-06-25T08:05:28Z</time>
      </trkpt>
      <trkpt lat="44.30328" lon="3.07151">
        <ele>701.3</ele>
        <time>2023-06-25T08:05:29Z</time>
      </trkpt>
      <trkpt lat="44.30322" lon="3.07155">
        <ele>701.4</ele>
        <time>2023-06-25T08:05:30Z</time>
      </trkpt>
      <trkpt lat="44.30318" lon="3.07157">
        <ele>701.6</ele>
        <time>2023-06-25T08:05:31Z</time>
      </trkpt>
      <trkpt lat="44.30312" lon="3.07161">
        <ele>701.7</ele>
        <time>2023-06-25T08:05:32Z</time>
      </trkpt>
      <trkpt lat="44.30311" lon="3.07162">
        <ele>701.8</ele>
        <time>2023-06-25T08:05:33Z</time>
      </trkpt>
      <trkpt lat="44.30306" lon="3.07159">
        <ele>701.8</ele>
        <time>2023-06-25T08:05:35Z</time>
      </trkpt>
      <trkpt lat="44.30302" lon="3.07157">
        <ele>701.8</ele>
        <time>2023-06-25T08:05:36Z</time>
      </trkpt>
      <trkpt lat="44.30298" lon="3.07158">
        <ele>701.8</ele>
        <time>2023-06-25T08:05:37Z</time>
      </trkpt>
      <trkpt lat="44.30294" lon="3.07159">
        <ele>701.8</ele>
        <time>2023-06-25T08:05:38Z</time>
      </trkpt>
      <trkpt lat="44.30289" lon="3.07161">
        <ele>701.8</ele>
        <time>2023-06-25T08:05:39Z</time>
      </trkpt>
      <trkpt lat="44.30284" lon="3.07165">
        <ele>701.7</ele>
        <time>2023-06-25T08:05:41Z</time>
      </trkpt>
      <trkpt lat="44.30281" lon="3.07166">
        <ele>701.7</ele>
        <time>2023-06-25T08:05:42Z</time>
      </trkpt>
      <trkpt lat="44.30277" lon="3.07164">
        <ele>701.7</ele>
        <time>2023-06-25T08:05:43Z</time>
      </trkpt>
      <trkpt lat="44.30271" lon="3.07154">
        <ele>701.6</ele>
        <time>2023-06-25T08:05:45Z</time>
      </trkpt>
      <trkpt lat="44.30269" lon="3.07146">
        <ele>701.5</ele>
        <time>2023-06-25T08:05:47Z</time>
      </trkpt>
      <trkpt lat="44.30269" lon="3.07139">
        <ele>701.2</ele>
        <time>2023-06-25T08:05:48Z</time>
      </trkpt>
      <trkpt lat="44.30271" lon="3.07123">
        <ele>700.6</ele>
        <time>2023-06-25T08:05:50Z</time>
      </trkpt>
      <trkpt lat="44.30273" lon="3.07115">
        <ele>700.2</ele>
        <time>2023-06-25T08:05:51Z</time>
      </trkpt>
      <trkpt lat="44.30276" lon="3.07106">
        <ele>699.7</ele>
        <time>2023-06-25T08:05:52Z</time>
      </trkpt>
      <trkpt lat="44.30276" lon="3.07097">
        <ele>699.3</ele>
        <time>2023-06-25T08:05:53Z</time>
      </trkpt>
      <trkpt lat="44.30276" lon="3.07087">
        <ele>698.9</ele>
        <time>2023-06-25T08:05:54Z</time>
      </trkpt>
      <trkpt lat="44.30273" lon="3.07077">
        <ele>698.4</ele>
        <time>2023-06-25T08:05:55Z</time>
      </trkpt>
      <trkpt lat="44.30268" lon="3.07068">
        <ele>698</ele>
        <time>2023-06-25T08:05:56Z</time>
      </trkpt>
      <trkpt lat="44.30263" lon="3.07059">
        <ele>697.7</ele>
        <time>2023-06-25T08:05:57Z</time>
      </trkpt>
      <trkpt lat="44.30255" lon="3.07053">
        <ele>697.5</ele>
        <time>2023-06-25T08:05:58Z</time>
      </trkpt>
      <trkpt lat="44.30247" lon="3.0705">
        <ele>697.5</ele>
        <time>2023-06-25T08:05:59Z</time>
      </trkpt>
      <trkpt lat="44.30239" lon="3.07047">
        <ele>697.5</ele>
        <time>2023-06-25T08:06:00Z</time>
      </trkpt>
      <trkpt lat="44.30231" lon="3.07046">
        <ele>697.6</ele>
        <time>2023-06-25T08:06:01Z</time>
      </trkpt>
      <trkpt lat="44.30224" lon="3.07044">
        <ele>697.7</ele>
        <time>2023-06-25T08:06:02Z</time>
      </trkpt>
      <trkpt lat="44.30217" lon="3.07044">
        <ele>697.9</ele>
        <time>2023-06-25T08:06:03Z</time>
      </trkpt>
      <trkpt lat="44.30211" lon="3.07043">
        <ele>698.1</ele>
        <time>2023-06-25T08:06:04Z</time>
      </trkpt>
      <trkpt lat="44.30205" lon="3.07042">
        <ele>698.3</ele>
        <time>2023-06-25T08:06:05Z</time>
      </trkpt>
      <trkpt lat="44.302" lon="3.07041">
        <ele>698.5</ele>
        <time>2023-06-25T08:06:06Z</time>
      </trkpt>
      <trkpt lat="44.30195" lon="3.07041">
        <ele>698.6</ele>
        <time>2023-06-25T08:06:07Z</time>
      </trkpt>
      <trkpt lat="44.3019" lon="3.07041">
        <ele>698.7</ele>
        <time>2023-06-25T08:06:08Z</time>
      </trkpt>
      <trkpt lat="44.30185" lon="3.07042">
        <ele>698.9</ele>
        <time>2023-06-25T08:06:09Z</time>
      </trkpt>
      <trkpt lat="44.3018" lon="3.07042">
        <ele>699.1</ele>
        <time>2023-06-25T08:06:10Z</time>
      </trkpt>
      <trkpt lat="44.30176" lon="3.07041">
        <ele>699.3</ele>
        <time>2023-06-25T08:06:11Z</time>
      </trkpt>
      <trkpt lat="44.30173" lon="3.07041">
        <ele>699.4</ele>
        <time>2023-06-25T08:06:12Z</time>
      </trkpt>
      <trkpt lat="44.30169" lon="3.0704">
        <ele>699.6</ele>
        <time>2023-06-25T08:06:13Z</time>
      </trkpt>
      <trkpt lat="44.30165" lon="3.07039">
        <ele>699.8</ele>
        <time>2023-06-25T08:06:14Z</time>
      </trkpt>
      <trkpt lat="44.30161" lon="3.07038">
        <ele>699.9</ele>
        <time>2023-06-25T08:06:15Z</time>
      </trkpt>
      <trkpt lat="44.30156" lon="3.07037">
        <ele>700.1</ele>
        <time>2023-06-25T08:06:16Z</time>
      </trkpt>
      <trkpt lat="44.30152" lon="3.07037">
        <ele>700.2</ele>
        <time>2023-06-25T08:06:17Z</time>
      </trkpt>
      <trkpt lat="44.30149" lon="3.07037">
        <ele>700.3</ele>
        <time>2023-06-25T08:06:18Z</time>
      </trkpt>
      <trkpt lat="44.30146" lon="3.07036">
        <ele>700.4</ele>
        <time>2023-06-25T08:06:19Z</time>
      </trkpt>
      <trkpt lat="44.30137" lon="3.07034">
        <ele>700.8</ele>
        <time>2023-06-25T08:06:21Z</time>
      </trkpt>
      <trkpt lat="44.30132" lon="3.07033">
        <ele>701</ele>
        <time>2023-06-25T08:06:22Z</time>
      </trkpt>
      <trkpt lat="44.30125" lon="3.07033">
        <ele>701.3</ele>
        <time>2023-06-25T08:06:24Z</time>
      </trkpt>
      <trkpt lat="44.30121" lon="3.07032">
        <ele>701.4</ele>
        <time>2023-06-25T08:06:25Z</time>
      </trkpt>
      <trkpt lat="44.30115" lon="3.07031">
        <ele>701.7</ele>
        <time>2023-06-25T08:06:27Z</time>
      </trkpt>
      <trkpt lat="44.30111" lon="3.07031">
        <ele>701.8</ele>
        <time>2023-06-25T08:06:28Z</time>
      </trkpt>
      <trkpt lat="44.30105" lon="3.0703">
        <ele>702</ele>
        <time>2023-06-25T08:06:30Z</time>
      </trkpt>
      <trkpt lat="44.301" lon="3.07029">
        <ele>702.1</ele>
        <time>2023-06-25T08:06:31Z</time>
      </trkpt>
      <trkpt lat="44.30096" lon="3.07028">
        <ele>702.2</ele>
        <time>2023-06-25T08:06:32Z</time>
      </trkpt>
      <trkpt lat="44.3009" lon="3.07026">
        <ele>702.2</ele>
        <time>2023-06-25T08:06:34Z</time>
      </trkpt>
      <trkpt lat="44.30086" lon="3.07024">
        <ele>702.3</ele>
        <time>2023-06-25T08:06:35Z</time>
      </trkpt>
      <trkpt lat="44.30081" lon="3.07022">
        <ele>702.2</ele>
        <time>2023-06-25T08:06:36Z</time>
      </trkpt>
      <trkpt lat="44.30076" lon="3.0702">
        <ele>702.2</ele>
        <time>2023-06-25T08:06:37Z</time>
      </trkpt>
      <trkpt lat="44.30072" lon="3.07019">
        <ele>702.1</ele>
        <time>2023-06-25T08:06:38Z</time>
      </trkpt>
      <trkpt lat="44.30067" lon="3.07016">
        <ele>702</ele>
        <time>2023-06-25T08:06:39Z</time>
      </trkpt>
      <trkpt lat="44.30062" lon="3.07013">
        <ele>701.9</ele>
        <time>2023-06-25T08:06:40Z</time>
      </trkpt>
      <trkpt lat="44.30057" lon="3.07011">
        <ele>701.9</ele>
        <time>2023-06-25T08:06:41Z</time>
      </trkpt>
      <trkpt lat="44.30052" lon="3.07009">
        <ele>701.9</ele>
        <time>2023-06-25T08:06:42Z</time>
      </trkpt>
      <trkpt lat="44.30046" lon="3.07007">
        <ele>701.9</ele>
        <time>2023-06-25T08:06:43Z</time>
      </trkpt>
      <trkpt lat="44.30041" lon="3.07005">
        <ele>702</ele>
        <time>2023-06-25T08:06:44Z</time>
      </trkpt>
      <trkpt lat="44.30036" lon="3.07004">
        <ele>702.2</ele>
        <time>2023-06-25T08:06:45Z</time>
      </trkpt>
      <trkpt lat="44.30031" lon="3.07003">
        <ele>702.5</ele>
        <time>2023-06-25T08:06:46Z</time>
      </trkpt>
      <trkpt lat="44.30026" lon="3.07003">
        <ele>702.7</ele>
        <time>2023-06-25T08:06:47Z</time>
      </trkpt>
      <trkpt lat="44.30021" lon="3.07003">
        <ele>703</ele>
        <time>2023-06-25T08:06:48Z</time>
      </trkpt>
      <trkpt lat="44.30017" lon="3.07003">
        <ele>703.3</ele>
        <time>2023-06-25T08:06:49Z</time>
      </trkpt>
      <trkpt lat="44.30013" lon="3.07002">
        <ele>703.5</ele>
        <time>2023-06-25T08:06:50Z</time>
      </trkpt>
      <trkpt lat="44.30008" lon="3.07002">
        <ele>703.9</ele>
        <time>2023-06-25T08:06:51Z</time>
      </trkpt>
      <trkpt lat="44.30002" lon="3.07">
        <ele>704.4</ele>
        <time>2023-06-25T08:06:53Z</time>
      </trkpt>
      <trkpt lat="44.29999" lon="3.06996">
        <ele>704.7</ele>
        <time>2023-06-25T08:06:54Z</time>
      </trkpt>
      <trkpt lat="44.29998" lon="3.06993">
        <ele>704.9</ele>
        <time>2023-06-25T08:06:55Z</time>
      </trkpt>
      <trkpt lat="44.29996" lon="3.06987">
        <ele>705.2</ele>
        <time>2023-06-25T08:06:56Z</time>
      </trkpt>
      <trkpt lat="44.29995" lon="3.06982">
        <ele>705.5</ele>
        <time>2023-06-25T08:06:57Z</time>
      </trkpt>
      <trkpt lat="44.29995" lon="3.06974">
        <ele>705.9</ele>
        <time>2023-06-25T08:06:59Z</time>
      </trkpt>
      <trkpt lat="44.29996" lon="3.06969">
        <ele>706.2</ele>
        <time>2023-06-25T08:07:00Z</time>
      </trkpt>
      <trkpt lat="44.29998" lon="3.06963">
        <ele>706.4</ele>
        <time>2023-06-25T08:07:02Z</time>
      </trkpt>
      <trkpt lat="44.29998" lon="3.06957">
        <ele>706.7</ele>
        <time>2023-06-25T08:07:03Z</time>
      </trkpt>
      <trkpt lat="44.29999" lon="3.06951">
        <ele>707</ele>
        <time>2023-06-25T08:07:04Z</time>
      </trkpt>
      <trkpt lat="44.3" lon="3.06944">
        <ele>707.3</ele>
        <time>2023-06-25T08:07:06Z</time>
      </trkpt>
      <trkpt lat="44.30001" lon="3.06941">
        <ele>707.5</ele>
        <time>2023-06-25T08:07:07Z</time>
      </trkpt>
      <trkpt lat="44.30001" lon="3.06935">
        <ele>707.8</ele>
        <time>2023-06-25T08:07:09Z</time>
      </trkpt>
      <trkpt lat="44.30002" lon="3.06931">
        <ele>708</ele>
        <time>2023-06-25T08:07:10Z</time>
      </trkpt>
      <trkpt lat="44.30002" lon="3.06929">
        <ele>708.1</ele>
        <time>2023-06-25T08:07:11Z</time>
      </trkpt>
      <trkpt lat="44.30002" lon="3.06923">
        <ele>708.3</ele>
        <time>2023-06-25T08:07:12Z</time>
      </trkpt>
      <trkpt lat="44.30002" lon="3.06921">
        <ele>708.4</ele>
        <time>2023-06-25T08:07:13Z</time>
      </trkpt>
      <trkpt lat="44.30002" lon="3.06917">
        <ele>708.6</ele>
        <time>2023-06-25T08:07:15Z</time>
      </trkpt>
      <trkpt lat="44.30003" lon="3.06912">
        <ele>708.8</ele>
        <time>2023-06-25T08:07:16Z</time>
      </trkpt>
      <trkpt lat="44.30003" lon="3.06908">
        <ele>709</ele>
        <time>2023-06-25T08:07:17Z</time>
      </trkpt>
      <trkpt lat="44.30002" lon="3.06903">
        <ele>709.2</ele>
        <time>2023-06-25T08:07:18Z</time>
      </trkpt>
      <trkpt lat="44.30002" lon="3.06898">
        <ele>709.5</ele>
        <time>2023-06-25T08:07:19Z</time>
      </trkpt>
      <trkpt lat="44.30002" lon="3.06894">
        <ele>709.7</ele>
        <time>2023-06-25T08:07:21Z</time>
      </trkpt>
      <trkpt lat="44.30002" lon="3.0689">
        <ele>709.9</ele>
        <time>2023-06-25T08:07:22Z</time>
      </trkpt>
      <trkpt lat="44.30001" lon="3.06886">
        <ele>710.1</ele>
        <time>2023-06-25T08:07:23Z</time>
      </trkpt>
      <trkpt lat="44.30001" lon="3.0688">
        <ele>710.3</ele>
        <time>2023-06-25T08:07:24Z</time>
      </trkpt>
      <trkpt lat="44.30001" lon="3.06875">
        <ele>710.5</ele>
        <time>2023-06-25T08:07:25Z</time>
      </trkpt>
      <trkpt lat="44.3" lon="3.0687">
        <ele>710.7</ele>
        <time>2023-06-25T08:07:26Z</time>
      </trkpt>
      <trkpt lat="44.29999" lon="3.06865">
        <ele>711</ele>
        <time>2023-06-25T08:07:28Z</time>
      </trkpt>
      <trkpt lat="44.29999" lon="3.06861">
        <ele>711.1</ele>
        <time>2023-06-25T08:07:29Z</time>
      </trkpt>
      <trkpt lat="44.29999" lon="3.06857">
        <ele>711.3</ele>
        <time>2023-06-25T08:07:30Z</time>
      </trkpt>
      <trkpt lat="44.29998" lon="3.06853">
        <ele>711.4</ele>
        <time>2023-06-25T08:07:31Z</time>
      </trkpt>
      <trkpt lat="44.29997" lon="3.06848">
        <ele>711.6</ele>
        <time>2023-06-25T08:07:32Z</time>
      </trkpt>
      <trkpt lat="44.29997" lon="3.06844">
        <ele>711.7</ele>
        <time>2023-06-25T08:07:33Z</time>
      </trkpt>
      <trkpt lat="44.29996" lon="3.06839">
        <ele>711.9</ele>
        <time>2023-06-25T08:07:35Z</time>
      </trkpt>
      <trkpt lat="44.29996" lon="3.06837">
        <ele>712</ele>
        <time>2023-06-25T08:07:36Z</time>
      </trkpt>
      <trkpt lat="44.29996" lon="3.06832">
        <ele>712.2</ele>
        <time>2023-06-25T08:07:37Z</time>
      </trkpt>
      <trkpt lat="44.29995" lon="3.06828">
        <ele>712.3</ele>
        <time>2023-06-25T08:07:38Z</time>
      </trkpt>
      <trkpt lat="44.29995" lon="3.06821">
        <ele>712.6</ele>
        <time>2023-06-25T08:07:40Z</time>
      </trkpt>
      <trkpt lat="44.29995" lon="3.06816">
        <ele>712.7</ele>
        <time>2023-06-25T08:07:41Z</time>
      </trkpt>
      <trkpt lat="44.29994" lon="3.06809">
        <ele>712.9</ele>
        <time>2023-06-25T08:07:43Z</time>
      </trkpt>
      <trkpt lat="44.29994" lon="3.06804">
        <ele>713.1</ele>
        <time>2023-06-25T08:07:44Z</time>
      </trkpt>
      <trkpt lat="44.29993" lon="3.06799">
        <ele>713.2</ele>
        <time>2023-06-25T08:07:45Z</time>
      </trkpt>
      <trkpt lat="44.29992" lon="3.06795">
        <ele>713.2</ele>
        <time>2023-06-25T08:07:46Z</time>
      </trkpt>
      <trkpt lat="44.29991" lon="3.0679">
        <ele>713.3</ele>
        <time>2023-06-25T08:07:48Z</time>
      </trkpt>
      <trkpt lat="44.2999" lon="3.06784">
        <ele>713.4</ele>
        <time>2023-06-25T08:07:50Z</time>
      </trkpt>
      <trkpt lat="44.29989" lon="3.06779">
        <ele>713.5</ele>
        <time>2023-06-25T08:07:51Z</time>
      </trkpt>
      <trkpt lat="44.29988" lon="3.06774">
        <ele>713.6</ele>
        <time>2023-06-25T08:07:52Z</time>
      </trkpt>
      <trkpt lat="44.29988" lon="3.0677">
        <ele>713.6</ele>
        <time>2023-06-25T08:07:53Z</time>
      </trkpt>
      <trkpt lat="44.29987" lon="3.06767">
        <ele>713.7</ele>
        <time>2023-06-25T08:07:54Z</time>
      </trkpt>
      <trkpt lat="44.29987" lon="3.06764">
        <ele>713.7</ele>
        <time>2023-06-25T08:07:56Z</time>
      </trkpt>
      <trkpt lat="44.29986" lon="3.0676">
        <ele>713.8</ele>
        <time>2023-06-25T08:07:57Z</time>
      </trkpt>
      <trkpt lat="44.29986" lon="3.06755">
        <ele>713.9</ele>
        <time>2023-06-25T08:07:58Z</time>
      </trkpt>
      <trkpt lat="44.29986" lon="3.06753">
        <ele>713.9</ele>
        <time>2023-06-25T08:07:59Z</time>
      </trkpt>
      <trkpt lat="44.29984" lon="3.06748">
        <ele>714</ele>
        <time>2023-06-25T08:08:01Z</time>
      </trkpt>
      <trkpt lat="44.29983" lon="3.06742">
        <ele>714.2</ele>
        <time>2023-06-25T08:08:02Z</time>
      </trkpt>
      <trkpt lat="44.29982" lon="3.0674">
        <ele>714.2</ele>
        <time>2023-06-25T08:08:03Z</time>
      </trkpt>
      <trkpt lat="44.2998" lon="3.06738">
        <ele>714.3</ele>
        <time>2023-06-25T08:08:04Z</time>
      </trkpt>
      <trkpt lat="44.29978" lon="3.06734">
        <ele>714.4</ele>
        <time>2023-06-25T08:08:05Z</time>
      </trkpt>
      <trkpt lat="44.29977" lon="3.0673">
        <ele>714.5</ele>
        <time>2023-06-25T08:08:06Z</time>
      </trkpt>
      <trkpt lat="44.29975" lon="3.06723">
        <ele>714.6</ele>
        <time>2023-06-25T08:08:08Z</time>
      </trkpt>
      <trkpt lat="44.29975" lon="3.06719">
        <ele>714.7</ele>
        <time>2023-06-25T08:08:09Z</time>
      </trkpt>
      <trkpt lat="44.29974" lon="3.06714">
        <ele>714.8</ele>
        <time>2023-06-25T08:08:10Z</time>
      </trkpt>
      <trkpt lat="44.29974" lon="3.06712">
        <ele>714.9</ele>
        <time>2023-06-25T08:08:11Z</time>
      </trkpt>
      <trkpt lat="44.29971" lon="3.06706">
        <ele>715</ele>
        <time>2023-06-25T08:08:13Z</time>
      </trkpt>
      <trkpt lat="44.29969" lon="3.06702">
        <ele>715.1</ele>
        <time>2023-06-25T08:08:14Z</time>
      </trkpt>
      <trkpt lat="44.29968" lon="3.06698">
        <ele>715.3</ele>
        <time>2023-06-25T08:08:15Z</time>
      </trkpt>
      <trkpt lat="44.29967" lon="3.06696">
        <ele>715.3</ele>
        <time>2023-06-25T08:08:16Z</time>
      </trkpt>
      <trkpt lat="44.29966" lon="3.06692">
        <ele>715.4</ele>
        <time>2023-06-25T08:08:17Z</time>
      </trkpt>
      <trkpt lat="44.29966" lon="3.06687">
        <ele>715.6</ele>
        <time>2023-06-25T08:08:18Z</time>
      </trkpt>
      <trkpt lat="44.29965" lon="3.06686">
        <ele>715.6</ele>
        <time>2023-06-25T08:08:19Z</time>
      </trkpt>
      <trkpt lat="44.29965" lon="3.0668">
        <ele>715.8</ele>
        <time>2023-06-25T08:08:21Z</time>
      </trkpt>
      <trkpt lat="44.29964" lon="3.06678">
        <ele>715.9</ele>
        <time>2023-06-25T08:08:22Z</time>
      </trkpt>
      <trkpt lat="44.29964" lon="3.06676">
        <ele>716</ele>
        <time>2023-06-25T08:08:23Z</time>
      </trkpt>
      <trkpt lat="44.29963" lon="3.06673">
        <ele>716</ele>
        <time>2023-06-25T08:08:24Z</time>
      </trkpt>
      <trkpt lat="44.2996" lon="3.06669">
        <ele>716.2</ele>
        <time>2023-06-25T08:08:26Z</time>
      </trkpt>
      <trkpt lat="44.29959" lon="3.06666">
        <ele>716.3</ele>
        <time>2023-06-25T08:08:27Z</time>
      </trkpt>
      <trkpt lat="44.29959" lon="3.06661">
        <ele>716.5</ele>
        <time>2023-06-25T08:08:28Z</time>
      </trkpt>
      <trkpt lat="44.29958" lon="3.06654">
        <ele>716.7</ele>
        <time>2023-06-25T08:08:30Z</time>
      </trkpt>
      <trkpt lat="44.29957" lon="3.0665">
        <ele>716.8</ele>
        <time>2023-06-25T08:08:31Z</time>
      </trkpt>
      <trkpt lat="44.29956" lon="3.06642">
        <ele>717.1</ele>
        <time>2023-06-25T08:08:33Z</time>
      </trkpt>
      <trkpt lat="44.29956" lon="3.06638">
        <ele>717.2</ele>
        <time>2023-06-25T08:08:34Z</time>
      </trkpt>
      <trkpt lat="44.29955" lon="3.06634">
        <ele>717.4</ele>
        <time>2023-06-25T08:08:35Z</time>
      </trkpt>
      <trkpt lat="44.29954" lon="3.06628">
        <ele>717.6</ele>
        <time>2023-06-25T08:08:37Z</time>
      </trkpt>
      <trkpt lat="44.29954" lon="3.06623">
        <ele>717.7</ele>
        <time>2023-06-25T08:08:38Z</time>
      </trkpt>
      <trkpt lat="44.29953" lon="3.06621">
        <ele>717.8</ele>
        <time>2023-06-25T08:08:39Z</time>
      </trkpt>
      <trkpt lat="44.29951" lon="3.06616">
        <ele>718.9</ele>
        <time>2023-06-25T08:08:41Z</time>
      </trkpt>
      <trkpt lat="44.29949" lon="3.06612">
        <ele>718.9</ele>
        <time>2023-06-25T08:08:42Z</time>
      </trkpt>
      <trkpt lat="44.29949" lon="3.06611">
        <ele>718.9</ele>
        <time>2023-06-25T08:08:43Z</time>
      </trkpt>
      <trkpt lat="44.29948" lon="3.06611">
        <ele>718.9</ele>
        <time>2023-06-25T08:08:44Z</time>
      </trkpt>
      <trkpt lat="44.29948" lon="3.06613">
        <ele>718.9</ele>
        <time>2023-06-25T08:08:45Z</time>
      </trkpt>
      <trkpt lat="44.29948" lon="3.06615">
        <ele>718.9</ele>
        <time>2023-06-25T08:08:46Z</time>
      </trkpt>
      <trkpt lat="44.29949" lon="3.06619">
        <ele>718.9</ele>
        <time>2023-06-25T08:08:48Z</time>
      </trkpt>
      <trkpt lat="44.29949" lon="3.0662">
        <ele>718.9</ele>
        <time>2023-06-25T08:08:49Z</time>
      </trkpt>
      <trkpt lat="44.29951" lon="3.06623">
        <ele>718.9</ele>
        <time>2023-06-25T08:08:50Z</time>
      </trkpt>
      <trkpt lat="44.29951" lon="3.06625">
        <ele>718.9</ele>
        <time>2023-06-25T08:08:51Z</time>
      </trkpt>
      <trkpt lat="44.29952" lon="3.06629">
        <ele>718.9</ele>
        <time>2023-06-25T08:08:52Z</time>
      </trkpt>
      <trkpt lat="44.29953" lon="3.06631">
        <ele>721.7</ele>
        <time>2023-06-25T08:08:53Z</time>
      </trkpt>
      <trkpt lat="44.29953" lon="3.06633">
        <ele>721.8</ele>
        <time>2023-06-25T08:08:54Z</time>
      </trkpt>
      <trkpt lat="44.29954" lon="3.06636">
        <ele>722</ele>
        <time>2023-06-25T08:08:56Z</time>
      </trkpt>
      <trkpt lat="44.29955" lon="3.06641">
        <ele>722.3</ele>
        <time>2023-06-25T08:08:57Z</time>
      </trkpt>
      <trkpt lat="44.29955" lon="3.06643">
        <ele>722.4</ele>
        <time>2023-06-25T08:08:58Z</time>
      </trkpt>
      <trkpt lat="44.29955" lon="3.06646">
        <ele>722.7</ele>
        <time>2023-06-25T08:08:59Z</time>
      </trkpt>
      <trkpt lat="44.29955" lon="3.06652">
        <ele>723</ele>
        <time>2023-06-25T08:09:01Z</time>
      </trkpt>
      <trkpt lat="44.29956" lon="3.06657">
        <ele>723.3</ele>
        <time>2023-06-25T08:09:02Z</time>
      </trkpt>
      <trkpt lat="44.29956" lon="3.06659">
        <ele>723.4</ele>
        <time>2023-06-25T08:09:03Z</time>
      </trkpt>
      <trkpt lat="44.29957" lon="3.06664">
        <ele>723.7</ele>
        <time>2023-06-25T08:09:04Z</time>
      </trkpt>
      <trkpt lat="44.29957" lon="3.06665">
        <ele>723.8</ele>
        <time>2023-06-25T08:09:05Z</time>
      </trkpt>
      <trkpt lat="44.29957" lon="3.06671">
        <ele>724.1</ele>
        <time>2023-06-25T08:09:06Z</time>
      </trkpt>
      <trkpt lat="44.29958" lon="3.06674">
        <ele>724.4</ele>
        <time>2023-06-25T08:09:07Z</time>
      </trkpt>
      <trkpt lat="44.29958" lon="3.0668">
        <ele>724.7</ele>
        <time>2023-06-25T08:09:09Z</time>
      </trkpt>
      <trkpt lat="44.29958" lon="3.06684">
        <ele>724.9</ele>
        <time>2023-06-25T08:09:10Z</time>
      </trkpt>
      <trkpt lat="44.29958" lon="3.06688">
        <ele>725.1</ele>
        <time>2023-06-25T08:09:11Z</time>
      </trkpt>
      <trkpt lat="44.29958" lon="3.06693">
        <ele>725.4</ele>
        <time>2023-06-25T08:09:12Z</time>
      </trkpt>
      <trkpt lat="44.29958" lon="3.06695">
        <ele>725.5</ele>
        <time>2023-06-25T08:09:13Z</time>
      </trkpt>
      <trkpt lat="44.29959" lon="3.06699">
        <ele>725.8</ele>
        <time>2023-06-25T08:09:14Z</time>
      </trkpt>
      <trkpt lat="44.2996" lon="3.06704">
        <ele>726</ele>
        <time>2023-06-25T08:09:15Z</time>
      </trkpt>
      <trkpt lat="44.2996" lon="3.06709">
        <ele>726.3</ele>
        <time>2023-06-25T08:09:17Z</time>
      </trkpt>
      <trkpt lat="44.2996" lon="3.06712">
        <ele>726.5</ele>
        <time>2023-06-25T08:09:18Z</time>
      </trkpt>
      <trkpt lat="44.2996" lon="3.06716">
        <ele>726.7</ele>
        <time>2023-06-25T08:09:19Z</time>
      </trkpt>
      <trkpt lat="44.29961" lon="3.06722">
        <ele>727.1</ele>
        <time>2023-06-25T08:09:21Z</time>
      </trkpt>
      <trkpt lat="44.29962" lon="3.06726">
        <ele>727.3</ele>
        <time>2023-06-25T08:09:22Z</time>
      </trkpt>
      <trkpt lat="44.29963" lon="3.0673">
        <ele>727.6</ele>
        <time>2023-06-25T08:09:23Z</time>
      </trkpt>
      <trkpt lat="44.29962" lon="3.06735">
        <ele>727.8</ele>
        <time>2023-06-25T08:09:24Z</time>
      </trkpt>
      <trkpt lat="44.29962" lon="3.06736">
        <ele>727.9</ele>
        <time>2023-06-25T08:09:25Z</time>
      </trkpt>
      <trkpt lat="44.29963" lon="3.06742">
        <ele>728.3</ele>
        <time>2023-06-25T08:09:27Z</time>
      </trkpt>
      <trkpt lat="44.29963" lon="3.06744">
        <ele>728.4</ele>
        <time>2023-06-25T08:09:28Z</time>
      </trkpt>
      <trkpt lat="44.29962" lon="3.06746">
        <ele>728.5</ele>
        <time>2023-06-25T08:09:29Z</time>
      </trkpt>
      <trkpt lat="44.29962" lon="3.06751">
        <ele>728.8</ele>
        <time>2023-06-25T08:09:30Z</time>
      </trkpt>
      <trkpt lat="44.29962" lon="3.06756">
        <ele>729.1</ele>
        <time>2023-06-25T08:09:31Z</time>
      </trkpt>
      <trkpt lat="44.29962" lon="3.06758">
        <ele>729.2</ele>
        <time>2023-06-25T08:09:32Z</time>
      </trkpt>
      <trkpt lat="44.29962" lon="3.06763">
        <ele>729.5</ele>
        <time>2023-06-25T08:09:34Z</time>
      </trkpt>
      <trkpt lat="44.29962" lon="3.06767">
        <ele>729.7</ele>
        <time>2023-06-25T08:09:35Z</time>
      </trkpt>
      <trkpt lat="44.29962" lon="3.06772">
        <ele>730</ele>
        <time>2023-06-25T08:09:37Z</time>
      </trkpt>
      <trkpt lat="44.29962" lon="3.06777">
        <ele>730.3</ele>
        <time>2023-06-25T08:09:38Z</time>
      </trkpt>
      <trkpt lat="44.29961" lon="3.06781">
        <ele>730.5</ele>
        <time>2023-06-25T08:09:39Z</time>
      </trkpt>
      <trkpt lat="44.29961" lon="3.06784">
        <ele>730.7</ele>
        <time>2023-06-25T08:09:40Z</time>
      </trkpt>
      <trkpt lat="44.29959" lon="3.06792">
        <ele>731.2</ele>
        <time>2023-06-25T08:09:42Z</time>
      </trkpt>
      <trkpt lat="44.29958" lon="3.06796">
        <ele>731.4</ele>
        <time>2023-06-25T08:09:43Z</time>
      </trkpt>
      <trkpt lat="44.29955" lon="3.06803">
        <ele>731.9</ele>
        <time>2023-06-25T08:09:45Z</time>
      </trkpt>
      <trkpt lat="44.29953" lon="3.06808">
        <ele>732.2</ele>
        <time>2023-06-25T08:09:46Z</time>
      </trkpt>
      <trkpt lat="44.29952" lon="3.06812">
        <ele>732.4</ele>
        <time>2023-06-25T08:09:47Z</time>
      </trkpt>
      <trkpt lat="44.29951" lon="3.06816">
        <ele>732.7</ele>
        <time>2023-06-25T08:09:48Z</time>
      </trkpt>
      <trkpt lat="44.2995" lon="3.06821">
        <ele>733</ele>
        <time>2023-06-25T08:09:49Z</time>
      </trkpt>
      <trkpt lat="44.29948" lon="3.06826">
        <ele>733.3</ele>
        <time>2023-06-25T08:09:51Z</time>
      </trkpt>
      <trkpt lat="44.29946" lon="3.0683">
        <ele>733.6</ele>
        <time>2023-06-25T08:09:52Z</time>
      </trkpt>
      <trkpt lat="44.29944" lon="3.06834">
        <ele>733.8</ele>
        <time>2023-06-25T08:09:53Z</time>
      </trkpt>
      <trkpt lat="44.29943" lon="3.06835">
        <ele>733.9</ele>
        <time>2023-06-25T08:09:54Z</time>
      </trkpt>
      <trkpt lat="44.29943" lon="3.06839">
        <ele>734.2</ele>
        <time>2023-06-25T08:09:56Z</time>
      </trkpt>
      <trkpt lat="44.29942" lon="3.06843">
        <ele>734.4</ele>
        <time>2023-06-25T08:09:57Z</time>
      </trkpt>
      <trkpt lat="44.29941" lon="3.06848">
        <ele>734.7</ele>
        <time>2023-06-25T08:09:58Z</time>
      </trkpt>
      <trkpt lat="44.2994" lon="3.06852">
        <ele>734.9</ele>
        <time>2023-06-25T08:09:59Z</time>
      </trkpt>
      <trkpt lat="44.29938" lon="3.06855">
        <ele>735.2</ele>
        <time>2023-06-25T08:10:00Z</time>
      </trkpt>
      <trkpt lat="44.29937" lon="3.06858">
        <ele>735.4</ele>
        <time>2023-06-25T08:10:01Z</time>
      </trkpt>
      <trkpt lat="44.29934" lon="3.06864">
        <ele>735.8</ele>
        <time>2023-06-25T08:10:03Z</time>
      </trkpt>
      <trkpt lat="44.29932" lon="3.06867">
        <ele>736.1</ele>
        <time>2023-06-25T08:10:04Z</time>
      </trkpt>
      <trkpt lat="44.2993" lon="3.0687">
        <ele>736.3</ele>
        <time>2023-06-25T08:10:05Z</time>
      </trkpt>
      <trkpt lat="44.29925" lon="3.06874">
        <ele>736.8</ele>
        <time>2023-06-25T08:10:07Z</time>
      </trkpt>
      <trkpt lat="44.29923" lon="3.06876">
        <ele>737</ele>
        <time>2023-06-25T08:10:08Z</time>
      </trkpt>
      <trkpt lat="44.29921" lon="3.06879">
        <ele>737.2</ele>
        <time>2023-06-25T08:10:09Z</time>
      </trkpt>
      <trkpt lat="44.29915" lon="3.06882">
        <ele>737.8</ele>
        <time>2023-06-25T08:10:11Z</time>
      </trkpt>
      <trkpt lat="44.29911" lon="3.06883">
        <ele>738.1</ele>
        <time>2023-06-25T08:10:12Z</time>
      </trkpt>
      <trkpt lat="44.29906" lon="3.06884">
        <ele>738.5</ele>
        <time>2023-06-25T08:10:13Z</time>
      </trkpt>
      <trkpt lat="44.29901" lon="3.06885">
        <ele>739</ele>
        <time>2023-06-25T08:10:15Z</time>
      </trkpt>
      <trkpt lat="44.29897" lon="3.06886">
        <ele>739.4</ele>
        <time>2023-06-25T08:10:16Z</time>
      </trkpt>
      <trkpt lat="44.29892" lon="3.06886">
        <ele>739.8</ele>
        <time>2023-06-25T08:10:18Z</time>
      </trkpt>
      <trkpt lat="44.29888" lon="3.06886">
        <ele>740.1</ele>
        <time>2023-06-25T08:10:19Z</time>
      </trkpt>
      <trkpt lat="44.29885" lon="3.06885">
        <ele>740.5</ele>
        <time>2023-06-25T08:10:20Z</time>
      </trkpt>
      <trkpt lat="44.29881" lon="3.06885">
        <ele>740.8</ele>
        <time>2023-06-25T08:10:22Z</time>
      </trkpt>
      <trkpt lat="44.29878" lon="3.06885">
        <ele>741.1</ele>
        <time>2023-06-25T08:10:23Z</time>
      </trkpt>
      <trkpt lat="44.29875" lon="3.06885">
        <ele>741.3</ele>
        <time>2023-06-25T08:10:24Z</time>
      </trkpt>
      <trkpt lat="44.29871" lon="3.06885">
        <ele>741.7</ele>
        <time>2023-06-25T08:10:25Z</time>
      </trkpt>
      <trkpt lat="44.2987" lon="3.06885">
        <ele>741.8</ele>
        <time>2023-06-25T08:10:26Z</time>
      </trkpt>
      <trkpt lat="44.29865" lon="3.06886">
        <ele>742.3</ele>
        <time>2023-06-25T08:10:28Z</time>
      </trkpt>
      <trkpt lat="44.2986" lon="3.06886">
        <ele>742.7</ele>
        <time>2023-06-25T08:10:29Z</time>
      </trkpt>
      <trkpt lat="44.29859" lon="3.06886">
        <ele>742.9</ele>
        <time>2023-06-25T08:10:30Z</time>
      </trkpt>
      <trkpt lat="44.29854" lon="3.06886">
        <ele>743.4</ele>
        <time>2023-06-25T08:10:32Z</time>
      </trkpt>
      <trkpt lat="44.2985" lon="3.06884">
        <ele>743.7</ele>
        <time>2023-06-25T08:10:33Z</time>
      </trkpt>
      <trkpt lat="44.29848" lon="3.06884">
        <ele>743.9</ele>
        <time>2023-06-25T08:10:34Z</time>
      </trkpt>
      <trkpt lat="44.29843" lon="3.06883">
        <ele>744.4</ele>
        <time>2023-06-25T08:10:36Z</time>
      </trkpt>
      <trkpt lat="44.29839" lon="3.06883">
        <ele>744.8</ele>
        <time>2023-06-25T08:10:37Z</time>
      </trkpt>
      <trkpt lat="44.29838" lon="3.06883">
        <ele>744.9</ele>
        <time>2023-06-25T08:10:38Z</time>
      </trkpt>
      <trkpt lat="44.29835" lon="3.06882">
        <ele>745.2</ele>
        <time>2023-06-25T08:10:39Z</time>
      </trkpt>
      <trkpt lat="44.29833" lon="3.06882">
        <ele>745.3</ele>
        <time>2023-06-25T08:10:40Z</time>
      </trkpt>
      <trkpt lat="44.29828" lon="3.0688">
        <ele>745.8</ele>
        <time>2023-06-25T08:10:42Z</time>
      </trkpt>
      <trkpt lat="44.29827" lon="3.0688">
        <ele>745.9</ele>
        <time>2023-06-25T08:10:43Z</time>
      </trkpt>
      <trkpt lat="44.29826" lon="3.06879">
        <ele>746.1</ele>
        <time>2023-06-25T08:10:44Z</time>
      </trkpt>
      <trkpt lat="44.29823" lon="3.06879">
        <ele>746.3</ele>
        <time>2023-06-25T08:10:45Z</time>
      </trkpt>
      <trkpt lat="44.2982" lon="3.06879">
        <ele>746.6</ele>
        <time>2023-06-25T08:10:47Z</time>
      </trkpt>
      <trkpt lat="44.29817" lon="3.06879">
        <ele>746.8</ele>
        <time>2023-06-25T08:10:48Z</time>
      </trkpt>
      <trkpt lat="44.29814" lon="3.06879">
        <ele>747.1</ele>
        <time>2023-06-25T08:10:49Z</time>
      </trkpt>
      <trkpt lat="44.29813" lon="3.06879">
        <ele>747.2</ele>
        <time>2023-06-25T08:10:50Z</time>
      </trkpt>
      <trkpt lat="44.29808" lon="3.06878">
        <ele>747.6</ele>
        <time>2023-06-25T08:10:51Z</time>
      </trkpt>
      <trkpt lat="44.29807" lon="3.06878">
        <ele>747.8</ele>
        <time>2023-06-25T08:10:52Z</time>
      </trkpt>
      <trkpt lat="44.29803" lon="3.06878">
        <ele>748.1</ele>
        <time>2023-06-25T08:10:54Z</time>
      </trkpt>
      <trkpt lat="44.29802" lon="3.06878">
        <ele>748.2</ele>
        <time>2023-06-25T08:10:55Z</time>
      </trkpt>
      <trkpt lat="44.29798" lon="3.06878">
        <ele>748.5</ele>
        <time>2023-06-25T08:10:56Z</time>
      </trkpt>
      <trkpt lat="44.29797" lon="3.06877">
        <ele>748.6</ele>
        <time>2023-06-25T08:10:57Z</time>
      </trkpt>
      <trkpt lat="44.29793" lon="3.06877">
        <ele>749</ele>
        <time>2023-06-25T08:10:58Z</time>
      </trkpt>
      <trkpt lat="44.29792" lon="3.06877">
        <ele>749.1</ele>
        <time>2023-06-25T08:10:59Z</time>
      </trkpt>
      <trkpt lat="44.29789" lon="3.06876">
        <ele>749.3</ele>
        <time>2023-06-25T08:11:00Z</time>
      </trkpt>
      <trkpt lat="44.29786" lon="3.06876">
        <ele>749.5</ele>
        <time>2023-06-25T08:11:01Z</time>
      </trkpt>
      <trkpt lat="44.29781" lon="3.06875">
        <ele>750</ele>
        <time>2023-06-25T08:11:03Z</time>
      </trkpt>
      <trkpt lat="44.29779" lon="3.06875">
        <ele>750.1</ele>
        <time>2023-06-25T08:11:04Z</time>
      </trkpt>
      <trkpt lat="44.29777" lon="3.06875">
        <ele>750.3</ele>
        <time>2023-06-25T08:11:05Z</time>
      </trkpt>
      <trkpt lat="44.29774" lon="3.06875">
        <ele>750.5</ele>
        <time>2023-06-25T08:11:06Z</time>
      </trkpt>
      <trkpt lat="44.29769" lon="3.06876">
        <ele>750.8</ele>
        <time>2023-06-25T08:11:08Z</time>
      </trkpt>
      <trkpt lat="44.29766" lon="3.06877">
        <ele>751.1</ele>
        <time>2023-06-25T08:11:09Z</time>
      </trkpt>
      <trkpt lat="44.29763" lon="3.06878">
        <ele>751.4</ele>
        <time>2023-06-25T08:11:10Z</time>
      </trkpt>
      <trkpt lat="44.29759" lon="3.06878">
        <ele>751.7</ele>
        <time>2023-06-25T08:11:11Z</time>
      </trkpt>
      <trkpt lat="44.29758" lon="3.06879">
        <ele>751.9</ele>
        <time>2023-06-25T08:11:12Z</time>
      </trkpt>
      <trkpt lat="44.29755" lon="3.06879">
        <ele>752.1</ele>
        <time>2023-06-25T08:11:13Z</time>
      </trkpt>
      <trkpt lat="44.29752" lon="3.0688">
        <ele>752.4</ele>
        <time>2023-06-25T08:11:15Z</time>
      </trkpt>
      <trkpt lat="44.29749" lon="3.0688">
        <ele>752.6</ele>
        <time>2023-06-25T08:11:16Z</time>
      </trkpt>
      <trkpt lat="44.29745" lon="3.0688">
        <ele>752.9</ele>
        <time>2023-06-25T08:11:17Z</time>
      </trkpt>
      <trkpt lat="44.29742" lon="3.06878">
        <ele>753.3</ele>
        <time>2023-06-25T08:11:18Z</time>
      </trkpt>
      <trkpt lat="44.2974" lon="3.06876">
        <ele>753.5</ele>
        <time>2023-06-25T08:11:19Z</time>
      </trkpt>
      <trkpt lat="44.29736" lon="3.06873">
        <ele>753.9</ele>
        <time>2023-06-25T08:11:20Z</time>
      </trkpt>
      <trkpt lat="44.29732" lon="3.06871">
        <ele>754.2</ele>
        <time>2023-06-25T08:11:22Z</time>
      </trkpt>
      <trkpt lat="44.29729" lon="3.06868">
        <ele>754.5</ele>
        <time>2023-06-25T08:11:23Z</time>
      </trkpt>
      <trkpt lat="44.29726" lon="3.06864">
        <ele>754.9</ele>
        <time>2023-06-25T08:11:24Z</time>
      </trkpt>
      <trkpt lat="44.29725" lon="3.06863">
        <ele>755</ele>
        <time>2023-06-25T08:11:25Z</time>
      </trkpt>
      <trkpt lat="44.29722" lon="3.0686">
        <ele>755.3</ele>
        <time>2023-06-25T08:11:26Z</time>
      </trkpt>
      <trkpt lat="44.29721" lon="3.06859">
        <ele>755.4</ele>
        <time>2023-06-25T08:11:27Z</time>
      </trkpt>
      <trkpt lat="44.29719" lon="3.06856">
        <ele>755.7</ele>
        <time>2023-06-25T08:11:28Z</time>
      </trkpt>
      <trkpt lat="44.29717" lon="3.06853">
        <ele>756</ele>
        <time>2023-06-25T08:11:30Z</time>
      </trkpt>
      <trkpt lat="44.29716" lon="3.0685">
        <ele>756.2</ele>
        <time>2023-06-25T08:11:31Z</time>
      </trkpt>
      <trkpt lat="44.29713" lon="3.06846">
        <ele>756.6</ele>
        <time>2023-06-25T08:11:32Z</time>
      </trkpt>
      <trkpt lat="44.29712" lon="3.06845">
        <ele>756.7</ele>
        <time>2023-06-25T08:11:33Z</time>
      </trkpt>
      <trkpt lat="44.2971" lon="3.06842">
        <ele>757</ele>
        <time>2023-06-25T08:11:34Z</time>
      </trkpt>
      <trkpt lat="44.29708" lon="3.06839">
        <ele>757.2</ele>
        <time>2023-06-25T08:11:35Z</time>
      </trkpt>
      <trkpt lat="44.29706" lon="3.06836">
        <ele>757.5</ele>
        <time>2023-06-25T08:11:36Z</time>
      </trkpt>
      <trkpt lat="44.29704" lon="3.06831">
        <ele>757.8</ele>
        <time>2023-06-25T08:11:38Z</time>
      </trkpt>
      <trkpt lat="44.29702" lon="3.06828">
        <ele>758</ele>
        <time>2023-06-25T08:11:39Z</time>
      </trkpt>
      <trkpt lat="44.29701" lon="3.06824">
        <ele>758.3</ele>
        <time>2023-06-25T08:11:40Z</time>
      </trkpt>
      <trkpt lat="44.29699" lon="3.0682">
        <ele>758.5</ele>
        <time>2023-06-25T08:11:41Z</time>
      </trkpt>
      <trkpt lat="44.29697" lon="3.06817">
        <ele>758.8</ele>
        <time>2023-06-25T08:11:42Z</time>
      </trkpt>
      <trkpt lat="44.29696" lon="3.06813">
        <ele>759</ele>
        <time>2023-06-25T08:11:43Z</time>
      </trkpt>
      <trkpt lat="44.29694" lon="3.0681">
        <ele>759.3</ele>
        <time>2023-06-25T08:11:44Z</time>
      </trkpt>
      <trkpt lat="44.29692" lon="3.06805">
        <ele>759.7</ele>
        <time>2023-06-25T08:11:46Z</time>
      </trkpt>
      <trkpt lat="44.2969" lon="3.06801">
        <ele>759.9</ele>
        <time>2023-06-25T08:11:47Z</time>
      </trkpt>
      <trkpt lat="44.29688" lon="3.06798">
        <ele>760.2</ele>
        <time>2023-06-25T08:11:48Z</time>
      </trkpt>
      <trkpt lat="44.29686" lon="3.06794">
        <ele>760.5</ele>
        <time>2023-06-25T08:11:50Z</time>
      </trkpt>
      <trkpt lat="44.29684" lon="3.0679">
        <ele>760.9</ele>
        <time>2023-06-25T08:11:51Z</time>
      </trkpt>
      <trkpt lat="44.29683" lon="3.06788">
        <ele>761</ele>
        <time>2023-06-25T08:11:52Z</time>
      </trkpt>
      <trkpt lat="44.29681" lon="3.06784">
        <ele>761.4</ele>
        <time>2023-06-25T08:11:53Z</time>
      </trkpt>
      <trkpt lat="44.29681" lon="3.06782">
        <ele>761.5</ele>
        <time>2023-06-25T08:11:54Z</time>
      </trkpt>
      <trkpt lat="44.29678" lon="3.06778">
        <ele>761.9</ele>
        <time>2023-06-25T08:11:56Z</time>
      </trkpt>
      <trkpt lat="44.29675" lon="3.06774">
        <ele>762.3</ele>
        <time>2023-06-25T08:11:57Z</time>
      </trkpt>
      <trkpt lat="44.29674" lon="3.06772">
        <ele>762.4</ele>
        <time>2023-06-25T08:11:58Z</time>
      </trkpt>
      <trkpt lat="44.29672" lon="3.06769">
        <ele>762.7</ele>
        <time>2023-06-25T08:11:59Z</time>
      </trkpt>
      <trkpt lat="44.29671" lon="3.06766">
        <ele>763</ele>
        <time>2023-06-25T08:12:00Z</time>
      </trkpt>
      <trkpt lat="44.29667" lon="3.06761">
        <ele>763.5</ele>
        <time>2023-06-25T08:12:02Z</time>
      </trkpt>
      <trkpt lat="44.29666" lon="3.06759">
        <ele>763.7</ele>
        <time>2023-06-25T08:12:03Z</time>
      </trkpt>
      <trkpt lat="44.29662" lon="3.06754">
        <ele>764</ele>
        <time>2023-06-25T08:12:05Z</time>
      </trkpt>
      <trkpt lat="44.29661" lon="3.06752">
        <ele>764.2</ele>
        <time>2023-06-25T08:12:06Z</time>
      </trkpt>
      <trkpt lat="44.29657" lon="3.06749">
        <ele>764.6</ele>
        <time>2023-06-25T08:12:08Z</time>
      </trkpt>
      <trkpt lat="44.29655" lon="3.06746">
        <ele>764.8</ele>
        <time>2023-06-25T08:12:09Z</time>
      </trkpt>
      <trkpt lat="44.29654" lon="3.06745">
        <ele>764.9</ele>
        <time>2023-06-25T08:12:10Z</time>
      </trkpt>
      <trkpt lat="44.29651" lon="3.06742">
        <ele>765.2</ele>
        <time>2023-06-25T08:12:12Z</time>
      </trkpt>
      <trkpt lat="44.29648" lon="3.0674">
        <ele>765.4</ele>
        <time>2023-06-25T08:12:13Z</time>
      </trkpt>
      <trkpt lat="44.29647" lon="3.06739">
        <ele>765.5</ele>
        <time>2023-06-25T08:12:14Z</time>
      </trkpt>
      <trkpt lat="44.29643" lon="3.06737">
        <ele>765.8</ele>
        <time>2023-06-25T08:12:16Z</time>
      </trkpt>
      <trkpt lat="44.29641" lon="3.06736">
        <ele>765.9</ele>
        <time>2023-06-25T08:12:17Z</time>
      </trkpt>
      <trkpt lat="44.2964" lon="3.06735">
        <ele>766</ele>
        <time>2023-06-25T08:12:18Z</time>
      </trkpt>
      <trkpt lat="44.29636" lon="3.06734">
        <ele>766.4</ele>
        <time>2023-06-25T08:12:20Z</time>
      </trkpt>
      <trkpt lat="44.29634" lon="3.06734">
        <ele>766.6</ele>
        <time>2023-06-25T08:12:21Z</time>
      </trkpt>
      <trkpt lat="44.2963" lon="3.06732">
        <ele>766.9</ele>
        <time>2023-06-25T08:12:23Z</time>
      </trkpt>
      <trkpt lat="44.29628" lon="3.06731">
        <ele>767</ele>
        <time>2023-06-25T08:12:24Z</time>
      </trkpt>
      <trkpt lat="44.29624" lon="3.0673">
        <ele>767.4</ele>
        <time>2023-06-25T08:12:26Z</time>
      </trkpt>
      <trkpt lat="44.29622" lon="3.0673">
        <ele>767.6</ele>
        <time>2023-06-25T08:12:27Z</time>
      </trkpt>
      <trkpt lat="44.29618" lon="3.06729">
        <ele>767.9</ele>
        <time>2023-06-25T08:12:29Z</time>
      </trkpt>
      <trkpt lat="44.29615" lon="3.06729">
        <ele>768.1</ele>
        <time>2023-06-25T08:12:30Z</time>
      </trkpt>
      <trkpt lat="44.2961" lon="3.06727">
        <ele>768.4</ele>
        <time>2023-06-25T08:12:32Z</time>
      </trkpt>
      <trkpt lat="44.29607" lon="3.06726">
        <ele>768.7</ele>
        <time>2023-06-25T08:12:33Z</time>
      </trkpt>
      <trkpt lat="44.29602" lon="3.06725">
        <ele>769.1</ele>
        <time>2023-06-25T08:12:35Z</time>
      </trkpt>
      <trkpt lat="44.29599" lon="3.06723">
        <ele>769.4</ele>
        <time>2023-06-25T08:12:36Z</time>
      </trkpt>
      <trkpt lat="44.29596" lon="3.06721">
        <ele>769.6</ele>
        <time>2023-06-25T08:12:37Z</time>
      </trkpt>
      <trkpt lat="44.29591" lon="3.06718">
        <ele>770.1</ele>
        <time>2023-06-25T08:12:39Z</time>
      </trkpt>
      <trkpt lat="44.29588" lon="3.06716">
        <ele>770.3</ele>
        <time>2023-06-25T08:12:40Z</time>
      </trkpt>
      <trkpt lat="44.29585" lon="3.06715">
        <ele>770.5</ele>
        <time>2023-06-25T08:12:41Z</time>
      </trkpt>
      <trkpt lat="44.29582" lon="3.06713">
        <ele>770.7</ele>
        <time>2023-06-25T08:12:42Z</time>
      </trkpt>
      <trkpt lat="44.29579" lon="3.06712">
        <ele>771</ele>
        <time>2023-06-25T08:12:44Z</time>
      </trkpt>
      <trkpt lat="44.29576" lon="3.0671">
        <ele>771.2</ele>
        <time>2023-06-25T08:12:45Z</time>
      </trkpt>
      <trkpt lat="44.29572" lon="3.06708">
        <ele>771.5</ele>
        <time>2023-06-25T08:12:46Z</time>
      </trkpt>
      <trkpt lat="44.29571" lon="3.06708">
        <ele>771.6</ele>
        <time>2023-06-25T08:12:47Z</time>
      </trkpt>
      <trkpt lat="44.29566" lon="3.06705">
        <ele>771.9</ele>
        <time>2023-06-25T08:12:49Z</time>
      </trkpt>
      <trkpt lat="44.29564" lon="3.06704">
        <ele>772.1</ele>
        <time>2023-06-25T08:12:50Z</time>
      </trkpt>
      <trkpt lat="44.29559" lon="3.06702">
        <ele>772.4</ele>
        <time>2023-06-25T08:12:52Z</time>
      </trkpt>
      <trkpt lat="44.29556" lon="3.06702">
        <ele>772.6</ele>
        <time>2023-06-25T08:12:53Z</time>
      </trkpt>
      <trkpt lat="44.29553" lon="3.06703">
        <ele>772.9</ele>
        <time>2023-06-25T08:12:54Z</time>
      </trkpt>
      <trkpt lat="44.29552" lon="3.06703">
        <ele>773</ele>
        <time>2023-06-25T08:12:55Z</time>
      </trkpt>
      <trkpt lat="44.29548" lon="3.06705">
        <ele>773.3</ele>
        <time>2023-06-25T08:12:57Z</time>
      </trkpt>
      <trkpt lat="44.29545" lon="3.06706">
        <ele>773.5</ele>
        <time>2023-06-25T08:12:58Z</time>
      </trkpt>
      <trkpt lat="44.29544" lon="3.06707">
        <ele>773.6</ele>
        <time>2023-06-25T08:12:59Z</time>
      </trkpt>
      <trkpt lat="44.29541" lon="3.06709">
        <ele>773.8</ele>
        <time>2023-06-25T08:13:00Z</time>
      </trkpt>
      <trkpt lat="44.2954" lon="3.0671">
        <ele>773.9</ele>
        <time>2023-06-25T08:13:01Z</time>
      </trkpt>
      <trkpt lat="44.29538" lon="3.06712">
        <ele>774.2</ele>
        <time>2023-06-25T08:13:02Z</time>
      </trkpt>
      <trkpt lat="44.29537" lon="3.06713">
        <ele>774.3</ele>
        <time>2023-06-25T08:13:03Z</time>
      </trkpt>
      <trkpt lat="44.29535" lon="3.06714">
        <ele>774.4</ele>
        <time>2023-06-25T08:13:04Z</time>
      </trkpt>
      <trkpt lat="44.29533" lon="3.06717">
        <ele>774.7</ele>
        <time>2023-06-25T08:13:06Z</time>
      </trkpt>
      <trkpt lat="44.29531" lon="3.06721">
        <ele>775</ele>
        <time>2023-06-25T08:13:07Z</time>
      </trkpt>
      <trkpt lat="44.2953" lon="3.06722">
        <ele>775.1</ele>
        <time>2023-06-25T08:13:08Z</time>
      </trkpt>
      <trkpt lat="44.29529" lon="3.06725">
        <ele>775.3</ele>
        <time>2023-06-25T08:13:09Z</time>
      </trkpt>
      <trkpt lat="44.29527" lon="3.06729">
        <ele>775.6</ele>
        <time>2023-06-25T08:13:11Z</time>
      </trkpt>
      <trkpt lat="44.29526" lon="3.06732">
        <ele>775.8</ele>
        <time>2023-06-25T08:13:12Z</time>
      </trkpt>
      <trkpt lat="44.29523" lon="3.06737">
        <ele>776.2</ele>
        <time>2023-06-25T08:13:14Z</time>
      </trkpt>
      <trkpt lat="44.29521" lon="3.0674">
        <ele>776.5</ele>
        <time>2023-06-25T08:13:15Z</time>
      </trkpt>
      <trkpt lat="44.2952" lon="3.06742">
        <ele>776.7</ele>
        <time>2023-06-25T08:13:16Z</time>
      </trkpt>
      <trkpt lat="44.29518" lon="3.06746">
        <ele>777</ele>
        <time>2023-06-25T08:13:18Z</time>
      </trkpt>
      <trkpt lat="44.29517" lon="3.06748">
        <ele>777.2</ele>
        <time>2023-06-25T08:13:19Z</time>
      </trkpt>
      <trkpt lat="44.29516" lon="3.06751">
        <ele>777.4</ele>
        <time>2023-06-25T08:13:20Z</time>
      </trkpt>
      <trkpt lat="44.29516" lon="3.06753">
        <ele>777.5</ele>
        <time>2023-06-25T08:13:21Z</time>
      </trkpt>
      <trkpt lat="44.29515" lon="3.06758">
        <ele>777.8</ele>
        <time>2023-06-25T08:13:23Z</time>
      </trkpt>
      <trkpt lat="44.29514" lon="3.06764">
        <ele>778.2</ele>
        <time>2023-06-25T08:13:24Z</time>
      </trkpt>
      <trkpt lat="44.29513" lon="3.06766">
        <ele>778.4</ele>
        <time>2023-06-25T08:13:25Z</time>
      </trkpt>
      <trkpt lat="44.29512" lon="3.06771">
        <ele>778.7</ele>
        <time>2023-06-25T08:13:26Z</time>
      </trkpt>
      <trkpt lat="44.29511" lon="3.06773">
        <ele>778.8</ele>
        <time>2023-06-25T08:13:27Z</time>
      </trkpt>
      <trkpt lat="44.2951" lon="3.06778">
        <ele>779.1</ele>
        <time>2023-06-25T08:13:29Z</time>
      </trkpt>
      <trkpt lat="44.2951" lon="3.06782">
        <ele>779.3</ele>
        <time>2023-06-25T08:13:30Z</time>
      </trkpt>
      <trkpt lat="44.29511" lon="3.06787">
        <ele>779.6</ele>
        <time>2023-06-25T08:13:31Z</time>
      </trkpt>
      <trkpt lat="44.29511" lon="3.06788">
        <ele>779.6</ele>
        <time>2023-06-25T08:13:32Z</time>
      </trkpt>
      <trkpt lat="44.29512" lon="3.06793">
        <ele>779.9</ele>
        <time>2023-06-25T08:13:34Z</time>
      </trkpt>
      <trkpt lat="44.29512" lon="3.06794">
        <ele>780</ele>
        <time>2023-06-25T08:13:35Z</time>
      </trkpt>
      <trkpt lat="44.29514" lon="3.06798">
        <ele>780.2</ele>
        <time>2023-06-25T08:13:36Z</time>
      </trkpt>
      <trkpt lat="44.29515" lon="3.06799">
        <ele>780.2</ele>
        <time>2023-06-25T08:13:37Z</time>
      </trkpt>
      <trkpt lat="44.29516" lon="3.06802">
        <ele>780.4</ele>
        <time>2023-06-25T08:13:38Z</time>
      </trkpt>
      <trkpt lat="44.29519" lon="3.06806">
        <ele>780.7</ele>
        <time>2023-06-25T08:13:39Z</time>
      </trkpt>
      <trkpt lat="44.2952" lon="3.06807">
        <ele>780.8</ele>
        <time>2023-06-25T08:13:40Z</time>
      </trkpt>
      <trkpt lat="44.29522" lon="3.0681">
        <ele>781.1</ele>
        <time>2023-06-25T08:13:41Z</time>
      </trkpt>
      <trkpt lat="44.29524" lon="3.06813">
        <ele>781.4</ele>
        <time>2023-06-25T08:13:43Z</time>
      </trkpt>
      <trkpt lat="44.29526" lon="3.06816">
        <ele>781.6</ele>
        <time>2023-06-25T08:13:44Z</time>
      </trkpt>
      <trkpt lat="44.29527" lon="3.06821">
        <ele>781.9</ele>
        <time>2023-06-25T08:13:45Z</time>
      </trkpt>
      <trkpt lat="44.29527" lon="3.06822">
        <ele>782</ele>
        <time>2023-06-25T08:13:46Z</time>
      </trkpt>
      <trkpt lat="44.29529" lon="3.06828">
        <ele>782.4</ele>
        <time>2023-06-25T08:13:47Z</time>
      </trkpt>
      <trkpt lat="44.29529" lon="3.0683">
        <ele>782.5</ele>
        <time>2023-06-25T08:13:48Z</time>
      </trkpt>
      <trkpt lat="44.29529" lon="3.06835">
        <ele>782.9</ele>
        <time>2023-06-25T08:13:49Z</time>
      </trkpt>
      <trkpt lat="44.2953" lon="3.06837">
        <ele>783</ele>
        <time>2023-06-25T08:13:50Z</time>
      </trkpt>
      <trkpt lat="44.2953" lon="3.06843">
        <ele>783.3</ele>
        <time>2023-06-25T08:13:52Z</time>
      </trkpt>
      <trkpt lat="44.2953" lon="3.06847">
        <ele>783.6</ele>
        <time>2023-06-25T08:13:53Z</time>
      </trkpt>
      <trkpt lat="44.29531" lon="3.06851">
        <ele>783.9</ele>
        <time>2023-06-25T08:13:54Z</time>
      </trkpt>
      <trkpt lat="44.29531" lon="3.06857">
        <ele>784.3</ele>
        <time>2023-06-25T08:13:55Z</time>
      </trkpt>
      <trkpt lat="44.2953" lon="3.06861">
        <ele>784.6</ele>
        <time>2023-06-25T08:13:56Z</time>
      </trkpt>
      <trkpt lat="44.2953" lon="3.06869">
        <ele>785</ele>
        <time>2023-06-25T08:13:58Z</time>
      </trkpt>
      <trkpt lat="44.2953" lon="3.06871">
        <ele>785.2</ele>
        <time>2023-06-25T08:13:59Z</time>
      </trkpt>
      <trkpt lat="44.2953" lon="3.06873">
        <ele>785.3</ele>
        <time>2023-06-25T08:14:00Z</time>
      </trkpt>
      <trkpt lat="44.29529" lon="3.0688">
        <ele>785.7</ele>
        <time>2023-06-25T08:14:02Z</time>
      </trkpt>
      <trkpt lat="44.29527" lon="3.06884">
        <ele>786</ele>
        <time>2023-06-25T08:14:03Z</time>
      </trkpt>
      <trkpt lat="44.29525" lon="3.06888">
        <ele>786.3</ele>
        <time>2023-06-25T08:14:04Z</time>
      </trkpt>
      <trkpt lat="44.29523" lon="3.06895">
        <ele>786.8</ele>
        <time>2023-06-25T08:14:06Z</time>
      </trkpt>
      <trkpt lat="44.29521" lon="3.069">
        <ele>787.1</ele>
        <time>2023-06-25T08:14:07Z</time>
      </trkpt>
      <trkpt lat="44.2952" lon="3.06903">
        <ele>787.3</ele>
        <time>2023-06-25T08:14:08Z</time>
      </trkpt>
      <trkpt lat="44.29518" lon="3.06908">
        <ele>787.6</ele>
        <time>2023-06-25T08:14:09Z</time>
      </trkpt>
      <trkpt lat="44.29517" lon="3.06909">
        <ele>787.6</ele>
        <time>2023-06-25T08:14:10Z</time>
      </trkpt>
      <trkpt lat="44.29515" lon="3.06912">
        <ele>787.9</ele>
        <time>2023-06-25T08:14:11Z</time>
      </trkpt>
      <trkpt lat="44.29511" lon="3.06916">
        <ele>788.2</ele>
        <time>2023-06-25T08:14:13Z</time>
      </trkpt>
      <trkpt lat="44.2951" lon="3.06917">
        <ele>788.3</ele>
        <time>2023-06-25T08:14:14Z</time>
      </trkpt>
      <trkpt lat="44.29508" lon="3.06918">
        <ele>788.5</ele>
        <time>2023-06-25T08:14:15Z</time>
      </trkpt>
      <trkpt lat="44.29506" lon="3.06921">
        <ele>788.7</ele>
        <time>2023-06-25T08:14:16Z</time>
      </trkpt>
      <trkpt lat="44.29503" lon="3.06924">
        <ele>789</ele>
        <time>2023-06-25T08:14:17Z</time>
      </trkpt>
      <trkpt lat="44.295" lon="3.06926">
        <ele>789.2</ele>
        <time>2023-06-25T08:14:18Z</time>
      </trkpt>
      <trkpt lat="44.29497" lon="3.06927">
        <ele>789.5</ele>
        <time>2023-06-25T08:14:20Z</time>
      </trkpt>
      <trkpt lat="44.29493" lon="3.06929">
        <ele>789.8</ele>
        <time>2023-06-25T08:14:21Z</time>
      </trkpt>
      <trkpt lat="44.29489" lon="3.06931">
        <ele>790.2</ele>
        <time>2023-06-25T08:14:22Z</time>
      </trkpt>
      <trkpt lat="44.29485" lon="3.06935">
        <ele>790.6</ele>
        <time>2023-06-25T08:14:24Z</time>
      </trkpt>
      <trkpt lat="44.29485" lon="3.06937">
        <ele>790.7</ele>
        <time>2023-06-25T08:14:25Z</time>
      </trkpt>
      <trkpt lat="44.29486" lon="3.06936">
        <ele>790.8</ele>
        <time>2023-06-25T08:14:27Z</time>
      </trkpt>
      <trkpt lat="44.29488" lon="3.06935">
        <ele>790.9</ele>
        <time>2023-06-25T08:14:28Z</time>
      </trkpt>
      <trkpt lat="44.29489" lon="3.06935">
        <ele>791</ele>
        <time>2023-06-25T08:14:29Z</time>
      </trkpt>
      <trkpt lat="44.29488" lon="3.06935">
        <ele>791.1</ele>
        <time>2023-06-25T08:14:30Z</time>
      </trkpt>
      <trkpt lat="44.29486" lon="3.06936">
        <ele>791.1</ele>
        <time>2023-06-25T08:14:31Z</time>
      </trkpt>
      <trkpt lat="44.29486" lon="3.06936">
        <ele>791.2</ele>
        <time>2023-06-25T08:14:32Z</time>
      </trkpt>
      <trkpt lat="44.29486" lon="3.06936">
        <ele>791.2</ele>
        <time>2023-06-25T08:14:34Z</time>
      </trkpt>
      <trkpt lat="44.29486" lon="3.06936">
        <ele>791.2</ele>
        <time>2023-06-25T08:14:35Z</time>
      </trkpt>
      <trkpt lat="44.29486" lon="3.06935">
        <ele>791.2</ele>
        <time>2023-06-25T08:14:36Z</time>
      </trkpt>
      <trkpt lat="44.29486" lon="3.06935">
        <ele>791.2</ele>
        <time>2023-06-25T08:14:38Z</time>
      </trkpt>
      <trkpt lat="44.29486" lon="3.06935">
        <ele>791.2</ele>
        <time>2023-06-25T08:14:40Z</time>
      </trkpt>
      <trkpt lat="44.29486" lon="3.06935">
        <ele>791.2</ele>
        <time>2023-06-25T08:14:41Z</time>
      </trkpt>
      <trkpt lat="44.29486" lon="3.06935">
        <ele>791.2</ele>
        <time>2023-06-25T08:14:43Z</time>
      </trkpt>
      <trkpt lat="44.29485" lon="3.06936">
        <ele>791.3</ele>
        <time>2023-06-25T08:15:52Z</time>
      </trkpt>
      <trkpt lat="44.29478" lon="3.06937">
        <ele>791.7</ele>
        <time>2023-06-25T08:15:54Z</time>
      </trkpt>
      <trkpt lat="44.29474" lon="3.06938">
        <ele>791.9</ele>
        <time>2023-06-25T08:15:55Z</time>
      </trkpt>
      <trkpt lat="44.29465" lon="3.0694">
        <ele>792.3</ele>
        <time>2023-06-25T08:15:57Z</time>
      </trkpt>
      <trkpt lat="44.2946" lon="3.06941">
        <ele>792.5</ele>
        <time>2023-06-25T08:15:58Z</time>
      </trkpt>
      <trkpt lat="44.29456" lon="3.06943">
        <ele>792.7</ele>
        <time>2023-06-25T08:15:59Z</time>
      </trkpt>
      <trkpt lat="44.29449" lon="3.06946">
        <ele>793.1</ele>
        <time>2023-06-25T08:16:01Z</time>
      </trkpt>
      <trkpt lat="44.29444" lon="3.06948">
        <ele>793.3</ele>
        <time>2023-06-25T08:16:02Z</time>
      </trkpt>
      <trkpt lat="44.29439" lon="3.06949">
        <ele>793.5</ele>
        <time>2023-06-25T08:16:03Z</time>
      </trkpt>
      <trkpt lat="44.29433" lon="3.06951">
        <ele>793.7</ele>
        <time>2023-06-25T08:16:05Z</time>
      </trkpt>
      <trkpt lat="44.29428" lon="3.06953">
        <ele>793.9</ele>
        <time>2023-06-25T08:16:06Z</time>
      </trkpt>
      <trkpt lat="44.29423" lon="3.06954">
        <ele>794.1</ele>
        <time>2023-06-25T08:16:07Z</time>
      </trkpt>
      <trkpt lat="44.29416" lon="3.06957">
        <ele>794.4</ele>
        <time>2023-06-25T08:16:09Z</time>
      </trkpt>
      <trkpt lat="44.29406" lon="3.0696">
        <ele>794.8</ele>
        <time>2023-06-25T08:16:11Z</time>
      </trkpt>
      <trkpt lat="44.29399" lon="3.06962">
        <ele>795</ele>
        <time>2023-06-25T08:16:13Z</time>
      </trkpt>
      <trkpt lat="44.29389" lon="3.06964">
        <ele>795.5</ele>
        <time>2023-06-25T08:16:15Z</time>
      </trkpt>
      <trkpt lat="44.29383" lon="3.06965">
        <ele>795.8</ele>
        <time>2023-06-25T08:16:17Z</time>
      </trkpt>
      <trkpt lat="44.29379" lon="3.06965">
        <ele>796</ele>
        <time>2023-06-25T08:16:18Z</time>
      </trkpt>
      <trkpt lat="44.29374" lon="3.06965">
        <ele>796.3</ele>
        <time>2023-06-25T08:16:19Z</time>
      </trkpt>
      <trkpt lat="44.29369" lon="3.06965">
        <ele>796.5</ele>
        <time>2023-06-25T08:16:20Z</time>
      </trkpt>
      <trkpt lat="44.29365" lon="3.06964">
        <ele>796.8</ele>
        <time>2023-06-25T08:16:21Z</time>
      </trkpt>
      <trkpt lat="44.29358" lon="3.06965">
        <ele>797.1</ele>
        <time>2023-06-25T08:16:23Z</time>
      </trkpt>
      <trkpt lat="44.29354" lon="3.06964">
        <ele>797.4</ele>
        <time>2023-06-25T08:16:24Z</time>
      </trkpt>
      <trkpt lat="44.29349" lon="3.06963">
        <ele>797.6</ele>
        <time>2023-06-25T08:16:25Z</time>
      </trkpt>
      <trkpt lat="44.29345" lon="3.06962">
        <ele>797.9</ele>
        <time>2023-06-25T08:16:26Z</time>
      </trkpt>
      <trkpt lat="44.29338" lon="3.0696">
        <ele>798.3</ele>
        <time>2023-06-25T08:16:28Z</time>
      </trkpt>
      <trkpt lat="44.29334" lon="3.06958">
        <ele>798.5</ele>
        <time>2023-06-25T08:16:29Z</time>
      </trkpt>
      <trkpt lat="44.2933" lon="3.06957">
        <ele>798.8</ele>
        <time>2023-06-25T08:16:30Z</time>
      </trkpt>
      <trkpt lat="44.29324" lon="3.06954">
        <ele>799.2</ele>
        <time>2023-06-25T08:16:32Z</time>
      </trkpt>
      <trkpt lat="44.29317" lon="3.06951">
        <ele>799.8</ele>
        <time>2023-06-25T08:16:34Z</time>
      </trkpt>
      <trkpt lat="44.29313" lon="3.0695">
        <ele>800.1</ele>
        <time>2023-06-25T08:16:35Z</time>
      </trkpt>
      <trkpt lat="44.29307" lon="3.06948">
        <ele>800.5</ele>
        <time>2023-06-25T08:16:37Z</time>
      </trkpt>
      <trkpt lat="44.29304" lon="3.06947">
        <ele>800.8</ele>
        <time>2023-06-25T08:16:38Z</time>
      </trkpt>
      <trkpt lat="44.29299" lon="3.06946">
        <ele>801.2</ele>
        <time>2023-06-25T08:16:39Z</time>
      </trkpt>
      <trkpt lat="44.29295" lon="3.06946">
        <ele>801.5</ele>
        <time>2023-06-25T08:16:40Z</time>
      </trkpt>
      <trkpt lat="44.29291" lon="3.06945">
        <ele>801.9</ele>
        <time>2023-06-25T08:16:41Z</time>
      </trkpt>
      <trkpt lat="44.29287" lon="3.06943">
        <ele>802.2</ele>
        <time>2023-06-25T08:16:42Z</time>
      </trkpt>
      <trkpt lat="44.29281" lon="3.06942">
        <ele>802.8</ele>
        <time>2023-06-25T08:16:44Z</time>
      </trkpt>
      <trkpt lat="44.29277" lon="3.06943">
        <ele>803.2</ele>
        <time>2023-06-25T08:16:45Z</time>
      </trkpt>
      <trkpt lat="44.29275" lon="3.06943">
        <ele>803.4</ele>
        <time>2023-06-25T08:16:46Z</time>
      </trkpt>
      <trkpt lat="44.29271" lon="3.06943">
        <ele>803.8</ele>
        <time>2023-06-25T08:16:48Z</time>
      </trkpt>
      <trkpt lat="44.29267" lon="3.06943">
        <ele>804.1</ele>
        <time>2023-06-25T08:16:49Z</time>
      </trkpt>
      <trkpt lat="44.29263" lon="3.06943">
        <ele>804.4</ele>
        <time>2023-06-25T08:16:50Z</time>
      </trkpt>
      <trkpt lat="44.2926" lon="3.06943">
        <ele>804.7</ele>
        <time>2023-06-25T08:16:51Z</time>
      </trkpt>
      <trkpt lat="44.29256" lon="3.06943">
        <ele>805.1</ele>
        <time>2023-06-25T08:16:52Z</time>
      </trkpt>
      <trkpt lat="44.29252" lon="3.06943">
        <ele>805.4</ele>
        <time>2023-06-25T08:16:53Z</time>
      </trkpt>
      <trkpt lat="44.29248" lon="3.06942">
        <ele>805.8</ele>
        <time>2023-06-25T08:16:54Z</time>
      </trkpt>
      <trkpt lat="44.29244" lon="3.06942">
        <ele>806.1</ele>
        <time>2023-06-25T08:16:56Z</time>
      </trkpt>
      <trkpt lat="44.2924" lon="3.06942">
        <ele>806.4</ele>
        <time>2023-06-25T08:16:57Z</time>
      </trkpt>
      <trkpt lat="44.29237" lon="3.06941">
        <ele>806.8</ele>
        <time>2023-06-25T08:16:58Z</time>
      </trkpt>
      <trkpt lat="44.29233" lon="3.0694">
        <ele>807.1</ele>
        <time>2023-06-25T08:16:59Z</time>
      </trkpt>
      <trkpt lat="44.29229" lon="3.06939">
        <ele>807.5</ele>
        <time>2023-06-25T08:17:00Z</time>
      </trkpt>
      <trkpt lat="44.29225" lon="3.06938">
        <ele>807.9</ele>
        <time>2023-06-25T08:17:01Z</time>
      </trkpt>
      <trkpt lat="44.29219" lon="3.06936">
        <ele>808.4</ele>
        <time>2023-06-25T08:17:03Z</time>
      </trkpt>
      <trkpt lat="44.29216" lon="3.06935">
        <ele>808.7</ele>
        <time>2023-06-25T08:17:04Z</time>
      </trkpt>
      <trkpt lat="44.29212" lon="3.06935">
        <ele>809</ele>
        <time>2023-06-25T08:17:05Z</time>
      </trkpt>
      <trkpt lat="44.29206" lon="3.06935">
        <ele>809.6</ele>
        <time>2023-06-25T08:17:07Z</time>
      </trkpt>
      <trkpt lat="44.29203" lon="3.06934">
        <ele>809.9</ele>
        <time>2023-06-25T08:17:08Z</time>
      </trkpt>
      <trkpt lat="44.29199" lon="3.06932">
        <ele>810.2</ele>
        <time>2023-06-25T08:17:09Z</time>
      </trkpt>
      <trkpt lat="44.29195" lon="3.06932">
        <ele>810.6</ele>
        <time>2023-06-25T08:17:10Z</time>
      </trkpt>
      <trkpt lat="44.2919" lon="3.06932">
        <ele>811</ele>
        <time>2023-06-25T08:17:12Z</time>
      </trkpt>
      <trkpt lat="44.29187" lon="3.06931">
        <ele>811.3</ele>
        <time>2023-06-25T08:17:13Z</time>
      </trkpt>
      <trkpt lat="44.29183" lon="3.06931">
        <ele>811.6</ele>
        <time>2023-06-25T08:17:14Z</time>
      </trkpt>
      <trkpt lat="44.2918" lon="3.0693">
        <ele>812</ele>
        <time>2023-06-25T08:17:15Z</time>
      </trkpt>
      <trkpt lat="44.29176" lon="3.06929">
        <ele>812.4</ele>
        <time>2023-06-25T08:17:16Z</time>
      </trkpt>
      <trkpt lat="44.29172" lon="3.06928">
        <ele>812.7</ele>
        <time>2023-06-25T08:17:17Z</time>
      </trkpt>
      <trkpt lat="44.29168" lon="3.06927">
        <ele>813.1</ele>
        <time>2023-06-25T08:17:19Z</time>
      </trkpt>
      <trkpt lat="44.29165" lon="3.06926">
        <ele>813.4</ele>
        <time>2023-06-25T08:17:20Z</time>
      </trkpt>
      <trkpt lat="44.29161" lon="3.06925">
        <ele>813.8</ele>
        <time>2023-06-25T08:17:21Z</time>
      </trkpt>
      <trkpt lat="44.29158" lon="3.06925">
        <ele>814.1</ele>
        <time>2023-06-25T08:17:22Z</time>
      </trkpt>
      <trkpt lat="44.29155" lon="3.06924">
        <ele>814.4</ele>
        <time>2023-06-25T08:17:23Z</time>
      </trkpt>
      <trkpt lat="44.29151" lon="3.06924">
        <ele>814.8</ele>
        <time>2023-06-25T08:17:24Z</time>
      </trkpt>
      <trkpt lat="44.29148" lon="3.06923">
        <ele>815.2</ele>
        <time>2023-06-25T08:17:25Z</time>
      </trkpt>
      <trkpt lat="44.29145" lon="3.06922">
        <ele>815.5</ele>
        <time>2023-06-25T08:17:26Z</time>
      </trkpt>
      <trkpt lat="44.29141" lon="3.06922">
        <ele>815.9</ele>
        <time>2023-06-25T08:17:27Z</time>
      </trkpt>
      <trkpt lat="44.29138" lon="3.0692">
        <ele>816.2</ele>
        <time>2023-06-25T08:17:28Z</time>
      </trkpt>
      <trkpt lat="44.29134" lon="3.06919">
        <ele>816.6</ele>
        <time>2023-06-25T08:17:29Z</time>
      </trkpt>
      <trkpt lat="44.29129" lon="3.06917">
        <ele>817.2</ele>
        <time>2023-06-25T08:17:31Z</time>
      </trkpt>
      <trkpt lat="44.29124" lon="3.06914">
        <ele>817.7</ele>
        <time>2023-06-25T08:17:33Z</time>
      </trkpt>
      <trkpt lat="44.29121" lon="3.06912">
        <ele>818.1</ele>
        <time>2023-06-25T08:17:34Z</time>
      </trkpt>
      <trkpt lat="44.29118" lon="3.06911">
        <ele>818.4</ele>
        <time>2023-06-25T08:17:35Z</time>
      </trkpt>
      <trkpt lat="44.29115" lon="3.0691">
        <ele>818.7</ele>
        <time>2023-06-25T08:17:36Z</time>
      </trkpt>
      <trkpt lat="44.2911" lon="3.06908">
        <ele>819.3</ele>
        <time>2023-06-25T08:17:38Z</time>
      </trkpt>
      <trkpt lat="44.29107" lon="3.06907">
        <ele>819.5</ele>
        <time>2023-06-25T08:17:39Z</time>
      </trkpt>
      <trkpt lat="44.29103" lon="3.06905">
        <ele>820.1</ele>
        <time>2023-06-25T08:17:41Z</time>
      </trkpt>
      <trkpt lat="44.291" lon="3.06904">
        <ele>820.4</ele>
        <time>2023-06-25T08:17:42Z</time>
      </trkpt>
      <trkpt lat="44.29095" lon="3.06901">
        <ele>820.9</ele>
        <time>2023-06-25T08:17:44Z</time>
      </trkpt>
      <trkpt lat="44.29093" lon="3.069">
        <ele>821.2</ele>
        <time>2023-06-25T08:17:45Z</time>
      </trkpt>
      <trkpt lat="44.29088" lon="3.06898">
        <ele>821.8</ele>
        <time>2023-06-25T08:17:47Z</time>
      </trkpt>
      <trkpt lat="44.29085" lon="3.06896">
        <ele>822.1</ele>
        <time>2023-06-25T08:17:48Z</time>
      </trkpt>
      <trkpt lat="44.2908" lon="3.06894">
        <ele>822.7</ele>
        <time>2023-06-25T08:17:50Z</time>
      </trkpt>
      <trkpt lat="44.29077" lon="3.06893">
        <ele>823.1</ele>
        <time>2023-06-25T08:17:51Z</time>
      </trkpt>
      <trkpt lat="44.29074" lon="3.06893">
        <ele>823.4</ele>
        <time>2023-06-25T08:17:52Z</time>
      </trkpt>
      <trkpt lat="44.29071" lon="3.06893">
        <ele>823.8</ele>
        <time>2023-06-25T08:17:53Z</time>
      </trkpt>
      <trkpt lat="44.29067" lon="3.06892">
        <ele>824.3</ele>
        <time>2023-06-25T08:17:54Z</time>
      </trkpt>
      <trkpt lat="44.29066" lon="3.06892">
        <ele>824.5</ele>
        <time>2023-06-25T08:17:55Z</time>
      </trkpt>
      <trkpt lat="44.29063" lon="3.06893">
        <ele>824.9</ele>
        <time>2023-06-25T08:17:57Z</time>
      </trkpt>
      <trkpt lat="44.2906" lon="3.06894">
        <ele>825.2</ele>
        <time>2023-06-25T08:17:58Z</time>
      </trkpt>
      <trkpt lat="44.29057" lon="3.06894">
        <ele>825.5</ele>
        <time>2023-06-25T08:17:59Z</time>
      </trkpt>
      <trkpt lat="44.29055" lon="3.06895">
        <ele>825.8</ele>
        <time>2023-06-25T08:18:00Z</time>
      </trkpt>
      <trkpt lat="44.29052" lon="3.06896">
        <ele>826.1</ele>
        <time>2023-06-25T08:18:01Z</time>
      </trkpt>
      <trkpt lat="44.29048" lon="3.06897">
        <ele>826.5</ele>
        <time>2023-06-25T08:18:03Z</time>
      </trkpt>
      <trkpt lat="44.29046" lon="3.06898">
        <ele>826.8</ele>
        <time>2023-06-25T08:18:04Z</time>
      </trkpt>
      <trkpt lat="44.29043" lon="3.06899">
        <ele>827.1</ele>
        <time>2023-06-25T08:18:05Z</time>
      </trkpt>
      <trkpt lat="44.2904" lon="3.06901">
        <ele>827.3</ele>
        <time>2023-06-25T08:18:06Z</time>
      </trkpt>
      <trkpt lat="44.29037" lon="3.06902">
        <ele>827.6</ele>
        <time>2023-06-25T08:18:07Z</time>
      </trkpt>
      <trkpt lat="44.29033" lon="3.06903">
        <ele>828.1</ele>
        <time>2023-06-25T08:18:09Z</time>
      </trkpt>
      <trkpt lat="44.2903" lon="3.06904">
        <ele>828.4</ele>
        <time>2023-06-25T08:18:10Z</time>
      </trkpt>
      <trkpt lat="44.29026" lon="3.06904">
        <ele>828.7</ele>
        <time>2023-06-25T08:18:11Z</time>
      </trkpt>
      <trkpt lat="44.29022" lon="3.06906">
        <ele>829.1</ele>
        <time>2023-06-25T08:18:13Z</time>
      </trkpt>
      <trkpt lat="44.29018" lon="3.06907">
        <ele>829.5</ele>
        <time>2023-06-25T08:18:14Z</time>
      </trkpt>
      <trkpt lat="44.29016" lon="3.06907">
        <ele>829.6</ele>
        <time>2023-06-25T08:18:15Z</time>
      </trkpt>
      <trkpt lat="44.29012" lon="3.06906">
        <ele>830</ele>
        <time>2023-06-25T08:18:17Z</time>
      </trkpt>
      <trkpt lat="44.29007" lon="3.06907">
        <ele>830.5</ele>
        <time>2023-06-25T08:18:18Z</time>
      </trkpt>
      <trkpt lat="44.29004" lon="3.06908">
        <ele>830.8</ele>
        <time>2023-06-25T08:18:20Z</time>
      </trkpt>
      <trkpt lat="44.29001" lon="3.06909">
        <ele>831.1</ele>
        <time>2023-06-25T08:18:21Z</time>
      </trkpt>
      <trkpt lat="44.28997" lon="3.06909">
        <ele>831.4</ele>
        <time>2023-06-25T08:18:22Z</time>
      </trkpt>
      <trkpt lat="44.28996" lon="3.0691">
        <ele>831.6</ele>
        <time>2023-06-25T08:18:23Z</time>
      </trkpt>
      <trkpt lat="44.28993" lon="3.0691">
        <ele>831.9</ele>
        <time>2023-06-25T08:18:24Z</time>
      </trkpt>
      <trkpt lat="44.2899" lon="3.06911">
        <ele>832.2</ele>
        <time>2023-06-25T08:18:26Z</time>
      </trkpt>
      <trkpt lat="44.28987" lon="3.06912">
        <ele>832.5</ele>
        <time>2023-06-25T08:18:27Z</time>
      </trkpt>
      <trkpt lat="44.28983" lon="3.06911">
        <ele>833</ele>
        <time>2023-06-25T08:18:28Z</time>
      </trkpt>
      <trkpt lat="44.2898" lon="3.06911">
        <ele>833.4</ele>
        <time>2023-06-25T08:18:29Z</time>
      </trkpt>
      <trkpt lat="44.28979" lon="3.06911">
        <ele>833.5</ele>
        <time>2023-06-25T08:18:30Z</time>
      </trkpt>
      <trkpt lat="44.28975" lon="3.06909">
        <ele>834</ele>
        <time>2023-06-25T08:18:31Z</time>
      </trkpt>
      <trkpt lat="44.28973" lon="3.06908">
        <ele>834.2</ele>
        <time>2023-06-25T08:18:32Z</time>
      </trkpt>
      <trkpt lat="44.28971" lon="3.06907">
        <ele>834.6</ele>
        <time>2023-06-25T08:18:34Z</time>
      </trkpt>
      <trkpt lat="44.28968" lon="3.06906">
        <ele>834.9</ele>
        <time>2023-06-25T08:18:35Z</time>
      </trkpt>
      <trkpt lat="44.28964" lon="3.06905">
        <ele>835.4</ele>
        <time>2023-06-25T08:18:36Z</time>
      </trkpt>
      <trkpt lat="44.28963" lon="3.06904">
        <ele>835.6</ele>
        <time>2023-06-25T08:18:37Z</time>
      </trkpt>
      <trkpt lat="44.28961" lon="3.06904">
        <ele>835.8</ele>
        <time>2023-06-25T08:18:38Z</time>
      </trkpt>
      <trkpt lat="44.28957" lon="3.06901">
        <ele>836.4</ele>
        <time>2023-06-25T08:18:40Z</time>
      </trkpt>
      <trkpt lat="44.28954" lon="3.06897">
        <ele>836.9</ele>
        <time>2023-06-25T08:18:41Z</time>
      </trkpt>
      <trkpt lat="44.28952" lon="3.06896">
        <ele>837.1</ele>
        <time>2023-06-25T08:18:42Z</time>
      </trkpt>
      <trkpt lat="44.28949" lon="3.06895">
        <ele>837.5</ele>
        <time>2023-06-25T08:18:44Z</time>
      </trkpt>
      <trkpt lat="44.28947" lon="3.06893">
        <ele>837.8</ele>
        <time>2023-06-25T08:18:45Z</time>
      </trkpt>
      <trkpt lat="44.28944" lon="3.0689">
        <ele>838.3</ele>
        <time>2023-06-25T08:18:46Z</time>
      </trkpt>
      <trkpt lat="44.28943" lon="3.0689">
        <ele>838.4</ele>
        <time>2023-06-25T08:18:47Z</time>
      </trkpt>
      <trkpt lat="44.28941" lon="3.06889">
        <ele>838.7</ele>
        <time>2023-06-25T08:18:48Z</time>
      </trkpt>
      <trkpt lat="44.28936" lon="3.06887">
        <ele>839.3</ele>
        <time>2023-06-25T08:18:50Z</time>
      </trkpt>
      <trkpt lat="44.28933" lon="3.06885">
        <ele>839.7</ele>
        <time>2023-06-25T08:18:51Z</time>
      </trkpt>
      <trkpt lat="44.28932" lon="3.06884">
        <ele>839.9</ele>
        <time>2023-06-25T08:18:52Z</time>
      </trkpt>
      <trkpt lat="44.28929" lon="3.06881">
        <ele>840.3</ele>
        <time>2023-06-25T08:18:53Z</time>
      </trkpt>
      <trkpt lat="44.28928" lon="3.0688">
        <ele>840.5</ele>
        <time>2023-06-25T08:18:54Z</time>
      </trkpt>
      <trkpt lat="44.28924" lon="3.06878">
        <ele>841.1</ele>
        <time>2023-06-25T08:18:56Z</time>
      </trkpt>
      <trkpt lat="44.28922" lon="3.06876">
        <ele>841.3</ele>
        <time>2023-06-25T08:18:57Z</time>
      </trkpt>
      <trkpt lat="44.2892" lon="3.06875">
        <ele>841.5</ele>
        <time>2023-06-25T08:18:58Z</time>
      </trkpt>
      <trkpt lat="44.28917" lon="3.06873">
        <ele>842</ele>
        <time>2023-06-25T08:18:59Z</time>
      </trkpt>
      <trkpt lat="44.28916" lon="3.06872">
        <ele>842.2</ele>
        <time>2023-06-25T08:19:00Z</time>
      </trkpt>
      <trkpt lat="44.28912" lon="3.0687">
        <ele>842.7</ele>
        <time>2023-06-25T08:19:01Z</time>
      </trkpt>
      <trkpt lat="44.28911" lon="3.06869">
        <ele>842.9</ele>
        <time>2023-06-25T08:19:02Z</time>
      </trkpt>
      <trkpt lat="44.28907" lon="3.06867">
        <ele>843.4</ele>
        <time>2023-06-25T08:19:04Z</time>
      </trkpt>
      <trkpt lat="44.28906" lon="3.06866">
        <ele>843.6</ele>
        <time>2023-06-25T08:19:05Z</time>
      </trkpt>
      <trkpt lat="44.28904" lon="3.06866">
        <ele>843.8</ele>
        <time>2023-06-25T08:19:06Z</time>
      </trkpt>
      <trkpt lat="44.28901" lon="3.06865">
        <ele>844.3</ele>
        <time>2023-06-25T08:19:07Z</time>
      </trkpt>
      <trkpt lat="44.28899" lon="3.06864">
        <ele>844.4</ele>
        <time>2023-06-25T08:19:08Z</time>
      </trkpt>
      <trkpt lat="44.28896" lon="3.06864">
        <ele>844.9</ele>
        <time>2023-06-25T08:19:10Z</time>
      </trkpt>
      <trkpt lat="44.28894" lon="3.06863">
        <ele>845.1</ele>
        <time>2023-06-25T08:19:11Z</time>
      </trkpt>
      <trkpt lat="44.28891" lon="3.06863">
        <ele>845.5</ele>
        <time>2023-06-25T08:19:12Z</time>
      </trkpt>
      <trkpt lat="44.2889" lon="3.06863">
        <ele>845.6</ele>
        <time>2023-06-25T08:19:13Z</time>
      </trkpt>
      <trkpt lat="44.28887" lon="3.06862">
        <ele>845.9</ele>
        <time>2023-06-25T08:19:14Z</time>
      </trkpt>
      <trkpt lat="44.28885" lon="3.06861">
        <ele>846.3</ele>
        <time>2023-06-25T08:19:15Z</time>
      </trkpt>
      <trkpt lat="44.28881" lon="3.0686">
        <ele>846.6</ele>
        <time>2023-06-25T08:19:17Z</time>
      </trkpt>
      <trkpt lat="44.28878" lon="3.0686">
        <ele>846.9</ele>
        <time>2023-06-25T08:19:18Z</time>
      </trkpt>
      <trkpt lat="44.28875" lon="3.0686">
        <ele>847.1</ele>
        <time>2023-06-25T08:19:19Z</time>
      </trkpt>
      <trkpt lat="44.28872" lon="3.0686">
        <ele>847.3</ele>
        <time>2023-06-25T08:19:20Z</time>
      </trkpt>
      <trkpt lat="44.28869" lon="3.06859">
        <ele>847.5</ele>
        <time>2023-06-25T08:19:21Z</time>
      </trkpt>
      <trkpt lat="44.28866" lon="3.06858">
        <ele>847.7</ele>
        <time>2023-06-25T08:19:22Z</time>
      </trkpt>
      <trkpt lat="44.28862" lon="3.06857">
        <ele>848</ele>
        <time>2023-06-25T08:19:24Z</time>
      </trkpt>
      <trkpt lat="44.28856" lon="3.06857">
        <ele>848.2</ele>
        <time>2023-06-25T08:19:26Z</time>
      </trkpt>
      <trkpt lat="44.28853" lon="3.06857">
        <ele>848.4</ele>
        <time>2023-06-25T08:19:27Z</time>
      </trkpt>
      <trkpt lat="44.28849" lon="3.06857">
        <ele>848.6</ele>
        <time>2023-06-25T08:19:28Z</time>
      </trkpt>
      <trkpt lat="44.28843" lon="3.06856">
        <ele>848.9</ele>
        <time>2023-06-25T08:19:30Z</time>
      </trkpt>
      <trkpt lat="44.28841" lon="3.06856">
        <ele>849</ele>
        <time>2023-06-25T08:19:31Z</time>
      </trkpt>
      <trkpt lat="44.28837" lon="3.06856">
        <ele>849.2</ele>
        <time>2023-06-25T08:19:32Z</time>
      </trkpt>
      <trkpt lat="44.28833" lon="3.06857">
        <ele>849.5</ele>
        <time>2023-06-25T08:19:33Z</time>
      </trkpt>
      <trkpt lat="44.28832" lon="3.06857">
        <ele>849.5</ele>
        <time>2023-06-25T08:19:34Z</time>
      </trkpt>
      <trkpt lat="44.28827" lon="3.06857">
        <ele>849.8</ele>
        <time>2023-06-25T08:19:36Z</time>
      </trkpt>
      <trkpt lat="44.28825" lon="3.06857">
        <ele>850</ele>
        <time>2023-06-25T08:19:37Z</time>
      </trkpt>
      <trkpt lat="44.28819" lon="3.06856">
        <ele>850.4</ele>
        <time>2023-06-25T08:19:39Z</time>
      </trkpt>
      <trkpt lat="44.28815" lon="3.06855">
        <ele>850.5</ele>
        <time>2023-06-25T08:19:40Z</time>
      </trkpt>
      <trkpt lat="44.28812" lon="3.06853">
        <ele>850.7</ele>
        <time>2023-06-25T08:19:41Z</time>
      </trkpt>
      <trkpt lat="44.28805" lon="3.06848">
        <ele>851.1</ele>
        <time>2023-06-25T08:19:43Z</time>
      </trkpt>
      <trkpt lat="44.28802" lon="3.06845">
        <ele>851.4</ele>
        <time>2023-06-25T08:19:45Z</time>
      </trkpt>
      <trkpt lat="44.28799" lon="3.06842">
        <ele>851.6</ele>
        <time>2023-06-25T08:19:46Z</time>
      </trkpt>
      <trkpt lat="44.28796" lon="3.0684">
        <ele>851.7</ele>
        <time>2023-06-25T08:19:47Z</time>
      </trkpt>
      <trkpt lat="44.28793" lon="3.06838">
        <ele>851.9</ele>
        <time>2023-06-25T08:19:48Z</time>
      </trkpt>
      <trkpt lat="44.28791" lon="3.06837">
        <ele>852.1</ele>
        <time>2023-06-25T08:19:49Z</time>
      </trkpt>
      <trkpt lat="44.28787" lon="3.06833">
        <ele>852.3</ele>
        <time>2023-06-25T08:19:51Z</time>
      </trkpt>
      <trkpt lat="44.28783" lon="3.06831">
        <ele>852.6</ele>
        <time>2023-06-25T08:19:52Z</time>
      </trkpt>
      <trkpt lat="44.28781" lon="3.06829">
        <ele>852.7</ele>
        <time>2023-06-25T08:19:53Z</time>
      </trkpt>
      <trkpt lat="44.28777" lon="3.06828">
        <ele>852.9</ele>
        <time>2023-06-25T08:19:54Z</time>
      </trkpt>
      <trkpt lat="44.28773" lon="3.06826">
        <ele>853.2</ele>
        <time>2023-06-25T08:19:56Z</time>
      </trkpt>
      <trkpt lat="44.28768" lon="3.06822">
        <ele>853.6</ele>
        <time>2023-06-25T08:19:58Z</time>
      </trkpt>
      <trkpt lat="44.28764" lon="3.06819">
        <ele>853.9</ele>
        <time>2023-06-25T08:19:59Z</time>
      </trkpt>
      <trkpt lat="44.2876" lon="3.06816">
        <ele>854.2</ele>
        <time>2023-06-25T08:20:01Z</time>
      </trkpt>
      <trkpt lat="44.28757" lon="3.06812">
        <ele>854.5</ele>
        <time>2023-06-25T08:20:02Z</time>
      </trkpt>
      <trkpt lat="44.28754" lon="3.0681">
        <ele>854.7</ele>
        <time>2023-06-25T08:20:03Z</time>
      </trkpt>
      <trkpt lat="44.28752" lon="3.06807">
        <ele>854.9</ele>
        <time>2023-06-25T08:20:04Z</time>
      </trkpt>
      <trkpt lat="44.28749" lon="3.06805">
        <ele>855.1</ele>
        <time>2023-06-25T08:20:05Z</time>
      </trkpt>
      <trkpt lat="44.28747" lon="3.06803">
        <ele>855.3</ele>
        <time>2023-06-25T08:20:06Z</time>
      </trkpt>
      <trkpt lat="44.28743" lon="3.06801">
        <ele>855.5</ele>
        <time>2023-06-25T08:20:08Z</time>
      </trkpt>
      <trkpt lat="44.28741" lon="3.06799">
        <ele>855.7</ele>
        <time>2023-06-25T08:20:09Z</time>
      </trkpt>
      <trkpt lat="44.28738" lon="3.06798">
        <ele>855.9</ele>
        <time>2023-06-25T08:20:10Z</time>
      </trkpt>
      <trkpt lat="44.28735" lon="3.06796">
        <ele>856.1</ele>
        <time>2023-06-25T08:20:11Z</time>
      </trkpt>
      <trkpt lat="44.2873" lon="3.06793">
        <ele>856.5</ele>
        <time>2023-06-25T08:20:13Z</time>
      </trkpt>
      <trkpt lat="44.28727" lon="3.06792">
        <ele>856.7</ele>
        <time>2023-06-25T08:20:14Z</time>
      </trkpt>
      <trkpt lat="44.28723" lon="3.06791">
        <ele>856.9</ele>
        <time>2023-06-25T08:20:15Z</time>
      </trkpt>
      <trkpt lat="44.28721" lon="3.06789">
        <ele>857</ele>
        <time>2023-06-25T08:20:16Z</time>
      </trkpt>
      <trkpt lat="44.28717" lon="3.06784">
        <ele>857.3</ele>
        <time>2023-06-25T08:20:18Z</time>
      </trkpt>
      <trkpt lat="44.28715" lon="3.0678">
        <ele>857.5</ele>
        <time>2023-06-25T08:20:19Z</time>
      </trkpt>
      <trkpt lat="44.28713" lon="3.06772">
        <ele>857.9</ele>
        <time>2023-06-25T08:20:21Z</time>
      </trkpt>
      <trkpt lat="44.28713" lon="3.06767">
        <ele>858.2</ele>
        <time>2023-06-25T08:20:22Z</time>
      </trkpt>
      <trkpt lat="44.28712" lon="3.06762">
        <ele>858.4</ele>
        <time>2023-06-25T08:20:23Z</time>
      </trkpt>
      <trkpt lat="44.28711" lon="3.06759">
        <ele>858.5</ele>
        <time>2023-06-25T08:20:24Z</time>
      </trkpt>
      <trkpt lat="44.2871" lon="3.06755">
        <ele>858.7</ele>
        <time>2023-06-25T08:20:25Z</time>
      </trkpt>
      <trkpt lat="44.28709" lon="3.06751">
        <ele>859</ele>
        <time>2023-06-25T08:20:27Z</time>
      </trkpt>
      <trkpt lat="44.28709" lon="3.06747">
        <ele>859.1</ele>
        <time>2023-06-25T08:20:28Z</time>
      </trkpt>
      <trkpt lat="44.28707" lon="3.06742">
        <ele>859.5</ele>
        <time>2023-06-25T08:20:30Z</time>
      </trkpt>
      <trkpt lat="44.28706" lon="3.06739">
        <ele>859.7</ele>
        <time>2023-06-25T08:20:31Z</time>
      </trkpt>
      <trkpt lat="44.28704" lon="3.06732">
        <ele>860.1</ele>
        <time>2023-06-25T08:20:33Z</time>
      </trkpt>
      <trkpt lat="44.28703" lon="3.06728">
        <ele>860.3</ele>
        <time>2023-06-25T08:20:34Z</time>
      </trkpt>
      <trkpt lat="44.28703" lon="3.06724">
        <ele>860.5</ele>
        <time>2023-06-25T08:20:35Z</time>
      </trkpt>
      <trkpt lat="44.28701" lon="3.06718">
        <ele>860.9</ele>
        <time>2023-06-25T08:20:37Z</time>
      </trkpt>
      <trkpt lat="44.287" lon="3.06714">
        <ele>861.2</ele>
        <time>2023-06-25T08:20:38Z</time>
      </trkpt>
      <trkpt lat="44.28699" lon="3.0671">
        <ele>861.4</ele>
        <time>2023-06-25T08:20:39Z</time>
      </trkpt>
      <trkpt lat="44.28699" lon="3.06705">
        <ele>861.7</ele>
        <time>2023-06-25T08:20:40Z</time>
      </trkpt>
      <trkpt lat="44.28698" lon="3.06701">
        <ele>861.9</ele>
        <time>2023-06-25T08:20:41Z</time>
      </trkpt>
      <trkpt lat="44.28697" lon="3.06698">
        <ele>862.1</ele>
        <time>2023-06-25T08:20:42Z</time>
      </trkpt>
      <trkpt lat="44.28696" lon="3.06693">
        <ele>862.3</ele>
        <time>2023-06-25T08:20:44Z</time>
      </trkpt>
      <trkpt lat="44.28696" lon="3.06688">
        <ele>862.6</ele>
        <time>2023-06-25T08:20:45Z</time>
      </trkpt>
      <trkpt lat="44.28695" lon="3.06685">
        <ele>862.7</ele>
        <time>2023-06-25T08:20:46Z</time>
      </trkpt>
      <trkpt lat="44.28695" lon="3.0668">
        <ele>863</ele>
        <time>2023-06-25T08:20:47Z</time>
      </trkpt>
      <trkpt lat="44.28694" lon="3.06673">
        <ele>863.4</ele>
        <time>2023-06-25T08:20:49Z</time>
      </trkpt>
      <trkpt lat="44.28693" lon="3.06669">
        <ele>863.5</ele>
        <time>2023-06-25T08:20:50Z</time>
      </trkpt>
      <trkpt lat="44.28693" lon="3.06658">
        <ele>864</ele>
        <time>2023-06-25T08:20:52Z</time>
      </trkpt>
      <trkpt lat="44.28692" lon="3.06653">
        <ele>864.3</ele>
        <time>2023-06-25T08:20:54Z</time>
      </trkpt>
      <trkpt lat="44.28692" lon="3.06648">
        <ele>864.6</ele>
        <time>2023-06-25T08:20:55Z</time>
      </trkpt>
      <trkpt lat="44.28692" lon="3.06646">
        <ele>864.7</ele>
        <time>2023-06-25T08:20:56Z</time>
      </trkpt>
      <trkpt lat="44.28692" lon="3.06641">
        <ele>865</ele>
        <time>2023-06-25T08:20:57Z</time>
      </trkpt>
      <trkpt lat="44.28692" lon="3.06635">
        <ele>865.2</ele>
        <time>2023-06-25T08:20:58Z</time>
      </trkpt>
      <trkpt lat="44.28692" lon="3.06633">
        <ele>865.3</ele>
        <time>2023-06-25T08:20:59Z</time>
      </trkpt>
      <trkpt lat="44.28692" lon="3.06628">
        <ele>865.5</ele>
        <time>2023-06-25T08:21:00Z</time>
      </trkpt>
      <trkpt lat="44.28693" lon="3.06623">
        <ele>865.7</ele>
        <time>2023-06-25T08:21:02Z</time>
      </trkpt>
      <trkpt lat="44.28693" lon="3.06619">
        <ele>865.9</ele>
        <time>2023-06-25T08:21:03Z</time>
      </trkpt>
      <trkpt lat="44.28693" lon="3.06615">
        <ele>866.1</ele>
        <time>2023-06-25T08:21:04Z</time>
      </trkpt>
      <trkpt lat="44.28694" lon="3.0661">
        <ele>866.3</ele>
        <time>2023-06-25T08:21:05Z</time>
      </trkpt>
      <trkpt lat="44.28695" lon="3.06606">
        <ele>866.5</ele>
        <time>2023-06-25T08:21:06Z</time>
      </trkpt>
      <trkpt lat="44.28696" lon="3.066">
        <ele>866.7</ele>
        <time>2023-06-25T08:21:08Z</time>
      </trkpt>
      <trkpt lat="44.28698" lon="3.06593">
        <ele>867.1</ele>
        <time>2023-06-25T08:21:09Z</time>
      </trkpt>
      <trkpt lat="44.28699" lon="3.06588">
        <ele>867.3</ele>
        <time>2023-06-25T08:21:11Z</time>
      </trkpt>
      <trkpt lat="44.28701" lon="3.06584">
        <ele>867.5</ele>
        <time>2023-06-25T08:21:12Z</time>
      </trkpt>
      <trkpt lat="44.28702" lon="3.0658">
        <ele>867.7</ele>
        <time>2023-06-25T08:21:13Z</time>
      </trkpt>
      <trkpt lat="44.28704" lon="3.06576">
        <ele>868</ele>
        <time>2023-06-25T08:21:14Z</time>
      </trkpt>
      <trkpt lat="44.28705" lon="3.06572">
        <ele>868.1</ele>
        <time>2023-06-25T08:21:15Z</time>
      </trkpt>
      <trkpt lat="44.28706" lon="3.06569">
        <ele>868.3</ele>
        <time>2023-06-25T08:21:16Z</time>
      </trkpt>
      <trkpt lat="44.28708" lon="3.06562">
        <ele>868.6</ele>
        <time>2023-06-25T08:21:18Z</time>
      </trkpt>
      <trkpt lat="44.2871" lon="3.06559">
        <ele>868.8</ele>
        <time>2023-06-25T08:21:19Z</time>
      </trkpt>
      <trkpt lat="44.28712" lon="3.06552">
        <ele>869.2</ele>
        <time>2023-06-25T08:21:21Z</time>
      </trkpt>
      <trkpt lat="44.28713" lon="3.06546">
        <ele>869.5</ele>
        <time>2023-06-25T08:21:23Z</time>
      </trkpt>
      <trkpt lat="44.28714" lon="3.06542">
        <ele>869.7</ele>
        <time>2023-06-25T08:21:24Z</time>
      </trkpt>
      <trkpt lat="44.28715" lon="3.06538">
        <ele>869.9</ele>
        <time>2023-06-25T08:21:25Z</time>
      </trkpt>
      <trkpt lat="44.28716" lon="3.06532">
        <ele>870.2</ele>
        <time>2023-06-25T08:21:27Z</time>
      </trkpt>
      <trkpt lat="44.28717" lon="3.06528">
        <ele>870.4</ele>
        <time>2023-06-25T08:21:28Z</time>
      </trkpt>
      <trkpt lat="44.28719" lon="3.06519">
        <ele>870.8</ele>
        <time>2023-06-25T08:21:30Z</time>
      </trkpt>
      <trkpt lat="44.2872" lon="3.06515">
        <ele>871</ele>
        <time>2023-06-25T08:21:31Z</time>
      </trkpt>
      <trkpt lat="44.2872" lon="3.06511">
        <ele>871.2</ele>
        <time>2023-06-25T08:21:33Z</time>
      </trkpt>
      <trkpt lat="44.28721" lon="3.06507">
        <ele>871.4</ele>
        <time>2023-06-25T08:21:34Z</time>
      </trkpt>
      <trkpt lat="44.28722" lon="3.06503">
        <ele>871.5</ele>
        <time>2023-06-25T08:21:35Z</time>
      </trkpt>
      <trkpt lat="44.28723" lon="3.06499">
        <ele>871.7</ele>
        <time>2023-06-25T08:21:36Z</time>
      </trkpt>
      <trkpt lat="44.28723" lon="3.06491">
        <ele>872.1</ele>
        <time>2023-06-25T08:21:38Z</time>
      </trkpt>
      <trkpt lat="44.28723" lon="3.06487">
        <ele>872.3</ele>
        <time>2023-06-25T08:21:39Z</time>
      </trkpt>
      <trkpt lat="44.28724" lon="3.06481">
        <ele>872.6</ele>
        <time>2023-06-25T08:21:41Z</time>
      </trkpt>
      <trkpt lat="44.28724" lon="3.06477">
        <ele>872.8</ele>
        <time>2023-06-25T08:21:42Z</time>
      </trkpt>
      <trkpt lat="44.28723" lon="3.06471">
        <ele>873.1</ele>
        <time>2023-06-25T08:21:44Z</time>
      </trkpt>
      <trkpt lat="44.28724" lon="3.06468">
        <ele>873.3</ele>
        <time>2023-06-25T08:21:45Z</time>
      </trkpt>
      <trkpt lat="44.28725" lon="3.06462">
        <ele>873.6</ele>
        <time>2023-06-25T08:21:46Z</time>
      </trkpt>
      <trkpt lat="44.28725" lon="3.0646">
        <ele>873.7</ele>
        <time>2023-06-25T08:21:47Z</time>
      </trkpt>
      <trkpt lat="44.28726" lon="3.06456">
        <ele>874</ele>
        <time>2023-06-25T08:21:48Z</time>
      </trkpt>
      <trkpt lat="44.28727" lon="3.06452">
        <ele>874.2</ele>
        <time>2023-06-25T08:21:50Z</time>
      </trkpt>
      <trkpt lat="44.28729" lon="3.06447">
        <ele>874.5</ele>
        <time>2023-06-25T08:21:51Z</time>
      </trkpt>
      <trkpt lat="44.2873" lon="3.06443">
        <ele>874.7</ele>
        <time>2023-06-25T08:21:52Z</time>
      </trkpt>
      <trkpt lat="44.28731" lon="3.06439">
        <ele>874.9</ele>
        <time>2023-06-25T08:21:53Z</time>
      </trkpt>
      <trkpt lat="44.28732" lon="3.06434">
        <ele>875.3</ele>
        <time>2023-06-25T08:21:54Z</time>
      </trkpt>
      <trkpt lat="44.28734" lon="3.06429">
        <ele>875.6</ele>
        <time>2023-06-25T08:21:55Z</time>
      </trkpt>
      <trkpt lat="44.28736" lon="3.06425">
        <ele>875.8</ele>
        <time>2023-06-25T08:21:57Z</time>
      </trkpt>
      <trkpt lat="44.28737" lon="3.06421">
        <ele>876</ele>
        <time>2023-06-25T08:21:58Z</time>
      </trkpt>
      <trkpt lat="44.28738" lon="3.06418">
        <ele>876.3</ele>
        <time>2023-06-25T08:21:59Z</time>
      </trkpt>
      <trkpt lat="44.28739" lon="3.06414">
        <ele>876.5</ele>
        <time>2023-06-25T08:22:00Z</time>
      </trkpt>
      <trkpt lat="44.2874" lon="3.06408">
        <ele>876.8</ele>
        <time>2023-06-25T08:22:02Z</time>
      </trkpt>
      <trkpt lat="44.28742" lon="3.06404">
        <ele>877.1</ele>
        <time>2023-06-25T08:22:03Z</time>
      </trkpt>
      <trkpt lat="44.28742" lon="3.064">
        <ele>877.3</ele>
        <time>2023-06-25T08:22:04Z</time>
      </trkpt>
      <trkpt lat="44.28743" lon="3.06395">
        <ele>877.6</ele>
        <time>2023-06-25T08:22:05Z</time>
      </trkpt>
      <trkpt lat="44.28744" lon="3.06391">
        <ele>877.8</ele>
        <time>2023-06-25T08:22:06Z</time>
      </trkpt>
      <trkpt lat="44.28745" lon="3.06387">
        <ele>878</ele>
        <time>2023-06-25T08:22:07Z</time>
      </trkpt>
      <trkpt lat="44.28746" lon="3.06382">
        <ele>878.2</ele>
        <time>2023-06-25T08:22:09Z</time>
      </trkpt>
      <trkpt lat="44.28746" lon="3.06378">
        <ele>878.4</ele>
        <time>2023-06-25T08:22:10Z</time>
      </trkpt>
      <trkpt lat="44.28747" lon="3.06374">
        <ele>878.6</ele>
        <time>2023-06-25T08:22:11Z</time>
      </trkpt>
      <trkpt lat="44.28747" lon="3.0637">
        <ele>878.8</ele>
        <time>2023-06-25T08:22:12Z</time>
      </trkpt>
      <trkpt lat="44.28747" lon="3.06362">
        <ele>879.1</ele>
        <time>2023-06-25T08:22:14Z</time>
      </trkpt>
      <trkpt lat="44.28746" lon="3.06357">
        <ele>879.3</ele>
        <time>2023-06-25T08:22:15Z</time>
      </trkpt>
      <trkpt lat="44.28745" lon="3.06352">
        <ele>879.5</ele>
        <time>2023-06-25T08:22:17Z</time>
      </trkpt>
      <trkpt lat="44.28743" lon="3.06345">
        <ele>879.8</ele>
        <time>2023-06-25T08:22:18Z</time>
      </trkpt>
      <trkpt lat="44.28741" lon="3.0634">
        <ele>880</ele>
        <time>2023-06-25T08:22:20Z</time>
      </trkpt>
      <trkpt lat="44.28739" lon="3.06334">
        <ele>880.3</ele>
        <time>2023-06-25T08:22:21Z</time>
      </trkpt>
      <trkpt lat="44.28739" lon="3.06332">
        <ele>880.3</ele>
        <time>2023-06-25T08:22:22Z</time>
      </trkpt>
      <trkpt lat="44.28737" lon="3.06328">
        <ele>880.5</ele>
        <time>2023-06-25T08:22:23Z</time>
      </trkpt>
      <trkpt lat="44.28735" lon="3.06321">
        <ele>880.7</ele>
        <time>2023-06-25T08:22:25Z</time>
      </trkpt>
      <trkpt lat="44.28733" lon="3.06318">
        <ele>880.8</ele>
        <time>2023-06-25T08:22:26Z</time>
      </trkpt>
      <trkpt lat="44.28731" lon="3.06314">
        <ele>881</ele>
        <time>2023-06-25T08:22:27Z</time>
      </trkpt>
      <trkpt lat="44.2873" lon="3.0631">
        <ele>881.1</ele>
        <time>2023-06-25T08:22:28Z</time>
      </trkpt>
      <trkpt lat="44.28727" lon="3.06305">
        <ele>881.3</ele>
        <time>2023-06-25T08:22:30Z</time>
      </trkpt>
      <trkpt lat="44.28723" lon="3.06299">
        <ele>881.6</ele>
        <time>2023-06-25T08:22:32Z</time>
      </trkpt>
      <trkpt lat="44.28721" lon="3.06296">
        <ele>881.8</ele>
        <time>2023-06-25T08:22:33Z</time>
      </trkpt>
      <trkpt lat="44.28719" lon="3.06288">
        <ele>882.1</ele>
        <time>2023-06-25T08:22:35Z</time>
      </trkpt>
      <trkpt lat="44.28718" lon="3.06285">
        <ele>882.3</ele>
        <time>2023-06-25T08:22:36Z</time>
      </trkpt>
      <trkpt lat="44.28716" lon="3.06281">
        <ele>882.5</ele>
        <time>2023-06-25T08:22:37Z</time>
      </trkpt>
      <trkpt lat="44.28714" lon="3.06278">
        <ele>882.7</ele>
        <time>2023-06-25T08:22:38Z</time>
      </trkpt>
      <trkpt lat="44.28712" lon="3.06276">
        <ele>882.8</ele>
        <time>2023-06-25T08:22:39Z</time>
      </trkpt>
      <trkpt lat="44.2871" lon="3.06274">
        <ele>883</ele>
        <time>2023-06-25T08:22:41Z</time>
      </trkpt>
      <trkpt lat="44.28708" lon="3.06271">
        <ele>883.3</ele>
        <time>2023-06-25T08:22:42Z</time>
      </trkpt>
      <trkpt lat="44.28707" lon="3.06269">
        <ele>883.4</ele>
        <time>2023-06-25T08:22:43Z</time>
      </trkpt>
      <trkpt lat="44.28705" lon="3.06265">
        <ele>883.6</ele>
        <time>2023-06-25T08:22:45Z</time>
      </trkpt>
      <trkpt lat="44.28703" lon="3.06262">
        <ele>883.9</ele>
        <time>2023-06-25T08:22:46Z</time>
      </trkpt>
      <trkpt lat="44.28701" lon="3.06258">
        <ele>884.1</ele>
        <time>2023-06-25T08:22:47Z</time>
      </trkpt>
      <trkpt lat="44.28699" lon="3.06254">
        <ele>884.4</ele>
        <time>2023-06-25T08:22:48Z</time>
      </trkpt>
      <trkpt lat="44.28697" lon="3.0625">
        <ele>884.7</ele>
        <time>2023-06-25T08:22:49Z</time>
      </trkpt>
      <trkpt lat="44.28693" lon="3.06243">
        <ele>885.2</ele>
        <time>2023-06-25T08:22:51Z</time>
      </trkpt>
      <trkpt lat="44.28691" lon="3.0624">
        <ele>885.5</ele>
        <time>2023-06-25T08:22:52Z</time>
      </trkpt>
      <trkpt lat="44.28688" lon="3.06237">
        <ele>885.8</ele>
        <time>2023-06-25T08:22:54Z</time>
      </trkpt>
      <trkpt lat="44.28685" lon="3.06234">
        <ele>886.1</ele>
        <time>2023-06-25T08:22:55Z</time>
      </trkpt>
      <trkpt lat="44.28683" lon="3.06231">
        <ele>886.3</ele>
        <time>2023-06-25T08:22:56Z</time>
      </trkpt>
      <trkpt lat="44.2868" lon="3.06228">
        <ele>886.6</ele>
        <time>2023-06-25T08:22:57Z</time>
      </trkpt>
      <trkpt lat="44.28677" lon="3.06223">
        <ele>887</ele>
        <time>2023-06-25T08:22:59Z</time>
      </trkpt>
      <trkpt lat="44.28674" lon="3.06219">
        <ele>887.3</ele>
        <time>2023-06-25T08:23:00Z</time>
      </trkpt>
      <trkpt lat="44.28673" lon="3.06217">
        <ele>887.4</ele>
        <time>2023-06-25T08:23:01Z</time>
      </trkpt>
      <trkpt lat="44.2867" lon="3.06212">
        <ele>887.7</ele>
        <time>2023-06-25T08:23:03Z</time>
      </trkpt>
      <trkpt lat="44.28668" lon="3.06209">
        <ele>887.9</ele>
        <time>2023-06-25T08:23:04Z</time>
      </trkpt>
      <trkpt lat="44.28665" lon="3.06205">
        <ele>888.2</ele>
        <time>2023-06-25T08:23:05Z</time>
      </trkpt>
      <trkpt lat="44.28662" lon="3.06203">
        <ele>888.3</ele>
        <time>2023-06-25T08:23:06Z</time>
      </trkpt>
      <trkpt lat="44.2866" lon="3.06199">
        <ele>888.6</ele>
        <time>2023-06-25T08:23:08Z</time>
      </trkpt>
      <trkpt lat="44.28657" lon="3.06196">
        <ele>888.7</ele>
        <time>2023-06-25T08:23:09Z</time>
      </trkpt>
      <trkpt lat="44.28656" lon="3.06192">
        <ele>888.9</ele>
        <time>2023-06-25T08:23:10Z</time>
      </trkpt>
      <trkpt lat="44.28652" lon="3.06186">
        <ele>889.1</ele>
        <time>2023-06-25T08:23:12Z</time>
      </trkpt>
      <trkpt lat="44.2865" lon="3.06182">
        <ele>889.3</ele>
        <time>2023-06-25T08:23:13Z</time>
      </trkpt>
      <trkpt lat="44.28649" lon="3.06177">
        <ele>889.4</ele>
        <time>2023-06-25T08:23:14Z</time>
      </trkpt>
      <trkpt lat="44.28646" lon="3.0617">
        <ele>889.7</ele>
        <time>2023-06-25T08:23:16Z</time>
      </trkpt>
      <trkpt lat="44.28644" lon="3.06165">
        <ele>889.8</ele>
        <time>2023-06-25T08:23:17Z</time>
      </trkpt>
      <trkpt lat="44.28642" lon="3.0616">
        <ele>890</ele>
        <time>2023-06-25T08:23:18Z</time>
      </trkpt>
      <trkpt lat="44.28639" lon="3.06153">
        <ele>890.3</ele>
        <time>2023-06-25T08:23:20Z</time>
      </trkpt>
      <trkpt lat="44.28637" lon="3.06148">
        <ele>890.4</ele>
        <time>2023-06-25T08:23:21Z</time>
      </trkpt>
      <trkpt lat="44.28635" lon="3.06144">
        <ele>890.6</ele>
        <time>2023-06-25T08:23:22Z</time>
      </trkpt>
      <trkpt lat="44.28632" lon="3.06139">
        <ele>890.7</ele>
        <time>2023-06-25T08:23:24Z</time>
      </trkpt>
      <trkpt lat="44.2863" lon="3.06135">
        <ele>890.9</ele>
        <time>2023-06-25T08:23:25Z</time>
      </trkpt>
      <trkpt lat="44.28627" lon="3.06131">
        <ele>891</ele>
        <time>2023-06-25T08:23:26Z</time>
      </trkpt>
      <trkpt lat="44.28624" lon="3.06127">
        <ele>891.2</ele>
        <time>2023-06-25T08:23:27Z</time>
      </trkpt>
      <trkpt lat="44.28621" lon="3.06125">
        <ele>891.3</ele>
        <time>2023-06-25T08:23:28Z</time>
      </trkpt>
      <trkpt lat="44.28615" lon="3.06121">
        <ele>891.5</ele>
        <time>2023-06-25T08:23:30Z</time>
      </trkpt>
      <trkpt lat="44.2861" lon="3.06117">
        <ele>891.8</ele>
        <time>2023-06-25T08:23:32Z</time>
      </trkpt>
      <trkpt lat="44.28606" lon="3.06114">
        <ele>891.9</ele>
        <time>2023-06-25T08:23:33Z</time>
      </trkpt>
      <trkpt lat="44.28603" lon="3.06112">
        <ele>892.1</ele>
        <time>2023-06-25T08:23:34Z</time>
      </trkpt>
      <trkpt lat="44.286" lon="3.06109">
        <ele>892.2</ele>
        <time>2023-06-25T08:23:35Z</time>
      </trkpt>
      <trkpt lat="44.28591" lon="3.06103">
        <ele>892.7</ele>
        <time>2023-06-25T08:23:38Z</time>
      </trkpt>
      <trkpt lat="44.28586" lon="3.061">
        <ele>893</ele>
        <time>2023-06-25T08:23:40Z</time>
      </trkpt>
      <trkpt lat="44.28583" lon="3.06098">
        <ele>893.2</ele>
        <time>2023-06-25T08:23:41Z</time>
      </trkpt>
      <trkpt lat="44.28578" lon="3.06094">
        <ele>893.5</ele>
        <time>2023-06-25T08:23:43Z</time>
      </trkpt>
      <trkpt lat="44.28575" lon="3.06092">
        <ele>893.7</ele>
        <time>2023-06-25T08:23:44Z</time>
      </trkpt>
      <trkpt lat="44.28572" lon="3.06091">
        <ele>893.9</ele>
        <time>2023-06-25T08:23:45Z</time>
      </trkpt>
      <trkpt lat="44.28566" lon="3.06088">
        <ele>894.3</ele>
        <time>2023-06-25T08:23:47Z</time>
      </trkpt>
      <trkpt lat="44.28564" lon="3.06086">
        <ele>894.5</ele>
        <time>2023-06-25T08:23:48Z</time>
      </trkpt>
      <trkpt lat="44.2856" lon="3.06084">
        <ele>894.8</ele>
        <time>2023-06-25T08:23:49Z</time>
      </trkpt>
      <trkpt lat="44.28557" lon="3.06082">
        <ele>895</ele>
        <time>2023-06-25T08:23:50Z</time>
      </trkpt>
      <trkpt lat="44.28553" lon="3.0608">
        <ele>895.3</ele>
        <time>2023-06-25T08:23:52Z</time>
      </trkpt>
      <trkpt lat="44.2855" lon="3.06078">
        <ele>895.5</ele>
        <time>2023-06-25T08:23:53Z</time>
      </trkpt>
      <trkpt lat="44.28547" lon="3.06076">
        <ele>895.7</ele>
        <time>2023-06-25T08:23:54Z</time>
      </trkpt>
      <trkpt lat="44.28544" lon="3.06074">
        <ele>896</ele>
        <time>2023-06-25T08:23:55Z</time>
      </trkpt>
      <trkpt lat="44.2854" lon="3.06072">
        <ele>896.3</ele>
        <time>2023-06-25T08:23:56Z</time>
      </trkpt>
      <trkpt lat="44.28534" lon="3.06069">
        <ele>896.7</ele>
        <time>2023-06-25T08:23:58Z</time>
      </trkpt>
      <trkpt lat="44.28531" lon="3.06067">
        <ele>897</ele>
        <time>2023-06-25T08:23:59Z</time>
      </trkpt>
      <trkpt lat="44.28527" lon="3.06065">
        <ele>897.4</ele>
        <time>2023-06-25T08:24:00Z</time>
      </trkpt>
      <trkpt lat="44.28524" lon="3.06063">
        <ele>897.7</ele>
        <time>2023-06-25T08:24:01Z</time>
      </trkpt>
      <trkpt lat="44.28521" lon="3.06061">
        <ele>897.9</ele>
        <time>2023-06-25T08:24:02Z</time>
      </trkpt>
      <trkpt lat="44.28517" lon="3.06059">
        <ele>898.2</ele>
        <time>2023-06-25T08:24:04Z</time>
      </trkpt>
      <trkpt lat="44.28515" lon="3.06058">
        <ele>898.4</ele>
        <time>2023-06-25T08:24:05Z</time>
      </trkpt>
      <trkpt lat="44.28512" lon="3.06056">
        <ele>898.7</ele>
        <time>2023-06-25T08:24:06Z</time>
      </trkpt>
      <trkpt lat="44.28509" lon="3.06053">
        <ele>899</ele>
        <time>2023-06-25T08:24:07Z</time>
      </trkpt>
      <trkpt lat="44.28507" lon="3.0605">
        <ele>899.3</ele>
        <time>2023-06-25T08:24:08Z</time>
      </trkpt>
      <trkpt lat="44.28504" lon="3.06047">
        <ele>899.5</ele>
        <time>2023-06-25T08:24:09Z</time>
      </trkpt>
      <trkpt lat="44.28501" lon="3.06045">
        <ele>899.8</ele>
        <time>2023-06-25T08:24:10Z</time>
      </trkpt>
      <trkpt lat="44.28498" lon="3.06042">
        <ele>900.1</ele>
        <time>2023-06-25T08:24:12Z</time>
      </trkpt>
      <trkpt lat="44.28495" lon="3.06038">
        <ele>900.4</ele>
        <time>2023-06-25T08:24:13Z</time>
      </trkpt>
      <trkpt lat="44.28493" lon="3.06034">
        <ele>900.6</ele>
        <time>2023-06-25T08:24:14Z</time>
      </trkpt>
      <trkpt lat="44.2849" lon="3.06031">
        <ele>900.8</ele>
        <time>2023-06-25T08:24:15Z</time>
      </trkpt>
      <trkpt lat="44.28488" lon="3.06027">
        <ele>901</ele>
        <time>2023-06-25T08:24:16Z</time>
      </trkpt>
      <trkpt lat="44.28483" lon="3.06021">
        <ele>901.3</ele>
        <time>2023-06-25T08:24:18Z</time>
      </trkpt>
      <trkpt lat="44.2848" lon="3.06018">
        <ele>901.5</ele>
        <time>2023-06-25T08:24:19Z</time>
      </trkpt>
      <trkpt lat="44.28478" lon="3.06014">
        <ele>901.6</ele>
        <time>2023-06-25T08:24:20Z</time>
      </trkpt>
      <trkpt lat="44.28475" lon="3.0601">
        <ele>901.8</ele>
        <time>2023-06-25T08:24:21Z</time>
      </trkpt>
      <trkpt lat="44.28472" lon="3.06007">
        <ele>901.9</ele>
        <time>2023-06-25T08:24:22Z</time>
      </trkpt>
      <trkpt lat="44.28467" lon="3.06">
        <ele>902.1</ele>
        <time>2023-06-25T08:24:24Z</time>
      </trkpt>
      <trkpt lat="44.28463" lon="3.05994">
        <ele>902.2</ele>
        <time>2023-06-25T08:24:26Z</time>
      </trkpt>
      <trkpt lat="44.28461" lon="3.0599">
        <ele>902.2</ele>
        <time>2023-06-25T08:24:27Z</time>
      </trkpt>
      <trkpt lat="44.28458" lon="3.05986">
        <ele>902.3</ele>
        <time>2023-06-25T08:24:28Z</time>
      </trkpt>
      <trkpt lat="44.28456" lon="3.05983">
        <ele>902.3</ele>
        <time>2023-06-25T08:24:29Z</time>
      </trkpt>
      <trkpt lat="44.28452" lon="3.05976">
        <ele>902.4</ele>
        <time>2023-06-25T08:24:31Z</time>
      </trkpt>
      <trkpt lat="44.28451" lon="3.05972">
        <ele>902.4</ele>
        <time>2023-06-25T08:24:32Z</time>
      </trkpt>
      <trkpt lat="44.28447" lon="3.05961">
        <ele>902.4</ele>
        <time>2023-06-25T08:24:34Z</time>
      </trkpt>
      <trkpt lat="44.28444" lon="3.05955">
        <ele>902.5</ele>
        <time>2023-06-25T08:24:36Z</time>
      </trkpt>
      <trkpt lat="44.28442" lon="3.05951">
        <ele>902.5</ele>
        <time>2023-06-25T08:24:37Z</time>
      </trkpt>
      <trkpt lat="44.2844" lon="3.05946">
        <ele>902.4</ele>
        <time>2023-06-25T08:24:38Z</time>
      </trkpt>
      <trkpt lat="44.28437" lon="3.05939">
        <ele>902.4</ele>
        <time>2023-06-25T08:24:40Z</time>
      </trkpt>
      <trkpt lat="44.28435" lon="3.05934">
        <ele>902.4</ele>
        <time>2023-06-25T08:24:41Z</time>
      </trkpt>
      <trkpt lat="44.28433" lon="3.05929">
        <ele>902.3</ele>
        <time>2023-06-25T08:24:42Z</time>
      </trkpt>
      <trkpt lat="44.28431" lon="3.05924">
        <ele>902.3</ele>
        <time>2023-06-25T08:24:43Z</time>
      </trkpt>
      <trkpt lat="44.2843" lon="3.05919">
        <ele>902.2</ele>
        <time>2023-06-25T08:24:44Z</time>
      </trkpt>
      <trkpt lat="44.28428" lon="3.05912">
        <ele>902.1</ele>
        <time>2023-06-25T08:24:45Z</time>
      </trkpt>
      <trkpt lat="44.28425" lon="3.05904">
        <ele>901.9</ele>
        <time>2023-06-25T08:24:47Z</time>
      </trkpt>
      <trkpt lat="44.28422" lon="3.05899">
        <ele>901.8</ele>
        <time>2023-06-25T08:24:48Z</time>
      </trkpt>
      <trkpt lat="44.28419" lon="3.05892">
        <ele>901.6</ele>
        <time>2023-06-25T08:24:49Z</time>
      </trkpt>
      <trkpt lat="44.28416" lon="3.05885">
        <ele>901.4</ele>
        <time>2023-06-25T08:24:51Z</time>
      </trkpt>
      <trkpt lat="44.28414" lon="3.0588">
        <ele>901.3</ele>
        <time>2023-06-25T08:24:52Z</time>
      </trkpt>
      <trkpt lat="44.28411" lon="3.05872">
        <ele>901.1</ele>
        <time>2023-06-25T08:24:53Z</time>
      </trkpt>
      <trkpt lat="44.28408" lon="3.05867">
        <ele>901</ele>
        <time>2023-06-25T08:24:54Z</time>
      </trkpt>
      <trkpt lat="44.28405" lon="3.05861">
        <ele>900.8</ele>
        <time>2023-06-25T08:24:55Z</time>
      </trkpt>
      <trkpt lat="44.28403" lon="3.05855">
        <ele>900.7</ele>
        <time>2023-06-25T08:24:56Z</time>
      </trkpt>
      <trkpt lat="44.28398" lon="3.05845">
        <ele>900.4</ele>
        <time>2023-06-25T08:24:58Z</time>
      </trkpt>
      <trkpt lat="44.28397" lon="3.05837">
        <ele>900.2</ele>
        <time>2023-06-25T08:24:59Z</time>
      </trkpt>
      <trkpt lat="44.28395" lon="3.05831">
        <ele>900.1</ele>
        <time>2023-06-25T08:25:00Z</time>
      </trkpt>
      <trkpt lat="44.28394" lon="3.05825">
        <ele>900</ele>
        <time>2023-06-25T08:25:01Z</time>
      </trkpt>
      <trkpt lat="44.28394" lon="3.05818">
        <ele>900</ele>
        <time>2023-06-25T08:25:02Z</time>
      </trkpt>
      <trkpt lat="44.28394" lon="3.05812">
        <ele>899.9</ele>
        <time>2023-06-25T08:25:03Z</time>
      </trkpt>
      <trkpt lat="44.28395" lon="3.05809">
        <ele>899.9</ele>
        <time>2023-06-25T08:25:04Z</time>
      </trkpt>
      <trkpt lat="44.28395" lon="3.058">
        <ele>899.9</ele>
        <time>2023-06-25T08:25:05Z</time>
      </trkpt>
      <trkpt lat="44.28396" lon="3.05794">
        <ele>899.9</ele>
        <time>2023-06-25T08:25:06Z</time>
      </trkpt>
      <trkpt lat="44.28396" lon="3.0578">
        <ele>899.9</ele>
        <time>2023-06-25T08:25:08Z</time>
      </trkpt>
      <trkpt lat="44.28397" lon="3.0577">
        <ele>899.9</ele>
        <time>2023-06-25T08:25:10Z</time>
      </trkpt>
      <trkpt lat="44.28398" lon="3.05763">
        <ele>900</ele>
        <time>2023-06-25T08:25:11Z</time>
      </trkpt>
      <trkpt lat="44.28398" lon="3.05756">
        <ele>900.1</ele>
        <time>2023-06-25T08:25:12Z</time>
      </trkpt>
      <trkpt lat="44.28399" lon="3.05749">
        <ele>900.2</ele>
        <time>2023-06-25T08:25:14Z</time>
      </trkpt>
      <trkpt lat="44.28399" lon="3.05743">
        <ele>900.3</ele>
        <time>2023-06-25T08:25:15Z</time>
      </trkpt>
      <trkpt lat="44.28399" lon="3.05737">
        <ele>900.4</ele>
        <time>2023-06-25T08:25:16Z</time>
      </trkpt>
      <trkpt lat="44.284" lon="3.05731">
        <ele>900.5</ele>
        <time>2023-06-25T08:25:17Z</time>
      </trkpt>
      <trkpt lat="44.284" lon="3.05726">
        <ele>900.6</ele>
        <time>2023-06-25T08:25:18Z</time>
      </trkpt>
      <trkpt lat="44.284" lon="3.05719">
        <ele>900.7</ele>
        <time>2023-06-25T08:25:19Z</time>
      </trkpt>
      <trkpt lat="44.284" lon="3.05711">
        <ele>900.9</ele>
        <time>2023-06-25T08:25:20Z</time>
      </trkpt>
      <trkpt lat="44.284" lon="3.057">
        <ele>901.1</ele>
        <time>2023-06-25T08:25:22Z</time>
      </trkpt>
      <trkpt lat="44.28399" lon="3.05694">
        <ele>901.2</ele>
        <time>2023-06-25T08:25:23Z</time>
      </trkpt>
      <trkpt lat="44.28397" lon="3.05688">
        <ele>901.3</ele>
        <time>2023-06-25T08:25:24Z</time>
      </trkpt>
      <trkpt lat="44.28394" lon="3.0568">
        <ele>901.5</ele>
        <time>2023-06-25T08:25:26Z</time>
      </trkpt>
      <trkpt lat="44.28393" lon="3.05672">
        <ele>901.5</ele>
        <time>2023-06-25T08:25:27Z</time>
      </trkpt>
      <trkpt lat="44.28392" lon="3.05666">
        <ele>901.6</ele>
        <time>2023-06-25T08:25:28Z</time>
      </trkpt>
      <trkpt lat="44.2839" lon="3.05659">
        <ele>901.6</ele>
        <time>2023-06-25T08:25:29Z</time>
      </trkpt>
      <trkpt lat="44.28387" lon="3.05649">
        <ele>901.7</ele>
        <time>2023-06-25T08:25:31Z</time>
      </trkpt>
      <trkpt lat="44.28384" lon="3.05643">
        <ele>901.8</ele>
        <time>2023-06-25T08:25:32Z</time>
      </trkpt>
      <trkpt lat="44.28382" lon="3.05637">
        <ele>902</ele>
        <time>2023-06-25T08:25:33Z</time>
      </trkpt>
      <trkpt lat="44.28382" lon="3.05635">
        <ele>902.1</ele>
        <time>2023-06-25T08:25:34Z</time>
      </trkpt>
      <trkpt lat="44.28378" lon="3.05624">
        <ele>902.6</ele>
        <time>2023-06-25T08:25:36Z</time>
      </trkpt>
      <trkpt lat="44.28375" lon="3.05617">
        <ele>903</ele>
        <time>2023-06-25T08:25:37Z</time>
      </trkpt>
      <trkpt lat="44.2837" lon="3.05611">
        <ele>903.3</ele>
        <time>2023-06-25T08:25:39Z</time>
      </trkpt>
      <trkpt lat="44.28367" lon="3.05607">
        <ele>903.6</ele>
        <time>2023-06-25T08:25:40Z</time>
      </trkpt>
      <trkpt lat="44.28365" lon="3.05603">
        <ele>903.8</ele>
        <time>2023-06-25T08:25:41Z</time>
      </trkpt>
      <trkpt lat="44.28363" lon="3.05598">
        <ele>904</ele>
        <time>2023-06-25T08:25:42Z</time>
      </trkpt>
      <trkpt lat="44.28361" lon="3.05593">
        <ele>904.2</ele>
        <time>2023-06-25T08:25:43Z</time>
      </trkpt>
      <trkpt lat="44.28358" lon="3.05587">
        <ele>904.4</ele>
        <time>2023-06-25T08:25:45Z</time>
      </trkpt>
      <trkpt lat="44.28357" lon="3.05582">
        <ele>904.6</ele>
        <time>2023-06-25T08:25:46Z</time>
      </trkpt>
      <trkpt lat="44.28354" lon="3.05577">
        <ele>904.7</ele>
        <time>2023-06-25T08:25:47Z</time>
      </trkpt>
      <trkpt lat="44.28352" lon="3.05572">
        <ele>904.7</ele>
        <time>2023-06-25T08:25:48Z</time>
      </trkpt>
      <trkpt lat="44.2835" lon="3.05567">
        <ele>904.8</ele>
        <time>2023-06-25T08:25:49Z</time>
      </trkpt>
      <trkpt lat="44.28347" lon="3.05563">
        <ele>904.8</ele>
        <time>2023-06-25T08:25:50Z</time>
      </trkpt>
      <trkpt lat="44.28344" lon="3.05559">
        <ele>904.8</ele>
        <time>2023-06-25T08:25:51Z</time>
      </trkpt>
      <trkpt lat="44.28337" lon="3.05552">
        <ele>905</ele>
        <time>2023-06-25T08:25:53Z</time>
      </trkpt>
      <trkpt lat="44.28334" lon="3.05548">
        <ele>905.1</ele>
        <time>2023-06-25T08:25:54Z</time>
      </trkpt>
      <trkpt lat="44.28327" lon="3.05539">
        <ele>905.6</ele>
        <time>2023-06-25T08:25:56Z</time>
      </trkpt>
      <trkpt lat="44.28322" lon="3.05533">
        <ele>905.5</ele>
        <time>2023-06-25T08:25:58Z</time>
      </trkpt>
      <trkpt lat="44.28319" lon="3.0553">
        <ele>905.3</ele>
        <time>2023-06-25T08:25:59Z</time>
      </trkpt>
      <trkpt lat="44.28314" lon="3.05526">
        <ele>905.1</ele>
        <time>2023-06-25T08:26:00Z</time>
      </trkpt>
      <trkpt lat="44.28307" lon="3.0552">
        <ele>904.8</ele>
        <time>2023-06-25T08:26:02Z</time>
      </trkpt>
      <trkpt lat="44.28303" lon="3.05515">
        <ele>904.8</ele>
        <time>2023-06-25T08:26:03Z</time>
      </trkpt>
      <trkpt lat="44.283" lon="3.05512">
        <ele>904.9</ele>
        <time>2023-06-25T08:26:04Z</time>
      </trkpt>
      <trkpt lat="44.28296" lon="3.05507">
        <ele>905.1</ele>
        <time>2023-06-25T08:26:05Z</time>
      </trkpt>
      <trkpt lat="44.2829" lon="3.055">
        <ele>905.4</ele>
        <time>2023-06-25T08:26:07Z</time>
      </trkpt>
      <trkpt lat="44.28285" lon="3.05492">
        <ele>905.6</ele>
        <time>2023-06-25T08:26:09Z</time>
      </trkpt>
      <trkpt lat="44.28281" lon="3.05486">
        <ele>905.8</ele>
        <time>2023-06-25T08:26:10Z</time>
      </trkpt>
      <trkpt lat="44.28278" lon="3.05482">
        <ele>905.9</ele>
        <time>2023-06-25T08:26:11Z</time>
      </trkpt>
      <trkpt lat="44.28276" lon="3.05477">
        <ele>906</ele>
        <time>2023-06-25T08:26:12Z</time>
      </trkpt>
      <trkpt lat="44.28271" lon="3.05468">
        <ele>906.3</ele>
        <time>2023-06-25T08:26:14Z</time>
      </trkpt>
      <trkpt lat="44.28268" lon="3.05463">
        <ele>906.6</ele>
        <time>2023-06-25T08:26:15Z</time>
      </trkpt>
      <trkpt lat="44.28265" lon="3.05458">
        <ele>906.9</ele>
        <time>2023-06-25T08:26:17Z</time>
      </trkpt>
      <trkpt lat="44.28262" lon="3.05453">
        <ele>907.2</ele>
        <time>2023-06-25T08:26:18Z</time>
      </trkpt>
      <trkpt lat="44.2826" lon="3.05447">
        <ele>907.6</ele>
        <time>2023-06-25T08:26:19Z</time>
      </trkpt>
      <trkpt lat="44.28257" lon="3.05442">
        <ele>908</ele>
        <time>2023-06-25T08:26:20Z</time>
      </trkpt>
      <trkpt lat="44.28254" lon="3.05436">
        <ele>908.5</ele>
        <time>2023-06-25T08:26:21Z</time>
      </trkpt>
      <trkpt lat="44.28251" lon="3.05432">
        <ele>908.9</ele>
        <time>2023-06-25T08:26:22Z</time>
      </trkpt>
      <trkpt lat="44.28246" lon="3.05425">
        <ele>909.3</ele>
        <time>2023-06-25T08:26:24Z</time>
      </trkpt>
      <trkpt lat="44.28243" lon="3.05419">
        <ele>909.6</ele>
        <time>2023-06-25T08:26:25Z</time>
      </trkpt>
      <trkpt lat="44.28241" lon="3.05415">
        <ele>909.8</ele>
        <time>2023-06-25T08:26:26Z</time>
      </trkpt>
      <trkpt lat="44.28238" lon="3.05411">
        <ele>910</ele>
        <time>2023-06-25T08:26:28Z</time>
      </trkpt>
      <trkpt lat="44.28236" lon="3.05407">
        <ele>910.2</ele>
        <time>2023-06-25T08:26:29Z</time>
      </trkpt>
      <trkpt lat="44.28233" lon="3.05403">
        <ele>910.4</ele>
        <time>2023-06-25T08:26:30Z</time>
      </trkpt>
      <trkpt lat="44.28231" lon="3.05398">
        <ele>910.6</ele>
        <time>2023-06-25T08:26:31Z</time>
      </trkpt>
      <trkpt lat="44.28229" lon="3.05392">
        <ele>910.9</ele>
        <time>2023-06-25T08:26:32Z</time>
      </trkpt>
      <trkpt lat="44.28226" lon="3.05387">
        <ele>911.1</ele>
        <time>2023-06-25T08:26:33Z</time>
      </trkpt>
      <trkpt lat="44.28224" lon="3.05383">
        <ele>911.3</ele>
        <time>2023-06-25T08:26:34Z</time>
      </trkpt>
      <trkpt lat="44.28222" lon="3.05379">
        <ele>911.4</ele>
        <time>2023-06-25T08:26:35Z</time>
      </trkpt>
      <trkpt lat="44.2822" lon="3.05374">
        <ele>911.7</ele>
        <time>2023-06-25T08:26:37Z</time>
      </trkpt>
      <trkpt lat="44.28217" lon="3.05371">
        <ele>911.8</ele>
        <time>2023-06-25T08:26:38Z</time>
      </trkpt>
      <trkpt lat="44.28215" lon="3.05367">
        <ele>912</ele>
        <time>2023-06-25T08:26:39Z</time>
      </trkpt>
      <trkpt lat="44.28211" lon="3.05358">
        <ele>912.3</ele>
        <time>2023-06-25T08:26:41Z</time>
      </trkpt>
      <trkpt lat="44.28209" lon="3.05353">
        <ele>912.5</ele>
        <time>2023-06-25T08:26:42Z</time>
      </trkpt>
      <trkpt lat="44.28206" lon="3.05348">
        <ele>912.7</ele>
        <time>2023-06-25T08:26:43Z</time>
      </trkpt>
      <trkpt lat="44.28203" lon="3.05343">
        <ele>912.9</ele>
        <time>2023-06-25T08:26:45Z</time>
      </trkpt>
      <trkpt lat="44.282" lon="3.05339">
        <ele>913</ele>
        <time>2023-06-25T08:26:46Z</time>
      </trkpt>
      <trkpt lat="44.28197" lon="3.05335">
        <ele>913.1</ele>
        <time>2023-06-25T08:26:47Z</time>
      </trkpt>
      <trkpt lat="44.28195" lon="3.05331">
        <ele>913.3</ele>
        <time>2023-06-25T08:26:48Z</time>
      </trkpt>
      <trkpt lat="44.28192" lon="3.05327">
        <ele>913.4</ele>
        <time>2023-06-25T08:26:49Z</time>
      </trkpt>
      <trkpt lat="44.28188" lon="3.05323">
        <ele>913.6</ele>
        <time>2023-06-25T08:26:50Z</time>
      </trkpt>
      <trkpt lat="44.28185" lon="3.05319">
        <ele>914</ele>
        <time>2023-06-25T08:26:51Z</time>
      </trkpt>
      <trkpt lat="44.28182" lon="3.05315">
        <ele>914.4</ele>
        <time>2023-06-25T08:26:52Z</time>
      </trkpt>
      <trkpt lat="44.28178" lon="3.05312">
        <ele>914.8</ele>
        <time>2023-06-25T08:26:53Z</time>
      </trkpt>
      <trkpt lat="44.28175" lon="3.05309">
        <ele>915.3</ele>
        <time>2023-06-25T08:26:55Z</time>
      </trkpt>
      <trkpt lat="44.28172" lon="3.05306">
        <ele>915.8</ele>
        <time>2023-06-25T08:26:56Z</time>
      </trkpt>
      <trkpt lat="44.28168" lon="3.05304">
        <ele>916.3</ele>
        <time>2023-06-25T08:26:57Z</time>
      </trkpt>
      <trkpt lat="44.28165" lon="3.05301">
        <ele>916.7</ele>
        <time>2023-06-25T08:26:58Z</time>
      </trkpt>
      <trkpt lat="44.28161" lon="3.05298">
        <ele>917.2</ele>
        <time>2023-06-25T08:27:00Z</time>
      </trkpt>
      <trkpt lat="44.28158" lon="3.05295">
        <ele>917.6</ele>
        <time>2023-06-25T08:27:01Z</time>
      </trkpt>
      <trkpt lat="44.28154" lon="3.05293">
        <ele>918</ele>
        <time>2023-06-25T08:27:02Z</time>
      </trkpt>
      <trkpt lat="44.2815" lon="3.0529">
        <ele>918.5</ele>
        <time>2023-06-25T08:27:03Z</time>
      </trkpt>
      <trkpt lat="44.28147" lon="3.05288">
        <ele>918.9</ele>
        <time>2023-06-25T08:27:04Z</time>
      </trkpt>
      <trkpt lat="44.28145" lon="3.05286">
        <ele>919.2</ele>
        <time>2023-06-25T08:27:05Z</time>
      </trkpt>
      <trkpt lat="44.28142" lon="3.05283">
        <ele>919.5</ele>
        <time>2023-06-25T08:27:06Z</time>
      </trkpt>
      <trkpt lat="44.28139" lon="3.05282">
        <ele>919.8</ele>
        <time>2023-06-25T08:27:07Z</time>
      </trkpt>
      <trkpt lat="44.28135" lon="3.0528">
        <ele>920.1</ele>
        <time>2023-06-25T08:27:08Z</time>
      </trkpt>
      <trkpt lat="44.28132" lon="3.05277">
        <ele>920.4</ele>
        <time>2023-06-25T08:27:09Z</time>
      </trkpt>
      <trkpt lat="44.28128" lon="3.05275">
        <ele>920.7</ele>
        <time>2023-06-25T08:27:11Z</time>
      </trkpt>
      <trkpt lat="44.28125" lon="3.05274">
        <ele>921</ele>
        <time>2023-06-25T08:27:12Z</time>
      </trkpt>
      <trkpt lat="44.28121" lon="3.05273">
        <ele>921.3</ele>
        <time>2023-06-25T08:27:13Z</time>
      </trkpt>
      <trkpt lat="44.28117" lon="3.05273">
        <ele>921.8</ele>
        <time>2023-06-25T08:27:14Z</time>
      </trkpt>
      <trkpt lat="44.28113" lon="3.05272">
        <ele>922.2</ele>
        <time>2023-06-25T08:27:15Z</time>
      </trkpt>
      <trkpt lat="44.28109" lon="3.05271">
        <ele>922.5</ele>
        <time>2023-06-25T08:27:16Z</time>
      </trkpt>
      <trkpt lat="44.28105" lon="3.05269">
        <ele>922.8</ele>
        <time>2023-06-25T08:27:18Z</time>
      </trkpt>
      <trkpt lat="44.28102" lon="3.05268">
        <ele>923.1</ele>
        <time>2023-06-25T08:27:19Z</time>
      </trkpt>
      <trkpt lat="44.28098" lon="3.05267">
        <ele>923.3</ele>
        <time>2023-06-25T08:27:20Z</time>
      </trkpt>
      <trkpt lat="44.28094" lon="3.05265">
        <ele>923.6</ele>
        <time>2023-06-25T08:27:21Z</time>
      </trkpt>
      <trkpt lat="44.28091" lon="3.05264">
        <ele>923.8</ele>
        <time>2023-06-25T08:27:22Z</time>
      </trkpt>
      <trkpt lat="44.28088" lon="3.05263">
        <ele>924.1</ele>
        <time>2023-06-25T08:27:23Z</time>
      </trkpt>
      <trkpt lat="44.28085" lon="3.05262">
        <ele>924.3</ele>
        <time>2023-06-25T08:27:24Z</time>
      </trkpt>
      <trkpt lat="44.28081" lon="3.0526">
        <ele>924.6</ele>
        <time>2023-06-25T08:27:26Z</time>
      </trkpt>
      <trkpt lat="44.28078" lon="3.05257">
        <ele>924.8</ele>
        <time>2023-06-25T08:27:27Z</time>
      </trkpt>
      <trkpt lat="44.28075" lon="3.05254">
        <ele>925.1</ele>
        <time>2023-06-25T08:27:28Z</time>
      </trkpt>
      <trkpt lat="44.28072" lon="3.05251">
        <ele>925.3</ele>
        <time>2023-06-25T08:27:29Z</time>
      </trkpt>
      <trkpt lat="44.28069" lon="3.05249">
        <ele>925.5</ele>
        <time>2023-06-25T08:27:30Z</time>
      </trkpt>
      <trkpt lat="44.28066" lon="3.05246">
        <ele>925.7</ele>
        <time>2023-06-25T08:27:31Z</time>
      </trkpt>
      <trkpt lat="44.28063" lon="3.05243">
        <ele>925.9</ele>
        <time>2023-06-25T08:27:33Z</time>
      </trkpt>
      <trkpt lat="44.2806" lon="3.0524">
        <ele>926</ele>
        <time>2023-06-25T08:27:34Z</time>
      </trkpt>
      <trkpt lat="44.28057" lon="3.05236">
        <ele>926.1</ele>
        <time>2023-06-25T08:27:35Z</time>
      </trkpt>
      <trkpt lat="44.28054" lon="3.05232">
        <ele>926.2</ele>
        <time>2023-06-25T08:27:36Z</time>
      </trkpt>
      <trkpt lat="44.28053" lon="3.05231">
        <ele>926.2</ele>
        <time>2023-06-25T08:27:37Z</time>
      </trkpt>
      <trkpt lat="44.28051" lon="3.05229">
        <ele>926.3</ele>
        <time>2023-06-25T08:27:38Z</time>
      </trkpt>
      <trkpt lat="44.28051" lon="3.05228">
        <ele>926.3</ele>
        <time>2023-06-25T08:27:40Z</time>
      </trkpt>
      <trkpt lat="44.28052" lon="3.05228">
        <ele>926.3</ele>
        <time>2023-06-25T08:27:41Z</time>
      </trkpt>
      <trkpt lat="44.28052" lon="3.05228">
        <ele>926.3</ele>
        <time>2023-06-25T08:27:43Z</time>
      </trkpt>
      <trkpt lat="44.28052" lon="3.05228">
        <ele>926.3</ele>
        <time>2023-06-25T08:27:44Z</time>
      </trkpt>
      <trkpt lat="44.28052" lon="3.05228">
        <ele>926.3</ele>
        <time>2023-06-25T08:27:46Z</time>
      </trkpt>
      <trkpt lat="44.28052" lon="3.05228">
        <ele>926.3</ele>
        <time>2023-06-25T08:27:47Z</time>
      </trkpt>
      <trkpt lat="44.28052" lon="3.05228">
        <ele>926.3</ele>
        <time>2023-06-25T08:27:49Z</time>
      </trkpt>
      <trkpt lat="44.28047" lon="3.05221">
        <ele>926.3</ele>
        <time>2023-06-25T08:28:24Z</time>
      </trkpt>
      <trkpt lat="44.28042" lon="3.05216">
        <ele>926.3</ele>
        <time>2023-06-25T08:28:26Z</time>
      </trkpt>
      <trkpt lat="44.28038" lon="3.05212">
        <ele>926.4</ele>
        <time>2023-06-25T08:28:27Z</time>
      </trkpt>
      <trkpt lat="44.28032" lon="3.05206">
        <ele>926.5</ele>
        <time>2023-06-25T08:28:29Z</time>
      </trkpt>
      <trkpt lat="44.28025" lon="3.052">
        <ele>926.6</ele>
        <time>2023-06-25T08:28:31Z</time>
      </trkpt>
      <trkpt lat="44.28021" lon="3.05195">
        <ele>926.5</ele>
        <time>2023-06-25T08:28:32Z</time>
      </trkpt>
      <trkpt lat="44.28017" lon="3.05191">
        <ele>926.4</ele>
        <time>2023-06-25T08:28:33Z</time>
      </trkpt>
      <trkpt lat="44.28014" lon="3.05185">
        <ele>926.2</ele>
        <time>2023-06-25T08:28:34Z</time>
      </trkpt>
      <trkpt lat="44.2801" lon="3.05181">
        <ele>926</ele>
        <time>2023-06-25T08:28:35Z</time>
      </trkpt>
      <trkpt lat="44.28006" lon="3.05176">
        <ele>925.7</ele>
        <time>2023-06-25T08:28:36Z</time>
      </trkpt>
      <trkpt lat="44.28002" lon="3.05171">
        <ele>925.5</ele>
        <time>2023-06-25T08:28:37Z</time>
      </trkpt>
      <trkpt lat="44.27998" lon="3.05165">
        <ele>925.2</ele>
        <time>2023-06-25T08:28:38Z</time>
      </trkpt>
      <trkpt lat="44.27995" lon="3.05158">
        <ele>924.9</ele>
        <time>2023-06-25T08:28:39Z</time>
      </trkpt>
      <trkpt lat="44.27991" lon="3.0515">
        <ele>924.5</ele>
        <time>2023-06-25T08:28:40Z</time>
      </trkpt>
      <trkpt lat="44.27989" lon="3.05142">
        <ele>924</ele>
        <time>2023-06-25T08:28:41Z</time>
      </trkpt>
      <trkpt lat="44.27986" lon="3.05133">
        <ele>923.5</ele>
        <time>2023-06-25T08:28:42Z</time>
      </trkpt>
      <trkpt lat="44.27984" lon="3.05125">
        <ele>923</ele>
        <time>2023-06-25T08:28:43Z</time>
      </trkpt>
      <trkpt lat="44.27981" lon="3.05116">
        <ele>922.6</ele>
        <time>2023-06-25T08:28:44Z</time>
      </trkpt>
      <trkpt lat="44.27978" lon="3.05108">
        <ele>922.2</ele>
        <time>2023-06-25T08:28:45Z</time>
      </trkpt>
      <trkpt lat="44.27976" lon="3.05099">
        <ele>921.7</ele>
        <time>2023-06-25T08:28:46Z</time>
      </trkpt>
      <trkpt lat="44.27973" lon="3.05091">
        <ele>921.2</ele>
        <time>2023-06-25T08:28:47Z</time>
      </trkpt>
      <trkpt lat="44.27971" lon="3.05083">
        <ele>920.8</ele>
        <time>2023-06-25T08:28:48Z</time>
      </trkpt>
      <trkpt lat="44.27969" lon="3.05075">
        <ele>920.3</ele>
        <time>2023-06-25T08:28:49Z</time>
      </trkpt>
      <trkpt lat="44.27966" lon="3.05068">
        <ele>919.9</ele>
        <time>2023-06-25T08:28:50Z</time>
      </trkpt>
      <trkpt lat="44.27963" lon="3.0506">
        <ele>919.5</ele>
        <time>2023-06-25T08:28:51Z</time>
      </trkpt>
      <trkpt lat="44.27961" lon="3.05053">
        <ele>919</ele>
        <time>2023-06-25T08:28:52Z</time>
      </trkpt>
      <trkpt lat="44.27958" lon="3.05046">
        <ele>918.5</ele>
        <time>2023-06-25T08:28:53Z</time>
      </trkpt>
      <trkpt lat="44.27955" lon="3.05039">
        <ele>917.9</ele>
        <time>2023-06-25T08:28:54Z</time>
      </trkpt>
      <trkpt lat="44.27953" lon="3.05033">
        <ele>917.4</ele>
        <time>2023-06-25T08:28:55Z</time>
      </trkpt>
      <trkpt lat="44.2795" lon="3.05026">
        <ele>917</ele>
        <time>2023-06-25T08:28:56Z</time>
      </trkpt>
      <trkpt lat="44.27948" lon="3.0502">
        <ele>916.5</ele>
        <time>2023-06-25T08:28:57Z</time>
      </trkpt>
      <trkpt lat="44.27945" lon="3.05013">
        <ele>916</ele>
        <time>2023-06-25T08:28:58Z</time>
      </trkpt>
      <trkpt lat="44.27943" lon="3.05006">
        <ele>915.7</ele>
        <time>2023-06-25T08:28:59Z</time>
      </trkpt>
      <trkpt lat="44.27941" lon="3.05">
        <ele>915.5</ele>
        <time>2023-06-25T08:29:00Z</time>
      </trkpt>
      <trkpt lat="44.27939" lon="3.04995">
        <ele>915.3</ele>
        <time>2023-06-25T08:29:01Z</time>
      </trkpt>
      <trkpt lat="44.27938" lon="3.04988">
        <ele>915.1</ele>
        <time>2023-06-25T08:29:02Z</time>
      </trkpt>
      <trkpt lat="44.27936" lon="3.0498">
        <ele>914.9</ele>
        <time>2023-06-25T08:29:03Z</time>
      </trkpt>
      <trkpt lat="44.27936" lon="3.04971">
        <ele>914.7</ele>
        <time>2023-06-25T08:29:04Z</time>
      </trkpt>
      <trkpt lat="44.27935" lon="3.04962">
        <ele>914.4</ele>
        <time>2023-06-25T08:29:05Z</time>
      </trkpt>
      <trkpt lat="44.27935" lon="3.04953">
        <ele>914</ele>
        <time>2023-06-25T08:29:06Z</time>
      </trkpt>
      <trkpt lat="44.27935" lon="3.04945">
        <ele>913.6</ele>
        <time>2023-06-25T08:29:07Z</time>
      </trkpt>
      <trkpt lat="44.27935" lon="3.04936">
        <ele>913.3</ele>
        <time>2023-06-25T08:29:08Z</time>
      </trkpt>
      <trkpt lat="44.27935" lon="3.04929">
        <ele>912.9</ele>
        <time>2023-06-25T08:29:09Z</time>
      </trkpt>
      <trkpt lat="44.27935" lon="3.04921">
        <ele>912.5</ele>
        <time>2023-06-25T08:29:10Z</time>
      </trkpt>
      <trkpt lat="44.27936" lon="3.04913">
        <ele>912.3</ele>
        <time>2023-06-25T08:29:11Z</time>
      </trkpt>
      <trkpt lat="44.27936" lon="3.04905">
        <ele>912.1</ele>
        <time>2023-06-25T08:29:12Z</time>
      </trkpt>
      <trkpt lat="44.27937" lon="3.04897">
        <ele>912</ele>
        <time>2023-06-25T08:29:13Z</time>
      </trkpt>
      <trkpt lat="44.27937" lon="3.04889">
        <ele>911.8</ele>
        <time>2023-06-25T08:29:14Z</time>
      </trkpt>
      <trkpt lat="44.27937" lon="3.04881">
        <ele>911.6</ele>
        <time>2023-06-25T08:29:15Z</time>
      </trkpt>
      <trkpt lat="44.27937" lon="3.04874">
        <ele>911.2</ele>
        <time>2023-06-25T08:29:16Z</time>
      </trkpt>
      <trkpt lat="44.27937" lon="3.04867">
        <ele>910.8</ele>
        <time>2023-06-25T08:29:17Z</time>
      </trkpt>
      <trkpt lat="44.27937" lon="3.04861">
        <ele>910.4</ele>
        <time>2023-06-25T08:29:18Z</time>
      </trkpt>
      <trkpt lat="44.27937" lon="3.04854">
        <ele>910</ele>
        <time>2023-06-25T08:29:19Z</time>
      </trkpt>
      <trkpt lat="44.27936" lon="3.04848">
        <ele>909.7</ele>
        <time>2023-06-25T08:29:20Z</time>
      </trkpt>
      <trkpt lat="44.27935" lon="3.04842">
        <ele>909.3</ele>
        <time>2023-06-25T08:29:21Z</time>
      </trkpt>
      <trkpt lat="44.27933" lon="3.04836">
        <ele>909</ele>
        <time>2023-06-25T08:29:22Z</time>
      </trkpt>
      <trkpt lat="44.27931" lon="3.04829">
        <ele>908.6</ele>
        <time>2023-06-25T08:29:23Z</time>
      </trkpt>
      <trkpt lat="44.27928" lon="3.04823">
        <ele>908.1</ele>
        <time>2023-06-25T08:29:24Z</time>
      </trkpt>
      <trkpt lat="44.27925" lon="3.04817">
        <ele>907.5</ele>
        <time>2023-06-25T08:29:25Z</time>
      </trkpt>
      <trkpt lat="44.27922" lon="3.0481">
        <ele>906.9</ele>
        <time>2023-06-25T08:29:26Z</time>
      </trkpt>
      <trkpt lat="44.27919" lon="3.04804">
        <ele>906.3</ele>
        <time>2023-06-25T08:29:27Z</time>
      </trkpt>
      <trkpt lat="44.27915" lon="3.04798">
        <ele>905.8</ele>
        <time>2023-06-25T08:29:28Z</time>
      </trkpt>
      <trkpt lat="44.27912" lon="3.04792">
        <ele>905.4</ele>
        <time>2023-06-25T08:29:29Z</time>
      </trkpt>
      <trkpt lat="44.27909" lon="3.04786">
        <ele>904.9</ele>
        <time>2023-06-25T08:29:30Z</time>
      </trkpt>
      <trkpt lat="44.27906" lon="3.04779">
        <ele>904.4</ele>
        <time>2023-06-25T08:29:31Z</time>
      </trkpt>
      <trkpt lat="44.27903" lon="3.04772">
        <ele>904</ele>
        <time>2023-06-25T08:29:32Z</time>
      </trkpt>
      <trkpt lat="44.279" lon="3.04764">
        <ele>903.6</ele>
        <time>2023-06-25T08:29:33Z</time>
      </trkpt>
      <trkpt lat="44.27899" lon="3.04756">
        <ele>903.1</ele>
        <time>2023-06-25T08:29:34Z</time>
      </trkpt>
      <trkpt lat="44.27898" lon="3.04748">
        <ele>902.7</ele>
        <time>2023-06-25T08:29:35Z</time>
      </trkpt>
      <trkpt lat="44.27897" lon="3.0474">
        <ele>902.3</ele>
        <time>2023-06-25T08:29:36Z</time>
      </trkpt>
      <trkpt lat="44.27896" lon="3.04732">
        <ele>902</ele>
        <time>2023-06-25T08:29:37Z</time>
      </trkpt>
      <trkpt lat="44.27894" lon="3.04724">
        <ele>901.7</ele>
        <time>2023-06-25T08:29:38Z</time>
      </trkpt>
      <trkpt lat="44.27892" lon="3.04716">
        <ele>901.5</ele>
        <time>2023-06-25T08:29:39Z</time>
      </trkpt>
      <trkpt lat="44.2789" lon="3.04708">
        <ele>901.4</ele>
        <time>2023-06-25T08:29:40Z</time>
      </trkpt>
      <trkpt lat="44.27888" lon="3.04702">
        <ele>901.2</ele>
        <time>2023-06-25T08:29:41Z</time>
      </trkpt>
      <trkpt lat="44.27886" lon="3.04695">
        <ele>901.1</ele>
        <time>2023-06-25T08:29:42Z</time>
      </trkpt>
      <trkpt lat="44.27884" lon="3.04688">
        <ele>900.9</ele>
        <time>2023-06-25T08:29:43Z</time>
      </trkpt>
      <trkpt lat="44.27881" lon="3.04682">
        <ele>900.9</ele>
        <time>2023-06-25T08:29:44Z</time>
      </trkpt>
      <trkpt lat="44.27878" lon="3.04676">
        <ele>900.9</ele>
        <time>2023-06-25T08:29:45Z</time>
      </trkpt>
      <trkpt lat="44.27876" lon="3.04671">
        <ele>900.9</ele>
        <time>2023-06-25T08:29:46Z</time>
      </trkpt>
      <trkpt lat="44.27873" lon="3.04669">
        <ele>900.9</ele>
        <time>2023-06-25T08:29:47Z</time>
      </trkpt>
      <trkpt lat="44.27869" lon="3.04667">
        <ele>900.9</ele>
        <time>2023-06-25T08:29:48Z</time>
      </trkpt>
      <trkpt lat="44.27864" lon="3.04666">
        <ele>900.9</ele>
        <time>2023-06-25T08:29:49Z</time>
      </trkpt>
      <trkpt lat="44.2786" lon="3.04667">
        <ele>900.9</ele>
        <time>2023-06-25T08:29:50Z</time>
      </trkpt>
      <trkpt lat="44.27857" lon="3.0467">
        <ele>900.9</ele>
        <time>2023-06-25T08:29:51Z</time>
      </trkpt>
      <trkpt lat="44.27855" lon="3.04676">
        <ele>901</ele>
        <time>2023-06-25T08:29:52Z</time>
      </trkpt>
      <trkpt lat="44.27853" lon="3.04683">
        <ele>901</ele>
        <time>2023-06-25T08:29:53Z</time>
      </trkpt>
      <trkpt lat="44.27852" lon="3.04689">
        <ele>901</ele>
        <time>2023-06-25T08:29:55Z</time>
      </trkpt>
      <trkpt lat="44.27851" lon="3.04693">
        <ele>901</ele>
        <time>2023-06-25T08:29:56Z</time>
      </trkpt>
      <trkpt lat="44.2785" lon="3.04698">
        <ele>901</ele>
        <time>2023-06-25T08:29:58Z</time>
      </trkpt>
      <trkpt lat="44.27848" lon="3.04702">
        <ele>901</ele>
        <time>2023-06-25T08:29:59Z</time>
      </trkpt>
      <trkpt lat="44.27846" lon="3.04707">
        <ele>901</ele>
        <time>2023-06-25T08:30:00Z</time>
      </trkpt>
      <trkpt lat="44.27846" lon="3.04709">
        <ele>901</ele>
        <time>2023-06-25T08:30:01Z</time>
      </trkpt>
      <trkpt lat="44.27843" lon="3.04715">
        <ele>901</ele>
        <time>2023-06-25T08:30:03Z</time>
      </trkpt>
      <trkpt lat="44.2784" lon="3.04718">
        <ele>901</ele>
        <time>2023-06-25T08:30:04Z</time>
      </trkpt>
      <trkpt lat="44.27837" lon="3.04723">
        <ele>901</ele>
        <time>2023-06-25T08:30:05Z</time>
      </trkpt>
      <trkpt lat="44.27834" lon="3.04726">
        <ele>901</ele>
        <time>2023-06-25T08:30:06Z</time>
      </trkpt>
      <trkpt lat="44.27832" lon="3.0473">
        <ele>901</ele>
        <time>2023-06-25T08:30:07Z</time>
      </trkpt>
      <trkpt lat="44.2783" lon="3.04733">
        <ele>901</ele>
        <time>2023-06-25T08:30:08Z</time>
      </trkpt>
      <trkpt lat="44.27826" lon="3.04738">
        <ele>901</ele>
        <time>2023-06-25T08:30:10Z</time>
      </trkpt>
      <trkpt lat="44.27825" lon="3.04742">
        <ele>901</ele>
        <time>2023-06-25T08:30:11Z</time>
      </trkpt>
      <trkpt lat="44.27823" lon="3.04746">
        <ele>901</ele>
        <time>2023-06-25T08:30:12Z</time>
      </trkpt>
      <trkpt lat="44.27821" lon="3.0475">
        <ele>901</ele>
        <time>2023-06-25T08:30:13Z</time>
      </trkpt>
      <trkpt lat="44.27818" lon="3.04755">
        <ele>901</ele>
        <time>2023-06-25T08:30:15Z</time>
      </trkpt>
      <trkpt lat="44.27815" lon="3.04761">
        <ele>901</ele>
        <time>2023-06-25T08:30:17Z</time>
      </trkpt>
      <trkpt lat="44.27813" lon="3.04765">
        <ele>901</ele>
        <time>2023-06-25T08:30:18Z</time>
      </trkpt>
      <trkpt lat="44.27811" lon="3.04768">
        <ele>901</ele>
        <time>2023-06-25T08:30:19Z</time>
      </trkpt>
      <trkpt lat="44.2781" lon="3.04771">
        <ele>901</ele>
        <time>2023-06-25T08:30:20Z</time>
      </trkpt>
      <trkpt lat="44.27807" lon="3.04776">
        <ele>901</ele>
        <time>2023-06-25T08:30:22Z</time>
      </trkpt>
      <trkpt lat="44.27805" lon="3.0478">
        <ele>901</ele>
        <time>2023-06-25T08:30:23Z</time>
      </trkpt>
      <trkpt lat="44.27802" lon="3.04785">
        <ele>901</ele>
        <time>2023-06-25T08:30:24Z</time>
      </trkpt>
      <trkpt lat="44.278" lon="3.04788">
        <ele>901</ele>
        <time>2023-06-25T08:30:25Z</time>
      </trkpt>
      <trkpt lat="44.27797" lon="3.04793">
        <ele>901</ele>
        <time>2023-06-25T08:30:27Z</time>
      </trkpt>
      <trkpt lat="44.27796" lon="3.04797">
        <ele>901</ele>
        <time>2023-06-25T08:30:28Z</time>
      </trkpt>
      <trkpt lat="44.27794" lon="3.04801">
        <ele>901</ele>
        <time>2023-06-25T08:30:29Z</time>
      </trkpt>
      <trkpt lat="44.27791" lon="3.04807">
        <ele>901</ele>
        <time>2023-06-25T08:30:31Z</time>
      </trkpt>
      <trkpt lat="44.27789" lon="3.04811">
        <ele>901</ele>
        <time>2023-06-25T08:30:32Z</time>
      </trkpt>
      <trkpt lat="44.27787" lon="3.04816">
        <ele>901</ele>
        <time>2023-06-25T08:30:33Z</time>
      </trkpt>
      <trkpt lat="44.27786" lon="3.04817">
        <ele>901</ele>
        <time>2023-06-25T08:30:34Z</time>
      </trkpt>
      <trkpt lat="44.27782" lon="3.04823">
        <ele>901.1</ele>
        <time>2023-06-25T08:30:36Z</time>
      </trkpt>
      <trkpt lat="44.2778" lon="3.04827">
        <ele>901.1</ele>
        <time>2023-06-25T08:30:37Z</time>
      </trkpt>
      <trkpt lat="44.27777" lon="3.04833">
        <ele>901.1</ele>
        <time>2023-06-25T08:30:39Z</time>
      </trkpt>
      <trkpt lat="44.27775" lon="3.04836">
        <ele>901.1</ele>
        <time>2023-06-25T08:30:40Z</time>
      </trkpt>
      <trkpt lat="44.27772" lon="3.04839">
        <ele>901.1</ele>
        <time>2023-06-25T08:30:41Z</time>
      </trkpt>
      <trkpt lat="44.27767" lon="3.04847">
        <ele>901.1</ele>
        <time>2023-06-25T08:30:43Z</time>
      </trkpt>
      <trkpt lat="44.27764" lon="3.04851">
        <ele>901.1</ele>
        <time>2023-06-25T08:30:45Z</time>
      </trkpt>
      <trkpt lat="44.27762" lon="3.04854">
        <ele>901.1</ele>
        <time>2023-06-25T08:30:46Z</time>
      </trkpt>
      <trkpt lat="44.2776" lon="3.04858">
        <ele>901.1</ele>
        <time>2023-06-25T08:30:47Z</time>
      </trkpt>
      <trkpt lat="44.27758" lon="3.04861">
        <ele>901.1</ele>
        <time>2023-06-25T08:30:48Z</time>
      </trkpt>
      <trkpt lat="44.27756" lon="3.04865">
        <ele>901.1</ele>
        <time>2023-06-25T08:30:49Z</time>
      </trkpt>
      <trkpt lat="44.27753" lon="3.04868">
        <ele>901.1</ele>
        <time>2023-06-25T08:30:50Z</time>
      </trkpt>
      <trkpt lat="44.2775" lon="3.04873">
        <ele>901.1</ele>
        <time>2023-06-25T08:30:52Z</time>
      </trkpt>
      <trkpt lat="44.27748" lon="3.04876">
        <ele>901.1</ele>
        <time>2023-06-25T08:30:53Z</time>
      </trkpt>
      <trkpt lat="44.27745" lon="3.0488">
        <ele>901.1</ele>
        <time>2023-06-25T08:30:54Z</time>
      </trkpt>
      <trkpt lat="44.27743" lon="3.04884">
        <ele>901.1</ele>
        <time>2023-06-25T08:30:55Z</time>
      </trkpt>
      <trkpt lat="44.27741" lon="3.04887">
        <ele>901.1</ele>
        <time>2023-06-25T08:30:56Z</time>
      </trkpt>
      <trkpt lat="44.27736" lon="3.04893">
        <ele>901.1</ele>
        <time>2023-06-25T08:30:58Z</time>
      </trkpt>
      <trkpt lat="44.27732" lon="3.04898">
        <ele>901.1</ele>
        <time>2023-06-25T08:30:59Z</time>
      </trkpt>
      <trkpt lat="44.2773" lon="3.04901">
        <ele>901.1</ele>
        <time>2023-06-25T08:31:00Z</time>
      </trkpt>
      <trkpt lat="44.27728" lon="3.04904">
        <ele>901.1</ele>
        <time>2023-06-25T08:31:01Z</time>
      </trkpt>
      <trkpt lat="44.27724" lon="3.04909">
        <ele>901.1</ele>
        <time>2023-06-25T08:31:02Z</time>
      </trkpt>
      <trkpt lat="44.27722" lon="3.04912">
        <ele>901.1</ele>
        <time>2023-06-25T08:31:03Z</time>
      </trkpt>
      <trkpt lat="44.27718" lon="3.04918">
        <ele>901.1</ele>
        <time>2023-06-25T08:31:05Z</time>
      </trkpt>
      <trkpt lat="44.27714" lon="3.04926">
        <ele>901.1</ele>
        <time>2023-06-25T08:31:07Z</time>
      </trkpt>
      <trkpt lat="44.27711" lon="3.04932">
        <ele>901.1</ele>
        <time>2023-06-25T08:31:09Z</time>
      </trkpt>
      <trkpt lat="44.27709" lon="3.04935">
        <ele>901.1</ele>
        <time>2023-06-25T08:31:10Z</time>
      </trkpt>
      <trkpt lat="44.27707" lon="3.04939">
        <ele>901.1</ele>
        <time>2023-06-25T08:31:11Z</time>
      </trkpt>
      <trkpt lat="44.27705" lon="3.04942">
        <ele>901.1</ele>
        <time>2023-06-25T08:31:12Z</time>
      </trkpt>
      <trkpt lat="44.27703" lon="3.04946">
        <ele>901.1</ele>
        <time>2023-06-25T08:31:13Z</time>
      </trkpt>
      <trkpt lat="44.27701" lon="3.0495">
        <ele>901.1</ele>
        <time>2023-06-25T08:31:14Z</time>
      </trkpt>
      <trkpt lat="44.277" lon="3.04953">
        <ele>901.1</ele>
        <time>2023-06-25T08:31:16Z</time>
      </trkpt>
      <trkpt lat="44.27701" lon="3.04952">
        <ele>901.1</ele>
        <time>2023-06-25T08:31:17Z</time>
      </trkpt>
      <trkpt lat="44.27701" lon="3.04951">
        <ele>901.1</ele>
        <time>2023-06-25T08:31:18Z</time>
      </trkpt>
      <trkpt lat="44.27701" lon="3.04951">
        <ele>901.1</ele>
        <time>2023-06-25T08:31:20Z</time>
      </trkpt>
      <trkpt lat="44.27701" lon="3.04951">
        <ele>901.1</ele>
        <time>2023-06-25T08:31:21Z</time>
      </trkpt>
      <trkpt lat="44.27701" lon="3.04951">
        <ele>901.1</ele>
        <time>2023-06-25T08:31:23Z</time>
      </trkpt>
      <trkpt lat="44.27701" lon="3.04951">
        <ele>901.1</ele>
        <time>2023-06-25T08:31:24Z</time>
      </trkpt>
      <trkpt lat="44.27701" lon="3.04951">
        <ele>901.1</ele>
        <time>2023-06-25T08:31:25Z</time>
      </trkpt>
      <trkpt lat="44.27701" lon="3.04951">
        <ele>901.1</ele>
        <time>2023-06-25T08:31:26Z</time>
      </trkpt>
      <trkpt lat="44.277" lon="3.04958">
        <ele>901.2</ele>
        <time>2023-06-25T08:31:43Z</time>
      </trkpt>
      <trkpt lat="44.27697" lon="3.04961">
        <ele>901.2</ele>
        <time>2023-06-25T08:31:44Z</time>
      </trkpt>
      <trkpt lat="44.27694" lon="3.04965">
        <ele>901.2</ele>
        <time>2023-06-25T08:31:45Z</time>
      </trkpt>
      <trkpt lat="44.27691" lon="3.04971">
        <ele>901.2</ele>
        <time>2023-06-25T08:31:47Z</time>
      </trkpt>
      <trkpt lat="44.27688" lon="3.04974">
        <ele>901.2</ele>
        <time>2023-06-25T08:31:48Z</time>
      </trkpt>
      <trkpt lat="44.27686" lon="3.04978">
        <ele>901.2</ele>
        <time>2023-06-25T08:31:49Z</time>
      </trkpt>
      <trkpt lat="44.27683" lon="3.04982">
        <ele>901.2</ele>
        <time>2023-06-25T08:31:50Z</time>
      </trkpt>
      <trkpt lat="44.27678" lon="3.04991">
        <ele>901.2</ele>
        <time>2023-06-25T08:31:52Z</time>
      </trkpt>
      <trkpt lat="44.27674" lon="3.04996">
        <ele>901.2</ele>
        <time>2023-06-25T08:31:54Z</time>
      </trkpt>
      <trkpt lat="44.27671" lon="3.04999">
        <ele>901.2</ele>
        <time>2023-06-25T08:31:55Z</time>
      </trkpt>
      <trkpt lat="44.27669" lon="3.05002">
        <ele>901.2</ele>
        <time>2023-06-25T08:31:56Z</time>
      </trkpt>
      <trkpt lat="44.27666" lon="3.05006">
        <ele>901.2</ele>
        <time>2023-06-25T08:31:57Z</time>
      </trkpt>
      <trkpt lat="44.27661" lon="3.05012">
        <ele>901.2</ele>
        <time>2023-06-25T08:31:59Z</time>
      </trkpt>
      <trkpt lat="44.27658" lon="3.05015">
        <ele>901.2</ele>
        <time>2023-06-25T08:32:00Z</time>
      </trkpt>
      <trkpt lat="44.27655" lon="3.05018">
        <ele>901.2</ele>
        <time>2023-06-25T08:32:01Z</time>
      </trkpt>
      <trkpt lat="44.27651" lon="3.05022">
        <ele>901.2</ele>
        <time>2023-06-25T08:32:03Z</time>
      </trkpt>
      <trkpt lat="44.27647" lon="3.05027">
        <ele>901.2</ele>
        <time>2023-06-25T08:32:04Z</time>
      </trkpt>
      <trkpt lat="44.27643" lon="3.05033">
        <ele>901.2</ele>
        <time>2023-06-25T08:32:05Z</time>
      </trkpt>
      <trkpt lat="44.27639" lon="3.05039">
        <ele>901.2</ele>
        <time>2023-06-25T08:32:07Z</time>
      </trkpt>
      <trkpt lat="44.27636" lon="3.05044">
        <ele>901.2</ele>
        <time>2023-06-25T08:32:08Z</time>
      </trkpt>
      <trkpt lat="44.27633" lon="3.05048">
        <ele>901.2</ele>
        <time>2023-06-25T08:32:10Z</time>
      </trkpt>
      <trkpt lat="44.2763" lon="3.05051">
        <ele>901.2</ele>
        <time>2023-06-25T08:32:11Z</time>
      </trkpt>
      <trkpt lat="44.27627" lon="3.05056">
        <ele>901.2</ele>
        <time>2023-06-25T08:32:12Z</time>
      </trkpt>
      <trkpt lat="44.27623" lon="3.05059">
        <ele>901.2</ele>
        <time>2023-06-25T08:32:13Z</time>
      </trkpt>
      <trkpt lat="44.2762" lon="3.05062">
        <ele>901.2</ele>
        <time>2023-06-25T08:32:14Z</time>
      </trkpt>
      <trkpt lat="44.27616" lon="3.05066">
        <ele>901.2</ele>
        <time>2023-06-25T08:32:15Z</time>
      </trkpt>
      <trkpt lat="44.27613" lon="3.05069">
        <ele>901.2</ele>
        <time>2023-06-25T08:32:16Z</time>
      </trkpt>
      <trkpt lat="44.27607" lon="3.05079">
        <ele>901.3</ele>
        <time>2023-06-25T08:32:18Z</time>
      </trkpt>
      <trkpt lat="44.27604" lon="3.05085">
        <ele>901.3</ele>
        <time>2023-06-25T08:32:20Z</time>
      </trkpt>
      <trkpt lat="44.27601" lon="3.05089">
        <ele>901.3</ele>
        <time>2023-06-25T08:32:21Z</time>
      </trkpt>
      <trkpt lat="44.27599" lon="3.05094">
        <ele>901.3</ele>
        <time>2023-06-25T08:32:22Z</time>
      </trkpt>
      <trkpt lat="44.27596" lon="3.05102">
        <ele>901.3</ele>
        <time>2023-06-25T08:32:24Z</time>
      </trkpt>
      <trkpt lat="44.27593" lon="3.05109">
        <ele>901.3</ele>
        <time>2023-06-25T08:32:25Z</time>
      </trkpt>
      <trkpt lat="44.27591" lon="3.05113">
        <ele>901.3</ele>
        <time>2023-06-25T08:32:26Z</time>
      </trkpt>
      <trkpt lat="44.27588" lon="3.05121">
        <ele>901.3</ele>
        <time>2023-06-25T08:32:27Z</time>
      </trkpt>
      <trkpt lat="44.27585" lon="3.05128">
        <ele>901.3</ele>
        <time>2023-06-25T08:32:29Z</time>
      </trkpt>
      <trkpt lat="44.27583" lon="3.05136">
        <ele>901.3</ele>
        <time>2023-06-25T08:32:30Z</time>
      </trkpt>
      <trkpt lat="44.27581" lon="3.05144">
        <ele>901.3</ele>
        <time>2023-06-25T08:32:32Z</time>
      </trkpt>
      <trkpt lat="44.27579" lon="3.05149">
        <ele>901.3</ele>
        <time>2023-06-25T08:32:33Z</time>
      </trkpt>
      <trkpt lat="44.27577" lon="3.05155">
        <ele>901.3</ele>
        <time>2023-06-25T08:32:34Z</time>
      </trkpt>
      <trkpt lat="44.27574" lon="3.05162">
        <ele>901.3</ele>
        <time>2023-06-25T08:32:36Z</time>
      </trkpt>
      <trkpt lat="44.27571" lon="3.05168">
        <ele>901.3</ele>
        <time>2023-06-25T08:32:37Z</time>
      </trkpt>
      <trkpt lat="44.2757" lon="3.05173">
        <ele>901.3</ele>
        <time>2023-06-25T08:32:38Z</time>
      </trkpt>
      <trkpt lat="44.27567" lon="3.05178">
        <ele>901.3</ele>
        <time>2023-06-25T08:32:39Z</time>
      </trkpt>
      <trkpt lat="44.27565" lon="3.05183">
        <ele>901.3</ele>
        <time>2023-06-25T08:32:40Z</time>
      </trkpt>
      <trkpt lat="44.27562" lon="3.05189">
        <ele>901.3</ele>
        <time>2023-06-25T08:32:41Z</time>
      </trkpt>
      <trkpt lat="44.27559" lon="3.05196">
        <ele>901.3</ele>
        <time>2023-06-25T08:32:43Z</time>
      </trkpt>
      <trkpt lat="44.27555" lon="3.05201">
        <ele>901.3</ele>
        <time>2023-06-25T08:32:44Z</time>
      </trkpt>
      <trkpt lat="44.27552" lon="3.05207">
        <ele>901.3</ele>
        <time>2023-06-25T08:32:45Z</time>
      </trkpt>
      <trkpt lat="44.27547" lon="3.05217">
        <ele>901.3</ele>
        <time>2023-06-25T08:32:47Z</time>
      </trkpt>
      <trkpt lat="44.27544" lon="3.05222">
        <ele>901.3</ele>
        <time>2023-06-25T08:32:48Z</time>
      </trkpt>
      <trkpt lat="44.27541" lon="3.05227">
        <ele>901.3</ele>
        <time>2023-06-25T08:32:49Z</time>
      </trkpt>
      <trkpt lat="44.27536" lon="3.05233">
        <ele>901.4</ele>
        <time>2023-06-25T08:32:50Z</time>
      </trkpt>
      <trkpt lat="44.27532" lon="3.05239">
        <ele>901.4</ele>
        <time>2023-06-25T08:32:52Z</time>
      </trkpt>
      <trkpt lat="44.27527" lon="3.05246">
        <ele>901.4</ele>
        <time>2023-06-25T08:32:53Z</time>
      </trkpt>
      <trkpt lat="44.27523" lon="3.0525">
        <ele>901.4</ele>
        <time>2023-06-25T08:32:54Z</time>
      </trkpt>
      <trkpt lat="44.27519" lon="3.05255">
        <ele>901.4</ele>
        <time>2023-06-25T08:32:55Z</time>
      </trkpt>
      <trkpt lat="44.27515" lon="3.0526">
        <ele>901.4</ele>
        <time>2023-06-25T08:32:56Z</time>
      </trkpt>
      <trkpt lat="44.27511" lon="3.05265">
        <ele>901.4</ele>
        <time>2023-06-25T08:32:57Z</time>
      </trkpt>
      <trkpt lat="44.27507" lon="3.0527">
        <ele>901.4</ele>
        <time>2023-06-25T08:32:58Z</time>
      </trkpt>
      <trkpt lat="44.27502" lon="3.05274">
        <ele>901.4</ele>
        <time>2023-06-25T08:32:59Z</time>
      </trkpt>
      <trkpt lat="44.27497" lon="3.05278">
        <ele>901.4</ele>
        <time>2023-06-25T08:33:00Z</time>
      </trkpt>
      <trkpt lat="44.27492" lon="3.05281">
        <ele>901.4</ele>
        <time>2023-06-25T08:33:01Z</time>
      </trkpt>
      <trkpt lat="44.27486" lon="3.05283">
        <ele>901.4</ele>
        <time>2023-06-25T08:33:02Z</time>
      </trkpt>
      <trkpt lat="44.2748" lon="3.05285">
        <ele>901.4</ele>
        <time>2023-06-25T08:33:03Z</time>
      </trkpt>
      <trkpt lat="44.27474" lon="3.05287">
        <ele>901.4</ele>
        <time>2023-06-25T08:33:04Z</time>
      </trkpt>
      <trkpt lat="44.27468" lon="3.05288">
        <ele>901.4</ele>
        <time>2023-06-25T08:33:05Z</time>
      </trkpt>
      <trkpt lat="44.27462" lon="3.0529">
        <ele>901.4</ele>
        <time>2023-06-25T08:33:06Z</time>
      </trkpt>
      <trkpt lat="44.27456" lon="3.05292">
        <ele>901.4</ele>
        <time>2023-06-25T08:33:07Z</time>
      </trkpt>
      <trkpt lat="44.2745" lon="3.05293">
        <ele>901.4</ele>
        <time>2023-06-25T08:33:08Z</time>
      </trkpt>
      <trkpt lat="44.27444" lon="3.05295">
        <ele>901.4</ele>
        <time>2023-06-25T08:33:09Z</time>
      </trkpt>
      <trkpt lat="44.27438" lon="3.05297">
        <ele>901.4</ele>
        <time>2023-06-25T08:33:10Z</time>
      </trkpt>
      <trkpt lat="44.27432" lon="3.053">
        <ele>901.4</ele>
        <time>2023-06-25T08:33:11Z</time>
      </trkpt>
      <trkpt lat="44.27426" lon="3.05302">
        <ele>901.4</ele>
        <time>2023-06-25T08:33:12Z</time>
      </trkpt>
      <trkpt lat="44.2742" lon="3.05304">
        <ele>901.5</ele>
        <time>2023-06-25T08:33:13Z</time>
      </trkpt>
      <trkpt lat="44.27415" lon="3.05306">
        <ele>901.5</ele>
        <time>2023-06-25T08:33:14Z</time>
      </trkpt>
      <trkpt lat="44.27409" lon="3.05308">
        <ele>901.5</ele>
        <time>2023-06-25T08:33:15Z</time>
      </trkpt>
      <trkpt lat="44.27404" lon="3.05309">
        <ele>901.5</ele>
        <time>2023-06-25T08:33:16Z</time>
      </trkpt>
      <trkpt lat="44.27398" lon="3.05311">
        <ele>901.5</ele>
        <time>2023-06-25T08:33:17Z</time>
      </trkpt>
      <trkpt lat="44.27392" lon="3.05312">
        <ele>901.5</ele>
        <time>2023-06-25T08:33:18Z</time>
      </trkpt>
      <trkpt lat="44.27387" lon="3.05313">
        <ele>901.5</ele>
        <time>2023-06-25T08:33:19Z</time>
      </trkpt>
      <trkpt lat="44.27381" lon="3.05314">
        <ele>901.5</ele>
        <time>2023-06-25T08:33:20Z</time>
      </trkpt>
      <trkpt lat="44.27376" lon="3.05316">
        <ele>901.5</ele>
        <time>2023-06-25T08:33:21Z</time>
      </trkpt>
      <trkpt lat="44.2737" lon="3.05317">
        <ele>901.5</ele>
        <time>2023-06-25T08:33:22Z</time>
      </trkpt>
      <trkpt lat="44.27366" lon="3.05317">
        <ele>901.5</ele>
        <time>2023-06-25T08:33:23Z</time>
      </trkpt>
      <trkpt lat="44.27362" lon="3.05317">
        <ele>901.5</ele>
        <time>2023-06-25T08:33:24Z</time>
      </trkpt>
      <trkpt lat="44.27358" lon="3.05317">
        <ele>901.5</ele>
        <time>2023-06-25T08:33:25Z</time>
      </trkpt>
      <trkpt lat="44.27357" lon="3.05317">
        <ele>901.5</ele>
        <time>2023-06-25T08:33:26Z</time>
      </trkpt>
      <trkpt lat="44.27353" lon="3.05314">
        <ele>901.5</ele>
        <time>2023-06-25T08:33:27Z</time>
      </trkpt>
      <trkpt lat="44.27352" lon="3.0531">
        <ele>902.2</ele>
        <time>2023-06-25T08:33:28Z</time>
      </trkpt>
      <trkpt lat="44.2735" lon="3.05306">
        <ele>902.6</ele>
        <time>2023-06-25T08:33:29Z</time>
      </trkpt>
      <trkpt lat="44.27351" lon="3.05301">
        <ele>903</ele>
        <time>2023-06-25T08:33:30Z</time>
      </trkpt>
      <trkpt lat="44.27351" lon="3.053">
        <ele>903.1</ele>
        <time>2023-06-25T08:33:31Z</time>
      </trkpt>
      <trkpt lat="44.27351" lon="3.05293">
        <ele>903.5</ele>
        <time>2023-06-25T08:33:33Z</time>
      </trkpt>
      <trkpt lat="44.27351" lon="3.05287">
        <ele>903.8</ele>
        <time>2023-06-25T08:33:34Z</time>
      </trkpt>
      <trkpt lat="44.27351" lon="3.05285">
        <ele>903.9</ele>
        <time>2023-06-25T08:33:35Z</time>
      </trkpt>
      <trkpt lat="44.27352" lon="3.05281">
        <ele>904.1</ele>
        <time>2023-06-25T08:33:36Z</time>
      </trkpt>
      <trkpt lat="44.27352" lon="3.05275">
        <ele>904.3</ele>
        <time>2023-06-25T08:33:38Z</time>
      </trkpt>
      <trkpt lat="44.27352" lon="3.0527">
        <ele>904.4</ele>
        <time>2023-06-25T08:33:39Z</time>
      </trkpt>
      <trkpt lat="44.27352" lon="3.05264">
        <ele>904.6</ele>
        <time>2023-06-25T08:33:41Z</time>
      </trkpt>
      <trkpt lat="44.27352" lon="3.05259">
        <ele>904.7</ele>
        <time>2023-06-25T08:33:42Z</time>
      </trkpt>
      <trkpt lat="44.27351" lon="3.05255">
        <ele>904.9</ele>
        <time>2023-06-25T08:33:43Z</time>
      </trkpt>
      <trkpt lat="44.27351" lon="3.0525">
        <ele>905.1</ele>
        <time>2023-06-25T08:33:44Z</time>
      </trkpt>
      <trkpt lat="44.2735" lon="3.05245">
        <ele>905.2</ele>
        <time>2023-06-25T08:33:46Z</time>
      </trkpt>
      <trkpt lat="44.2735" lon="3.0524">
        <ele>905.4</ele>
        <time>2023-06-25T08:33:47Z</time>
      </trkpt>
      <trkpt lat="44.27349" lon="3.05236">
        <ele>905.5</ele>
        <time>2023-06-25T08:33:48Z</time>
      </trkpt>
      <trkpt lat="44.27347" lon="3.05232">
        <ele>905.6</ele>
        <time>2023-06-25T08:33:49Z</time>
      </trkpt>
      <trkpt lat="44.27346" lon="3.05228">
        <ele>905.7</ele>
        <time>2023-06-25T08:33:50Z</time>
      </trkpt>
      <trkpt lat="44.27345" lon="3.05225">
        <ele>905.9</ele>
        <time>2023-06-25T08:33:51Z</time>
      </trkpt>
      <trkpt lat="44.27344" lon="3.0522">
        <ele>906</ele>
        <time>2023-06-25T08:33:52Z</time>
      </trkpt>
      <trkpt lat="44.27342" lon="3.05215">
        <ele>906.1</ele>
        <time>2023-06-25T08:33:54Z</time>
      </trkpt>
      <trkpt lat="44.27341" lon="3.05212">
        <ele>906.3</ele>
        <time>2023-06-25T08:33:55Z</time>
      </trkpt>
      <trkpt lat="44.2734" lon="3.05209">
        <ele>906.4</ele>
        <time>2023-06-25T08:33:56Z</time>
      </trkpt>
      <trkpt lat="44.27337" lon="3.05203">
        <ele>906.5</ele>
        <time>2023-06-25T08:33:58Z</time>
      </trkpt>
      <trkpt lat="44.27336" lon="3.05199">
        <ele>906.7</ele>
        <time>2023-06-25T08:33:59Z</time>
      </trkpt>
      <trkpt lat="44.27334" lon="3.05193">
        <ele>906.9</ele>
        <time>2023-06-25T08:34:01Z</time>
      </trkpt>
      <trkpt lat="44.27332" lon="3.05188">
        <ele>907</ele>
        <time>2023-06-25T08:34:02Z</time>
      </trkpt>
      <trkpt lat="44.27331" lon="3.05184">
        <ele>907.2</ele>
        <time>2023-06-25T08:34:03Z</time>
      </trkpt>
      <trkpt lat="44.27328" lon="3.05178">
        <ele>907.3</ele>
        <time>2023-06-25T08:34:05Z</time>
      </trkpt>
      <trkpt lat="44.27326" lon="3.05175">
        <ele>907.3</ele>
        <time>2023-06-25T08:34:06Z</time>
      </trkpt>
      <trkpt lat="44.27324" lon="3.05171">
        <ele>907.4</ele>
        <time>2023-06-25T08:34:07Z</time>
      </trkpt>
      <trkpt lat="44.27321" lon="3.05165">
        <ele>907.4</ele>
        <time>2023-06-25T08:34:09Z</time>
      </trkpt>
      <trkpt lat="44.27317" lon="3.0516">
        <ele>907.4</ele>
        <time>2023-06-25T08:34:11Z</time>
      </trkpt>
      <trkpt lat="44.27314" lon="3.05157">
        <ele>907.3</ele>
        <time>2023-06-25T08:34:12Z</time>
      </trkpt>
      <trkpt lat="44.27311" lon="3.05154">
        <ele>907.3</ele>
        <time>2023-06-25T08:34:13Z</time>
      </trkpt>
      <trkpt lat="44.27307" lon="3.0515">
        <ele>907.2</ele>
        <time>2023-06-25T08:34:14Z</time>
      </trkpt>
      <trkpt lat="44.27303" lon="3.05146">
        <ele>907.1</ele>
        <time>2023-06-25T08:34:15Z</time>
      </trkpt>
      <trkpt lat="44.27299" lon="3.05141">
        <ele>907.1</ele>
        <time>2023-06-25T08:34:17Z</time>
      </trkpt>
      <trkpt lat="44.27296" lon="3.05135">
        <ele>907</ele>
        <time>2023-06-25T08:34:18Z</time>
      </trkpt>
      <trkpt lat="44.27292" lon="3.05131">
        <ele>907</ele>
        <time>2023-06-25T08:34:19Z</time>
      </trkpt>
      <trkpt lat="44.27289" lon="3.05126">
        <ele>907</ele>
        <time>2023-06-25T08:34:20Z</time>
      </trkpt>
      <trkpt lat="44.27285" lon="3.0512">
        <ele>907.2</ele>
        <time>2023-06-25T08:34:21Z</time>
      </trkpt>
      <trkpt lat="44.27281" lon="3.05115">
        <ele>907.4</ele>
        <time>2023-06-25T08:34:22Z</time>
      </trkpt>
      <trkpt lat="44.27278" lon="3.0511">
        <ele>907.7</ele>
        <time>2023-06-25T08:34:23Z</time>
      </trkpt>
      <trkpt lat="44.27274" lon="3.05106">
        <ele>908.1</ele>
        <time>2023-06-25T08:34:24Z</time>
      </trkpt>
      <trkpt lat="44.27271" lon="3.05103">
        <ele>908.4</ele>
        <time>2023-06-25T08:34:25Z</time>
      </trkpt>
      <trkpt lat="44.27271" lon="3.051">
        <ele>908.7</ele>
        <time>2023-06-25T08:34:26Z</time>
      </trkpt>
      <trkpt lat="44.27268" lon="3.05095">
        <ele>910.3</ele>
        <time>2023-06-25T08:34:28Z</time>
      </trkpt>
      <trkpt lat="44.27268" lon="3.05091">
        <ele>910.8</ele>
        <time>2023-06-25T08:34:29Z</time>
      </trkpt>
      <trkpt lat="44.27268" lon="3.0509">
        <ele>911</ele>
        <time>2023-06-25T08:34:30Z</time>
      </trkpt>
      <trkpt lat="44.27272" lon="3.05087">
        <ele>911.7</ele>
        <time>2023-06-25T08:34:31Z</time>
      </trkpt>
      <trkpt lat="44.27274" lon="3.05086">
        <ele>912</ele>
        <time>2023-06-25T08:34:32Z</time>
      </trkpt>
      <trkpt lat="44.27276" lon="3.05084">
        <ele>912.4</ele>
        <time>2023-06-25T08:34:33Z</time>
      </trkpt>
      <trkpt lat="44.2728" lon="3.05083">
        <ele>912.9</ele>
        <time>2023-06-25T08:34:34Z</time>
      </trkpt>
      <trkpt lat="44.27282" lon="3.05082">
        <ele>913.3</ele>
        <time>2023-06-25T08:34:36Z</time>
      </trkpt>
      <trkpt lat="44.27285" lon="3.05081">
        <ele>913.6</ele>
        <time>2023-06-25T08:34:37Z</time>
      </trkpt>
      <trkpt lat="44.27288" lon="3.05079">
        <ele>914</ele>
        <time>2023-06-25T08:34:38Z</time>
      </trkpt>
      <trkpt lat="44.27291" lon="3.05078">
        <ele>914.4</ele>
        <time>2023-06-25T08:34:39Z</time>
      </trkpt>
      <trkpt lat="44.27295" lon="3.05077">
        <ele>914.8</ele>
        <time>2023-06-25T08:34:40Z</time>
      </trkpt>
      <trkpt lat="44.27296" lon="3.05077">
        <ele>915</ele>
        <time>2023-06-25T08:34:41Z</time>
      </trkpt>
      <trkpt lat="44.27298" lon="3.05075">
        <ele>915.2</ele>
        <time>2023-06-25T08:34:42Z</time>
      </trkpt>
      <trkpt lat="44.27301" lon="3.05074">
        <ele>915.5</ele>
        <time>2023-06-25T08:34:44Z</time>
      </trkpt>
      <trkpt lat="44.27305" lon="3.05072">
        <ele>915.9</ele>
        <time>2023-06-25T08:34:45Z</time>
      </trkpt>
      <trkpt lat="44.27306" lon="3.05072">
        <ele>916.1</ele>
        <time>2023-06-25T08:34:46Z</time>
      </trkpt>
      <trkpt lat="44.2731" lon="3.0507">
        <ele>916.5</ele>
        <time>2023-06-25T08:34:47Z</time>
      </trkpt>
      <trkpt lat="44.27313" lon="3.05068">
        <ele>916.9</ele>
        <time>2023-06-25T08:34:48Z</time>
      </trkpt>
      <trkpt lat="44.27318" lon="3.05065">
        <ele>917.5</ele>
        <time>2023-06-25T08:34:50Z</time>
      </trkpt>
      <trkpt lat="44.27321" lon="3.05064">
        <ele>917.7</ele>
        <time>2023-06-25T08:34:51Z</time>
      </trkpt>
      <trkpt lat="44.27324" lon="3.05062">
        <ele>917.8</ele>
        <time>2023-06-25T08:34:52Z</time>
      </trkpt>
      <trkpt lat="44.27326" lon="3.05059">
        <ele>917.9</ele>
        <time>2023-06-25T08:34:53Z</time>
      </trkpt>
      <trkpt lat="44.27329" lon="3.05056">
        <ele>918.1</ele>
        <time>2023-06-25T08:34:55Z</time>
      </trkpt>
      <trkpt lat="44.27331" lon="3.05053">
        <ele>918.2</ele>
        <time>2023-06-25T08:34:56Z</time>
      </trkpt>
      <trkpt lat="44.27333" lon="3.05048">
        <ele>918.4</ele>
        <time>2023-06-25T08:34:57Z</time>
      </trkpt>
      <trkpt lat="44.27334" lon="3.05044">
        <ele>918.5</ele>
        <time>2023-06-25T08:34:58Z</time>
      </trkpt>
      <trkpt lat="44.27335" lon="3.05037">
        <ele>918.7</ele>
        <time>2023-06-25T08:35:00Z</time>
      </trkpt>
      <trkpt lat="44.27336" lon="3.05033">
        <ele>918.8</ele>
        <time>2023-06-25T08:35:01Z</time>
      </trkpt>
      <trkpt lat="44.27337" lon="3.05027">
        <ele>919</ele>
        <time>2023-06-25T08:35:02Z</time>
      </trkpt>
      <trkpt lat="44.27339" lon="3.05022">
        <ele>919.2</ele>
        <time>2023-06-25T08:35:03Z</time>
      </trkpt>
      <trkpt lat="44.27339" lon="3.05017">
        <ele>919.3</ele>
        <time>2023-06-25T08:35:04Z</time>
      </trkpt>
      <trkpt lat="44.27341" lon="3.0501">
        <ele>919.5</ele>
        <time>2023-06-25T08:35:06Z</time>
      </trkpt>
      <trkpt lat="44.27341" lon="3.05006">
        <ele>919.6</ele>
        <time>2023-06-25T08:35:07Z</time>
      </trkpt>
      <trkpt lat="44.27341" lon="3.05005">
        <ele>919.7</ele>
        <time>2023-06-25T08:35:08Z</time>
      </trkpt>
      <trkpt lat="44.27341" lon="3.05006">
        <ele>919.7</ele>
        <time>2023-06-25T08:35:09Z</time>
      </trkpt>
      <trkpt lat="44.27342" lon="3.05007">
        <ele>919.7</ele>
        <time>2023-06-25T08:35:11Z</time>
      </trkpt>
      <trkpt lat="44.27342" lon="3.05007">
        <ele>919.7</ele>
        <time>2023-06-25T08:35:12Z</time>
      </trkpt>
      <trkpt lat="44.27342" lon="3.05007">
        <ele>919.7</ele>
        <time>2023-06-25T08:35:13Z</time>
      </trkpt>
      <trkpt lat="44.27342" lon="3.05007">
        <ele>919.7</ele>
        <time>2023-06-25T08:35:14Z</time>
      </trkpt>
      <trkpt lat="44.27342" lon="3.05007">
        <ele>919.7</ele>
        <time>2023-06-25T08:35:15Z</time>
      </trkpt>
      <trkpt lat="44.27342" lon="3.05007">
        <ele>919.7</ele>
        <time>2023-06-25T08:35:16Z</time>
      </trkpt>
      <trkpt lat="44.27342" lon="3.05007">
        <ele>919.7</ele>
        <time>2023-06-25T08:35:18Z</time>
      </trkpt>
      <trkpt lat="44.27344" lon="3.05001">
        <ele>919.9</ele>
        <time>2023-06-25T08:35:38Z</time>
      </trkpt>
      <trkpt lat="44.27346" lon="3.04994">
        <ele>920.2</ele>
        <time>2023-06-25T08:35:40Z</time>
      </trkpt>
      <trkpt lat="44.27347" lon="3.04989">
        <ele>920.3</ele>
        <time>2023-06-25T08:35:41Z</time>
      </trkpt>
      <trkpt lat="44.27348" lon="3.04985">
        <ele>920.4</ele>
        <time>2023-06-25T08:35:42Z</time>
      </trkpt>
      <trkpt lat="44.2735" lon="3.04977">
        <ele>920.7</ele>
        <time>2023-06-25T08:35:44Z</time>
      </trkpt>
      <trkpt lat="44.27351" lon="3.04972">
        <ele>920.8</ele>
        <time>2023-06-25T08:35:45Z</time>
      </trkpt>
      <trkpt lat="44.27353" lon="3.04967">
        <ele>921</ele>
        <time>2023-06-25T08:35:46Z</time>
      </trkpt>
      <trkpt lat="44.27355" lon="3.04961">
        <ele>921.2</ele>
        <time>2023-06-25T08:35:47Z</time>
      </trkpt>
      <trkpt lat="44.27356" lon="3.04957">
        <ele>921.3</ele>
        <time>2023-06-25T08:35:48Z</time>
      </trkpt>
      <trkpt lat="44.27359" lon="3.04949">
        <ele>921.6</ele>
        <time>2023-06-25T08:35:50Z</time>
      </trkpt>
      <trkpt lat="44.27361" lon="3.04942">
        <ele>921.8</ele>
        <time>2023-06-25T08:35:52Z</time>
      </trkpt>
      <trkpt lat="44.27364" lon="3.04934">
        <ele>922.1</ele>
        <time>2023-06-25T08:35:53Z</time>
      </trkpt>
      <trkpt lat="44.27367" lon="3.04929">
        <ele>922.3</ele>
        <time>2023-06-25T08:35:55Z</time>
      </trkpt>
      <trkpt lat="44.27368" lon="3.04924">
        <ele>922.4</ele>
        <time>2023-06-25T08:35:56Z</time>
      </trkpt>
      <trkpt lat="44.27369" lon="3.0492">
        <ele>922.5</ele>
        <time>2023-06-25T08:35:57Z</time>
      </trkpt>
      <trkpt lat="44.27371" lon="3.04916">
        <ele>922.7</ele>
        <time>2023-06-25T08:35:58Z</time>
      </trkpt>
      <trkpt lat="44.27374" lon="3.04906">
        <ele>923</ele>
        <time>2023-06-25T08:36:00Z</time>
      </trkpt>
      <trkpt lat="44.27376" lon="3.04903">
        <ele>923.1</ele>
        <time>2023-06-25T08:36:01Z</time>
      </trkpt>
      <trkpt lat="44.27379" lon="3.04896">
        <ele>923.3</ele>
        <time>2023-06-25T08:36:03Z</time>
      </trkpt>
      <trkpt lat="44.27382" lon="3.04889">
        <ele>923.6</ele>
        <time>2023-06-25T08:36:05Z</time>
      </trkpt>
      <trkpt lat="44.27384" lon="3.04885">
        <ele>923.7</ele>
        <time>2023-06-25T08:36:06Z</time>
      </trkpt>
      <trkpt lat="44.27388" lon="3.04879">
        <ele>923.9</ele>
        <time>2023-06-25T08:36:08Z</time>
      </trkpt>
      <trkpt lat="44.2739" lon="3.04875">
        <ele>924.1</ele>
        <time>2023-06-25T08:36:09Z</time>
      </trkpt>
      <trkpt lat="44.27392" lon="3.04872">
        <ele>924.2</ele>
        <time>2023-06-25T08:36:10Z</time>
      </trkpt>
      <trkpt lat="44.27395" lon="3.04867">
        <ele>924.4</ele>
        <time>2023-06-25T08:36:12Z</time>
      </trkpt>
      <trkpt lat="44.27398" lon="3.04863">
        <ele>924.6</ele>
        <time>2023-06-25T08:36:13Z</time>
      </trkpt>
      <trkpt lat="44.274" lon="3.04857">
        <ele>924.7</ele>
        <time>2023-06-25T08:36:14Z</time>
      </trkpt>
      <trkpt lat="44.27402" lon="3.04853">
        <ele>924.9</ele>
        <time>2023-06-25T08:36:15Z</time>
      </trkpt>
      <trkpt lat="44.27404" lon="3.04848">
        <ele>925.1</ele>
        <time>2023-06-25T08:36:16Z</time>
      </trkpt>
      <trkpt lat="44.27406" lon="3.04842">
        <ele>925.3</ele>
        <time>2023-06-25T08:36:17Z</time>
      </trkpt>
      <trkpt lat="44.27408" lon="3.04834">
        <ele>925.5</ele>
        <time>2023-06-25T08:36:19Z</time>
      </trkpt>
      <trkpt lat="44.27411" lon="3.04828">
        <ele>925.7</ele>
        <time>2023-06-25T08:36:20Z</time>
      </trkpt>
      <trkpt lat="44.27413" lon="3.04819">
        <ele>926</ele>
        <time>2023-06-25T08:36:22Z</time>
      </trkpt>
      <trkpt lat="44.27416" lon="3.04813">
        <ele>926.2</ele>
        <time>2023-06-25T08:36:23Z</time>
      </trkpt>
      <trkpt lat="44.27418" lon="3.04807">
        <ele>926.4</ele>
        <time>2023-06-25T08:36:24Z</time>
      </trkpt>
      <trkpt lat="44.27422" lon="3.04799">
        <ele>926.7</ele>
        <time>2023-06-25T08:36:26Z</time>
      </trkpt>
      <trkpt lat="44.27425" lon="3.04791">
        <ele>926.9</ele>
        <time>2023-06-25T08:36:27Z</time>
      </trkpt>
      <trkpt lat="44.27428" lon="3.04786">
        <ele>927.1</ele>
        <time>2023-06-25T08:36:28Z</time>
      </trkpt>
      <trkpt lat="44.2743" lon="3.0478">
        <ele>927.3</ele>
        <time>2023-06-25T08:36:29Z</time>
      </trkpt>
      <trkpt lat="44.27433" lon="3.04773">
        <ele>927.5</ele>
        <time>2023-06-25T08:36:30Z</time>
      </trkpt>
      <trkpt lat="44.27435" lon="3.04767">
        <ele>927.7</ele>
        <time>2023-06-25T08:36:31Z</time>
      </trkpt>
      <trkpt lat="44.27438" lon="3.04761">
        <ele>927.9</ele>
        <time>2023-06-25T08:36:32Z</time>
      </trkpt>
      <trkpt lat="44.2744" lon="3.04754">
        <ele>928.2</ele>
        <time>2023-06-25T08:36:33Z</time>
      </trkpt>
      <trkpt lat="44.27442" lon="3.04748">
        <ele>928.4</ele>
        <time>2023-06-25T08:36:34Z</time>
      </trkpt>
      <trkpt lat="44.27445" lon="3.04742">
        <ele>928.6</ele>
        <time>2023-06-25T08:36:35Z</time>
      </trkpt>
      <trkpt lat="44.27447" lon="3.04736">
        <ele>928.8</ele>
        <time>2023-06-25T08:36:36Z</time>
      </trkpt>
      <trkpt lat="44.27449" lon="3.04729">
        <ele>929</ele>
        <time>2023-06-25T08:36:37Z</time>
      </trkpt>
      <trkpt lat="44.27452" lon="3.04723">
        <ele>929.2</ele>
        <time>2023-06-25T08:36:38Z</time>
      </trkpt>
      <trkpt lat="44.27454" lon="3.04717">
        <ele>929.4</ele>
        <time>2023-06-25T08:36:39Z</time>
      </trkpt>
      <trkpt lat="44.27456" lon="3.04712">
        <ele>929.6</ele>
        <time>2023-06-25T08:36:40Z</time>
      </trkpt>
      <trkpt lat="44.27458" lon="3.04706">
        <ele>929.8</ele>
        <time>2023-06-25T08:36:41Z</time>
      </trkpt>
      <trkpt lat="44.2746" lon="3.047">
        <ele>930</ele>
        <time>2023-06-25T08:36:42Z</time>
      </trkpt>
      <trkpt lat="44.27462" lon="3.04693">
        <ele>930.1</ele>
        <time>2023-06-25T08:36:43Z</time>
      </trkpt>
      <trkpt lat="44.27464" lon="3.04687">
        <ele>930.4</ele>
        <time>2023-06-25T08:36:44Z</time>
      </trkpt>
      <trkpt lat="44.27465" lon="3.0468">
        <ele>930.6</ele>
        <time>2023-06-25T08:36:45Z</time>
      </trkpt>
      <trkpt lat="44.27466" lon="3.04673">
        <ele>930.8</ele>
        <time>2023-06-25T08:36:46Z</time>
      </trkpt>
      <trkpt lat="44.27466" lon="3.04666">
        <ele>931</ele>
        <time>2023-06-25T08:36:47Z</time>
      </trkpt>
      <trkpt lat="44.27466" lon="3.04659">
        <ele>931.2</ele>
        <time>2023-06-25T08:36:48Z</time>
      </trkpt>
      <trkpt lat="44.27465" lon="3.04652">
        <ele>931.4</ele>
        <time>2023-06-25T08:36:49Z</time>
      </trkpt>
      <trkpt lat="44.27465" lon="3.04645">
        <ele>931.6</ele>
        <time>2023-06-25T08:36:50Z</time>
      </trkpt>
      <trkpt lat="44.27464" lon="3.0464">
        <ele>931.7</ele>
        <time>2023-06-25T08:36:51Z</time>
      </trkpt>
      <trkpt lat="44.27464" lon="3.04636">
        <ele>931.8</ele>
        <time>2023-06-25T08:36:52Z</time>
      </trkpt>
      <trkpt lat="44.27463" lon="3.0463">
        <ele>932</ele>
        <time>2023-06-25T08:36:53Z</time>
      </trkpt>
      <trkpt lat="44.27462" lon="3.04624">
        <ele>932.2</ele>
        <time>2023-06-25T08:36:54Z</time>
      </trkpt>
      <trkpt lat="44.27461" lon="3.04618">
        <ele>932.4</ele>
        <time>2023-06-25T08:36:55Z</time>
      </trkpt>
      <trkpt lat="44.2746" lon="3.04613">
        <ele>932.5</ele>
        <time>2023-06-25T08:36:56Z</time>
      </trkpt>
      <trkpt lat="44.2746" lon="3.04611">
        <ele>932.6</ele>
        <time>2023-06-25T08:36:57Z</time>
      </trkpt>
      <trkpt lat="44.27459" lon="3.04604">
        <ele>932.8</ele>
        <time>2023-06-25T08:36:58Z</time>
      </trkpt>
      <trkpt lat="44.27458" lon="3.046">
        <ele>932.9</ele>
        <time>2023-06-25T08:36:59Z</time>
      </trkpt>
      <trkpt lat="44.27457" lon="3.04594">
        <ele>933.1</ele>
        <time>2023-06-25T08:37:01Z</time>
      </trkpt>
      <trkpt lat="44.27457" lon="3.04586">
        <ele>933.3</ele>
        <time>2023-06-25T08:37:03Z</time>
      </trkpt>
      <trkpt lat="44.27456" lon="3.04581">
        <ele>933.5</ele>
        <time>2023-06-25T08:37:04Z</time>
      </trkpt>
      <trkpt lat="44.27456" lon="3.04575">
        <ele>933.6</ele>
        <time>2023-06-25T08:37:05Z</time>
      </trkpt>
      <trkpt lat="44.27456" lon="3.04571">
        <ele>933.8</ele>
        <time>2023-06-25T08:37:06Z</time>
      </trkpt>
      <trkpt lat="44.27456" lon="3.04563">
        <ele>934</ele>
        <time>2023-06-25T08:37:08Z</time>
      </trkpt>
      <trkpt lat="44.27456" lon="3.04558">
        <ele>934.1</ele>
        <time>2023-06-25T08:37:09Z</time>
      </trkpt>
      <trkpt lat="44.27456" lon="3.04553">
        <ele>934.3</ele>
        <time>2023-06-25T08:37:10Z</time>
      </trkpt>
      <trkpt lat="44.27456" lon="3.04549">
        <ele>934.4</ele>
        <time>2023-06-25T08:37:11Z</time>
      </trkpt>
      <trkpt lat="44.27456" lon="3.04541">
        <ele>934.6</ele>
        <time>2023-06-25T08:37:13Z</time>
      </trkpt>
      <trkpt lat="44.27457" lon="3.04534">
        <ele>934.8</ele>
        <time>2023-06-25T08:37:15Z</time>
      </trkpt>
      <trkpt lat="44.27458" lon="3.04529">
        <ele>935</ele>
        <time>2023-06-25T08:37:16Z</time>
      </trkpt>
      <trkpt lat="44.27458" lon="3.04524">
        <ele>935.1</ele>
        <time>2023-06-25T08:37:17Z</time>
      </trkpt>
      <trkpt lat="44.27458" lon="3.0452">
        <ele>935.3</ele>
        <time>2023-06-25T08:37:18Z</time>
      </trkpt>
      <trkpt lat="44.2746" lon="3.04512">
        <ele>935.5</ele>
        <time>2023-06-25T08:37:20Z</time>
      </trkpt>
      <trkpt lat="44.27461" lon="3.04506">
        <ele>935.7</ele>
        <time>2023-06-25T08:37:22Z</time>
      </trkpt>
      <trkpt lat="44.27462" lon="3.04501">
        <ele>935.8</ele>
        <time>2023-06-25T08:37:23Z</time>
      </trkpt>
      <trkpt lat="44.27463" lon="3.04497">
        <ele>936</ele>
        <time>2023-06-25T08:37:24Z</time>
      </trkpt>
      <trkpt lat="44.27463" lon="3.04493">
        <ele>936.1</ele>
        <time>2023-06-25T08:37:25Z</time>
      </trkpt>
      <trkpt lat="44.27464" lon="3.04489">
        <ele>936.2</ele>
        <time>2023-06-25T08:37:26Z</time>
      </trkpt>
      <trkpt lat="44.27465" lon="3.04484">
        <ele>936.3</ele>
        <time>2023-06-25T08:37:28Z</time>
      </trkpt>
      <trkpt lat="44.27466" lon="3.0448">
        <ele>936.5</ele>
        <time>2023-06-25T08:37:29Z</time>
      </trkpt>
      <trkpt lat="44.27467" lon="3.04476">
        <ele>936.6</ele>
        <time>2023-06-25T08:37:30Z</time>
      </trkpt>
      <trkpt lat="44.27468" lon="3.04469">
        <ele>936.8</ele>
        <time>2023-06-25T08:37:32Z</time>
      </trkpt>
      <trkpt lat="44.27469" lon="3.04464">
        <ele>936.9</ele>
        <time>2023-06-25T08:37:33Z</time>
      </trkpt>
      <trkpt lat="44.2747" lon="3.04455">
        <ele>937.2</ele>
        <time>2023-06-25T08:37:35Z</time>
      </trkpt>
      <trkpt lat="44.27471" lon="3.04449">
        <ele>937.4</ele>
        <time>2023-06-25T08:37:37Z</time>
      </trkpt>
      <trkpt lat="44.27472" lon="3.04445">
        <ele>937.5</ele>
        <time>2023-06-25T08:37:38Z</time>
      </trkpt>
      <trkpt lat="44.27473" lon="3.04441">
        <ele>937.6</ele>
        <time>2023-06-25T08:37:39Z</time>
      </trkpt>
      <trkpt lat="44.27473" lon="3.04436">
        <ele>937.8</ele>
        <time>2023-06-25T08:37:40Z</time>
      </trkpt>
      <trkpt lat="44.27474" lon="3.04432">
        <ele>937.9</ele>
        <time>2023-06-25T08:37:42Z</time>
      </trkpt>
      <trkpt lat="44.27475" lon="3.04428">
        <ele>938</ele>
        <time>2023-06-25T08:37:43Z</time>
      </trkpt>
      <trkpt lat="44.27477" lon="3.04424">
        <ele>938.1</ele>
        <time>2023-06-25T08:37:44Z</time>
      </trkpt>
      <trkpt lat="44.27477" lon="3.04421">
        <ele>938.3</ele>
        <time>2023-06-25T08:37:45Z</time>
      </trkpt>
      <trkpt lat="44.27478" lon="3.04414">
        <ele>938.5</ele>
        <time>2023-06-25T08:37:47Z</time>
      </trkpt>
      <trkpt lat="44.27479" lon="3.0441">
        <ele>938.6</ele>
        <time>2023-06-25T08:37:48Z</time>
      </trkpt>
      <trkpt lat="44.27479" lon="3.04406">
        <ele>938.7</ele>
        <time>2023-06-25T08:37:49Z</time>
      </trkpt>
      <trkpt lat="44.2748" lon="3.04399">
        <ele>938.9</ele>
        <time>2023-06-25T08:37:51Z</time>
      </trkpt>
      <trkpt lat="44.27482" lon="3.04393">
        <ele>939.1</ele>
        <time>2023-06-25T08:37:52Z</time>
      </trkpt>
      <trkpt lat="44.27482" lon="3.04391">
        <ele>939.1</ele>
        <time>2023-06-25T08:37:53Z</time>
      </trkpt>
      <trkpt lat="44.27483" lon="3.04382">
        <ele>939.4</ele>
        <time>2023-06-25T08:37:55Z</time>
      </trkpt>
      <trkpt lat="44.27484" lon="3.04378">
        <ele>939.5</ele>
        <time>2023-06-25T08:37:57Z</time>
      </trkpt>
      <trkpt lat="44.27485" lon="3.04374">
        <ele>939.6</ele>
        <time>2023-06-25T08:37:58Z</time>
      </trkpt>
      <trkpt lat="44.27485" lon="3.0437">
        <ele>939.8</ele>
        <time>2023-06-25T08:37:59Z</time>
      </trkpt>
      <trkpt lat="44.27486" lon="3.04365">
        <ele>939.9</ele>
        <time>2023-06-25T08:38:00Z</time>
      </trkpt>
      <trkpt lat="44.27487" lon="3.04361">
        <ele>940</ele>
        <time>2023-06-25T08:38:01Z</time>
      </trkpt>
      <trkpt lat="44.27488" lon="3.04357">
        <ele>940.2</ele>
        <time>2023-06-25T08:38:02Z</time>
      </trkpt>
      <trkpt lat="44.27489" lon="3.0435">
        <ele>940.4</ele>
        <time>2023-06-25T08:38:04Z</time>
      </trkpt>
      <trkpt lat="44.27489" lon="3.04346">
        <ele>940.5</ele>
        <time>2023-06-25T08:38:05Z</time>
      </trkpt>
      <trkpt lat="44.27491" lon="3.04339">
        <ele>940.7</ele>
        <time>2023-06-25T08:38:07Z</time>
      </trkpt>
      <trkpt lat="44.27491" lon="3.04334">
        <ele>940.8</ele>
        <time>2023-06-25T08:38:08Z</time>
      </trkpt>
      <trkpt lat="44.27493" lon="3.04329">
        <ele>941</ele>
        <time>2023-06-25T08:38:10Z</time>
      </trkpt>
      <trkpt lat="44.27494" lon="3.04325">
        <ele>941.1</ele>
        <time>2023-06-25T08:38:11Z</time>
      </trkpt>
      <trkpt lat="44.27495" lon="3.04319">
        <ele>941.3</ele>
        <time>2023-06-25T08:38:12Z</time>
      </trkpt>
      <trkpt lat="44.27495" lon="3.04317">
        <ele>941.3</ele>
        <time>2023-06-25T08:38:13Z</time>
      </trkpt>
      <trkpt lat="44.27496" lon="3.04313">
        <ele>941.5</ele>
        <time>2023-06-25T08:38:14Z</time>
      </trkpt>
      <trkpt lat="44.27497" lon="3.04309">
        <ele>941.6</ele>
        <time>2023-06-25T08:38:15Z</time>
      </trkpt>
      <trkpt lat="44.27498" lon="3.04305">
        <ele>941.7</ele>
        <time>2023-06-25T08:38:16Z</time>
      </trkpt>
      <trkpt lat="44.27499" lon="3.043">
        <ele>941.9</ele>
        <time>2023-06-25T08:38:17Z</time>
      </trkpt>
      <trkpt lat="44.275" lon="3.04293">
        <ele>942.1</ele>
        <time>2023-06-25T08:38:19Z</time>
      </trkpt>
      <trkpt lat="44.27501" lon="3.04287">
        <ele>942.3</ele>
        <time>2023-06-25T08:38:21Z</time>
      </trkpt>
      <trkpt lat="44.27501" lon="3.04282">
        <ele>942.4</ele>
        <time>2023-06-25T08:38:22Z</time>
      </trkpt>
      <trkpt lat="44.27502" lon="3.04277">
        <ele>942.5</ele>
        <time>2023-06-25T08:38:23Z</time>
      </trkpt>
      <trkpt lat="44.27503" lon="3.04273">
        <ele>942.7</ele>
        <time>2023-06-25T08:38:24Z</time>
      </trkpt>
      <trkpt lat="44.27503" lon="3.04265">
        <ele>942.9</ele>
        <time>2023-06-25T08:38:26Z</time>
      </trkpt>
      <trkpt lat="44.27504" lon="3.04261">
        <ele>943</ele>
        <time>2023-06-25T08:38:27Z</time>
      </trkpt>
      <trkpt lat="44.27506" lon="3.0425">
        <ele>943.3</ele>
        <time>2023-06-25T08:38:29Z</time>
      </trkpt>
      <trkpt lat="44.27507" lon="3.04244">
        <ele>943.5</ele>
        <time>2023-06-25T08:38:31Z</time>
      </trkpt>
      <trkpt lat="44.27508" lon="3.0424">
        <ele>943.7</ele>
        <time>2023-06-25T08:38:32Z</time>
      </trkpt>
      <trkpt lat="44.27509" lon="3.04235">
        <ele>943.8</ele>
        <time>2023-06-25T08:38:33Z</time>
      </trkpt>
      <trkpt lat="44.27509" lon="3.0423">
        <ele>944</ele>
        <time>2023-06-25T08:38:34Z</time>
      </trkpt>
      <trkpt lat="44.2751" lon="3.04222">
        <ele>944.2</ele>
        <time>2023-06-25T08:38:36Z</time>
      </trkpt>
      <trkpt lat="44.27512" lon="3.04211">
        <ele>944.5</ele>
        <time>2023-06-25T08:38:38Z</time>
      </trkpt>
      <trkpt lat="44.27514" lon="3.04205">
        <ele>944.7</ele>
        <time>2023-06-25T08:38:40Z</time>
      </trkpt>
      <trkpt lat="44.27514" lon="3.04201">
        <ele>944.8</ele>
        <time>2023-06-25T08:38:41Z</time>
      </trkpt>
      <trkpt lat="44.27515" lon="3.04196">
        <ele>945</ele>
        <time>2023-06-25T08:38:42Z</time>
      </trkpt>
      <trkpt lat="44.27515" lon="3.04191">
        <ele>945.1</ele>
        <time>2023-06-25T08:38:43Z</time>
      </trkpt>
      <trkpt lat="44.27516" lon="3.04184">
        <ele>945.3</ele>
        <time>2023-06-25T08:38:45Z</time>
      </trkpt>
      <trkpt lat="44.27517" lon="3.04179">
        <ele>945.5</ele>
        <time>2023-06-25T08:38:46Z</time>
      </trkpt>
      <trkpt lat="44.27518" lon="3.04174">
        <ele>945.6</ele>
        <time>2023-06-25T08:38:47Z</time>
      </trkpt>
      <trkpt lat="44.27519" lon="3.04169">
        <ele>945.8</ele>
        <time>2023-06-25T08:38:48Z</time>
      </trkpt>
      <trkpt lat="44.2752" lon="3.04162">
        <ele>946</ele>
        <time>2023-06-25T08:38:50Z</time>
      </trkpt>
      <trkpt lat="44.27521" lon="3.04158">
        <ele>946.1</ele>
        <time>2023-06-25T08:38:51Z</time>
      </trkpt>
      <trkpt lat="44.27521" lon="3.04154">
        <ele>946.2</ele>
        <time>2023-06-25T08:38:52Z</time>
      </trkpt>
      <trkpt lat="44.27522" lon="3.04149">
        <ele>946.4</ele>
        <time>2023-06-25T08:38:54Z</time>
      </trkpt>
      <trkpt lat="44.27523" lon="3.04143">
        <ele>946.6</ele>
        <time>2023-06-25T08:38:55Z</time>
      </trkpt>
      <trkpt lat="44.27524" lon="3.04133">
        <ele>946.9</ele>
        <time>2023-06-25T08:38:57Z</time>
      </trkpt>
      <trkpt lat="44.27524" lon="3.04126">
        <ele>947</ele>
        <time>2023-06-25T08:38:59Z</time>
      </trkpt>
      <trkpt lat="44.27524" lon="3.04122">
        <ele>947.2</ele>
        <time>2023-06-25T08:39:00Z</time>
      </trkpt>
      <trkpt lat="44.27524" lon="3.04117">
        <ele>947.3</ele>
        <time>2023-06-25T08:39:01Z</time>
      </trkpt>
      <trkpt lat="44.27524" lon="3.04111">
        <ele>947.5</ele>
        <time>2023-06-25T08:39:02Z</time>
      </trkpt>
      <trkpt lat="44.27525" lon="3.04103">
        <ele>947.7</ele>
        <time>2023-06-25T08:39:04Z</time>
      </trkpt>
      <trkpt lat="44.27526" lon="3.04092">
        <ele>948</ele>
        <time>2023-06-25T08:39:06Z</time>
      </trkpt>
      <trkpt lat="44.27527" lon="3.04085">
        <ele>948.2</ele>
        <time>2023-06-25T08:39:08Z</time>
      </trkpt>
      <trkpt lat="44.27528" lon="3.04079">
        <ele>948.4</ele>
        <time>2023-06-25T08:39:09Z</time>
      </trkpt>
      <trkpt lat="44.27528" lon="3.04073">
        <ele>948.6</ele>
        <time>2023-06-25T08:39:10Z</time>
      </trkpt>
      <trkpt lat="44.27529" lon="3.04069">
        <ele>948.7</ele>
        <time>2023-06-25T08:39:11Z</time>
      </trkpt>
      <trkpt lat="44.27529" lon="3.04062">
        <ele>948.9</ele>
        <time>2023-06-25T08:39:12Z</time>
      </trkpt>
      <trkpt lat="44.27529" lon="3.04053">
        <ele>949.2</ele>
        <time>2023-06-25T08:39:14Z</time>
      </trkpt>
      <trkpt lat="44.27529" lon="3.04047">
        <ele>949.4</ele>
        <time>2023-06-25T08:39:15Z</time>
      </trkpt>
      <trkpt lat="44.27529" lon="3.04037">
        <ele>949.7</ele>
        <time>2023-06-25T08:39:17Z</time>
      </trkpt>
      <trkpt lat="44.2753" lon="3.04029">
        <ele>949.9</ele>
        <time>2023-06-25T08:39:18Z</time>
      </trkpt>
      <trkpt lat="44.2753" lon="3.04024">
        <ele>950</ele>
        <time>2023-06-25T08:39:19Z</time>
      </trkpt>
      <trkpt lat="44.2753" lon="3.04017">
        <ele>950.2</ele>
        <time>2023-06-25T08:39:20Z</time>
      </trkpt>
      <trkpt lat="44.27532" lon="3.04002">
        <ele>950.7</ele>
        <time>2023-06-25T08:39:22Z</time>
      </trkpt>
      <trkpt lat="44.27533" lon="3.03993">
        <ele>950.9</ele>
        <time>2023-06-25T08:39:24Z</time>
      </trkpt>
      <trkpt lat="44.27534" lon="3.03987">
        <ele>951.1</ele>
        <time>2023-06-25T08:39:25Z</time>
      </trkpt>
      <trkpt lat="44.27534" lon="3.03983">
        <ele>951.2</ele>
        <time>2023-06-25T08:39:26Z</time>
      </trkpt>
      <trkpt lat="44.27535" lon="3.03977">
        <ele>951.4</ele>
        <time>2023-06-25T08:39:27Z</time>
      </trkpt>
      <trkpt lat="44.27535" lon="3.03972">
        <ele>951.6</ele>
        <time>2023-06-25T08:39:28Z</time>
      </trkpt>
      <trkpt lat="44.27536" lon="3.03964">
        <ele>951.8</ele>
        <time>2023-06-25T08:39:30Z</time>
      </trkpt>
      <trkpt lat="44.27536" lon="3.03959">
        <ele>951.9</ele>
        <time>2023-06-25T08:39:31Z</time>
      </trkpt>
      <trkpt lat="44.27537" lon="3.03952">
        <ele>952.2</ele>
        <time>2023-06-25T08:39:32Z</time>
      </trkpt>
      <trkpt lat="44.27538" lon="3.03946">
        <ele>952.3</ele>
        <time>2023-06-25T08:39:33Z</time>
      </trkpt>
      <trkpt lat="44.27539" lon="3.03941">
        <ele>952.5</ele>
        <time>2023-06-25T08:39:34Z</time>
      </trkpt>
      <trkpt lat="44.27539" lon="3.03937">
        <ele>952.6</ele>
        <time>2023-06-25T08:39:35Z</time>
      </trkpt>
      <trkpt lat="44.27541" lon="3.03925">
        <ele>952.9</ele>
        <time>2023-06-25T08:39:37Z</time>
      </trkpt>
      <trkpt lat="44.27543" lon="3.03919">
        <ele>953.1</ele>
        <time>2023-06-25T08:39:39Z</time>
      </trkpt>
      <trkpt lat="44.27544" lon="3.03913">
        <ele>953.2</ele>
        <time>2023-06-25T08:39:40Z</time>
      </trkpt>
      <trkpt lat="44.27545" lon="3.03908">
        <ele>953.4</ele>
        <time>2023-06-25T08:39:41Z</time>
      </trkpt>
      <trkpt lat="44.27547" lon="3.03901">
        <ele>953.6</ele>
        <time>2023-06-25T08:39:42Z</time>
      </trkpt>
      <trkpt lat="44.27548" lon="3.03893">
        <ele>953.8</ele>
        <time>2023-06-25T08:39:44Z</time>
      </trkpt>
      <trkpt lat="44.2755" lon="3.03885">
        <ele>954.1</ele>
        <time>2023-06-25T08:39:46Z</time>
      </trkpt>
      <trkpt lat="44.27551" lon="3.03879">
        <ele>954.3</ele>
        <time>2023-06-25T08:39:47Z</time>
      </trkpt>
      <trkpt lat="44.27553" lon="3.03874">
        <ele>954.5</ele>
        <time>2023-06-25T08:39:48Z</time>
      </trkpt>
      <trkpt lat="44.27554" lon="3.03869">
        <ele>954.7</ele>
        <time>2023-06-25T08:39:49Z</time>
      </trkpt>
      <trkpt lat="44.27556" lon="3.03858">
        <ele>955</ele>
        <time>2023-06-25T08:39:51Z</time>
      </trkpt>
      <trkpt lat="44.27558" lon="3.03851">
        <ele>955.3</ele>
        <time>2023-06-25T08:39:53Z</time>
      </trkpt>
      <trkpt lat="44.27559" lon="3.03846">
        <ele>955.5</ele>
        <time>2023-06-25T08:39:54Z</time>
      </trkpt>
      <trkpt lat="44.2756" lon="3.03842">
        <ele>955.6</ele>
        <time>2023-06-25T08:39:55Z</time>
      </trkpt>
      <trkpt lat="44.27561" lon="3.03836">
        <ele>955.9</ele>
        <time>2023-06-25T08:39:56Z</time>
      </trkpt>
      <trkpt lat="44.27562" lon="3.0383">
        <ele>956.2</ele>
        <time>2023-06-25T08:39:57Z</time>
      </trkpt>
      <trkpt lat="44.27563" lon="3.03826">
        <ele>956.4</ele>
        <time>2023-06-25T08:39:58Z</time>
      </trkpt>
      <trkpt lat="44.27565" lon="3.03817">
        <ele>956.8</ele>
        <time>2023-06-25T08:40:00Z</time>
      </trkpt>
      <trkpt lat="44.27567" lon="3.0381">
        <ele>957.3</ele>
        <time>2023-06-25T08:40:02Z</time>
      </trkpt>
      <trkpt lat="44.27568" lon="3.03806">
        <ele>957.5</ele>
        <time>2023-06-25T08:40:03Z</time>
      </trkpt>
      <trkpt lat="44.2757" lon="3.03799">
        <ele>957.9</ele>
        <time>2023-06-25T08:40:05Z</time>
      </trkpt>
      <trkpt lat="44.2757" lon="3.03793">
        <ele>958.2</ele>
        <time>2023-06-25T08:40:06Z</time>
      </trkpt>
      <trkpt lat="44.2757" lon="3.03789">
        <ele>958.4</ele>
        <time>2023-06-25T08:40:07Z</time>
      </trkpt>
      <trkpt lat="44.27571" lon="3.03784">
        <ele>958.7</ele>
        <time>2023-06-25T08:40:08Z</time>
      </trkpt>
      <trkpt lat="44.27572" lon="3.03779">
        <ele>959</ele>
        <time>2023-06-25T08:40:09Z</time>
      </trkpt>
      <trkpt lat="44.27572" lon="3.03774">
        <ele>959.3</ele>
        <time>2023-06-25T08:40:10Z</time>
      </trkpt>
      <trkpt lat="44.27573" lon="3.03768">
        <ele>959.6</ele>
        <time>2023-06-25T08:40:12Z</time>
      </trkpt>
      <trkpt lat="44.27573" lon="3.03763">
        <ele>959.8</ele>
        <time>2023-06-25T08:40:13Z</time>
      </trkpt>
      <trkpt lat="44.27573" lon="3.03758">
        <ele>960.2</ele>
        <time>2023-06-25T08:40:14Z</time>
      </trkpt>
      <trkpt lat="44.27573" lon="3.03751">
        <ele>960.5</ele>
        <time>2023-06-25T08:40:15Z</time>
      </trkpt>
      <trkpt lat="44.27572" lon="3.03745">
        <ele>960.8</ele>
        <time>2023-06-25T08:40:16Z</time>
      </trkpt>
      <trkpt lat="44.27572" lon="3.0374">
        <ele>961</ele>
        <time>2023-06-25T08:40:17Z</time>
      </trkpt>
      <trkpt lat="44.2757" lon="3.03734">
        <ele>961.3</ele>
        <time>2023-06-25T08:40:19Z</time>
      </trkpt>
      <trkpt lat="44.27569" lon="3.0373">
        <ele>961.5</ele>
        <time>2023-06-25T08:40:20Z</time>
      </trkpt>
      <trkpt lat="44.27568" lon="3.03725">
        <ele>961.7</ele>
        <time>2023-06-25T08:40:21Z</time>
      </trkpt>
      <trkpt lat="44.27566" lon="3.03719">
        <ele>961.9</ele>
        <time>2023-06-25T08:40:23Z</time>
      </trkpt>
      <trkpt lat="44.27565" lon="3.03713">
        <ele>962.1</ele>
        <time>2023-06-25T08:40:24Z</time>
      </trkpt>
      <trkpt lat="44.27563" lon="3.0371">
        <ele>962.2</ele>
        <time>2023-06-25T08:40:25Z</time>
      </trkpt>
      <trkpt lat="44.27561" lon="3.03699">
        <ele>962.4</ele>
        <time>2023-06-25T08:40:27Z</time>
      </trkpt>
      <trkpt lat="44.27559" lon="3.03693">
        <ele>962.5</ele>
        <time>2023-06-25T08:40:29Z</time>
      </trkpt>
      <trkpt lat="44.27558" lon="3.03683">
        <ele>962.7</ele>
        <time>2023-06-25T08:40:31Z</time>
      </trkpt>
      <trkpt lat="44.27557" lon="3.03677">
        <ele>962.7</ele>
        <time>2023-06-25T08:40:32Z</time>
      </trkpt>
      <trkpt lat="44.27557" lon="3.03671">
        <ele>962.8</ele>
        <time>2023-06-25T08:40:33Z</time>
      </trkpt>
      <trkpt lat="44.27558" lon="3.03662">
        <ele>962.9</ele>
        <time>2023-06-25T08:40:35Z</time>
      </trkpt>
      <trkpt lat="44.2756" lon="3.03651">
        <ele>963</ele>
        <time>2023-06-25T08:40:37Z</time>
      </trkpt>
      <trkpt lat="44.27563" lon="3.03644">
        <ele>963</ele>
        <time>2023-06-25T08:40:38Z</time>
      </trkpt>
      <trkpt lat="44.27565" lon="3.03638">
        <ele>963.1</ele>
        <time>2023-06-25T08:40:39Z</time>
      </trkpt>
      <trkpt lat="44.27568" lon="3.03634">
        <ele>963.1</ele>
        <time>2023-06-25T08:40:40Z</time>
      </trkpt>
      <trkpt lat="44.27572" lon="3.03626">
        <ele>963.2</ele>
        <time>2023-06-25T08:40:42Z</time>
      </trkpt>
      <trkpt lat="44.27576" lon="3.03622">
        <ele>963.2</ele>
        <time>2023-06-25T08:40:43Z</time>
      </trkpt>
      <trkpt lat="44.27582" lon="3.03615">
        <ele>963.3</ele>
        <time>2023-06-25T08:40:44Z</time>
      </trkpt>
      <trkpt lat="44.27588" lon="3.03608">
        <ele>963.4</ele>
        <time>2023-06-25T08:40:46Z</time>
      </trkpt>
      <trkpt lat="44.27594" lon="3.03601">
        <ele>963.5</ele>
        <time>2023-06-25T08:40:48Z</time>
      </trkpt>
      <trkpt lat="44.27598" lon="3.03597">
        <ele>963.6</ele>
        <time>2023-06-25T08:40:49Z</time>
      </trkpt>
      <trkpt lat="44.27601" lon="3.03592">
        <ele>963.7</ele>
        <time>2023-06-25T08:40:50Z</time>
      </trkpt>
      <trkpt lat="44.27606" lon="3.03584">
        <ele>963.9</ele>
        <time>2023-06-25T08:40:52Z</time>
      </trkpt>
      <trkpt lat="44.27609" lon="3.0358">
        <ele>964</ele>
        <time>2023-06-25T08:40:53Z</time>
      </trkpt>
      <trkpt lat="44.27614" lon="3.03574">
        <ele>964.1</ele>
        <time>2023-06-25T08:40:54Z</time>
      </trkpt>
      <trkpt lat="44.27617" lon="3.0357">
        <ele>964.2</ele>
        <time>2023-06-25T08:40:55Z</time>
      </trkpt>
      <trkpt lat="44.27621" lon="3.03564">
        <ele>964.4</ele>
        <time>2023-06-25T08:40:57Z</time>
      </trkpt>
      <trkpt lat="44.27625" lon="3.0356">
        <ele>964.5</ele>
        <time>2023-06-25T08:40:58Z</time>
      </trkpt>
      <trkpt lat="44.27628" lon="3.03556">
        <ele>964.6</ele>
        <time>2023-06-25T08:40:59Z</time>
      </trkpt>
      <trkpt lat="44.27632" lon="3.03552">
        <ele>964.7</ele>
        <time>2023-06-25T08:41:00Z</time>
      </trkpt>
      <trkpt lat="44.27636" lon="3.03548">
        <ele>964.9</ele>
        <time>2023-06-25T08:41:01Z</time>
      </trkpt>
      <trkpt lat="44.27639" lon="3.03544">
        <ele>965</ele>
        <time>2023-06-25T08:41:02Z</time>
      </trkpt>
      <trkpt lat="44.27645" lon="3.03539">
        <ele>965.2</ele>
        <time>2023-06-25T08:41:04Z</time>
      </trkpt>
      <trkpt lat="44.27651" lon="3.03533">
        <ele>965.5</ele>
        <time>2023-06-25T08:41:06Z</time>
      </trkpt>
      <trkpt lat="44.27656" lon="3.03529">
        <ele>965.7</ele>
        <time>2023-06-25T08:41:07Z</time>
      </trkpt>
      <trkpt lat="44.27659" lon="3.03526">
        <ele>965.8</ele>
        <time>2023-06-25T08:41:08Z</time>
      </trkpt>
      <trkpt lat="44.27663" lon="3.03522">
        <ele>966</ele>
        <time>2023-06-25T08:41:09Z</time>
      </trkpt>
      <trkpt lat="44.2767" lon="3.03518">
        <ele>966.3</ele>
        <time>2023-06-25T08:41:11Z</time>
      </trkpt>
      <trkpt lat="44.27673" lon="3.03514">
        <ele>966.5</ele>
        <time>2023-06-25T08:41:12Z</time>
      </trkpt>
      <trkpt lat="44.27677" lon="3.03511">
        <ele>966.7</ele>
        <time>2023-06-25T08:41:13Z</time>
      </trkpt>
      <trkpt lat="44.27684" lon="3.03504">
        <ele>967.1</ele>
        <time>2023-06-25T08:41:15Z</time>
      </trkpt>
      <trkpt lat="44.27689" lon="3.035">
        <ele>967.4</ele>
        <time>2023-06-25T08:41:16Z</time>
      </trkpt>
      <trkpt lat="44.27693" lon="3.03497">
        <ele>967.7</ele>
        <time>2023-06-25T08:41:17Z</time>
      </trkpt>
      <trkpt lat="44.27697" lon="3.03493">
        <ele>968</ele>
        <time>2023-06-25T08:41:18Z</time>
      </trkpt>
      <trkpt lat="44.277" lon="3.0349">
        <ele>968.2</ele>
        <time>2023-06-25T08:41:19Z</time>
      </trkpt>
      <trkpt lat="44.27704" lon="3.03486">
        <ele>968.5</ele>
        <time>2023-06-25T08:41:21Z</time>
      </trkpt>
      <trkpt lat="44.27708" lon="3.03483">
        <ele>968.8</ele>
        <time>2023-06-25T08:41:22Z</time>
      </trkpt>
      <trkpt lat="44.27711" lon="3.03481">
        <ele>969.1</ele>
        <time>2023-06-25T08:41:23Z</time>
      </trkpt>
      <trkpt lat="44.27714" lon="3.03477">
        <ele>969.3</ele>
        <time>2023-06-25T08:41:24Z</time>
      </trkpt>
      <trkpt lat="44.27716" lon="3.03473">
        <ele>969.6</ele>
        <time>2023-06-25T08:41:25Z</time>
      </trkpt>
      <trkpt lat="44.27719" lon="3.0347">
        <ele>969.9</ele>
        <time>2023-06-25T08:41:26Z</time>
      </trkpt>
      <trkpt lat="44.27723" lon="3.03465">
        <ele>970.2</ele>
        <time>2023-06-25T08:41:28Z</time>
      </trkpt>
      <trkpt lat="44.27727" lon="3.0346">
        <ele>970.5</ele>
        <time>2023-06-25T08:41:29Z</time>
      </trkpt>
      <trkpt lat="44.27729" lon="3.03456">
        <ele>970.7</ele>
        <time>2023-06-25T08:41:30Z</time>
      </trkpt>
      <trkpt lat="44.27733" lon="3.0345">
        <ele>971.4</ele>
        <time>2023-06-25T08:41:32Z</time>
      </trkpt>
      <trkpt lat="44.27735" lon="3.03446">
        <ele>971.8</ele>
        <time>2023-06-25T08:41:33Z</time>
      </trkpt>
      <trkpt lat="44.27738" lon="3.03441">
        <ele>972.3</ele>
        <time>2023-06-25T08:41:34Z</time>
      </trkpt>
      <trkpt lat="44.2774" lon="3.03438">
        <ele>972.7</ele>
        <time>2023-06-25T08:41:35Z</time>
      </trkpt>
      <trkpt lat="44.27742" lon="3.03434">
        <ele>973.2</ele>
        <time>2023-06-25T08:41:36Z</time>
      </trkpt>
      <trkpt lat="44.27745" lon="3.03429">
        <ele>973.8</ele>
        <time>2023-06-25T08:41:38Z</time>
      </trkpt>
      <trkpt lat="44.27747" lon="3.03425">
        <ele>974.1</ele>
        <time>2023-06-25T08:41:39Z</time>
      </trkpt>
      <trkpt lat="44.27749" lon="3.03421">
        <ele>974.5</ele>
        <time>2023-06-25T08:41:40Z</time>
      </trkpt>
      <trkpt lat="44.2775" lon="3.03419">
        <ele>974.6</ele>
        <time>2023-06-25T08:41:41Z</time>
      </trkpt>
      <trkpt lat="44.27751" lon="3.03414">
        <ele>975</ele>
        <time>2023-06-25T08:41:42Z</time>
      </trkpt>
      <trkpt lat="44.27752" lon="3.03412">
        <ele>975.1</ele>
        <time>2023-06-25T08:41:43Z</time>
      </trkpt>
      <trkpt lat="44.27753" lon="3.03408">
        <ele>975.4</ele>
        <time>2023-06-25T08:41:45Z</time>
      </trkpt>
      <trkpt lat="44.27754" lon="3.03404">
        <ele>975.6</ele>
        <time>2023-06-25T08:41:46Z</time>
      </trkpt>
      <trkpt lat="44.27755" lon="3.03401">
        <ele>975.9</ele>
        <time>2023-06-25T08:41:47Z</time>
      </trkpt>
      <trkpt lat="44.27757" lon="3.03398">
        <ele>976.1</ele>
        <time>2023-06-25T08:41:48Z</time>
      </trkpt>
      <trkpt lat="44.27759" lon="3.03392">
        <ele>976.6</ele>
        <time>2023-06-25T08:41:50Z</time>
      </trkpt>
      <trkpt lat="44.27761" lon="3.03388">
        <ele>976.9</ele>
        <time>2023-06-25T08:41:51Z</time>
      </trkpt>
      <trkpt lat="44.27764" lon="3.03384">
        <ele>977.4</ele>
        <time>2023-06-25T08:41:53Z</time>
      </trkpt>
      <trkpt lat="44.27766" lon="3.03379">
        <ele>977.8</ele>
        <time>2023-06-25T08:41:54Z</time>
      </trkpt>
      <trkpt lat="44.27766" lon="3.03377">
        <ele>978</ele>
        <time>2023-06-25T08:41:55Z</time>
      </trkpt>
      <trkpt lat="44.27768" lon="3.03374">
        <ele>978.3</ele>
        <time>2023-06-25T08:41:56Z</time>
      </trkpt>
      <trkpt lat="44.27771" lon="3.03369">
        <ele>978.9</ele>
        <time>2023-06-25T08:41:58Z</time>
      </trkpt>
      <trkpt lat="44.27773" lon="3.03363">
        <ele>979.4</ele>
        <time>2023-06-25T08:42:00Z</time>
      </trkpt>
      <trkpt lat="44.27775" lon="3.0336">
        <ele>979.8</ele>
        <time>2023-06-25T08:42:01Z</time>
      </trkpt>
      <trkpt lat="44.27779" lon="3.03354">
        <ele>980.2</ele>
        <time>2023-06-25T08:42:03Z</time>
      </trkpt>
      <trkpt lat="44.2778" lon="3.0335">
        <ele>980.5</ele>
        <time>2023-06-25T08:42:04Z</time>
      </trkpt>
      <trkpt lat="44.27783" lon="3.03346">
        <ele>980.9</ele>
        <time>2023-06-25T08:42:06Z</time>
      </trkpt>
      <trkpt lat="44.27785" lon="3.03343">
        <ele>981.2</ele>
        <time>2023-06-25T08:42:07Z</time>
      </trkpt>
      <trkpt lat="44.27787" lon="3.03339">
        <ele>981.5</ele>
        <time>2023-06-25T08:42:08Z</time>
      </trkpt>
      <trkpt lat="44.27788" lon="3.03337">
        <ele>981.6</ele>
        <time>2023-06-25T08:42:09Z</time>
      </trkpt>
      <trkpt lat="44.2779" lon="3.03334">
        <ele>981.9</ele>
        <time>2023-06-25T08:42:10Z</time>
      </trkpt>
      <trkpt lat="44.27793" lon="3.03329">
        <ele>982.3</ele>
        <time>2023-06-25T08:42:11Z</time>
      </trkpt>
      <trkpt lat="44.27793" lon="3.03328">
        <ele>982.4</ele>
        <time>2023-06-25T08:42:12Z</time>
      </trkpt>
      <trkpt lat="44.27795" lon="3.03324">
        <ele>982.7</ele>
        <time>2023-06-25T08:42:14Z</time>
      </trkpt>
      <trkpt lat="44.27797" lon="3.03321">
        <ele>983</ele>
        <time>2023-06-25T08:42:15Z</time>
      </trkpt>
      <trkpt lat="44.27799" lon="3.03316">
        <ele>983.4</ele>
        <time>2023-06-25T08:42:16Z</time>
      </trkpt>
      <trkpt lat="44.27799" lon="3.03314">
        <ele>983.5</ele>
        <time>2023-06-25T08:42:17Z</time>
      </trkpt>
      <trkpt lat="44.278" lon="3.0331">
        <ele>983.9</ele>
        <time>2023-06-25T08:42:18Z</time>
      </trkpt>
      <trkpt lat="44.27802" lon="3.03305">
        <ele>984.4</ele>
        <time>2023-06-25T08:42:20Z</time>
      </trkpt>
      <trkpt lat="44.27803" lon="3.03301">
        <ele>984.8</ele>
        <time>2023-06-25T08:42:21Z</time>
      </trkpt>
      <trkpt lat="44.27806" lon="3.03296">
        <ele>985.3</ele>
        <time>2023-06-25T08:42:22Z</time>
      </trkpt>
      <trkpt lat="44.27807" lon="3.03294">
        <ele>985.5</ele>
        <time>2023-06-25T08:42:23Z</time>
      </trkpt>
      <trkpt lat="44.27809" lon="3.0329">
        <ele>985.9</ele>
        <time>2023-06-25T08:42:25Z</time>
      </trkpt>
      <trkpt lat="44.27812" lon="3.03285">
        <ele>986.3</ele>
        <time>2023-06-25T08:42:26Z</time>
      </trkpt>
      <trkpt lat="44.27813" lon="3.03283">
        <ele>986.4</ele>
        <time>2023-06-25T08:42:27Z</time>
      </trkpt>
      <trkpt lat="44.27815" lon="3.0328">
        <ele>986.7</ele>
        <time>2023-06-25T08:42:28Z</time>
      </trkpt>
      <trkpt lat="44.27817" lon="3.03277">
        <ele>986.9</ele>
        <time>2023-06-25T08:42:29Z</time>
      </trkpt>
      <trkpt lat="44.27819" lon="3.03272">
        <ele>987.3</ele>
        <time>2023-06-25T08:42:31Z</time>
      </trkpt>
      <trkpt lat="44.27821" lon="3.03268">
        <ele>987.6</ele>
        <time>2023-06-25T08:42:32Z</time>
      </trkpt>
      <trkpt lat="44.27823" lon="3.03265">
        <ele>987.8</ele>
        <time>2023-06-25T08:42:33Z</time>
      </trkpt>
      <trkpt lat="44.27825" lon="3.03261">
        <ele>988.2</ele>
        <time>2023-06-25T08:42:35Z</time>
      </trkpt>
      <trkpt lat="44.27827" lon="3.03258">
        <ele>988.4</ele>
        <time>2023-06-25T08:42:36Z</time>
      </trkpt>
      <trkpt lat="44.27829" lon="3.03255">
        <ele>988.6</ele>
        <time>2023-06-25T08:42:37Z</time>
      </trkpt>
      <trkpt lat="44.27832" lon="3.03251">
        <ele>988.9</ele>
        <time>2023-06-25T08:42:38Z</time>
      </trkpt>
      <trkpt lat="44.27835" lon="3.03247">
        <ele>989.2</ele>
        <time>2023-06-25T08:42:39Z</time>
      </trkpt>
      <trkpt lat="44.27836" lon="3.03245">
        <ele>989.3</ele>
        <time>2023-06-25T08:42:40Z</time>
      </trkpt>
      <trkpt lat="44.27838" lon="3.03242">
        <ele>989.5</ele>
        <time>2023-06-25T08:42:41Z</time>
      </trkpt>
      <trkpt lat="44.27841" lon="3.03238">
        <ele>989.7</ele>
        <time>2023-06-25T08:42:43Z</time>
      </trkpt>
      <trkpt lat="44.27843" lon="3.03236">
        <ele>990</ele>
        <time>2023-06-25T08:42:44Z</time>
      </trkpt>
      <trkpt lat="44.27846" lon="3.03233">
        <ele>990.2</ele>
        <time>2023-06-25T08:42:45Z</time>
      </trkpt>
      <trkpt lat="44.27848" lon="3.0323">
        <ele>990.5</ele>
        <time>2023-06-25T08:42:46Z</time>
      </trkpt>
      <trkpt lat="44.27851" lon="3.03227">
        <ele>990.7</ele>
        <time>2023-06-25T08:42:47Z</time>
      </trkpt>
      <trkpt lat="44.27855" lon="3.03223">
        <ele>991.1</ele>
        <time>2023-06-25T08:42:49Z</time>
      </trkpt>
      <trkpt lat="44.27857" lon="3.03221">
        <ele>991.3</ele>
        <time>2023-06-25T08:42:50Z</time>
      </trkpt>
      <trkpt lat="44.27859" lon="3.03218">
        <ele>991.5</ele>
        <time>2023-06-25T08:42:51Z</time>
      </trkpt>
      <trkpt lat="44.27862" lon="3.03215">
        <ele>991.7</ele>
        <time>2023-06-25T08:42:52Z</time>
      </trkpt>
      <trkpt lat="44.27864" lon="3.03212">
        <ele>991.9</ele>
        <time>2023-06-25T08:42:53Z</time>
      </trkpt>
      <trkpt lat="44.27867" lon="3.03208">
        <ele>992.2</ele>
        <time>2023-06-25T08:42:55Z</time>
      </trkpt>
      <trkpt lat="44.27869" lon="3.03205">
        <ele>992.4</ele>
        <time>2023-06-25T08:42:56Z</time>
      </trkpt>
      <trkpt lat="44.27871" lon="3.03202">
        <ele>992.7</ele>
        <time>2023-06-25T08:42:57Z</time>
      </trkpt>
      <trkpt lat="44.27873" lon="3.03198">
        <ele>993</ele>
        <time>2023-06-25T08:42:58Z</time>
      </trkpt>
      <trkpt lat="44.27876" lon="3.03193">
        <ele>993.4</ele>
        <time>2023-06-25T08:43:00Z</time>
      </trkpt>
      <trkpt lat="44.27878" lon="3.0319">
        <ele>993.6</ele>
        <time>2023-06-25T08:43:01Z</time>
      </trkpt>
      <trkpt lat="44.27881" lon="3.03184">
        <ele>994.1</ele>
        <time>2023-06-25T08:43:03Z</time>
      </trkpt>
      <trkpt lat="44.27883" lon="3.03181">
        <ele>994.3</ele>
        <time>2023-06-25T08:43:04Z</time>
      </trkpt>
      <trkpt lat="44.27886" lon="3.03177">
        <ele>994.6</ele>
        <time>2023-06-25T08:43:06Z</time>
      </trkpt>
      <trkpt lat="44.27889" lon="3.03173">
        <ele>995</ele>
        <time>2023-06-25T08:43:07Z</time>
      </trkpt>
      <trkpt lat="44.2789" lon="3.03171">
        <ele>995.1</ele>
        <time>2023-06-25T08:43:08Z</time>
      </trkpt>
      <trkpt lat="44.27895" lon="3.03167">
        <ele>995.5</ele>
        <time>2023-06-25T08:43:10Z</time>
      </trkpt>
      <trkpt lat="44.27897" lon="3.03165">
        <ele>995.8</ele>
        <time>2023-06-25T08:43:11Z</time>
      </trkpt>
      <trkpt lat="44.27901" lon="3.03161">
        <ele>996.3</ele>
        <time>2023-06-25T08:43:13Z</time>
      </trkpt>
      <trkpt lat="44.27903" lon="3.03159">
        <ele>996.5</ele>
        <time>2023-06-25T08:43:14Z</time>
      </trkpt>
      <trkpt lat="44.27907" lon="3.03156">
        <ele>996.8</ele>
        <time>2023-06-25T08:43:16Z</time>
      </trkpt>
      <trkpt lat="44.27909" lon="3.03153">
        <ele>997.1</ele>
        <time>2023-06-25T08:43:17Z</time>
      </trkpt>
      <trkpt lat="44.27909" lon="3.03153">
        <ele>997.1</ele>
        <time>2023-06-25T08:43:18Z</time>
      </trkpt>
      <trkpt lat="44.27908" lon="3.03154">
        <ele>997.2</ele>
        <time>2023-06-25T08:43:20Z</time>
      </trkpt>
      <trkpt lat="44.27908" lon="3.03154">
        <ele>997.3</ele>
        <time>2023-06-25T08:43:21Z</time>
      </trkpt>
      <trkpt lat="44.27908" lon="3.03154">
        <ele>997.3</ele>
        <time>2023-06-25T08:43:22Z</time>
      </trkpt>
      <trkpt lat="44.27908" lon="3.03154">
        <ele>997.3</ele>
        <time>2023-06-25T08:43:24Z</time>
      </trkpt>
      <trkpt lat="44.27908" lon="3.03154">
        <ele>997.3</ele>
        <time>2023-06-25T08:43:25Z</time>
      </trkpt>
      <trkpt lat="44.27908" lon="3.03154">
        <ele>997.3</ele>
        <time>2023-06-25T08:43:26Z</time>
      </trkpt>
      <trkpt lat="44.27908" lon="3.03154">
        <ele>997.3</ele>
        <time>2023-06-25T08:43:28Z</time>
      </trkpt>
      <trkpt lat="44.27914" lon="3.03149">
        <ele>997.9</ele>
        <time>2023-06-25T08:43:51Z</time>
      </trkpt>
      <trkpt lat="44.27916" lon="3.03146">
        <ele>998.2</ele>
        <time>2023-06-25T08:43:52Z</time>
      </trkpt>
      <trkpt lat="44.27919" lon="3.03142">
        <ele>998.5</ele>
        <time>2023-06-25T08:43:54Z</time>
      </trkpt>
      <trkpt lat="44.2792" lon="3.03139">
        <ele>998.7</ele>
        <time>2023-06-25T08:43:55Z</time>
      </trkpt>
      <trkpt lat="44.27922" lon="3.03136">
        <ele>998.9</ele>
        <time>2023-06-25T08:43:56Z</time>
      </trkpt>
      <trkpt lat="44.27924" lon="3.03131">
        <ele>999.1</ele>
        <time>2023-06-25T08:43:57Z</time>
      </trkpt>
      <trkpt lat="44.27926" lon="3.03126">
        <ele>999.4</ele>
        <time>2023-06-25T08:43:58Z</time>
      </trkpt>
      <trkpt lat="44.27926" lon="3.03124">
        <ele>999.9</ele>
        <time>2023-06-25T08:43:59Z</time>
      </trkpt>
      <trkpt lat="44.27926" lon="3.03118">
        <ele>1000.1</ele>
        <time>2023-06-25T08:44:01Z</time>
      </trkpt>
      <trkpt lat="44.27926" lon="3.03114">
        <ele>1000.3</ele>
        <time>2023-06-25T08:44:02Z</time>
      </trkpt>
      <trkpt lat="44.27926" lon="3.0311">
        <ele>1000.5</ele>
        <time>2023-06-25T08:44:03Z</time>
      </trkpt>
      <trkpt lat="44.27926" lon="3.03105">
        <ele>1000.6</ele>
        <time>2023-06-25T08:44:04Z</time>
      </trkpt>
      <trkpt lat="44.27925" lon="3.03098">
        <ele>1000.9</ele>
        <time>2023-06-25T08:44:06Z</time>
      </trkpt>
      <trkpt lat="44.27924" lon="3.03093">
        <ele>1001</ele>
        <time>2023-06-25T08:44:07Z</time>
      </trkpt>
      <trkpt lat="44.27923" lon="3.03088">
        <ele>1001.1</ele>
        <time>2023-06-25T08:44:08Z</time>
      </trkpt>
      <trkpt lat="44.27922" lon="3.03085">
        <ele>1001.2</ele>
        <time>2023-06-25T08:44:09Z</time>
      </trkpt>
      <trkpt lat="44.2792" lon="3.03077">
        <ele>1001.4</ele>
        <time>2023-06-25T08:44:11Z</time>
      </trkpt>
      <trkpt lat="44.27918" lon="3.03073">
        <ele>1001.5</ele>
        <time>2023-06-25T08:44:12Z</time>
      </trkpt>
      <trkpt lat="44.27916" lon="3.03068">
        <ele>1001.7</ele>
        <time>2023-06-25T08:44:13Z</time>
      </trkpt>
      <trkpt lat="44.27914" lon="3.03061">
        <ele>1001.9</ele>
        <time>2023-06-25T08:44:15Z</time>
      </trkpt>
      <trkpt lat="44.27912" lon="3.03056">
        <ele>1002.1</ele>
        <time>2023-06-25T08:44:16Z</time>
      </trkpt>
      <trkpt lat="44.2791" lon="3.03051">
        <ele>1002.2</ele>
        <time>2023-06-25T08:44:17Z</time>
      </trkpt>
      <trkpt lat="44.27907" lon="3.03041">
        <ele>1002.5</ele>
        <time>2023-06-25T08:44:19Z</time>
      </trkpt>
      <trkpt lat="44.27904" lon="3.03036">
        <ele>1002.7</ele>
        <time>2023-06-25T08:44:21Z</time>
      </trkpt>
      <trkpt lat="44.27903" lon="3.03031">
        <ele>1002.8</ele>
        <time>2023-06-25T08:44:22Z</time>
      </trkpt>
      <trkpt lat="44.27899" lon="3.03021">
        <ele>1003.1</ele>
        <time>2023-06-25T08:44:24Z</time>
      </trkpt>
      <trkpt lat="44.27896" lon="3.03015">
        <ele>1003.4</ele>
        <time>2023-06-25T08:44:26Z</time>
      </trkpt>
      <trkpt lat="44.27895" lon="3.0301">
        <ele>1003.6</ele>
        <time>2023-06-25T08:44:27Z</time>
      </trkpt>
      <trkpt lat="44.27892" lon="3.03005">
        <ele>1003.8</ele>
        <time>2023-06-25T08:44:28Z</time>
      </trkpt>
      <trkpt lat="44.2789" lon="3.03002">
        <ele>1003.9</ele>
        <time>2023-06-25T08:44:29Z</time>
      </trkpt>
      <trkpt lat="44.27888" lon="3.02996">
        <ele>1004.2</ele>
        <time>2023-06-25T08:44:30Z</time>
      </trkpt>
      <trkpt lat="44.27885" lon="3.0299">
        <ele>1004.6</ele>
        <time>2023-06-25T08:44:32Z</time>
      </trkpt>
      <trkpt lat="44.27882" lon="3.02985">
        <ele>1004.9</ele>
        <time>2023-06-25T08:44:33Z</time>
      </trkpt>
      <trkpt lat="44.2788" lon="3.02982">
        <ele>1005.1</ele>
        <time>2023-06-25T08:44:34Z</time>
      </trkpt>
      <trkpt lat="44.27877" lon="3.02977">
        <ele>1005.4</ele>
        <time>2023-06-25T08:44:36Z</time>
      </trkpt>
      <trkpt lat="44.27875" lon="3.02974">
        <ele>1005.6</ele>
        <time>2023-06-25T08:44:37Z</time>
      </trkpt>
      <trkpt lat="44.27872" lon="3.02969">
        <ele>1006</ele>
        <time>2023-06-25T08:44:38Z</time>
      </trkpt>
      <trkpt lat="44.27869" lon="3.02965">
        <ele>1006.3</ele>
        <time>2023-06-25T08:44:39Z</time>
      </trkpt>
      <trkpt lat="44.27867" lon="3.02962">
        <ele>1006.6</ele>
        <time>2023-06-25T08:44:40Z</time>
      </trkpt>
      <trkpt lat="44.27865" lon="3.02959">
        <ele>1006.9</ele>
        <time>2023-06-25T08:44:41Z</time>
      </trkpt>
      <trkpt lat="44.27863" lon="3.02956">
        <ele>1007.2</ele>
        <time>2023-06-25T08:44:42Z</time>
      </trkpt>
      <trkpt lat="44.27859" lon="3.02951">
        <ele>1007.7</ele>
        <time>2023-06-25T08:44:44Z</time>
      </trkpt>
      <trkpt lat="44.27856" lon="3.02947">
        <ele>1008.1</ele>
        <time>2023-06-25T08:44:46Z</time>
      </trkpt>
      <trkpt lat="44.27854" lon="3.02943">
        <ele>1008.5</ele>
        <time>2023-06-25T08:44:47Z</time>
      </trkpt>
      <trkpt lat="44.27851" lon="3.0294">
        <ele>1008.8</ele>
        <time>2023-06-25T08:44:48Z</time>
      </trkpt>
      <trkpt lat="44.27849" lon="3.02937">
        <ele>1009.2</ele>
        <time>2023-06-25T08:44:49Z</time>
      </trkpt>
      <trkpt lat="44.27844" lon="3.02931">
        <ele>1009.8</ele>
        <time>2023-06-25T08:44:51Z</time>
      </trkpt>
      <trkpt lat="44.27841" lon="3.02926">
        <ele>1010.3</ele>
        <time>2023-06-25T08:44:53Z</time>
      </trkpt>
      <trkpt lat="44.27837" lon="3.02921">
        <ele>1010.8</ele>
        <time>2023-06-25T08:44:55Z</time>
      </trkpt>
      <trkpt lat="44.27836" lon="3.02916">
        <ele>1011.2</ele>
        <time>2023-06-25T08:44:56Z</time>
      </trkpt>
      <trkpt lat="44.27834" lon="3.02912">
        <ele>1011.6</ele>
        <time>2023-06-25T08:44:57Z</time>
      </trkpt>
      <trkpt lat="44.27832" lon="3.02907">
        <ele>1012.1</ele>
        <time>2023-06-25T08:44:58Z</time>
      </trkpt>
      <trkpt lat="44.27831" lon="3.02902">
        <ele>1012.5</ele>
        <time>2023-06-25T08:44:59Z</time>
      </trkpt>
      <trkpt lat="44.27829" lon="3.02897">
        <ele>1013</ele>
        <time>2023-06-25T08:45:01Z</time>
      </trkpt>
      <trkpt lat="44.27828" lon="3.02892">
        <ele>1013.4</ele>
        <time>2023-06-25T08:45:02Z</time>
      </trkpt>
      <trkpt lat="44.27827" lon="3.0289">
        <ele>1013.5</ele>
        <time>2023-06-25T08:45:03Z</time>
      </trkpt>
      <trkpt lat="44.27825" lon="3.02887">
        <ele>1013.8</ele>
        <time>2023-06-25T08:45:04Z</time>
      </trkpt>
      <trkpt lat="44.27823" lon="3.02884">
        <ele>1014</ele>
        <time>2023-06-25T08:45:05Z</time>
      </trkpt>
      <trkpt lat="44.27821" lon="3.0288">
        <ele>1014.3</ele>
        <time>2023-06-25T08:45:06Z</time>
      </trkpt>
      <trkpt lat="44.27818" lon="3.02874">
        <ele>1014.6</ele>
        <time>2023-06-25T08:45:08Z</time>
      </trkpt>
      <trkpt lat="44.27816" lon="3.02871">
        <ele>1014.9</ele>
        <time>2023-06-25T08:45:09Z</time>
      </trkpt>
      <trkpt lat="44.27813" lon="3.02866">
        <ele>1015.2</ele>
        <time>2023-06-25T08:45:11Z</time>
      </trkpt>
      <trkpt lat="44.27811" lon="3.02862">
        <ele>1015.5</ele>
        <time>2023-06-25T08:45:12Z</time>
      </trkpt>
      <trkpt lat="44.27808" lon="3.02858">
        <ele>1015.8</ele>
        <time>2023-06-25T08:45:13Z</time>
      </trkpt>
      <trkpt lat="44.27806" lon="3.02855">
        <ele>1016</ele>
        <time>2023-06-25T08:45:14Z</time>
      </trkpt>
      <trkpt lat="44.27803" lon="3.02851">
        <ele>1016.4</ele>
        <time>2023-06-25T08:45:16Z</time>
      </trkpt>
      <trkpt lat="44.27801" lon="3.02848">
        <ele>1016.6</ele>
        <time>2023-06-25T08:45:17Z</time>
      </trkpt>
      <trkpt lat="44.27798" lon="3.02844">
        <ele>1016.9</ele>
        <time>2023-06-25T08:45:18Z</time>
      </trkpt>
      <trkpt lat="44.27795" lon="3.02839">
        <ele>1017.3</ele>
        <time>2023-06-25T08:45:20Z</time>
      </trkpt>
      <trkpt lat="44.27791" lon="3.02833">
        <ele>1017.8</ele>
        <time>2023-06-25T08:45:22Z</time>
      </trkpt>
      <trkpt lat="44.27789" lon="3.02829">
        <ele>1018</ele>
        <time>2023-06-25T08:45:23Z</time>
      </trkpt>
      <trkpt lat="44.27787" lon="3.02825">
        <ele>1018.3</ele>
        <time>2023-06-25T08:45:24Z</time>
      </trkpt>
      <trkpt lat="44.27785" lon="3.02822">
        <ele>1018.4</ele>
        <time>2023-06-25T08:45:25Z</time>
      </trkpt>
      <trkpt lat="44.27783" lon="3.02817">
        <ele>1018.7</ele>
        <time>2023-06-25T08:45:27Z</time>
      </trkpt>
      <trkpt lat="44.27781" lon="3.02813">
        <ele>1018.9</ele>
        <time>2023-06-25T08:45:28Z</time>
      </trkpt>
      <trkpt lat="44.27778" lon="3.02807">
        <ele>1019.2</ele>
        <time>2023-06-25T08:45:30Z</time>
      </trkpt>
      <trkpt lat="44.27775" lon="3.02803">
        <ele>1019.4</ele>
        <time>2023-06-25T08:45:31Z</time>
      </trkpt>
      <trkpt lat="44.27773" lon="3.02798">
        <ele>1019.7</ele>
        <time>2023-06-25T08:45:32Z</time>
      </trkpt>
      <trkpt lat="44.27771" lon="3.02791">
        <ele>1020</ele>
        <time>2023-06-25T08:45:34Z</time>
      </trkpt>
      <trkpt lat="44.2777" lon="3.02786">
        <ele>1020.2</ele>
        <time>2023-06-25T08:45:35Z</time>
      </trkpt>
      <trkpt lat="44.27768" lon="3.0278">
        <ele>1020.4</ele>
        <time>2023-06-25T08:45:36Z</time>
      </trkpt>
      <trkpt lat="44.27767" lon="3.02776">
        <ele>1020.6</ele>
        <time>2023-06-25T08:45:37Z</time>
      </trkpt>
      <trkpt lat="44.27765" lon="3.02773">
        <ele>1020.8</ele>
        <time>2023-06-25T08:45:38Z</time>
      </trkpt>
      <trkpt lat="44.27763" lon="3.02767">
        <ele>1021</ele>
        <time>2023-06-25T08:45:40Z</time>
      </trkpt>
      <trkpt lat="44.27761" lon="3.02763">
        <ele>1021.2</ele>
        <time>2023-06-25T08:45:41Z</time>
      </trkpt>
      <trkpt lat="44.27759" lon="3.02758">
        <ele>1021.4</ele>
        <time>2023-06-25T08:45:42Z</time>
      </trkpt>
      <trkpt lat="44.27757" lon="3.02754">
        <ele>1021.6</ele>
        <time>2023-06-25T08:45:43Z</time>
      </trkpt>
      <trkpt lat="44.27755" lon="3.0275">
        <ele>1021.7</ele>
        <time>2023-06-25T08:45:44Z</time>
      </trkpt>
      <trkpt lat="44.27754" lon="3.02745">
        <ele>1021.9</ele>
        <time>2023-06-25T08:45:45Z</time>
      </trkpt>
      <trkpt lat="44.27752" lon="3.02741">
        <ele>1022.1</ele>
        <time>2023-06-25T08:45:46Z</time>
      </trkpt>
      <trkpt lat="44.2775" lon="3.02735">
        <ele>1022.3</ele>
        <time>2023-06-25T08:45:48Z</time>
      </trkpt>
      <trkpt lat="44.27748" lon="3.02731">
        <ele>1022.4</ele>
        <time>2023-06-25T08:45:49Z</time>
      </trkpt>
      <trkpt lat="44.27747" lon="3.02726">
        <ele>1022.6</ele>
        <time>2023-06-25T08:45:50Z</time>
      </trkpt>
      <trkpt lat="44.27745" lon="3.02722">
        <ele>1022.7</ele>
        <time>2023-06-25T08:45:51Z</time>
      </trkpt>
      <trkpt lat="44.27744" lon="3.02718">
        <ele>1022.9</ele>
        <time>2023-06-25T08:45:52Z</time>
      </trkpt>
      <trkpt lat="44.27741" lon="3.02713">
        <ele>1023.1</ele>
        <time>2023-06-25T08:45:54Z</time>
      </trkpt>
      <trkpt lat="44.2774" lon="3.0271">
        <ele>1023.3</ele>
        <time>2023-06-25T08:45:55Z</time>
      </trkpt>
      <trkpt lat="44.27738" lon="3.02705">
        <ele>1023.5</ele>
        <time>2023-06-25T08:45:56Z</time>
      </trkpt>
      <trkpt lat="44.27736" lon="3.027">
        <ele>1023.6</ele>
        <time>2023-06-25T08:45:57Z</time>
      </trkpt>
      <trkpt lat="44.27732" lon="3.0269">
        <ele>1024</ele>
        <time>2023-06-25T08:45:59Z</time>
      </trkpt>
      <trkpt lat="44.27729" lon="3.02685">
        <ele>1024.2</ele>
        <time>2023-06-25T08:46:01Z</time>
      </trkpt>
      <trkpt lat="44.27727" lon="3.02681">
        <ele>1024.4</ele>
        <time>2023-06-25T08:46:02Z</time>
      </trkpt>
      <trkpt lat="44.27725" lon="3.02676">
        <ele>1024.6</ele>
        <time>2023-06-25T08:46:03Z</time>
      </trkpt>
      <trkpt lat="44.27723" lon="3.02672">
        <ele>1024.7</ele>
        <time>2023-06-25T08:46:04Z</time>
      </trkpt>
      <trkpt lat="44.27718" lon="3.02664">
        <ele>1025.1</ele>
        <time>2023-06-25T08:46:06Z</time>
      </trkpt>
      <trkpt lat="44.27714" lon="3.02659">
        <ele>1025.3</ele>
        <time>2023-06-25T08:46:08Z</time>
      </trkpt>
      <trkpt lat="44.27709" lon="3.02651">
        <ele>1025.7</ele>
        <time>2023-06-25T08:46:10Z</time>
      </trkpt>
      <trkpt lat="44.27706" lon="3.02647">
        <ele>1026</ele>
        <time>2023-06-25T08:46:12Z</time>
      </trkpt>
      <trkpt lat="44.27703" lon="3.02644">
        <ele>1026.3</ele>
        <time>2023-06-25T08:46:13Z</time>
      </trkpt>
      <trkpt lat="44.277" lon="3.02641">
        <ele>1026.7</ele>
        <time>2023-06-25T08:46:14Z</time>
      </trkpt>
      <trkpt lat="44.27697" lon="3.02638">
        <ele>1027</ele>
        <time>2023-06-25T08:46:15Z</time>
      </trkpt>
      <trkpt lat="44.27693" lon="3.02633">
        <ele>1027.4</ele>
        <time>2023-06-25T08:46:17Z</time>
      </trkpt>
      <trkpt lat="44.27689" lon="3.0263">
        <ele>1027.8</ele>
        <time>2023-06-25T08:46:18Z</time>
      </trkpt>
      <trkpt lat="44.27686" lon="3.02628">
        <ele>1028.1</ele>
        <time>2023-06-25T08:46:19Z</time>
      </trkpt>
      <trkpt lat="44.27683" lon="3.02626">
        <ele>1028.4</ele>
        <time>2023-06-25T08:46:20Z</time>
      </trkpt>
      <trkpt lat="44.27679" lon="3.02624">
        <ele>1028.8</ele>
        <time>2023-06-25T08:46:22Z</time>
      </trkpt>
      <trkpt lat="44.27676" lon="3.02623">
        <ele>1029.1</ele>
        <time>2023-06-25T08:46:23Z</time>
      </trkpt>
      <trkpt lat="44.27673" lon="3.02622">
        <ele>1029.3</ele>
        <time>2023-06-25T08:46:24Z</time>
      </trkpt>
      <trkpt lat="44.27669" lon="3.0262">
        <ele>1029.7</ele>
        <time>2023-06-25T08:46:26Z</time>
      </trkpt>
      <trkpt lat="44.27666" lon="3.02619">
        <ele>1030</ele>
        <time>2023-06-25T08:46:27Z</time>
      </trkpt>
      <trkpt lat="44.27663" lon="3.02619">
        <ele>1030.3</ele>
        <time>2023-06-25T08:46:28Z</time>
      </trkpt>
      <trkpt lat="44.2766" lon="3.02619">
        <ele>1030.5</ele>
        <time>2023-06-25T08:46:29Z</time>
      </trkpt>
      <trkpt lat="44.27657" lon="3.02618">
        <ele>1030.9</ele>
        <time>2023-06-25T08:46:30Z</time>
      </trkpt>
      <trkpt lat="44.27653" lon="3.02618">
        <ele>1031.2</ele>
        <time>2023-06-25T08:46:31Z</time>
      </trkpt>
      <trkpt lat="44.27648" lon="3.02616">
        <ele>1031.7</ele>
        <time>2023-06-25T08:46:33Z</time>
      </trkpt>
      <trkpt lat="44.27645" lon="3.02614">
        <ele>1032</ele>
        <time>2023-06-25T08:46:34Z</time>
      </trkpt>
      <trkpt lat="44.27642" lon="3.02612">
        <ele>1032.3</ele>
        <time>2023-06-25T08:46:35Z</time>
      </trkpt>
      <trkpt lat="44.27639" lon="3.0261">
        <ele>1032.6</ele>
        <time>2023-06-25T08:46:36Z</time>
      </trkpt>
      <trkpt lat="44.27636" lon="3.02608">
        <ele>1032.9</ele>
        <time>2023-06-25T08:46:37Z</time>
      </trkpt>
      <trkpt lat="44.27631" lon="3.02605">
        <ele>1033.3</ele>
        <time>2023-06-25T08:46:39Z</time>
      </trkpt>
      <trkpt lat="44.27629" lon="3.02603">
        <ele>1033.6</ele>
        <time>2023-06-25T08:46:40Z</time>
      </trkpt>
      <trkpt lat="44.27624" lon="3.02598">
        <ele>1034</ele>
        <time>2023-06-25T08:46:42Z</time>
      </trkpt>
      <trkpt lat="44.27621" lon="3.02595">
        <ele>1034.5</ele>
        <time>2023-06-25T08:46:44Z</time>
      </trkpt>
      <trkpt lat="44.27618" lon="3.02592">
        <ele>1034.8</ele>
        <time>2023-06-25T08:46:45Z</time>
      </trkpt>
      <trkpt lat="44.27615" lon="3.02589">
        <ele>1035.1</ele>
        <time>2023-06-25T08:46:46Z</time>
      </trkpt>
      <trkpt lat="44.27612" lon="3.02587">
        <ele>1035.5</ele>
        <time>2023-06-25T08:46:48Z</time>
      </trkpt>
      <trkpt lat="44.27609" lon="3.02585">
        <ele>1035.8</ele>
        <time>2023-06-25T08:46:49Z</time>
      </trkpt>
      <trkpt lat="44.27607" lon="3.02582">
        <ele>1036.1</ele>
        <time>2023-06-25T08:46:50Z</time>
      </trkpt>
      <trkpt lat="44.27604" lon="3.0258">
        <ele>1036.4</ele>
        <time>2023-06-25T08:46:51Z</time>
      </trkpt>
      <trkpt lat="44.27601" lon="3.02578">
        <ele>1036.7</ele>
        <time>2023-06-25T08:46:52Z</time>
      </trkpt>
      <trkpt lat="44.27599" lon="3.02576">
        <ele>1037</ele>
        <time>2023-06-25T08:46:53Z</time>
      </trkpt>
      <trkpt lat="44.27597" lon="3.02573">
        <ele>1037.3</ele>
        <time>2023-06-25T08:46:54Z</time>
      </trkpt>
      <trkpt lat="44.27594" lon="3.0257">
        <ele>1037.6</ele>
        <time>2023-06-25T08:46:56Z</time>
      </trkpt>
      <trkpt lat="44.27592" lon="3.02566">
        <ele>1038</ele>
        <time>2023-06-25T08:46:57Z</time>
      </trkpt>
      <trkpt lat="44.2759" lon="3.02562">
        <ele>1038.2</ele>
        <time>2023-06-25T08:46:58Z</time>
      </trkpt>
      <trkpt lat="44.27589" lon="3.02559">
        <ele>1038.4</ele>
        <time>2023-06-25T08:46:59Z</time>
      </trkpt>
      <trkpt lat="44.27587" lon="3.02553">
        <ele>1038.7</ele>
        <time>2023-06-25T08:47:01Z</time>
      </trkpt>
      <trkpt lat="44.27586" lon="3.0255">
        <ele>1038.8</ele>
        <time>2023-06-25T08:47:02Z</time>
      </trkpt>
      <trkpt lat="44.27585" lon="3.02548">
        <ele>1039</ele>
        <time>2023-06-25T08:47:03Z</time>
      </trkpt>
      <trkpt lat="44.27584" lon="3.02544">
        <ele>1039.1</ele>
        <time>2023-06-25T08:47:04Z</time>
      </trkpt>
      <trkpt lat="44.27582" lon="3.02541">
        <ele>1039.3</ele>
        <time>2023-06-25T08:47:05Z</time>
      </trkpt>
      <trkpt lat="44.2758" lon="3.02536">
        <ele>1039.5</ele>
        <time>2023-06-25T08:47:07Z</time>
      </trkpt>
      <trkpt lat="44.2758" lon="3.02532">
        <ele>1039.7</ele>
        <time>2023-06-25T08:47:08Z</time>
      </trkpt>
      <trkpt lat="44.27578" lon="3.02527">
        <ele>1039.9</ele>
        <time>2023-06-25T08:47:10Z</time>
      </trkpt>
      <trkpt lat="44.27577" lon="3.02523">
        <ele>1040.1</ele>
        <time>2023-06-25T08:47:11Z</time>
      </trkpt>
      <trkpt lat="44.27576" lon="3.02518">
        <ele>1040.3</ele>
        <time>2023-06-25T08:47:12Z</time>
      </trkpt>
      <trkpt lat="44.27575" lon="3.02515">
        <ele>1040.4</ele>
        <time>2023-06-25T08:47:13Z</time>
      </trkpt>
      <trkpt lat="44.27574" lon="3.02511">
        <ele>1040.6</ele>
        <time>2023-06-25T08:47:14Z</time>
      </trkpt>
      <trkpt lat="44.27571" lon="3.02503">
        <ele>1040.8</ele>
        <time>2023-06-25T08:47:16Z</time>
      </trkpt>
      <trkpt lat="44.2757" lon="3.02497">
        <ele>1041</ele>
        <time>2023-06-25T08:47:18Z</time>
      </trkpt>
      <trkpt lat="44.27569" lon="3.02493">
        <ele>1041.1</ele>
        <time>2023-06-25T08:47:19Z</time>
      </trkpt>
      <trkpt lat="44.27568" lon="3.02489">
        <ele>1041.2</ele>
        <time>2023-06-25T08:47:20Z</time>
      </trkpt>
      <trkpt lat="44.27568" lon="3.02481">
        <ele>1041.4</ele>
        <time>2023-06-25T08:47:22Z</time>
      </trkpt>
      <trkpt lat="44.27568" lon="3.02476">
        <ele>1041.4</ele>
        <time>2023-06-25T08:47:23Z</time>
      </trkpt>
      <trkpt lat="44.27568" lon="3.02471">
        <ele>1041.5</ele>
        <time>2023-06-25T08:47:24Z</time>
      </trkpt>
      <trkpt lat="44.27567" lon="3.02467">
        <ele>1041.6</ele>
        <time>2023-06-25T08:47:25Z</time>
      </trkpt>
      <trkpt lat="44.27566" lon="3.02461">
        <ele>1041.7</ele>
        <time>2023-06-25T08:47:27Z</time>
      </trkpt>
      <trkpt lat="44.27565" lon="3.02455">
        <ele>1041.9</ele>
        <time>2023-06-25T08:47:29Z</time>
      </trkpt>
      <trkpt lat="44.27565" lon="3.02449">
        <ele>1042</ele>
        <time>2023-06-25T08:47:30Z</time>
      </trkpt>
      <trkpt lat="44.27565" lon="3.02445">
        <ele>1042.1</ele>
        <time>2023-06-25T08:47:31Z</time>
      </trkpt>
      <trkpt lat="44.27566" lon="3.02437">
        <ele>1042.3</ele>
        <time>2023-06-25T08:47:33Z</time>
      </trkpt>
      <trkpt lat="44.27566" lon="3.0243">
        <ele>1042.5</ele>
        <time>2023-06-25T08:47:35Z</time>
      </trkpt>
      <trkpt lat="44.27567" lon="3.02424">
        <ele>1042.7</ele>
        <time>2023-06-25T08:47:37Z</time>
      </trkpt>
      <trkpt lat="44.27567" lon="3.02419">
        <ele>1042.8</ele>
        <time>2023-06-25T08:47:38Z</time>
      </trkpt>
      <trkpt lat="44.27568" lon="3.02414">
        <ele>1042.9</ele>
        <time>2023-06-25T08:47:39Z</time>
      </trkpt>
      <trkpt lat="44.27568" lon="3.0241">
        <ele>1043</ele>
        <time>2023-06-25T08:47:40Z</time>
      </trkpt>
      <trkpt lat="44.2757" lon="3.02403">
        <ele>1043.2</ele>
        <time>2023-06-25T08:47:42Z</time>
      </trkpt>
      <trkpt lat="44.2757" lon="3.02398">
        <ele>1043.3</ele>
        <time>2023-06-25T08:47:43Z</time>
      </trkpt>
      <trkpt lat="44.2757" lon="3.02393">
        <ele>1043.3</ele>
        <time>2023-06-25T08:47:44Z</time>
      </trkpt>
      <trkpt lat="44.2757" lon="3.02388">
        <ele>1043.4</ele>
        <time>2023-06-25T08:47:45Z</time>
      </trkpt>
      <trkpt lat="44.2757" lon="3.0238">
        <ele>1043.4</ele>
        <time>2023-06-25T08:47:47Z</time>
      </trkpt>
      <trkpt lat="44.2757" lon="3.02371">
        <ele>1043.4</ele>
        <time>2023-06-25T08:47:49Z</time>
      </trkpt>
      <trkpt lat="44.27569" lon="3.02366">
        <ele>1043.4</ele>
        <time>2023-06-25T08:47:50Z</time>
      </trkpt>
      <trkpt lat="44.27568" lon="3.0236">
        <ele>1043.4</ele>
        <time>2023-06-25T08:47:51Z</time>
      </trkpt>
      <trkpt lat="44.27566" lon="3.02352">
        <ele>1043.3</ele>
        <time>2023-06-25T08:47:53Z</time>
      </trkpt>
      <trkpt lat="44.27564" lon="3.0234">
        <ele>1043.2</ele>
        <time>2023-06-25T08:47:55Z</time>
      </trkpt>
      <trkpt lat="44.27562" lon="3.0233">
        <ele>1043.1</ele>
        <time>2023-06-25T08:47:57Z</time>
      </trkpt>
      <trkpt lat="44.27561" lon="3.02322">
        <ele>1043</ele>
        <time>2023-06-25T08:47:58Z</time>
      </trkpt>
      <trkpt lat="44.27559" lon="3.02314">
        <ele>1043</ele>
        <time>2023-06-25T08:47:59Z</time>
      </trkpt>
      <trkpt lat="44.27558" lon="3.02307">
        <ele>1042.9</ele>
        <time>2023-06-25T08:48:01Z</time>
      </trkpt>
      <trkpt lat="44.27557" lon="3.02299">
        <ele>1043</ele>
        <time>2023-06-25T08:48:02Z</time>
      </trkpt>
      <trkpt lat="44.27556" lon="3.02292">
        <ele>1043</ele>
        <time>2023-06-25T08:48:03Z</time>
      </trkpt>
      <trkpt lat="44.27555" lon="3.02285">
        <ele>1043.1</ele>
        <time>2023-06-25T08:48:04Z</time>
      </trkpt>
      <trkpt lat="44.27555" lon="3.02278">
        <ele>1043.2</ele>
        <time>2023-06-25T08:48:05Z</time>
      </trkpt>
      <trkpt lat="44.27554" lon="3.02269">
        <ele>1043.3</ele>
        <time>2023-06-25T08:48:07Z</time>
      </trkpt>
      <trkpt lat="44.27554" lon="3.02263">
        <ele>1043.3</ele>
        <time>2023-06-25T08:48:08Z</time>
      </trkpt>
      <trkpt lat="44.27553" lon="3.02254">
        <ele>1043.4</ele>
        <time>2023-06-25T08:48:10Z</time>
      </trkpt>
      <trkpt lat="44.27554" lon="3.02248">
        <ele>1043.4</ele>
        <time>2023-06-25T08:48:11Z</time>
      </trkpt>
      <trkpt lat="44.27554" lon="3.02242">
        <ele>1043.5</ele>
        <time>2023-06-25T08:48:12Z</time>
      </trkpt>
      <trkpt lat="44.27553" lon="3.02235">
        <ele>1043.5</ele>
        <time>2023-06-25T08:48:14Z</time>
      </trkpt>
      <trkpt lat="44.27553" lon="3.02229">
        <ele>1043.6</ele>
        <time>2023-06-25T08:48:15Z</time>
      </trkpt>
      <trkpt lat="44.27552" lon="3.02223">
        <ele>1043.7</ele>
        <time>2023-06-25T08:48:16Z</time>
      </trkpt>
      <trkpt lat="44.27552" lon="3.02218">
        <ele>1043.7</ele>
        <time>2023-06-25T08:48:17Z</time>
      </trkpt>
      <trkpt lat="44.27552" lon="3.0221">
        <ele>1043.8</ele>
        <time>2023-06-25T08:48:19Z</time>
      </trkpt>
      <trkpt lat="44.27552" lon="3.02203">
        <ele>1043.7</ele>
        <time>2023-06-25T08:48:20Z</time>
      </trkpt>
      <trkpt lat="44.27552" lon="3.02198">
        <ele>1043.6</ele>
        <time>2023-06-25T08:48:21Z</time>
      </trkpt>
      <trkpt lat="44.27553" lon="3.02192">
        <ele>1043.5</ele>
        <time>2023-06-25T08:48:22Z</time>
      </trkpt>
      <trkpt lat="44.27553" lon="3.0218">
        <ele>1043.4</ele>
        <time>2023-06-25T08:48:24Z</time>
      </trkpt>
      <trkpt lat="44.27554" lon="3.02172">
        <ele>1043.3</ele>
        <time>2023-06-25T08:48:26Z</time>
      </trkpt>
      <trkpt lat="44.27554" lon="3.02167">
        <ele>1043.2</ele>
        <time>2023-06-25T08:48:27Z</time>
      </trkpt>
      <trkpt lat="44.27554" lon="3.02162">
        <ele>1043.2</ele>
        <time>2023-06-25T08:48:28Z</time>
      </trkpt>
      <trkpt lat="44.27555" lon="3.02155">
        <ele>1043.2</ele>
        <time>2023-06-25T08:48:29Z</time>
      </trkpt>
      <trkpt lat="44.27554" lon="3.02151">
        <ele>1043.2</ele>
        <time>2023-06-25T08:48:30Z</time>
      </trkpt>
      <trkpt lat="44.27554" lon="3.02142">
        <ele>1043.2</ele>
        <time>2023-06-25T08:48:32Z</time>
      </trkpt>
      <trkpt lat="44.27553" lon="3.0213">
        <ele>1043.3</ele>
        <time>2023-06-25T08:48:34Z</time>
      </trkpt>
      <trkpt lat="44.27553" lon="3.02122">
        <ele>1043.4</ele>
        <time>2023-06-25T08:48:36Z</time>
      </trkpt>
      <trkpt lat="44.27553" lon="3.02114">
        <ele>1043.4</ele>
        <time>2023-06-25T08:48:38Z</time>
      </trkpt>
      <trkpt lat="44.27553" lon="3.02109">
        <ele>1043.5</ele>
        <time>2023-06-25T08:48:39Z</time>
      </trkpt>
      <trkpt lat="44.27553" lon="3.02102">
        <ele>1043.5</ele>
        <time>2023-06-25T08:48:40Z</time>
      </trkpt>
      <trkpt lat="44.27552" lon="3.02097">
        <ele>1043.5</ele>
        <time>2023-06-25T08:48:41Z</time>
      </trkpt>
      <trkpt lat="44.27552" lon="3.02092">
        <ele>1043.6</ele>
        <time>2023-06-25T08:48:42Z</time>
      </trkpt>
      <trkpt lat="44.27552" lon="3.02087">
        <ele>1043.6</ele>
        <time>2023-06-25T08:48:43Z</time>
      </trkpt>
      <trkpt lat="44.27552" lon="3.02081">
        <ele>1043.6</ele>
        <time>2023-06-25T08:48:44Z</time>
      </trkpt>
      <trkpt lat="44.27552" lon="3.02076">
        <ele>1043.7</ele>
        <time>2023-06-25T08:48:45Z</time>
      </trkpt>
      <trkpt lat="44.27551" lon="3.02067">
        <ele>1043.8</ele>
        <time>2023-06-25T08:48:47Z</time>
      </trkpt>
      <trkpt lat="44.2755" lon="3.02059">
        <ele>1043.9</ele>
        <time>2023-06-25T08:48:49Z</time>
      </trkpt>
      <trkpt lat="44.2755" lon="3.02054">
        <ele>1044</ele>
        <time>2023-06-25T08:48:50Z</time>
      </trkpt>
      <trkpt lat="44.2755" lon="3.02049">
        <ele>1044.1</ele>
        <time>2023-06-25T08:48:51Z</time>
      </trkpt>
      <trkpt lat="44.27549" lon="3.02044">
        <ele>1044.2</ele>
        <time>2023-06-25T08:48:52Z</time>
      </trkpt>
      <trkpt lat="44.27548" lon="3.02036">
        <ele>1044.4</ele>
        <time>2023-06-25T08:48:54Z</time>
      </trkpt>
      <trkpt lat="44.27547" lon="3.02025">
        <ele>1045.4</ele>
        <time>2023-06-25T08:48:56Z</time>
      </trkpt>
      <trkpt lat="44.27547" lon="3.0202">
        <ele>1045.7</ele>
        <time>2023-06-25T08:48:57Z</time>
      </trkpt>
      <trkpt lat="44.27546" lon="3.02014">
        <ele>1046.1</ele>
        <time>2023-06-25T08:48:59Z</time>
      </trkpt>
      <trkpt lat="44.27545" lon="3.0201">
        <ele>1046.4</ele>
        <time>2023-06-25T08:49:00Z</time>
      </trkpt>
      <trkpt lat="44.27544" lon="3.02006">
        <ele>1046.7</ele>
        <time>2023-06-25T08:49:01Z</time>
      </trkpt>
      <trkpt lat="44.27543" lon="3.02001">
        <ele>1047</ele>
        <time>2023-06-25T08:49:02Z</time>
      </trkpt>
      <trkpt lat="44.27541" lon="3.01993">
        <ele>1047.4</ele>
        <time>2023-06-25T08:49:04Z</time>
      </trkpt>
      <trkpt lat="44.27538" lon="3.01988">
        <ele>1047.8</ele>
        <time>2023-06-25T08:49:06Z</time>
      </trkpt>
      <trkpt lat="44.27537" lon="3.01983">
        <ele>1048.1</ele>
        <time>2023-06-25T08:49:07Z</time>
      </trkpt>
      <trkpt lat="44.27536" lon="3.0198">
        <ele>1048.4</ele>
        <time>2023-06-25T08:49:08Z</time>
      </trkpt>
      <trkpt lat="44.27534" lon="3.01973">
        <ele>1048.7</ele>
        <time>2023-06-25T08:49:10Z</time>
      </trkpt>
      <trkpt lat="44.27533" lon="3.0197">
        <ele>1048.9</ele>
        <time>2023-06-25T08:49:11Z</time>
      </trkpt>
      <trkpt lat="44.27531" lon="3.01964">
        <ele>1049.3</ele>
        <time>2023-06-25T08:49:13Z</time>
      </trkpt>
      <trkpt lat="44.2753" lon="3.01961">
        <ele>1049.5</ele>
        <time>2023-06-25T08:49:14Z</time>
      </trkpt>
      <trkpt lat="44.27528" lon="3.01957">
        <ele>1049.7</ele>
        <time>2023-06-25T08:49:15Z</time>
      </trkpt>
      <trkpt lat="44.27527" lon="3.01953">
        <ele>1050</ele>
        <time>2023-06-25T08:49:16Z</time>
      </trkpt>
      <trkpt lat="44.27524" lon="3.01947">
        <ele>1050.4</ele>
        <time>2023-06-25T08:49:18Z</time>
      </trkpt>
      <trkpt lat="44.27523" lon="3.01943">
        <ele>1050.6</ele>
        <time>2023-06-25T08:49:19Z</time>
      </trkpt>
      <trkpt lat="44.27521" lon="3.01941">
        <ele>1050.8</ele>
        <time>2023-06-25T08:49:20Z</time>
      </trkpt>
      <trkpt lat="44.27519" lon="3.01935">
        <ele>1051.1</ele>
        <time>2023-06-25T08:49:22Z</time>
      </trkpt>
      <trkpt lat="44.27517" lon="3.01932">
        <ele>1051.2</ele>
        <time>2023-06-25T08:49:23Z</time>
      </trkpt>
      <trkpt lat="44.27515" lon="3.01927">
        <ele>1051.4</ele>
        <time>2023-06-25T08:49:24Z</time>
      </trkpt>
      <trkpt lat="44.27514" lon="3.01926">
        <ele>1051.4</ele>
        <time>2023-06-25T08:49:25Z</time>
      </trkpt>
      <trkpt lat="44.2751" lon="3.01921">
        <ele>1051.6</ele>
        <time>2023-06-25T08:49:27Z</time>
      </trkpt>
      <trkpt lat="44.27508" lon="3.01917">
        <ele>1051.7</ele>
        <time>2023-06-25T08:49:28Z</time>
      </trkpt>
      <trkpt lat="44.27504" lon="3.0191">
        <ele>1051.8</ele>
        <time>2023-06-25T08:49:30Z</time>
      </trkpt>
      <trkpt lat="44.27502" lon="3.01906">
        <ele>1051.9</ele>
        <time>2023-06-25T08:49:31Z</time>
      </trkpt>
      <trkpt lat="44.27499" lon="3.01901">
        <ele>1051.9</ele>
        <time>2023-06-25T08:49:32Z</time>
      </trkpt>
      <trkpt lat="44.27497" lon="3.01898">
        <ele>1052</ele>
        <time>2023-06-25T08:49:33Z</time>
      </trkpt>
      <trkpt lat="44.27493" lon="3.01893">
        <ele>1052.1</ele>
        <time>2023-06-25T08:49:35Z</time>
      </trkpt>
      <trkpt lat="44.27489" lon="3.01887">
        <ele>1052.1</ele>
        <time>2023-06-25T08:49:37Z</time>
      </trkpt>
      <trkpt lat="44.27486" lon="3.01885">
        <ele>1052.2</ele>
        <time>2023-06-25T08:49:38Z</time>
      </trkpt>
      <trkpt lat="44.27482" lon="3.01875">
        <ele>1052.3</ele>
        <time>2023-06-25T08:49:40Z</time>
      </trkpt>
      <trkpt lat="44.27479" lon="3.01868">
        <ele>1052.4</ele>
        <time>2023-06-25T08:49:42Z</time>
      </trkpt>
      <trkpt lat="44.27477" lon="3.01861">
        <ele>1052.5</ele>
        <time>2023-06-25T08:49:44Z</time>
      </trkpt>
      <trkpt lat="44.27475" lon="3.01856">
        <ele>1052.6</ele>
        <time>2023-06-25T08:49:45Z</time>
      </trkpt>
      <trkpt lat="44.27474" lon="3.01852">
        <ele>1052.7</ele>
        <time>2023-06-25T08:49:46Z</time>
      </trkpt>
      <trkpt lat="44.27472" lon="3.01842">
        <ele>1053</ele>
        <time>2023-06-25T08:49:48Z</time>
      </trkpt>
      <trkpt lat="44.27471" lon="3.0183">
        <ele>1053.4</ele>
        <time>2023-06-25T08:49:50Z</time>
      </trkpt>
      <trkpt lat="44.2747" lon="3.01825">
        <ele>1053.7</ele>
        <time>2023-06-25T08:49:51Z</time>
      </trkpt>
      <trkpt lat="44.2747" lon="3.01818">
        <ele>1054</ele>
        <time>2023-06-25T08:49:53Z</time>
      </trkpt>
      <trkpt lat="44.27469" lon="3.01813">
        <ele>1054.2</ele>
        <time>2023-06-25T08:49:54Z</time>
      </trkpt>
      <trkpt lat="44.27468" lon="3.01807">
        <ele>1054.4</ele>
        <time>2023-06-25T08:49:55Z</time>
      </trkpt>
      <trkpt lat="44.27467" lon="3.01802">
        <ele>1054.7</ele>
        <time>2023-06-25T08:49:56Z</time>
      </trkpt>
      <trkpt lat="44.27467" lon="3.01794">
        <ele>1055.1</ele>
        <time>2023-06-25T08:49:58Z</time>
      </trkpt>
      <trkpt lat="44.27466" lon="3.01789">
        <ele>1055.4</ele>
        <time>2023-06-25T08:49:59Z</time>
      </trkpt>
      <trkpt lat="44.27465" lon="3.01783">
        <ele>1055.7</ele>
        <time>2023-06-25T08:50:00Z</time>
      </trkpt>
      <trkpt lat="44.27464" lon="3.01778">
        <ele>1055.9</ele>
        <time>2023-06-25T08:50:01Z</time>
      </trkpt>
      <trkpt lat="44.27464" lon="3.01773">
        <ele>1056.1</ele>
        <time>2023-06-25T08:50:02Z</time>
      </trkpt>
      <trkpt lat="44.27462" lon="3.01766">
        <ele>1056.5</ele>
        <time>2023-06-25T08:50:04Z</time>
      </trkpt>
      <trkpt lat="44.27462" lon="3.01763">
        <ele>1056.6</ele>
        <time>2023-06-25T08:50:05Z</time>
      </trkpt>
      <trkpt lat="44.27459" lon="3.01758">
        <ele>1056.9</ele>
        <time>2023-06-25T08:50:07Z</time>
      </trkpt>
      <trkpt lat="44.27457" lon="3.01754">
        <ele>1057.3</ele>
        <time>2023-06-25T08:50:08Z</time>
      </trkpt>
      <trkpt lat="44.27456" lon="3.01752">
        <ele>1057.4</ele>
        <time>2023-06-25T08:50:09Z</time>
      </trkpt>
      <trkpt lat="44.27454" lon="3.01749">
        <ele>1057.7</ele>
        <time>2023-06-25T08:50:10Z</time>
      </trkpt>
      <trkpt lat="44.27452" lon="3.01744">
        <ele>1058.3</ele>
        <time>2023-06-25T08:50:12Z</time>
      </trkpt>
      <trkpt lat="44.2745" lon="3.0174">
        <ele>1058.7</ele>
        <time>2023-06-25T08:50:13Z</time>
      </trkpt>
      <trkpt lat="44.27449" lon="3.01736">
        <ele>1059.1</ele>
        <time>2023-06-25T08:50:14Z</time>
      </trkpt>
      <trkpt lat="44.27447" lon="3.01732">
        <ele>1059.5</ele>
        <time>2023-06-25T08:50:15Z</time>
      </trkpt>
      <trkpt lat="44.27446" lon="3.01729">
        <ele>1059.9</ele>
        <time>2023-06-25T08:50:16Z</time>
      </trkpt>
      <trkpt lat="44.27444" lon="3.01723">
        <ele>1060.3</ele>
        <time>2023-06-25T08:50:18Z</time>
      </trkpt>
      <trkpt lat="44.27441" lon="3.01718">
        <ele>1060.7</ele>
        <time>2023-06-25T08:50:20Z</time>
      </trkpt>
      <trkpt lat="44.27438" lon="3.01715">
        <ele>1061</ele>
        <time>2023-06-25T08:50:21Z</time>
      </trkpt>
      <trkpt lat="44.27437" lon="3.01713">
        <ele>1061.1</ele>
        <time>2023-06-25T08:50:22Z</time>
      </trkpt>
      <trkpt lat="44.27434" lon="3.0171">
        <ele>1061.3</ele>
        <time>2023-06-25T08:50:24Z</time>
      </trkpt>
      <trkpt lat="44.27432" lon="3.01706">
        <ele>1061.5</ele>
        <time>2023-06-25T08:50:26Z</time>
      </trkpt>
      <trkpt lat="44.2743" lon="3.01702">
        <ele>1061.7</ele>
        <time>2023-06-25T08:50:27Z</time>
      </trkpt>
      <trkpt lat="44.27429" lon="3.01701">
        <ele>1061.7</ele>
        <time>2023-06-25T08:50:28Z</time>
      </trkpt>
      <trkpt lat="44.27428" lon="3.01699">
        <ele>1061.8</ele>
        <time>2023-06-25T08:50:30Z</time>
      </trkpt>
      <trkpt lat="44.27428" lon="3.01698">
        <ele>1061.9</ele>
        <time>2023-06-25T08:50:31Z</time>
      </trkpt>
      <trkpt lat="44.27429" lon="3.01697">
        <ele>1061.9</ele>
        <time>2023-06-25T08:50:32Z</time>
      </trkpt>
      <trkpt lat="44.27429" lon="3.01697">
        <ele>1061.9</ele>
        <time>2023-06-25T08:50:33Z</time>
      </trkpt>
      <trkpt lat="44.27429" lon="3.01697">
        <ele>1062</ele>
        <time>2023-06-25T08:50:35Z</time>
      </trkpt>
      <trkpt lat="44.27429" lon="3.01697">
        <ele>1062</ele>
        <time>2023-06-25T08:50:36Z</time>
      </trkpt>
      <trkpt lat="44.27429" lon="3.01697">
        <ele>1062</ele>
        <time>2023-06-25T08:50:38Z</time>
      </trkpt>
      <trkpt lat="44.27429" lon="3.01696">
        <ele>1062</ele>
        <time>2023-06-25T08:50:39Z</time>
      </trkpt>
      <trkpt lat="44.27429" lon="3.01696">
        <ele>1062</ele>
        <time>2023-06-25T08:50:41Z</time>
      </trkpt>
      <trkpt lat="44.27429" lon="3.0169">
        <ele>1062.2</ele>
        <time>2023-06-25T08:51:35Z</time>
      </trkpt>
      <trkpt lat="44.27428" lon="3.01688">
        <ele>1062.2</ele>
        <time>2023-06-25T08:51:36Z</time>
      </trkpt>
      <trkpt lat="44.27426" lon="3.01687">
        <ele>1062.3</ele>
        <time>2023-06-25T08:51:38Z</time>
      </trkpt>
      <trkpt lat="44.27422" lon="3.01684">
        <ele>1062.4</ele>
        <time>2023-06-25T08:51:39Z</time>
      </trkpt>
      <trkpt lat="44.27421" lon="3.01683">
        <ele>1062.5</ele>
        <time>2023-06-25T08:51:40Z</time>
      </trkpt>
      <trkpt lat="44.27418" lon="3.01679">
        <ele>1062.6</ele>
        <time>2023-06-25T08:51:42Z</time>
      </trkpt>
      <trkpt lat="44.27415" lon="3.01675">
        <ele>1062.7</ele>
        <time>2023-06-25T08:51:43Z</time>
      </trkpt>
      <trkpt lat="44.27414" lon="3.01672">
        <ele>1062.7</ele>
        <time>2023-06-25T08:51:44Z</time>
      </trkpt>
      <trkpt lat="44.27411" lon="3.01669">
        <ele>1062.8</ele>
        <time>2023-06-25T08:51:45Z</time>
      </trkpt>
      <trkpt lat="44.27409" lon="3.01664">
        <ele>1063</ele>
        <time>2023-06-25T08:51:47Z</time>
      </trkpt>
      <trkpt lat="44.27407" lon="3.01661">
        <ele>1063.1</ele>
        <time>2023-06-25T08:51:48Z</time>
      </trkpt>
      <trkpt lat="44.27404" lon="3.01656">
        <ele>1063.2</ele>
        <time>2023-06-25T08:51:49Z</time>
      </trkpt>
      <trkpt lat="44.27404" lon="3.01654">
        <ele>1063.2</ele>
        <time>2023-06-25T08:51:50Z</time>
      </trkpt>
      <trkpt lat="44.27402" lon="3.01649">
        <ele>1063.3</ele>
        <time>2023-06-25T08:51:52Z</time>
      </trkpt>
      <trkpt lat="44.27401" lon="3.01642">
        <ele>1063.4</ele>
        <time>2023-06-25T08:51:53Z</time>
      </trkpt>
      <trkpt lat="44.274" lon="3.01637">
        <ele>1063.4</ele>
        <time>2023-06-25T08:51:54Z</time>
      </trkpt>
      <trkpt lat="44.27399" lon="3.01627">
        <ele>1063.4</ele>
        <time>2023-06-25T08:51:56Z</time>
      </trkpt>
      <trkpt lat="44.27399" lon="3.01619">
        <ele>1063.5</ele>
        <time>2023-06-25T08:51:57Z</time>
      </trkpt>
      <trkpt lat="44.27399" lon="3.01602">
        <ele>1063.3</ele>
        <time>2023-06-25T08:51:59Z</time>
      </trkpt>
      <trkpt lat="44.274" lon="3.01592">
        <ele>1063.2</ele>
        <time>2023-06-25T08:52:01Z</time>
      </trkpt>
      <trkpt lat="44.27401" lon="3.01585">
        <ele>1063.1</ele>
        <time>2023-06-25T08:52:02Z</time>
      </trkpt>
      <trkpt lat="44.27402" lon="3.01577">
        <ele>1062.9</ele>
        <time>2023-06-25T08:52:03Z</time>
      </trkpt>
      <trkpt lat="44.27402" lon="3.01569">
        <ele>1062.8</ele>
        <time>2023-06-25T08:52:04Z</time>
      </trkpt>
      <trkpt lat="44.27402" lon="3.01556">
        <ele>1062.5</ele>
        <time>2023-06-25T08:52:06Z</time>
      </trkpt>
      <trkpt lat="44.27403" lon="3.01545">
        <ele>1062.1</ele>
        <time>2023-06-25T08:52:07Z</time>
      </trkpt>
      <trkpt lat="44.27405" lon="3.01528">
        <ele>1061.6</ele>
        <time>2023-06-25T08:52:08Z</time>
      </trkpt>
      <trkpt lat="44.27406" lon="3.01519">
        <ele>1061.3</ele>
        <time>2023-06-25T08:52:09Z</time>
      </trkpt>
      <trkpt lat="44.27407" lon="3.01511">
        <ele>1061</ele>
        <time>2023-06-25T08:52:10Z</time>
      </trkpt>
      <trkpt lat="44.27407" lon="3.01503">
        <ele>1060.8</ele>
        <time>2023-06-25T08:52:11Z</time>
      </trkpt>
      <trkpt lat="44.27408" lon="3.01495">
        <ele>1060.6</ele>
        <time>2023-06-25T08:52:12Z</time>
      </trkpt>
      <trkpt lat="44.27409" lon="3.01487">
        <ele>1060.4</ele>
        <time>2023-06-25T08:52:13Z</time>
      </trkpt>
      <trkpt lat="44.27408" lon="3.01478">
        <ele>1060.2</ele>
        <time>2023-06-25T08:52:14Z</time>
      </trkpt>
      <trkpt lat="44.27407" lon="3.01469">
        <ele>1059.9</ele>
        <time>2023-06-25T08:52:15Z</time>
      </trkpt>
      <trkpt lat="44.27406" lon="3.01461">
        <ele>1059.6</ele>
        <time>2023-06-25T08:52:16Z</time>
      </trkpt>
      <trkpt lat="44.27405" lon="3.01452">
        <ele>1059.4</ele>
        <time>2023-06-25T08:52:17Z</time>
      </trkpt>
      <trkpt lat="44.27404" lon="3.01444">
        <ele>1059.2</ele>
        <time>2023-06-25T08:52:18Z</time>
      </trkpt>
      <trkpt lat="44.27402" lon="3.01436">
        <ele>1058.9</ele>
        <time>2023-06-25T08:52:19Z</time>
      </trkpt>
      <trkpt lat="44.274" lon="3.01428">
        <ele>1058.7</ele>
        <time>2023-06-25T08:52:20Z</time>
      </trkpt>
      <trkpt lat="44.27397" lon="3.01421">
        <ele>1058.5</ele>
        <time>2023-06-25T08:52:21Z</time>
      </trkpt>
      <trkpt lat="44.27394" lon="3.01413">
        <ele>1058.3</ele>
        <time>2023-06-25T08:52:22Z</time>
      </trkpt>
      <trkpt lat="44.2739" lon="3.01407">
        <ele>1058.2</ele>
        <time>2023-06-25T08:52:23Z</time>
      </trkpt>
      <trkpt lat="44.27385" lon="3.014">
        <ele>1058.1</ele>
        <time>2023-06-25T08:52:24Z</time>
      </trkpt>
      <trkpt lat="44.27379" lon="3.01394">
        <ele>1058</ele>
        <time>2023-06-25T08:52:25Z</time>
      </trkpt>
      <trkpt lat="44.27375" lon="3.01388">
        <ele>1057.9</ele>
        <time>2023-06-25T08:52:26Z</time>
      </trkpt>
      <trkpt lat="44.27372" lon="3.0138">
        <ele>1057.6</ele>
        <time>2023-06-25T08:52:27Z</time>
      </trkpt>
      <trkpt lat="44.27371" lon="3.01371">
        <ele>1057.3</ele>
        <time>2023-06-25T08:52:28Z</time>
      </trkpt>
      <trkpt lat="44.2737" lon="3.01362">
        <ele>1057</ele>
        <time>2023-06-25T08:52:29Z</time>
      </trkpt>
      <trkpt lat="44.27371" lon="3.01354">
        <ele>1056.6</ele>
        <time>2023-06-25T08:52:30Z</time>
      </trkpt>
      <trkpt lat="44.27374" lon="3.01347">
        <ele>1056.1</ele>
        <time>2023-06-25T08:52:31Z</time>
      </trkpt>
      <trkpt lat="44.27377" lon="3.01341">
        <ele>1055.7</ele>
        <time>2023-06-25T08:52:32Z</time>
      </trkpt>
      <trkpt lat="44.2738" lon="3.01335">
        <ele>1055.3</ele>
        <time>2023-06-25T08:52:33Z</time>
      </trkpt>
      <trkpt lat="44.27384" lon="3.01329">
        <ele>1055</ele>
        <time>2023-06-25T08:52:34Z</time>
      </trkpt>
      <trkpt lat="44.27387" lon="3.01323">
        <ele>1054.7</ele>
        <time>2023-06-25T08:52:35Z</time>
      </trkpt>
      <trkpt lat="44.27389" lon="3.01316">
        <ele>1054.4</ele>
        <time>2023-06-25T08:52:36Z</time>
      </trkpt>
      <trkpt lat="44.27392" lon="3.01309">
        <ele>1054.1</ele>
        <time>2023-06-25T08:52:37Z</time>
      </trkpt>
      <trkpt lat="44.27394" lon="3.01302">
        <ele>1054</ele>
        <time>2023-06-25T08:52:38Z</time>
      </trkpt>
      <trkpt lat="44.27396" lon="3.01294">
        <ele>1053.8</ele>
        <time>2023-06-25T08:52:39Z</time>
      </trkpt>
      <trkpt lat="44.27398" lon="3.01287">
        <ele>1053.7</ele>
        <time>2023-06-25T08:52:40Z</time>
      </trkpt>
      <trkpt lat="44.274" lon="3.01279">
        <ele>1053.5</ele>
        <time>2023-06-25T08:52:41Z</time>
      </trkpt>
      <trkpt lat="44.27401" lon="3.01272">
        <ele>1053.4</ele>
        <time>2023-06-25T08:52:42Z</time>
      </trkpt>
      <trkpt lat="44.27402" lon="3.01266">
        <ele>1053.2</ele>
        <time>2023-06-25T08:52:43Z</time>
      </trkpt>
      <trkpt lat="44.27403" lon="3.0126">
        <ele>1053.1</ele>
        <time>2023-06-25T08:52:44Z</time>
      </trkpt>
      <trkpt lat="44.27404" lon="3.01255">
        <ele>1053.1</ele>
        <time>2023-06-25T08:52:45Z</time>
      </trkpt>
      <trkpt lat="44.27405" lon="3.01246">
        <ele>1053</ele>
        <time>2023-06-25T08:52:46Z</time>
      </trkpt>
      <trkpt lat="44.27405" lon="3.01238">
        <ele>1053</ele>
        <time>2023-06-25T08:52:47Z</time>
      </trkpt>
      <trkpt lat="44.27406" lon="3.0123">
        <ele>1052.9</ele>
        <time>2023-06-25T08:52:48Z</time>
      </trkpt>
      <trkpt lat="44.27407" lon="3.01222">
        <ele>1052.9</ele>
        <time>2023-06-25T08:52:49Z</time>
      </trkpt>
      <trkpt lat="44.27407" lon="3.01214">
        <ele>1052.8</ele>
        <time>2023-06-25T08:52:50Z</time>
      </trkpt>
      <trkpt lat="44.27407" lon="3.01206">
        <ele>1052.7</ele>
        <time>2023-06-25T08:52:51Z</time>
      </trkpt>
      <trkpt lat="44.27407" lon="3.01198">
        <ele>1052.6</ele>
        <time>2023-06-25T08:52:52Z</time>
      </trkpt>
      <trkpt lat="44.27408" lon="3.0119">
        <ele>1052.4</ele>
        <time>2023-06-25T08:52:53Z</time>
      </trkpt>
      <trkpt lat="44.27408" lon="3.01183">
        <ele>1052.3</ele>
        <time>2023-06-25T08:52:54Z</time>
      </trkpt>
      <trkpt lat="44.27409" lon="3.01175">
        <ele>1052.1</ele>
        <time>2023-06-25T08:52:55Z</time>
      </trkpt>
      <trkpt lat="44.2741" lon="3.01168">
        <ele>1052</ele>
        <time>2023-06-25T08:52:56Z</time>
      </trkpt>
      <trkpt lat="44.27412" lon="3.01161">
        <ele>1051.8</ele>
        <time>2023-06-25T08:52:57Z</time>
      </trkpt>
      <trkpt lat="44.27414" lon="3.01155">
        <ele>1051.6</ele>
        <time>2023-06-25T08:52:58Z</time>
      </trkpt>
      <trkpt lat="44.27416" lon="3.01151">
        <ele>1051.5</ele>
        <time>2023-06-25T08:52:59Z</time>
      </trkpt>
      <trkpt lat="44.27419" lon="3.01144">
        <ele>1051.4</ele>
        <time>2023-06-25T08:53:00Z</time>
      </trkpt>
      <trkpt lat="44.27421" lon="3.01138">
        <ele>1051.3</ele>
        <time>2023-06-25T08:53:01Z</time>
      </trkpt>
      <trkpt lat="44.27423" lon="3.01134">
        <ele>1051.2</ele>
        <time>2023-06-25T08:53:02Z</time>
      </trkpt>
      <trkpt lat="44.27424" lon="3.01131">
        <ele>1051.2</ele>
        <time>2023-06-25T08:53:03Z</time>
      </trkpt>
      <trkpt lat="44.27424" lon="3.01129">
        <ele>1051.2</ele>
        <time>2023-06-25T08:53:04Z</time>
      </trkpt>
      <trkpt lat="44.27424" lon="3.01127">
        <ele>1051.2</ele>
        <time>2023-06-25T08:53:06Z</time>
      </trkpt>
      <trkpt lat="44.27425" lon="3.01127">
        <ele>1051.2</ele>
        <time>2023-06-25T08:53:07Z</time>
      </trkpt>
      <trkpt lat="44.27425" lon="3.01127">
        <ele>1051.2</ele>
        <time>2023-06-25T08:53:08Z</time>
      </trkpt>
      <trkpt lat="44.27425" lon="3.01127">
        <ele>1051.2</ele>
        <time>2023-06-25T08:53:09Z</time>
      </trkpt>
      <trkpt lat="44.27425" lon="3.01126">
        <ele>1051.2</ele>
        <time>2023-06-25T08:53:10Z</time>
      </trkpt>
      <trkpt lat="44.27425" lon="3.01126">
        <ele>1051.2</ele>
        <time>2023-06-25T08:53:12Z</time>
      </trkpt>
      <trkpt lat="44.27425" lon="3.01126">
        <ele>1051.2</ele>
        <time>2023-06-25T08:53:13Z</time>
      </trkpt>
      <trkpt lat="44.27425" lon="3.01126">
        <ele>1051.2</ele>
        <time>2023-06-25T08:53:14Z</time>
      </trkpt>
      <trkpt lat="44.27425" lon="3.01126">
        <ele>1051.2</ele>
        <time>2023-06-25T08:53:15Z</time>
      </trkpt>
      <trkpt lat="44.27425" lon="3.01126">
        <ele>1051.2</ele>
        <time>2023-06-25T08:53:17Z</time>
      </trkpt>
      <trkpt lat="44.27424" lon="3.01125">
        <ele>1051.2</ele>
        <time>2023-06-25T08:53:42Z</time>
      </trkpt>
      <trkpt lat="44.27425" lon="3.01122">
        <ele>1051.1</ele>
        <time>2023-06-25T08:53:43Z</time>
      </trkpt>
      <trkpt lat="44.27431" lon="3.01111">
        <ele>1050.8</ele>
        <time>2023-06-25T08:53:45Z</time>
      </trkpt>
      <trkpt lat="44.27434" lon="3.01105">
        <ele>1050.6</ele>
        <time>2023-06-25T08:53:47Z</time>
      </trkpt>
      <trkpt lat="44.27437" lon="3.01098">
        <ele>1050.4</ele>
        <time>2023-06-25T08:53:48Z</time>
      </trkpt>
      <trkpt lat="44.27439" lon="3.01094">
        <ele>1050.2</ele>
        <time>2023-06-25T08:53:49Z</time>
      </trkpt>
      <trkpt lat="44.27442" lon="3.01088">
        <ele>1050</ele>
        <time>2023-06-25T08:53:50Z</time>
      </trkpt>
      <trkpt lat="44.27446" lon="3.01078">
        <ele>1049.7</ele>
        <time>2023-06-25T08:53:52Z</time>
      </trkpt>
      <trkpt lat="44.27449" lon="3.01065">
        <ele>1049.3</ele>
        <time>2023-06-25T08:53:53Z</time>
      </trkpt>
      <trkpt lat="44.27451" lon="3.01056">
        <ele>1049</ele>
        <time>2023-06-25T08:53:54Z</time>
      </trkpt>
      <trkpt lat="44.27454" lon="3.01047">
        <ele>1048.8</ele>
        <time>2023-06-25T08:53:55Z</time>
      </trkpt>
      <trkpt lat="44.27457" lon="3.01039">
        <ele>1048.5</ele>
        <time>2023-06-25T08:53:56Z</time>
      </trkpt>
      <trkpt lat="44.2746" lon="3.01031">
        <ele>1048.2</ele>
        <time>2023-06-25T08:53:57Z</time>
      </trkpt>
      <trkpt lat="44.27462" lon="3.01022">
        <ele>1048</ele>
        <time>2023-06-25T08:53:58Z</time>
      </trkpt>
      <trkpt lat="44.27465" lon="3.01015">
        <ele>1047.7</ele>
        <time>2023-06-25T08:53:59Z</time>
      </trkpt>
      <trkpt lat="44.27468" lon="3.01008">
        <ele>1047.4</ele>
        <time>2023-06-25T08:54:00Z</time>
      </trkpt>
      <trkpt lat="44.27471" lon="3.01001">
        <ele>1047.2</ele>
        <time>2023-06-25T08:54:01Z</time>
      </trkpt>
      <trkpt lat="44.27474" lon="3.00994">
        <ele>1046.9</ele>
        <time>2023-06-25T08:54:02Z</time>
      </trkpt>
      <trkpt lat="44.27477" lon="3.00988">
        <ele>1046.7</ele>
        <time>2023-06-25T08:54:03Z</time>
      </trkpt>
      <trkpt lat="44.27481" lon="3.00981">
        <ele>1046.5</ele>
        <time>2023-06-25T08:54:04Z</time>
      </trkpt>
      <trkpt lat="44.27485" lon="3.00975">
        <ele>1046.3</ele>
        <time>2023-06-25T08:54:05Z</time>
      </trkpt>
      <trkpt lat="44.27489" lon="3.00969">
        <ele>1046</ele>
        <time>2023-06-25T08:54:06Z</time>
      </trkpt>
      <trkpt lat="44.27493" lon="3.00963">
        <ele>1045.7</ele>
        <time>2023-06-25T08:54:07Z</time>
      </trkpt>
      <trkpt lat="44.27497" lon="3.00958">
        <ele>1045.5</ele>
        <time>2023-06-25T08:54:08Z</time>
      </trkpt>
      <trkpt lat="44.27502" lon="3.00952">
        <ele>1045.4</ele>
        <time>2023-06-25T08:54:09Z</time>
      </trkpt>
      <trkpt lat="44.27507" lon="3.00946">
        <ele>1045.2</ele>
        <time>2023-06-25T08:54:10Z</time>
      </trkpt>
      <trkpt lat="44.27511" lon="3.0094">
        <ele>1044.9</ele>
        <time>2023-06-25T08:54:11Z</time>
      </trkpt>
      <trkpt lat="44.27516" lon="3.00935">
        <ele>1044.7</ele>
        <time>2023-06-25T08:54:12Z</time>
      </trkpt>
      <trkpt lat="44.2752" lon="3.00929">
        <ele>1044.5</ele>
        <time>2023-06-25T08:54:13Z</time>
      </trkpt>
      <trkpt lat="44.27524" lon="3.00923">
        <ele>1044.4</ele>
        <time>2023-06-25T08:54:14Z</time>
      </trkpt>
      <trkpt lat="44.27527" lon="3.00919">
        <ele>1044.3</ele>
        <time>2023-06-25T08:54:15Z</time>
      </trkpt>
      <trkpt lat="44.27531" lon="3.00915">
        <ele>1044.3</ele>
        <time>2023-06-25T08:54:16Z</time>
      </trkpt>
      <trkpt lat="44.27535" lon="3.0091">
        <ele>1044.2</ele>
        <time>2023-06-25T08:54:17Z</time>
      </trkpt>
      <trkpt lat="44.27539" lon="3.00906">
        <ele>1044.1</ele>
        <time>2023-06-25T08:54:18Z</time>
      </trkpt>
      <trkpt lat="44.27543" lon="3.009">
        <ele>1044</ele>
        <time>2023-06-25T08:54:19Z</time>
      </trkpt>
      <trkpt lat="44.27546" lon="3.00897">
        <ele>1043.9</ele>
        <time>2023-06-25T08:54:20Z</time>
      </trkpt>
      <trkpt lat="44.2755" lon="3.0089">
        <ele>1043.8</ele>
        <time>2023-06-25T08:54:22Z</time>
      </trkpt>
      <trkpt lat="44.27555" lon="3.00885">
        <ele>1043.7</ele>
        <time>2023-06-25T08:54:23Z</time>
      </trkpt>
      <trkpt lat="44.27559" lon="3.00882">
        <ele>1043.7</ele>
        <time>2023-06-25T08:54:24Z</time>
      </trkpt>
      <trkpt lat="44.27564" lon="3.00877">
        <ele>1043.7</ele>
        <time>2023-06-25T08:54:25Z</time>
      </trkpt>
      <trkpt lat="44.27571" lon="3.00869">
        <ele>1043.6</ele>
        <time>2023-06-25T08:54:27Z</time>
      </trkpt>
      <trkpt lat="44.27576" lon="3.00865">
        <ele>1043.6</ele>
        <time>2023-06-25T08:54:29Z</time>
      </trkpt>
      <trkpt lat="44.27582" lon="3.0086">
        <ele>1043.6</ele>
        <time>2023-06-25T08:54:31Z</time>
      </trkpt>
      <trkpt lat="44.27586" lon="3.00856">
        <ele>1043.6</ele>
        <time>2023-06-25T08:54:32Z</time>
      </trkpt>
      <trkpt lat="44.2759" lon="3.00853">
        <ele>1043.7</ele>
        <time>2023-06-25T08:54:33Z</time>
      </trkpt>
      <trkpt lat="44.27595" lon="3.00848">
        <ele>1043.7</ele>
        <time>2023-06-25T08:54:35Z</time>
      </trkpt>
      <trkpt lat="44.27599" lon="3.00844">
        <ele>1043.7</ele>
        <time>2023-06-25T08:54:36Z</time>
      </trkpt>
      <trkpt lat="44.27602" lon="3.0084">
        <ele>1043.7</ele>
        <time>2023-06-25T08:54:37Z</time>
      </trkpt>
      <trkpt lat="44.27607" lon="3.00836">
        <ele>1043.8</ele>
        <time>2023-06-25T08:54:38Z</time>
      </trkpt>
      <trkpt lat="44.27612" lon="3.00831">
        <ele>1043.9</ele>
        <time>2023-06-25T08:54:40Z</time>
      </trkpt>
      <trkpt lat="44.2762" lon="3.00822">
        <ele>1044.1</ele>
        <time>2023-06-25T08:54:42Z</time>
      </trkpt>
      <trkpt lat="44.27625" lon="3.00818">
        <ele>1044.2</ele>
        <time>2023-06-25T08:54:44Z</time>
      </trkpt>
      <trkpt lat="44.27629" lon="3.00815">
        <ele>1044.3</ele>
        <time>2023-06-25T08:54:45Z</time>
      </trkpt>
      <trkpt lat="44.27632" lon="3.00812">
        <ele>1044.4</ele>
        <time>2023-06-25T08:54:46Z</time>
      </trkpt>
      <trkpt lat="44.27637" lon="3.00808">
        <ele>1044.5</ele>
        <time>2023-06-25T08:54:47Z</time>
      </trkpt>
      <trkpt lat="44.27641" lon="3.00804">
        <ele>1044.6</ele>
        <time>2023-06-25T08:54:48Z</time>
      </trkpt>
      <trkpt lat="44.27645" lon="3.00799">
        <ele>1044.7</ele>
        <time>2023-06-25T08:54:50Z</time>
      </trkpt>
      <trkpt lat="44.27648" lon="3.00797">
        <ele>1044.8</ele>
        <time>2023-06-25T08:54:51Z</time>
      </trkpt>
      <trkpt lat="44.27649" lon="3.00794">
        <ele>1044.7</ele>
        <time>2023-06-25T08:54:52Z</time>
      </trkpt>
      <trkpt lat="44.27649" lon="3.00791">
        <ele>1044.6</ele>
        <time>2023-06-25T08:54:54Z</time>
      </trkpt>
      <trkpt lat="44.27647" lon="3.0079">
        <ele>1044.5</ele>
        <time>2023-06-25T08:54:56Z</time>
      </trkpt>
      <trkpt lat="44.27646" lon="3.00789">
        <ele>1044.5</ele>
        <time>2023-06-25T08:54:57Z</time>
      </trkpt>
      <trkpt lat="44.27645" lon="3.00789">
        <ele>1044.5</ele>
        <time>2023-06-25T08:54:58Z</time>
      </trkpt>
      <trkpt lat="44.27644" lon="3.00789">
        <ele>1044.4</ele>
        <time>2023-06-25T08:54:59Z</time>
      </trkpt>
      <trkpt lat="44.27643" lon="3.00789">
        <ele>1044.4</ele>
        <time>2023-06-25T08:55:00Z</time>
      </trkpt>
      <trkpt lat="44.27641" lon="3.00789">
        <ele>1044.3</ele>
        <time>2023-06-25T08:55:01Z</time>
      </trkpt>
      <trkpt lat="44.27637" lon="3.00789">
        <ele>1044.2</ele>
        <time>2023-06-25T08:55:02Z</time>
      </trkpt>
      <trkpt lat="44.27636" lon="3.00789">
        <ele>1044.1</ele>
        <time>2023-06-25T08:55:03Z</time>
      </trkpt>
      <trkpt lat="44.27632" lon="3.00788">
        <ele>1044</ele>
        <time>2023-06-25T08:55:05Z</time>
      </trkpt>
      <trkpt lat="44.2763" lon="3.00788">
        <ele>1043.9</ele>
        <time>2023-06-25T08:55:06Z</time>
      </trkpt>
      <trkpt lat="44.27627" lon="3.00788">
        <ele>1043.8</ele>
        <time>2023-06-25T08:55:07Z</time>
      </trkpt>
      <trkpt lat="44.27626" lon="3.00789">
        <ele>1043.7</ele>
        <time>2023-06-25T08:55:08Z</time>
      </trkpt>
      <trkpt lat="44.27623" lon="3.00788">
        <ele>1043.6</ele>
        <time>2023-06-25T08:55:09Z</time>
      </trkpt>
      <trkpt lat="44.27619" lon="3.00788">
        <ele>1043.4</ele>
        <time>2023-06-25T08:55:11Z</time>
      </trkpt>
      <trkpt lat="44.27616" lon="3.00788">
        <ele>1043.3</ele>
        <time>2023-06-25T08:55:12Z</time>
      </trkpt>
      <trkpt lat="44.2761" lon="3.00789">
        <ele>1043.1</ele>
        <time>2023-06-25T08:55:13Z</time>
      </trkpt>
      <trkpt lat="44.27605" lon="3.0079">
        <ele>1042.8</ele>
        <time>2023-06-25T08:55:14Z</time>
      </trkpt>
      <trkpt lat="44.27601" lon="3.0079">
        <ele>1042.7</ele>
        <time>2023-06-25T08:55:15Z</time>
      </trkpt>
      <trkpt lat="44.27594" lon="3.0079">
        <ele>1042.4</ele>
        <time>2023-06-25T08:55:17Z</time>
      </trkpt>
      <trkpt lat="44.27587" lon="3.00791">
        <ele>1042.1</ele>
        <time>2023-06-25T08:55:18Z</time>
      </trkpt>
      <trkpt lat="44.27579" lon="3.00793">
        <ele>1041.8</ele>
        <time>2023-06-25T08:55:19Z</time>
      </trkpt>
      <trkpt lat="44.27572" lon="3.00795">
        <ele>1041.4</ele>
        <time>2023-06-25T08:55:20Z</time>
      </trkpt>
      <trkpt lat="44.27564" lon="3.00797">
        <ele>1041</ele>
        <time>2023-06-25T08:55:22Z</time>
      </trkpt>
      <trkpt lat="44.27558" lon="3.00799">
        <ele>1040.6</ele>
        <time>2023-06-25T08:55:23Z</time>
      </trkpt>
      <trkpt lat="44.27552" lon="3.00801">
        <ele>1040.3</ele>
        <time>2023-06-25T08:55:24Z</time>
      </trkpt>
      <trkpt lat="44.27546" lon="3.00804">
        <ele>1039.9</ele>
        <time>2023-06-25T08:55:25Z</time>
      </trkpt>
      <trkpt lat="44.27535" lon="3.00809">
        <ele>1039.5</ele>
        <time>2023-06-25T08:55:26Z</time>
      </trkpt>
      <trkpt lat="44.27527" lon="3.00813">
        <ele>1039.2</ele>
        <time>2023-06-25T08:55:27Z</time>
      </trkpt>
      <trkpt lat="44.2752" lon="3.00816">
        <ele>1038.8</ele>
        <time>2023-06-25T08:55:28Z</time>
      </trkpt>
      <trkpt lat="44.27512" lon="3.0082">
        <ele>1038.4</ele>
        <time>2023-06-25T08:55:29Z</time>
      </trkpt>
      <trkpt lat="44.27505" lon="3.00824">
        <ele>1038.1</ele>
        <time>2023-06-25T08:55:30Z</time>
      </trkpt>
      <trkpt lat="44.27497" lon="3.00828">
        <ele>1037.7</ele>
        <time>2023-06-25T08:55:31Z</time>
      </trkpt>
      <trkpt lat="44.2749" lon="3.00832">
        <ele>1037.4</ele>
        <time>2023-06-25T08:55:32Z</time>
      </trkpt>
      <trkpt lat="44.27483" lon="3.00835">
        <ele>1037.1</ele>
        <time>2023-06-25T08:55:33Z</time>
      </trkpt>
      <trkpt lat="44.27476" lon="3.00839">
        <ele>1036.8</ele>
        <time>2023-06-25T08:55:34Z</time>
      </trkpt>
      <trkpt lat="44.27468" lon="3.00843">
        <ele>1036.4</ele>
        <time>2023-06-25T08:55:35Z</time>
      </trkpt>
      <trkpt lat="44.2746" lon="3.00847">
        <ele>1036</ele>
        <time>2023-06-25T08:55:36Z</time>
      </trkpt>
      <trkpt lat="44.27453" lon="3.0085">
        <ele>1035.7</ele>
        <time>2023-06-25T08:55:37Z</time>
      </trkpt>
      <trkpt lat="44.27446" lon="3.00853">
        <ele>1035.4</ele>
        <time>2023-06-25T08:55:38Z</time>
      </trkpt>
      <trkpt lat="44.27439" lon="3.00855">
        <ele>1035.1</ele>
        <time>2023-06-25T08:55:39Z</time>
      </trkpt>
      <trkpt lat="44.27431" lon="3.00858">
        <ele>1034.9</ele>
        <time>2023-06-25T08:55:40Z</time>
      </trkpt>
      <trkpt lat="44.27423" lon="3.00859">
        <ele>1034.6</ele>
        <time>2023-06-25T08:55:41Z</time>
      </trkpt>
      <trkpt lat="44.27415" lon="3.0086">
        <ele>1034.3</ele>
        <time>2023-06-25T08:55:42Z</time>
      </trkpt>
      <trkpt lat="44.27407" lon="3.00861">
        <ele>1034</ele>
        <time>2023-06-25T08:55:43Z</time>
      </trkpt>
      <trkpt lat="44.27398" lon="3.00861">
        <ele>1033.6</ele>
        <time>2023-06-25T08:55:44Z</time>
      </trkpt>
      <trkpt lat="44.2739" lon="3.00861">
        <ele>1033.3</ele>
        <time>2023-06-25T08:55:45Z</time>
      </trkpt>
      <trkpt lat="44.27382" lon="3.00861">
        <ele>1033</ele>
        <time>2023-06-25T08:55:46Z</time>
      </trkpt>
      <trkpt lat="44.27373" lon="3.00861">
        <ele>1032.7</ele>
        <time>2023-06-25T08:55:47Z</time>
      </trkpt>
      <trkpt lat="44.27366" lon="3.00861">
        <ele>1032.4</ele>
        <time>2023-06-25T08:55:48Z</time>
      </trkpt>
      <trkpt lat="44.27358" lon="3.00862">
        <ele>1032.1</ele>
        <time>2023-06-25T08:55:49Z</time>
      </trkpt>
      <trkpt lat="44.2735" lon="3.00863">
        <ele>1031.9</ele>
        <time>2023-06-25T08:55:50Z</time>
      </trkpt>
      <trkpt lat="44.27343" lon="3.00865">
        <ele>1031.8</ele>
        <time>2023-06-25T08:55:51Z</time>
      </trkpt>
      <trkpt lat="44.27335" lon="3.00867">
        <ele>1031.8</ele>
        <time>2023-06-25T08:55:52Z</time>
      </trkpt>
      <trkpt lat="44.27328" lon="3.00869">
        <ele>1031.8</ele>
        <time>2023-06-25T08:55:53Z</time>
      </trkpt>
      <trkpt lat="44.27322" lon="3.00871">
        <ele>1031.8</ele>
        <time>2023-06-25T08:55:54Z</time>
      </trkpt>
      <trkpt lat="44.27316" lon="3.00873">
        <ele>1031.8</ele>
        <time>2023-06-25T08:55:55Z</time>
      </trkpt>
      <trkpt lat="44.2731" lon="3.00876">
        <ele>1031.8</ele>
        <time>2023-06-25T08:55:56Z</time>
      </trkpt>
      <trkpt lat="44.27305" lon="3.00878">
        <ele>1031.8</ele>
        <time>2023-06-25T08:55:57Z</time>
      </trkpt>
      <trkpt lat="44.273" lon="3.00881">
        <ele>1031.8</ele>
        <time>2023-06-25T08:55:58Z</time>
      </trkpt>
      <trkpt lat="44.27296" lon="3.00885">
        <ele>1031.9</ele>
        <time>2023-06-25T08:55:59Z</time>
      </trkpt>
      <trkpt lat="44.27292" lon="3.00891">
        <ele>1031.9</ele>
        <time>2023-06-25T08:56:00Z</time>
      </trkpt>
      <trkpt lat="44.27288" lon="3.00897">
        <ele>1031.9</ele>
        <time>2023-06-25T08:56:01Z</time>
      </trkpt>
      <trkpt lat="44.27284" lon="3.00904">
        <ele>1031.9</ele>
        <time>2023-06-25T08:56:02Z</time>
      </trkpt>
      <trkpt lat="44.27281" lon="3.0091">
        <ele>1032</ele>
        <time>2023-06-25T08:56:03Z</time>
      </trkpt>
      <trkpt lat="44.27279" lon="3.00917">
        <ele>1032</ele>
        <time>2023-06-25T08:56:04Z</time>
      </trkpt>
      <trkpt lat="44.27276" lon="3.00925">
        <ele>1032.1</ele>
        <time>2023-06-25T08:56:05Z</time>
      </trkpt>
      <trkpt lat="44.27273" lon="3.00933">
        <ele>1032.2</ele>
        <time>2023-06-25T08:56:06Z</time>
      </trkpt>
      <trkpt lat="44.2727" lon="3.0094">
        <ele>1032.3</ele>
        <time>2023-06-25T08:56:07Z</time>
      </trkpt>
      <trkpt lat="44.27268" lon="3.00944">
        <ele>1032.6</ele>
        <time>2023-06-25T08:56:08Z</time>
      </trkpt>
      <trkpt lat="44.27264" lon="3.00945">
        <ele>1032.6</ele>
        <time>2023-06-25T08:56:09Z</time>
      </trkpt>
      <trkpt lat="44.27263" lon="3.00944">
        <ele>1032.6</ele>
        <time>2023-06-25T08:56:10Z</time>
      </trkpt>
      <trkpt lat="44.27262" lon="3.00941">
        <ele>1032.6</ele>
        <time>2023-06-25T08:56:11Z</time>
      </trkpt>
      <trkpt lat="44.27263" lon="3.00939">
        <ele>1032.6</ele>
        <time>2023-06-25T08:56:12Z</time>
      </trkpt>
      <trkpt lat="44.27263" lon="3.00938">
        <ele>1032.6</ele>
        <time>2023-06-25T08:56:13Z</time>
      </trkpt>
      <trkpt lat="44.27264" lon="3.00932">
        <ele>1032.6</ele>
        <time>2023-06-25T08:56:14Z</time>
      </trkpt>
      <trkpt lat="44.27264" lon="3.0093">
        <ele>1030.4</ele>
        <time>2023-06-25T08:56:15Z</time>
      </trkpt>
      <trkpt lat="44.27265" lon="3.00923">
        <ele>1030.1</ele>
        <time>2023-06-25T08:56:17Z</time>
      </trkpt>
      <trkpt lat="44.27266" lon="3.00915">
        <ele>1029.7</ele>
        <time>2023-06-25T08:56:18Z</time>
      </trkpt>
      <trkpt lat="44.27266" lon="3.00906">
        <ele>1029.4</ele>
        <time>2023-06-25T08:56:19Z</time>
      </trkpt>
      <trkpt lat="44.27265" lon="3.00898">
        <ele>1029.1</ele>
        <time>2023-06-25T08:56:20Z</time>
      </trkpt>
      <trkpt lat="44.27264" lon="3.0089">
        <ele>1028.8</ele>
        <time>2023-06-25T08:56:21Z</time>
      </trkpt>
      <trkpt lat="44.27263" lon="3.00882">
        <ele>1028.6</ele>
        <time>2023-06-25T08:56:22Z</time>
      </trkpt>
      <trkpt lat="44.27262" lon="3.00874">
        <ele>1028.3</ele>
        <time>2023-06-25T08:56:23Z</time>
      </trkpt>
      <trkpt lat="44.27262" lon="3.00867">
        <ele>1028.1</ele>
        <time>2023-06-25T08:56:24Z</time>
      </trkpt>
      <trkpt lat="44.27262" lon="3.00859">
        <ele>1027.8</ele>
        <time>2023-06-25T08:56:25Z</time>
      </trkpt>
      <trkpt lat="44.27262" lon="3.00852">
        <ele>1027.5</ele>
        <time>2023-06-25T08:56:26Z</time>
      </trkpt>
      <trkpt lat="44.27262" lon="3.00844">
        <ele>1027.2</ele>
        <time>2023-06-25T08:56:27Z</time>
      </trkpt>
      <trkpt lat="44.27262" lon="3.00836">
        <ele>1026.8</ele>
        <time>2023-06-25T08:56:28Z</time>
      </trkpt>
      <trkpt lat="44.27263" lon="3.00829">
        <ele>1026.4</ele>
        <time>2023-06-25T08:56:29Z</time>
      </trkpt>
      <trkpt lat="44.27265" lon="3.00821">
        <ele>1026.1</ele>
        <time>2023-06-25T08:56:30Z</time>
      </trkpt>
      <trkpt lat="44.27268" lon="3.00814">
        <ele>1025.7</ele>
        <time>2023-06-25T08:56:31Z</time>
      </trkpt>
      <trkpt lat="44.27271" lon="3.00806">
        <ele>1025.4</ele>
        <time>2023-06-25T08:56:32Z</time>
      </trkpt>
      <trkpt lat="44.27274" lon="3.00799">
        <ele>1025</ele>
        <time>2023-06-25T08:56:33Z</time>
      </trkpt>
      <trkpt lat="44.27277" lon="3.00792">
        <ele>1024.7</ele>
        <time>2023-06-25T08:56:34Z</time>
      </trkpt>
      <trkpt lat="44.27281" lon="3.00785">
        <ele>1024.4</ele>
        <time>2023-06-25T08:56:35Z</time>
      </trkpt>
      <trkpt lat="44.27284" lon="3.00778">
        <ele>1024</ele>
        <time>2023-06-25T08:56:36Z</time>
      </trkpt>
      <trkpt lat="44.27289" lon="3.0077">
        <ele>1023.6</ele>
        <time>2023-06-25T08:56:37Z</time>
      </trkpt>
      <trkpt lat="44.27294" lon="3.00763">
        <ele>1023.2</ele>
        <time>2023-06-25T08:56:38Z</time>
      </trkpt>
      <trkpt lat="44.27298" lon="3.00755">
        <ele>1022.8</ele>
        <time>2023-06-25T08:56:39Z</time>
      </trkpt>
      <trkpt lat="44.27303" lon="3.00747">
        <ele>1022.4</ele>
        <time>2023-06-25T08:56:40Z</time>
      </trkpt>
      <trkpt lat="44.27307" lon="3.00738">
        <ele>1022</ele>
        <time>2023-06-25T08:56:41Z</time>
      </trkpt>
      <trkpt lat="44.27312" lon="3.00729">
        <ele>1021.5</ele>
        <time>2023-06-25T08:56:42Z</time>
      </trkpt>
      <trkpt lat="44.27316" lon="3.00721">
        <ele>1021.1</ele>
        <time>2023-06-25T08:56:43Z</time>
      </trkpt>
      <trkpt lat="44.27318" lon="3.00712">
        <ele>1020.8</ele>
        <time>2023-06-25T08:56:44Z</time>
      </trkpt>
      <trkpt lat="44.27319" lon="3.00703">
        <ele>1020.6</ele>
        <time>2023-06-25T08:56:45Z</time>
      </trkpt>
      <trkpt lat="44.27319" lon="3.00695">
        <ele>1020.2</ele>
        <time>2023-06-25T08:56:46Z</time>
      </trkpt>
      <trkpt lat="44.27318" lon="3.00686">
        <ele>1019.8</ele>
        <time>2023-06-25T08:56:47Z</time>
      </trkpt>
      <trkpt lat="44.27316" lon="3.00679">
        <ele>1019.4</ele>
        <time>2023-06-25T08:56:48Z</time>
      </trkpt>
      <trkpt lat="44.27314" lon="3.00671">
        <ele>1019</ele>
        <time>2023-06-25T08:56:49Z</time>
      </trkpt>
      <trkpt lat="44.27312" lon="3.00664">
        <ele>1018.6</ele>
        <time>2023-06-25T08:56:50Z</time>
      </trkpt>
      <trkpt lat="44.27309" lon="3.00657">
        <ele>1018.3</ele>
        <time>2023-06-25T08:56:51Z</time>
      </trkpt>
      <trkpt lat="44.27306" lon="3.00649">
        <ele>1017.9</ele>
        <time>2023-06-25T08:56:52Z</time>
      </trkpt>
      <trkpt lat="44.27304" lon="3.00642">
        <ele>1017.6</ele>
        <time>2023-06-25T08:56:53Z</time>
      </trkpt>
      <trkpt lat="44.27301" lon="3.00634">
        <ele>1017.2</ele>
        <time>2023-06-25T08:56:54Z</time>
      </trkpt>
      <trkpt lat="44.27298" lon="3.00626">
        <ele>1016.9</ele>
        <time>2023-06-25T08:56:55Z</time>
      </trkpt>
      <trkpt lat="44.27296" lon="3.00618">
        <ele>1016.6</ele>
        <time>2023-06-25T08:56:56Z</time>
      </trkpt>
      <trkpt lat="44.27294" lon="3.0061">
        <ele>1016.3</ele>
        <time>2023-06-25T08:56:57Z</time>
      </trkpt>
      <trkpt lat="44.27292" lon="3.00602">
        <ele>1016</ele>
        <time>2023-06-25T08:56:58Z</time>
      </trkpt>
      <trkpt lat="44.2729" lon="3.00593">
        <ele>1015.7</ele>
        <time>2023-06-25T08:56:59Z</time>
      </trkpt>
      <trkpt lat="44.27289" lon="3.00585">
        <ele>1015.3</ele>
        <time>2023-06-25T08:57:00Z</time>
      </trkpt>
      <trkpt lat="44.27287" lon="3.00578">
        <ele>1015</ele>
        <time>2023-06-25T08:57:01Z</time>
      </trkpt>
      <trkpt lat="44.27285" lon="3.0057">
        <ele>1014.6</ele>
        <time>2023-06-25T08:57:02Z</time>
      </trkpt>
      <trkpt lat="44.27284" lon="3.00562">
        <ele>1014.2</ele>
        <time>2023-06-25T08:57:03Z</time>
      </trkpt>
      <trkpt lat="44.27283" lon="3.00554">
        <ele>1013.7</ele>
        <time>2023-06-25T08:57:04Z</time>
      </trkpt>
      <trkpt lat="44.27282" lon="3.00544">
        <ele>1013</ele>
        <time>2023-06-25T08:57:05Z</time>
      </trkpt>
      <trkpt lat="44.27281" lon="3.00535">
        <ele>1012.3</ele>
        <time>2023-06-25T08:57:06Z</time>
      </trkpt>
      <trkpt lat="44.2728" lon="3.00525">
        <ele>1011.6</ele>
        <time>2023-06-25T08:57:07Z</time>
      </trkpt>
      <trkpt lat="44.27279" lon="3.00516">
        <ele>1010.8</ele>
        <time>2023-06-25T08:57:08Z</time>
      </trkpt>
      <trkpt lat="44.27278" lon="3.00506">
        <ele>1010</ele>
        <time>2023-06-25T08:57:09Z</time>
      </trkpt>
      <trkpt lat="44.27275" lon="3.00497">
        <ele>1008.9</ele>
        <time>2023-06-25T08:57:10Z</time>
      </trkpt>
      <trkpt lat="44.27272" lon="3.00486">
        <ele>1007.8</ele>
        <time>2023-06-25T08:57:11Z</time>
      </trkpt>
      <trkpt lat="44.27267" lon="3.00475">
        <ele>1006.7</ele>
        <time>2023-06-25T08:57:12Z</time>
      </trkpt>
      <trkpt lat="44.27263" lon="3.00464">
        <ele>1005.7</ele>
        <time>2023-06-25T08:57:13Z</time>
      </trkpt>
      <trkpt lat="44.27257" lon="3.00453">
        <ele>1004.8</ele>
        <time>2023-06-25T08:57:14Z</time>
      </trkpt>
      <trkpt lat="44.27252" lon="3.00442">
        <ele>1004.1</ele>
        <time>2023-06-25T08:57:15Z</time>
      </trkpt>
      <trkpt lat="44.27247" lon="3.00432">
        <ele>1003.5</ele>
        <time>2023-06-25T08:57:16Z</time>
      </trkpt>
      <trkpt lat="44.27241" lon="3.00423">
        <ele>1003.2</ele>
        <time>2023-06-25T08:57:17Z</time>
      </trkpt>
      <trkpt lat="44.27234" lon="3.00417">
        <ele>1003</ele>
        <time>2023-06-25T08:57:18Z</time>
      </trkpt>
      <trkpt lat="44.27226" lon="3.00415">
        <ele>1003</ele>
        <time>2023-06-25T08:57:19Z</time>
      </trkpt>
      <trkpt lat="44.27219" lon="3.00415">
        <ele>1003</ele>
        <time>2023-06-25T08:57:20Z</time>
      </trkpt>
      <trkpt lat="44.27213" lon="3.00414">
        <ele>1003.1</ele>
        <time>2023-06-25T08:57:21Z</time>
      </trkpt>
      <trkpt lat="44.27207" lon="3.00414">
        <ele>1003.2</ele>
        <time>2023-06-25T08:57:22Z</time>
      </trkpt>
      <trkpt lat="44.27201" lon="3.00413">
        <ele>1003.2</ele>
        <time>2023-06-25T08:57:23Z</time>
      </trkpt>
      <trkpt lat="44.27196" lon="3.00413">
        <ele>1003.4</ele>
        <time>2023-06-25T08:57:24Z</time>
      </trkpt>
      <trkpt lat="44.27191" lon="3.00412">
        <ele>1003.5</ele>
        <time>2023-06-25T08:57:25Z</time>
      </trkpt>
      <trkpt lat="44.27187" lon="3.00412">
        <ele>1003.6</ele>
        <time>2023-06-25T08:57:26Z</time>
      </trkpt>
      <trkpt lat="44.27182" lon="3.00411">
        <ele>1003.8</ele>
        <time>2023-06-25T08:57:27Z</time>
      </trkpt>
      <trkpt lat="44.27178" lon="3.00411">
        <ele>1004</ele>
        <time>2023-06-25T08:57:28Z</time>
      </trkpt>
      <trkpt lat="44.27176" lon="3.00411">
        <ele>1004.1</ele>
        <time>2023-06-25T08:57:29Z</time>
      </trkpt>
      <trkpt lat="44.27172" lon="3.0041">
        <ele>1004.3</ele>
        <time>2023-06-25T08:57:30Z</time>
      </trkpt>
      <trkpt lat="44.27169" lon="3.00409">
        <ele>1004.5</ele>
        <time>2023-06-25T08:57:31Z</time>
      </trkpt>
      <trkpt lat="44.27166" lon="3.00407">
        <ele>1004.9</ele>
        <time>2023-06-25T08:57:32Z</time>
      </trkpt>
      <trkpt lat="44.27165" lon="3.00407">
        <ele>1005</ele>
        <time>2023-06-25T08:57:33Z</time>
      </trkpt>
      <trkpt lat="44.27163" lon="3.00407">
        <ele>1005.2</ele>
        <time>2023-06-25T08:57:34Z</time>
      </trkpt>
      <trkpt lat="44.2716" lon="3.00404">
        <ele>1005.7</ele>
        <time>2023-06-25T08:57:36Z</time>
      </trkpt>
      <trkpt lat="44.27157" lon="3.00402">
        <ele>1006</ele>
        <time>2023-06-25T08:57:37Z</time>
      </trkpt>
      <trkpt lat="44.27153" lon="3.004">
        <ele>1006.5</ele>
        <time>2023-06-25T08:57:38Z</time>
      </trkpt>
      <trkpt lat="44.27152" lon="3.00399">
        <ele>1006.6</ele>
        <time>2023-06-25T08:57:39Z</time>
      </trkpt>
      <trkpt lat="44.27148" lon="3.00398">
        <ele>1007</ele>
        <time>2023-06-25T08:57:40Z</time>
      </trkpt>
      <trkpt lat="44.27147" lon="3.00398">
        <ele>1007.1</ele>
        <time>2023-06-25T08:57:41Z</time>
      </trkpt>
      <trkpt lat="44.27141" lon="3.00398">
        <ele>1007.5</ele>
        <time>2023-06-25T08:57:43Z</time>
      </trkpt>
      <trkpt lat="44.27138" lon="3.00397">
        <ele>1007.7</ele>
        <time>2023-06-25T08:57:44Z</time>
      </trkpt>
      <trkpt lat="44.27136" lon="3.00396">
        <ele>1007.8</ele>
        <time>2023-06-25T08:57:45Z</time>
      </trkpt>
      <trkpt lat="44.27134" lon="3.00394">
        <ele>1007.9</ele>
        <time>2023-06-25T08:57:46Z</time>
      </trkpt>
      <trkpt lat="44.27131" lon="3.00392">
        <ele>1008</ele>
        <time>2023-06-25T08:57:47Z</time>
      </trkpt>
      <trkpt lat="44.27129" lon="3.00391">
        <ele>1008.1</ele>
        <time>2023-06-25T08:57:48Z</time>
      </trkpt>
      <trkpt lat="44.27127" lon="3.00388">
        <ele>1008.1</ele>
        <time>2023-06-25T08:57:50Z</time>
      </trkpt>
      <trkpt lat="44.27124" lon="3.00386">
        <ele>1008.2</ele>
        <time>2023-06-25T08:57:51Z</time>
      </trkpt>
      <trkpt lat="44.2712" lon="3.00385">
        <ele>1008.2</ele>
        <time>2023-06-25T08:57:52Z</time>
      </trkpt>
      <trkpt lat="44.27117" lon="3.00382">
        <ele>1008.2</ele>
        <time>2023-06-25T08:57:54Z</time>
      </trkpt>
      <trkpt lat="44.27114" lon="3.00379">
        <ele>1008.1</ele>
        <time>2023-06-25T08:57:55Z</time>
      </trkpt>
      <trkpt lat="44.27112" lon="3.00378">
        <ele>1008.1</ele>
        <time>2023-06-25T08:57:56Z</time>
      </trkpt>
      <trkpt lat="44.27107" lon="3.00375">
        <ele>1007.9</ele>
        <time>2023-06-25T08:57:57Z</time>
      </trkpt>
      <trkpt lat="44.27102" lon="3.00372">
        <ele>1007.6</ele>
        <time>2023-06-25T08:57:58Z</time>
      </trkpt>
      <trkpt lat="44.27096" lon="3.00368">
        <ele>1007.3</ele>
        <time>2023-06-25T08:57:59Z</time>
      </trkpt>
      <trkpt lat="44.27091" lon="3.00364">
        <ele>1007</ele>
        <time>2023-06-25T08:58:00Z</time>
      </trkpt>
      <trkpt lat="44.27086" lon="3.0036">
        <ele>1006.7</ele>
        <time>2023-06-25T08:58:01Z</time>
      </trkpt>
      <trkpt lat="44.27081" lon="3.00355">
        <ele>1006.4</ele>
        <time>2023-06-25T08:58:02Z</time>
      </trkpt>
      <trkpt lat="44.27077" lon="3.0035">
        <ele>1006.1</ele>
        <time>2023-06-25T08:58:03Z</time>
      </trkpt>
      <trkpt lat="44.27073" lon="3.00345">
        <ele>1005.8</ele>
        <time>2023-06-25T08:58:04Z</time>
      </trkpt>
      <trkpt lat="44.27069" lon="3.00338">
        <ele>1005.5</ele>
        <time>2023-06-25T08:58:05Z</time>
      </trkpt>
      <trkpt lat="44.27066" lon="3.00331">
        <ele>1005.3</ele>
        <time>2023-06-25T08:58:06Z</time>
      </trkpt>
      <trkpt lat="44.27063" lon="3.00324">
        <ele>1005.1</ele>
        <time>2023-06-25T08:58:07Z</time>
      </trkpt>
      <trkpt lat="44.27059" lon="3.00317">
        <ele>1004.9</ele>
        <time>2023-06-25T08:58:08Z</time>
      </trkpt>
      <trkpt lat="44.27056" lon="3.00309">
        <ele>1004.7</ele>
        <time>2023-06-25T08:58:09Z</time>
      </trkpt>
      <trkpt lat="44.27053" lon="3.00302">
        <ele>1004.6</ele>
        <time>2023-06-25T08:58:10Z</time>
      </trkpt>
      <trkpt lat="44.27051" lon="3.00295">
        <ele>1004.5</ele>
        <time>2023-06-25T08:58:11Z</time>
      </trkpt>
      <trkpt lat="44.27047" lon="3.00288">
        <ele>1004.4</ele>
        <time>2023-06-25T08:58:12Z</time>
      </trkpt>
      <trkpt lat="44.27044" lon="3.00282">
        <ele>1004.2</ele>
        <time>2023-06-25T08:58:13Z</time>
      </trkpt>
      <trkpt lat="44.2704" lon="3.00276">
        <ele>1004</ele>
        <time>2023-06-25T08:58:14Z</time>
      </trkpt>
      <trkpt lat="44.27035" lon="3.00272">
        <ele>1003.7</ele>
        <time>2023-06-25T08:58:15Z</time>
      </trkpt>
      <trkpt lat="44.2703" lon="3.00267">
        <ele>1003.4</ele>
        <time>2023-06-25T08:58:16Z</time>
      </trkpt>
      <trkpt lat="44.27025" lon="3.00264">
        <ele>1003</ele>
        <time>2023-06-25T08:58:17Z</time>
      </trkpt>
      <trkpt lat="44.2702" lon="3.0026">
        <ele>1002.6</ele>
        <time>2023-06-25T08:58:18Z</time>
      </trkpt>
      <trkpt lat="44.27015" lon="3.00257">
        <ele>1002.2</ele>
        <time>2023-06-25T08:58:19Z</time>
      </trkpt>
      <trkpt lat="44.27012" lon="3.00254">
        <ele>1001.8</ele>
        <time>2023-06-25T08:58:20Z</time>
      </trkpt>
      <trkpt lat="44.27008" lon="3.0025">
        <ele>1001.4</ele>
        <time>2023-06-25T08:58:21Z</time>
      </trkpt>
      <trkpt lat="44.27004" lon="3.00246">
        <ele>1001</ele>
        <time>2023-06-25T08:58:22Z</time>
      </trkpt>
      <trkpt lat="44.27001" lon="3.0024">
        <ele>1000.6</ele>
        <time>2023-06-25T08:58:23Z</time>
      </trkpt>
      <trkpt lat="44.26998" lon="3.00234">
        <ele>1000.1</ele>
        <time>2023-06-25T08:58:24Z</time>
      </trkpt>
      <trkpt lat="44.26995" lon="3.00228">
        <ele>999.6</ele>
        <time>2023-06-25T08:58:25Z</time>
      </trkpt>
      <trkpt lat="44.26991" lon="3.00221">
        <ele>999.1</ele>
        <time>2023-06-25T08:58:26Z</time>
      </trkpt>
      <trkpt lat="44.26987" lon="3.00215">
        <ele>998.6</ele>
        <time>2023-06-25T08:58:27Z</time>
      </trkpt>
      <trkpt lat="44.26982" lon="3.00209">
        <ele>998.2</ele>
        <time>2023-06-25T08:58:28Z</time>
      </trkpt>
      <trkpt lat="44.26976" lon="3.00203">
        <ele>997.6</ele>
        <time>2023-06-25T08:58:29Z</time>
      </trkpt>
      <trkpt lat="44.26969" lon="3.00198">
        <ele>997.2</ele>
        <time>2023-06-25T08:58:30Z</time>
      </trkpt>
      <trkpt lat="44.26963" lon="3.00192">
        <ele>996.8</ele>
        <time>2023-06-25T08:58:31Z</time>
      </trkpt>
      <trkpt lat="44.26958" lon="3.00187">
        <ele>996.4</ele>
        <time>2023-06-25T08:58:32Z</time>
      </trkpt>
      <trkpt lat="44.26951" lon="3.00182">
        <ele>996</ele>
        <time>2023-06-25T08:58:33Z</time>
      </trkpt>
      <trkpt lat="44.26945" lon="3.00177">
        <ele>995.7</ele>
        <time>2023-06-25T08:58:34Z</time>
      </trkpt>
      <trkpt lat="44.26939" lon="3.00172">
        <ele>995.5</ele>
        <time>2023-06-25T08:58:35Z</time>
      </trkpt>
      <trkpt lat="44.26933" lon="3.00167">
        <ele>995.2</ele>
        <time>2023-06-25T08:58:36Z</time>
      </trkpt>
      <trkpt lat="44.26927" lon="3.00162">
        <ele>995</ele>
        <time>2023-06-25T08:58:37Z</time>
      </trkpt>
      <trkpt lat="44.26921" lon="3.00157">
        <ele>994.7</ele>
        <time>2023-06-25T08:58:38Z</time>
      </trkpt>
      <trkpt lat="44.26914" lon="3.00152">
        <ele>994.5</ele>
        <time>2023-06-25T08:58:39Z</time>
      </trkpt>
      <trkpt lat="44.26908" lon="3.00147">
        <ele>994.4</ele>
        <time>2023-06-25T08:58:40Z</time>
      </trkpt>
      <trkpt lat="44.26901" lon="3.00143">
        <ele>994.3</ele>
        <time>2023-06-25T08:58:41Z</time>
      </trkpt>
      <trkpt lat="44.26895" lon="3.00139">
        <ele>994.3</ele>
        <time>2023-06-25T08:58:42Z</time>
      </trkpt>
      <trkpt lat="44.26889" lon="3.00136">
        <ele>994.2</ele>
        <time>2023-06-25T08:58:43Z</time>
      </trkpt>
      <trkpt lat="44.26884" lon="3.00133">
        <ele>994.2</ele>
        <time>2023-06-25T08:58:44Z</time>
      </trkpt>
      <trkpt lat="44.26877" lon="3.00129">
        <ele>994.1</ele>
        <time>2023-06-25T08:58:45Z</time>
      </trkpt>
      <trkpt lat="44.26871" lon="3.00126">
        <ele>994</ele>
        <time>2023-06-25T08:58:46Z</time>
      </trkpt>
      <trkpt lat="44.26866" lon="3.00123">
        <ele>994</ele>
        <time>2023-06-25T08:58:47Z</time>
      </trkpt>
      <trkpt lat="44.2686" lon="3.0012">
        <ele>994.1</ele>
        <time>2023-06-25T08:58:48Z</time>
      </trkpt>
      <trkpt lat="44.26854" lon="3.00116">
        <ele>994.3</ele>
        <time>2023-06-25T08:58:49Z</time>
      </trkpt>
      <trkpt lat="44.26849" lon="3.00112">
        <ele>994.4</ele>
        <time>2023-06-25T08:58:50Z</time>
      </trkpt>
      <trkpt lat="44.26845" lon="3.00108">
        <ele>994.5</ele>
        <time>2023-06-25T08:58:51Z</time>
      </trkpt>
      <trkpt lat="44.26841" lon="3.00103">
        <ele>994.6</ele>
        <time>2023-06-25T08:58:52Z</time>
      </trkpt>
      <trkpt lat="44.26837" lon="3.00099">
        <ele>994.7</ele>
        <time>2023-06-25T08:58:53Z</time>
      </trkpt>
      <trkpt lat="44.26836" lon="3.00096">
        <ele>994.8</ele>
        <time>2023-06-25T08:58:54Z</time>
      </trkpt>
      <trkpt lat="44.26833" lon="3.00091">
        <ele>994.8</ele>
        <time>2023-06-25T08:58:55Z</time>
      </trkpt>
      <trkpt lat="44.26831" lon="3.00087">
        <ele>994.9</ele>
        <time>2023-06-25T08:58:56Z</time>
      </trkpt>
      <trkpt lat="44.26829" lon="3.00083">
        <ele>995</ele>
        <time>2023-06-25T08:58:57Z</time>
      </trkpt>
      <trkpt lat="44.26827" lon="3.00078">
        <ele>995</ele>
        <time>2023-06-25T08:58:58Z</time>
      </trkpt>
      <trkpt lat="44.26825" lon="3.00071">
        <ele>995.1</ele>
        <time>2023-06-25T08:58:59Z</time>
      </trkpt>
      <trkpt lat="44.26823" lon="3.00066">
        <ele>995.2</ele>
        <time>2023-06-25T08:59:00Z</time>
      </trkpt>
      <trkpt lat="44.26822" lon="3.0006">
        <ele>995.4</ele>
        <time>2023-06-25T08:59:01Z</time>
      </trkpt>
      <trkpt lat="44.26821" lon="3.00054">
        <ele>995.6</ele>
        <time>2023-06-25T08:59:02Z</time>
      </trkpt>
      <trkpt lat="44.2682" lon="3.00047">
        <ele>995.8</ele>
        <time>2023-06-25T08:59:03Z</time>
      </trkpt>
      <trkpt lat="44.2682" lon="3.00043">
        <ele>996</ele>
        <time>2023-06-25T08:59:04Z</time>
      </trkpt>
      <trkpt lat="44.2682" lon="3.00037">
        <ele>996.2</ele>
        <time>2023-06-25T08:59:05Z</time>
      </trkpt>
      <trkpt lat="44.2682" lon="3.00031">
        <ele>996.4</ele>
        <time>2023-06-25T08:59:06Z</time>
      </trkpt>
      <trkpt lat="44.2682" lon="3.00026">
        <ele>996.5</ele>
        <time>2023-06-25T08:59:07Z</time>
      </trkpt>
      <trkpt lat="44.2682" lon="3.0002">
        <ele>996.7</ele>
        <time>2023-06-25T08:59:08Z</time>
      </trkpt>
      <trkpt lat="44.2682" lon="3.00014">
        <ele>996.8</ele>
        <time>2023-06-25T08:59:09Z</time>
      </trkpt>
      <trkpt lat="44.2682" lon="3.00009">
        <ele>996.9</ele>
        <time>2023-06-25T08:59:10Z</time>
      </trkpt>
      <trkpt lat="44.26819" lon="3.00004">
        <ele>997</ele>
        <time>2023-06-25T08:59:11Z</time>
      </trkpt>
      <trkpt lat="44.26819" lon="2.99997">
        <ele>997.1</ele>
        <time>2023-06-25T08:59:12Z</time>
      </trkpt>
      <trkpt lat="44.26819" lon="2.99991">
        <ele>997.1</ele>
        <time>2023-06-25T08:59:13Z</time>
      </trkpt>
      <trkpt lat="44.26819" lon="2.99985">
        <ele>997.1</ele>
        <time>2023-06-25T08:59:14Z</time>
      </trkpt>
      <trkpt lat="44.26818" lon="2.99981">
        <ele>997.1</ele>
        <time>2023-06-25T08:59:15Z</time>
      </trkpt>
      <trkpt lat="44.26818" lon="2.99975">
        <ele>997.2</ele>
        <time>2023-06-25T08:59:16Z</time>
      </trkpt>
      <trkpt lat="44.26817" lon="2.99969">
        <ele>997.2</ele>
        <time>2023-06-25T08:59:17Z</time>
      </trkpt>
      <trkpt lat="44.26817" lon="2.99964">
        <ele>997.2</ele>
        <time>2023-06-25T08:59:18Z</time>
      </trkpt>
      <trkpt lat="44.26816" lon="2.99959">
        <ele>997.2</ele>
        <time>2023-06-25T08:59:19Z</time>
      </trkpt>
      <trkpt lat="44.26816" lon="2.99953">
        <ele>997.3</ele>
        <time>2023-06-25T08:59:20Z</time>
      </trkpt>
      <trkpt lat="44.26815" lon="2.99947">
        <ele>997.3</ele>
        <time>2023-06-25T08:59:21Z</time>
      </trkpt>
      <trkpt lat="44.26814" lon="2.99943">
        <ele>997.4</ele>
        <time>2023-06-25T08:59:22Z</time>
      </trkpt>
      <trkpt lat="44.26813" lon="2.99937">
        <ele>997.4</ele>
        <time>2023-06-25T08:59:23Z</time>
      </trkpt>
      <trkpt lat="44.26812" lon="2.99932">
        <ele>997.5</ele>
        <time>2023-06-25T08:59:24Z</time>
      </trkpt>
      <trkpt lat="44.2681" lon="2.99926">
        <ele>997.6</ele>
        <time>2023-06-25T08:59:25Z</time>
      </trkpt>
      <trkpt lat="44.26809" lon="2.99921">
        <ele>997.7</ele>
        <time>2023-06-25T08:59:26Z</time>
      </trkpt>
      <trkpt lat="44.26807" lon="2.99916">
        <ele>997.7</ele>
        <time>2023-06-25T08:59:27Z</time>
      </trkpt>
      <trkpt lat="44.26805" lon="2.9991">
        <ele>997.9</ele>
        <time>2023-06-25T08:59:28Z</time>
      </trkpt>
      <trkpt lat="44.26803" lon="2.99906">
        <ele>997.9</ele>
        <time>2023-06-25T08:59:29Z</time>
      </trkpt>
      <trkpt lat="44.26801" lon="2.99901">
        <ele>998.1</ele>
        <time>2023-06-25T08:59:30Z</time>
      </trkpt>
      <trkpt lat="44.26799" lon="2.99897">
        <ele>998.1</ele>
        <time>2023-06-25T08:59:31Z</time>
      </trkpt>
      <trkpt lat="44.26797" lon="2.99893">
        <ele>998.2</ele>
        <time>2023-06-25T08:59:32Z</time>
      </trkpt>
      <trkpt lat="44.26795" lon="2.99889">
        <ele>998.3</ele>
        <time>2023-06-25T08:59:33Z</time>
      </trkpt>
      <trkpt lat="44.26791" lon="2.99883">
        <ele>998.5</ele>
        <time>2023-06-25T08:59:35Z</time>
      </trkpt>
      <trkpt lat="44.26789" lon="2.99878">
        <ele>998.6</ele>
        <time>2023-06-25T08:59:36Z</time>
      </trkpt>
      <trkpt lat="44.26786" lon="2.99873">
        <ele>998.8</ele>
        <time>2023-06-25T08:59:37Z</time>
      </trkpt>
      <trkpt lat="44.26782" lon="2.99868">
        <ele>998.9</ele>
        <time>2023-06-25T08:59:39Z</time>
      </trkpt>
      <trkpt lat="44.26777" lon="2.9986">
        <ele>999.1</ele>
        <time>2023-06-25T08:59:41Z</time>
      </trkpt>
      <trkpt lat="44.26775" lon="2.99855">
        <ele>999.2</ele>
        <time>2023-06-25T08:59:42Z</time>
      </trkpt>
      <trkpt lat="44.26769" lon="2.99844">
        <ele>999.3</ele>
        <time>2023-06-25T08:59:44Z</time>
      </trkpt>
      <trkpt lat="44.26766" lon="2.99838">
        <ele>999.3</ele>
        <time>2023-06-25T08:59:46Z</time>
      </trkpt>
      <trkpt lat="44.26763" lon="2.99832">
        <ele>999.3</ele>
        <time>2023-06-25T08:59:47Z</time>
      </trkpt>
      <trkpt lat="44.26761" lon="2.99823">
        <ele>999.1</ele>
        <time>2023-06-25T08:59:48Z</time>
      </trkpt>
      <trkpt lat="44.26759" lon="2.99814">
        <ele>999</ele>
        <time>2023-06-25T08:59:49Z</time>
      </trkpt>
      <trkpt lat="44.26757" lon="2.99806">
        <ele>998.8</ele>
        <time>2023-06-25T08:59:50Z</time>
      </trkpt>
      <trkpt lat="44.26755" lon="2.99798">
        <ele>998.6</ele>
        <time>2023-06-25T08:59:51Z</time>
      </trkpt>
      <trkpt lat="44.26754" lon="2.9979">
        <ele>998.5</ele>
        <time>2023-06-25T08:59:52Z</time>
      </trkpt>
      <trkpt lat="44.26752" lon="2.99782">
        <ele>998.2</ele>
        <time>2023-06-25T08:59:53Z</time>
      </trkpt>
      <trkpt lat="44.2675" lon="2.99774">
        <ele>998</ele>
        <time>2023-06-25T08:59:54Z</time>
      </trkpt>
      <trkpt lat="44.26748" lon="2.99766">
        <ele>997.7</ele>
        <time>2023-06-25T08:59:55Z</time>
      </trkpt>
      <trkpt lat="44.26745" lon="2.99758">
        <ele>997.4</ele>
        <time>2023-06-25T08:59:56Z</time>
      </trkpt>
      <trkpt lat="44.26742" lon="2.99749">
        <ele>997.1</ele>
        <time>2023-06-25T08:59:57Z</time>
      </trkpt>
      <trkpt lat="44.26741" lon="2.99741">
        <ele>996.8</ele>
        <time>2023-06-25T08:59:58Z</time>
      </trkpt>
      <trkpt lat="44.26739" lon="2.99732">
        <ele>996.4</ele>
        <time>2023-06-25T08:59:59Z</time>
      </trkpt>
      <trkpt lat="44.26736" lon="2.99724">
        <ele>996</ele>
        <time>2023-06-25T09:00:00Z</time>
      </trkpt>
      <trkpt lat="44.26734" lon="2.99717">
        <ele>995.7</ele>
        <time>2023-06-25T09:00:01Z</time>
      </trkpt>
      <trkpt lat="44.26732" lon="2.99709">
        <ele>995.3</ele>
        <time>2023-06-25T09:00:02Z</time>
      </trkpt>
      <trkpt lat="44.2673" lon="2.99701">
        <ele>995</ele>
        <time>2023-06-25T09:00:03Z</time>
      </trkpt>
      <trkpt lat="44.26727" lon="2.99693">
        <ele>994.6</ele>
        <time>2023-06-25T09:00:04Z</time>
      </trkpt>
      <trkpt lat="44.26725" lon="2.99683">
        <ele>994.1</ele>
        <time>2023-06-25T09:00:05Z</time>
      </trkpt>
      <trkpt lat="44.26724" lon="2.99673">
        <ele>993.6</ele>
        <time>2023-06-25T09:00:06Z</time>
      </trkpt>
      <trkpt lat="44.26721" lon="2.99663">
        <ele>993.1</ele>
        <time>2023-06-25T09:00:07Z</time>
      </trkpt>
      <trkpt lat="44.26719" lon="2.99653">
        <ele>992.7</ele>
        <time>2023-06-25T09:00:08Z</time>
      </trkpt>
      <trkpt lat="44.26716" lon="2.99643">
        <ele>992.3</ele>
        <time>2023-06-25T09:00:09Z</time>
      </trkpt>
      <trkpt lat="44.26713" lon="2.99633">
        <ele>991.9</ele>
        <time>2023-06-25T09:00:10Z</time>
      </trkpt>
      <trkpt lat="44.2671" lon="2.99622">
        <ele>991.5</ele>
        <time>2023-06-25T09:00:11Z</time>
      </trkpt>
      <trkpt lat="44.26707" lon="2.99612">
        <ele>991.2</ele>
        <time>2023-06-25T09:00:12Z</time>
      </trkpt>
      <trkpt lat="44.26705" lon="2.99601">
        <ele>990.8</ele>
        <time>2023-06-25T09:00:13Z</time>
      </trkpt>
      <trkpt lat="44.26702" lon="2.9959">
        <ele>990.4</ele>
        <time>2023-06-25T09:00:14Z</time>
      </trkpt>
      <trkpt lat="44.26699" lon="2.9958">
        <ele>990.1</ele>
        <time>2023-06-25T09:00:15Z</time>
      </trkpt>
      <trkpt lat="44.26696" lon="2.99569">
        <ele>989.9</ele>
        <time>2023-06-25T09:00:16Z</time>
      </trkpt>
      <trkpt lat="44.26694" lon="2.99558">
        <ele>989.6</ele>
        <time>2023-06-25T09:00:17Z</time>
      </trkpt>
      <trkpt lat="44.26691" lon="2.99548">
        <ele>989.5</ele>
        <time>2023-06-25T09:00:18Z</time>
      </trkpt>
      <trkpt lat="44.26687" lon="2.99539">
        <ele>989.3</ele>
        <time>2023-06-25T09:00:19Z</time>
      </trkpt>
      <trkpt lat="44.26683" lon="2.99531">
        <ele>989.3</ele>
        <time>2023-06-25T09:00:20Z</time>
      </trkpt>
      <trkpt lat="44.26677" lon="2.99525">
        <ele>989.4</ele>
        <time>2023-06-25T09:00:21Z</time>
      </trkpt>
      <trkpt lat="44.26671" lon="2.9952">
        <ele>989.4</ele>
        <time>2023-06-25T09:00:22Z</time>
      </trkpt>
      <trkpt lat="44.26665" lon="2.99515">
        <ele>989.5</ele>
        <time>2023-06-25T09:00:23Z</time>
      </trkpt>
      <trkpt lat="44.2666" lon="2.9951">
        <ele>989.6</ele>
        <time>2023-06-25T09:00:24Z</time>
      </trkpt>
      <trkpt lat="44.26655" lon="2.99505">
        <ele>989.8</ele>
        <time>2023-06-25T09:00:25Z</time>
      </trkpt>
      <trkpt lat="44.26651" lon="2.99501">
        <ele>990</ele>
        <time>2023-06-25T09:00:26Z</time>
      </trkpt>
      <trkpt lat="44.26647" lon="2.99496">
        <ele>990.1</ele>
        <time>2023-06-25T09:00:27Z</time>
      </trkpt>
      <trkpt lat="44.26643" lon="2.99492">
        <ele>990.2</ele>
        <time>2023-06-25T09:00:28Z</time>
      </trkpt>
      <trkpt lat="44.2664" lon="2.99487">
        <ele>990.2</ele>
        <time>2023-06-25T09:00:29Z</time>
      </trkpt>
      <trkpt lat="44.26637" lon="2.99483">
        <ele>990.3</ele>
        <time>2023-06-25T09:00:30Z</time>
      </trkpt>
      <trkpt lat="44.26636" lon="2.99481">
        <ele>990.3</ele>
        <time>2023-06-25T09:00:31Z</time>
      </trkpt>
      <trkpt lat="44.26633" lon="2.99477">
        <ele>990.3</ele>
        <time>2023-06-25T09:00:32Z</time>
      </trkpt>
      <trkpt lat="44.26631" lon="2.99474">
        <ele>990.3</ele>
        <time>2023-06-25T09:00:33Z</time>
      </trkpt>
      <trkpt lat="44.26629" lon="2.99471">
        <ele>990.3</ele>
        <time>2023-06-25T09:00:34Z</time>
      </trkpt>
      <trkpt lat="44.26627" lon="2.99468">
        <ele>990.3</ele>
        <time>2023-06-25T09:00:35Z</time>
      </trkpt>
      <trkpt lat="44.26625" lon="2.99464">
        <ele>990.3</ele>
        <time>2023-06-25T09:00:36Z</time>
      </trkpt>
      <trkpt lat="44.26624" lon="2.99463">
        <ele>990.3</ele>
        <time>2023-06-25T09:00:37Z</time>
      </trkpt>
      <trkpt lat="44.26621" lon="2.9946">
        <ele>990.4</ele>
        <time>2023-06-25T09:00:38Z</time>
      </trkpt>
      <trkpt lat="44.26618" lon="2.99458">
        <ele>990.4</ele>
        <time>2023-06-25T09:00:39Z</time>
      </trkpt>
      <trkpt lat="44.26615" lon="2.99456">
        <ele>990.4</ele>
        <time>2023-06-25T09:00:40Z</time>
      </trkpt>
      <trkpt lat="44.26611" lon="2.99452">
        <ele>990.4</ele>
        <time>2023-06-25T09:00:42Z</time>
      </trkpt>
      <trkpt lat="44.2661" lon="2.9945">
        <ele>990.4</ele>
        <time>2023-06-25T09:00:43Z</time>
      </trkpt>
      <trkpt lat="44.26609" lon="2.99448">
        <ele>990.4</ele>
        <time>2023-06-25T09:00:44Z</time>
      </trkpt>
      <trkpt lat="44.26605" lon="2.99444">
        <ele>990.3</ele>
        <time>2023-06-25T09:00:46Z</time>
      </trkpt>
      <trkpt lat="44.26602" lon="2.9944">
        <ele>990.3</ele>
        <time>2023-06-25T09:00:47Z</time>
      </trkpt>
      <trkpt lat="44.266" lon="2.99436">
        <ele>990.3</ele>
        <time>2023-06-25T09:00:48Z</time>
      </trkpt>
      <trkpt lat="44.26597" lon="2.99432">
        <ele>990.3</ele>
        <time>2023-06-25T09:00:49Z</time>
      </trkpt>
      <trkpt lat="44.26595" lon="2.99428">
        <ele>990.3</ele>
        <time>2023-06-25T09:00:50Z</time>
      </trkpt>
      <trkpt lat="44.26593" lon="2.99424">
        <ele>990.3</ele>
        <time>2023-06-25T09:00:51Z</time>
      </trkpt>
      <trkpt lat="44.2659" lon="2.9942">
        <ele>990.2</ele>
        <time>2023-06-25T09:00:52Z</time>
      </trkpt>
      <trkpt lat="44.26588" lon="2.99416">
        <ele>990.2</ele>
        <time>2023-06-25T09:00:53Z</time>
      </trkpt>
      <trkpt lat="44.26585" lon="2.99412">
        <ele>990.2</ele>
        <time>2023-06-25T09:00:54Z</time>
      </trkpt>
      <trkpt lat="44.26583" lon="2.99409">
        <ele>990.1</ele>
        <time>2023-06-25T09:00:56Z</time>
      </trkpt>
      <trkpt lat="44.26581" lon="2.99405">
        <ele>990.1</ele>
        <time>2023-06-25T09:00:57Z</time>
      </trkpt>
      <trkpt lat="44.26578" lon="2.99403">
        <ele>990</ele>
        <time>2023-06-25T09:00:58Z</time>
      </trkpt>
      <trkpt lat="44.26575" lon="2.99399">
        <ele>989.9</ele>
        <time>2023-06-25T09:00:59Z</time>
      </trkpt>
      <trkpt lat="44.26573" lon="2.99396">
        <ele>989.8</ele>
        <time>2023-06-25T09:01:00Z</time>
      </trkpt>
      <trkpt lat="44.26569" lon="2.99389">
        <ele>989.5</ele>
        <time>2023-06-25T09:01:02Z</time>
      </trkpt>
      <trkpt lat="44.26566" lon="2.99386">
        <ele>989.4</ele>
        <time>2023-06-25T09:01:03Z</time>
      </trkpt>
      <trkpt lat="44.26563" lon="2.99382">
        <ele>989.2</ele>
        <time>2023-06-25T09:01:04Z</time>
      </trkpt>
      <trkpt lat="44.26561" lon="2.99378">
        <ele>989.1</ele>
        <time>2023-06-25T09:01:05Z</time>
      </trkpt>
      <trkpt lat="44.26559" lon="2.99375">
        <ele>988.9</ele>
        <time>2023-06-25T09:01:06Z</time>
      </trkpt>
      <trkpt lat="44.26558" lon="2.99372">
        <ele>989</ele>
        <time>2023-06-25T09:01:08Z</time>
      </trkpt>
      <trkpt lat="44.26558" lon="2.99373">
        <ele>989.1</ele>
        <time>2023-06-25T09:01:09Z</time>
      </trkpt>
      <trkpt lat="44.26559" lon="2.99373">
        <ele>989.1</ele>
        <time>2023-06-25T09:01:10Z</time>
      </trkpt>
      <trkpt lat="44.26559" lon="2.99374">
        <ele>989.1</ele>
        <time>2023-06-25T09:01:12Z</time>
      </trkpt>
      <trkpt lat="44.26559" lon="2.99374">
        <ele>989.1</ele>
        <time>2023-06-25T09:01:13Z</time>
      </trkpt>
      <trkpt lat="44.26559" lon="2.99375">
        <ele>989.1</ele>
        <time>2023-06-25T09:01:14Z</time>
      </trkpt>
      <trkpt lat="44.2656" lon="2.99375">
        <ele>989.2</ele>
        <time>2023-06-25T09:01:15Z</time>
      </trkpt>
      <trkpt lat="44.2656" lon="2.99376">
        <ele>989.2</ele>
        <time>2023-06-25T09:01:16Z</time>
      </trkpt>
      <trkpt lat="44.26562" lon="2.99378">
        <ele>989.3</ele>
        <time>2023-06-25T09:01:17Z</time>
      </trkpt>
      <trkpt lat="44.26567" lon="2.99383">
        <ele>989.5</ele>
        <time>2023-06-25T09:01:19Z</time>
      </trkpt>
      <trkpt lat="44.2657" lon="2.99386">
        <ele>989.7</ele>
        <time>2023-06-25T09:01:20Z</time>
      </trkpt>
      <trkpt lat="44.26572" lon="2.9939">
        <ele>989.8</ele>
        <time>2023-06-25T09:01:21Z</time>
      </trkpt>
      <trkpt lat="44.26575" lon="2.99394">
        <ele>989.9</ele>
        <time>2023-06-25T09:01:22Z</time>
      </trkpt>
      <trkpt lat="44.26579" lon="2.99399">
        <ele>990</ele>
        <time>2023-06-25T09:01:23Z</time>
      </trkpt>
      <trkpt lat="44.26583" lon="2.99404">
        <ele>990.1</ele>
        <time>2023-06-25T09:01:25Z</time>
      </trkpt>
      <trkpt lat="44.26587" lon="2.99409">
        <ele>990.2</ele>
        <time>2023-06-25T09:01:26Z</time>
      </trkpt>
      <trkpt lat="44.26592" lon="2.99417">
        <ele>990.2</ele>
        <time>2023-06-25T09:01:27Z</time>
      </trkpt>
      <trkpt lat="44.26595" lon="2.99422">
        <ele>990.3</ele>
        <time>2023-06-25T09:01:28Z</time>
      </trkpt>
      <trkpt lat="44.26598" lon="2.99427">
        <ele>990.3</ele>
        <time>2023-06-25T09:01:29Z</time>
      </trkpt>
      <trkpt lat="44.26602" lon="2.99432">
        <ele>990.3</ele>
        <time>2023-06-25T09:01:30Z</time>
      </trkpt>
      <trkpt lat="44.26605" lon="2.99437">
        <ele>990.3</ele>
        <time>2023-06-25T09:01:31Z</time>
      </trkpt>
      <trkpt lat="44.26608" lon="2.99442">
        <ele>990.4</ele>
        <time>2023-06-25T09:01:32Z</time>
      </trkpt>
      <trkpt lat="44.26611" lon="2.99447">
        <ele>990.4</ele>
        <time>2023-06-25T09:01:33Z</time>
      </trkpt>
      <trkpt lat="44.26615" lon="2.99452">
        <ele>990.4</ele>
        <time>2023-06-25T09:01:34Z</time>
      </trkpt>
      <trkpt lat="44.26619" lon="2.99456">
        <ele>990.4</ele>
        <time>2023-06-25T09:01:35Z</time>
      </trkpt>
      <trkpt lat="44.26622" lon="2.9946">
        <ele>990.4</ele>
        <time>2023-06-25T09:01:36Z</time>
      </trkpt>
      <trkpt lat="44.26625" lon="2.99466">
        <ele>990.3</ele>
        <time>2023-06-25T09:01:37Z</time>
      </trkpt>
      <trkpt lat="44.26629" lon="2.99473">
        <ele>990.3</ele>
        <time>2023-06-25T09:01:38Z</time>
      </trkpt>
      <trkpt lat="44.26632" lon="2.99478">
        <ele>990.3</ele>
        <time>2023-06-25T09:01:39Z</time>
      </trkpt>
      <trkpt lat="44.26635" lon="2.99483">
        <ele>990.3</ele>
        <time>2023-06-25T09:01:40Z</time>
      </trkpt>
      <trkpt lat="44.26638" lon="2.99487">
        <ele>990.2</ele>
        <time>2023-06-25T09:01:41Z</time>
      </trkpt>
      <trkpt lat="44.2664" lon="2.99491">
        <ele>990.2</ele>
        <time>2023-06-25T09:01:42Z</time>
      </trkpt>
      <trkpt lat="44.26641" lon="2.99493">
        <ele>990.3</ele>
        <time>2023-06-25T09:01:43Z</time>
      </trkpt>
      <trkpt lat="44.26641" lon="2.99496">
        <ele>990.3</ele>
        <time>2023-06-25T09:01:44Z</time>
      </trkpt>
      <trkpt lat="44.26641" lon="2.99497">
        <ele>990.3</ele>
        <time>2023-06-25T09:01:45Z</time>
      </trkpt>
      <trkpt lat="44.26641" lon="2.99499">
        <ele>990.3</ele>
        <time>2023-06-25T09:01:46Z</time>
      </trkpt>
      <trkpt lat="44.26641" lon="2.99498">
        <ele>990.3</ele>
        <time>2023-06-25T09:01:47Z</time>
      </trkpt>
      <trkpt lat="44.26641" lon="2.99498">
        <ele>990.3</ele>
        <time>2023-06-25T09:01:48Z</time>
      </trkpt>
      <trkpt lat="44.2664" lon="2.99498">
        <ele>990.3</ele>
        <time>2023-06-25T09:01:49Z</time>
      </trkpt>
      <trkpt lat="44.26638" lon="2.99498">
        <ele>990.3</ele>
        <time>2023-06-25T09:01:51Z</time>
      </trkpt>
      <trkpt lat="44.26637" lon="2.99497">
        <ele>990.3</ele>
        <time>2023-06-25T09:01:52Z</time>
      </trkpt>
      <trkpt lat="44.26634" lon="2.99497">
        <ele>990.3</ele>
        <time>2023-06-25T09:01:53Z</time>
      </trkpt>
      <trkpt lat="44.26631" lon="2.99497">
        <ele>990.2</ele>
        <time>2023-06-25T09:01:54Z</time>
      </trkpt>
      <trkpt lat="44.26628" lon="2.99497">
        <ele>990.2</ele>
        <time>2023-06-25T09:01:55Z</time>
      </trkpt>
      <trkpt lat="44.26624" lon="2.99498">
        <ele>990.1</ele>
        <time>2023-06-25T09:01:56Z</time>
      </trkpt>
      <trkpt lat="44.2662" lon="2.99497">
        <ele>990.1</ele>
        <time>2023-06-25T09:01:57Z</time>
      </trkpt>
      <trkpt lat="44.26616" lon="2.99496">
        <ele>990</ele>
        <time>2023-06-25T09:01:59Z</time>
      </trkpt>
      <trkpt lat="44.26613" lon="2.99495">
        <ele>990</ele>
        <time>2023-06-25T09:02:00Z</time>
      </trkpt>
      <trkpt lat="44.2661" lon="2.99494">
        <ele>990</ele>
        <time>2023-06-25T09:02:01Z</time>
      </trkpt>
      <trkpt lat="44.26608" lon="2.99493">
        <ele>990</ele>
        <time>2023-06-25T09:02:02Z</time>
      </trkpt>
      <trkpt lat="44.26606" lon="2.99492">
        <ele>990</ele>
        <time>2023-06-25T09:02:03Z</time>
      </trkpt>
      <trkpt lat="44.266" lon="2.99491">
        <ele>990</ele>
        <time>2023-06-25T09:02:05Z</time>
      </trkpt>
      <trkpt lat="44.26597" lon="2.9949">
        <ele>990</ele>
        <time>2023-06-25T09:02:06Z</time>
      </trkpt>
      <trkpt lat="44.26594" lon="2.9949">
        <ele>990.1</ele>
        <time>2023-06-25T09:02:07Z</time>
      </trkpt>
      <trkpt lat="44.2659" lon="2.99489">
        <ele>990.1</ele>
        <time>2023-06-25T09:02:08Z</time>
      </trkpt>
      <trkpt lat="44.26586" lon="2.99488">
        <ele>990.2</ele>
        <time>2023-06-25T09:02:09Z</time>
      </trkpt>
      <trkpt lat="44.26582" lon="2.99486">
        <ele>990.3</ele>
        <time>2023-06-25T09:02:11Z</time>
      </trkpt>
      <trkpt lat="44.26579" lon="2.99482">
        <ele>990.4</ele>
        <time>2023-06-25T09:02:12Z</time>
      </trkpt>
      <trkpt lat="44.26576" lon="2.9948">
        <ele>990.5</ele>
        <time>2023-06-25T09:02:13Z</time>
      </trkpt>
      <trkpt lat="44.26573" lon="2.99478">
        <ele>990.6</ele>
        <time>2023-06-25T09:02:14Z</time>
      </trkpt>
      <trkpt lat="44.2657" lon="2.99476">
        <ele>990.7</ele>
        <time>2023-06-25T09:02:15Z</time>
      </trkpt>
      <trkpt lat="44.26567" lon="2.99473">
        <ele>990.8</ele>
        <time>2023-06-25T09:02:16Z</time>
      </trkpt>
      <trkpt lat="44.26563" lon="2.99471">
        <ele>990.9</ele>
        <time>2023-06-25T09:02:18Z</time>
      </trkpt>
      <trkpt lat="44.2656" lon="2.99469">
        <ele>991</ele>
        <time>2023-06-25T09:02:19Z</time>
      </trkpt>
      <trkpt lat="44.26559" lon="2.99466">
        <ele>991.1</ele>
        <time>2023-06-25T09:02:20Z</time>
      </trkpt>
      <trkpt lat="44.26556" lon="2.99462">
        <ele>991.3</ele>
        <time>2023-06-25T09:02:21Z</time>
      </trkpt>
      <trkpt lat="44.26554" lon="2.9946">
        <ele>991.4</ele>
        <time>2023-06-25T09:02:22Z</time>
      </trkpt>
      <trkpt lat="44.26551" lon="2.99457">
        <ele>991.5</ele>
        <time>2023-06-25T09:02:23Z</time>
      </trkpt>
      <trkpt lat="44.26546" lon="2.99452">
        <ele>991.6</ele>
        <time>2023-06-25T09:02:25Z</time>
      </trkpt>
      <trkpt lat="44.26544" lon="2.99449">
        <ele>991.6</ele>
        <time>2023-06-25T09:02:26Z</time>
      </trkpt>
      <trkpt lat="44.26541" lon="2.99445">
        <ele>991.6</ele>
        <time>2023-06-25T09:02:28Z</time>
      </trkpt>
      <trkpt lat="44.26538" lon="2.99442">
        <ele>991.6</ele>
        <time>2023-06-25T09:02:29Z</time>
      </trkpt>
      <trkpt lat="44.26535" lon="2.99441">
        <ele>991.6</ele>
        <time>2023-06-25T09:02:30Z</time>
      </trkpt>
      <trkpt lat="44.26531" lon="2.99436">
        <ele>991.5</ele>
        <time>2023-06-25T09:02:32Z</time>
      </trkpt>
      <trkpt lat="44.26529" lon="2.99433">
        <ele>991.5</ele>
        <time>2023-06-25T09:02:33Z</time>
      </trkpt>
      <trkpt lat="44.26528" lon="2.99431">
        <ele>991.4</ele>
        <time>2023-06-25T09:02:34Z</time>
      </trkpt>
      <trkpt lat="44.26527" lon="2.99431">
        <ele>991.4</ele>
        <time>2023-06-25T09:02:35Z</time>
      </trkpt>
      <trkpt lat="44.26527" lon="2.9943">
        <ele>991.4</ele>
        <time>2023-06-25T09:02:36Z</time>
      </trkpt>
      <trkpt lat="44.26526" lon="2.9943">
        <ele>991.4</ele>
        <time>2023-06-25T09:02:38Z</time>
      </trkpt>
      <trkpt lat="44.26526" lon="2.99429">
        <ele>991.4</ele>
        <time>2023-06-25T09:02:39Z</time>
      </trkpt>
      <trkpt lat="44.26525" lon="2.99429">
        <ele>991.4</ele>
        <time>2023-06-25T09:02:41Z</time>
      </trkpt>
      <trkpt lat="44.26524" lon="2.99428">
        <ele>991.3</ele>
        <time>2023-06-25T09:02:42Z</time>
      </trkpt>
      <trkpt lat="44.26524" lon="2.99428">
        <ele>991.3</ele>
        <time>2023-06-25T09:02:44Z</time>
      </trkpt>
      <trkpt lat="44.26523" lon="2.99427">
        <ele>991.3</ele>
        <time>2023-06-25T09:05:09Z</time>
      </trkpt>
      <trkpt lat="44.26523" lon="2.99426">
        <ele>991.3</ele>
        <time>2023-06-25T09:05:10Z</time>
      </trkpt>
      <trkpt lat="44.26519" lon="2.99423">
        <ele>991.2</ele>
        <time>2023-06-25T09:05:11Z</time>
      </trkpt>
      <trkpt lat="44.26516" lon="2.9942">
        <ele>991.1</ele>
        <time>2023-06-25T09:05:12Z</time>
      </trkpt>
      <trkpt lat="44.26513" lon="2.99417">
        <ele>990.9</ele>
        <time>2023-06-25T09:05:14Z</time>
      </trkpt>
      <trkpt lat="44.2651" lon="2.99414">
        <ele>990.7</ele>
        <time>2023-06-25T09:05:15Z</time>
      </trkpt>
      <trkpt lat="44.26506" lon="2.99411">
        <ele>990.5</ele>
        <time>2023-06-25T09:05:16Z</time>
      </trkpt>
      <trkpt lat="44.26503" lon="2.99408">
        <ele>990.3</ele>
        <time>2023-06-25T09:05:17Z</time>
      </trkpt>
      <trkpt lat="44.265" lon="2.99405">
        <ele>990</ele>
        <time>2023-06-25T09:05:18Z</time>
      </trkpt>
      <trkpt lat="44.26497" lon="2.99402">
        <ele>989.7</ele>
        <time>2023-06-25T09:05:19Z</time>
      </trkpt>
      <trkpt lat="44.26494" lon="2.99398">
        <ele>989.3</ele>
        <time>2023-06-25T09:05:20Z</time>
      </trkpt>
      <trkpt lat="44.26491" lon="2.99394">
        <ele>988.9</ele>
        <time>2023-06-25T09:05:22Z</time>
      </trkpt>
      <trkpt lat="44.26488" lon="2.99389">
        <ele>988.4</ele>
        <time>2023-06-25T09:05:23Z</time>
      </trkpt>
      <trkpt lat="44.26486" lon="2.99385">
        <ele>988.1</ele>
        <time>2023-06-25T09:05:24Z</time>
      </trkpt>
      <trkpt lat="44.26484" lon="2.9938">
        <ele>987.7</ele>
        <time>2023-06-25T09:05:25Z</time>
      </trkpt>
      <trkpt lat="44.26482" lon="2.99374">
        <ele>987.3</ele>
        <time>2023-06-25T09:05:26Z</time>
      </trkpt>
      <trkpt lat="44.26481" lon="2.99369">
        <ele>986.9</ele>
        <time>2023-06-25T09:05:27Z</time>
      </trkpt>
      <trkpt lat="44.26479" lon="2.99364">
        <ele>986.5</ele>
        <time>2023-06-25T09:05:29Z</time>
      </trkpt>
      <trkpt lat="44.26478" lon="2.99359">
        <ele>986.1</ele>
        <time>2023-06-25T09:05:30Z</time>
      </trkpt>
      <trkpt lat="44.26478" lon="2.99355">
        <ele>985.8</ele>
        <time>2023-06-25T09:05:31Z</time>
      </trkpt>
      <trkpt lat="44.26478" lon="2.99351">
        <ele>985.5</ele>
        <time>2023-06-25T09:05:32Z</time>
      </trkpt>
      <trkpt lat="44.26477" lon="2.99348">
        <ele>985.3</ele>
        <time>2023-06-25T09:05:33Z</time>
      </trkpt>
      <trkpt lat="44.26476" lon="2.99343">
        <ele>984.9</ele>
        <time>2023-06-25T09:05:35Z</time>
      </trkpt>
      <trkpt lat="44.26476" lon="2.99339">
        <ele>984.6</ele>
        <time>2023-06-25T09:05:36Z</time>
      </trkpt>
      <trkpt lat="44.26476" lon="2.99334">
        <ele>984.2</ele>
        <time>2023-06-25T09:05:37Z</time>
      </trkpt>
      <trkpt lat="44.26476" lon="2.99329">
        <ele>983.8</ele>
        <time>2023-06-25T09:05:39Z</time>
      </trkpt>
      <trkpt lat="44.26475" lon="2.99323">
        <ele>983.3</ele>
        <time>2023-06-25T09:05:40Z</time>
      </trkpt>
      <trkpt lat="44.26475" lon="2.99321">
        <ele>983.2</ele>
        <time>2023-06-25T09:05:41Z</time>
      </trkpt>
      <trkpt lat="44.26474" lon="2.99317">
        <ele>982.8</ele>
        <time>2023-06-25T09:05:42Z</time>
      </trkpt>
      <trkpt lat="44.26473" lon="2.99313">
        <ele>982.5</ele>
        <time>2023-06-25T09:05:43Z</time>
      </trkpt>
      <trkpt lat="44.26473" lon="2.99309">
        <ele>982.2</ele>
        <time>2023-06-25T09:05:44Z</time>
      </trkpt>
      <trkpt lat="44.26472" lon="2.99302">
        <ele>981.6</ele>
        <time>2023-06-25T09:05:46Z</time>
      </trkpt>
      <trkpt lat="44.26472" lon="2.99299">
        <ele>981.3</ele>
        <time>2023-06-25T09:05:48Z</time>
      </trkpt>
      <trkpt lat="44.26471" lon="2.99294">
        <ele>980.9</ele>
        <time>2023-06-25T09:05:49Z</time>
      </trkpt>
      <trkpt lat="44.2647" lon="2.99292">
        <ele>980.8</ele>
        <time>2023-06-25T09:05:50Z</time>
      </trkpt>
      <trkpt lat="44.2647" lon="2.99288">
        <ele>980.5</ele>
        <time>2023-06-25T09:05:51Z</time>
      </trkpt>
      <trkpt lat="44.2647" lon="2.99287">
        <ele>980.4</ele>
        <time>2023-06-25T09:05:52Z</time>
      </trkpt>
      <trkpt lat="44.26469" lon="2.99282">
        <ele>980.1</ele>
        <time>2023-06-25T09:05:53Z</time>
      </trkpt>
      <trkpt lat="44.26468" lon="2.9928">
        <ele>980</ele>
        <time>2023-06-25T09:05:54Z</time>
      </trkpt>
      <trkpt lat="44.26467" lon="2.99277">
        <ele>979.7</ele>
        <time>2023-06-25T09:05:56Z</time>
      </trkpt>
      <trkpt lat="44.26466" lon="2.99272">
        <ele>979.3</ele>
        <time>2023-06-25T09:05:57Z</time>
      </trkpt>
      <trkpt lat="44.26464" lon="2.99268">
        <ele>978.9</ele>
        <time>2023-06-25T09:05:58Z</time>
      </trkpt>
      <trkpt lat="44.26464" lon="2.99266">
        <ele>978.7</ele>
        <time>2023-06-25T09:05:59Z</time>
      </trkpt>
      <trkpt lat="44.26463" lon="2.99262">
        <ele>978.4</ele>
        <time>2023-06-25T09:06:01Z</time>
      </trkpt>
      <trkpt lat="44.26461" lon="2.99259">
        <ele>978.1</ele>
        <time>2023-06-25T09:06:02Z</time>
      </trkpt>
      <trkpt lat="44.2646" lon="2.99256">
        <ele>977.8</ele>
        <time>2023-06-25T09:06:03Z</time>
      </trkpt>
      <trkpt lat="44.26459" lon="2.99253">
        <ele>977.5</ele>
        <time>2023-06-25T09:06:04Z</time>
      </trkpt>
      <trkpt lat="44.26457" lon="2.9925">
        <ele>977.2</ele>
        <time>2023-06-25T09:06:06Z</time>
      </trkpt>
      <trkpt lat="44.26456" lon="2.99247">
        <ele>976.9</ele>
        <time>2023-06-25T09:06:07Z</time>
      </trkpt>
      <trkpt lat="44.26455" lon="2.99245">
        <ele>976.7</ele>
        <time>2023-06-25T09:06:09Z</time>
      </trkpt>
      <trkpt lat="44.26454" lon="2.99243">
        <ele>976.6</ele>
        <time>2023-06-25T09:06:10Z</time>
      </trkpt>
      <trkpt lat="44.26454" lon="2.9924">
        <ele>976.3</ele>
        <time>2023-06-25T09:06:11Z</time>
      </trkpt>
      <trkpt lat="44.26453" lon="2.99236">
        <ele>976</ele>
        <time>2023-06-25T09:06:12Z</time>
      </trkpt>
      <trkpt lat="44.2645" lon="2.99228">
        <ele>975.2</ele>
        <time>2023-06-25T09:06:14Z</time>
      </trkpt>
      <trkpt lat="44.26449" lon="2.99224">
        <ele>974.9</ele>
        <time>2023-06-25T09:06:16Z</time>
      </trkpt>
      <trkpt lat="44.26449" lon="2.9922">
        <ele>974.5</ele>
        <time>2023-06-25T09:06:17Z</time>
      </trkpt>
      <trkpt lat="44.26448" lon="2.99216">
        <ele>974.2</ele>
        <time>2023-06-25T09:06:18Z</time>
      </trkpt>
      <trkpt lat="44.26446" lon="2.9921">
        <ele>973.6</ele>
        <time>2023-06-25T09:06:20Z</time>
      </trkpt>
      <trkpt lat="44.26445" lon="2.99207">
        <ele>973.3</ele>
        <time>2023-06-25T09:06:21Z</time>
      </trkpt>
      <trkpt lat="44.26444" lon="2.99205">
        <ele>973</ele>
        <time>2023-06-25T09:06:23Z</time>
      </trkpt>
      <trkpt lat="44.26444" lon="2.99203">
        <ele>972.8</ele>
        <time>2023-06-25T09:06:24Z</time>
      </trkpt>
      <trkpt lat="44.26442" lon="2.99199">
        <ele>972.4</ele>
        <time>2023-06-25T09:06:25Z</time>
      </trkpt>
      <trkpt lat="44.26442" lon="2.99198">
        <ele>972.2</ele>
        <time>2023-06-25T09:06:26Z</time>
      </trkpt>
      <trkpt lat="44.26441" lon="2.99195">
        <ele>971.8</ele>
        <time>2023-06-25T09:06:27Z</time>
      </trkpt>
      <trkpt lat="44.2644" lon="2.9919">
        <ele>971.3</ele>
        <time>2023-06-25T09:06:29Z</time>
      </trkpt>
      <trkpt lat="44.26438" lon="2.99186">
        <ele>970.8</ele>
        <time>2023-06-25T09:06:30Z</time>
      </trkpt>
      <trkpt lat="44.26438" lon="2.99184">
        <ele>970.6</ele>
        <time>2023-06-25T09:06:31Z</time>
      </trkpt>
      <trkpt lat="44.26436" lon="2.99179">
        <ele>970</ele>
        <time>2023-06-25T09:06:32Z</time>
      </trkpt>
      <trkpt lat="44.26436" lon="2.99177">
        <ele>969.8</ele>
        <time>2023-06-25T09:06:33Z</time>
      </trkpt>
      <trkpt lat="44.26435" lon="2.99173">
        <ele>969.3</ele>
        <time>2023-06-25T09:06:34Z</time>
      </trkpt>
      <trkpt lat="44.26433" lon="2.99169">
        <ele>968.8</ele>
        <time>2023-06-25T09:06:36Z</time>
      </trkpt>
      <trkpt lat="44.26432" lon="2.99164">
        <ele>968.4</ele>
        <time>2023-06-25T09:06:37Z</time>
      </trkpt>
      <trkpt lat="44.26431" lon="2.9916">
        <ele>967.9</ele>
        <time>2023-06-25T09:06:38Z</time>
      </trkpt>
      <trkpt lat="44.2643" lon="2.99158">
        <ele>967.7</ele>
        <time>2023-06-25T09:06:39Z</time>
      </trkpt>
      <trkpt lat="44.26429" lon="2.99153">
        <ele>967.1</ele>
        <time>2023-06-25T09:06:40Z</time>
      </trkpt>
      <trkpt lat="44.26429" lon="2.99151">
        <ele>966.9</ele>
        <time>2023-06-25T09:06:41Z</time>
      </trkpt>
      <trkpt lat="44.26428" lon="2.99148">
        <ele>966.5</ele>
        <time>2023-06-25T09:06:42Z</time>
      </trkpt>
      <trkpt lat="44.26426" lon="2.99141">
        <ele>965.8</ele>
        <time>2023-06-25T09:06:44Z</time>
      </trkpt>
      <trkpt lat="44.26425" lon="2.99139">
        <ele>965.6</ele>
        <time>2023-06-25T09:06:45Z</time>
      </trkpt>
      <trkpt lat="44.26424" lon="2.99137">
        <ele>965.4</ele>
        <time>2023-06-25T09:06:46Z</time>
      </trkpt>
      <trkpt lat="44.26422" lon="2.99133">
        <ele>964.9</ele>
        <time>2023-06-25T09:06:47Z</time>
      </trkpt>
      <trkpt lat="44.26422" lon="2.99131">
        <ele>964.7</ele>
        <time>2023-06-25T09:06:48Z</time>
      </trkpt>
      <trkpt lat="44.2642" lon="2.99127">
        <ele>964.2</ele>
        <time>2023-06-25T09:06:49Z</time>
      </trkpt>
      <trkpt lat="44.26419" lon="2.99123">
        <ele>963.8</ele>
        <time>2023-06-25T09:06:51Z</time>
      </trkpt>
      <trkpt lat="44.26418" lon="2.99119">
        <ele>963.3</ele>
        <time>2023-06-25T09:06:52Z</time>
      </trkpt>
      <trkpt lat="44.26417" lon="2.99114">
        <ele>962.8</ele>
        <time>2023-06-25T09:06:53Z</time>
      </trkpt>
      <trkpt lat="44.26416" lon="2.9911">
        <ele>962.3</ele>
        <time>2023-06-25T09:06:54Z</time>
      </trkpt>
      <trkpt lat="44.26415" lon="2.99105">
        <ele>961.9</ele>
        <time>2023-06-25T09:06:55Z</time>
      </trkpt>
      <trkpt lat="44.26414" lon="2.99101">
        <ele>961.5</ele>
        <time>2023-06-25T09:06:56Z</time>
      </trkpt>
      <trkpt lat="44.26413" lon="2.99098">
        <ele>961.2</ele>
        <time>2023-06-25T09:06:57Z</time>
      </trkpt>
      <trkpt lat="44.26412" lon="2.99093">
        <ele>960.8</ele>
        <time>2023-06-25T09:06:59Z</time>
      </trkpt>
      <trkpt lat="44.26411" lon="2.99088">
        <ele>960.3</ele>
        <time>2023-06-25T09:07:00Z</time>
      </trkpt>
      <trkpt lat="44.26411" lon="2.99087">
        <ele>960.2</ele>
        <time>2023-06-25T09:07:01Z</time>
      </trkpt>
      <trkpt lat="44.26409" lon="2.99082">
        <ele>959.8</ele>
        <time>2023-06-25T09:07:02Z</time>
      </trkpt>
      <trkpt lat="44.26409" lon="2.99081">
        <ele>959.7</ele>
        <time>2023-06-25T09:07:03Z</time>
      </trkpt>
      <trkpt lat="44.26407" lon="2.99076">
        <ele>959.2</ele>
        <time>2023-06-25T09:07:04Z</time>
      </trkpt>
      <trkpt lat="44.26407" lon="2.99075">
        <ele>959.1</ele>
        <time>2023-06-25T09:07:05Z</time>
      </trkpt>
      <trkpt lat="44.26406" lon="2.9907">
        <ele>958.7</ele>
        <time>2023-06-25T09:07:07Z</time>
      </trkpt>
      <trkpt lat="44.26405" lon="2.99066">
        <ele>958.3</ele>
        <time>2023-06-25T09:07:08Z</time>
      </trkpt>
      <trkpt lat="44.26404" lon="2.9906">
        <ele>957.9</ele>
        <time>2023-06-25T09:07:09Z</time>
      </trkpt>
      <trkpt lat="44.26404" lon="2.99058">
        <ele>957.7</ele>
        <time>2023-06-25T09:07:10Z</time>
      </trkpt>
      <trkpt lat="44.26404" lon="2.99054">
        <ele>957.4</ele>
        <time>2023-06-25T09:07:11Z</time>
      </trkpt>
      <trkpt lat="44.26404" lon="2.99052">
        <ele>957.2</ele>
        <time>2023-06-25T09:07:12Z</time>
      </trkpt>
      <trkpt lat="44.26404" lon="2.99048">
        <ele>956.9</ele>
        <time>2023-06-25T09:07:13Z</time>
      </trkpt>
      <trkpt lat="44.26403" lon="2.99044">
        <ele>956.6</ele>
        <time>2023-06-25T09:07:15Z</time>
      </trkpt>
      <trkpt lat="44.26402" lon="2.9904">
        <ele>956.2</ele>
        <time>2023-06-25T09:07:16Z</time>
      </trkpt>
      <trkpt lat="44.26402" lon="2.99035">
        <ele>955.8</ele>
        <time>2023-06-25T09:07:17Z</time>
      </trkpt>
      <trkpt lat="44.26402" lon="2.9903">
        <ele>955.4</ele>
        <time>2023-06-25T09:07:19Z</time>
      </trkpt>
      <trkpt lat="44.26401" lon="2.99026">
        <ele>955.1</ele>
        <time>2023-06-25T09:07:20Z</time>
      </trkpt>
      <trkpt lat="44.264" lon="2.99022">
        <ele>954.7</ele>
        <time>2023-06-25T09:07:21Z</time>
      </trkpt>
      <trkpt lat="44.26397" lon="2.9902">
        <ele>954.4</ele>
        <time>2023-06-25T09:07:23Z</time>
      </trkpt>
      <trkpt lat="44.26395" lon="2.99017">
        <ele>954.2</ele>
        <time>2023-06-25T09:07:24Z</time>
      </trkpt>
      <trkpt lat="44.26393" lon="2.99015">
        <ele>953.9</ele>
        <time>2023-06-25T09:07:25Z</time>
      </trkpt>
      <trkpt lat="44.2639" lon="2.99012">
        <ele>951.8</ele>
        <time>2023-06-25T09:07:26Z</time>
      </trkpt>
      <trkpt lat="44.26386" lon="2.99012">
        <ele>951.4</ele>
        <time>2023-06-25T09:07:27Z</time>
      </trkpt>
      <trkpt lat="44.26384" lon="2.99012">
        <ele>951.2</ele>
        <time>2023-06-25T09:07:28Z</time>
      </trkpt>
      <trkpt lat="44.26379" lon="2.99016">
        <ele>950.6</ele>
        <time>2023-06-25T09:07:30Z</time>
      </trkpt>
      <trkpt lat="44.26375" lon="2.9902">
        <ele>950.1</ele>
        <time>2023-06-25T09:07:32Z</time>
      </trkpt>
      <trkpt lat="44.26371" lon="2.99024">
        <ele>949.7</ele>
        <time>2023-06-25T09:07:33Z</time>
      </trkpt>
      <trkpt lat="44.26368" lon="2.99027">
        <ele>949.3</ele>
        <time>2023-06-25T09:07:34Z</time>
      </trkpt>
      <trkpt lat="44.26364" lon="2.9903">
        <ele>948.8</ele>
        <time>2023-06-25T09:07:35Z</time>
      </trkpt>
      <trkpt lat="44.26359" lon="2.99036">
        <ele>948.1</ele>
        <time>2023-06-25T09:07:36Z</time>
      </trkpt>
      <trkpt lat="44.26355" lon="2.99041">
        <ele>947.3</ele>
        <time>2023-06-25T09:07:37Z</time>
      </trkpt>
      <trkpt lat="44.26348" lon="2.99046">
        <ele>946.2</ele>
        <time>2023-06-25T09:07:39Z</time>
      </trkpt>
      <trkpt lat="44.26339" lon="2.99053">
        <ele>944.4</ele>
        <time>2023-06-25T09:07:40Z</time>
      </trkpt>
      <trkpt lat="44.26333" lon="2.99058">
        <ele>943.3</ele>
        <time>2023-06-25T09:07:41Z</time>
      </trkpt>
      <trkpt lat="44.26328" lon="2.99061">
        <ele>942.2</ele>
        <time>2023-06-25T09:07:42Z</time>
      </trkpt>
      <trkpt lat="44.26323" lon="2.99065">
        <ele>941.1</ele>
        <time>2023-06-25T09:07:43Z</time>
      </trkpt>
      <trkpt lat="44.26317" lon="2.99068">
        <ele>939.9</ele>
        <time>2023-06-25T09:07:44Z</time>
      </trkpt>
      <trkpt lat="44.26312" lon="2.99072">
        <ele>938.6</ele>
        <time>2023-06-25T09:07:45Z</time>
      </trkpt>
      <trkpt lat="44.26306" lon="2.99075">
        <ele>937.2</ele>
        <time>2023-06-25T09:07:46Z</time>
      </trkpt>
      <trkpt lat="44.26299" lon="2.9908">
        <ele>935.5</ele>
        <time>2023-06-25T09:07:47Z</time>
      </trkpt>
      <trkpt lat="44.26291" lon="2.99086">
        <ele>933.7</ele>
        <time>2023-06-25T09:07:48Z</time>
      </trkpt>
      <trkpt lat="44.26283" lon="2.99094">
        <ele>932</ele>
        <time>2023-06-25T09:07:49Z</time>
      </trkpt>
      <trkpt lat="44.26277" lon="2.99106">
        <ele>930.3</ele>
        <time>2023-06-25T09:07:50Z</time>
      </trkpt>
      <trkpt lat="44.26272" lon="2.99119">
        <ele>928.5</ele>
        <time>2023-06-25T09:07:51Z</time>
      </trkpt>
      <trkpt lat="44.26268" lon="2.99133">
        <ele>926.8</ele>
        <time>2023-06-25T09:07:52Z</time>
      </trkpt>
      <trkpt lat="44.26264" lon="2.99146">
        <ele>925</ele>
        <time>2023-06-25T09:07:53Z</time>
      </trkpt>
      <trkpt lat="44.2626" lon="2.99159">
        <ele>923.4</ele>
        <time>2023-06-25T09:07:54Z</time>
      </trkpt>
      <trkpt lat="44.26256" lon="2.9917">
        <ele>922.1</ele>
        <time>2023-06-25T09:07:55Z</time>
      </trkpt>
      <trkpt lat="44.26252" lon="2.99181">
        <ele>920.8</ele>
        <time>2023-06-25T09:07:56Z</time>
      </trkpt>
      <trkpt lat="44.26247" lon="2.99193">
        <ele>919.6</ele>
        <time>2023-06-25T09:07:57Z</time>
      </trkpt>
      <trkpt lat="44.26241" lon="2.99203">
        <ele>918.5</ele>
        <time>2023-06-25T09:07:58Z</time>
      </trkpt>
      <trkpt lat="44.26234" lon="2.99213">
        <ele>917.6</ele>
        <time>2023-06-25T09:07:59Z</time>
      </trkpt>
      <trkpt lat="44.26226" lon="2.99222">
        <ele>916.8</ele>
        <time>2023-06-25T09:08:00Z</time>
      </trkpt>
      <trkpt lat="44.26218" lon="2.9923">
        <ele>916.2</ele>
        <time>2023-06-25T09:08:01Z</time>
      </trkpt>
      <trkpt lat="44.2621" lon="2.99239">
        <ele>915.5</ele>
        <time>2023-06-25T09:08:02Z</time>
      </trkpt>
      <trkpt lat="44.26202" lon="2.99247">
        <ele>914.9</ele>
        <time>2023-06-25T09:08:03Z</time>
      </trkpt>
      <trkpt lat="44.26195" lon="2.99255">
        <ele>914.4</ele>
        <time>2023-06-25T09:08:04Z</time>
      </trkpt>
      <trkpt lat="44.26187" lon="2.99262">
        <ele>913.8</ele>
        <time>2023-06-25T09:08:05Z</time>
      </trkpt>
      <trkpt lat="44.2618" lon="2.99269">
        <ele>913.4</ele>
        <time>2023-06-25T09:08:06Z</time>
      </trkpt>
      <trkpt lat="44.26174" lon="2.99274">
        <ele>913</ele>
        <time>2023-06-25T09:08:07Z</time>
      </trkpt>
      <trkpt lat="44.26169" lon="2.99279">
        <ele>912.7</ele>
        <time>2023-06-25T09:08:08Z</time>
      </trkpt>
      <trkpt lat="44.26164" lon="2.99283">
        <ele>912.4</ele>
        <time>2023-06-25T09:08:09Z</time>
      </trkpt>
      <trkpt lat="44.2616" lon="2.99284">
        <ele>912.2</ele>
        <time>2023-06-25T09:08:10Z</time>
      </trkpt>
      <trkpt lat="44.26155" lon="2.99283">
        <ele>912</ele>
        <time>2023-06-25T09:08:11Z</time>
      </trkpt>
      <trkpt lat="44.26151" lon="2.9928">
        <ele>911.8</ele>
        <time>2023-06-25T09:08:12Z</time>
      </trkpt>
      <trkpt lat="44.26146" lon="2.99276">
        <ele>911.7</ele>
        <time>2023-06-25T09:08:13Z</time>
      </trkpt>
      <trkpt lat="44.26143" lon="2.9927">
        <ele>911.7</ele>
        <time>2023-06-25T09:08:14Z</time>
      </trkpt>
      <trkpt lat="44.2614" lon="2.99266">
        <ele>911.7</ele>
        <time>2023-06-25T09:08:15Z</time>
      </trkpt>
      <trkpt lat="44.26136" lon="2.99261">
        <ele>911.7</ele>
        <time>2023-06-25T09:08:16Z</time>
      </trkpt>
      <trkpt lat="44.26135" lon="2.99259">
        <ele>911.7</ele>
        <time>2023-06-25T09:08:17Z</time>
      </trkpt>
      <trkpt lat="44.26131" lon="2.99255">
        <ele>911.9</ele>
        <time>2023-06-25T09:08:18Z</time>
      </trkpt>
      <trkpt lat="44.26127" lon="2.99251">
        <ele>912.1</ele>
        <time>2023-06-25T09:08:19Z</time>
      </trkpt>
      <trkpt lat="44.26122" lon="2.99244">
        <ele>912.5</ele>
        <time>2023-06-25T09:08:21Z</time>
      </trkpt>
      <trkpt lat="44.26119" lon="2.99244">
        <ele>912.7</ele>
        <time>2023-06-25T09:08:22Z</time>
      </trkpt>
      <trkpt lat="44.26117" lon="2.99246">
        <ele>913.4</ele>
        <time>2023-06-25T09:08:23Z</time>
      </trkpt>
      <trkpt lat="44.26116" lon="2.99251">
        <ele>913.6</ele>
        <time>2023-06-25T09:08:25Z</time>
      </trkpt>
      <trkpt lat="44.26116" lon="2.99257">
        <ele>913.9</ele>
        <time>2023-06-25T09:08:26Z</time>
      </trkpt>
      <trkpt lat="44.26115" lon="2.99262">
        <ele>914.1</ele>
        <time>2023-06-25T09:08:27Z</time>
      </trkpt>
      <trkpt lat="44.26114" lon="2.99266">
        <ele>914.3</ele>
        <time>2023-06-25T09:08:28Z</time>
      </trkpt>
      <trkpt lat="44.26114" lon="2.99271">
        <ele>914.5</ele>
        <time>2023-06-25T09:08:29Z</time>
      </trkpt>
      <trkpt lat="44.26113" lon="2.99277">
        <ele>914.8</ele>
        <time>2023-06-25T09:08:30Z</time>
      </trkpt>
      <trkpt lat="44.26113" lon="2.99285">
        <ele>915.1</ele>
        <time>2023-06-25T09:08:32Z</time>
      </trkpt>
      <trkpt lat="44.26113" lon="2.99294">
        <ele>915.4</ele>
        <time>2023-06-25T09:08:34Z</time>
      </trkpt>
      <trkpt lat="44.26113" lon="2.993">
        <ele>915.6</ele>
        <time>2023-06-25T09:08:35Z</time>
      </trkpt>
      <trkpt lat="44.26113" lon="2.99306">
        <ele>915.7</ele>
        <time>2023-06-25T09:08:36Z</time>
      </trkpt>
      <trkpt lat="44.26113" lon="2.99311">
        <ele>915.8</ele>
        <time>2023-06-25T09:08:37Z</time>
      </trkpt>
      <trkpt lat="44.26112" lon="2.9932">
        <ele>915.9</ele>
        <time>2023-06-25T09:08:38Z</time>
      </trkpt>
      <trkpt lat="44.26111" lon="2.99329">
        <ele>916</ele>
        <time>2023-06-25T09:08:40Z</time>
      </trkpt>
      <trkpt lat="44.2611" lon="2.99339">
        <ele>916.1</ele>
        <time>2023-06-25T09:08:41Z</time>
      </trkpt>
      <trkpt lat="44.2611" lon="2.99345">
        <ele>916.2</ele>
        <time>2023-06-25T09:08:42Z</time>
      </trkpt>
      <trkpt lat="44.26109" lon="2.99354">
        <ele>916.3</ele>
        <time>2023-06-25T09:08:44Z</time>
      </trkpt>
      <trkpt lat="44.26108" lon="2.99361">
        <ele>916.4</ele>
        <time>2023-06-25T09:08:45Z</time>
      </trkpt>
      <trkpt lat="44.26107" lon="2.99368">
        <ele>916.5</ele>
        <time>2023-06-25T09:08:46Z</time>
      </trkpt>
      <trkpt lat="44.26106" lon="2.99374">
        <ele>916.6</ele>
        <time>2023-06-25T09:08:47Z</time>
      </trkpt>
      <trkpt lat="44.26104" lon="2.99381">
        <ele>916.7</ele>
        <time>2023-06-25T09:08:48Z</time>
      </trkpt>
      <trkpt lat="44.26101" lon="2.99395">
        <ele>917.1</ele>
        <time>2023-06-25T09:08:50Z</time>
      </trkpt>
      <trkpt lat="44.26098" lon="2.99405">
        <ele>917.5</ele>
        <time>2023-06-25T09:08:52Z</time>
      </trkpt>
      <trkpt lat="44.26094" lon="2.99418">
        <ele>918.1</ele>
        <time>2023-06-25T09:08:54Z</time>
      </trkpt>
      <trkpt lat="44.26093" lon="2.99426">
        <ele>918.4</ele>
        <time>2023-06-25T09:08:56Z</time>
      </trkpt>
      <trkpt lat="44.26093" lon="2.99431">
        <ele>918.7</ele>
        <time>2023-06-25T09:08:57Z</time>
      </trkpt>
      <trkpt lat="44.26094" lon="2.99436">
        <ele>919</ele>
        <time>2023-06-25T09:08:58Z</time>
      </trkpt>
      <trkpt lat="44.26095" lon="2.99442">
        <ele>919.2</ele>
        <time>2023-06-25T09:08:59Z</time>
      </trkpt>
      <trkpt lat="44.26097" lon="2.99447">
        <ele>919.5</ele>
        <time>2023-06-25T09:09:00Z</time>
      </trkpt>
      <trkpt lat="44.26099" lon="2.99452">
        <ele>919.8</ele>
        <time>2023-06-25T09:09:01Z</time>
      </trkpt>
      <trkpt lat="44.26103" lon="2.99458">
        <ele>920.2</ele>
        <time>2023-06-25T09:09:03Z</time>
      </trkpt>
      <trkpt lat="44.26107" lon="2.99464">
        <ele>920.7</ele>
        <time>2023-06-25T09:09:05Z</time>
      </trkpt>
      <trkpt lat="44.26111" lon="2.99467">
        <ele>921</ele>
        <time>2023-06-25T09:09:06Z</time>
      </trkpt>
      <trkpt lat="44.26116" lon="2.99469">
        <ele>921.4</ele>
        <time>2023-06-25T09:09:07Z</time>
      </trkpt>
      <trkpt lat="44.26119" lon="2.9947">
        <ele>921.7</ele>
        <time>2023-06-25T09:09:08Z</time>
      </trkpt>
      <trkpt lat="44.26126" lon="2.99471">
        <ele>922.2</ele>
        <time>2023-06-25T09:09:10Z</time>
      </trkpt>
      <trkpt lat="44.2613" lon="2.99472">
        <ele>922.5</ele>
        <time>2023-06-25T09:09:11Z</time>
      </trkpt>
      <trkpt lat="44.26135" lon="2.99474">
        <ele>922.9</ele>
        <time>2023-06-25T09:09:13Z</time>
      </trkpt>
      <trkpt lat="44.26139" lon="2.99476">
        <ele>923.2</ele>
        <time>2023-06-25T09:09:14Z</time>
      </trkpt>
      <trkpt lat="44.26142" lon="2.99477">
        <ele>923.5</ele>
        <time>2023-06-25T09:09:15Z</time>
      </trkpt>
      <trkpt lat="44.26146" lon="2.99478">
        <ele>923.8</ele>
        <time>2023-06-25T09:09:16Z</time>
      </trkpt>
      <trkpt lat="44.2615" lon="2.9948">
        <ele>924.1</ele>
        <time>2023-06-25T09:09:17Z</time>
      </trkpt>
      <trkpt lat="44.26154" lon="2.99481">
        <ele>924.4</ele>
        <time>2023-06-25T09:09:18Z</time>
      </trkpt>
      <trkpt lat="44.26157" lon="2.99484">
        <ele>924.7</ele>
        <time>2023-06-25T09:09:19Z</time>
      </trkpt>
      <trkpt lat="44.26162" lon="2.99491">
        <ele>925.1</ele>
        <time>2023-06-25T09:09:21Z</time>
      </trkpt>
      <trkpt lat="44.26167" lon="2.99498">
        <ele>925.5</ele>
        <time>2023-06-25T09:09:23Z</time>
      </trkpt>
      <trkpt lat="44.2617" lon="2.99502">
        <ele>925.8</ele>
        <time>2023-06-25T09:09:24Z</time>
      </trkpt>
      <trkpt lat="44.26172" lon="2.9951">
        <ele>926.1</ele>
        <time>2023-06-25T09:09:26Z</time>
      </trkpt>
      <trkpt lat="44.26173" lon="2.99517">
        <ele>926.4</ele>
        <time>2023-06-25T09:09:27Z</time>
      </trkpt>
      <trkpt lat="44.26174" lon="2.99522">
        <ele>926.6</ele>
        <time>2023-06-25T09:09:28Z</time>
      </trkpt>
      <trkpt lat="44.26175" lon="2.99527">
        <ele>926.8</ele>
        <time>2023-06-25T09:09:29Z</time>
      </trkpt>
      <trkpt lat="44.26176" lon="2.99536">
        <ele>927.2</ele>
        <time>2023-06-25T09:09:31Z</time>
      </trkpt>
      <trkpt lat="44.26176" lon="2.99542">
        <ele>927.4</ele>
        <time>2023-06-25T09:09:32Z</time>
      </trkpt>
      <trkpt lat="44.26176" lon="2.9955">
        <ele>927.7</ele>
        <time>2023-06-25T09:09:34Z</time>
      </trkpt>
      <trkpt lat="44.26176" lon="2.99556">
        <ele>928</ele>
        <time>2023-06-25T09:09:35Z</time>
      </trkpt>
      <trkpt lat="44.26176" lon="2.99562">
        <ele>928.2</ele>
        <time>2023-06-25T09:09:36Z</time>
      </trkpt>
      <trkpt lat="44.26175" lon="2.99567">
        <ele>928.5</ele>
        <time>2023-06-25T09:09:37Z</time>
      </trkpt>
      <trkpt lat="44.26175" lon="2.99575">
        <ele>928.9</ele>
        <time>2023-06-25T09:09:39Z</time>
      </trkpt>
      <trkpt lat="44.26174" lon="2.99579">
        <ele>929.1</ele>
        <time>2023-06-25T09:09:40Z</time>
      </trkpt>
      <trkpt lat="44.26174" lon="2.99587">
        <ele>929.5</ele>
        <time>2023-06-25T09:09:42Z</time>
      </trkpt>
      <trkpt lat="44.26174" lon="2.99591">
        <ele>929.8</ele>
        <time>2023-06-25T09:09:43Z</time>
      </trkpt>
      <trkpt lat="44.26173" lon="2.99597">
        <ele>930.1</ele>
        <time>2023-06-25T09:09:44Z</time>
      </trkpt>
      <trkpt lat="44.26173" lon="2.99603">
        <ele>930.5</ele>
        <time>2023-06-25T09:09:46Z</time>
      </trkpt>
      <trkpt lat="44.26173" lon="2.99608">
        <ele>930.9</ele>
        <time>2023-06-25T09:09:47Z</time>
      </trkpt>
      <trkpt lat="44.26173" lon="2.99613">
        <ele>931.2</ele>
        <time>2023-06-25T09:09:48Z</time>
      </trkpt>
      <trkpt lat="44.26173" lon="2.99619">
        <ele>931.6</ele>
        <time>2023-06-25T09:09:49Z</time>
      </trkpt>
      <trkpt lat="44.26173" lon="2.99625">
        <ele>932</ele>
        <time>2023-06-25T09:09:50Z</time>
      </trkpt>
      <trkpt lat="44.26173" lon="2.99627">
        <ele>932.1</ele>
        <time>2023-06-25T09:09:51Z</time>
      </trkpt>
      <trkpt lat="44.26173" lon="2.99631">
        <ele>932.4</ele>
        <time>2023-06-25T09:09:52Z</time>
      </trkpt>
      <trkpt lat="44.26173" lon="2.99636">
        <ele>932.7</ele>
        <time>2023-06-25T09:09:54Z</time>
      </trkpt>
      <trkpt lat="44.26172" lon="2.9964">
        <ele>933</ele>
        <time>2023-06-25T09:09:55Z</time>
      </trkpt>
      <trkpt lat="44.26171" lon="2.99644">
        <ele>933.2</ele>
        <time>2023-06-25T09:09:56Z</time>
      </trkpt>
      <trkpt lat="44.26171" lon="2.99649">
        <ele>933.5</ele>
        <time>2023-06-25T09:09:57Z</time>
      </trkpt>
      <trkpt lat="44.2617" lon="2.99653">
        <ele>933.8</ele>
        <time>2023-06-25T09:09:58Z</time>
      </trkpt>
      <trkpt lat="44.26169" lon="2.99657">
        <ele>934.1</ele>
        <time>2023-06-25T09:09:59Z</time>
      </trkpt>
      <trkpt lat="44.26166" lon="2.99662">
        <ele>934.4</ele>
        <time>2023-06-25T09:10:00Z</time>
      </trkpt>
      <trkpt lat="44.26165" lon="2.99666">
        <ele>934.6</ele>
        <time>2023-06-25T09:10:01Z</time>
      </trkpt>
      <trkpt lat="44.26162" lon="2.99673">
        <ele>934.9</ele>
        <time>2023-06-25T09:10:03Z</time>
      </trkpt>
      <trkpt lat="44.2616" lon="2.99678">
        <ele>935.1</ele>
        <time>2023-06-25T09:10:04Z</time>
      </trkpt>
      <trkpt lat="44.26154" lon="2.9969">
        <ele>935.5</ele>
        <time>2023-06-25T09:10:06Z</time>
      </trkpt>
      <trkpt lat="44.26152" lon="2.99698">
        <ele>935.8</ele>
        <time>2023-06-25T09:10:08Z</time>
      </trkpt>
      <trkpt lat="44.2615" lon="2.99704">
        <ele>935.9</ele>
        <time>2023-06-25T09:10:09Z</time>
      </trkpt>
      <trkpt lat="44.26148" lon="2.99709">
        <ele>936</ele>
        <time>2023-06-25T09:10:10Z</time>
      </trkpt>
      <trkpt lat="44.26143" lon="2.99719">
        <ele>936.2</ele>
        <time>2023-06-25T09:10:12Z</time>
      </trkpt>
      <trkpt lat="44.26141" lon="2.99725">
        <ele>936.3</ele>
        <time>2023-06-25T09:10:13Z</time>
      </trkpt>
      <trkpt lat="44.26139" lon="2.99729">
        <ele>936.4</ele>
        <time>2023-06-25T09:10:14Z</time>
      </trkpt>
      <trkpt lat="44.26137" lon="2.99735">
        <ele>936.5</ele>
        <time>2023-06-25T09:10:15Z</time>
      </trkpt>
      <trkpt lat="44.26134" lon="2.99744">
        <ele>936.5</ele>
        <time>2023-06-25T09:10:17Z</time>
      </trkpt>
      <trkpt lat="44.26132" lon="2.9975">
        <ele>936.5</ele>
        <time>2023-06-25T09:10:18Z</time>
      </trkpt>
      <trkpt lat="44.26129" lon="2.99757">
        <ele>936.5</ele>
        <time>2023-06-25T09:10:19Z</time>
      </trkpt>
      <trkpt lat="44.26127" lon="2.99764">
        <ele>936.4</ele>
        <time>2023-06-25T09:10:21Z</time>
      </trkpt>
      <trkpt lat="44.26124" lon="2.99772">
        <ele>936.3</ele>
        <time>2023-06-25T09:10:22Z</time>
      </trkpt>
      <trkpt lat="44.26121" lon="2.99778">
        <ele>936.3</ele>
        <time>2023-06-25T09:10:23Z</time>
      </trkpt>
      <trkpt lat="44.26119" lon="2.99784">
        <ele>936.2</ele>
        <time>2023-06-25T09:10:24Z</time>
      </trkpt>
      <trkpt lat="44.26116" lon="2.9979">
        <ele>936.2</ele>
        <time>2023-06-25T09:10:25Z</time>
      </trkpt>
      <trkpt lat="44.26114" lon="2.99796">
        <ele>936.1</ele>
        <time>2023-06-25T09:10:26Z</time>
      </trkpt>
      <trkpt lat="44.26112" lon="2.99802">
        <ele>936.1</ele>
        <time>2023-06-25T09:10:27Z</time>
      </trkpt>
      <trkpt lat="44.2611" lon="2.99808">
        <ele>936</ele>
        <time>2023-06-25T09:10:28Z</time>
      </trkpt>
      <trkpt lat="44.26108" lon="2.99814">
        <ele>936</ele>
        <time>2023-06-25T09:10:29Z</time>
      </trkpt>
      <trkpt lat="44.26106" lon="2.9982">
        <ele>935.9</ele>
        <time>2023-06-25T09:10:30Z</time>
      </trkpt>
      <trkpt lat="44.26104" lon="2.99826">
        <ele>935.9</ele>
        <time>2023-06-25T09:10:31Z</time>
      </trkpt>
      <trkpt lat="44.26102" lon="2.99832">
        <ele>935.9</ele>
        <time>2023-06-25T09:10:32Z</time>
      </trkpt>
      <trkpt lat="44.26099" lon="2.99838">
        <ele>935.9</ele>
        <time>2023-06-25T09:10:33Z</time>
      </trkpt>
      <trkpt lat="44.26097" lon="2.99845">
        <ele>935.9</ele>
        <time>2023-06-25T09:10:34Z</time>
      </trkpt>
      <trkpt lat="44.26096" lon="2.99851">
        <ele>935.9</ele>
        <time>2023-06-25T09:10:35Z</time>
      </trkpt>
      <trkpt lat="44.26094" lon="2.99857">
        <ele>936</ele>
        <time>2023-06-25T09:10:36Z</time>
      </trkpt>
      <trkpt lat="44.26092" lon="2.99863">
        <ele>936.1</ele>
        <time>2023-06-25T09:10:37Z</time>
      </trkpt>
      <trkpt lat="44.2609" lon="2.99869">
        <ele>936.1</ele>
        <time>2023-06-25T09:10:38Z</time>
      </trkpt>
      <trkpt lat="44.26088" lon="2.99875">
        <ele>936.2</ele>
        <time>2023-06-25T09:10:39Z</time>
      </trkpt>
      <trkpt lat="44.26085" lon="2.99881">
        <ele>936.3</ele>
        <time>2023-06-25T09:10:40Z</time>
      </trkpt>
      <trkpt lat="44.26083" lon="2.99887">
        <ele>936.3</ele>
        <time>2023-06-25T09:10:41Z</time>
      </trkpt>
      <trkpt lat="44.26081" lon="2.99893">
        <ele>936.5</ele>
        <time>2023-06-25T09:10:42Z</time>
      </trkpt>
      <trkpt lat="44.26079" lon="2.99899">
        <ele>936.6</ele>
        <time>2023-06-25T09:10:43Z</time>
      </trkpt>
      <trkpt lat="44.26077" lon="2.99904">
        <ele>936.8</ele>
        <time>2023-06-25T09:10:44Z</time>
      </trkpt>
      <trkpt lat="44.26075" lon="2.9991">
        <ele>937</ele>
        <time>2023-06-25T09:10:45Z</time>
      </trkpt>
      <trkpt lat="44.26073" lon="2.99914">
        <ele>937.1</ele>
        <time>2023-06-25T09:10:46Z</time>
      </trkpt>
      <trkpt lat="44.26072" lon="2.99919">
        <ele>937.3</ele>
        <time>2023-06-25T09:10:47Z</time>
      </trkpt>
      <trkpt lat="44.2607" lon="2.99922">
        <ele>937.4</ele>
        <time>2023-06-25T09:10:48Z</time>
      </trkpt>
      <trkpt lat="44.26069" lon="2.99927">
        <ele>937.6</ele>
        <time>2023-06-25T09:10:49Z</time>
      </trkpt>
      <trkpt lat="44.26067" lon="2.99932">
        <ele>937.8</ele>
        <time>2023-06-25T09:10:50Z</time>
      </trkpt>
      <trkpt lat="44.26065" lon="2.99938">
        <ele>938</ele>
        <time>2023-06-25T09:10:51Z</time>
      </trkpt>
      <trkpt lat="44.26064" lon="2.99941">
        <ele>938.2</ele>
        <time>2023-06-25T09:10:52Z</time>
      </trkpt>
      <trkpt lat="44.26061" lon="2.99948">
        <ele>938.4</ele>
        <time>2023-06-25T09:10:54Z</time>
      </trkpt>
      <trkpt lat="44.26059" lon="2.99956">
        <ele>938.7</ele>
        <time>2023-06-25T09:10:55Z</time>
      </trkpt>
      <trkpt lat="44.26056" lon="2.99965">
        <ele>939.1</ele>
        <time>2023-06-25T09:10:56Z</time>
      </trkpt>
      <trkpt lat="44.26055" lon="2.99969">
        <ele>939.3</ele>
        <time>2023-06-25T09:10:57Z</time>
      </trkpt>
      <trkpt lat="44.26052" lon="2.99978">
        <ele>939.6</ele>
        <time>2023-06-25T09:10:59Z</time>
      </trkpt>
      <trkpt lat="44.2605" lon="2.99986">
        <ele>939.9</ele>
        <time>2023-06-25T09:11:01Z</time>
      </trkpt>
      <trkpt lat="44.26049" lon="2.99992">
        <ele>940.2</ele>
        <time>2023-06-25T09:11:02Z</time>
      </trkpt>
      <trkpt lat="44.26048" lon="2.99997">
        <ele>940.4</ele>
        <time>2023-06-25T09:11:03Z</time>
      </trkpt>
      <trkpt lat="44.26046" lon="3.00003">
        <ele>940.6</ele>
        <time>2023-06-25T09:11:04Z</time>
      </trkpt>
      <trkpt lat="44.26044" lon="3.00009">
        <ele>940.8</ele>
        <time>2023-06-25T09:11:05Z</time>
      </trkpt>
      <trkpt lat="44.26042" lon="3.00017">
        <ele>941.2</ele>
        <time>2023-06-25T09:11:07Z</time>
      </trkpt>
      <trkpt lat="44.26039" lon="3.00024">
        <ele>941.5</ele>
        <time>2023-06-25T09:11:09Z</time>
      </trkpt>
      <trkpt lat="44.26038" lon="3.00029">
        <ele>941.8</ele>
        <time>2023-06-25T09:11:10Z</time>
      </trkpt>
      <trkpt lat="44.26035" lon="3.00035">
        <ele>942</ele>
        <time>2023-06-25T09:11:11Z</time>
      </trkpt>
      <trkpt lat="44.26034" lon="3.00039">
        <ele>942.2</ele>
        <time>2023-06-25T09:11:12Z</time>
      </trkpt>
      <trkpt lat="44.26032" lon="3.00044">
        <ele>942.4</ele>
        <time>2023-06-25T09:11:13Z</time>
      </trkpt>
      <trkpt lat="44.2603" lon="3.0005">
        <ele>942.7</ele>
        <time>2023-06-25T09:11:15Z</time>
      </trkpt>
      <trkpt lat="44.26029" lon="3.00055">
        <ele>942.9</ele>
        <time>2023-06-25T09:11:16Z</time>
      </trkpt>
      <trkpt lat="44.26028" lon="3.0006">
        <ele>943</ele>
        <time>2023-06-25T09:11:17Z</time>
      </trkpt>
      <trkpt lat="44.26026" lon="3.00065">
        <ele>943.2</ele>
        <time>2023-06-25T09:11:18Z</time>
      </trkpt>
      <trkpt lat="44.26025" lon="3.0007">
        <ele>943.4</ele>
        <time>2023-06-25T09:11:19Z</time>
      </trkpt>
      <trkpt lat="44.26022" lon="3.00078">
        <ele>943.7</ele>
        <time>2023-06-25T09:11:21Z</time>
      </trkpt>
      <trkpt lat="44.26021" lon="3.00083">
        <ele>943.8</ele>
        <time>2023-06-25T09:11:22Z</time>
      </trkpt>
      <trkpt lat="44.26018" lon="3.0009">
        <ele>944.1</ele>
        <time>2023-06-25T09:11:24Z</time>
      </trkpt>
      <trkpt lat="44.26017" lon="3.00095">
        <ele>944.2</ele>
        <time>2023-06-25T09:11:25Z</time>
      </trkpt>
      <trkpt lat="44.26015" lon="3.001">
        <ele>944.4</ele>
        <time>2023-06-25T09:11:26Z</time>
      </trkpt>
      <trkpt lat="44.26013" lon="3.00106">
        <ele>944.5</ele>
        <time>2023-06-25T09:11:27Z</time>
      </trkpt>
      <trkpt lat="44.26011" lon="3.00112">
        <ele>944.7</ele>
        <time>2023-06-25T09:11:28Z</time>
      </trkpt>
      <trkpt lat="44.26009" lon="3.00119">
        <ele>944.9</ele>
        <time>2023-06-25T09:11:30Z</time>
      </trkpt>
      <trkpt lat="44.26008" lon="3.00124">
        <ele>945</ele>
        <time>2023-06-25T09:11:31Z</time>
      </trkpt>
      <trkpt lat="44.26007" lon="3.0013">
        <ele>945.1</ele>
        <time>2023-06-25T09:11:32Z</time>
      </trkpt>
      <trkpt lat="44.26006" lon="3.00137">
        <ele>945.3</ele>
        <time>2023-06-25T09:11:33Z</time>
      </trkpt>
      <trkpt lat="44.26006" lon="3.00143">
        <ele>945.4</ele>
        <time>2023-06-25T09:11:34Z</time>
      </trkpt>
      <trkpt lat="44.26006" lon="3.00153">
        <ele>945.6</ele>
        <time>2023-06-25T09:11:36Z</time>
      </trkpt>
      <trkpt lat="44.26006" lon="3.00158">
        <ele>945.7</ele>
        <time>2023-06-25T09:11:37Z</time>
      </trkpt>
      <trkpt lat="44.26007" lon="3.00164">
        <ele>945.8</ele>
        <time>2023-06-25T09:11:38Z</time>
      </trkpt>
      <trkpt lat="44.26007" lon="3.00174">
        <ele>946</ele>
        <time>2023-06-25T09:11:40Z</time>
      </trkpt>
      <trkpt lat="44.26007" lon="3.00182">
        <ele>946.2</ele>
        <time>2023-06-25T09:11:42Z</time>
      </trkpt>
      <trkpt lat="44.26007" lon="3.00187">
        <ele>946.2</ele>
        <time>2023-06-25T09:11:43Z</time>
      </trkpt>
      <trkpt lat="44.26007" lon="3.00194">
        <ele>946.3</ele>
        <time>2023-06-25T09:11:44Z</time>
      </trkpt>
      <trkpt lat="44.26007" lon="3.00199">
        <ele>946.3</ele>
        <time>2023-06-25T09:11:45Z</time>
      </trkpt>
      <trkpt lat="44.26007" lon="3.00204">
        <ele>946.4</ele>
        <time>2023-06-25T09:11:46Z</time>
      </trkpt>
      <trkpt lat="44.26008" lon="3.0021">
        <ele>946.4</ele>
        <time>2023-06-25T09:11:47Z</time>
      </trkpt>
      <trkpt lat="44.26008" lon="3.00217">
        <ele>946.4</ele>
        <time>2023-06-25T09:11:48Z</time>
      </trkpt>
      <trkpt lat="44.2601" lon="3.00225">
        <ele>946.4</ele>
        <time>2023-06-25T09:11:50Z</time>
      </trkpt>
      <trkpt lat="44.26012" lon="3.0023">
        <ele>946.4</ele>
        <time>2023-06-25T09:11:51Z</time>
      </trkpt>
      <trkpt lat="44.26014" lon="3.00236">
        <ele>946.3</ele>
        <time>2023-06-25T09:11:52Z</time>
      </trkpt>
      <trkpt lat="44.26016" lon="3.0024">
        <ele>946.3</ele>
        <time>2023-06-25T09:11:53Z</time>
      </trkpt>
      <trkpt lat="44.26018" lon="3.00245">
        <ele>946.3</ele>
        <time>2023-06-25T09:11:54Z</time>
      </trkpt>
      <trkpt lat="44.26022" lon="3.00252">
        <ele>946.2</ele>
        <time>2023-06-25T09:11:56Z</time>
      </trkpt>
      <trkpt lat="44.26025" lon="3.00257">
        <ele>946.1</ele>
        <time>2023-06-25T09:11:57Z</time>
      </trkpt>
      <trkpt lat="44.26029" lon="3.00262">
        <ele>946</ele>
        <time>2023-06-25T09:11:58Z</time>
      </trkpt>
      <trkpt lat="44.26035" lon="3.00269">
        <ele>945.8</ele>
        <time>2023-06-25T09:11:59Z</time>
      </trkpt>
      <trkpt lat="44.2604" lon="3.00276">
        <ele>945.5</ele>
        <time>2023-06-25T09:12:00Z</time>
      </trkpt>
      <trkpt lat="44.26044" lon="3.00283">
        <ele>945.2</ele>
        <time>2023-06-25T09:12:01Z</time>
      </trkpt>
      <trkpt lat="44.26049" lon="3.0029">
        <ele>944.9</ele>
        <time>2023-06-25T09:12:02Z</time>
      </trkpt>
      <trkpt lat="44.26053" lon="3.00298">
        <ele>944.7</ele>
        <time>2023-06-25T09:12:03Z</time>
      </trkpt>
      <trkpt lat="44.26057" lon="3.00305">
        <ele>944.5</ele>
        <time>2023-06-25T09:12:04Z</time>
      </trkpt>
      <trkpt lat="44.2606" lon="3.00313">
        <ele>944.4</ele>
        <time>2023-06-25T09:12:05Z</time>
      </trkpt>
      <trkpt lat="44.26064" lon="3.00321">
        <ele>944.3</ele>
        <time>2023-06-25T09:12:06Z</time>
      </trkpt>
      <trkpt lat="44.26067" lon="3.00328">
        <ele>944.2</ele>
        <time>2023-06-25T09:12:07Z</time>
      </trkpt>
      <trkpt lat="44.2607" lon="3.00336">
        <ele>944.1</ele>
        <time>2023-06-25T09:12:08Z</time>
      </trkpt>
      <trkpt lat="44.26074" lon="3.00343">
        <ele>944</ele>
        <time>2023-06-25T09:12:09Z</time>
      </trkpt>
      <trkpt lat="44.26077" lon="3.00351">
        <ele>944</ele>
        <time>2023-06-25T09:12:10Z</time>
      </trkpt>
      <trkpt lat="44.2608" lon="3.00359">
        <ele>943.9</ele>
        <time>2023-06-25T09:12:11Z</time>
      </trkpt>
      <trkpt lat="44.26084" lon="3.00366">
        <ele>943.8</ele>
        <time>2023-06-25T09:12:12Z</time>
      </trkpt>
      <trkpt lat="44.26087" lon="3.00374">
        <ele>943.8</ele>
        <time>2023-06-25T09:12:13Z</time>
      </trkpt>
      <trkpt lat="44.26089" lon="3.00381">
        <ele>943.8</ele>
        <time>2023-06-25T09:12:14Z</time>
      </trkpt>
      <trkpt lat="44.26092" lon="3.00389">
        <ele>943.8</ele>
        <time>2023-06-25T09:12:15Z</time>
      </trkpt>
      <trkpt lat="44.26095" lon="3.00397">
        <ele>943.8</ele>
        <time>2023-06-25T09:12:16Z</time>
      </trkpt>
      <trkpt lat="44.26097" lon="3.00405">
        <ele>943.8</ele>
        <time>2023-06-25T09:12:17Z</time>
      </trkpt>
      <trkpt lat="44.261" lon="3.00412">
        <ele>943.9</ele>
        <time>2023-06-25T09:12:18Z</time>
      </trkpt>
      <trkpt lat="44.26102" lon="3.0042">
        <ele>944</ele>
        <time>2023-06-25T09:12:19Z</time>
      </trkpt>
      <trkpt lat="44.26105" lon="3.00427">
        <ele>944</ele>
        <time>2023-06-25T09:12:20Z</time>
      </trkpt>
      <trkpt lat="44.26107" lon="3.00434">
        <ele>944.1</ele>
        <time>2023-06-25T09:12:21Z</time>
      </trkpt>
      <trkpt lat="44.26109" lon="3.00441">
        <ele>944.1</ele>
        <time>2023-06-25T09:12:22Z</time>
      </trkpt>
      <trkpt lat="44.26111" lon="3.00448">
        <ele>944.2</ele>
        <time>2023-06-25T09:12:23Z</time>
      </trkpt>
      <trkpt lat="44.26114" lon="3.00455">
        <ele>944.2</ele>
        <time>2023-06-25T09:12:24Z</time>
      </trkpt>
      <trkpt lat="44.26116" lon="3.00462">
        <ele>944.3</ele>
        <time>2023-06-25T09:12:25Z</time>
      </trkpt>
      <trkpt lat="44.26119" lon="3.00469">
        <ele>944.4</ele>
        <time>2023-06-25T09:12:26Z</time>
      </trkpt>
      <trkpt lat="44.26121" lon="3.00475">
        <ele>944.5</ele>
        <time>2023-06-25T09:12:27Z</time>
      </trkpt>
      <trkpt lat="44.26123" lon="3.00482">
        <ele>944.6</ele>
        <time>2023-06-25T09:12:28Z</time>
      </trkpt>
      <trkpt lat="44.26126" lon="3.00488">
        <ele>944.6</ele>
        <time>2023-06-25T09:12:29Z</time>
      </trkpt>
      <trkpt lat="44.26128" lon="3.00494">
        <ele>944.7</ele>
        <time>2023-06-25T09:12:30Z</time>
      </trkpt>
      <trkpt lat="44.2613" lon="3.005">
        <ele>944.8</ele>
        <time>2023-06-25T09:12:31Z</time>
      </trkpt>
      <trkpt lat="44.26133" lon="3.00507">
        <ele>945</ele>
        <time>2023-06-25T09:12:32Z</time>
      </trkpt>
      <trkpt lat="44.26135" lon="3.00513">
        <ele>945.1</ele>
        <time>2023-06-25T09:12:33Z</time>
      </trkpt>
      <trkpt lat="44.26137" lon="3.0052">
        <ele>945.3</ele>
        <time>2023-06-25T09:12:34Z</time>
      </trkpt>
      <trkpt lat="44.26139" lon="3.00526">
        <ele>945.5</ele>
        <time>2023-06-25T09:12:35Z</time>
      </trkpt>
      <trkpt lat="44.2614" lon="3.00533">
        <ele>945.7</ele>
        <time>2023-06-25T09:12:36Z</time>
      </trkpt>
      <trkpt lat="44.26142" lon="3.00539">
        <ele>945.9</ele>
        <time>2023-06-25T09:12:37Z</time>
      </trkpt>
      <trkpt lat="44.26143" lon="3.00546">
        <ele>946.1</ele>
        <time>2023-06-25T09:12:38Z</time>
      </trkpt>
      <trkpt lat="44.26144" lon="3.00552">
        <ele>946.3</ele>
        <time>2023-06-25T09:12:39Z</time>
      </trkpt>
      <trkpt lat="44.26145" lon="3.00559">
        <ele>946.6</ele>
        <time>2023-06-25T09:12:40Z</time>
      </trkpt>
      <trkpt lat="44.26145" lon="3.00565">
        <ele>946.8</ele>
        <time>2023-06-25T09:12:41Z</time>
      </trkpt>
      <trkpt lat="44.26146" lon="3.00571">
        <ele>947.1</ele>
        <time>2023-06-25T09:12:42Z</time>
      </trkpt>
      <trkpt lat="44.26146" lon="3.00576">
        <ele>947.2</ele>
        <time>2023-06-25T09:12:43Z</time>
      </trkpt>
      <trkpt lat="44.26146" lon="3.00583">
        <ele>947.5</ele>
        <time>2023-06-25T09:12:44Z</time>
      </trkpt>
      <trkpt lat="44.26147" lon="3.0059">
        <ele>947.7</ele>
        <time>2023-06-25T09:12:45Z</time>
      </trkpt>
      <trkpt lat="44.26147" lon="3.00594">
        <ele>947.8</ele>
        <time>2023-06-25T09:12:46Z</time>
      </trkpt>
      <trkpt lat="44.26147" lon="3.006">
        <ele>948</ele>
        <time>2023-06-25T09:12:47Z</time>
      </trkpt>
      <trkpt lat="44.26146" lon="3.00608">
        <ele>948.3</ele>
        <time>2023-06-25T09:12:48Z</time>
      </trkpt>
      <trkpt lat="44.26145" lon="3.00615">
        <ele>948.6</ele>
        <time>2023-06-25T09:12:49Z</time>
      </trkpt>
      <trkpt lat="44.26144" lon="3.00622">
        <ele>948.9</ele>
        <time>2023-06-25T09:12:50Z</time>
      </trkpt>
      <trkpt lat="44.26142" lon="3.00628">
        <ele>949.2</ele>
        <time>2023-06-25T09:12:51Z</time>
      </trkpt>
      <trkpt lat="44.26141" lon="3.00631">
        <ele>949.3</ele>
        <time>2023-06-25T09:12:52Z</time>
      </trkpt>
      <trkpt lat="44.26139" lon="3.00637">
        <ele>949.6</ele>
        <time>2023-06-25T09:12:53Z</time>
      </trkpt>
      <trkpt lat="44.26136" lon="3.00642">
        <ele>949.9</ele>
        <time>2023-06-25T09:12:54Z</time>
      </trkpt>
      <trkpt lat="44.26133" lon="3.00644">
        <ele>950.2</ele>
        <time>2023-06-25T09:12:55Z</time>
      </trkpt>
      <trkpt lat="44.2613" lon="3.00647">
        <ele>950.5</ele>
        <time>2023-06-25T09:12:57Z</time>
      </trkpt>
      <trkpt lat="44.26126" lon="3.0065">
        <ele>950.8</ele>
        <time>2023-06-25T09:12:58Z</time>
      </trkpt>
      <trkpt lat="44.26122" lon="3.00651">
        <ele>951.1</ele>
        <time>2023-06-25T09:12:59Z</time>
      </trkpt>
      <trkpt lat="44.26117" lon="3.00653">
        <ele>951.5</ele>
        <time>2023-06-25T09:13:00Z</time>
      </trkpt>
      <trkpt lat="44.26113" lon="3.00655">
        <ele>951.9</ele>
        <time>2023-06-25T09:13:01Z</time>
      </trkpt>
      <trkpt lat="44.26109" lon="3.00656">
        <ele>952.2</ele>
        <time>2023-06-25T09:13:02Z</time>
      </trkpt>
      <trkpt lat="44.26104" lon="3.00657">
        <ele>952.6</ele>
        <time>2023-06-25T09:13:04Z</time>
      </trkpt>
      <trkpt lat="44.261" lon="3.00659">
        <ele>952.9</ele>
        <time>2023-06-25T09:13:05Z</time>
      </trkpt>
      <trkpt lat="44.26096" lon="3.0066">
        <ele>953.3</ele>
        <time>2023-06-25T09:13:06Z</time>
      </trkpt>
      <trkpt lat="44.26093" lon="3.00662">
        <ele>953.6</ele>
        <time>2023-06-25T09:13:07Z</time>
      </trkpt>
      <trkpt lat="44.2609" lon="3.00663">
        <ele>953.8</ele>
        <time>2023-06-25T09:13:08Z</time>
      </trkpt>
      <trkpt lat="44.26086" lon="3.00664">
        <ele>954.1</ele>
        <time>2023-06-25T09:13:09Z</time>
      </trkpt>
      <trkpt lat="44.26082" lon="3.00666">
        <ele>954.4</ele>
        <time>2023-06-25T09:13:10Z</time>
      </trkpt>
      <trkpt lat="44.26079" lon="3.00668">
        <ele>954.7</ele>
        <time>2023-06-25T09:13:11Z</time>
      </trkpt>
      <trkpt lat="44.26075" lon="3.0067">
        <ele>955</ele>
        <time>2023-06-25T09:13:12Z</time>
      </trkpt>
      <trkpt lat="44.2607" lon="3.00672">
        <ele>955.3</ele>
        <time>2023-06-25T09:13:14Z</time>
      </trkpt>
      <trkpt lat="44.26068" lon="3.00674">
        <ele>955.6</ele>
        <time>2023-06-25T09:13:15Z</time>
      </trkpt>
      <trkpt lat="44.26064" lon="3.00677">
        <ele>955.8</ele>
        <time>2023-06-25T09:13:16Z</time>
      </trkpt>
      <trkpt lat="44.26057" lon="3.00684">
        <ele>956.3</ele>
        <time>2023-06-25T09:13:18Z</time>
      </trkpt>
      <trkpt lat="44.26054" lon="3.00688">
        <ele>956.5</ele>
        <time>2023-06-25T09:13:19Z</time>
      </trkpt>
      <trkpt lat="44.26051" lon="3.00694">
        <ele>956.8</ele>
        <time>2023-06-25T09:13:20Z</time>
      </trkpt>
      <trkpt lat="44.26048" lon="3.00701">
        <ele>957</ele>
        <time>2023-06-25T09:13:22Z</time>
      </trkpt>
      <trkpt lat="44.26046" lon="3.00707">
        <ele>957.1</ele>
        <time>2023-06-25T09:13:23Z</time>
      </trkpt>
      <trkpt lat="44.2604" lon="3.00718">
        <ele>957.4</ele>
        <time>2023-06-25T09:13:25Z</time>
      </trkpt>
      <trkpt lat="44.26037" lon="3.00727">
        <ele>957.5</ele>
        <time>2023-06-25T09:13:27Z</time>
      </trkpt>
      <trkpt lat="44.26034" lon="3.00734">
        <ele>957.6</ele>
        <time>2023-06-25T09:13:28Z</time>
      </trkpt>
      <trkpt lat="44.26033" lon="3.0074">
        <ele>957.7</ele>
        <time>2023-06-25T09:13:29Z</time>
      </trkpt>
      <trkpt lat="44.26031" lon="3.00748">
        <ele>957.8</ele>
        <time>2023-06-25T09:13:31Z</time>
      </trkpt>
      <trkpt lat="44.26028" lon="3.00755">
        <ele>957.9</ele>
        <time>2023-06-25T09:13:32Z</time>
      </trkpt>
      <trkpt lat="44.26026" lon="3.00761">
        <ele>958</ele>
        <time>2023-06-25T09:13:33Z</time>
      </trkpt>
      <trkpt lat="44.26025" lon="3.00768">
        <ele>958.1</ele>
        <time>2023-06-25T09:13:34Z</time>
      </trkpt>
      <trkpt lat="44.26024" lon="3.00776">
        <ele>958.2</ele>
        <time>2023-06-25T09:13:36Z</time>
      </trkpt>
      <trkpt lat="44.26023" lon="3.00782">
        <ele>958.3</ele>
        <time>2023-06-25T09:13:37Z</time>
      </trkpt>
      <trkpt lat="44.26022" lon="3.00788">
        <ele>958.4</ele>
        <time>2023-06-25T09:13:38Z</time>
      </trkpt>
      <trkpt lat="44.26021" lon="3.00795">
        <ele>958.5</ele>
        <time>2023-06-25T09:13:39Z</time>
      </trkpt>
      <trkpt lat="44.2602" lon="3.00801">
        <ele>958.6</ele>
        <time>2023-06-25T09:13:40Z</time>
      </trkpt>
      <trkpt lat="44.26018" lon="3.00807">
        <ele>958.6</ele>
        <time>2023-06-25T09:13:41Z</time>
      </trkpt>
      <trkpt lat="44.26014" lon="3.00816">
        <ele>958.7</ele>
        <time>2023-06-25T09:13:43Z</time>
      </trkpt>
      <trkpt lat="44.26012" lon="3.00821">
        <ele>958.7</ele>
        <time>2023-06-25T09:13:44Z</time>
      </trkpt>
      <trkpt lat="44.2601" lon="3.00826">
        <ele>958.7</ele>
        <time>2023-06-25T09:13:45Z</time>
      </trkpt>
      <trkpt lat="44.26008" lon="3.00831">
        <ele>958.7</ele>
        <time>2023-06-25T09:13:46Z</time>
      </trkpt>
      <trkpt lat="44.26007" lon="3.00841">
        <ele>958.7</ele>
        <time>2023-06-25T09:13:48Z</time>
      </trkpt>
      <trkpt lat="44.26006" lon="3.00847">
        <ele>958.7</ele>
        <time>2023-06-25T09:13:49Z</time>
      </trkpt>
      <trkpt lat="44.26004" lon="3.00853">
        <ele>958.7</ele>
        <time>2023-06-25T09:13:50Z</time>
      </trkpt>
      <trkpt lat="44.26003" lon="3.0086">
        <ele>958.6</ele>
        <time>2023-06-25T09:13:51Z</time>
      </trkpt>
      <trkpt lat="44.26004" lon="3.00867">
        <ele>958.5</ele>
        <time>2023-06-25T09:13:52Z</time>
      </trkpt>
      <trkpt lat="44.26004" lon="3.00874">
        <ele>958.4</ele>
        <time>2023-06-25T09:13:53Z</time>
      </trkpt>
      <trkpt lat="44.26004" lon="3.00881">
        <ele>958.3</ele>
        <time>2023-06-25T09:13:54Z</time>
      </trkpt>
      <trkpt lat="44.26005" lon="3.00887">
        <ele>958.2</ele>
        <time>2023-06-25T09:13:55Z</time>
      </trkpt>
      <trkpt lat="44.26007" lon="3.00893">
        <ele>958.1</ele>
        <time>2023-06-25T09:13:56Z</time>
      </trkpt>
      <trkpt lat="44.26008" lon="3.00899">
        <ele>958</ele>
        <time>2023-06-25T09:13:57Z</time>
      </trkpt>
      <trkpt lat="44.2601" lon="3.00905">
        <ele>957.9</ele>
        <time>2023-06-25T09:13:58Z</time>
      </trkpt>
      <trkpt lat="44.26012" lon="3.0091">
        <ele>957.8</ele>
        <time>2023-06-25T09:14:00Z</time>
      </trkpt>
      <trkpt lat="44.2601" lon="3.00918">
        <ele>957.6</ele>
        <time>2023-06-25T09:14:01Z</time>
      </trkpt>
      <trkpt lat="44.26005" lon="3.00922">
        <ele>957.4</ele>
        <time>2023-06-25T09:14:02Z</time>
      </trkpt>
      <trkpt lat="44.25999" lon="3.00923">
        <ele>957.3</ele>
        <time>2023-06-25T09:14:03Z</time>
      </trkpt>
      <trkpt lat="44.25994" lon="3.00923">
        <ele>957.3</ele>
        <time>2023-06-25T09:14:04Z</time>
      </trkpt>
      <trkpt lat="44.25987" lon="3.00924">
        <ele>957.2</ele>
        <time>2023-06-25T09:14:06Z</time>
      </trkpt>
      <trkpt lat="44.2598" lon="3.00925">
        <ele>957.1</ele>
        <time>2023-06-25T09:14:07Z</time>
      </trkpt>
      <trkpt lat="44.25973" lon="3.00924">
        <ele>957.1</ele>
        <time>2023-06-25T09:14:08Z</time>
      </trkpt>
      <trkpt lat="44.25965" lon="3.00923">
        <ele>957</ele>
        <time>2023-06-25T09:14:09Z</time>
      </trkpt>
      <trkpt lat="44.25957" lon="3.00922">
        <ele>957</ele>
        <time>2023-06-25T09:14:10Z</time>
      </trkpt>
      <trkpt lat="44.25949" lon="3.0092">
        <ele>956.9</ele>
        <time>2023-06-25T09:14:11Z</time>
      </trkpt>
      <trkpt lat="44.25941" lon="3.00918">
        <ele>956.1</ele>
        <time>2023-06-25T09:14:12Z</time>
      </trkpt>
      <trkpt lat="44.25932" lon="3.00916">
        <ele>954.9</ele>
        <time>2023-06-25T09:14:13Z</time>
      </trkpt>
      <trkpt lat="44.25923" lon="3.00914">
        <ele>953.6</ele>
        <time>2023-06-25T09:14:14Z</time>
      </trkpt>
      <trkpt lat="44.25912" lon="3.00911">
        <ele>952.2</ele>
        <time>2023-06-25T09:14:15Z</time>
      </trkpt>
      <trkpt lat="44.25901" lon="3.00909">
        <ele>950.8</ele>
        <time>2023-06-25T09:14:16Z</time>
      </trkpt>
      <trkpt lat="44.25889" lon="3.00908">
        <ele>949.6</ele>
        <time>2023-06-25T09:14:17Z</time>
      </trkpt>
      <trkpt lat="44.25877" lon="3.00907">
        <ele>948.4</ele>
        <time>2023-06-25T09:14:18Z</time>
      </trkpt>
      <trkpt lat="44.25865" lon="3.00908">
        <ele>947.4</ele>
        <time>2023-06-25T09:14:19Z</time>
      </trkpt>
      <trkpt lat="44.25852" lon="3.00908">
        <ele>946.5</ele>
        <time>2023-06-25T09:14:20Z</time>
      </trkpt>
      <trkpt lat="44.2584" lon="3.00909">
        <ele>945.9</ele>
        <time>2023-06-25T09:14:21Z</time>
      </trkpt>
      <trkpt lat="44.25827" lon="3.0091">
        <ele>945.3</ele>
        <time>2023-06-25T09:14:22Z</time>
      </trkpt>
      <trkpt lat="44.25814" lon="3.00911">
        <ele>944.8</ele>
        <time>2023-06-25T09:14:23Z</time>
      </trkpt>
      <trkpt lat="44.25802" lon="3.00912">
        <ele>944.3</ele>
        <time>2023-06-25T09:14:24Z</time>
      </trkpt>
      <trkpt lat="44.2579" lon="3.00915">
        <ele>943.8</ele>
        <time>2023-06-25T09:14:25Z</time>
      </trkpt>
      <trkpt lat="44.25778" lon="3.00918">
        <ele>943.2</ele>
        <time>2023-06-25T09:14:26Z</time>
      </trkpt>
      <trkpt lat="44.25766" lon="3.00922">
        <ele>942.6</ele>
        <time>2023-06-25T09:14:27Z</time>
      </trkpt>
      <trkpt lat="44.25755" lon="3.00927">
        <ele>941.8</ele>
        <time>2023-06-25T09:14:28Z</time>
      </trkpt>
      <trkpt lat="44.25744" lon="3.00932">
        <ele>940.9</ele>
        <time>2023-06-25T09:14:29Z</time>
      </trkpt>
      <trkpt lat="44.25733" lon="3.00938">
        <ele>939.8</ele>
        <time>2023-06-25T09:14:30Z</time>
      </trkpt>
      <trkpt lat="44.25722" lon="3.00943">
        <ele>938.8</ele>
        <time>2023-06-25T09:14:31Z</time>
      </trkpt>
      <trkpt lat="44.25712" lon="3.00947">
        <ele>937.8</ele>
        <time>2023-06-25T09:14:32Z</time>
      </trkpt>
      <trkpt lat="44.25702" lon="3.0095">
        <ele>936.7</ele>
        <time>2023-06-25T09:14:33Z</time>
      </trkpt>
      <trkpt lat="44.25692" lon="3.00951">
        <ele>935.5</ele>
        <time>2023-06-25T09:14:34Z</time>
      </trkpt>
      <trkpt lat="44.25683" lon="3.00949">
        <ele>934.4</ele>
        <time>2023-06-25T09:14:35Z</time>
      </trkpt>
      <trkpt lat="44.25673" lon="3.00946">
        <ele>933.4</ele>
        <time>2023-06-25T09:14:36Z</time>
      </trkpt>
      <trkpt lat="44.25663" lon="3.00944">
        <ele>932.5</ele>
        <time>2023-06-25T09:14:37Z</time>
      </trkpt>
      <trkpt lat="44.25653" lon="3.00944">
        <ele>931.6</ele>
        <time>2023-06-25T09:14:38Z</time>
      </trkpt>
      <trkpt lat="44.25642" lon="3.0095">
        <ele>930.6</ele>
        <time>2023-06-25T09:14:39Z</time>
      </trkpt>
      <trkpt lat="44.25631" lon="3.00958">
        <ele>929.8</ele>
        <time>2023-06-25T09:14:40Z</time>
      </trkpt>
      <trkpt lat="44.25619" lon="3.00966">
        <ele>929</ele>
        <time>2023-06-25T09:14:41Z</time>
      </trkpt>
      <trkpt lat="44.25608" lon="3.00974">
        <ele>928.2</ele>
        <time>2023-06-25T09:14:42Z</time>
      </trkpt>
      <trkpt lat="44.25597" lon="3.00982">
        <ele>927.5</ele>
        <time>2023-06-25T09:14:43Z</time>
      </trkpt>
      <trkpt lat="44.25587" lon="3.00989">
        <ele>926.8</ele>
        <time>2023-06-25T09:14:44Z</time>
      </trkpt>
      <trkpt lat="44.25576" lon="3.00996">
        <ele>926.2</ele>
        <time>2023-06-25T09:14:45Z</time>
      </trkpt>
      <trkpt lat="44.25566" lon="3.01004">
        <ele>925.8</ele>
        <time>2023-06-25T09:14:46Z</time>
      </trkpt>
      <trkpt lat="44.25555" lon="3.01011">
        <ele>925.4</ele>
        <time>2023-06-25T09:14:47Z</time>
      </trkpt>
      <trkpt lat="44.25544" lon="3.01016">
        <ele>925.2</ele>
        <time>2023-06-25T09:14:48Z</time>
      </trkpt>
      <trkpt lat="44.25533" lon="3.01019">
        <ele>925</ele>
        <time>2023-06-25T09:14:49Z</time>
      </trkpt>
      <trkpt lat="44.25522" lon="3.01021">
        <ele>924.9</ele>
        <time>2023-06-25T09:14:50Z</time>
      </trkpt>
      <trkpt lat="44.25511" lon="3.01022">
        <ele>924.7</ele>
        <time>2023-06-25T09:14:51Z</time>
      </trkpt>
      <trkpt lat="44.25501" lon="3.01023">
        <ele>924.5</ele>
        <time>2023-06-25T09:14:52Z</time>
      </trkpt>
      <trkpt lat="44.25491" lon="3.01023">
        <ele>924.2</ele>
        <time>2023-06-25T09:14:53Z</time>
      </trkpt>
      <trkpt lat="44.25481" lon="3.01023">
        <ele>924</ele>
        <time>2023-06-25T09:14:54Z</time>
      </trkpt>
      <trkpt lat="44.25472" lon="3.01022">
        <ele>923.8</ele>
        <time>2023-06-25T09:14:55Z</time>
      </trkpt>
      <trkpt lat="44.25462" lon="3.01021">
        <ele>923.6</ele>
        <time>2023-06-25T09:14:56Z</time>
      </trkpt>
      <trkpt lat="44.25454" lon="3.01019">
        <ele>923.3</ele>
        <time>2023-06-25T09:14:57Z</time>
      </trkpt>
      <trkpt lat="44.25445" lon="3.01018">
        <ele>923</ele>
        <time>2023-06-25T09:14:58Z</time>
      </trkpt>
      <trkpt lat="44.25436" lon="3.01014">
        <ele>922.6</ele>
        <time>2023-06-25T09:14:59Z</time>
      </trkpt>
      <trkpt lat="44.25428" lon="3.0101">
        <ele>922.2</ele>
        <time>2023-06-25T09:15:00Z</time>
      </trkpt>
      <trkpt lat="44.25421" lon="3.01005">
        <ele>921.8</ele>
        <time>2023-06-25T09:15:01Z</time>
      </trkpt>
      <trkpt lat="44.25413" lon="3.00999">
        <ele>921.2</ele>
        <time>2023-06-25T09:15:02Z</time>
      </trkpt>
      <trkpt lat="44.25405" lon="3.00993">
        <ele>920.5</ele>
        <time>2023-06-25T09:15:03Z</time>
      </trkpt>
      <trkpt lat="44.25397" lon="3.00987">
        <ele>919.8</ele>
        <time>2023-06-25T09:15:04Z</time>
      </trkpt>
      <trkpt lat="44.25389" lon="3.00981">
        <ele>919.3</ele>
        <time>2023-06-25T09:15:05Z</time>
      </trkpt>
      <trkpt lat="44.25381" lon="3.00975">
        <ele>918.8</ele>
        <time>2023-06-25T09:15:06Z</time>
      </trkpt>
      <trkpt lat="44.25374" lon="3.00968">
        <ele>918.4</ele>
        <time>2023-06-25T09:15:07Z</time>
      </trkpt>
      <trkpt lat="44.25365" lon="3.00961">
        <ele>918</ele>
        <time>2023-06-25T09:15:08Z</time>
      </trkpt>
      <trkpt lat="44.25357" lon="3.00953">
        <ele>917.7</ele>
        <time>2023-06-25T09:15:09Z</time>
      </trkpt>
      <trkpt lat="44.25349" lon="3.00945">
        <ele>917.6</ele>
        <time>2023-06-25T09:15:10Z</time>
      </trkpt>
      <trkpt lat="44.2534" lon="3.00939">
        <ele>917.6</ele>
        <time>2023-06-25T09:15:11Z</time>
      </trkpt>
      <trkpt lat="44.2533" lon="3.00936">
        <ele>917.8</ele>
        <time>2023-06-25T09:15:12Z</time>
      </trkpt>
      <trkpt lat="44.25321" lon="3.00936">
        <ele>918.1</ele>
        <time>2023-06-25T09:15:13Z</time>
      </trkpt>
      <trkpt lat="44.25312" lon="3.00937">
        <ele>918.4</ele>
        <time>2023-06-25T09:15:14Z</time>
      </trkpt>
      <trkpt lat="44.25304" lon="3.00937">
        <ele>918.8</ele>
        <time>2023-06-25T09:15:15Z</time>
      </trkpt>
      <trkpt lat="44.25297" lon="3.00935">
        <ele>919.1</ele>
        <time>2023-06-25T09:15:16Z</time>
      </trkpt>
      <trkpt lat="44.25291" lon="3.00933">
        <ele>919.1</ele>
        <time>2023-06-25T09:15:17Z</time>
      </trkpt>
      <trkpt lat="44.25286" lon="3.00929">
        <ele>919.2</ele>
        <time>2023-06-25T09:15:18Z</time>
      </trkpt>
      <trkpt lat="44.25283" lon="3.00924">
        <ele>919.3</ele>
        <time>2023-06-25T09:15:19Z</time>
      </trkpt>
      <trkpt lat="44.25279" lon="3.00919">
        <ele>919.4</ele>
        <time>2023-06-25T09:15:20Z</time>
      </trkpt>
      <trkpt lat="44.25276" lon="3.00913">
        <ele>919.4</ele>
        <time>2023-06-25T09:15:21Z</time>
      </trkpt>
      <trkpt lat="44.25274" lon="3.00907">
        <ele>919.5</ele>
        <time>2023-06-25T09:15:22Z</time>
      </trkpt>
      <trkpt lat="44.25272" lon="3.009">
        <ele>919.6</ele>
        <time>2023-06-25T09:15:23Z</time>
      </trkpt>
      <trkpt lat="44.2527" lon="3.00893">
        <ele>919.6</ele>
        <time>2023-06-25T09:15:24Z</time>
      </trkpt>
      <trkpt lat="44.25268" lon="3.00887">
        <ele>919.5</ele>
        <time>2023-06-25T09:15:25Z</time>
      </trkpt>
      <trkpt lat="44.25266" lon="3.0088">
        <ele>919.5</ele>
        <time>2023-06-25T09:15:26Z</time>
      </trkpt>
      <trkpt lat="44.25264" lon="3.00874">
        <ele>919.5</ele>
        <time>2023-06-25T09:15:27Z</time>
      </trkpt>
      <trkpt lat="44.25262" lon="3.00869">
        <ele>919.4</ele>
        <time>2023-06-25T09:15:28Z</time>
      </trkpt>
      <trkpt lat="44.2526" lon="3.00864">
        <ele>919.4</ele>
        <time>2023-06-25T09:15:29Z</time>
      </trkpt>
      <trkpt lat="44.25258" lon="3.00858">
        <ele>919.3</ele>
        <time>2023-06-25T09:15:30Z</time>
      </trkpt>
      <trkpt lat="44.25257" lon="3.00851">
        <ele>919.2</ele>
        <time>2023-06-25T09:15:31Z</time>
      </trkpt>
      <trkpt lat="44.25255" lon="3.00846">
        <ele>919.1</ele>
        <time>2023-06-25T09:15:32Z</time>
      </trkpt>
      <trkpt lat="44.25255" lon="3.00842">
        <ele>919.2</ele>
        <time>2023-06-25T09:15:33Z</time>
      </trkpt>
      <trkpt lat="44.25254" lon="3.00835">
        <ele>919.4</ele>
        <time>2023-06-25T09:15:34Z</time>
      </trkpt>
      <trkpt lat="44.25254" lon="3.00826">
        <ele>919.7</ele>
        <time>2023-06-25T09:15:35Z</time>
      </trkpt>
      <trkpt lat="44.25253" lon="3.00819">
        <ele>919.9</ele>
        <time>2023-06-25T09:15:36Z</time>
      </trkpt>
      <trkpt lat="44.25252" lon="3.00812">
        <ele>920</ele>
        <time>2023-06-25T09:15:37Z</time>
      </trkpt>
      <trkpt lat="44.25252" lon="3.00805">
        <ele>920.2</ele>
        <time>2023-06-25T09:15:38Z</time>
      </trkpt>
      <trkpt lat="44.25252" lon="3.00798">
        <ele>920.3</ele>
        <time>2023-06-25T09:15:39Z</time>
      </trkpt>
      <trkpt lat="44.25252" lon="3.00791">
        <ele>920.4</ele>
        <time>2023-06-25T09:15:40Z</time>
      </trkpt>
      <trkpt lat="44.25253" lon="3.00784">
        <ele>920.5</ele>
        <time>2023-06-25T09:15:41Z</time>
      </trkpt>
      <trkpt lat="44.25253" lon="3.00777">
        <ele>920.6</ele>
        <time>2023-06-25T09:15:42Z</time>
      </trkpt>
      <trkpt lat="44.25253" lon="3.0077">
        <ele>920.7</ele>
        <time>2023-06-25T09:15:43Z</time>
      </trkpt>
      <trkpt lat="44.25254" lon="3.00763">
        <ele>920.7</ele>
        <time>2023-06-25T09:15:44Z</time>
      </trkpt>
      <trkpt lat="44.25254" lon="3.00756">
        <ele>920.7</ele>
        <time>2023-06-25T09:15:45Z</time>
      </trkpt>
      <trkpt lat="44.25254" lon="3.00749">
        <ele>920.6</ele>
        <time>2023-06-25T09:15:46Z</time>
      </trkpt>
      <trkpt lat="44.25254" lon="3.00742">
        <ele>920.4</ele>
        <time>2023-06-25T09:15:47Z</time>
      </trkpt>
      <trkpt lat="44.25254" lon="3.00735">
        <ele>920.2</ele>
        <time>2023-06-25T09:15:48Z</time>
      </trkpt>
      <trkpt lat="44.25254" lon="3.00728">
        <ele>919.9</ele>
        <time>2023-06-25T09:15:49Z</time>
      </trkpt>
      <trkpt lat="44.25253" lon="3.00721">
        <ele>919.6</ele>
        <time>2023-06-25T09:15:50Z</time>
      </trkpt>
      <trkpt lat="44.2525" lon="3.00717">
        <ele>918.8</ele>
        <time>2023-06-25T09:15:51Z</time>
      </trkpt>
      <trkpt lat="44.25244" lon="3.00715">
        <ele>917.8</ele>
        <time>2023-06-25T09:15:52Z</time>
      </trkpt>
      <trkpt lat="44.25237" lon="3.00717">
        <ele>916.7</ele>
        <time>2023-06-25T09:15:53Z</time>
      </trkpt>
      <trkpt lat="44.25229" lon="3.00719">
        <ele>915.7</ele>
        <time>2023-06-25T09:15:54Z</time>
      </trkpt>
      <trkpt lat="44.25221" lon="3.00722">
        <ele>914.5</ele>
        <time>2023-06-25T09:15:55Z</time>
      </trkpt>
      <trkpt lat="44.25214" lon="3.00727">
        <ele>913.4</ele>
        <time>2023-06-25T09:15:56Z</time>
      </trkpt>
      <trkpt lat="44.25207" lon="3.00733">
        <ele>912.2</ele>
        <time>2023-06-25T09:15:57Z</time>
      </trkpt>
      <trkpt lat="44.252" lon="3.00741">
        <ele>910.9</ele>
        <time>2023-06-25T09:15:58Z</time>
      </trkpt>
      <trkpt lat="44.25193" lon="3.00749">
        <ele>909.6</ele>
        <time>2023-06-25T09:15:59Z</time>
      </trkpt>
      <trkpt lat="44.25185" lon="3.00756">
        <ele>908.1</ele>
        <time>2023-06-25T09:16:00Z</time>
      </trkpt>
      <trkpt lat="44.25176" lon="3.00763">
        <ele>906.5</ele>
        <time>2023-06-25T09:16:01Z</time>
      </trkpt>
      <trkpt lat="44.25167" lon="3.00771">
        <ele>905</ele>
        <time>2023-06-25T09:16:02Z</time>
      </trkpt>
      <trkpt lat="44.25157" lon="3.00779">
        <ele>903.3</ele>
        <time>2023-06-25T09:16:03Z</time>
      </trkpt>
      <trkpt lat="44.25146" lon="3.00786">
        <ele>901.7</ele>
        <time>2023-06-25T09:16:04Z</time>
      </trkpt>
      <trkpt lat="44.25135" lon="3.00793">
        <ele>899.9</ele>
        <time>2023-06-25T09:16:05Z</time>
      </trkpt>
      <trkpt lat="44.25123" lon="3.00799">
        <ele>898.1</ele>
        <time>2023-06-25T09:16:06Z</time>
      </trkpt>
      <trkpt lat="44.25112" lon="3.00805">
        <ele>896.3</ele>
        <time>2023-06-25T09:16:07Z</time>
      </trkpt>
      <trkpt lat="44.25101" lon="3.00811">
        <ele>894.5</ele>
        <time>2023-06-25T09:16:08Z</time>
      </trkpt>
      <trkpt lat="44.25091" lon="3.00817">
        <ele>892.7</ele>
        <time>2023-06-25T09:16:09Z</time>
      </trkpt>
      <trkpt lat="44.25081" lon="3.00824">
        <ele>890.9</ele>
        <time>2023-06-25T09:16:10Z</time>
      </trkpt>
      <trkpt lat="44.25071" lon="3.00833">
        <ele>888.9</ele>
        <time>2023-06-25T09:16:11Z</time>
      </trkpt>
      <trkpt lat="44.25062" lon="3.00845">
        <ele>886.9</ele>
        <time>2023-06-25T09:16:12Z</time>
      </trkpt>
      <trkpt lat="44.25053" lon="3.00857">
        <ele>885</ele>
        <time>2023-06-25T09:16:13Z</time>
      </trkpt>
      <trkpt lat="44.25043" lon="3.00871">
        <ele>883.2</ele>
        <time>2023-06-25T09:16:14Z</time>
      </trkpt>
      <trkpt lat="44.25035" lon="3.00887">
        <ele>881.4</ele>
        <time>2023-06-25T09:16:15Z</time>
      </trkpt>
      <trkpt lat="44.25028" lon="3.00904">
        <ele>879.7</ele>
        <time>2023-06-25T09:16:16Z</time>
      </trkpt>
      <trkpt lat="44.25021" lon="3.0092">
        <ele>878</ele>
        <time>2023-06-25T09:16:17Z</time>
      </trkpt>
      <trkpt lat="44.25014" lon="3.00935">
        <ele>876.4</ele>
        <time>2023-06-25T09:16:18Z</time>
      </trkpt>
      <trkpt lat="44.25005" lon="3.00946">
        <ele>875.1</ele>
        <time>2023-06-25T09:16:19Z</time>
      </trkpt>
      <trkpt lat="44.24995" lon="3.00955">
        <ele>873.9</ele>
        <time>2023-06-25T09:16:20Z</time>
      </trkpt>
      <trkpt lat="44.24985" lon="3.00961">
        <ele>872.9</ele>
        <time>2023-06-25T09:16:21Z</time>
      </trkpt>
      <trkpt lat="44.24973" lon="3.00962">
        <ele>871.6</ele>
        <time>2023-06-25T09:16:22Z</time>
      </trkpt>
      <trkpt lat="44.24961" lon="3.00963">
        <ele>870.3</ele>
        <time>2023-06-25T09:16:23Z</time>
      </trkpt>
      <trkpt lat="44.24949" lon="3.00964">
        <ele>869.3</ele>
        <time>2023-06-25T09:16:24Z</time>
      </trkpt>
      <trkpt lat="44.24937" lon="3.00965">
        <ele>868.5</ele>
        <time>2023-06-25T09:16:25Z</time>
      </trkpt>
      <trkpt lat="44.24925" lon="3.00967">
        <ele>867.8</ele>
        <time>2023-06-25T09:16:26Z</time>
      </trkpt>
      <trkpt lat="44.24913" lon="3.00969">
        <ele>867.2</ele>
        <time>2023-06-25T09:16:27Z</time>
      </trkpt>
      <trkpt lat="44.24903" lon="3.00973">
        <ele>866.5</ele>
        <time>2023-06-25T09:16:28Z</time>
      </trkpt>
      <trkpt lat="44.24895" lon="3.00977">
        <ele>865.8</ele>
        <time>2023-06-25T09:16:29Z</time>
      </trkpt>
      <trkpt lat="44.24888" lon="3.00979">
        <ele>865.1</ele>
        <time>2023-06-25T09:16:30Z</time>
      </trkpt>
      <trkpt lat="44.24882" lon="3.0098">
        <ele>864.5</ele>
        <time>2023-06-25T09:16:31Z</time>
      </trkpt>
      <trkpt lat="44.24876" lon="3.00978">
        <ele>863.8</ele>
        <time>2023-06-25T09:16:32Z</time>
      </trkpt>
      <trkpt lat="44.24869" lon="3.00977">
        <ele>863.1</ele>
        <time>2023-06-25T09:16:33Z</time>
      </trkpt>
      <trkpt lat="44.24862" lon="3.00976">
        <ele>862.3</ele>
        <time>2023-06-25T09:16:34Z</time>
      </trkpt>
      <trkpt lat="44.24854" lon="3.00976">
        <ele>861.4</ele>
        <time>2023-06-25T09:16:35Z</time>
      </trkpt>
      <trkpt lat="44.24845" lon="3.00977">
        <ele>860.4</ele>
        <time>2023-06-25T09:16:36Z</time>
      </trkpt>
      <trkpt lat="44.24836" lon="3.00977">
        <ele>859.3</ele>
        <time>2023-06-25T09:16:37Z</time>
      </trkpt>
      <trkpt lat="44.24826" lon="3.00978">
        <ele>858.2</ele>
        <time>2023-06-25T09:16:38Z</time>
      </trkpt>
      <trkpt lat="44.24815" lon="3.00977">
        <ele>856.8</ele>
        <time>2023-06-25T09:16:39Z</time>
      </trkpt>
      <trkpt lat="44.24804" lon="3.00976">
        <ele>855.4</ele>
        <time>2023-06-25T09:16:40Z</time>
      </trkpt>
      <trkpt lat="44.24792" lon="3.00975">
        <ele>854.1</ele>
        <time>2023-06-25T09:16:41Z</time>
      </trkpt>
      <trkpt lat="44.2478" lon="3.00973">
        <ele>852.9</ele>
        <time>2023-06-25T09:16:42Z</time>
      </trkpt>
      <trkpt lat="44.24767" lon="3.00971">
        <ele>851.9</ele>
        <time>2023-06-25T09:16:43Z</time>
      </trkpt>
      <trkpt lat="44.24754" lon="3.0097">
        <ele>851.1</ele>
        <time>2023-06-25T09:16:44Z</time>
      </trkpt>
      <trkpt lat="44.24741" lon="3.00968">
        <ele>850.5</ele>
        <time>2023-06-25T09:16:45Z</time>
      </trkpt>
      <trkpt lat="44.24728" lon="3.00966">
        <ele>850</ele>
        <time>2023-06-25T09:16:46Z</time>
      </trkpt>
      <trkpt lat="44.24715" lon="3.00964">
        <ele>849.5</ele>
        <time>2023-06-25T09:16:47Z</time>
      </trkpt>
      <trkpt lat="44.24702" lon="3.00961">
        <ele>849</ele>
        <time>2023-06-25T09:16:48Z</time>
      </trkpt>
      <trkpt lat="44.24691" lon="3.0096">
        <ele>848.4</ele>
        <time>2023-06-25T09:16:49Z</time>
      </trkpt>
      <trkpt lat="44.24679" lon="3.00959">
        <ele>847.7</ele>
        <time>2023-06-25T09:16:50Z</time>
      </trkpt>
      <trkpt lat="44.24668" lon="3.00958">
        <ele>846.9</ele>
        <time>2023-06-25T09:16:51Z</time>
      </trkpt>
      <trkpt lat="44.24656" lon="3.00956">
        <ele>845.9</ele>
        <time>2023-06-25T09:16:52Z</time>
      </trkpt>
      <trkpt lat="44.24646" lon="3.00955">
        <ele>844.8</ele>
        <time>2023-06-25T09:16:53Z</time>
      </trkpt>
      <trkpt lat="44.24636" lon="3.00952">
        <ele>843.7</ele>
        <time>2023-06-25T09:16:54Z</time>
      </trkpt>
      <trkpt lat="44.24626" lon="3.00947">
        <ele>842.5</ele>
        <time>2023-06-25T09:16:55Z</time>
      </trkpt>
      <trkpt lat="44.24617" lon="3.0094">
        <ele>841.3</ele>
        <time>2023-06-25T09:16:56Z</time>
      </trkpt>
      <trkpt lat="44.24608" lon="3.00932">
        <ele>840</ele>
        <time>2023-06-25T09:16:57Z</time>
      </trkpt>
      <trkpt lat="44.24599" lon="3.00924">
        <ele>838.7</ele>
        <time>2023-06-25T09:16:58Z</time>
      </trkpt>
      <trkpt lat="44.24589" lon="3.00919">
        <ele>837.3</ele>
        <time>2023-06-25T09:16:59Z</time>
      </trkpt>
      <trkpt lat="44.24579" lon="3.00914">
        <ele>835.7</ele>
        <time>2023-06-25T09:17:00Z</time>
      </trkpt>
      <trkpt lat="44.24569" lon="3.00911">
        <ele>834</ele>
        <time>2023-06-25T09:17:01Z</time>
      </trkpt>
      <trkpt lat="44.24558" lon="3.00909">
        <ele>832.3</ele>
        <time>2023-06-25T09:17:02Z</time>
      </trkpt>
      <trkpt lat="44.24547" lon="3.00907">
        <ele>830.6</ele>
        <time>2023-06-25T09:17:03Z</time>
      </trkpt>
      <trkpt lat="44.24535" lon="3.00905">
        <ele>828.7</ele>
        <time>2023-06-25T09:17:04Z</time>
      </trkpt>
      <trkpt lat="44.24523" lon="3.00903">
        <ele>826.8</ele>
        <time>2023-06-25T09:17:05Z</time>
      </trkpt>
      <trkpt lat="44.24511" lon="3.009">
        <ele>824.6</ele>
        <time>2023-06-25T09:17:06Z</time>
      </trkpt>
      <trkpt lat="44.24499" lon="3.00897">
        <ele>822.5</ele>
        <time>2023-06-25T09:17:07Z</time>
      </trkpt>
      <trkpt lat="44.24488" lon="3.00895">
        <ele>820.7</ele>
        <time>2023-06-25T09:17:08Z</time>
      </trkpt>
      <trkpt lat="44.24476" lon="3.00892">
        <ele>819.1</ele>
        <time>2023-06-25T09:17:09Z</time>
      </trkpt>
      <trkpt lat="44.24465" lon="3.00891">
        <ele>817.7</ele>
        <time>2023-06-25T09:17:10Z</time>
      </trkpt>
      <trkpt lat="44.24456" lon="3.0089">
        <ele>816.3</ele>
        <time>2023-06-25T09:17:11Z</time>
      </trkpt>
      <trkpt lat="44.24447" lon="3.00891">
        <ele>815</ele>
        <time>2023-06-25T09:17:12Z</time>
      </trkpt>
      <trkpt lat="44.24442" lon="3.00891">
        <ele>814.2</ele>
        <time>2023-06-25T09:17:13Z</time>
      </trkpt>
      <trkpt lat="44.24437" lon="3.00891">
        <ele>813.7</ele>
        <time>2023-06-25T09:17:14Z</time>
      </trkpt>
      <trkpt lat="44.24438" lon="3.00887">
        <ele>813.4</ele>
        <time>2023-06-25T09:17:15Z</time>
      </trkpt>
      <trkpt lat="44.2444" lon="3.00882">
        <ele>813</ele>
        <time>2023-06-25T09:17:16Z</time>
      </trkpt>
      <trkpt lat="44.24443" lon="3.0088">
        <ele>812.7</ele>
        <time>2023-06-25T09:17:17Z</time>
      </trkpt>
      <trkpt lat="44.24447" lon="3.00877">
        <ele>812.4</ele>
        <time>2023-06-25T09:17:18Z</time>
      </trkpt>
      <trkpt lat="44.24452" lon="3.00876">
        <ele>812</ele>
        <time>2023-06-25T09:17:19Z</time>
      </trkpt>
      <trkpt lat="44.24456" lon="3.00874">
        <ele>811.7</ele>
        <time>2023-06-25T09:17:20Z</time>
      </trkpt>
      <trkpt lat="44.24463" lon="3.00871">
        <ele>811.2</ele>
        <time>2023-06-25T09:17:21Z</time>
      </trkpt>
      <trkpt lat="44.2447" lon="3.00866">
        <ele>810.8</ele>
        <time>2023-06-25T09:17:22Z</time>
      </trkpt>
      <trkpt lat="44.24477" lon="3.00861">
        <ele>810.3</ele>
        <time>2023-06-25T09:17:23Z</time>
      </trkpt>
      <trkpt lat="44.24484" lon="3.00856">
        <ele>809.8</ele>
        <time>2023-06-25T09:17:24Z</time>
      </trkpt>
      <trkpt lat="44.24492" lon="3.00852">
        <ele>809.3</ele>
        <time>2023-06-25T09:17:25Z</time>
      </trkpt>
      <trkpt lat="44.245" lon="3.00847">
        <ele>808.8</ele>
        <time>2023-06-25T09:17:26Z</time>
      </trkpt>
      <trkpt lat="44.24507" lon="3.00843">
        <ele>808.5</ele>
        <time>2023-06-25T09:17:27Z</time>
      </trkpt>
      <trkpt lat="44.24515" lon="3.00838">
        <ele>808.2</ele>
        <time>2023-06-25T09:17:28Z</time>
      </trkpt>
      <trkpt lat="44.24524" lon="3.00834">
        <ele>807.9</ele>
        <time>2023-06-25T09:17:29Z</time>
      </trkpt>
      <trkpt lat="44.24532" lon="3.0083">
        <ele>807.5</ele>
        <time>2023-06-25T09:17:30Z</time>
      </trkpt>
      <trkpt lat="44.24541" lon="3.00826">
        <ele>807</ele>
        <time>2023-06-25T09:17:31Z</time>
      </trkpt>
      <trkpt lat="44.24549" lon="3.00823">
        <ele>806.5</ele>
        <time>2023-06-25T09:17:32Z</time>
      </trkpt>
      <trkpt lat="44.24558" lon="3.0082">
        <ele>806</ele>
        <time>2023-06-25T09:17:33Z</time>
      </trkpt>
      <trkpt lat="44.24567" lon="3.00816">
        <ele>805.6</ele>
        <time>2023-06-25T09:17:34Z</time>
      </trkpt>
      <trkpt lat="44.24575" lon="3.00811">
        <ele>805.3</ele>
        <time>2023-06-25T09:17:35Z</time>
      </trkpt>
      <trkpt lat="44.24584" lon="3.00807">
        <ele>804.8</ele>
        <time>2023-06-25T09:17:36Z</time>
      </trkpt>
      <trkpt lat="44.24593" lon="3.00802">
        <ele>804.4</ele>
        <time>2023-06-25T09:17:37Z</time>
      </trkpt>
      <trkpt lat="44.24602" lon="3.00798">
        <ele>804.1</ele>
        <time>2023-06-25T09:17:38Z</time>
      </trkpt>
      <trkpt lat="44.2461" lon="3.00795">
        <ele>803.8</ele>
        <time>2023-06-25T09:17:39Z</time>
      </trkpt>
      <trkpt lat="44.24619" lon="3.00793">
        <ele>803.6</ele>
        <time>2023-06-25T09:17:40Z</time>
      </trkpt>
      <trkpt lat="44.24626" lon="3.00793">
        <ele>803.6</ele>
        <time>2023-06-25T09:17:41Z</time>
      </trkpt>
      <trkpt lat="44.24634" lon="3.00791">
        <ele>803.6</ele>
        <time>2023-06-25T09:17:42Z</time>
      </trkpt>
      <trkpt lat="44.2464" lon="3.00789">
        <ele>803.6</ele>
        <time>2023-06-25T09:17:43Z</time>
      </trkpt>
      <trkpt lat="44.24644" lon="3.00782">
        <ele>803.6</ele>
        <time>2023-06-25T09:17:44Z</time>
      </trkpt>
      <trkpt lat="44.24646" lon="3.00774">
        <ele>803.6</ele>
        <time>2023-06-25T09:17:45Z</time>
      </trkpt>
      <trkpt lat="44.24647" lon="3.00764">
        <ele>803.6</ele>
        <time>2023-06-25T09:17:46Z</time>
      </trkpt>
      <trkpt lat="44.24645" lon="3.00757">
        <ele>803.6</ele>
        <time>2023-06-25T09:17:47Z</time>
      </trkpt>
      <trkpt lat="44.24642" lon="3.00751">
        <ele>803.7</ele>
        <time>2023-06-25T09:17:48Z</time>
      </trkpt>
      <trkpt lat="44.24639" lon="3.00745">
        <ele>803.7</ele>
        <time>2023-06-25T09:17:49Z</time>
      </trkpt>
      <trkpt lat="44.24635" lon="3.00741">
        <ele>803.9</ele>
        <time>2023-06-25T09:17:50Z</time>
      </trkpt>
      <trkpt lat="44.2463" lon="3.00737">
        <ele>804</ele>
        <time>2023-06-25T09:17:51Z</time>
      </trkpt>
      <trkpt lat="44.24626" lon="3.00732">
        <ele>804.2</ele>
        <time>2023-06-25T09:17:52Z</time>
      </trkpt>
      <trkpt lat="44.24622" lon="3.00728">
        <ele>804.3</ele>
        <time>2023-06-25T09:17:53Z</time>
      </trkpt>
      <trkpt lat="44.24618" lon="3.00725">
        <ele>804.4</ele>
        <time>2023-06-25T09:17:54Z</time>
      </trkpt>
      <trkpt lat="44.24614" lon="3.00722">
        <ele>804.5</ele>
        <time>2023-06-25T09:17:55Z</time>
      </trkpt>
      <trkpt lat="44.24609" lon="3.00721">
        <ele>804.5</ele>
        <time>2023-06-25T09:17:56Z</time>
      </trkpt>
      <trkpt lat="44.24606" lon="3.0072">
        <ele>804.6</ele>
        <time>2023-06-25T09:17:57Z</time>
      </trkpt>
      <trkpt lat="44.24602" lon="3.00719">
        <ele>804.6</ele>
        <time>2023-06-25T09:17:58Z</time>
      </trkpt>
      <trkpt lat="44.24596" lon="3.00718">
        <ele>804.6</ele>
        <time>2023-06-25T09:17:59Z</time>
      </trkpt>
      <trkpt lat="44.2459" lon="3.00717">
        <ele>804.7</ele>
        <time>2023-06-25T09:18:00Z</time>
      </trkpt>
      <trkpt lat="44.24585" lon="3.00716">
        <ele>804.7</ele>
        <time>2023-06-25T09:18:01Z</time>
      </trkpt>
      <trkpt lat="44.2458" lon="3.00715">
        <ele>804.8</ele>
        <time>2023-06-25T09:18:02Z</time>
      </trkpt>
      <trkpt lat="44.24575" lon="3.00714">
        <ele>804.8</ele>
        <time>2023-06-25T09:18:03Z</time>
      </trkpt>
      <trkpt lat="44.2457" lon="3.00714">
        <ele>804.8</ele>
        <time>2023-06-25T09:18:04Z</time>
      </trkpt>
      <trkpt lat="44.24565" lon="3.00714">
        <ele>804.9</ele>
        <time>2023-06-25T09:18:05Z</time>
      </trkpt>
      <trkpt lat="44.2456" lon="3.00713">
        <ele>804.9</ele>
        <time>2023-06-25T09:18:06Z</time>
      </trkpt>
      <trkpt lat="44.24554" lon="3.00713">
        <ele>805</ele>
        <time>2023-06-25T09:18:07Z</time>
      </trkpt>
      <trkpt lat="44.24549" lon="3.00713">
        <ele>805.1</ele>
        <time>2023-06-25T09:18:08Z</time>
      </trkpt>
      <trkpt lat="44.24544" lon="3.00714">
        <ele>805.2</ele>
        <time>2023-06-25T09:18:09Z</time>
      </trkpt>
      <trkpt lat="44.24539" lon="3.00715">
        <ele>805.3</ele>
        <time>2023-06-25T09:18:10Z</time>
      </trkpt>
      <trkpt lat="44.24533" lon="3.00716">
        <ele>805.5</ele>
        <time>2023-06-25T09:18:11Z</time>
      </trkpt>
      <trkpt lat="44.24527" lon="3.00718">
        <ele>805.6</ele>
        <time>2023-06-25T09:18:12Z</time>
      </trkpt>
      <trkpt lat="44.24522" lon="3.00719">
        <ele>805.7</ele>
        <time>2023-06-25T09:18:13Z</time>
      </trkpt>
      <trkpt lat="44.24516" lon="3.0072">
        <ele>805.8</ele>
        <time>2023-06-25T09:18:14Z</time>
      </trkpt>
      <trkpt lat="44.24511" lon="3.00721">
        <ele>805.9</ele>
        <time>2023-06-25T09:18:15Z</time>
      </trkpt>
      <trkpt lat="44.24506" lon="3.00721">
        <ele>806</ele>
        <time>2023-06-25T09:18:16Z</time>
      </trkpt>
      <trkpt lat="44.245" lon="3.00721">
        <ele>806.3</ele>
        <time>2023-06-25T09:18:17Z</time>
      </trkpt>
      <trkpt lat="44.24495" lon="3.00721">
        <ele>806.5</ele>
        <time>2023-06-25T09:18:18Z</time>
      </trkpt>
      <trkpt lat="44.2449" lon="3.00721">
        <ele>806.7</ele>
        <time>2023-06-25T09:18:19Z</time>
      </trkpt>
      <trkpt lat="44.24485" lon="3.00721">
        <ele>806.9</ele>
        <time>2023-06-25T09:18:20Z</time>
      </trkpt>
      <trkpt lat="44.2448" lon="3.00721">
        <ele>807.1</ele>
        <time>2023-06-25T09:18:21Z</time>
      </trkpt>
      <trkpt lat="44.24475" lon="3.00719">
        <ele>807.3</ele>
        <time>2023-06-25T09:18:22Z</time>
      </trkpt>
      <trkpt lat="44.24471" lon="3.00717">
        <ele>807.5</ele>
        <time>2023-06-25T09:18:23Z</time>
      </trkpt>
      <trkpt lat="44.24466" lon="3.00716">
        <ele>807.7</ele>
        <time>2023-06-25T09:18:24Z</time>
      </trkpt>
      <trkpt lat="44.24462" lon="3.00715">
        <ele>807.8</ele>
        <time>2023-06-25T09:18:25Z</time>
      </trkpt>
      <trkpt lat="44.24458" lon="3.00714">
        <ele>808</ele>
        <time>2023-06-25T09:18:26Z</time>
      </trkpt>
      <trkpt lat="44.24453" lon="3.00712">
        <ele>808.1</ele>
        <time>2023-06-25T09:18:27Z</time>
      </trkpt>
      <trkpt lat="44.2445" lon="3.00711">
        <ele>808.3</ele>
        <time>2023-06-25T09:18:28Z</time>
      </trkpt>
      <trkpt lat="44.24446" lon="3.0071">
        <ele>808.4</ele>
        <time>2023-06-25T09:18:29Z</time>
      </trkpt>
      <trkpt lat="44.24444" lon="3.0071">
        <ele>808.5</ele>
        <time>2023-06-25T09:18:30Z</time>
      </trkpt>
      <trkpt lat="44.2444" lon="3.00709">
        <ele>808.6</ele>
        <time>2023-06-25T09:18:31Z</time>
      </trkpt>
      <trkpt lat="44.24437" lon="3.00707">
        <ele>808.8</ele>
        <time>2023-06-25T09:18:32Z</time>
      </trkpt>
      <trkpt lat="44.24433" lon="3.00706">
        <ele>808.9</ele>
        <time>2023-06-25T09:18:33Z</time>
      </trkpt>
      <trkpt lat="44.24429" lon="3.00703">
        <ele>809</ele>
        <time>2023-06-25T09:18:34Z</time>
      </trkpt>
      <trkpt lat="44.2442" lon="3.00701">
        <ele>809.4</ele>
        <time>2023-06-25T09:18:36Z</time>
      </trkpt>
      <trkpt lat="44.24415" lon="3.007">
        <ele>809.7</ele>
        <time>2023-06-25T09:18:37Z</time>
      </trkpt>
      <trkpt lat="44.24409" lon="3.00698">
        <ele>810</ele>
        <time>2023-06-25T09:18:38Z</time>
      </trkpt>
      <trkpt lat="44.24404" lon="3.00695">
        <ele>810.3</ele>
        <time>2023-06-25T09:18:39Z</time>
      </trkpt>
      <trkpt lat="44.24398" lon="3.00693">
        <ele>810.5</ele>
        <time>2023-06-25T09:18:41Z</time>
      </trkpt>
      <trkpt lat="44.24391" lon="3.00689">
        <ele>810.9</ele>
        <time>2023-06-25T09:18:42Z</time>
      </trkpt>
      <trkpt lat="44.24386" lon="3.00686">
        <ele>811.2</ele>
        <time>2023-06-25T09:18:43Z</time>
      </trkpt>
      <trkpt lat="44.24381" lon="3.00683">
        <ele>811.5</ele>
        <time>2023-06-25T09:18:44Z</time>
      </trkpt>
      <trkpt lat="44.24377" lon="3.0068">
        <ele>811.8</ele>
        <time>2023-06-25T09:18:45Z</time>
      </trkpt>
      <trkpt lat="44.24372" lon="3.00677">
        <ele>812.1</ele>
        <time>2023-06-25T09:18:46Z</time>
      </trkpt>
      <trkpt lat="44.24369" lon="3.00673">
        <ele>812.3</ele>
        <time>2023-06-25T09:18:47Z</time>
      </trkpt>
      <trkpt lat="44.24367" lon="3.00668">
        <ele>812.6</ele>
        <time>2023-06-25T09:18:49Z</time>
      </trkpt>
      <trkpt lat="44.24361" lon="3.00662">
        <ele>813</ele>
        <time>2023-06-25T09:18:50Z</time>
      </trkpt>
      <trkpt lat="44.24356" lon="3.00654">
        <ele>813.4</ele>
        <time>2023-06-25T09:18:52Z</time>
      </trkpt>
      <trkpt lat="44.24354" lon="3.00649">
        <ele>813.6</ele>
        <time>2023-06-25T09:18:53Z</time>
      </trkpt>
      <trkpt lat="44.24351" lon="3.00643">
        <ele>813.9</ele>
        <time>2023-06-25T09:18:54Z</time>
      </trkpt>
      <trkpt lat="44.24349" lon="3.00639">
        <ele>814.1</ele>
        <time>2023-06-25T09:18:55Z</time>
      </trkpt>
      <trkpt lat="44.24347" lon="3.00634">
        <ele>814.4</ele>
        <time>2023-06-25T09:18:56Z</time>
      </trkpt>
      <trkpt lat="44.24345" lon="3.00628">
        <ele>814.8</ele>
        <time>2023-06-25T09:18:58Z</time>
      </trkpt>
      <trkpt lat="44.24343" lon="3.00624">
        <ele>815</ele>
        <time>2023-06-25T09:18:59Z</time>
      </trkpt>
      <trkpt lat="44.24341" lon="3.00618">
        <ele>815.4</ele>
        <time>2023-06-25T09:19:00Z</time>
      </trkpt>
      <trkpt lat="44.24339" lon="3.00614">
        <ele>815.7</ele>
        <time>2023-06-25T09:19:01Z</time>
      </trkpt>
      <trkpt lat="44.24336" lon="3.0061">
        <ele>815.9</ele>
        <time>2023-06-25T09:19:02Z</time>
      </trkpt>
      <trkpt lat="44.24334" lon="3.00606">
        <ele>816.1</ele>
        <time>2023-06-25T09:19:03Z</time>
      </trkpt>
      <trkpt lat="44.24331" lon="3.006">
        <ele>816.4</ele>
        <time>2023-06-25T09:19:05Z</time>
      </trkpt>
      <trkpt lat="44.24329" lon="3.00596">
        <ele>816.5</ele>
        <time>2023-06-25T09:19:06Z</time>
      </trkpt>
      <trkpt lat="44.24327" lon="3.00593">
        <ele>816.7</ele>
        <time>2023-06-25T09:19:07Z</time>
      </trkpt>
      <trkpt lat="44.24324" lon="3.00589">
        <ele>816.8</ele>
        <time>2023-06-25T09:19:09Z</time>
      </trkpt>
      <trkpt lat="44.24321" lon="3.00584">
        <ele>817</ele>
        <time>2023-06-25T09:19:10Z</time>
      </trkpt>
      <trkpt lat="44.24318" lon="3.0058">
        <ele>817.1</ele>
        <time>2023-06-25T09:19:11Z</time>
      </trkpt>
      <trkpt lat="44.24314" lon="3.00574">
        <ele>817.2</ele>
        <time>2023-06-25T09:19:13Z</time>
      </trkpt>
      <trkpt lat="44.24312" lon="3.0057">
        <ele>817.2</ele>
        <time>2023-06-25T09:19:15Z</time>
      </trkpt>
      <trkpt lat="44.2431" lon="3.00567">
        <ele>817.3</ele>
        <time>2023-06-25T09:19:16Z</time>
      </trkpt>
      <trkpt lat="44.24308" lon="3.00564">
        <ele>817.3</ele>
        <time>2023-06-25T09:19:17Z</time>
      </trkpt>
      <trkpt lat="44.24305" lon="3.00557">
        <ele>817.4</ele>
        <time>2023-06-25T09:19:19Z</time>
      </trkpt>
      <trkpt lat="44.24303" lon="3.00554">
        <ele>817.5</ele>
        <time>2023-06-25T09:19:20Z</time>
      </trkpt>
      <trkpt lat="44.24301" lon="3.00547">
        <ele>817.6</ele>
        <time>2023-06-25T09:19:22Z</time>
      </trkpt>
      <trkpt lat="44.243" lon="3.00542">
        <ele>817.7</ele>
        <time>2023-06-25T09:19:23Z</time>
      </trkpt>
      <trkpt lat="44.24299" lon="3.00537">
        <ele>817.8</ele>
        <time>2023-06-25T09:19:24Z</time>
      </trkpt>
      <trkpt lat="44.24299" lon="3.00532">
        <ele>818</ele>
        <time>2023-06-25T09:19:25Z</time>
      </trkpt>
      <trkpt lat="44.24298" lon="3.00527">
        <ele>818.1</ele>
        <time>2023-06-25T09:19:26Z</time>
      </trkpt>
      <trkpt lat="44.24297" lon="3.00519">
        <ele>818.1</ele>
        <time>2023-06-25T09:19:28Z</time>
      </trkpt>
      <trkpt lat="44.24296" lon="3.00513">
        <ele>818.1</ele>
        <time>2023-06-25T09:19:29Z</time>
      </trkpt>
      <trkpt lat="44.24294" lon="3.00507">
        <ele>818.2</ele>
        <time>2023-06-25T09:19:31Z</time>
      </trkpt>
      <trkpt lat="44.24292" lon="3.00501">
        <ele>818.2</ele>
        <time>2023-06-25T09:19:32Z</time>
      </trkpt>
      <trkpt lat="44.2429" lon="3.00495">
        <ele>818.3</ele>
        <time>2023-06-25T09:19:33Z</time>
      </trkpt>
      <trkpt lat="44.24288" lon="3.00489">
        <ele>818.4</ele>
        <time>2023-06-25T09:19:34Z</time>
      </trkpt>
      <trkpt lat="44.24284" lon="3.00483">
        <ele>818.5</ele>
        <time>2023-06-25T09:19:36Z</time>
      </trkpt>
      <trkpt lat="44.24282" lon="3.0048">
        <ele>818.4</ele>
        <time>2023-06-25T09:19:37Z</time>
      </trkpt>
      <trkpt lat="44.24279" lon="3.00477">
        <ele>818.4</ele>
        <time>2023-06-25T09:19:38Z</time>
      </trkpt>
      <trkpt lat="44.24276" lon="3.00471">
        <ele>818.3</ele>
        <time>2023-06-25T09:19:40Z</time>
      </trkpt>
      <trkpt lat="44.24273" lon="3.00466">
        <ele>818.3</ele>
        <time>2023-06-25T09:19:41Z</time>
      </trkpt>
      <trkpt lat="44.24271" lon="3.00461">
        <ele>818.3</ele>
        <time>2023-06-25T09:19:42Z</time>
      </trkpt>
      <trkpt lat="44.24269" lon="3.00456">
        <ele>818.3</ele>
        <time>2023-06-25T09:19:43Z</time>
      </trkpt>
      <trkpt lat="44.24267" lon="3.00449">
        <ele>818.3</ele>
        <time>2023-06-25T09:19:44Z</time>
      </trkpt>
      <trkpt lat="44.24265" lon="3.00438">
        <ele>818.2</ele>
        <time>2023-06-25T09:19:46Z</time>
      </trkpt>
      <trkpt lat="44.24264" lon="3.00432">
        <ele>818.1</ele>
        <time>2023-06-25T09:19:47Z</time>
      </trkpt>
      <trkpt lat="44.24262" lon="3.00427">
        <ele>817.9</ele>
        <time>2023-06-25T09:19:48Z</time>
      </trkpt>
      <trkpt lat="44.24259" lon="3.00419">
        <ele>817.6</ele>
        <time>2023-06-25T09:19:50Z</time>
      </trkpt>
      <trkpt lat="44.24257" lon="3.00413">
        <ele>817.2</ele>
        <time>2023-06-25T09:19:51Z</time>
      </trkpt>
      <trkpt lat="44.24255" lon="3.00409">
        <ele>817.1</ele>
        <time>2023-06-25T09:19:52Z</time>
      </trkpt>
      <trkpt lat="44.24249" lon="3.00402">
        <ele>817.1</ele>
        <time>2023-06-25T09:19:54Z</time>
      </trkpt>
      <trkpt lat="44.24245" lon="3.00398">
        <ele>817</ele>
        <time>2023-06-25T09:19:55Z</time>
      </trkpt>
      <trkpt lat="44.24241" lon="3.00394">
        <ele>816.9</ele>
        <time>2023-06-25T09:19:56Z</time>
      </trkpt>
      <trkpt lat="44.24237" lon="3.00388">
        <ele>816.7</ele>
        <time>2023-06-25T09:19:57Z</time>
      </trkpt>
      <trkpt lat="44.24234" lon="3.00382">
        <ele>816.4</ele>
        <time>2023-06-25T09:19:58Z</time>
      </trkpt>
      <trkpt lat="44.24231" lon="3.00375">
        <ele>816.2</ele>
        <time>2023-06-25T09:19:59Z</time>
      </trkpt>
      <trkpt lat="44.24228" lon="3.00368">
        <ele>815.9</ele>
        <time>2023-06-25T09:20:00Z</time>
      </trkpt>
      <trkpt lat="44.24226" lon="3.0036">
        <ele>815.6</ele>
        <time>2023-06-25T09:20:01Z</time>
      </trkpt>
      <trkpt lat="44.24224" lon="3.00352">
        <ele>815.4</ele>
        <time>2023-06-25T09:20:02Z</time>
      </trkpt>
      <trkpt lat="44.24222" lon="3.00343">
        <ele>815.1</ele>
        <time>2023-06-25T09:20:03Z</time>
      </trkpt>
      <trkpt lat="44.24221" lon="3.00333">
        <ele>814.9</ele>
        <time>2023-06-25T09:20:04Z</time>
      </trkpt>
      <trkpt lat="44.2422" lon="3.00323">
        <ele>814.7</ele>
        <time>2023-06-25T09:20:05Z</time>
      </trkpt>
      <trkpt lat="44.2422" lon="3.00313">
        <ele>814.5</ele>
        <time>2023-06-25T09:20:06Z</time>
      </trkpt>
      <trkpt lat="44.2422" lon="3.00303">
        <ele>814.3</ele>
        <time>2023-06-25T09:20:07Z</time>
      </trkpt>
      <trkpt lat="44.2422" lon="3.00292">
        <ele>814.2</ele>
        <time>2023-06-25T09:20:08Z</time>
      </trkpt>
      <trkpt lat="44.24221" lon="3.00283">
        <ele>814</ele>
        <time>2023-06-25T09:20:09Z</time>
      </trkpt>
      <trkpt lat="44.24223" lon="3.00274">
        <ele>813.8</ele>
        <time>2023-06-25T09:20:10Z</time>
      </trkpt>
      <trkpt lat="44.24225" lon="3.00265">
        <ele>813.6</ele>
        <time>2023-06-25T09:20:11Z</time>
      </trkpt>
      <trkpt lat="44.24229" lon="3.00256">
        <ele>813.3</ele>
        <time>2023-06-25T09:20:12Z</time>
      </trkpt>
      <trkpt lat="44.24234" lon="3.00247">
        <ele>813.2</ele>
        <time>2023-06-25T09:20:13Z</time>
      </trkpt>
      <trkpt lat="44.24238" lon="3.00238">
        <ele>813.3</ele>
        <time>2023-06-25T09:20:14Z</time>
      </trkpt>
      <trkpt lat="44.24242" lon="3.00229">
        <ele>813.5</ele>
        <time>2023-06-25T09:20:15Z</time>
      </trkpt>
      <trkpt lat="44.24246" lon="3.0022">
        <ele>814</ele>
        <time>2023-06-25T09:20:16Z</time>
      </trkpt>
      <trkpt lat="44.24247" lon="3.00213">
        <ele>814.6</ele>
        <time>2023-06-25T09:20:17Z</time>
      </trkpt>
      <trkpt lat="44.24247" lon="3.00207">
        <ele>815.2</ele>
        <time>2023-06-25T09:20:18Z</time>
      </trkpt>
      <trkpt lat="44.24246" lon="3.00203">
        <ele>815.7</ele>
        <time>2023-06-25T09:20:19Z</time>
      </trkpt>
      <trkpt lat="44.24244" lon="3.00201">
        <ele>816.1</ele>
        <time>2023-06-25T09:20:20Z</time>
      </trkpt>
      <trkpt lat="44.24242" lon="3.00199">
        <ele>816.4</ele>
        <time>2023-06-25T09:20:21Z</time>
      </trkpt>
      <trkpt lat="44.2424" lon="3.00201">
        <ele>816.9</ele>
        <time>2023-06-25T09:20:22Z</time>
      </trkpt>
      <trkpt lat="44.24237" lon="3.00203">
        <ele>817.5</ele>
        <time>2023-06-25T09:20:23Z</time>
      </trkpt>
      <trkpt lat="44.24232" lon="3.00207">
        <ele>817.5</ele>
        <time>2023-06-25T09:20:24Z</time>
      </trkpt>
      <trkpt lat="44.24229" lon="3.00209">
        <ele>817.6</ele>
        <time>2023-06-25T09:20:25Z</time>
      </trkpt>
      <trkpt lat="44.24225" lon="3.00212">
        <ele>817.8</ele>
        <time>2023-06-25T09:20:26Z</time>
      </trkpt>
      <trkpt lat="44.24224" lon="3.00213">
        <ele>817.9</ele>
        <time>2023-06-25T09:20:27Z</time>
      </trkpt>
      <trkpt lat="44.2422" lon="3.00215">
        <ele>818.2</ele>
        <time>2023-06-25T09:20:29Z</time>
      </trkpt>
      <trkpt lat="44.24217" lon="3.00217">
        <ele>818.4</ele>
        <time>2023-06-25T09:20:31Z</time>
      </trkpt>
      <trkpt lat="44.24217" lon="3.00218">
        <ele>818.5</ele>
        <time>2023-06-25T09:20:32Z</time>
      </trkpt>
      <trkpt lat="44.24216" lon="3.00219">
        <ele>818.6</ele>
        <time>2023-06-25T09:20:33Z</time>
      </trkpt>
      <trkpt lat="44.24214" lon="3.0022">
        <ele>818.8</ele>
        <time>2023-06-25T09:20:35Z</time>
      </trkpt>
      <trkpt lat="44.24213" lon="3.0022">
        <ele>818.9</ele>
        <time>2023-06-25T09:20:36Z</time>
      </trkpt>
      <trkpt lat="44.24208" lon="3.00222">
        <ele>819.4</ele>
        <time>2023-06-25T09:20:38Z</time>
      </trkpt>
      <trkpt lat="44.24204" lon="3.00223">
        <ele>819.8</ele>
        <time>2023-06-25T09:20:39Z</time>
      </trkpt>
      <trkpt lat="44.24203" lon="3.00224">
        <ele>820</ele>
        <time>2023-06-25T09:20:40Z</time>
      </trkpt>
      <trkpt lat="44.242" lon="3.00225">
        <ele>820.3</ele>
        <time>2023-06-25T09:20:41Z</time>
      </trkpt>
      <trkpt lat="44.24197" lon="3.00226">
        <ele>820.7</ele>
        <time>2023-06-25T09:20:43Z</time>
      </trkpt>
      <trkpt lat="44.24194" lon="3.00227">
        <ele>821.1</ele>
        <time>2023-06-25T09:20:44Z</time>
      </trkpt>
      <trkpt lat="44.24191" lon="3.0023">
        <ele>821.5</ele>
        <time>2023-06-25T09:20:45Z</time>
      </trkpt>
      <trkpt lat="44.2419" lon="3.0023">
        <ele>821.6</ele>
        <time>2023-06-25T09:20:46Z</time>
      </trkpt>
      <trkpt lat="44.24187" lon="3.00232">
        <ele>822.1</ele>
        <time>2023-06-25T09:20:47Z</time>
      </trkpt>
      <trkpt lat="44.24186" lon="3.00232">
        <ele>822.2</ele>
        <time>2023-06-25T09:20:48Z</time>
      </trkpt>
      <trkpt lat="44.24183" lon="3.00232">
        <ele>822.6</ele>
        <time>2023-06-25T09:20:49Z</time>
      </trkpt>
      <trkpt lat="44.2418" lon="3.00233">
        <ele>823.1</ele>
        <time>2023-06-25T09:20:50Z</time>
      </trkpt>
      <trkpt lat="44.24177" lon="3.00233">
        <ele>823.5</ele>
        <time>2023-06-25T09:20:51Z</time>
      </trkpt>
      <trkpt lat="44.24173" lon="3.00233">
        <ele>824</ele>
        <time>2023-06-25T09:20:53Z</time>
      </trkpt>
      <trkpt lat="44.24172" lon="3.00233">
        <ele>824.2</ele>
        <time>2023-06-25T09:20:54Z</time>
      </trkpt>
      <trkpt lat="44.24168" lon="3.00233">
        <ele>824.7</ele>
        <time>2023-06-25T09:20:55Z</time>
      </trkpt>
      <trkpt lat="44.24167" lon="3.00233">
        <ele>824.9</ele>
        <time>2023-06-25T09:20:56Z</time>
      </trkpt>
      <trkpt lat="44.24165" lon="3.00232">
        <ele>825.3</ele>
        <time>2023-06-25T09:20:57Z</time>
      </trkpt>
      <trkpt lat="44.24162" lon="3.00232">
        <ele>825.6</ele>
        <time>2023-06-25T09:20:59Z</time>
      </trkpt>
      <trkpt lat="44.24159" lon="3.00231">
        <ele>826</ele>
        <time>2023-06-25T09:21:00Z</time>
      </trkpt>
      <trkpt lat="44.24159" lon="3.00231">
        <ele>826.1</ele>
        <time>2023-06-25T09:21:01Z</time>
      </trkpt>
      <trkpt lat="44.24156" lon="3.00228">
        <ele>826.5</ele>
        <time>2023-06-25T09:21:02Z</time>
      </trkpt>
      <trkpt lat="44.24153" lon="3.00226">
        <ele>826.9</ele>
        <time>2023-06-25T09:21:03Z</time>
      </trkpt>
      <trkpt lat="44.2415" lon="3.00225">
        <ele>827.3</ele>
        <time>2023-06-25T09:21:05Z</time>
      </trkpt>
      <trkpt lat="44.24149" lon="3.00224">
        <ele>827.4</ele>
        <time>2023-06-25T09:21:06Z</time>
      </trkpt>
      <trkpt lat="44.24146" lon="3.00222">
        <ele>827.8</ele>
        <time>2023-06-25T09:21:07Z</time>
      </trkpt>
      <trkpt lat="44.24145" lon="3.00221">
        <ele>827.9</ele>
        <time>2023-06-25T09:21:08Z</time>
      </trkpt>
      <trkpt lat="44.24142" lon="3.00218">
        <ele>828.2</ele>
        <time>2023-06-25T09:21:09Z</time>
      </trkpt>
      <trkpt lat="44.24141" lon="3.00217">
        <ele>828.3</ele>
        <time>2023-06-25T09:21:10Z</time>
      </trkpt>
      <trkpt lat="44.2414" lon="3.00216">
        <ele>828.5</ele>
        <time>2023-06-25T09:21:11Z</time>
      </trkpt>
      <trkpt lat="44.24138" lon="3.00215">
        <ele>828.6</ele>
        <time>2023-06-25T09:21:13Z</time>
      </trkpt>
      <trkpt lat="44.24134" lon="3.00213">
        <ele>828.9</ele>
        <time>2023-06-25T09:21:14Z</time>
      </trkpt>
      <trkpt lat="44.24134" lon="3.00212">
        <ele>829</ele>
        <time>2023-06-25T09:21:15Z</time>
      </trkpt>
      <trkpt lat="44.2413" lon="3.0021">
        <ele>829.2</ele>
        <time>2023-06-25T09:21:17Z</time>
      </trkpt>
      <trkpt lat="44.2413" lon="3.00209">
        <ele>829.3</ele>
        <time>2023-06-25T09:21:18Z</time>
      </trkpt>
      <trkpt lat="44.24127" lon="3.00207">
        <ele>829.5</ele>
        <time>2023-06-25T09:21:19Z</time>
      </trkpt>
      <trkpt lat="44.24127" lon="3.00206">
        <ele>829.5</ele>
        <time>2023-06-25T09:21:20Z</time>
      </trkpt>
      <trkpt lat="44.24122" lon="3.00203">
        <ele>829.8</ele>
        <time>2023-06-25T09:21:22Z</time>
      </trkpt>
      <trkpt lat="44.2412" lon="3.00201">
        <ele>830</ele>
        <time>2023-06-25T09:21:23Z</time>
      </trkpt>
      <trkpt lat="44.24117" lon="3.00198">
        <ele>830.1</ele>
        <time>2023-06-25T09:21:24Z</time>
      </trkpt>
      <trkpt lat="44.24112" lon="3.00191">
        <ele>830.5</ele>
        <time>2023-06-25T09:21:26Z</time>
      </trkpt>
      <trkpt lat="44.2411" lon="3.00186">
        <ele>830.8</ele>
        <time>2023-06-25T09:21:27Z</time>
      </trkpt>
      <trkpt lat="44.24107" lon="3.00179">
        <ele>831.1</ele>
        <time>2023-06-25T09:21:29Z</time>
      </trkpt>
      <trkpt lat="44.24105" lon="3.00175">
        <ele>831.4</ele>
        <time>2023-06-25T09:21:30Z</time>
      </trkpt>
      <trkpt lat="44.24103" lon="3.0017">
        <ele>831.7</ele>
        <time>2023-06-25T09:21:31Z</time>
      </trkpt>
      <trkpt lat="44.24102" lon="3.00168">
        <ele>831.8</ele>
        <time>2023-06-25T09:21:32Z</time>
      </trkpt>
      <trkpt lat="44.24099" lon="3.00162">
        <ele>832.2</ele>
        <time>2023-06-25T09:21:34Z</time>
      </trkpt>
      <trkpt lat="44.24098" lon="3.00158">
        <ele>832.4</ele>
        <time>2023-06-25T09:21:35Z</time>
      </trkpt>
      <trkpt lat="44.24097" lon="3.00154">
        <ele>832.6</ele>
        <time>2023-06-25T09:21:36Z</time>
      </trkpt>
      <trkpt lat="44.24096" lon="3.00151">
        <ele>832.8</ele>
        <time>2023-06-25T09:21:37Z</time>
      </trkpt>
      <trkpt lat="44.24094" lon="3.00145">
        <ele>833.2</ele>
        <time>2023-06-25T09:21:39Z</time>
      </trkpt>
      <trkpt lat="44.24093" lon="3.00143">
        <ele>833.3</ele>
        <time>2023-06-25T09:21:40Z</time>
      </trkpt>
      <trkpt lat="44.24093" lon="3.00141">
        <ele>833.5</ele>
        <time>2023-06-25T09:21:41Z</time>
      </trkpt>
      <trkpt lat="44.24091" lon="3.00135">
        <ele>833.8</ele>
        <time>2023-06-25T09:21:42Z</time>
      </trkpt>
      <trkpt lat="44.2409" lon="3.00134">
        <ele>834</ele>
        <time>2023-06-25T09:21:43Z</time>
      </trkpt>
      <trkpt lat="44.24087" lon="3.0013">
        <ele>834.3</ele>
        <time>2023-06-25T09:21:45Z</time>
      </trkpt>
      <trkpt lat="44.24085" lon="3.00126">
        <ele>834.6</ele>
        <time>2023-06-25T09:21:46Z</time>
      </trkpt>
      <trkpt lat="44.24084" lon="3.00125">
        <ele>834.8</ele>
        <time>2023-06-25T09:21:47Z</time>
      </trkpt>
      <trkpt lat="44.24082" lon="3.00121">
        <ele>835.1</ele>
        <time>2023-06-25T09:21:48Z</time>
      </trkpt>
      <trkpt lat="44.24081" lon="3.0012">
        <ele>835.2</ele>
        <time>2023-06-25T09:21:49Z</time>
      </trkpt>
      <trkpt lat="44.24079" lon="3.00116">
        <ele>835.6</ele>
        <time>2023-06-25T09:21:51Z</time>
      </trkpt>
      <trkpt lat="44.24076" lon="3.00112">
        <ele>835.9</ele>
        <time>2023-06-25T09:21:52Z</time>
      </trkpt>
      <trkpt lat="44.24076" lon="3.00111">
        <ele>836</ele>
        <time>2023-06-25T09:21:53Z</time>
      </trkpt>
      <trkpt lat="44.24074" lon="3.00106">
        <ele>836.4</ele>
        <time>2023-06-25T09:21:54Z</time>
      </trkpt>
      <trkpt lat="44.24073" lon="3.00105">
        <ele>836.5</ele>
        <time>2023-06-25T09:21:55Z</time>
      </trkpt>
      <trkpt lat="44.24071" lon="3.00102">
        <ele>836.8</ele>
        <time>2023-06-25T09:21:57Z</time>
      </trkpt>
      <trkpt lat="44.24069" lon="3.00099">
        <ele>837</ele>
        <time>2023-06-25T09:21:58Z</time>
      </trkpt>
      <trkpt lat="44.24067" lon="3.00096">
        <ele>837.3</ele>
        <time>2023-06-25T09:21:59Z</time>
      </trkpt>
      <trkpt lat="44.24066" lon="3.00096">
        <ele>837.4</ele>
        <time>2023-06-25T09:22:00Z</time>
      </trkpt>
      <trkpt lat="44.24065" lon="3.00093">
        <ele>837.6</ele>
        <time>2023-06-25T09:22:01Z</time>
      </trkpt>
      <trkpt lat="44.24063" lon="3.00091">
        <ele>837.8</ele>
        <time>2023-06-25T09:22:03Z</time>
      </trkpt>
      <trkpt lat="44.2406" lon="3.00087">
        <ele>838.1</ele>
        <time>2023-06-25T09:22:04Z</time>
      </trkpt>
      <trkpt lat="44.2406" lon="3.00086">
        <ele>838.2</ele>
        <time>2023-06-25T09:22:05Z</time>
      </trkpt>
      <trkpt lat="44.24057" lon="3.00083">
        <ele>838.5</ele>
        <time>2023-06-25T09:22:06Z</time>
      </trkpt>
      <trkpt lat="44.24057" lon="3.00081">
        <ele>838.6</ele>
        <time>2023-06-25T09:22:07Z</time>
      </trkpt>
      <trkpt lat="44.24055" lon="3.00077">
        <ele>839</ele>
        <time>2023-06-25T09:22:08Z</time>
      </trkpt>
      <trkpt lat="44.24054" lon="3.00076">
        <ele>839.1</ele>
        <time>2023-06-25T09:22:09Z</time>
      </trkpt>
      <trkpt lat="44.24052" lon="3.00074">
        <ele>839.3</ele>
        <time>2023-06-25T09:22:10Z</time>
      </trkpt>
      <trkpt lat="44.24049" lon="3.00071">
        <ele>839.7</ele>
        <time>2023-06-25T09:22:12Z</time>
      </trkpt>
      <trkpt lat="44.24046" lon="3.00068">
        <ele>840.1</ele>
        <time>2023-06-25T09:22:14Z</time>
      </trkpt>
      <trkpt lat="44.24044" lon="3.00066">
        <ele>840.3</ele>
        <time>2023-06-25T09:22:15Z</time>
      </trkpt>
      <trkpt lat="44.2404" lon="3.00064">
        <ele>840.8</ele>
        <time>2023-06-25T09:22:17Z</time>
      </trkpt>
      <trkpt lat="44.24038" lon="3.00063">
        <ele>841.1</ele>
        <time>2023-06-25T09:22:18Z</time>
      </trkpt>
      <trkpt lat="44.24034" lon="3.0006">
        <ele>841.6</ele>
        <time>2023-06-25T09:22:20Z</time>
      </trkpt>
      <trkpt lat="44.24032" lon="3.00059">
        <ele>841.8</ele>
        <time>2023-06-25T09:22:21Z</time>
      </trkpt>
      <trkpt lat="44.24031" lon="3.00058">
        <ele>842</ele>
        <time>2023-06-25T09:22:22Z</time>
      </trkpt>
      <trkpt lat="44.24027" lon="3.00057">
        <ele>842.3</ele>
        <time>2023-06-25T09:22:23Z</time>
      </trkpt>
      <trkpt lat="44.24024" lon="3.00056">
        <ele>842.8</ele>
        <time>2023-06-25T09:22:25Z</time>
      </trkpt>
      <trkpt lat="44.24022" lon="3.00055">
        <ele>842.9</ele>
        <time>2023-06-25T09:22:26Z</time>
      </trkpt>
      <trkpt lat="44.24021" lon="3.00055">
        <ele>843.1</ele>
        <time>2023-06-25T09:22:27Z</time>
      </trkpt>
      <trkpt lat="44.2402" lon="3.00055">
        <ele>843.3</ele>
        <time>2023-06-25T09:22:28Z</time>
      </trkpt>
      <trkpt lat="44.24017" lon="3.00056">
        <ele>843.6</ele>
        <time>2023-06-25T09:22:29Z</time>
      </trkpt>
      <trkpt lat="44.24013" lon="3.00057">
        <ele>844</ele>
        <time>2023-06-25T09:22:31Z</time>
      </trkpt>
      <trkpt lat="44.24012" lon="3.00057">
        <ele>844.1</ele>
        <time>2023-06-25T09:22:32Z</time>
      </trkpt>
      <trkpt lat="44.24009" lon="3.00059">
        <ele>844.5</ele>
        <time>2023-06-25T09:22:33Z</time>
      </trkpt>
      <trkpt lat="44.24008" lon="3.0006">
        <ele>844.6</ele>
        <time>2023-06-25T09:22:34Z</time>
      </trkpt>
      <trkpt lat="44.24004" lon="3.00061">
        <ele>845</ele>
        <time>2023-06-25T09:22:35Z</time>
      </trkpt>
      <trkpt lat="44.24002" lon="3.00063">
        <ele>845.3</ele>
        <time>2023-06-25T09:22:36Z</time>
      </trkpt>
      <trkpt lat="44.23999" lon="3.00065">
        <ele>845.6</ele>
        <time>2023-06-25T09:22:37Z</time>
      </trkpt>
      <trkpt lat="44.23997" lon="3.00069">
        <ele>846</ele>
        <time>2023-06-25T09:22:39Z</time>
      </trkpt>
      <trkpt lat="44.23996" lon="3.0007">
        <ele>846.1</ele>
        <time>2023-06-25T09:22:40Z</time>
      </trkpt>
      <trkpt lat="44.23995" lon="3.00074">
        <ele>846.4</ele>
        <time>2023-06-25T09:22:41Z</time>
      </trkpt>
      <trkpt lat="44.23995" lon="3.00076">
        <ele>846.6</ele>
        <time>2023-06-25T09:22:42Z</time>
      </trkpt>
      <trkpt lat="44.23993" lon="3.00081">
        <ele>847</ele>
        <time>2023-06-25T09:22:44Z</time>
      </trkpt>
      <trkpt lat="44.23991" lon="3.00084">
        <ele>847.3</ele>
        <time>2023-06-25T09:22:45Z</time>
      </trkpt>
      <trkpt lat="44.2399" lon="3.00086">
        <ele>847.5</ele>
        <time>2023-06-25T09:22:47Z</time>
      </trkpt>
      <trkpt lat="44.23988" lon="3.00091">
        <ele>847.9</ele>
        <time>2023-06-25T09:22:48Z</time>
      </trkpt>
      <trkpt lat="44.23987" lon="3.00092">
        <ele>848</ele>
        <time>2023-06-25T09:22:49Z</time>
      </trkpt>
      <trkpt lat="44.23985" lon="3.00096">
        <ele>848.5</ele>
        <time>2023-06-25T09:22:50Z</time>
      </trkpt>
      <trkpt lat="44.23984" lon="3.00098">
        <ele>848.6</ele>
        <time>2023-06-25T09:22:51Z</time>
      </trkpt>
      <trkpt lat="44.23981" lon="3.00103">
        <ele>849</ele>
        <time>2023-06-25T09:22:53Z</time>
      </trkpt>
      <trkpt lat="44.23981" lon="3.00104">
        <ele>849.1</ele>
        <time>2023-06-25T09:22:54Z</time>
      </trkpt>
      <trkpt lat="44.23978" lon="3.00107">
        <ele>849.5</ele>
        <time>2023-06-25T09:22:55Z</time>
      </trkpt>
      <trkpt lat="44.23976" lon="3.00108">
        <ele>849.6</ele>
        <time>2023-06-25T09:22:56Z</time>
      </trkpt>
      <trkpt lat="44.23975" lon="3.0011">
        <ele>849.8</ele>
        <time>2023-06-25T09:22:57Z</time>
      </trkpt>
      <trkpt lat="44.23972" lon="3.00113">
        <ele>850.2</ele>
        <time>2023-06-25T09:22:59Z</time>
      </trkpt>
      <trkpt lat="44.23968" lon="3.00117">
        <ele>850.6</ele>
        <time>2023-06-25T09:23:01Z</time>
      </trkpt>
      <trkpt lat="44.23966" lon="3.0012">
        <ele>850.8</ele>
        <time>2023-06-25T09:23:02Z</time>
      </trkpt>
      <trkpt lat="44.23963" lon="3.00124">
        <ele>851.2</ele>
        <time>2023-06-25T09:23:04Z</time>
      </trkpt>
      <trkpt lat="44.2396" lon="3.00128">
        <ele>851.5</ele>
        <time>2023-06-25T09:23:05Z</time>
      </trkpt>
      <trkpt lat="44.23959" lon="3.00129">
        <ele>851.6</ele>
        <time>2023-06-25T09:23:06Z</time>
      </trkpt>
      <trkpt lat="44.23958" lon="3.00132">
        <ele>851.8</ele>
        <time>2023-06-25T09:23:07Z</time>
      </trkpt>
      <trkpt lat="44.23956" lon="3.00135">
        <ele>852</ele>
        <time>2023-06-25T09:23:08Z</time>
      </trkpt>
      <trkpt lat="44.23955" lon="3.00138">
        <ele>852.2</ele>
        <time>2023-06-25T09:23:10Z</time>
      </trkpt>
      <trkpt lat="44.23952" lon="3.00141">
        <ele>852.4</ele>
        <time>2023-06-25T09:23:11Z</time>
      </trkpt>
      <trkpt lat="44.23949" lon="3.00144">
        <ele>852.7</ele>
        <time>2023-06-25T09:23:12Z</time>
      </trkpt>
      <trkpt lat="44.23948" lon="3.00146">
        <ele>852.8</ele>
        <time>2023-06-25T09:23:13Z</time>
      </trkpt>
      <trkpt lat="44.23946" lon="3.00148">
        <ele>853</ele>
        <time>2023-06-25T09:23:14Z</time>
      </trkpt>
      <trkpt lat="44.23942" lon="3.00151">
        <ele>853.2</ele>
        <time>2023-06-25T09:23:16Z</time>
      </trkpt>
      <trkpt lat="44.23939" lon="3.00151">
        <ele>853.5</ele>
        <time>2023-06-25T09:23:17Z</time>
      </trkpt>
      <trkpt lat="44.23937" lon="3.0015">
        <ele>853.5</ele>
        <time>2023-06-25T09:23:18Z</time>
      </trkpt>
      <trkpt lat="44.23934" lon="3.00148">
        <ele>853.7</ele>
        <time>2023-06-25T09:23:19Z</time>
      </trkpt>
      <trkpt lat="44.23932" lon="3.00146">
        <ele>853.9</ele>
        <time>2023-06-25T09:23:20Z</time>
      </trkpt>
      <trkpt lat="44.23931" lon="3.00143">
        <ele>854</ele>
        <time>2023-06-25T09:23:22Z</time>
      </trkpt>
      <trkpt lat="44.23929" lon="3.0014">
        <ele>854.3</ele>
        <time>2023-06-25T09:23:23Z</time>
      </trkpt>
      <trkpt lat="44.23928" lon="3.00138">
        <ele>854.3</ele>
        <time>2023-06-25T09:23:24Z</time>
      </trkpt>
      <trkpt lat="44.23928" lon="3.00136">
        <ele>854.5</ele>
        <time>2023-06-25T09:23:25Z</time>
      </trkpt>
      <trkpt lat="44.23927" lon="3.00134">
        <ele>854.6</ele>
        <time>2023-06-25T09:23:26Z</time>
      </trkpt>
      <trkpt lat="44.23927" lon="3.00129">
        <ele>855.2</ele>
        <time>2023-06-25T09:23:27Z</time>
      </trkpt>
      <trkpt lat="44.23927" lon="3.00128">
        <ele>855.4</ele>
        <time>2023-06-25T09:23:28Z</time>
      </trkpt>
      <trkpt lat="44.23927" lon="3.00122">
        <ele>856.1</ele>
        <time>2023-06-25T09:23:29Z</time>
      </trkpt>
      <trkpt lat="44.23927" lon="3.0012">
        <ele>856.4</ele>
        <time>2023-06-25T09:23:30Z</time>
      </trkpt>
      <trkpt lat="44.23926" lon="3.00116">
        <ele>856.8</ele>
        <time>2023-06-25T09:23:32Z</time>
      </trkpt>
      <trkpt lat="44.23926" lon="3.00111">
        <ele>857.4</ele>
        <time>2023-06-25T09:23:33Z</time>
      </trkpt>
      <trkpt lat="44.23926" lon="3.00106">
        <ele>857.9</ele>
        <time>2023-06-25T09:23:34Z</time>
      </trkpt>
      <trkpt lat="44.23926" lon="3.00104">
        <ele>858</ele>
        <time>2023-06-25T09:23:35Z</time>
      </trkpt>
      <trkpt lat="44.23927" lon="3.00099">
        <ele>858.4</ele>
        <time>2023-06-25T09:23:37Z</time>
      </trkpt>
      <trkpt lat="44.23928" lon="3.00093">
        <ele>859</ele>
        <time>2023-06-25T09:23:38Z</time>
      </trkpt>
      <trkpt lat="44.23929" lon="3.00087">
        <ele>859.4</ele>
        <time>2023-06-25T09:23:40Z</time>
      </trkpt>
      <trkpt lat="44.23929" lon="3.00084">
        <ele>859.6</ele>
        <time>2023-06-25T09:23:41Z</time>
      </trkpt>
      <trkpt lat="44.2393" lon="3.0008">
        <ele>859.9</ele>
        <time>2023-06-25T09:23:42Z</time>
      </trkpt>
      <trkpt lat="44.23931" lon="3.00074">
        <ele>860.3</ele>
        <time>2023-06-25T09:23:43Z</time>
      </trkpt>
      <trkpt lat="44.23931" lon="3.00072">
        <ele>860.4</ele>
        <time>2023-06-25T09:23:44Z</time>
      </trkpt>
      <trkpt lat="44.23931" lon="3.00069">
        <ele>860.6</ele>
        <time>2023-06-25T09:23:45Z</time>
      </trkpt>
      <trkpt lat="44.23931" lon="3.00065">
        <ele>860.9</ele>
        <time>2023-06-25T09:23:47Z</time>
      </trkpt>
      <trkpt lat="44.23932" lon="3.00061">
        <ele>861.2</ele>
        <time>2023-06-25T09:23:48Z</time>
      </trkpt>
      <trkpt lat="44.23932" lon="3.00056">
        <ele>861.5</ele>
        <time>2023-06-25T09:23:49Z</time>
      </trkpt>
      <trkpt lat="44.23932" lon="3.00054">
        <ele>861.6</ele>
        <time>2023-06-25T09:23:50Z</time>
      </trkpt>
      <trkpt lat="44.23932" lon="3.00049">
        <ele>862.1</ele>
        <time>2023-06-25T09:23:52Z</time>
      </trkpt>
      <trkpt lat="44.23933" lon="3.00045">
        <ele>862.4</ele>
        <time>2023-06-25T09:23:53Z</time>
      </trkpt>
      <trkpt lat="44.23933" lon="3.0004">
        <ele>862.7</ele>
        <time>2023-06-25T09:23:54Z</time>
      </trkpt>
      <trkpt lat="44.23933" lon="3.00039">
        <ele>862.9</ele>
        <time>2023-06-25T09:23:55Z</time>
      </trkpt>
      <trkpt lat="44.23934" lon="3.00035">
        <ele>863.2</ele>
        <time>2023-06-25T09:23:56Z</time>
      </trkpt>
      <trkpt lat="44.23934" lon="3.00029">
        <ele>863.7</ele>
        <time>2023-06-25T09:23:58Z</time>
      </trkpt>
      <trkpt lat="44.23935" lon="3.00025">
        <ele>864.1</ele>
        <time>2023-06-25T09:23:59Z</time>
      </trkpt>
      <trkpt lat="44.23935" lon="3.00024">
        <ele>864.2</ele>
        <time>2023-06-25T09:24:00Z</time>
      </trkpt>
      <trkpt lat="44.23934" lon="3.0002">
        <ele>864.6</ele>
        <time>2023-06-25T09:24:01Z</time>
      </trkpt>
      <trkpt lat="44.23934" lon="3.00015">
        <ele>865</ele>
        <time>2023-06-25T09:24:03Z</time>
      </trkpt>
      <trkpt lat="44.23934" lon="3.00014">
        <ele>865.2</ele>
        <time>2023-06-25T09:24:04Z</time>
      </trkpt>
      <trkpt lat="44.23934" lon="3.00009">
        <ele>865.6</ele>
        <time>2023-06-25T09:24:05Z</time>
      </trkpt>
      <trkpt lat="44.23934" lon="3.00007">
        <ele>865.8</ele>
        <time>2023-06-25T09:24:06Z</time>
      </trkpt>
      <trkpt lat="44.23934" lon="3.00002">
        <ele>866.3</ele>
        <time>2023-06-25T09:24:07Z</time>
      </trkpt>
      <trkpt lat="44.23935" lon="3.00001">
        <ele>866.5</ele>
        <time>2023-06-25T09:24:08Z</time>
      </trkpt>
      <trkpt lat="44.23935" lon="2.99996">
        <ele>866.9</ele>
        <time>2023-06-25T09:24:09Z</time>
      </trkpt>
      <trkpt lat="44.23935" lon="2.99995">
        <ele>867.1</ele>
        <time>2023-06-25T09:24:10Z</time>
      </trkpt>
      <trkpt lat="44.23935" lon="2.99989">
        <ele>867.8</ele>
        <time>2023-06-25T09:24:12Z</time>
      </trkpt>
      <trkpt lat="44.23936" lon="2.99987">
        <ele>868</ele>
        <time>2023-06-25T09:24:13Z</time>
      </trkpt>
      <trkpt lat="44.23936" lon="2.99985">
        <ele>868.2</ele>
        <time>2023-06-25T09:24:14Z</time>
      </trkpt>
      <trkpt lat="44.23936" lon="2.9998">
        <ele>868.7</ele>
        <time>2023-06-25T09:24:15Z</time>
      </trkpt>
      <trkpt lat="44.23936" lon="2.99979">
        <ele>868.8</ele>
        <time>2023-06-25T09:24:16Z</time>
      </trkpt>
      <trkpt lat="44.23936" lon="2.99972">
        <ele>869.5</ele>
        <time>2023-06-25T09:24:18Z</time>
      </trkpt>
      <trkpt lat="44.23936" lon="2.99971">
        <ele>869.7</ele>
        <time>2023-06-25T09:24:19Z</time>
      </trkpt>
      <trkpt lat="44.23936" lon="2.99969">
        <ele>869.9</ele>
        <time>2023-06-25T09:24:20Z</time>
      </trkpt>
      <trkpt lat="44.23936" lon="2.99966">
        <ele>870.2</ele>
        <time>2023-06-25T09:24:21Z</time>
      </trkpt>
      <trkpt lat="44.23936" lon="2.99962">
        <ele>870.6</ele>
        <time>2023-06-25T09:24:23Z</time>
      </trkpt>
      <trkpt lat="44.23936" lon="2.99958">
        <ele>871</ele>
        <time>2023-06-25T09:24:24Z</time>
      </trkpt>
      <trkpt lat="44.23936" lon="2.99957">
        <ele>871.2</ele>
        <time>2023-06-25T09:24:25Z</time>
      </trkpt>
      <trkpt lat="44.23936" lon="2.99954">
        <ele>871.5</ele>
        <time>2023-06-25T09:24:26Z</time>
      </trkpt>
      <trkpt lat="44.23936" lon="2.99952">
        <ele>871.7</ele>
        <time>2023-06-25T09:24:27Z</time>
      </trkpt>
      <trkpt lat="44.23936" lon="2.99948">
        <ele>872.1</ele>
        <time>2023-06-25T09:24:28Z</time>
      </trkpt>
      <trkpt lat="44.23936" lon="2.99946">
        <ele>872.3</ele>
        <time>2023-06-25T09:24:29Z</time>
      </trkpt>
      <trkpt lat="44.23937" lon="2.99943">
        <ele>872.7</ele>
        <time>2023-06-25T09:24:30Z</time>
      </trkpt>
      <trkpt lat="44.23937" lon="2.99939">
        <ele>873.1</ele>
        <time>2023-06-25T09:24:32Z</time>
      </trkpt>
      <trkpt lat="44.23937" lon="2.99935">
        <ele>873.7</ele>
        <time>2023-06-25T09:24:33Z</time>
      </trkpt>
      <trkpt lat="44.23938" lon="2.99933">
        <ele>873.9</ele>
        <time>2023-06-25T09:24:34Z</time>
      </trkpt>
      <trkpt lat="44.23938" lon="2.99929">
        <ele>874.4</ele>
        <time>2023-06-25T09:24:35Z</time>
      </trkpt>
      <trkpt lat="44.23939" lon="2.99927">
        <ele>874.5</ele>
        <time>2023-06-25T09:24:36Z</time>
      </trkpt>
      <trkpt lat="44.23939" lon="2.99925">
        <ele>874.8</ele>
        <time>2023-06-25T09:24:37Z</time>
      </trkpt>
      <trkpt lat="44.23939" lon="2.99922">
        <ele>875.1</ele>
        <time>2023-06-25T09:24:39Z</time>
      </trkpt>
      <trkpt lat="44.23939" lon="2.99918">
        <ele>875.6</ele>
        <time>2023-06-25T09:24:40Z</time>
      </trkpt>
      <trkpt lat="44.23939" lon="2.99917">
        <ele>875.7</ele>
        <time>2023-06-25T09:24:41Z</time>
      </trkpt>
      <trkpt lat="44.23937" lon="2.99913">
        <ele>876.2</ele>
        <time>2023-06-25T09:24:42Z</time>
      </trkpt>
      <trkpt lat="44.23937" lon="2.99912">
        <ele>877.1</ele>
        <time>2023-06-25T09:24:43Z</time>
      </trkpt>
      <trkpt lat="44.23935" lon="2.9991">
        <ele>877.1</ele>
        <time>2023-06-25T09:24:44Z</time>
      </trkpt>
      <trkpt lat="44.23932" lon="2.9991">
        <ele>877</ele>
        <time>2023-06-25T09:24:46Z</time>
      </trkpt>
      <trkpt lat="44.2393" lon="2.99913">
        <ele>876.8</ele>
        <time>2023-06-25T09:24:47Z</time>
      </trkpt>
      <trkpt lat="44.23927" lon="2.99915">
        <ele>876.7</ele>
        <time>2023-06-25T09:24:48Z</time>
      </trkpt>
      <trkpt lat="44.23923" lon="2.99922">
        <ele>876.5</ele>
        <time>2023-06-25T09:24:50Z</time>
      </trkpt>
      <trkpt lat="44.23921" lon="2.99925">
        <ele>876.3</ele>
        <time>2023-06-25T09:24:52Z</time>
      </trkpt>
      <trkpt lat="44.23919" lon="2.9993">
        <ele>876.2</ele>
        <time>2023-06-25T09:24:53Z</time>
      </trkpt>
      <trkpt lat="44.23919" lon="2.99932">
        <ele>876.1</ele>
        <time>2023-06-25T09:24:54Z</time>
      </trkpt>
      <trkpt lat="44.23918" lon="2.99936">
        <ele>876</ele>
        <time>2023-06-25T09:24:55Z</time>
      </trkpt>
      <trkpt lat="44.23917" lon="2.99941">
        <ele>875.9</ele>
        <time>2023-06-25T09:24:57Z</time>
      </trkpt>
      <trkpt lat="44.23915" lon="2.99947">
        <ele>875.7</ele>
        <time>2023-06-25T09:24:59Z</time>
      </trkpt>
      <trkpt lat="44.23913" lon="2.9995">
        <ele>875.6</ele>
        <time>2023-06-25T09:25:00Z</time>
      </trkpt>
      <trkpt lat="44.23911" lon="2.99954">
        <ele>875.5</ele>
        <time>2023-06-25T09:25:01Z</time>
      </trkpt>
      <trkpt lat="44.23909" lon="2.99958">
        <ele>875.4</ele>
        <time>2023-06-25T09:25:02Z</time>
      </trkpt>
      <trkpt lat="44.23905" lon="2.99963">
        <ele>875.2</ele>
        <time>2023-06-25T09:25:04Z</time>
      </trkpt>
      <trkpt lat="44.23903" lon="2.99965">
        <ele>875.2</ele>
        <time>2023-06-25T09:25:05Z</time>
      </trkpt>
      <trkpt lat="44.239" lon="2.99969">
        <ele>875.1</ele>
        <time>2023-06-25T09:25:06Z</time>
      </trkpt>
      <trkpt lat="44.23897" lon="2.99972">
        <ele>875</ele>
        <time>2023-06-25T09:25:07Z</time>
      </trkpt>
      <trkpt lat="44.23893" lon="2.99977">
        <ele>874.8</ele>
        <time>2023-06-25T09:25:08Z</time>
      </trkpt>
      <trkpt lat="44.23888" lon="2.99982">
        <ele>874.7</ele>
        <time>2023-06-25T09:25:10Z</time>
      </trkpt>
      <trkpt lat="44.23884" lon="2.99987">
        <ele>874.6</ele>
        <time>2023-06-25T09:25:11Z</time>
      </trkpt>
      <trkpt lat="44.23879" lon="2.99992">
        <ele>874.4</ele>
        <time>2023-06-25T09:25:13Z</time>
      </trkpt>
      <trkpt lat="44.23876" lon="2.99995">
        <ele>874.3</ele>
        <time>2023-06-25T09:25:14Z</time>
      </trkpt>
      <trkpt lat="44.2387" lon="3">
        <ele>874.2</ele>
        <time>2023-06-25T09:25:16Z</time>
      </trkpt>
      <trkpt lat="44.23868" lon="3.00004">
        <ele>874.1</ele>
        <time>2023-06-25T09:25:17Z</time>
      </trkpt>
      <trkpt lat="44.23865" lon="3.0001">
        <ele>873.9</ele>
        <time>2023-06-25T09:25:19Z</time>
      </trkpt>
      <trkpt lat="44.23864" lon="3.00015">
        <ele>873.9</ele>
        <time>2023-06-25T09:25:20Z</time>
      </trkpt>
      <trkpt lat="44.23862" lon="3.00019">
        <ele>873.8</ele>
        <time>2023-06-25T09:25:21Z</time>
      </trkpt>
      <trkpt lat="44.2386" lon="3.00024">
        <ele>873.7</ele>
        <time>2023-06-25T09:25:22Z</time>
      </trkpt>
      <trkpt lat="44.23857" lon="3.00029">
        <ele>873.5</ele>
        <time>2023-06-25T09:25:24Z</time>
      </trkpt>
      <trkpt lat="44.23854" lon="3.00035">
        <ele>873.4</ele>
        <time>2023-06-25T09:25:25Z</time>
      </trkpt>
      <trkpt lat="44.23849" lon="3.00045">
        <ele>873.1</ele>
        <time>2023-06-25T09:25:27Z</time>
      </trkpt>
      <trkpt lat="44.23846" lon="3.00052">
        <ele>872.9</ele>
        <time>2023-06-25T09:25:29Z</time>
      </trkpt>
      <trkpt lat="44.23843" lon="3.00056">
        <ele>872.8</ele>
        <time>2023-06-25T09:25:30Z</time>
      </trkpt>
      <trkpt lat="44.23841" lon="3.00061">
        <ele>872.6</ele>
        <time>2023-06-25T09:25:31Z</time>
      </trkpt>
      <trkpt lat="44.23838" lon="3.00067">
        <ele>872.4</ele>
        <time>2023-06-25T09:25:32Z</time>
      </trkpt>
      <trkpt lat="44.23836" lon="3.00071">
        <ele>872.3</ele>
        <time>2023-06-25T09:25:33Z</time>
      </trkpt>
      <trkpt lat="44.23833" lon="3.00076">
        <ele>872.1</ele>
        <time>2023-06-25T09:25:34Z</time>
      </trkpt>
      <trkpt lat="44.2383" lon="3.00082">
        <ele>871.9</ele>
        <time>2023-06-25T09:25:36Z</time>
      </trkpt>
      <trkpt lat="44.23828" lon="3.00087">
        <ele>871.7</ele>
        <time>2023-06-25T09:25:37Z</time>
      </trkpt>
      <trkpt lat="44.23825" lon="3.00091">
        <ele>871.5</ele>
        <time>2023-06-25T09:25:38Z</time>
      </trkpt>
      <trkpt lat="44.23822" lon="3.00095">
        <ele>871.3</ele>
        <time>2023-06-25T09:25:39Z</time>
      </trkpt>
      <trkpt lat="44.23814" lon="3.00104">
        <ele>870.8</ele>
        <time>2023-06-25T09:25:41Z</time>
      </trkpt>
      <trkpt lat="44.23809" lon="3.0011">
        <ele>870.5</ele>
        <time>2023-06-25T09:25:42Z</time>
      </trkpt>
      <trkpt lat="44.23806" lon="3.00116">
        <ele>870.3</ele>
        <time>2023-06-25T09:25:44Z</time>
      </trkpt>
      <trkpt lat="44.23804" lon="3.00121">
        <ele>870.1</ele>
        <time>2023-06-25T09:25:45Z</time>
      </trkpt>
      <trkpt lat="44.238" lon="3.00125">
        <ele>870</ele>
        <time>2023-06-25T09:25:46Z</time>
      </trkpt>
      <trkpt lat="44.23797" lon="3.00129">
        <ele>869.9</ele>
        <time>2023-06-25T09:25:47Z</time>
      </trkpt>
      <trkpt lat="44.23794" lon="3.00132">
        <ele>869.8</ele>
        <time>2023-06-25T09:25:48Z</time>
      </trkpt>
      <trkpt lat="44.2379" lon="3.00137">
        <ele>869.7</ele>
        <time>2023-06-25T09:25:50Z</time>
      </trkpt>
      <trkpt lat="44.23785" lon="3.00142">
        <ele>869.6</ele>
        <time>2023-06-25T09:25:51Z</time>
      </trkpt>
      <trkpt lat="44.2378" lon="3.00146">
        <ele>869.5</ele>
        <time>2023-06-25T09:25:52Z</time>
      </trkpt>
      <trkpt lat="44.23777" lon="3.00151">
        <ele>869.5</ele>
        <time>2023-06-25T09:25:54Z</time>
      </trkpt>
      <trkpt lat="44.23774" lon="3.00155">
        <ele>869.4</ele>
        <time>2023-06-25T09:25:55Z</time>
      </trkpt>
      <trkpt lat="44.23771" lon="3.00158">
        <ele>869.3</ele>
        <time>2023-06-25T09:25:56Z</time>
      </trkpt>
      <trkpt lat="44.23768" lon="3.00163">
        <ele>869.2</ele>
        <time>2023-06-25T09:25:57Z</time>
      </trkpt>
      <trkpt lat="44.23767" lon="3.00165">
        <ele>869.1</ele>
        <time>2023-06-25T09:25:58Z</time>
      </trkpt>
      <trkpt lat="44.23764" lon="3.0017">
        <ele>869</ele>
        <time>2023-06-25T09:26:00Z</time>
      </trkpt>
      <trkpt lat="44.23761" lon="3.00173">
        <ele>868.9</ele>
        <time>2023-06-25T09:26:01Z</time>
      </trkpt>
      <trkpt lat="44.23759" lon="3.00176">
        <ele>868.9</ele>
        <time>2023-06-25T09:26:02Z</time>
      </trkpt>
      <trkpt lat="44.23755" lon="3.00179">
        <ele>868.8</ele>
        <time>2023-06-25T09:26:03Z</time>
      </trkpt>
      <trkpt lat="44.23752" lon="3.00183">
        <ele>868.7</ele>
        <time>2023-06-25T09:26:04Z</time>
      </trkpt>
      <trkpt lat="44.23749" lon="3.00187">
        <ele>868.5</ele>
        <time>2023-06-25T09:26:05Z</time>
      </trkpt>
      <trkpt lat="44.23746" lon="3.0019">
        <ele>868.4</ele>
        <time>2023-06-25T09:26:06Z</time>
      </trkpt>
      <trkpt lat="44.23742" lon="3.00193">
        <ele>868.3</ele>
        <time>2023-06-25T09:26:07Z</time>
      </trkpt>
      <trkpt lat="44.23739" lon="3.00196">
        <ele>868.1</ele>
        <time>2023-06-25T09:26:08Z</time>
      </trkpt>
      <trkpt lat="44.23734" lon="3.002">
        <ele>868</ele>
        <time>2023-06-25T09:26:10Z</time>
      </trkpt>
      <trkpt lat="44.23731" lon="3.00203">
        <ele>867.9</ele>
        <time>2023-06-25T09:26:11Z</time>
      </trkpt>
      <trkpt lat="44.23727" lon="3.00207">
        <ele>867.8</ele>
        <time>2023-06-25T09:26:13Z</time>
      </trkpt>
      <trkpt lat="44.23724" lon="3.00211">
        <ele>867.7</ele>
        <time>2023-06-25T09:26:14Z</time>
      </trkpt>
      <trkpt lat="44.2372" lon="3.00216">
        <ele>867.6</ele>
        <time>2023-06-25T09:26:15Z</time>
      </trkpt>
      <trkpt lat="44.23718" lon="3.0022">
        <ele>867.5</ele>
        <time>2023-06-25T09:26:16Z</time>
      </trkpt>
      <trkpt lat="44.23714" lon="3.00226">
        <ele>867.4</ele>
        <time>2023-06-25T09:26:17Z</time>
      </trkpt>
      <trkpt lat="44.23712" lon="3.00229">
        <ele>867.3</ele>
        <time>2023-06-25T09:26:18Z</time>
      </trkpt>
      <trkpt lat="44.23709" lon="3.00233">
        <ele>867.2</ele>
        <time>2023-06-25T09:26:19Z</time>
      </trkpt>
      <trkpt lat="44.23705" lon="3.00236">
        <ele>867.1</ele>
        <time>2023-06-25T09:26:20Z</time>
      </trkpt>
      <trkpt lat="44.23701" lon="3.0024">
        <ele>867</ele>
        <time>2023-06-25T09:26:22Z</time>
      </trkpt>
      <trkpt lat="44.23697" lon="3.00244">
        <ele>866.9</ele>
        <time>2023-06-25T09:26:23Z</time>
      </trkpt>
      <trkpt lat="44.23692" lon="3.00249">
        <ele>866.7</ele>
        <time>2023-06-25T09:26:24Z</time>
      </trkpt>
      <trkpt lat="44.23685" lon="3.00255">
        <ele>866.5</ele>
        <time>2023-06-25T09:26:26Z</time>
      </trkpt>
      <trkpt lat="44.23679" lon="3.0026">
        <ele>866.4</ele>
        <time>2023-06-25T09:26:28Z</time>
      </trkpt>
      <trkpt lat="44.23674" lon="3.00265">
        <ele>866.4</ele>
        <time>2023-06-25T09:26:29Z</time>
      </trkpt>
      <trkpt lat="44.23667" lon="3.00271">
        <ele>866.3</ele>
        <time>2023-06-25T09:26:31Z</time>
      </trkpt>
      <trkpt lat="44.23661" lon="3.00276">
        <ele>866.2</ele>
        <time>2023-06-25T09:26:32Z</time>
      </trkpt>
      <trkpt lat="44.23656" lon="3.0028">
        <ele>866.1</ele>
        <time>2023-06-25T09:26:33Z</time>
      </trkpt>
      <trkpt lat="44.23652" lon="3.00284">
        <ele>866</ele>
        <time>2023-06-25T09:26:34Z</time>
      </trkpt>
      <trkpt lat="44.23648" lon="3.00287">
        <ele>865.9</ele>
        <time>2023-06-25T09:26:35Z</time>
      </trkpt>
      <trkpt lat="44.23644" lon="3.00291">
        <ele>865.8</ele>
        <time>2023-06-25T09:26:36Z</time>
      </trkpt>
      <trkpt lat="44.23639" lon="3.00296">
        <ele>865.8</ele>
        <time>2023-06-25T09:26:38Z</time>
      </trkpt>
      <trkpt lat="44.23635" lon="3.00299">
        <ele>865.8</ele>
        <time>2023-06-25T09:26:39Z</time>
      </trkpt>
      <trkpt lat="44.23632" lon="3.00301">
        <ele>865.8</ele>
        <time>2023-06-25T09:26:40Z</time>
      </trkpt>
      <trkpt lat="44.23628" lon="3.00304">
        <ele>865.8</ele>
        <time>2023-06-25T09:26:41Z</time>
      </trkpt>
      <trkpt lat="44.23622" lon="3.00309">
        <ele>865.8</ele>
        <time>2023-06-25T09:26:43Z</time>
      </trkpt>
      <trkpt lat="44.23619" lon="3.00312">
        <ele>865.8</ele>
        <time>2023-06-25T09:26:44Z</time>
      </trkpt>
      <trkpt lat="44.23614" lon="3.00315">
        <ele>865.8</ele>
        <time>2023-06-25T09:26:45Z</time>
      </trkpt>
      <trkpt lat="44.23607" lon="3.00321">
        <ele>865.9</ele>
        <time>2023-06-25T09:26:47Z</time>
      </trkpt>
      <trkpt lat="44.23603" lon="3.00324">
        <ele>866</ele>
        <time>2023-06-25T09:26:49Z</time>
      </trkpt>
      <trkpt lat="44.23599" lon="3.00325">
        <ele>866</ele>
        <time>2023-06-25T09:26:50Z</time>
      </trkpt>
      <trkpt lat="44.23594" lon="3.00328">
        <ele>865.9</ele>
        <time>2023-06-25T09:26:51Z</time>
      </trkpt>
      <trkpt lat="44.23587" lon="3.00329">
        <ele>865.9</ele>
        <time>2023-06-25T09:26:52Z</time>
      </trkpt>
      <trkpt lat="44.2358" lon="3.00331">
        <ele>865.9</ele>
        <time>2023-06-25T09:26:54Z</time>
      </trkpt>
      <trkpt lat="44.23574" lon="3.00331">
        <ele>865.8</ele>
        <time>2023-06-25T09:26:55Z</time>
      </trkpt>
      <trkpt lat="44.23566" lon="3.00331">
        <ele>865.9</ele>
        <time>2023-06-25T09:26:57Z</time>
      </trkpt>
      <trkpt lat="44.2356" lon="3.00331">
        <ele>866</ele>
        <time>2023-06-25T09:26:58Z</time>
      </trkpt>
      <trkpt lat="44.23553" lon="3.00332">
        <ele>866.1</ele>
        <time>2023-06-25T09:27:00Z</time>
      </trkpt>
      <trkpt lat="44.23548" lon="3.00332">
        <ele>866.2</ele>
        <time>2023-06-25T09:27:01Z</time>
      </trkpt>
      <trkpt lat="44.23544" lon="3.00332">
        <ele>866.3</ele>
        <time>2023-06-25T09:27:02Z</time>
      </trkpt>
      <trkpt lat="44.23538" lon="3.00331">
        <ele>866.4</ele>
        <time>2023-06-25T09:27:03Z</time>
      </trkpt>
      <trkpt lat="44.23532" lon="3.00333">
        <ele>866.5</ele>
        <time>2023-06-25T09:27:05Z</time>
      </trkpt>
      <trkpt lat="44.23526" lon="3.00335">
        <ele>866.7</ele>
        <time>2023-06-25T09:27:06Z</time>
      </trkpt>
      <trkpt lat="44.2352" lon="3.00338">
        <ele>866.8</ele>
        <time>2023-06-25T09:27:08Z</time>
      </trkpt>
      <trkpt lat="44.23516" lon="3.00341">
        <ele>866.9</ele>
        <time>2023-06-25T09:27:09Z</time>
      </trkpt>
      <trkpt lat="44.23511" lon="3.00343">
        <ele>866.9</ele>
        <time>2023-06-25T09:27:10Z</time>
      </trkpt>
      <trkpt lat="44.23505" lon="3.00345">
        <ele>867</ele>
        <time>2023-06-25T09:27:12Z</time>
      </trkpt>
      <trkpt lat="44.23501" lon="3.00347">
        <ele>867</ele>
        <time>2023-06-25T09:27:13Z</time>
      </trkpt>
      <trkpt lat="44.23496" lon="3.00349">
        <ele>867</ele>
        <time>2023-06-25T09:27:14Z</time>
      </trkpt>
      <trkpt lat="44.23492" lon="3.0035">
        <ele>867.1</ele>
        <time>2023-06-25T09:27:15Z</time>
      </trkpt>
      <trkpt lat="44.23487" lon="3.00351">
        <ele>867.1</ele>
        <time>2023-06-25T09:27:16Z</time>
      </trkpt>
      <trkpt lat="44.23479" lon="3.00352">
        <ele>867.2</ele>
        <time>2023-06-25T09:27:18Z</time>
      </trkpt>
      <trkpt lat="44.23473" lon="3.00352">
        <ele>867.3</ele>
        <time>2023-06-25T09:27:20Z</time>
      </trkpt>
      <trkpt lat="44.2347" lon="3.00352">
        <ele>867.4</ele>
        <time>2023-06-25T09:27:21Z</time>
      </trkpt>
      <trkpt lat="44.23465" lon="3.00352">
        <ele>867.4</ele>
        <time>2023-06-25T09:27:22Z</time>
      </trkpt>
      <trkpt lat="44.23461" lon="3.00352">
        <ele>867.4</ele>
        <time>2023-06-25T09:27:23Z</time>
      </trkpt>
      <trkpt lat="44.23456" lon="3.00351">
        <ele>867.4</ele>
        <time>2023-06-25T09:27:24Z</time>
      </trkpt>
      <trkpt lat="44.23449" lon="3.00352">
        <ele>867.3</ele>
        <time>2023-06-25T09:27:26Z</time>
      </trkpt>
      <trkpt lat="44.23445" lon="3.00353">
        <ele>867.3</ele>
        <time>2023-06-25T09:27:27Z</time>
      </trkpt>
      <trkpt lat="44.23435" lon="3.00355">
        <ele>867.3</ele>
        <time>2023-06-25T09:27:29Z</time>
      </trkpt>
      <trkpt lat="44.23429" lon="3.00358">
        <ele>867.3</ele>
        <time>2023-06-25T09:27:31Z</time>
      </trkpt>
      <trkpt lat="44.23424" lon="3.0036">
        <ele>867.4</ele>
        <time>2023-06-25T09:27:32Z</time>
      </trkpt>
      <trkpt lat="44.2342" lon="3.00362">
        <ele>867.4</ele>
        <time>2023-06-25T09:27:33Z</time>
      </trkpt>
      <trkpt lat="44.23415" lon="3.00364">
        <ele>867.4</ele>
        <time>2023-06-25T09:27:34Z</time>
      </trkpt>
      <trkpt lat="44.23411" lon="3.00365">
        <ele>867.4</ele>
        <time>2023-06-25T09:27:35Z</time>
      </trkpt>
      <trkpt lat="44.23406" lon="3.00365">
        <ele>867.3</ele>
        <time>2023-06-25T09:27:36Z</time>
      </trkpt>
      <trkpt lat="44.234" lon="3.00368">
        <ele>867.2</ele>
        <time>2023-06-25T09:27:37Z</time>
      </trkpt>
      <trkpt lat="44.23394" lon="3.0037">
        <ele>867.1</ele>
        <time>2023-06-25T09:27:39Z</time>
      </trkpt>
      <trkpt lat="44.23389" lon="3.00371">
        <ele>867</ele>
        <time>2023-06-25T09:27:40Z</time>
      </trkpt>
      <trkpt lat="44.23384" lon="3.00372">
        <ele>866.9</ele>
        <time>2023-06-25T09:27:41Z</time>
      </trkpt>
      <trkpt lat="44.23375" lon="3.00375">
        <ele>866.8</ele>
        <time>2023-06-25T09:27:43Z</time>
      </trkpt>
      <trkpt lat="44.23369" lon="3.00378">
        <ele>866.7</ele>
        <time>2023-06-25T09:27:45Z</time>
      </trkpt>
      <trkpt lat="44.23365" lon="3.0038">
        <ele>866.6</ele>
        <time>2023-06-25T09:27:46Z</time>
      </trkpt>
      <trkpt lat="44.23361" lon="3.00384">
        <ele>866.5</ele>
        <time>2023-06-25T09:27:47Z</time>
      </trkpt>
      <trkpt lat="44.23357" lon="3.00389">
        <ele>866.4</ele>
        <time>2023-06-25T09:27:48Z</time>
      </trkpt>
      <trkpt lat="44.23349" lon="3.00399">
        <ele>866.2</ele>
        <time>2023-06-25T09:27:50Z</time>
      </trkpt>
      <trkpt lat="44.23346" lon="3.00403">
        <ele>866.1</ele>
        <time>2023-06-25T09:27:52Z</time>
      </trkpt>
      <trkpt lat="44.23342" lon="3.00406">
        <ele>865.9</ele>
        <time>2023-06-25T09:27:53Z</time>
      </trkpt>
      <trkpt lat="44.23339" lon="3.00409">
        <ele>865.8</ele>
        <time>2023-06-25T09:27:54Z</time>
      </trkpt>
      <trkpt lat="44.23336" lon="3.00411">
        <ele>865.7</ele>
        <time>2023-06-25T09:27:55Z</time>
      </trkpt>
      <trkpt lat="44.23332" lon="3.00412">
        <ele>865.6</ele>
        <time>2023-06-25T09:27:56Z</time>
      </trkpt>
      <trkpt lat="44.23326" lon="3.00414">
        <ele>865.4</ele>
        <time>2023-06-25T09:27:58Z</time>
      </trkpt>
      <trkpt lat="44.23321" lon="3.00414">
        <ele>865.4</ele>
        <time>2023-06-25T09:27:59Z</time>
      </trkpt>
      <trkpt lat="44.23316" lon="3.00415">
        <ele>865.3</ele>
        <time>2023-06-25T09:28:01Z</time>
      </trkpt>
      <trkpt lat="44.23312" lon="3.00415">
        <ele>865.3</ele>
        <time>2023-06-25T09:28:02Z</time>
      </trkpt>
      <trkpt lat="44.23307" lon="3.00415">
        <ele>865.2</ele>
        <time>2023-06-25T09:28:03Z</time>
      </trkpt>
      <trkpt lat="44.23303" lon="3.00415">
        <ele>865.2</ele>
        <time>2023-06-25T09:28:04Z</time>
      </trkpt>
      <trkpt lat="44.23299" lon="3.00416">
        <ele>865.1</ele>
        <time>2023-06-25T09:28:05Z</time>
      </trkpt>
      <trkpt lat="44.23294" lon="3.00418">
        <ele>865</ele>
        <time>2023-06-25T09:28:07Z</time>
      </trkpt>
      <trkpt lat="44.2329" lon="3.00418">
        <ele>864.9</ele>
        <time>2023-06-25T09:28:08Z</time>
      </trkpt>
      <trkpt lat="44.23287" lon="3.00419">
        <ele>864.8</ele>
        <time>2023-06-25T09:28:09Z</time>
      </trkpt>
      <trkpt lat="44.23283" lon="3.0042">
        <ele>864.7</ele>
        <time>2023-06-25T09:28:10Z</time>
      </trkpt>
      <trkpt lat="44.23275" lon="3.0042">
        <ele>864.2</ele>
        <time>2023-06-25T09:28:12Z</time>
      </trkpt>
      <trkpt lat="44.23271" lon="3.0042">
        <ele>864</ele>
        <time>2023-06-25T09:28:14Z</time>
      </trkpt>
      <trkpt lat="44.23266" lon="3.0042">
        <ele>863.7</ele>
        <time>2023-06-25T09:28:15Z</time>
      </trkpt>
      <trkpt lat="44.23262" lon="3.0042">
        <ele>863.4</ele>
        <time>2023-06-25T09:28:16Z</time>
      </trkpt>
      <trkpt lat="44.23258" lon="3.00421">
        <ele>863.2</ele>
        <time>2023-06-25T09:28:17Z</time>
      </trkpt>
      <trkpt lat="44.23254" lon="3.00423">
        <ele>863</ele>
        <time>2023-06-25T09:28:18Z</time>
      </trkpt>
      <trkpt lat="44.23246" lon="3.00425">
        <ele>862.6</ele>
        <time>2023-06-25T09:28:20Z</time>
      </trkpt>
      <trkpt lat="44.23241" lon="3.00426">
        <ele>862.4</ele>
        <time>2023-06-25T09:28:22Z</time>
      </trkpt>
      <trkpt lat="44.23238" lon="3.00426">
        <ele>862.2</ele>
        <time>2023-06-25T09:28:23Z</time>
      </trkpt>
      <trkpt lat="44.23234" lon="3.00429">
        <ele>862</ele>
        <time>2023-06-25T09:28:24Z</time>
      </trkpt>
      <trkpt lat="44.23231" lon="3.00431">
        <ele>861.8</ele>
        <time>2023-06-25T09:28:25Z</time>
      </trkpt>
      <trkpt lat="44.23227" lon="3.00433">
        <ele>861.7</ele>
        <time>2023-06-25T09:28:26Z</time>
      </trkpt>
      <trkpt lat="44.23223" lon="3.00435">
        <ele>861.5</ele>
        <time>2023-06-25T09:28:28Z</time>
      </trkpt>
      <trkpt lat="44.23221" lon="3.00437">
        <ele>861.4</ele>
        <time>2023-06-25T09:28:29Z</time>
      </trkpt>
      <trkpt lat="44.23221" lon="3.00437">
        <ele>861.4</ele>
        <time>2023-06-25T09:28:30Z</time>
      </trkpt>
      <trkpt lat="44.23221" lon="3.00437">
        <ele>861.4</ele>
        <time>2023-06-25T09:28:31Z</time>
      </trkpt>
      <trkpt lat="44.2322" lon="3.00437">
        <ele>861.4</ele>
        <time>2023-06-25T09:28:32Z</time>
      </trkpt>
      <trkpt lat="44.2322" lon="3.00437">
        <ele>861.4</ele>
        <time>2023-06-25T09:28:34Z</time>
      </trkpt>
      <trkpt lat="44.2322" lon="3.00437">
        <ele>861.4</ele>
        <time>2023-06-25T09:28:35Z</time>
      </trkpt>
      <trkpt lat="44.23219" lon="3.00437">
        <ele>861.4</ele>
        <time>2023-06-25T09:28:36Z</time>
      </trkpt>
      <trkpt lat="44.23219" lon="3.00437">
        <ele>861.3</ele>
        <time>2023-06-25T09:28:37Z</time>
      </trkpt>
      <trkpt lat="44.23218" lon="3.00437">
        <ele>861.3</ele>
        <time>2023-06-25T09:28:39Z</time>
      </trkpt>
      <trkpt lat="44.23218" lon="3.00437">
        <ele>861.3</ele>
        <time>2023-06-25T09:28:40Z</time>
      </trkpt>
      <trkpt lat="44.23218" lon="3.00437">
        <ele>861.3</ele>
        <time>2023-06-25T09:28:41Z</time>
      </trkpt>
      <trkpt lat="44.23217" lon="3.00438">
        <ele>861.3</ele>
        <time>2023-06-25T09:28:43Z</time>
      </trkpt>
      <trkpt lat="44.23217" lon="3.00438">
        <ele>861.3</ele>
        <time>2023-06-25T09:28:44Z</time>
      </trkpt>
      <trkpt lat="44.23217" lon="3.00438">
        <ele>861.3</ele>
        <time>2023-06-25T09:28:46Z</time>
      </trkpt>
      <trkpt lat="44.23216" lon="3.00438">
        <ele>861.3</ele>
        <time>2023-06-25T09:28:47Z</time>
      </trkpt>
      <trkpt lat="44.23216" lon="3.00438">
        <ele>861.2</ele>
        <time>2023-06-25T09:29:01Z</time>
      </trkpt>
      <trkpt lat="44.23215" lon="3.00438">
        <ele>861.2</ele>
        <time>2023-06-25T09:29:02Z</time>
      </trkpt>
      <trkpt lat="44.2321" lon="3.00442">
        <ele>861</ele>
        <time>2023-06-25T09:29:04Z</time>
      </trkpt>
      <trkpt lat="44.23206" lon="3.00444">
        <ele>860.8</ele>
        <time>2023-06-25T09:29:05Z</time>
      </trkpt>
      <trkpt lat="44.232" lon="3.00447">
        <ele>860.5</ele>
        <time>2023-06-25T09:29:06Z</time>
      </trkpt>
      <trkpt lat="44.23196" lon="3.00449">
        <ele>860.3</ele>
        <time>2023-06-25T09:29:07Z</time>
      </trkpt>
      <trkpt lat="44.23192" lon="3.00451">
        <ele>860.1</ele>
        <time>2023-06-25T09:29:08Z</time>
      </trkpt>
      <trkpt lat="44.23187" lon="3.00451">
        <ele>859.8</ele>
        <time>2023-06-25T09:29:09Z</time>
      </trkpt>
      <trkpt lat="44.23181" lon="3.00453">
        <ele>859.6</ele>
        <time>2023-06-25T09:29:10Z</time>
      </trkpt>
      <trkpt lat="44.23174" lon="3.00455">
        <ele>859.4</ele>
        <time>2023-06-25T09:29:11Z</time>
      </trkpt>
      <trkpt lat="44.23165" lon="3.00459">
        <ele>859</ele>
        <time>2023-06-25T09:29:13Z</time>
      </trkpt>
      <trkpt lat="44.23159" lon="3.00461">
        <ele>858.8</ele>
        <time>2023-06-25T09:29:14Z</time>
      </trkpt>
      <trkpt lat="44.23154" lon="3.00464">
        <ele>858.5</ele>
        <time>2023-06-25T09:29:15Z</time>
      </trkpt>
      <trkpt lat="44.23148" lon="3.00466">
        <ele>858.2</ele>
        <time>2023-06-25T09:29:16Z</time>
      </trkpt>
      <trkpt lat="44.23142" lon="3.00469">
        <ele>858</ele>
        <time>2023-06-25T09:29:17Z</time>
      </trkpt>
      <trkpt lat="44.23136" lon="3.00472">
        <ele>857.8</ele>
        <time>2023-06-25T09:29:18Z</time>
      </trkpt>
      <trkpt lat="44.2313" lon="3.00475">
        <ele>857.7</ele>
        <time>2023-06-25T09:29:19Z</time>
      </trkpt>
      <trkpt lat="44.23125" lon="3.00478">
        <ele>857.6</ele>
        <time>2023-06-25T09:29:20Z</time>
      </trkpt>
      <trkpt lat="44.23119" lon="3.00479">
        <ele>857.4</ele>
        <time>2023-06-25T09:29:21Z</time>
      </trkpt>
      <trkpt lat="44.23114" lon="3.0048">
        <ele>857.2</ele>
        <time>2023-06-25T09:29:22Z</time>
      </trkpt>
      <trkpt lat="44.23109" lon="3.00481">
        <ele>857</ele>
        <time>2023-06-25T09:29:23Z</time>
      </trkpt>
      <trkpt lat="44.23103" lon="3.0048">
        <ele>856.7</ele>
        <time>2023-06-25T09:29:24Z</time>
      </trkpt>
      <trkpt lat="44.23097" lon="3.00479">
        <ele>856.6</ele>
        <time>2023-06-25T09:29:25Z</time>
      </trkpt>
      <trkpt lat="44.23092" lon="3.00479">
        <ele>856.4</ele>
        <time>2023-06-25T09:29:26Z</time>
      </trkpt>
      <trkpt lat="44.23086" lon="3.00479">
        <ele>856.2</ele>
        <time>2023-06-25T09:29:27Z</time>
      </trkpt>
      <trkpt lat="44.2308" lon="3.0048">
        <ele>856</ele>
        <time>2023-06-25T09:29:28Z</time>
      </trkpt>
      <trkpt lat="44.23074" lon="3.0048">
        <ele>855.8</ele>
        <time>2023-06-25T09:29:29Z</time>
      </trkpt>
      <trkpt lat="44.23069" lon="3.00481">
        <ele>855.5</ele>
        <time>2023-06-25T09:29:30Z</time>
      </trkpt>
      <trkpt lat="44.23064" lon="3.00481">
        <ele>855.2</ele>
        <time>2023-06-25T09:29:31Z</time>
      </trkpt>
      <trkpt lat="44.2306" lon="3.00484">
        <ele>855</ele>
        <time>2023-06-25T09:29:32Z</time>
      </trkpt>
      <trkpt lat="44.23055" lon="3.00488">
        <ele>854.7</ele>
        <time>2023-06-25T09:29:33Z</time>
      </trkpt>
      <trkpt lat="44.23051" lon="3.00492">
        <ele>854.6</ele>
        <time>2023-06-25T09:29:34Z</time>
      </trkpt>
      <trkpt lat="44.23047" lon="3.00494">
        <ele>854.4</ele>
        <time>2023-06-25T09:29:35Z</time>
      </trkpt>
      <trkpt lat="44.23044" lon="3.00495">
        <ele>854.3</ele>
        <time>2023-06-25T09:29:36Z</time>
      </trkpt>
      <trkpt lat="44.23041" lon="3.00497">
        <ele>854.2</ele>
        <time>2023-06-25T09:29:37Z</time>
      </trkpt>
      <trkpt lat="44.23037" lon="3.00497">
        <ele>854</ele>
        <time>2023-06-25T09:29:38Z</time>
      </trkpt>
      <trkpt lat="44.23034" lon="3.00497">
        <ele>853.9</ele>
        <time>2023-06-25T09:29:39Z</time>
      </trkpt>
      <trkpt lat="44.23029" lon="3.00497">
        <ele>853.7</ele>
        <time>2023-06-25T09:29:40Z</time>
      </trkpt>
      <trkpt lat="44.23025" lon="3.00497">
        <ele>853.5</ele>
        <time>2023-06-25T09:29:41Z</time>
      </trkpt>
      <trkpt lat="44.23022" lon="3.00498">
        <ele>853.4</ele>
        <time>2023-06-25T09:29:42Z</time>
      </trkpt>
      <trkpt lat="44.23018" lon="3.00499">
        <ele>853.3</ele>
        <time>2023-06-25T09:29:43Z</time>
      </trkpt>
      <trkpt lat="44.23011" lon="3.00499">
        <ele>853</ele>
        <time>2023-06-25T09:29:44Z</time>
      </trkpt>
      <trkpt lat="44.23005" lon="3.005">
        <ele>852.8</ele>
        <time>2023-06-25T09:29:45Z</time>
      </trkpt>
      <trkpt lat="44.23" lon="3.005">
        <ele>852.6</ele>
        <time>2023-06-25T09:29:46Z</time>
      </trkpt>
      <trkpt lat="44.22995" lon="3.00501">
        <ele>852.4</ele>
        <time>2023-06-25T09:29:47Z</time>
      </trkpt>
      <trkpt lat="44.2299" lon="3.005">
        <ele>852.2</ele>
        <time>2023-06-25T09:29:48Z</time>
      </trkpt>
      <trkpt lat="44.22986" lon="3.00499">
        <ele>852</ele>
        <time>2023-06-25T09:29:49Z</time>
      </trkpt>
      <trkpt lat="44.22978" lon="3.00496">
        <ele>851.5</ele>
        <time>2023-06-25T09:29:51Z</time>
      </trkpt>
      <trkpt lat="44.22973" lon="3.00495">
        <ele>851.2</ele>
        <time>2023-06-25T09:29:52Z</time>
      </trkpt>
      <trkpt lat="44.22968" lon="3.00493">
        <ele>850.9</ele>
        <time>2023-06-25T09:29:54Z</time>
      </trkpt>
      <trkpt lat="44.22965" lon="3.00495">
        <ele>850.7</ele>
        <time>2023-06-25T09:29:55Z</time>
      </trkpt>
      <trkpt lat="44.22961" lon="3.00496">
        <ele>850.4</ele>
        <time>2023-06-25T09:29:56Z</time>
      </trkpt>
      <trkpt lat="44.22956" lon="3.00498">
        <ele>850.1</ele>
        <time>2023-06-25T09:29:57Z</time>
      </trkpt>
      <trkpt lat="44.22952" lon="3.005">
        <ele>849.8</ele>
        <time>2023-06-25T09:29:58Z</time>
      </trkpt>
      <trkpt lat="44.22945" lon="3.00503">
        <ele>849.3</ele>
        <time>2023-06-25T09:30:00Z</time>
      </trkpt>
      <trkpt lat="44.22941" lon="3.00505">
        <ele>849.1</ele>
        <time>2023-06-25T09:30:01Z</time>
      </trkpt>
      <trkpt lat="44.22937" lon="3.00509">
        <ele>848.8</ele>
        <time>2023-06-25T09:30:02Z</time>
      </trkpt>
      <trkpt lat="44.22934" lon="3.00513">
        <ele>848.5</ele>
        <time>2023-06-25T09:30:03Z</time>
      </trkpt>
      <trkpt lat="44.2293" lon="3.00517">
        <ele>848.3</ele>
        <time>2023-06-25T09:30:04Z</time>
      </trkpt>
      <trkpt lat="44.22923" lon="3.00525">
        <ele>848</ele>
        <time>2023-06-25T09:30:06Z</time>
      </trkpt>
      <trkpt lat="44.22918" lon="3.0053">
        <ele>847.7</ele>
        <time>2023-06-25T09:30:07Z</time>
      </trkpt>
      <trkpt lat="44.22913" lon="3.00534">
        <ele>847.6</ele>
        <time>2023-06-25T09:30:08Z</time>
      </trkpt>
      <trkpt lat="44.22909" lon="3.00538">
        <ele>847.5</ele>
        <time>2023-06-25T09:30:09Z</time>
      </trkpt>
      <trkpt lat="44.22905" lon="3.00542">
        <ele>847.4</ele>
        <time>2023-06-25T09:30:10Z</time>
      </trkpt>
      <trkpt lat="44.22901" lon="3.00546">
        <ele>847.3</ele>
        <time>2023-06-25T09:30:11Z</time>
      </trkpt>
      <trkpt lat="44.22897" lon="3.0055">
        <ele>847.2</ele>
        <time>2023-06-25T09:30:12Z</time>
      </trkpt>
      <trkpt lat="44.22895" lon="3.00553">
        <ele>847.1</ele>
        <time>2023-06-25T09:30:13Z</time>
      </trkpt>
      <trkpt lat="44.22891" lon="3.00556">
        <ele>847</ele>
        <time>2023-06-25T09:30:14Z</time>
      </trkpt>
      <trkpt lat="44.22886" lon="3.0056">
        <ele>846.9</ele>
        <time>2023-06-25T09:30:15Z</time>
      </trkpt>
      <trkpt lat="44.22881" lon="3.00564">
        <ele>846.8</ele>
        <time>2023-06-25T09:30:16Z</time>
      </trkpt>
      <trkpt lat="44.22876" lon="3.00567">
        <ele>846.6</ele>
        <time>2023-06-25T09:30:17Z</time>
      </trkpt>
      <trkpt lat="44.22871" lon="3.00569">
        <ele>846.6</ele>
        <time>2023-06-25T09:30:18Z</time>
      </trkpt>
      <trkpt lat="44.22867" lon="3.00572">
        <ele>846.5</ele>
        <time>2023-06-25T09:30:19Z</time>
      </trkpt>
      <trkpt lat="44.22862" lon="3.00575">
        <ele>846.4</ele>
        <time>2023-06-25T09:30:20Z</time>
      </trkpt>
      <trkpt lat="44.22858" lon="3.00577">
        <ele>846.4</ele>
        <time>2023-06-25T09:30:21Z</time>
      </trkpt>
      <trkpt lat="44.22853" lon="3.0058">
        <ele>846.3</ele>
        <time>2023-06-25T09:30:22Z</time>
      </trkpt>
      <trkpt lat="44.22849" lon="3.00583">
        <ele>846.3</ele>
        <time>2023-06-25T09:30:23Z</time>
      </trkpt>
      <trkpt lat="44.22844" lon="3.00585">
        <ele>846.2</ele>
        <time>2023-06-25T09:30:24Z</time>
      </trkpt>
      <trkpt lat="44.2284" lon="3.00587">
        <ele>846.2</ele>
        <time>2023-06-25T09:30:25Z</time>
      </trkpt>
      <trkpt lat="44.22835" lon="3.00588">
        <ele>846.1</ele>
        <time>2023-06-25T09:30:26Z</time>
      </trkpt>
      <trkpt lat="44.22831" lon="3.0059">
        <ele>846.1</ele>
        <time>2023-06-25T09:30:27Z</time>
      </trkpt>
      <trkpt lat="44.22826" lon="3.00591">
        <ele>846</ele>
        <time>2023-06-25T09:30:28Z</time>
      </trkpt>
      <trkpt lat="44.22823" lon="3.00592">
        <ele>846</ele>
        <time>2023-06-25T09:30:29Z</time>
      </trkpt>
      <trkpt lat="44.2282" lon="3.00593">
        <ele>846</ele>
        <time>2023-06-25T09:30:30Z</time>
      </trkpt>
      <trkpt lat="44.22816" lon="3.00594">
        <ele>846</ele>
        <time>2023-06-25T09:30:31Z</time>
      </trkpt>
      <trkpt lat="44.22813" lon="3.00595">
        <ele>846</ele>
        <time>2023-06-25T09:30:32Z</time>
      </trkpt>
      <trkpt lat="44.22809" lon="3.00596">
        <ele>846</ele>
        <time>2023-06-25T09:30:33Z</time>
      </trkpt>
      <trkpt lat="44.22804" lon="3.00599">
        <ele>846</ele>
        <time>2023-06-25T09:30:34Z</time>
      </trkpt>
      <trkpt lat="44.22801" lon="3.006">
        <ele>845.9</ele>
        <time>2023-06-25T09:30:35Z</time>
      </trkpt>
      <trkpt lat="44.22794" lon="3.00603">
        <ele>845.9</ele>
        <time>2023-06-25T09:30:37Z</time>
      </trkpt>
      <trkpt lat="44.2279" lon="3.00605">
        <ele>846</ele>
        <time>2023-06-25T09:30:38Z</time>
      </trkpt>
      <trkpt lat="44.22787" lon="3.00607">
        <ele>846</ele>
        <time>2023-06-25T09:30:39Z</time>
      </trkpt>
      <trkpt lat="44.22782" lon="3.0061">
        <ele>846.1</ele>
        <time>2023-06-25T09:30:41Z</time>
      </trkpt>
      <trkpt lat="44.22778" lon="3.00612">
        <ele>846.1</ele>
        <time>2023-06-25T09:30:42Z</time>
      </trkpt>
      <trkpt lat="44.22775" lon="3.00615">
        <ele>846.2</ele>
        <time>2023-06-25T09:30:43Z</time>
      </trkpt>
      <trkpt lat="44.22771" lon="3.00617">
        <ele>846.3</ele>
        <time>2023-06-25T09:30:44Z</time>
      </trkpt>
      <trkpt lat="44.22764" lon="3.00622">
        <ele>846.4</ele>
        <time>2023-06-25T09:30:46Z</time>
      </trkpt>
      <trkpt lat="44.22761" lon="3.00625">
        <ele>846.5</ele>
        <time>2023-06-25T09:30:47Z</time>
      </trkpt>
      <trkpt lat="44.22757" lon="3.00627">
        <ele>846.5</ele>
        <time>2023-06-25T09:30:48Z</time>
      </trkpt>
      <trkpt lat="44.22753" lon="3.00629">
        <ele>846.6</ele>
        <time>2023-06-25T09:30:49Z</time>
      </trkpt>
      <trkpt lat="44.22749" lon="3.00632">
        <ele>846.6</ele>
        <time>2023-06-25T09:30:50Z</time>
      </trkpt>
      <trkpt lat="44.22745" lon="3.00634">
        <ele>846.7</ele>
        <time>2023-06-25T09:30:52Z</time>
      </trkpt>
      <trkpt lat="44.22741" lon="3.00636">
        <ele>846.7</ele>
        <time>2023-06-25T09:30:53Z</time>
      </trkpt>
      <trkpt lat="44.22737" lon="3.00638">
        <ele>846.7</ele>
        <time>2023-06-25T09:30:54Z</time>
      </trkpt>
      <trkpt lat="44.22733" lon="3.0064">
        <ele>846.8</ele>
        <time>2023-06-25T09:30:55Z</time>
      </trkpt>
      <trkpt lat="44.22729" lon="3.00642">
        <ele>846.8</ele>
        <time>2023-06-25T09:30:56Z</time>
      </trkpt>
      <trkpt lat="44.22725" lon="3.00645">
        <ele>846.8</ele>
        <time>2023-06-25T09:30:58Z</time>
      </trkpt>
      <trkpt lat="44.2272" lon="3.00648">
        <ele>846.7</ele>
        <time>2023-06-25T09:30:59Z</time>
      </trkpt>
      <trkpt lat="44.22717" lon="3.00651">
        <ele>846.7</ele>
        <time>2023-06-25T09:31:00Z</time>
      </trkpt>
      <trkpt lat="44.22713" lon="3.00654">
        <ele>846.7</ele>
        <time>2023-06-25T09:31:01Z</time>
      </trkpt>
      <trkpt lat="44.22709" lon="3.00656">
        <ele>846.7</ele>
        <time>2023-06-25T09:31:02Z</time>
      </trkpt>
      <trkpt lat="44.22705" lon="3.0066">
        <ele>846.7</ele>
        <time>2023-06-25T09:31:03Z</time>
      </trkpt>
      <trkpt lat="44.22701" lon="3.00663">
        <ele>846.7</ele>
        <time>2023-06-25T09:31:05Z</time>
      </trkpt>
      <trkpt lat="44.22697" lon="3.00665">
        <ele>846.7</ele>
        <time>2023-06-25T09:31:06Z</time>
      </trkpt>
      <trkpt lat="44.22693" lon="3.00667">
        <ele>846.6</ele>
        <time>2023-06-25T09:31:07Z</time>
      </trkpt>
      <trkpt lat="44.22689" lon="3.00669">
        <ele>846.6</ele>
        <time>2023-06-25T09:31:08Z</time>
      </trkpt>
      <trkpt lat="44.22685" lon="3.00672">
        <ele>846.6</ele>
        <time>2023-06-25T09:31:09Z</time>
      </trkpt>
      <trkpt lat="44.2268" lon="3.00675">
        <ele>846.5</ele>
        <time>2023-06-25T09:31:11Z</time>
      </trkpt>
      <trkpt lat="44.22676" lon="3.00677">
        <ele>846.5</ele>
        <time>2023-06-25T09:31:12Z</time>
      </trkpt>
      <trkpt lat="44.22673" lon="3.00678">
        <ele>846.5</ele>
        <time>2023-06-25T09:31:13Z</time>
      </trkpt>
      <trkpt lat="44.22668" lon="3.0068">
        <ele>846.5</ele>
        <time>2023-06-25T09:31:14Z</time>
      </trkpt>
      <trkpt lat="44.22664" lon="3.00681">
        <ele>846.5</ele>
        <time>2023-06-25T09:31:15Z</time>
      </trkpt>
      <trkpt lat="44.22659" lon="3.00683">
        <ele>846.5</ele>
        <time>2023-06-25T09:31:17Z</time>
      </trkpt>
      <trkpt lat="44.22656" lon="3.00684">
        <ele>846.5</ele>
        <time>2023-06-25T09:31:18Z</time>
      </trkpt>
      <trkpt lat="44.22652" lon="3.00685">
        <ele>846.5</ele>
        <time>2023-06-25T09:31:19Z</time>
      </trkpt>
      <trkpt lat="44.22648" lon="3.00687">
        <ele>846.6</ele>
        <time>2023-06-25T09:31:20Z</time>
      </trkpt>
      <trkpt lat="44.2264" lon="3.00688">
        <ele>846.6</ele>
        <time>2023-06-25T09:31:22Z</time>
      </trkpt>
      <trkpt lat="44.22636" lon="3.0069">
        <ele>846.6</ele>
        <time>2023-06-25T09:31:23Z</time>
      </trkpt>
      <trkpt lat="44.22629" lon="3.00692">
        <ele>846.6</ele>
        <time>2023-06-25T09:31:25Z</time>
      </trkpt>
      <trkpt lat="44.22624" lon="3.00693">
        <ele>846.7</ele>
        <time>2023-06-25T09:31:26Z</time>
      </trkpt>
      <trkpt lat="44.2262" lon="3.00694">
        <ele>846.7</ele>
        <time>2023-06-25T09:31:27Z</time>
      </trkpt>
      <trkpt lat="44.22615" lon="3.00694">
        <ele>846.8</ele>
        <time>2023-06-25T09:31:28Z</time>
      </trkpt>
      <trkpt lat="44.22611" lon="3.00694">
        <ele>846.8</ele>
        <time>2023-06-25T09:31:29Z</time>
      </trkpt>
      <trkpt lat="44.22605" lon="3.00694">
        <ele>846.9</ele>
        <time>2023-06-25T09:31:31Z</time>
      </trkpt>
      <trkpt lat="44.226" lon="3.00693">
        <ele>846.9</ele>
        <time>2023-06-25T09:31:32Z</time>
      </trkpt>
      <trkpt lat="44.22596" lon="3.00692">
        <ele>847</ele>
        <time>2023-06-25T09:31:33Z</time>
      </trkpt>
      <trkpt lat="44.22592" lon="3.00691">
        <ele>847.1</ele>
        <time>2023-06-25T09:31:34Z</time>
      </trkpt>
      <trkpt lat="44.22587" lon="3.00691">
        <ele>847.1</ele>
        <time>2023-06-25T09:31:35Z</time>
      </trkpt>
      <trkpt lat="44.22583" lon="3.0069">
        <ele>847.2</ele>
        <time>2023-06-25T09:31:37Z</time>
      </trkpt>
      <trkpt lat="44.22578" lon="3.0069">
        <ele>847.3</ele>
        <time>2023-06-25T09:31:38Z</time>
      </trkpt>
      <trkpt lat="44.22574" lon="3.0069">
        <ele>847.4</ele>
        <time>2023-06-25T09:31:39Z</time>
      </trkpt>
      <trkpt lat="44.2257" lon="3.0069">
        <ele>847.5</ele>
        <time>2023-06-25T09:31:40Z</time>
      </trkpt>
      <trkpt lat="44.22565" lon="3.00691">
        <ele>847.7</ele>
        <time>2023-06-25T09:31:41Z</time>
      </trkpt>
      <trkpt lat="44.22561" lon="3.00691">
        <ele>847.9</ele>
        <time>2023-06-25T09:31:42Z</time>
      </trkpt>
      <trkpt lat="44.22557" lon="3.00692">
        <ele>848.1</ele>
        <time>2023-06-25T09:31:43Z</time>
      </trkpt>
      <trkpt lat="44.22553" lon="3.00692">
        <ele>848.3</ele>
        <time>2023-06-25T09:31:44Z</time>
      </trkpt>
      <trkpt lat="44.2255" lon="3.00693">
        <ele>848.5</ele>
        <time>2023-06-25T09:31:46Z</time>
      </trkpt>
      <trkpt lat="44.22547" lon="3.00694">
        <ele>848.6</ele>
        <time>2023-06-25T09:31:47Z</time>
      </trkpt>
      <trkpt lat="44.22543" lon="3.00695">
        <ele>848.8</ele>
        <time>2023-06-25T09:31:48Z</time>
      </trkpt>
      <trkpt lat="44.22539" lon="3.00696">
        <ele>848.9</ele>
        <time>2023-06-25T09:31:49Z</time>
      </trkpt>
      <trkpt lat="44.22532" lon="3.00695">
        <ele>849.2</ele>
        <time>2023-06-25T09:31:51Z</time>
      </trkpt>
      <trkpt lat="44.22528" lon="3.00696">
        <ele>849.4</ele>
        <time>2023-06-25T09:31:52Z</time>
      </trkpt>
      <trkpt lat="44.22524" lon="3.00696">
        <ele>849.7</ele>
        <time>2023-06-25T09:31:53Z</time>
      </trkpt>
      <trkpt lat="44.22519" lon="3.00697">
        <ele>850</ele>
        <time>2023-06-25T09:31:55Z</time>
      </trkpt>
      <trkpt lat="44.22515" lon="3.00698">
        <ele>850.2</ele>
        <time>2023-06-25T09:31:56Z</time>
      </trkpt>
      <trkpt lat="44.22512" lon="3.00699">
        <ele>850.3</ele>
        <time>2023-06-25T09:31:57Z</time>
      </trkpt>
      <trkpt lat="44.22508" lon="3.00699">
        <ele>850.5</ele>
        <time>2023-06-25T09:31:58Z</time>
      </trkpt>
      <trkpt lat="44.22504" lon="3.007">
        <ele>850.7</ele>
        <time>2023-06-25T09:32:00Z</time>
      </trkpt>
      <trkpt lat="44.225" lon="3.00701">
        <ele>850.9</ele>
        <time>2023-06-25T09:32:01Z</time>
      </trkpt>
      <trkpt lat="44.22495" lon="3.00702">
        <ele>851.2</ele>
        <time>2023-06-25T09:32:02Z</time>
      </trkpt>
      <trkpt lat="44.22492" lon="3.00702">
        <ele>851.4</ele>
        <time>2023-06-25T09:32:03Z</time>
      </trkpt>
      <trkpt lat="44.22488" lon="3.00703">
        <ele>851.5</ele>
        <time>2023-06-25T09:32:04Z</time>
      </trkpt>
      <trkpt lat="44.22485" lon="3.00704">
        <ele>851.7</ele>
        <time>2023-06-25T09:32:05Z</time>
      </trkpt>
      <trkpt lat="44.2248" lon="3.00704">
        <ele>851.8</ele>
        <time>2023-06-25T09:32:06Z</time>
      </trkpt>
      <trkpt lat="44.22474" lon="3.00704">
        <ele>852</ele>
        <time>2023-06-25T09:32:08Z</time>
      </trkpt>
      <trkpt lat="44.2247" lon="3.00705">
        <ele>852.2</ele>
        <time>2023-06-25T09:32:09Z</time>
      </trkpt>
      <trkpt lat="44.22466" lon="3.00705">
        <ele>852.3</ele>
        <time>2023-06-25T09:32:10Z</time>
      </trkpt>
      <trkpt lat="44.22462" lon="3.00705">
        <ele>852.5</ele>
        <time>2023-06-25T09:32:11Z</time>
      </trkpt>
      <trkpt lat="44.22458" lon="3.00706">
        <ele>852.6</ele>
        <time>2023-06-25T09:32:12Z</time>
      </trkpt>
      <trkpt lat="44.22453" lon="3.00706">
        <ele>852.8</ele>
        <time>2023-06-25T09:32:13Z</time>
      </trkpt>
      <trkpt lat="44.22449" lon="3.00706">
        <ele>852.9</ele>
        <time>2023-06-25T09:32:14Z</time>
      </trkpt>
      <trkpt lat="44.22445" lon="3.00707">
        <ele>853</ele>
        <time>2023-06-25T09:32:15Z</time>
      </trkpt>
      <trkpt lat="44.2244" lon="3.00708">
        <ele>853.2</ele>
        <time>2023-06-25T09:32:17Z</time>
      </trkpt>
      <trkpt lat="44.22435" lon="3.0071">
        <ele>853.3</ele>
        <time>2023-06-25T09:32:18Z</time>
      </trkpt>
      <trkpt lat="44.22431" lon="3.0071">
        <ele>853.4</ele>
        <time>2023-06-25T09:32:19Z</time>
      </trkpt>
      <trkpt lat="44.22427" lon="3.00712">
        <ele>853.5</ele>
        <time>2023-06-25T09:32:20Z</time>
      </trkpt>
      <trkpt lat="44.22424" lon="3.00713">
        <ele>853.6</ele>
        <time>2023-06-25T09:32:21Z</time>
      </trkpt>
      <trkpt lat="44.2242" lon="3.00715">
        <ele>853.7</ele>
        <time>2023-06-25T09:32:22Z</time>
      </trkpt>
      <trkpt lat="44.22416" lon="3.00716">
        <ele>853.7</ele>
        <time>2023-06-25T09:32:23Z</time>
      </trkpt>
      <trkpt lat="44.22412" lon="3.00717">
        <ele>853.8</ele>
        <time>2023-06-25T09:32:24Z</time>
      </trkpt>
      <trkpt lat="44.22407" lon="3.00718">
        <ele>853.9</ele>
        <time>2023-06-25T09:32:26Z</time>
      </trkpt>
      <trkpt lat="44.22402" lon="3.00719">
        <ele>854</ele>
        <time>2023-06-25T09:32:27Z</time>
      </trkpt>
      <trkpt lat="44.22398" lon="3.0072">
        <ele>854.1</ele>
        <time>2023-06-25T09:32:28Z</time>
      </trkpt>
      <trkpt lat="44.22394" lon="3.00721">
        <ele>854.1</ele>
        <time>2023-06-25T09:32:29Z</time>
      </trkpt>
      <trkpt lat="44.22388" lon="3.00724">
        <ele>854.2</ele>
        <time>2023-06-25T09:32:30Z</time>
      </trkpt>
      <trkpt lat="44.2238" lon="3.00726">
        <ele>854.4</ele>
        <time>2023-06-25T09:32:32Z</time>
      </trkpt>
      <trkpt lat="44.22375" lon="3.00727">
        <ele>854.5</ele>
        <time>2023-06-25T09:32:33Z</time>
      </trkpt>
      <trkpt lat="44.22365" lon="3.00731">
        <ele>854.9</ele>
        <time>2023-06-25T09:32:35Z</time>
      </trkpt>
      <trkpt lat="44.22359" lon="3.00733">
        <ele>855.1</ele>
        <time>2023-06-25T09:32:36Z</time>
      </trkpt>
      <trkpt lat="44.22354" lon="3.00735">
        <ele>855.3</ele>
        <time>2023-06-25T09:32:37Z</time>
      </trkpt>
      <trkpt lat="44.22348" lon="3.00737">
        <ele>855.4</ele>
        <time>2023-06-25T09:32:38Z</time>
      </trkpt>
      <trkpt lat="44.22344" lon="3.00739">
        <ele>855.6</ele>
        <time>2023-06-25T09:32:39Z</time>
      </trkpt>
      <trkpt lat="44.2234" lon="3.00741">
        <ele>855.7</ele>
        <time>2023-06-25T09:32:40Z</time>
      </trkpt>
      <trkpt lat="44.22335" lon="3.00744">
        <ele>855.7</ele>
        <time>2023-06-25T09:32:42Z</time>
      </trkpt>
      <trkpt lat="44.22331" lon="3.00746">
        <ele>855.8</ele>
        <time>2023-06-25T09:32:43Z</time>
      </trkpt>
      <trkpt lat="44.22327" lon="3.00748">
        <ele>855.7</ele>
        <time>2023-06-25T09:32:44Z</time>
      </trkpt>
      <trkpt lat="44.22324" lon="3.0075">
        <ele>855.7</ele>
        <time>2023-06-25T09:32:45Z</time>
      </trkpt>
      <trkpt lat="44.22317" lon="3.00754">
        <ele>855.6</ele>
        <time>2023-06-25T09:32:47Z</time>
      </trkpt>
      <trkpt lat="44.22307" lon="3.00758">
        <ele>855.3</ele>
        <time>2023-06-25T09:32:49Z</time>
      </trkpt>
      <trkpt lat="44.223" lon="3.0076">
        <ele>855.1</ele>
        <time>2023-06-25T09:32:50Z</time>
      </trkpt>
      <trkpt lat="44.22292" lon="3.00762">
        <ele>855.1</ele>
        <time>2023-06-25T09:32:51Z</time>
      </trkpt>
      <trkpt lat="44.22287" lon="3.00764">
        <ele>855.1</ele>
        <time>2023-06-25T09:32:52Z</time>
      </trkpt>
      <trkpt lat="44.22281" lon="3.00765">
        <ele>855.2</ele>
        <time>2023-06-25T09:32:54Z</time>
      </trkpt>
      <trkpt lat="44.22276" lon="3.00765">
        <ele>855.3</ele>
        <time>2023-06-25T09:32:55Z</time>
      </trkpt>
      <trkpt lat="44.22271" lon="3.00766">
        <ele>855.4</ele>
        <time>2023-06-25T09:32:56Z</time>
      </trkpt>
      <trkpt lat="44.22266" lon="3.00766">
        <ele>855.5</ele>
        <time>2023-06-25T09:32:57Z</time>
      </trkpt>
      <trkpt lat="44.22261" lon="3.00769">
        <ele>855.6</ele>
        <time>2023-06-25T09:32:58Z</time>
      </trkpt>
      <trkpt lat="44.22258" lon="3.00771">
        <ele>855.7</ele>
        <time>2023-06-25T09:32:59Z</time>
      </trkpt>
      <trkpt lat="44.22255" lon="3.00771">
        <ele>855.8</ele>
        <time>2023-06-25T09:33:00Z</time>
      </trkpt>
      <trkpt lat="44.22251" lon="3.00773">
        <ele>856</ele>
        <time>2023-06-25T09:33:02Z</time>
      </trkpt>
      <trkpt lat="44.22246" lon="3.00775">
        <ele>856.1</ele>
        <time>2023-06-25T09:33:03Z</time>
      </trkpt>
      <trkpt lat="44.22242" lon="3.00775">
        <ele>856.3</ele>
        <time>2023-06-25T09:33:04Z</time>
      </trkpt>
      <trkpt lat="44.22238" lon="3.00776">
        <ele>856.4</ele>
        <time>2023-06-25T09:33:05Z</time>
      </trkpt>
      <trkpt lat="44.22233" lon="3.00776">
        <ele>856.5</ele>
        <time>2023-06-25T09:33:06Z</time>
      </trkpt>
      <trkpt lat="44.22229" lon="3.00776">
        <ele>856.7</ele>
        <time>2023-06-25T09:33:07Z</time>
      </trkpt>
      <trkpt lat="44.22224" lon="3.00776">
        <ele>856.8</ele>
        <time>2023-06-25T09:33:09Z</time>
      </trkpt>
      <trkpt lat="44.22219" lon="3.00777">
        <ele>856.9</ele>
        <time>2023-06-25T09:33:10Z</time>
      </trkpt>
      <trkpt lat="44.22214" lon="3.00778">
        <ele>857.1</ele>
        <time>2023-06-25T09:33:12Z</time>
      </trkpt>
      <trkpt lat="44.22208" lon="3.0078">
        <ele>857.2</ele>
        <time>2023-06-25T09:33:13Z</time>
      </trkpt>
      <trkpt lat="44.22203" lon="3.00781">
        <ele>857.3</ele>
        <time>2023-06-25T09:33:14Z</time>
      </trkpt>
      <trkpt lat="44.22197" lon="3.00783">
        <ele>857.5</ele>
        <time>2023-06-25T09:33:16Z</time>
      </trkpt>
      <trkpt lat="44.22193" lon="3.00784">
        <ele>857.6</ele>
        <time>2023-06-25T09:33:17Z</time>
      </trkpt>
      <trkpt lat="44.22188" lon="3.00787">
        <ele>857.9</ele>
        <time>2023-06-25T09:33:18Z</time>
      </trkpt>
      <trkpt lat="44.22184" lon="3.0079">
        <ele>858.1</ele>
        <time>2023-06-25T09:33:19Z</time>
      </trkpt>
      <trkpt lat="44.22179" lon="3.00793">
        <ele>858.4</ele>
        <time>2023-06-25T09:33:20Z</time>
      </trkpt>
      <trkpt lat="44.22175" lon="3.00796">
        <ele>858.6</ele>
        <time>2023-06-25T09:33:21Z</time>
      </trkpt>
      <trkpt lat="44.22172" lon="3.00799">
        <ele>858.8</ele>
        <time>2023-06-25T09:33:22Z</time>
      </trkpt>
      <trkpt lat="44.22164" lon="3.00803">
        <ele>859.2</ele>
        <time>2023-06-25T09:33:24Z</time>
      </trkpt>
      <trkpt lat="44.22159" lon="3.00806">
        <ele>859.4</ele>
        <time>2023-06-25T09:33:25Z</time>
      </trkpt>
      <trkpt lat="44.22155" lon="3.00808">
        <ele>859.6</ele>
        <time>2023-06-25T09:33:26Z</time>
      </trkpt>
      <trkpt lat="44.22151" lon="3.0081">
        <ele>859.8</ele>
        <time>2023-06-25T09:33:27Z</time>
      </trkpt>
      <trkpt lat="44.22144" lon="3.00814">
        <ele>860.1</ele>
        <time>2023-06-25T09:33:29Z</time>
      </trkpt>
      <trkpt lat="44.2214" lon="3.00817">
        <ele>860.3</ele>
        <time>2023-06-25T09:33:30Z</time>
      </trkpt>
      <trkpt lat="44.22135" lon="3.0082">
        <ele>860.5</ele>
        <time>2023-06-25T09:33:31Z</time>
      </trkpt>
      <trkpt lat="44.22128" lon="3.00822">
        <ele>860.7</ele>
        <time>2023-06-25T09:33:33Z</time>
      </trkpt>
      <trkpt lat="44.22124" lon="3.00822">
        <ele>860.9</ele>
        <time>2023-06-25T09:33:34Z</time>
      </trkpt>
      <trkpt lat="44.2212" lon="3.00824">
        <ele>861</ele>
        <time>2023-06-25T09:33:35Z</time>
      </trkpt>
      <trkpt lat="44.22112" lon="3.00825">
        <ele>861.3</ele>
        <time>2023-06-25T09:33:37Z</time>
      </trkpt>
      <trkpt lat="44.22107" lon="3.00826">
        <ele>861.5</ele>
        <time>2023-06-25T09:33:38Z</time>
      </trkpt>
      <trkpt lat="44.22102" lon="3.00827">
        <ele>861.8</ele>
        <time>2023-06-25T09:33:39Z</time>
      </trkpt>
      <trkpt lat="44.22095" lon="3.0083">
        <ele>862.1</ele>
        <time>2023-06-25T09:33:41Z</time>
      </trkpt>
      <trkpt lat="44.22091" lon="3.00831">
        <ele>862.2</ele>
        <time>2023-06-25T09:33:42Z</time>
      </trkpt>
      <trkpt lat="44.22087" lon="3.00832">
        <ele>862.3</ele>
        <time>2023-06-25T09:33:43Z</time>
      </trkpt>
      <trkpt lat="44.22083" lon="3.00833">
        <ele>862.4</ele>
        <time>2023-06-25T09:33:44Z</time>
      </trkpt>
      <trkpt lat="44.2208" lon="3.00834">
        <ele>862.5</ele>
        <time>2023-06-25T09:33:45Z</time>
      </trkpt>
      <trkpt lat="44.22074" lon="3.00836">
        <ele>862.6</ele>
        <time>2023-06-25T09:33:47Z</time>
      </trkpt>
      <trkpt lat="44.22069" lon="3.00838">
        <ele>862.7</ele>
        <time>2023-06-25T09:33:48Z</time>
      </trkpt>
      <trkpt lat="44.22064" lon="3.0084">
        <ele>862.8</ele>
        <time>2023-06-25T09:33:50Z</time>
      </trkpt>
      <trkpt lat="44.22058" lon="3.00843">
        <ele>863</ele>
        <time>2023-06-25T09:33:51Z</time>
      </trkpt>
      <trkpt lat="44.22053" lon="3.00845">
        <ele>863.1</ele>
        <time>2023-06-25T09:33:52Z</time>
      </trkpt>
      <trkpt lat="44.22049" lon="3.00847">
        <ele>863.1</ele>
        <time>2023-06-25T09:33:53Z</time>
      </trkpt>
      <trkpt lat="44.22046" lon="3.00849">
        <ele>863.2</ele>
        <time>2023-06-25T09:33:54Z</time>
      </trkpt>
      <trkpt lat="44.22039" lon="3.00853">
        <ele>863.3</ele>
        <time>2023-06-25T09:33:56Z</time>
      </trkpt>
      <trkpt lat="44.22032" lon="3.00853">
        <ele>863.4</ele>
        <time>2023-06-25T09:33:57Z</time>
      </trkpt>
      <trkpt lat="44.22027" lon="3.00855">
        <ele>863.4</ele>
        <time>2023-06-25T09:33:58Z</time>
      </trkpt>
      <trkpt lat="44.22022" lon="3.00856">
        <ele>863.5</ele>
        <time>2023-06-25T09:33:59Z</time>
      </trkpt>
      <trkpt lat="44.22017" lon="3.00859">
        <ele>863.5</ele>
        <time>2023-06-25T09:34:00Z</time>
      </trkpt>
      <trkpt lat="44.22014" lon="3.0086">
        <ele>863.6</ele>
        <time>2023-06-25T09:34:01Z</time>
      </trkpt>
      <trkpt lat="44.22006" lon="3.00863">
        <ele>863.6</ele>
        <time>2023-06-25T09:34:03Z</time>
      </trkpt>
      <trkpt lat="44.21999" lon="3.00866">
        <ele>863.7</ele>
        <time>2023-06-25T09:34:04Z</time>
      </trkpt>
      <trkpt lat="44.21994" lon="3.00867">
        <ele>863.7</ele>
        <time>2023-06-25T09:34:05Z</time>
      </trkpt>
      <trkpt lat="44.21989" lon="3.00869">
        <ele>863.8</ele>
        <time>2023-06-25T09:34:06Z</time>
      </trkpt>
      <trkpt lat="44.21984" lon="3.0087">
        <ele>863.8</ele>
        <time>2023-06-25T09:34:07Z</time>
      </trkpt>
      <trkpt lat="44.21979" lon="3.00872">
        <ele>863.9</ele>
        <time>2023-06-25T09:34:08Z</time>
      </trkpt>
      <trkpt lat="44.21974" lon="3.00873">
        <ele>863.9</ele>
        <time>2023-06-25T09:34:09Z</time>
      </trkpt>
      <trkpt lat="44.2197" lon="3.00875">
        <ele>863.9</ele>
        <time>2023-06-25T09:34:10Z</time>
      </trkpt>
      <trkpt lat="44.21964" lon="3.00875">
        <ele>864</ele>
        <time>2023-06-25T09:34:11Z</time>
      </trkpt>
      <trkpt lat="44.21959" lon="3.00875">
        <ele>864</ele>
        <time>2023-06-25T09:34:12Z</time>
      </trkpt>
      <trkpt lat="44.21953" lon="3.00876">
        <ele>864</ele>
        <time>2023-06-25T09:34:13Z</time>
      </trkpt>
      <trkpt lat="44.21948" lon="3.00876">
        <ele>864</ele>
        <time>2023-06-25T09:34:14Z</time>
      </trkpt>
      <trkpt lat="44.21944" lon="3.00878">
        <ele>863.9</ele>
        <time>2023-06-25T09:34:15Z</time>
      </trkpt>
      <trkpt lat="44.2194" lon="3.0088">
        <ele>863.9</ele>
        <time>2023-06-25T09:34:16Z</time>
      </trkpt>
      <trkpt lat="44.21935" lon="3.00881">
        <ele>863.9</ele>
        <time>2023-06-25T09:34:17Z</time>
      </trkpt>
      <trkpt lat="44.2193" lon="3.00883">
        <ele>863.9</ele>
        <time>2023-06-25T09:34:18Z</time>
      </trkpt>
      <trkpt lat="44.21925" lon="3.00884">
        <ele>863.9</ele>
        <time>2023-06-25T09:34:19Z</time>
      </trkpt>
      <trkpt lat="44.2192" lon="3.00886">
        <ele>863.9</ele>
        <time>2023-06-25T09:34:20Z</time>
      </trkpt>
      <trkpt lat="44.21916" lon="3.00888">
        <ele>863.9</ele>
        <time>2023-06-25T09:34:21Z</time>
      </trkpt>
      <trkpt lat="44.21911" lon="3.0089">
        <ele>863.9</ele>
        <time>2023-06-25T09:34:22Z</time>
      </trkpt>
      <trkpt lat="44.21907" lon="3.00891">
        <ele>863.9</ele>
        <time>2023-06-25T09:34:23Z</time>
      </trkpt>
      <trkpt lat="44.21902" lon="3.00892">
        <ele>863.9</ele>
        <time>2023-06-25T09:34:24Z</time>
      </trkpt>
      <trkpt lat="44.21897" lon="3.00894">
        <ele>863.9</ele>
        <time>2023-06-25T09:34:25Z</time>
      </trkpt>
      <trkpt lat="44.21893" lon="3.00896">
        <ele>863.8</ele>
        <time>2023-06-25T09:34:26Z</time>
      </trkpt>
      <trkpt lat="44.21888" lon="3.00899">
        <ele>863.7</ele>
        <time>2023-06-25T09:34:27Z</time>
      </trkpt>
      <trkpt lat="44.21883" lon="3.00901">
        <ele>863.6</ele>
        <time>2023-06-25T09:34:28Z</time>
      </trkpt>
      <trkpt lat="44.21878" lon="3.00904">
        <ele>863.4</ele>
        <time>2023-06-25T09:34:29Z</time>
      </trkpt>
      <trkpt lat="44.21873" lon="3.00907">
        <ele>863.3</ele>
        <time>2023-06-25T09:34:30Z</time>
      </trkpt>
      <trkpt lat="44.21868" lon="3.00911">
        <ele>863.1</ele>
        <time>2023-06-25T09:34:31Z</time>
      </trkpt>
      <trkpt lat="44.21864" lon="3.00915">
        <ele>862.9</ele>
        <time>2023-06-25T09:34:32Z</time>
      </trkpt>
      <trkpt lat="44.21859" lon="3.00919">
        <ele>862.7</ele>
        <time>2023-06-25T09:34:33Z</time>
      </trkpt>
      <trkpt lat="44.21854" lon="3.00921">
        <ele>862.5</ele>
        <time>2023-06-25T09:34:34Z</time>
      </trkpt>
      <trkpt lat="44.21849" lon="3.00924">
        <ele>862.3</ele>
        <time>2023-06-25T09:34:35Z</time>
      </trkpt>
      <trkpt lat="44.21845" lon="3.00926">
        <ele>862.1</ele>
        <time>2023-06-25T09:34:36Z</time>
      </trkpt>
      <trkpt lat="44.2184" lon="3.00928">
        <ele>861.9</ele>
        <time>2023-06-25T09:34:37Z</time>
      </trkpt>
      <trkpt lat="44.21834" lon="3.0093">
        <ele>861.7</ele>
        <time>2023-06-25T09:34:38Z</time>
      </trkpt>
      <trkpt lat="44.21829" lon="3.00932">
        <ele>861.5</ele>
        <time>2023-06-25T09:34:39Z</time>
      </trkpt>
      <trkpt lat="44.21823" lon="3.00935">
        <ele>861.4</ele>
        <time>2023-06-25T09:34:40Z</time>
      </trkpt>
      <trkpt lat="44.21818" lon="3.00939">
        <ele>861.2</ele>
        <time>2023-06-25T09:34:41Z</time>
      </trkpt>
      <trkpt lat="44.21813" lon="3.00942">
        <ele>861</ele>
        <time>2023-06-25T09:34:42Z</time>
      </trkpt>
      <trkpt lat="44.21807" lon="3.00945">
        <ele>860.9</ele>
        <time>2023-06-25T09:34:43Z</time>
      </trkpt>
      <trkpt lat="44.21802" lon="3.00947">
        <ele>860.7</ele>
        <time>2023-06-25T09:34:44Z</time>
      </trkpt>
      <trkpt lat="44.21797" lon="3.00949">
        <ele>860.6</ele>
        <time>2023-06-25T09:34:45Z</time>
      </trkpt>
      <trkpt lat="44.21791" lon="3.00952">
        <ele>860.4</ele>
        <time>2023-06-25T09:34:46Z</time>
      </trkpt>
      <trkpt lat="44.21786" lon="3.00956">
        <ele>860.2</ele>
        <time>2023-06-25T09:34:47Z</time>
      </trkpt>
      <trkpt lat="44.21781" lon="3.00959">
        <ele>859.9</ele>
        <time>2023-06-25T09:34:48Z</time>
      </trkpt>
      <trkpt lat="44.21775" lon="3.00962">
        <ele>859.5</ele>
        <time>2023-06-25T09:34:49Z</time>
      </trkpt>
      <trkpt lat="44.21769" lon="3.00965">
        <ele>859</ele>
        <time>2023-06-25T09:34:50Z</time>
      </trkpt>
      <trkpt lat="44.21762" lon="3.00968">
        <ele>858.2</ele>
        <time>2023-06-25T09:34:51Z</time>
      </trkpt>
      <trkpt lat="44.21756" lon="3.00972">
        <ele>857.4</ele>
        <time>2023-06-25T09:34:52Z</time>
      </trkpt>
      <trkpt lat="44.2175" lon="3.00976">
        <ele>857.1</ele>
        <time>2023-06-25T09:34:53Z</time>
      </trkpt>
      <trkpt lat="44.21743" lon="3.00981">
        <ele>856.8</ele>
        <time>2023-06-25T09:34:54Z</time>
      </trkpt>
      <trkpt lat="44.21737" lon="3.00985">
        <ele>856.4</ele>
        <time>2023-06-25T09:34:55Z</time>
      </trkpt>
      <trkpt lat="44.21731" lon="3.0099">
        <ele>856.1</ele>
        <time>2023-06-25T09:34:56Z</time>
      </trkpt>
      <trkpt lat="44.21725" lon="3.00995">
        <ele>855.9</ele>
        <time>2023-06-25T09:34:57Z</time>
      </trkpt>
      <trkpt lat="44.21719" lon="3.01">
        <ele>855.7</ele>
        <time>2023-06-25T09:34:58Z</time>
      </trkpt>
      <trkpt lat="44.21713" lon="3.01005">
        <ele>855.7</ele>
        <time>2023-06-25T09:34:59Z</time>
      </trkpt>
      <trkpt lat="44.21707" lon="3.0101">
        <ele>855.6</ele>
        <time>2023-06-25T09:35:00Z</time>
      </trkpt>
      <trkpt lat="44.21701" lon="3.01015">
        <ele>855.6</ele>
        <time>2023-06-25T09:35:01Z</time>
      </trkpt>
      <trkpt lat="44.21695" lon="3.0102">
        <ele>855.5</ele>
        <time>2023-06-25T09:35:02Z</time>
      </trkpt>
      <trkpt lat="44.2169" lon="3.01024">
        <ele>855.4</ele>
        <time>2023-06-25T09:35:03Z</time>
      </trkpt>
      <trkpt lat="44.21685" lon="3.01029">
        <ele>855.3</ele>
        <time>2023-06-25T09:35:04Z</time>
      </trkpt>
      <trkpt lat="44.2168" lon="3.01033">
        <ele>855.3</ele>
        <time>2023-06-25T09:35:05Z</time>
      </trkpt>
      <trkpt lat="44.21675" lon="3.01036">
        <ele>855.2</ele>
        <time>2023-06-25T09:35:06Z</time>
      </trkpt>
      <trkpt lat="44.2167" lon="3.0104">
        <ele>855.1</ele>
        <time>2023-06-25T09:35:07Z</time>
      </trkpt>
      <trkpt lat="44.21666" lon="3.01043">
        <ele>855</ele>
        <time>2023-06-25T09:35:08Z</time>
      </trkpt>
      <trkpt lat="44.21662" lon="3.01046">
        <ele>854.9</ele>
        <time>2023-06-25T09:35:09Z</time>
      </trkpt>
      <trkpt lat="44.21658" lon="3.01049">
        <ele>854.8</ele>
        <time>2023-06-25T09:35:10Z</time>
      </trkpt>
      <trkpt lat="44.21654" lon="3.01052">
        <ele>854.8</ele>
        <time>2023-06-25T09:35:11Z</time>
      </trkpt>
      <trkpt lat="44.21651" lon="3.01054">
        <ele>854.7</ele>
        <time>2023-06-25T09:35:12Z</time>
      </trkpt>
      <trkpt lat="44.21647" lon="3.01056">
        <ele>854.6</ele>
        <time>2023-06-25T09:35:13Z</time>
      </trkpt>
      <trkpt lat="44.21644" lon="3.01058">
        <ele>854.6</ele>
        <time>2023-06-25T09:35:14Z</time>
      </trkpt>
      <trkpt lat="44.2164" lon="3.01061">
        <ele>854.5</ele>
        <time>2023-06-25T09:35:15Z</time>
      </trkpt>
      <trkpt lat="44.21635" lon="3.01064">
        <ele>854.4</ele>
        <time>2023-06-25T09:35:16Z</time>
      </trkpt>
      <trkpt lat="44.2163" lon="3.01067">
        <ele>854.3</ele>
        <time>2023-06-25T09:35:17Z</time>
      </trkpt>
      <trkpt lat="44.21625" lon="3.01069">
        <ele>854.2</ele>
        <time>2023-06-25T09:35:18Z</time>
      </trkpt>
      <trkpt lat="44.21619" lon="3.0107">
        <ele>854.1</ele>
        <time>2023-06-25T09:35:19Z</time>
      </trkpt>
      <trkpt lat="44.21614" lon="3.01071">
        <ele>853.9</ele>
        <time>2023-06-25T09:35:20Z</time>
      </trkpt>
      <trkpt lat="44.21608" lon="3.01071">
        <ele>853.8</ele>
        <time>2023-06-25T09:35:21Z</time>
      </trkpt>
      <trkpt lat="44.21603" lon="3.01072">
        <ele>853.6</ele>
        <time>2023-06-25T09:35:22Z</time>
      </trkpt>
      <trkpt lat="44.21597" lon="3.01072">
        <ele>853.5</ele>
        <time>2023-06-25T09:35:23Z</time>
      </trkpt>
      <trkpt lat="44.21592" lon="3.01072">
        <ele>853.4</ele>
        <time>2023-06-25T09:35:24Z</time>
      </trkpt>
      <trkpt lat="44.21586" lon="3.01072">
        <ele>853.4</ele>
        <time>2023-06-25T09:35:25Z</time>
      </trkpt>
      <trkpt lat="44.21581" lon="3.01072">
        <ele>853.3</ele>
        <time>2023-06-25T09:35:26Z</time>
      </trkpt>
      <trkpt lat="44.21575" lon="3.01072">
        <ele>853.2</ele>
        <time>2023-06-25T09:35:27Z</time>
      </trkpt>
      <trkpt lat="44.2157" lon="3.01071">
        <ele>853.2</ele>
        <time>2023-06-25T09:35:28Z</time>
      </trkpt>
      <trkpt lat="44.21564" lon="3.01071">
        <ele>853.2</ele>
        <time>2023-06-25T09:35:29Z</time>
      </trkpt>
      <trkpt lat="44.21558" lon="3.01071">
        <ele>853.1</ele>
        <time>2023-06-25T09:35:30Z</time>
      </trkpt>
      <trkpt lat="44.21553" lon="3.01071">
        <ele>853</ele>
        <time>2023-06-25T09:35:31Z</time>
      </trkpt>
      <trkpt lat="44.21548" lon="3.0107">
        <ele>852.9</ele>
        <time>2023-06-25T09:35:32Z</time>
      </trkpt>
      <trkpt lat="44.21544" lon="3.01069">
        <ele>852.8</ele>
        <time>2023-06-25T09:35:33Z</time>
      </trkpt>
      <trkpt lat="44.21542" lon="3.01065">
        <ele>852.6</ele>
        <time>2023-06-25T09:35:34Z</time>
      </trkpt>
      <trkpt lat="44.21542" lon="3.0106">
        <ele>852.7</ele>
        <time>2023-06-25T09:35:35Z</time>
      </trkpt>
      <trkpt lat="44.21541" lon="3.01058">
        <ele>852.7</ele>
        <time>2023-06-25T09:35:36Z</time>
      </trkpt>
      <trkpt lat="44.21542" lon="3.01054">
        <ele>852.8</ele>
        <time>2023-06-25T09:35:37Z</time>
      </trkpt>
      <trkpt lat="44.21544" lon="3.01051">
        <ele>852.8</ele>
        <time>2023-06-25T09:35:38Z</time>
      </trkpt>
      <trkpt lat="44.21546" lon="3.01048">
        <ele>852.9</ele>
        <time>2023-06-25T09:35:39Z</time>
      </trkpt>
      <trkpt lat="44.21549" lon="3.01043">
        <ele>853</ele>
        <time>2023-06-25T09:35:41Z</time>
      </trkpt>
      <trkpt lat="44.21553" lon="3.01037">
        <ele>853.1</ele>
        <time>2023-06-25T09:35:42Z</time>
      </trkpt>
      <trkpt lat="44.21557" lon="3.01031">
        <ele>853.2</ele>
        <time>2023-06-25T09:35:43Z</time>
      </trkpt>
      <trkpt lat="44.2156" lon="3.01026">
        <ele>853.3</ele>
        <time>2023-06-25T09:35:44Z</time>
      </trkpt>
      <trkpt lat="44.21563" lon="3.0102">
        <ele>853.3</ele>
        <time>2023-06-25T09:35:45Z</time>
      </trkpt>
      <trkpt lat="44.21566" lon="3.01014">
        <ele>853.4</ele>
        <time>2023-06-25T09:35:46Z</time>
      </trkpt>
      <trkpt lat="44.2157" lon="3.01009">
        <ele>853.4</ele>
        <time>2023-06-25T09:35:47Z</time>
      </trkpt>
      <trkpt lat="44.21573" lon="3.01003">
        <ele>853.3</ele>
        <time>2023-06-25T09:35:48Z</time>
      </trkpt>
      <trkpt lat="44.21576" lon="3.00996">
        <ele>853.2</ele>
        <time>2023-06-25T09:35:49Z</time>
      </trkpt>
      <trkpt lat="44.21579" lon="3.00989">
        <ele>853.1</ele>
        <time>2023-06-25T09:35:50Z</time>
      </trkpt>
      <trkpt lat="44.21582" lon="3.00982">
        <ele>853</ele>
        <time>2023-06-25T09:35:51Z</time>
      </trkpt>
      <trkpt lat="44.21585" lon="3.00975">
        <ele>852.9</ele>
        <time>2023-06-25T09:35:52Z</time>
      </trkpt>
      <trkpt lat="44.21588" lon="3.00968">
        <ele>852.8</ele>
        <time>2023-06-25T09:35:53Z</time>
      </trkpt>
      <trkpt lat="44.21591" lon="3.0096">
        <ele>852.7</ele>
        <time>2023-06-25T09:35:54Z</time>
      </trkpt>
      <trkpt lat="44.21595" lon="3.00952">
        <ele>852.6</ele>
        <time>2023-06-25T09:35:55Z</time>
      </trkpt>
      <trkpt lat="44.21597" lon="3.00944">
        <ele>852.4</ele>
        <time>2023-06-25T09:35:56Z</time>
      </trkpt>
      <trkpt lat="44.216" lon="3.00936">
        <ele>852.3</ele>
        <time>2023-06-25T09:35:57Z</time>
      </trkpt>
      <trkpt lat="44.21603" lon="3.00928">
        <ele>852.2</ele>
        <time>2023-06-25T09:35:58Z</time>
      </trkpt>
      <trkpt lat="44.21605" lon="3.0092">
        <ele>852.1</ele>
        <time>2023-06-25T09:35:59Z</time>
      </trkpt>
      <trkpt lat="44.21608" lon="3.00912">
        <ele>852</ele>
        <time>2023-06-25T09:36:00Z</time>
      </trkpt>
      <trkpt lat="44.21611" lon="3.00904">
        <ele>851.8</ele>
        <time>2023-06-25T09:36:01Z</time>
      </trkpt>
      <trkpt lat="44.21614" lon="3.00896">
        <ele>851.7</ele>
        <time>2023-06-25T09:36:02Z</time>
      </trkpt>
      <trkpt lat="44.21617" lon="3.00888">
        <ele>851.5</ele>
        <time>2023-06-25T09:36:03Z</time>
      </trkpt>
      <trkpt lat="44.2162" lon="3.0088">
        <ele>851.4</ele>
        <time>2023-06-25T09:36:04Z</time>
      </trkpt>
      <trkpt lat="44.21623" lon="3.00871">
        <ele>851.3</ele>
        <time>2023-06-25T09:36:05Z</time>
      </trkpt>
      <trkpt lat="44.21626" lon="3.00863">
        <ele>851.3</ele>
        <time>2023-06-25T09:36:06Z</time>
      </trkpt>
      <trkpt lat="44.21629" lon="3.00855">
        <ele>851.2</ele>
        <time>2023-06-25T09:36:07Z</time>
      </trkpt>
      <trkpt lat="44.21632" lon="3.00846">
        <ele>851.2</ele>
        <time>2023-06-25T09:36:08Z</time>
      </trkpt>
      <trkpt lat="44.21634" lon="3.00837">
        <ele>851.2</ele>
        <time>2023-06-25T09:36:09Z</time>
      </trkpt>
      <trkpt lat="44.21637" lon="3.00829">
        <ele>851.2</ele>
        <time>2023-06-25T09:36:10Z</time>
      </trkpt>
      <trkpt lat="44.2164" lon="3.00821">
        <ele>851.1</ele>
        <time>2023-06-25T09:36:11Z</time>
      </trkpt>
      <trkpt lat="44.21642" lon="3.00813">
        <ele>851.1</ele>
        <time>2023-06-25T09:36:12Z</time>
      </trkpt>
      <trkpt lat="44.21645" lon="3.00805">
        <ele>851.1</ele>
        <time>2023-06-25T09:36:13Z</time>
      </trkpt>
      <trkpt lat="44.21647" lon="3.00797">
        <ele>851.2</ele>
        <time>2023-06-25T09:36:14Z</time>
      </trkpt>
      <trkpt lat="44.2165" lon="3.0079">
        <ele>851.2</ele>
        <time>2023-06-25T09:36:15Z</time>
      </trkpt>
      <trkpt lat="44.21652" lon="3.00782">
        <ele>851.2</ele>
        <time>2023-06-25T09:36:16Z</time>
      </trkpt>
      <trkpt lat="44.21655" lon="3.00775">
        <ele>851.2</ele>
        <time>2023-06-25T09:36:17Z</time>
      </trkpt>
      <trkpt lat="44.21658" lon="3.00767">
        <ele>851.2</ele>
        <time>2023-06-25T09:36:18Z</time>
      </trkpt>
      <trkpt lat="44.2166" lon="3.0076">
        <ele>851.2</ele>
        <time>2023-06-25T09:36:19Z</time>
      </trkpt>
      <trkpt lat="44.21663" lon="3.00752">
        <ele>851.2</ele>
        <time>2023-06-25T09:36:20Z</time>
      </trkpt>
      <trkpt lat="44.21666" lon="3.00745">
        <ele>851.2</ele>
        <time>2023-06-25T09:36:21Z</time>
      </trkpt>
      <trkpt lat="44.21668" lon="3.00737">
        <ele>851.2</ele>
        <time>2023-06-25T09:36:22Z</time>
      </trkpt>
      <trkpt lat="44.2167" lon="3.00728">
        <ele>851.3</ele>
        <time>2023-06-25T09:36:23Z</time>
      </trkpt>
      <trkpt lat="44.21673" lon="3.0072">
        <ele>851.3</ele>
        <time>2023-06-25T09:36:24Z</time>
      </trkpt>
      <trkpt lat="44.21675" lon="3.00712">
        <ele>851.3</ele>
        <time>2023-06-25T09:36:25Z</time>
      </trkpt>
      <trkpt lat="44.21677" lon="3.00704">
        <ele>851.4</ele>
        <time>2023-06-25T09:36:26Z</time>
      </trkpt>
      <trkpt lat="44.2168" lon="3.00695">
        <ele>851.5</ele>
        <time>2023-06-25T09:36:27Z</time>
      </trkpt>
      <trkpt lat="44.21682" lon="3.00687">
        <ele>851.6</ele>
        <time>2023-06-25T09:36:28Z</time>
      </trkpt>
      <trkpt lat="44.21685" lon="3.00679">
        <ele>851.8</ele>
        <time>2023-06-25T09:36:29Z</time>
      </trkpt>
      <trkpt lat="44.21688" lon="3.00672">
        <ele>852</ele>
        <time>2023-06-25T09:36:30Z</time>
      </trkpt>
      <trkpt lat="44.2169" lon="3.00664">
        <ele>852.2</ele>
        <time>2023-06-25T09:36:31Z</time>
      </trkpt>
      <trkpt lat="44.21692" lon="3.00657">
        <ele>852.4</ele>
        <time>2023-06-25T09:36:32Z</time>
      </trkpt>
      <trkpt lat="44.21694" lon="3.00649">
        <ele>852.6</ele>
        <time>2023-06-25T09:36:33Z</time>
      </trkpt>
      <trkpt lat="44.21697" lon="3.00641">
        <ele>852.8</ele>
        <time>2023-06-25T09:36:34Z</time>
      </trkpt>
      <trkpt lat="44.21699" lon="3.00634">
        <ele>853.1</ele>
        <time>2023-06-25T09:36:35Z</time>
      </trkpt>
      <trkpt lat="44.21701" lon="3.00627">
        <ele>853.3</ele>
        <time>2023-06-25T09:36:36Z</time>
      </trkpt>
      <trkpt lat="44.21703" lon="3.0062">
        <ele>853.4</ele>
        <time>2023-06-25T09:36:37Z</time>
      </trkpt>
      <trkpt lat="44.21706" lon="3.00614">
        <ele>853.6</ele>
        <time>2023-06-25T09:36:38Z</time>
      </trkpt>
      <trkpt lat="44.21708" lon="3.00608">
        <ele>853.8</ele>
        <time>2023-06-25T09:36:39Z</time>
      </trkpt>
      <trkpt lat="44.2171" lon="3.00601">
        <ele>853.9</ele>
        <time>2023-06-25T09:36:40Z</time>
      </trkpt>
      <trkpt lat="44.21713" lon="3.00595">
        <ele>854.1</ele>
        <time>2023-06-25T09:36:41Z</time>
      </trkpt>
      <trkpt lat="44.21715" lon="3.00588">
        <ele>854.2</ele>
        <time>2023-06-25T09:36:42Z</time>
      </trkpt>
      <trkpt lat="44.21717" lon="3.00581">
        <ele>854.4</ele>
        <time>2023-06-25T09:36:43Z</time>
      </trkpt>
      <trkpt lat="44.21719" lon="3.00575">
        <ele>854.6</ele>
        <time>2023-06-25T09:36:44Z</time>
      </trkpt>
      <trkpt lat="44.21722" lon="3.00568">
        <ele>854.8</ele>
        <time>2023-06-25T09:36:45Z</time>
      </trkpt>
      <trkpt lat="44.21724" lon="3.00561">
        <ele>854.9</ele>
        <time>2023-06-25T09:36:46Z</time>
      </trkpt>
      <trkpt lat="44.21727" lon="3.00554">
        <ele>855.1</ele>
        <time>2023-06-25T09:36:47Z</time>
      </trkpt>
      <trkpt lat="44.21729" lon="3.00547">
        <ele>855.3</ele>
        <time>2023-06-25T09:36:48Z</time>
      </trkpt>
      <trkpt lat="44.21731" lon="3.0054">
        <ele>855.5</ele>
        <time>2023-06-25T09:36:49Z</time>
      </trkpt>
      <trkpt lat="44.21734" lon="3.00533">
        <ele>855.7</ele>
        <time>2023-06-25T09:36:50Z</time>
      </trkpt>
      <trkpt lat="44.21736" lon="3.00527">
        <ele>855.9</ele>
        <time>2023-06-25T09:36:51Z</time>
      </trkpt>
      <trkpt lat="44.21738" lon="3.0052">
        <ele>856</ele>
        <time>2023-06-25T09:36:52Z</time>
      </trkpt>
      <trkpt lat="44.21741" lon="3.00513">
        <ele>856.2</ele>
        <time>2023-06-25T09:36:53Z</time>
      </trkpt>
      <trkpt lat="44.21743" lon="3.00507">
        <ele>856.4</ele>
        <time>2023-06-25T09:36:54Z</time>
      </trkpt>
      <trkpt lat="44.21745" lon="3.005">
        <ele>856.6</ele>
        <time>2023-06-25T09:36:55Z</time>
      </trkpt>
      <trkpt lat="44.21748" lon="3.00494">
        <ele>856.7</ele>
        <time>2023-06-25T09:36:56Z</time>
      </trkpt>
      <trkpt lat="44.2175" lon="3.00487">
        <ele>856.9</ele>
        <time>2023-06-25T09:36:57Z</time>
      </trkpt>
      <trkpt lat="44.21753" lon="3.0048">
        <ele>857</ele>
        <time>2023-06-25T09:36:58Z</time>
      </trkpt>
      <trkpt lat="44.21755" lon="3.00474">
        <ele>857.2</ele>
        <time>2023-06-25T09:36:59Z</time>
      </trkpt>
      <trkpt lat="44.21757" lon="3.00466">
        <ele>857.3</ele>
        <time>2023-06-25T09:37:00Z</time>
      </trkpt>
      <trkpt lat="44.2176" lon="3.0046">
        <ele>857.5</ele>
        <time>2023-06-25T09:37:01Z</time>
      </trkpt>
      <trkpt lat="44.21762" lon="3.00453">
        <ele>857.6</ele>
        <time>2023-06-25T09:37:02Z</time>
      </trkpt>
      <trkpt lat="44.21764" lon="3.00447">
        <ele>857.8</ele>
        <time>2023-06-25T09:37:03Z</time>
      </trkpt>
      <trkpt lat="44.21766" lon="3.0044">
        <ele>857.9</ele>
        <time>2023-06-25T09:37:04Z</time>
      </trkpt>
      <trkpt lat="44.21769" lon="3.00433">
        <ele>858.1</ele>
        <time>2023-06-25T09:37:05Z</time>
      </trkpt>
      <trkpt lat="44.21771" lon="3.00426">
        <ele>858.2</ele>
        <time>2023-06-25T09:37:06Z</time>
      </trkpt>
      <trkpt lat="44.21773" lon="3.00418">
        <ele>858.4</ele>
        <time>2023-06-25T09:37:07Z</time>
      </trkpt>
      <trkpt lat="44.21775" lon="3.00411">
        <ele>858.5</ele>
        <time>2023-06-25T09:37:08Z</time>
      </trkpt>
      <trkpt lat="44.21778" lon="3.00403">
        <ele>858.7</ele>
        <time>2023-06-25T09:37:09Z</time>
      </trkpt>
      <trkpt lat="44.2178" lon="3.00396">
        <ele>858.8</ele>
        <time>2023-06-25T09:37:10Z</time>
      </trkpt>
      <trkpt lat="44.21782" lon="3.00389">
        <ele>859</ele>
        <time>2023-06-25T09:37:11Z</time>
      </trkpt>
      <trkpt lat="44.21785" lon="3.00382">
        <ele>859.1</ele>
        <time>2023-06-25T09:37:12Z</time>
      </trkpt>
      <trkpt lat="44.21787" lon="3.00375">
        <ele>859.3</ele>
        <time>2023-06-25T09:37:13Z</time>
      </trkpt>
      <trkpt lat="44.21789" lon="3.00367">
        <ele>859.4</ele>
        <time>2023-06-25T09:37:14Z</time>
      </trkpt>
      <trkpt lat="44.21791" lon="3.0036">
        <ele>859.6</ele>
        <time>2023-06-25T09:37:15Z</time>
      </trkpt>
      <trkpt lat="44.21794" lon="3.00353">
        <ele>859.7</ele>
        <time>2023-06-25T09:37:16Z</time>
      </trkpt>
      <trkpt lat="44.21796" lon="3.00346">
        <ele>859.9</ele>
        <time>2023-06-25T09:37:17Z</time>
      </trkpt>
      <trkpt lat="44.21798" lon="3.00339">
        <ele>860</ele>
        <time>2023-06-25T09:37:18Z</time>
      </trkpt>
      <trkpt lat="44.218" lon="3.00332">
        <ele>860.1</ele>
        <time>2023-06-25T09:37:19Z</time>
      </trkpt>
      <trkpt lat="44.21803" lon="3.00325">
        <ele>860.2</ele>
        <time>2023-06-25T09:37:20Z</time>
      </trkpt>
      <trkpt lat="44.21805" lon="3.00318">
        <ele>860.4</ele>
        <time>2023-06-25T09:37:21Z</time>
      </trkpt>
      <trkpt lat="44.21807" lon="3.00312">
        <ele>860.5</ele>
        <time>2023-06-25T09:37:22Z</time>
      </trkpt>
      <trkpt lat="44.21809" lon="3.00305">
        <ele>860.6</ele>
        <time>2023-06-25T09:37:23Z</time>
      </trkpt>
      <trkpt lat="44.21811" lon="3.00298">
        <ele>860.6</ele>
        <time>2023-06-25T09:37:24Z</time>
      </trkpt>
      <trkpt lat="44.21813" lon="3.00292">
        <ele>860.7</ele>
        <time>2023-06-25T09:37:25Z</time>
      </trkpt>
      <trkpt lat="44.21813" lon="3.00285">
        <ele>860.8</ele>
        <time>2023-06-25T09:37:26Z</time>
      </trkpt>
      <trkpt lat="44.21813" lon="3.00279">
        <ele>860.8</ele>
        <time>2023-06-25T09:37:27Z</time>
      </trkpt>
      <trkpt lat="44.2181" lon="3.00275">
        <ele>860.4</ele>
        <time>2023-06-25T09:37:28Z</time>
      </trkpt>
      <trkpt lat="44.21807" lon="3.00273">
        <ele>860.2</ele>
        <time>2023-06-25T09:37:29Z</time>
      </trkpt>
      <trkpt lat="44.21803" lon="3.00272">
        <ele>860.1</ele>
        <time>2023-06-25T09:37:30Z</time>
      </trkpt>
      <trkpt lat="44.21799" lon="3.00271">
        <ele>859.8</ele>
        <time>2023-06-25T09:37:31Z</time>
      </trkpt>
      <trkpt lat="44.21794" lon="3.00269">
        <ele>859.6</ele>
        <time>2023-06-25T09:37:32Z</time>
      </trkpt>
      <trkpt lat="44.2179" lon="3.00268">
        <ele>859.3</ele>
        <time>2023-06-25T09:37:33Z</time>
      </trkpt>
      <trkpt lat="44.21786" lon="3.00266">
        <ele>859.1</ele>
        <time>2023-06-25T09:37:34Z</time>
      </trkpt>
      <trkpt lat="44.21781" lon="3.00264">
        <ele>858.8</ele>
        <time>2023-06-25T09:37:35Z</time>
      </trkpt>
      <trkpt lat="44.21776" lon="3.00262">
        <ele>858.5</ele>
        <time>2023-06-25T09:37:36Z</time>
      </trkpt>
      <trkpt lat="44.21771" lon="3.0026">
        <ele>858.2</ele>
        <time>2023-06-25T09:37:37Z</time>
      </trkpt>
      <trkpt lat="44.21766" lon="3.00259">
        <ele>858</ele>
        <time>2023-06-25T09:37:38Z</time>
      </trkpt>
      <trkpt lat="44.2176" lon="3.00257">
        <ele>857.7</ele>
        <time>2023-06-25T09:37:39Z</time>
      </trkpt>
      <trkpt lat="44.21755" lon="3.00254">
        <ele>857.3</ele>
        <time>2023-06-25T09:37:40Z</time>
      </trkpt>
      <trkpt lat="44.21749" lon="3.00252">
        <ele>857</ele>
        <time>2023-06-25T09:37:41Z</time>
      </trkpt>
      <trkpt lat="44.21743" lon="3.00249">
        <ele>856.7</ele>
        <time>2023-06-25T09:37:42Z</time>
      </trkpt>
      <trkpt lat="44.21737" lon="3.00247">
        <ele>856.3</ele>
        <time>2023-06-25T09:37:43Z</time>
      </trkpt>
      <trkpt lat="44.2173" lon="3.00244">
        <ele>856</ele>
        <time>2023-06-25T09:37:44Z</time>
      </trkpt>
      <trkpt lat="44.21724" lon="3.00241">
        <ele>855.6</ele>
        <time>2023-06-25T09:37:45Z</time>
      </trkpt>
      <trkpt lat="44.21716" lon="3.00238">
        <ele>855.2</ele>
        <time>2023-06-25T09:37:46Z</time>
      </trkpt>
      <trkpt lat="44.21709" lon="3.00235">
        <ele>854.7</ele>
        <time>2023-06-25T09:37:47Z</time>
      </trkpt>
      <trkpt lat="44.21702" lon="3.00231">
        <ele>854.3</ele>
        <time>2023-06-25T09:37:48Z</time>
      </trkpt>
      <trkpt lat="44.21694" lon="3.00228">
        <ele>853.9</ele>
        <time>2023-06-25T09:37:49Z</time>
      </trkpt>
      <trkpt lat="44.21686" lon="3.00225">
        <ele>853.4</ele>
        <time>2023-06-25T09:37:50Z</time>
      </trkpt>
      <trkpt lat="44.21678" lon="3.00223">
        <ele>853</ele>
        <time>2023-06-25T09:37:51Z</time>
      </trkpt>
      <trkpt lat="44.21671" lon="3.0022">
        <ele>852.6</ele>
        <time>2023-06-25T09:37:52Z</time>
      </trkpt>
      <trkpt lat="44.21664" lon="3.00217">
        <ele>852.2</ele>
        <time>2023-06-25T09:37:53Z</time>
      </trkpt>
      <trkpt lat="44.21658" lon="3.00213">
        <ele>851.8</ele>
        <time>2023-06-25T09:37:54Z</time>
      </trkpt>
      <trkpt lat="44.21652" lon="3.00207">
        <ele>851.4</ele>
        <time>2023-06-25T09:37:55Z</time>
      </trkpt>
      <trkpt lat="44.21647" lon="3.002">
        <ele>851</ele>
        <time>2023-06-25T09:37:56Z</time>
      </trkpt>
      <trkpt lat="44.21643" lon="3.00191">
        <ele>850.6</ele>
        <time>2023-06-25T09:37:57Z</time>
      </trkpt>
      <trkpt lat="44.21639" lon="3.00182">
        <ele>850.2</ele>
        <time>2023-06-25T09:37:58Z</time>
      </trkpt>
      <trkpt lat="44.21635" lon="3.00174">
        <ele>849.8</ele>
        <time>2023-06-25T09:37:59Z</time>
      </trkpt>
      <trkpt lat="44.21631" lon="3.00165">
        <ele>849.4</ele>
        <time>2023-06-25T09:38:00Z</time>
      </trkpt>
      <trkpt lat="44.21627" lon="3.00156">
        <ele>849</ele>
        <time>2023-06-25T09:38:01Z</time>
      </trkpt>
      <trkpt lat="44.21622" lon="3.00147">
        <ele>848.6</ele>
        <time>2023-06-25T09:38:02Z</time>
      </trkpt>
      <trkpt lat="44.21618" lon="3.00138">
        <ele>848.2</ele>
        <time>2023-06-25T09:38:03Z</time>
      </trkpt>
      <trkpt lat="44.21613" lon="3.00128">
        <ele>847.7</ele>
        <time>2023-06-25T09:38:04Z</time>
      </trkpt>
      <trkpt lat="44.21609" lon="3.00119">
        <ele>847.3</ele>
        <time>2023-06-25T09:38:05Z</time>
      </trkpt>
      <trkpt lat="44.21604" lon="3.00109">
        <ele>846.8</ele>
        <time>2023-06-25T09:38:06Z</time>
      </trkpt>
      <trkpt lat="44.216" lon="3.001">
        <ele>846.4</ele>
        <time>2023-06-25T09:38:07Z</time>
      </trkpt>
      <trkpt lat="44.21595" lon="3.00091">
        <ele>846</ele>
        <time>2023-06-25T09:38:08Z</time>
      </trkpt>
      <trkpt lat="44.2159" lon="3.00082">
        <ele>845.5</ele>
        <time>2023-06-25T09:38:09Z</time>
      </trkpt>
      <trkpt lat="44.21586" lon="3.00072">
        <ele>845.1</ele>
        <time>2023-06-25T09:38:10Z</time>
      </trkpt>
      <trkpt lat="44.21581" lon="3.00062">
        <ele>844.6</ele>
        <time>2023-06-25T09:38:11Z</time>
      </trkpt>
      <trkpt lat="44.21576" lon="3.00051">
        <ele>844.1</ele>
        <time>2023-06-25T09:38:12Z</time>
      </trkpt>
      <trkpt lat="44.21571" lon="3.00042">
        <ele>843.7</ele>
        <time>2023-06-25T09:38:13Z</time>
      </trkpt>
      <trkpt lat="44.21567" lon="3.00034">
        <ele>843.3</ele>
        <time>2023-06-25T09:38:14Z</time>
      </trkpt>
      <trkpt lat="44.21564" lon="3.00026">
        <ele>842.9</ele>
        <time>2023-06-25T09:38:15Z</time>
      </trkpt>
      <trkpt lat="44.2156" lon="3.00019">
        <ele>842.6</ele>
        <time>2023-06-25T09:38:16Z</time>
      </trkpt>
      <trkpt lat="44.21556" lon="3.00013">
        <ele>842.3</ele>
        <time>2023-06-25T09:38:17Z</time>
      </trkpt>
      <trkpt lat="44.21553" lon="3.00006">
        <ele>841.9</ele>
        <time>2023-06-25T09:38:18Z</time>
      </trkpt>
      <trkpt lat="44.21549" lon="3.00001">
        <ele>841.6</ele>
        <time>2023-06-25T09:38:19Z</time>
      </trkpt>
      <trkpt lat="44.21545" lon="2.99996">
        <ele>841.3</ele>
        <time>2023-06-25T09:38:20Z</time>
      </trkpt>
      <trkpt lat="44.21541" lon="2.99992">
        <ele>841</ele>
        <time>2023-06-25T09:38:21Z</time>
      </trkpt>
      <trkpt lat="44.21538" lon="2.99989">
        <ele>840.7</ele>
        <time>2023-06-25T09:38:22Z</time>
      </trkpt>
      <trkpt lat="44.21535" lon="2.99988">
        <ele>840.5</ele>
        <time>2023-06-25T09:38:23Z</time>
      </trkpt>
      <trkpt lat="44.21532" lon="2.99986">
        <ele>840.2</ele>
        <time>2023-06-25T09:38:24Z</time>
      </trkpt>
      <trkpt lat="44.21529" lon="2.99986">
        <ele>840</ele>
        <time>2023-06-25T09:38:25Z</time>
      </trkpt>
      <trkpt lat="44.21526" lon="2.99986">
        <ele>839.8</ele>
        <time>2023-06-25T09:38:26Z</time>
      </trkpt>
      <trkpt lat="44.21523" lon="2.99985">
        <ele>839.6</ele>
        <time>2023-06-25T09:38:27Z</time>
      </trkpt>
      <trkpt lat="44.21522" lon="2.99985">
        <ele>839.4</ele>
        <time>2023-06-25T09:38:28Z</time>
      </trkpt>
      <trkpt lat="44.2152" lon="2.99982">
        <ele>839.2</ele>
        <time>2023-06-25T09:38:29Z</time>
      </trkpt>
      <trkpt lat="44.2152" lon="2.99981">
        <ele>839.2</ele>
        <time>2023-06-25T09:38:31Z</time>
      </trkpt>
      <trkpt lat="44.2152" lon="2.99979">
        <ele>839.1</ele>
        <time>2023-06-25T09:38:32Z</time>
      </trkpt>
      <trkpt lat="44.21522" lon="2.99971">
        <ele>838.9</ele>
        <time>2023-06-25T09:38:33Z</time>
      </trkpt>
      <trkpt lat="44.21524" lon="2.99965">
        <ele>838.7</ele>
        <time>2023-06-25T09:38:34Z</time>
      </trkpt>
      <trkpt lat="44.21526" lon="2.99958">
        <ele>838.5</ele>
        <time>2023-06-25T09:38:36Z</time>
      </trkpt>
      <trkpt lat="44.21529" lon="2.99949">
        <ele>838.3</ele>
        <time>2023-06-25T09:38:37Z</time>
      </trkpt>
      <trkpt lat="44.21532" lon="2.99941">
        <ele>838.1</ele>
        <time>2023-06-25T09:38:38Z</time>
      </trkpt>
      <trkpt lat="44.21534" lon="2.99933">
        <ele>838</ele>
        <time>2023-06-25T09:38:39Z</time>
      </trkpt>
      <trkpt lat="44.21538" lon="2.99924">
        <ele>837.6</ele>
        <time>2023-06-25T09:38:40Z</time>
      </trkpt>
      <trkpt lat="44.2154" lon="2.99917">
        <ele>837.3</ele>
        <time>2023-06-25T09:38:42Z</time>
      </trkpt>
      <trkpt lat="44.21542" lon="2.9991">
        <ele>837</ele>
        <time>2023-06-25T09:38:43Z</time>
      </trkpt>
      <trkpt lat="44.21544" lon="2.99903">
        <ele>836.7</ele>
        <time>2023-06-25T09:38:44Z</time>
      </trkpt>
      <trkpt lat="44.21546" lon="2.99892">
        <ele>836.1</ele>
        <time>2023-06-25T09:38:45Z</time>
      </trkpt>
      <trkpt lat="44.21548" lon="2.99884">
        <ele>835.7</ele>
        <time>2023-06-25T09:38:46Z</time>
      </trkpt>
      <trkpt lat="44.21549" lon="2.99875">
        <ele>835.3</ele>
        <time>2023-06-25T09:38:47Z</time>
      </trkpt>
      <trkpt lat="44.2155" lon="2.99867">
        <ele>834.8</ele>
        <time>2023-06-25T09:38:48Z</time>
      </trkpt>
      <trkpt lat="44.21552" lon="2.9986">
        <ele>834.5</ele>
        <time>2023-06-25T09:38:49Z</time>
      </trkpt>
      <trkpt lat="44.21555" lon="2.99852">
        <ele>834</ele>
        <time>2023-06-25T09:38:50Z</time>
      </trkpt>
      <trkpt lat="44.21558" lon="2.99844">
        <ele>833.6</ele>
        <time>2023-06-25T09:38:51Z</time>
      </trkpt>
      <trkpt lat="44.21561" lon="2.99835">
        <ele>833.1</ele>
        <time>2023-06-25T09:38:52Z</time>
      </trkpt>
      <trkpt lat="44.21564" lon="2.99827">
        <ele>832.5</ele>
        <time>2023-06-25T09:38:53Z</time>
      </trkpt>
      <trkpt lat="44.21567" lon="2.99817">
        <ele>832</ele>
        <time>2023-06-25T09:38:54Z</time>
      </trkpt>
      <trkpt lat="44.2157" lon="2.99808">
        <ele>831.5</ele>
        <time>2023-06-25T09:38:55Z</time>
      </trkpt>
      <trkpt lat="44.21573" lon="2.99799">
        <ele>831.2</ele>
        <time>2023-06-25T09:38:56Z</time>
      </trkpt>
      <trkpt lat="44.21576" lon="2.99789">
        <ele>830.9</ele>
        <time>2023-06-25T09:38:57Z</time>
      </trkpt>
      <trkpt lat="44.21579" lon="2.99781">
        <ele>830.8</ele>
        <time>2023-06-25T09:38:58Z</time>
      </trkpt>
      <trkpt lat="44.21583" lon="2.99772">
        <ele>830.7</ele>
        <time>2023-06-25T09:38:59Z</time>
      </trkpt>
      <trkpt lat="44.21585" lon="2.99764">
        <ele>830.7</ele>
        <time>2023-06-25T09:39:00Z</time>
      </trkpt>
      <trkpt lat="44.21588" lon="2.99755">
        <ele>830.8</ele>
        <time>2023-06-25T09:39:01Z</time>
      </trkpt>
      <trkpt lat="44.2159" lon="2.99747">
        <ele>830.9</ele>
        <time>2023-06-25T09:39:02Z</time>
      </trkpt>
      <trkpt lat="44.21591" lon="2.99739">
        <ele>831.1</ele>
        <time>2023-06-25T09:39:03Z</time>
      </trkpt>
      <trkpt lat="44.21591" lon="2.99731">
        <ele>831.4</ele>
        <time>2023-06-25T09:39:04Z</time>
      </trkpt>
      <trkpt lat="44.2159" lon="2.99724">
        <ele>831.8</ele>
        <time>2023-06-25T09:39:05Z</time>
      </trkpt>
      <trkpt lat="44.21589" lon="2.99717">
        <ele>832.2</ele>
        <time>2023-06-25T09:39:06Z</time>
      </trkpt>
      <trkpt lat="44.21588" lon="2.99711">
        <ele>832.5</ele>
        <time>2023-06-25T09:39:07Z</time>
      </trkpt>
      <trkpt lat="44.21587" lon="2.99706">
        <ele>832.8</ele>
        <time>2023-06-25T09:39:08Z</time>
      </trkpt>
      <trkpt lat="44.21587" lon="2.99704">
        <ele>832.9</ele>
        <time>2023-06-25T09:39:09Z</time>
      </trkpt>
      <trkpt lat="44.21586" lon="2.997">
        <ele>833.2</ele>
        <time>2023-06-25T09:39:10Z</time>
      </trkpt>
      <trkpt lat="44.21586" lon="2.99696">
        <ele>833.5</ele>
        <time>2023-06-25T09:39:11Z</time>
      </trkpt>
      <trkpt lat="44.21585" lon="2.9969">
        <ele>833.9</ele>
        <time>2023-06-25T09:39:12Z</time>
      </trkpt>
      <trkpt lat="44.21585" lon="2.99688">
        <ele>834.1</ele>
        <time>2023-06-25T09:39:13Z</time>
      </trkpt>
      <trkpt lat="44.21585" lon="2.99684">
        <ele>834.4</ele>
        <time>2023-06-25T09:39:14Z</time>
      </trkpt>
      <trkpt lat="44.21584" lon="2.99676">
        <ele>835</ele>
        <time>2023-06-25T09:39:16Z</time>
      </trkpt>
      <trkpt lat="44.21583" lon="2.99671">
        <ele>835.4</ele>
        <time>2023-06-25T09:39:18Z</time>
      </trkpt>
      <trkpt lat="44.21582" lon="2.99665">
        <ele>835.9</ele>
        <time>2023-06-25T09:39:19Z</time>
      </trkpt>
      <trkpt lat="44.21582" lon="2.99661">
        <ele>836.2</ele>
        <time>2023-06-25T09:39:20Z</time>
      </trkpt>
      <trkpt lat="44.21581" lon="2.99657">
        <ele>836.6</ele>
        <time>2023-06-25T09:39:21Z</time>
      </trkpt>
      <trkpt lat="44.21582" lon="2.99651">
        <ele>837</ele>
        <time>2023-06-25T09:39:23Z</time>
      </trkpt>
      <trkpt lat="44.21584" lon="2.99645">
        <ele>837.5</ele>
        <time>2023-06-25T09:39:24Z</time>
      </trkpt>
      <trkpt lat="44.21585" lon="2.9964">
        <ele>837.8</ele>
        <time>2023-06-25T09:39:25Z</time>
      </trkpt>
      <trkpt lat="44.21586" lon="2.99636">
        <ele>838.1</ele>
        <time>2023-06-25T09:39:26Z</time>
      </trkpt>
      <trkpt lat="44.21587" lon="2.99631">
        <ele>838.5</ele>
        <time>2023-06-25T09:39:28Z</time>
      </trkpt>
      <trkpt lat="44.21586" lon="2.99626">
        <ele>838.8</ele>
        <time>2023-06-25T09:39:29Z</time>
      </trkpt>
      <trkpt lat="44.21586" lon="2.99621">
        <ele>839.2</ele>
        <time>2023-06-25T09:39:30Z</time>
      </trkpt>
      <trkpt lat="44.21587" lon="2.99616">
        <ele>839.5</ele>
        <time>2023-06-25T09:39:32Z</time>
      </trkpt>
      <trkpt lat="44.21587" lon="2.99612">
        <ele>839.9</ele>
        <time>2023-06-25T09:39:33Z</time>
      </trkpt>
      <trkpt lat="44.21589" lon="2.99606">
        <ele>840.3</ele>
        <time>2023-06-25T09:39:34Z</time>
      </trkpt>
      <trkpt lat="44.21589" lon="2.99604">
        <ele>840.4</ele>
        <time>2023-06-25T09:39:35Z</time>
      </trkpt>
      <trkpt lat="44.21591" lon="2.99598">
        <ele>840.8</ele>
        <time>2023-06-25T09:39:36Z</time>
      </trkpt>
      <trkpt lat="44.21591" lon="2.99596">
        <ele>840.9</ele>
        <time>2023-06-25T09:39:37Z</time>
      </trkpt>
      <trkpt lat="44.21591" lon="2.99592">
        <ele>841.1</ele>
        <time>2023-06-25T09:39:38Z</time>
      </trkpt>
      <trkpt lat="44.21593" lon="2.99586">
        <ele>841.5</ele>
        <time>2023-06-25T09:39:40Z</time>
      </trkpt>
      <trkpt lat="44.21593" lon="2.99581">
        <ele>841.9</ele>
        <time>2023-06-25T09:39:42Z</time>
      </trkpt>
      <trkpt lat="44.21594" lon="2.99577">
        <ele>842.1</ele>
        <time>2023-06-25T09:39:43Z</time>
      </trkpt>
      <trkpt lat="44.21595" lon="2.99572">
        <ele>842.5</ele>
        <time>2023-06-25T09:39:44Z</time>
      </trkpt>
      <trkpt lat="44.21595" lon="2.9957">
        <ele>842.6</ele>
        <time>2023-06-25T09:39:45Z</time>
      </trkpt>
      <trkpt lat="44.21595" lon="2.99564">
        <ele>843</ele>
        <time>2023-06-25T09:39:47Z</time>
      </trkpt>
      <trkpt lat="44.21596" lon="2.99562">
        <ele>843.2</ele>
        <time>2023-06-25T09:39:48Z</time>
      </trkpt>
      <trkpt lat="44.21596" lon="2.9956">
        <ele>843.3</ele>
        <time>2023-06-25T09:39:49Z</time>
      </trkpt>
      <trkpt lat="44.21597" lon="2.99555">
        <ele>843.7</ele>
        <time>2023-06-25T09:39:50Z</time>
      </trkpt>
      <trkpt lat="44.21597" lon="2.99554">
        <ele>843.8</ele>
        <time>2023-06-25T09:39:51Z</time>
      </trkpt>
      <trkpt lat="44.21597" lon="2.9955">
        <ele>844.1</ele>
        <time>2023-06-25T09:39:52Z</time>
      </trkpt>
      <trkpt lat="44.21597" lon="2.99547">
        <ele>844.3</ele>
        <time>2023-06-25T09:39:53Z</time>
      </trkpt>
      <trkpt lat="44.21597" lon="2.99542">
        <ele>844.7</ele>
        <time>2023-06-25T09:39:55Z</time>
      </trkpt>
      <trkpt lat="44.21599" lon="2.99538">
        <ele>845.1</ele>
        <time>2023-06-25T09:39:57Z</time>
      </trkpt>
      <trkpt lat="44.21599" lon="2.99536">
        <ele>845.2</ele>
        <time>2023-06-25T09:39:58Z</time>
      </trkpt>
      <trkpt lat="44.21599" lon="2.99535">
        <ele>845.4</ele>
        <time>2023-06-25T09:39:59Z</time>
      </trkpt>
      <trkpt lat="44.216" lon="2.99532">
        <ele>845.6</ele>
        <time>2023-06-25T09:40:00Z</time>
      </trkpt>
      <trkpt lat="44.21601" lon="2.99529">
        <ele>845.8</ele>
        <time>2023-06-25T09:40:02Z</time>
      </trkpt>
      <trkpt lat="44.21601" lon="2.99524">
        <ele>846.1</ele>
        <time>2023-06-25T09:40:03Z</time>
      </trkpt>
      <trkpt lat="44.21601" lon="2.99522">
        <ele>846.3</ele>
        <time>2023-06-25T09:40:04Z</time>
      </trkpt>
      <trkpt lat="44.21601" lon="2.99516">
        <ele>846.6</ele>
        <time>2023-06-25T09:40:06Z</time>
      </trkpt>
      <trkpt lat="44.21602" lon="2.99512">
        <ele>846.9</ele>
        <time>2023-06-25T09:40:07Z</time>
      </trkpt>
      <trkpt lat="44.21602" lon="2.99503">
        <ele>847.4</ele>
        <time>2023-06-25T09:40:09Z</time>
      </trkpt>
      <trkpt lat="44.21603" lon="2.99498">
        <ele>847.6</ele>
        <time>2023-06-25T09:40:11Z</time>
      </trkpt>
      <trkpt lat="44.21603" lon="2.99493">
        <ele>847.8</ele>
        <time>2023-06-25T09:40:12Z</time>
      </trkpt>
      <trkpt lat="44.21603" lon="2.99489">
        <ele>848</ele>
        <time>2023-06-25T09:40:13Z</time>
      </trkpt>
      <trkpt lat="44.21604" lon="2.99483">
        <ele>848.3</ele>
        <time>2023-06-25T09:40:15Z</time>
      </trkpt>
      <trkpt lat="44.21603" lon="2.99477">
        <ele>848.5</ele>
        <time>2023-06-25T09:40:17Z</time>
      </trkpt>
      <trkpt lat="44.21603" lon="2.99474">
        <ele>848.6</ele>
        <time>2023-06-25T09:40:18Z</time>
      </trkpt>
      <trkpt lat="44.21603" lon="2.99472">
        <ele>848.7</ele>
        <time>2023-06-25T09:40:19Z</time>
      </trkpt>
      <trkpt lat="44.21602" lon="2.99468">
        <ele>848.9</ele>
        <time>2023-06-25T09:40:20Z</time>
      </trkpt>
      <trkpt lat="44.21603" lon="2.99462">
        <ele>849.1</ele>
        <time>2023-06-25T09:40:22Z</time>
      </trkpt>
      <trkpt lat="44.21603" lon="2.99458">
        <ele>849.3</ele>
        <time>2023-06-25T09:40:23Z</time>
      </trkpt>
      <trkpt lat="44.21605" lon="2.99452">
        <ele>849.5</ele>
        <time>2023-06-25T09:40:24Z</time>
      </trkpt>
      <trkpt lat="44.21606" lon="2.99449">
        <ele>849.7</ele>
        <time>2023-06-25T09:40:25Z</time>
      </trkpt>
      <trkpt lat="44.21607" lon="2.99446">
        <ele>849.9</ele>
        <time>2023-06-25T09:40:27Z</time>
      </trkpt>
      <trkpt lat="44.2161" lon="2.99443">
        <ele>850</ele>
        <time>2023-06-25T09:40:28Z</time>
      </trkpt>
      <trkpt lat="44.21613" lon="2.99442">
        <ele>850.3</ele>
        <time>2023-06-25T09:40:29Z</time>
      </trkpt>
      <trkpt lat="44.21615" lon="2.9944">
        <ele>850.3</ele>
        <time>2023-06-25T09:40:30Z</time>
      </trkpt>
      <trkpt lat="44.21618" lon="2.99437">
        <ele>850.3</ele>
        <time>2023-06-25T09:40:32Z</time>
      </trkpt>
      <trkpt lat="44.21621" lon="2.99434">
        <ele>850.3</ele>
        <time>2023-06-25T09:40:33Z</time>
      </trkpt>
      <trkpt lat="44.21624" lon="2.99431">
        <ele>850.3</ele>
        <time>2023-06-25T09:40:34Z</time>
      </trkpt>
      <trkpt lat="44.21627" lon="2.99427">
        <ele>850.3</ele>
        <time>2023-06-25T09:40:35Z</time>
      </trkpt>
      <trkpt lat="44.21629" lon="2.99423">
        <ele>850.3</ele>
        <time>2023-06-25T09:40:36Z</time>
      </trkpt>
      <trkpt lat="44.21634" lon="2.99418">
        <ele>850.3</ele>
        <time>2023-06-25T09:40:38Z</time>
      </trkpt>
      <trkpt lat="44.21637" lon="2.99414">
        <ele>850.3</ele>
        <time>2023-06-25T09:40:39Z</time>
      </trkpt>
      <trkpt lat="44.2164" lon="2.9941">
        <ele>850.3</ele>
        <time>2023-06-25T09:40:40Z</time>
      </trkpt>
      <trkpt lat="44.21643" lon="2.99406">
        <ele>850.4</ele>
        <time>2023-06-25T09:40:41Z</time>
      </trkpt>
      <trkpt lat="44.21646" lon="2.99403">
        <ele>850.4</ele>
        <time>2023-06-25T09:40:42Z</time>
      </trkpt>
      <trkpt lat="44.2165" lon="2.99397">
        <ele>850.4</ele>
        <time>2023-06-25T09:40:44Z</time>
      </trkpt>
      <trkpt lat="44.21652" lon="2.99393">
        <ele>850.4</ele>
        <time>2023-06-25T09:40:45Z</time>
      </trkpt>
      <trkpt lat="44.21655" lon="2.99388">
        <ele>850.4</ele>
        <time>2023-06-25T09:40:46Z</time>
      </trkpt>
      <trkpt lat="44.21658" lon="2.99383">
        <ele>850.4</ele>
        <time>2023-06-25T09:40:47Z</time>
      </trkpt>
      <trkpt lat="44.21664" lon="2.99375">
        <ele>850.5</ele>
        <time>2023-06-25T09:40:49Z</time>
      </trkpt>
      <trkpt lat="44.21667" lon="2.99371">
        <ele>850.5</ele>
        <time>2023-06-25T09:40:50Z</time>
      </trkpt>
      <trkpt lat="44.21675" lon="2.99361">
        <ele>850.5</ele>
        <time>2023-06-25T09:40:52Z</time>
      </trkpt>
      <trkpt lat="44.21681" lon="2.99353">
        <ele>850.5</ele>
        <time>2023-06-25T09:40:54Z</time>
      </trkpt>
      <trkpt lat="44.21684" lon="2.99349">
        <ele>850.5</ele>
        <time>2023-06-25T09:40:55Z</time>
      </trkpt>
      <trkpt lat="44.21687" lon="2.99345">
        <ele>850.5</ele>
        <time>2023-06-25T09:40:56Z</time>
      </trkpt>
      <trkpt lat="44.21691" lon="2.99342">
        <ele>850.6</ele>
        <time>2023-06-25T09:40:57Z</time>
      </trkpt>
      <trkpt lat="44.21695" lon="2.99338">
        <ele>850.6</ele>
        <time>2023-06-25T09:40:58Z</time>
      </trkpt>
      <trkpt lat="44.217" lon="2.99335">
        <ele>850.6</ele>
        <time>2023-06-25T09:41:00Z</time>
      </trkpt>
      <trkpt lat="44.21705" lon="2.99332">
        <ele>850.6</ele>
        <time>2023-06-25T09:41:01Z</time>
      </trkpt>
      <trkpt lat="44.21709" lon="2.99333">
        <ele>850.6</ele>
        <time>2023-06-25T09:41:02Z</time>
      </trkpt>
      <trkpt lat="44.2172" lon="2.99333">
        <ele>850.7</ele>
        <time>2023-06-25T09:41:04Z</time>
      </trkpt>
      <trkpt lat="44.21724" lon="2.99333">
        <ele>850.7</ele>
        <time>2023-06-25T09:41:05Z</time>
      </trkpt>
      <trkpt lat="44.21729" lon="2.99332">
        <ele>850.7</ele>
        <time>2023-06-25T09:41:07Z</time>
      </trkpt>
      <trkpt lat="44.21733" lon="2.99332">
        <ele>850.7</ele>
        <time>2023-06-25T09:41:08Z</time>
      </trkpt>
      <trkpt lat="44.21737" lon="2.99331">
        <ele>850.7</ele>
        <time>2023-06-25T09:41:09Z</time>
      </trkpt>
      <trkpt lat="44.21741" lon="2.99333">
        <ele>850.7</ele>
        <time>2023-06-25T09:41:10Z</time>
      </trkpt>
      <trkpt lat="44.21745" lon="2.99333">
        <ele>850.7</ele>
        <time>2023-06-25T09:41:11Z</time>
      </trkpt>
      <trkpt lat="44.2175" lon="2.99334">
        <ele>850.7</ele>
        <time>2023-06-25T09:41:12Z</time>
      </trkpt>
      <trkpt lat="44.21754" lon="2.99334">
        <ele>850.8</ele>
        <time>2023-06-25T09:41:13Z</time>
      </trkpt>
      <trkpt lat="44.21759" lon="2.99335">
        <ele>850.8</ele>
        <time>2023-06-25T09:41:15Z</time>
      </trkpt>
      <trkpt lat="44.21763" lon="2.99335">
        <ele>850.8</ele>
        <time>2023-06-25T09:41:16Z</time>
      </trkpt>
      <trkpt lat="44.21767" lon="2.99336">
        <ele>850.8</ele>
        <time>2023-06-25T09:41:17Z</time>
      </trkpt>
      <trkpt lat="44.21771" lon="2.99339">
        <ele>850.8</ele>
        <time>2023-06-25T09:41:19Z</time>
      </trkpt>
      <trkpt lat="44.21775" lon="2.9934">
        <ele>850.8</ele>
        <time>2023-06-25T09:41:20Z</time>
      </trkpt>
      <trkpt lat="44.21779" lon="2.99342">
        <ele>850.8</ele>
        <time>2023-06-25T09:41:21Z</time>
      </trkpt>
      <trkpt lat="44.21782" lon="2.99343">
        <ele>850.9</ele>
        <time>2023-06-25T09:41:22Z</time>
      </trkpt>
      <trkpt lat="44.21786" lon="2.99344">
        <ele>850.9</ele>
        <time>2023-06-25T09:41:23Z</time>
      </trkpt>
      <trkpt lat="44.21791" lon="2.99345">
        <ele>850.9</ele>
        <time>2023-06-25T09:41:24Z</time>
      </trkpt>
      <trkpt lat="44.21795" lon="2.99347">
        <ele>850.9</ele>
        <time>2023-06-25T09:41:25Z</time>
      </trkpt>
      <trkpt lat="44.21799" lon="2.99348">
        <ele>850.9</ele>
        <time>2023-06-25T09:41:26Z</time>
      </trkpt>
      <trkpt lat="44.21803" lon="2.9935">
        <ele>850.9</ele>
        <time>2023-06-25T09:41:28Z</time>
      </trkpt>
      <trkpt lat="44.21807" lon="2.99351">
        <ele>850.9</ele>
        <time>2023-06-25T09:41:29Z</time>
      </trkpt>
      <trkpt lat="44.21811" lon="2.99353">
        <ele>850.9</ele>
        <time>2023-06-25T09:41:30Z</time>
      </trkpt>
      <trkpt lat="44.21818" lon="2.99355">
        <ele>851</ele>
        <time>2023-06-25T09:41:32Z</time>
      </trkpt>
      <trkpt lat="44.21822" lon="2.99357">
        <ele>851</ele>
        <time>2023-06-25T09:41:33Z</time>
      </trkpt>
      <trkpt lat="44.21826" lon="2.99358">
        <ele>851</ele>
        <time>2023-06-25T09:41:34Z</time>
      </trkpt>
      <trkpt lat="44.2183" lon="2.99359">
        <ele>851</ele>
        <time>2023-06-25T09:41:35Z</time>
      </trkpt>
      <trkpt lat="44.21834" lon="2.99361">
        <ele>851</ele>
        <time>2023-06-25T09:41:36Z</time>
      </trkpt>
      <trkpt lat="44.21839" lon="2.99363">
        <ele>851</ele>
        <time>2023-06-25T09:41:37Z</time>
      </trkpt>
      <trkpt lat="44.21843" lon="2.99365">
        <ele>851</ele>
        <time>2023-06-25T09:41:38Z</time>
      </trkpt>
      <trkpt lat="44.21848" lon="2.99367">
        <ele>851.1</ele>
        <time>2023-06-25T09:41:40Z</time>
      </trkpt>
      <trkpt lat="44.21852" lon="2.99368">
        <ele>851.1</ele>
        <time>2023-06-25T09:41:41Z</time>
      </trkpt>
      <trkpt lat="44.21856" lon="2.9937">
        <ele>851.1</ele>
        <time>2023-06-25T09:41:42Z</time>
      </trkpt>
      <trkpt lat="44.21859" lon="2.99372">
        <ele>851.1</ele>
        <time>2023-06-25T09:41:43Z</time>
      </trkpt>
      <trkpt lat="44.21862" lon="2.99374">
        <ele>851.1</ele>
        <time>2023-06-25T09:41:44Z</time>
      </trkpt>
      <trkpt lat="44.21867" lon="2.99376">
        <ele>851.1</ele>
        <time>2023-06-25T09:41:45Z</time>
      </trkpt>
      <trkpt lat="44.21873" lon="2.9938">
        <ele>851.1</ele>
        <time>2023-06-25T09:41:47Z</time>
      </trkpt>
      <trkpt lat="44.21877" lon="2.99382">
        <ele>851.2</ele>
        <time>2023-06-25T09:41:48Z</time>
      </trkpt>
      <trkpt lat="44.21881" lon="2.99385">
        <ele>851.2</ele>
        <time>2023-06-25T09:41:49Z</time>
      </trkpt>
      <trkpt lat="44.21886" lon="2.9939">
        <ele>851.2</ele>
        <time>2023-06-25T09:41:51Z</time>
      </trkpt>
      <trkpt lat="44.2189" lon="2.99392">
        <ele>851.2</ele>
        <time>2023-06-25T09:41:52Z</time>
      </trkpt>
      <trkpt lat="44.21897" lon="2.99395">
        <ele>851.2</ele>
        <time>2023-06-25T09:41:54Z</time>
      </trkpt>
      <trkpt lat="44.21901" lon="2.99397">
        <ele>851.2</ele>
        <time>2023-06-25T09:41:55Z</time>
      </trkpt>
      <trkpt lat="44.21908" lon="2.99402">
        <ele>851.3</ele>
        <time>2023-06-25T09:41:57Z</time>
      </trkpt>
      <trkpt lat="44.21912" lon="2.99404">
        <ele>851.3</ele>
        <time>2023-06-25T09:41:58Z</time>
      </trkpt>
      <trkpt lat="44.2192" lon="2.99408">
        <ele>851.3</ele>
        <time>2023-06-25T09:42:00Z</time>
      </trkpt>
      <trkpt lat="44.21924" lon="2.9941">
        <ele>851.3</ele>
        <time>2023-06-25T09:42:01Z</time>
      </trkpt>
      <trkpt lat="44.21929" lon="2.99413">
        <ele>851.3</ele>
        <time>2023-06-25T09:42:02Z</time>
      </trkpt>
      <trkpt lat="44.21934" lon="2.99416">
        <ele>851.3</ele>
        <time>2023-06-25T09:42:03Z</time>
      </trkpt>
      <trkpt lat="44.21938" lon="2.99419">
        <ele>851.4</ele>
        <time>2023-06-25T09:42:04Z</time>
      </trkpt>
      <trkpt lat="44.21943" lon="2.99422">
        <ele>851.4</ele>
        <time>2023-06-25T09:42:05Z</time>
      </trkpt>
      <trkpt lat="44.21948" lon="2.99426">
        <ele>851.4</ele>
        <time>2023-06-25T09:42:06Z</time>
      </trkpt>
      <trkpt lat="44.21953" lon="2.99431">
        <ele>851.4</ele>
        <time>2023-06-25T09:42:07Z</time>
      </trkpt>
      <trkpt lat="44.21958" lon="2.99436">
        <ele>851.4</ele>
        <time>2023-06-25T09:42:08Z</time>
      </trkpt>
      <trkpt lat="44.21962" lon="2.9944">
        <ele>851.4</ele>
        <time>2023-06-25T09:42:09Z</time>
      </trkpt>
      <trkpt lat="44.21966" lon="2.99444">
        <ele>851.5</ele>
        <time>2023-06-25T09:42:10Z</time>
      </trkpt>
      <trkpt lat="44.2197" lon="2.99446">
        <ele>851.5</ele>
        <time>2023-06-25T09:42:11Z</time>
      </trkpt>
      <trkpt lat="44.21974" lon="2.99443">
        <ele>851.5</ele>
        <time>2023-06-25T09:42:13Z</time>
      </trkpt>
      <trkpt lat="44.21979" lon="2.99441">
        <ele>851.5</ele>
        <time>2023-06-25T09:42:14Z</time>
      </trkpt>
      <trkpt lat="44.21982" lon="2.99437">
        <ele>851.5</ele>
        <time>2023-06-25T09:42:15Z</time>
      </trkpt>
      <trkpt lat="44.21984" lon="2.99432">
        <ele>851.5</ele>
        <time>2023-06-25T09:42:16Z</time>
      </trkpt>
      <trkpt lat="44.21982" lon="2.99424">
        <ele>851</ele>
        <time>2023-06-25T09:42:17Z</time>
      </trkpt>
      <trkpt lat="44.21979" lon="2.99416">
        <ele>850.5</ele>
        <time>2023-06-25T09:42:18Z</time>
      </trkpt>
      <trkpt lat="44.21976" lon="2.99409">
        <ele>850</ele>
        <time>2023-06-25T09:42:19Z</time>
      </trkpt>
      <trkpt lat="44.21973" lon="2.99402">
        <ele>849.4</ele>
        <time>2023-06-25T09:42:20Z</time>
      </trkpt>
      <trkpt lat="44.21969" lon="2.99394">
        <ele>848.9</ele>
        <time>2023-06-25T09:42:21Z</time>
      </trkpt>
      <trkpt lat="44.21966" lon="2.99385">
        <ele>848.3</ele>
        <time>2023-06-25T09:42:22Z</time>
      </trkpt>
      <trkpt lat="44.21962" lon="2.99376">
        <ele>847.6</ele>
        <time>2023-06-25T09:42:23Z</time>
      </trkpt>
      <trkpt lat="44.21958" lon="2.99367">
        <ele>846.9</ele>
        <time>2023-06-25T09:42:24Z</time>
      </trkpt>
      <trkpt lat="44.21954" lon="2.99357">
        <ele>846.2</ele>
        <time>2023-06-25T09:42:25Z</time>
      </trkpt>
      <trkpt lat="44.21949" lon="2.99348">
        <ele>845.6</ele>
        <time>2023-06-25T09:42:26Z</time>
      </trkpt>
      <trkpt lat="44.21945" lon="2.99338">
        <ele>844.8</ele>
        <time>2023-06-25T09:42:27Z</time>
      </trkpt>
      <trkpt lat="44.2194" lon="2.99328">
        <ele>844.1</ele>
        <time>2023-06-25T09:42:28Z</time>
      </trkpt>
      <trkpt lat="44.21937" lon="2.99317">
        <ele>843.6</ele>
        <time>2023-06-25T09:42:29Z</time>
      </trkpt>
      <trkpt lat="44.21934" lon="2.99305">
        <ele>843.1</ele>
        <time>2023-06-25T09:42:30Z</time>
      </trkpt>
      <trkpt lat="44.21931" lon="2.99294">
        <ele>842.6</ele>
        <time>2023-06-25T09:42:31Z</time>
      </trkpt>
      <trkpt lat="44.21926" lon="2.99282">
        <ele>842.1</ele>
        <time>2023-06-25T09:42:32Z</time>
      </trkpt>
      <trkpt lat="44.21921" lon="2.99271">
        <ele>841.6</ele>
        <time>2023-06-25T09:42:33Z</time>
      </trkpt>
      <trkpt lat="44.21915" lon="2.9926">
        <ele>841</ele>
        <time>2023-06-25T09:42:34Z</time>
      </trkpt>
      <trkpt lat="44.21908" lon="2.9925">
        <ele>840.5</ele>
        <time>2023-06-25T09:42:35Z</time>
      </trkpt>
      <trkpt lat="44.219" lon="2.99241">
        <ele>839.9</ele>
        <time>2023-06-25T09:42:36Z</time>
      </trkpt>
      <trkpt lat="44.21891" lon="2.99233">
        <ele>839.3</ele>
        <time>2023-06-25T09:42:37Z</time>
      </trkpt>
      <trkpt lat="44.21883" lon="2.99224">
        <ele>838.8</ele>
        <time>2023-06-25T09:42:38Z</time>
      </trkpt>
      <trkpt lat="44.21877" lon="2.99213">
        <ele>838.2</ele>
        <time>2023-06-25T09:42:39Z</time>
      </trkpt>
      <trkpt lat="44.21873" lon="2.992">
        <ele>837.6</ele>
        <time>2023-06-25T09:42:40Z</time>
      </trkpt>
      <trkpt lat="44.21872" lon="2.99185">
        <ele>837</ele>
        <time>2023-06-25T09:42:41Z</time>
      </trkpt>
      <trkpt lat="44.21874" lon="2.99172">
        <ele>836.5</ele>
        <time>2023-06-25T09:42:42Z</time>
      </trkpt>
      <trkpt lat="44.21879" lon="2.9916">
        <ele>836</ele>
        <time>2023-06-25T09:42:43Z</time>
      </trkpt>
      <trkpt lat="44.21885" lon="2.99149">
        <ele>835.4</ele>
        <time>2023-06-25T09:42:44Z</time>
      </trkpt>
      <trkpt lat="44.21894" lon="2.99143">
        <ele>834.9</ele>
        <time>2023-06-25T09:42:45Z</time>
      </trkpt>
      <trkpt lat="44.21903" lon="2.99139">
        <ele>834.4</ele>
        <time>2023-06-25T09:42:46Z</time>
      </trkpt>
      <trkpt lat="44.21912" lon="2.99139">
        <ele>833.9</ele>
        <time>2023-06-25T09:42:47Z</time>
      </trkpt>
      <trkpt lat="44.2192" lon="2.9914">
        <ele>833.4</ele>
        <time>2023-06-25T09:42:48Z</time>
      </trkpt>
      <trkpt lat="44.21928" lon="2.99142">
        <ele>833</ele>
        <time>2023-06-25T09:42:49Z</time>
      </trkpt>
      <trkpt lat="44.21936" lon="2.99143">
        <ele>832.5</ele>
        <time>2023-06-25T09:42:50Z</time>
      </trkpt>
      <trkpt lat="44.21942" lon="2.99142">
        <ele>832.2</ele>
        <time>2023-06-25T09:42:51Z</time>
      </trkpt>
      <trkpt lat="44.21947" lon="2.9914">
        <ele>831.9</ele>
        <time>2023-06-25T09:42:52Z</time>
      </trkpt>
      <trkpt lat="44.2195" lon="2.99137">
        <ele>831.7</ele>
        <time>2023-06-25T09:42:53Z</time>
      </trkpt>
      <trkpt lat="44.21952" lon="2.99133">
        <ele>831.5</ele>
        <time>2023-06-25T09:42:54Z</time>
      </trkpt>
      <trkpt lat="44.21953" lon="2.99132">
        <ele>831.4</ele>
        <time>2023-06-25T09:42:55Z</time>
      </trkpt>
      <trkpt lat="44.21952" lon="2.99127">
        <ele>831.2</ele>
        <time>2023-06-25T09:42:56Z</time>
      </trkpt>
      <trkpt lat="44.21952" lon="2.99126">
        <ele>831.2</ele>
        <time>2023-06-25T09:42:57Z</time>
      </trkpt>
      <trkpt lat="44.21947" lon="2.99124">
        <ele>831.2</ele>
        <time>2023-06-25T09:42:58Z</time>
      </trkpt>
      <trkpt lat="44.21943" lon="2.99122">
        <ele>831.2</ele>
        <time>2023-06-25T09:42:59Z</time>
      </trkpt>
      <trkpt lat="44.21941" lon="2.99121">
        <ele>831.2</ele>
        <time>2023-06-25T09:43:00Z</time>
      </trkpt>
      <trkpt lat="44.21929" lon="2.99117">
        <ele>831.2</ele>
        <time>2023-06-25T09:43:02Z</time>
      </trkpt>
      <trkpt lat="44.21924" lon="2.99114">
        <ele>831.2</ele>
        <time>2023-06-25T09:43:03Z</time>
      </trkpt>
      <trkpt lat="44.21918" lon="2.99111">
        <ele>831.1</ele>
        <time>2023-06-25T09:43:04Z</time>
      </trkpt>
      <trkpt lat="44.21913" lon="2.99108">
        <ele>830.8</ele>
        <time>2023-06-25T09:43:05Z</time>
      </trkpt>
      <trkpt lat="44.21908" lon="2.99105">
        <ele>830.6</ele>
        <time>2023-06-25T09:43:06Z</time>
      </trkpt>
      <trkpt lat="44.21902" lon="2.99102">
        <ele>830.4</ele>
        <time>2023-06-25T09:43:07Z</time>
      </trkpt>
      <trkpt lat="44.21897" lon="2.99099">
        <ele>830.1</ele>
        <time>2023-06-25T09:43:08Z</time>
      </trkpt>
      <trkpt lat="44.21891" lon="2.99096">
        <ele>829.9</ele>
        <time>2023-06-25T09:43:09Z</time>
      </trkpt>
      <trkpt lat="44.21886" lon="2.99092">
        <ele>829.6</ele>
        <time>2023-06-25T09:43:10Z</time>
      </trkpt>
      <trkpt lat="44.2188" lon="2.99088">
        <ele>829.3</ele>
        <time>2023-06-25T09:43:11Z</time>
      </trkpt>
      <trkpt lat="44.21874" lon="2.99085">
        <ele>828.9</ele>
        <time>2023-06-25T09:43:12Z</time>
      </trkpt>
      <trkpt lat="44.21867" lon="2.99082">
        <ele>828.5</ele>
        <time>2023-06-25T09:43:13Z</time>
      </trkpt>
      <trkpt lat="44.2186" lon="2.99078">
        <ele>828</ele>
        <time>2023-06-25T09:43:14Z</time>
      </trkpt>
      <trkpt lat="44.21853" lon="2.99075">
        <ele>827.5</ele>
        <time>2023-06-25T09:43:15Z</time>
      </trkpt>
      <trkpt lat="44.21846" lon="2.99071">
        <ele>826.9</ele>
        <time>2023-06-25T09:43:16Z</time>
      </trkpt>
      <trkpt lat="44.21837" lon="2.99069">
        <ele>826.2</ele>
        <time>2023-06-25T09:43:17Z</time>
      </trkpt>
      <trkpt lat="44.21829" lon="2.99067">
        <ele>825.2</ele>
        <time>2023-06-25T09:43:18Z</time>
      </trkpt>
      <trkpt lat="44.21819" lon="2.99065">
        <ele>824.6</ele>
        <time>2023-06-25T09:43:19Z</time>
      </trkpt>
      <trkpt lat="44.2181" lon="2.99063">
        <ele>824.1</ele>
        <time>2023-06-25T09:43:20Z</time>
      </trkpt>
      <trkpt lat="44.218" lon="2.99061">
        <ele>823.6</ele>
        <time>2023-06-25T09:43:21Z</time>
      </trkpt>
      <trkpt lat="44.21789" lon="2.99059">
        <ele>823</ele>
        <time>2023-06-25T09:43:22Z</time>
      </trkpt>
      <trkpt lat="44.21779" lon="2.99057">
        <ele>822.4</ele>
        <time>2023-06-25T09:43:23Z</time>
      </trkpt>
      <trkpt lat="44.21767" lon="2.99056">
        <ele>821.7</ele>
        <time>2023-06-25T09:43:24Z</time>
      </trkpt>
      <trkpt lat="44.21756" lon="2.99054">
        <ele>821.1</ele>
        <time>2023-06-25T09:43:25Z</time>
      </trkpt>
      <trkpt lat="44.21745" lon="2.99052">
        <ele>820.4</ele>
        <time>2023-06-25T09:43:26Z</time>
      </trkpt>
      <trkpt lat="44.21733" lon="2.99049">
        <ele>819.2</ele>
        <time>2023-06-25T09:43:27Z</time>
      </trkpt>
      <trkpt lat="44.21721" lon="2.99045">
        <ele>817.7</ele>
        <time>2023-06-25T09:43:28Z</time>
      </trkpt>
      <trkpt lat="44.2171" lon="2.99039">
        <ele>816.2</ele>
        <time>2023-06-25T09:43:29Z</time>
      </trkpt>
      <trkpt lat="44.217" lon="2.99031">
        <ele>814.7</ele>
        <time>2023-06-25T09:43:30Z</time>
      </trkpt>
      <trkpt lat="44.2169" lon="2.99021">
        <ele>813.3</ele>
        <time>2023-06-25T09:43:31Z</time>
      </trkpt>
      <trkpt lat="44.21682" lon="2.99012">
        <ele>812</ele>
        <time>2023-06-25T09:43:32Z</time>
      </trkpt>
      <trkpt lat="44.21676" lon="2.99002">
        <ele>810.9</ele>
        <time>2023-06-25T09:43:33Z</time>
      </trkpt>
      <trkpt lat="44.21671" lon="2.98991">
        <ele>809.8</ele>
        <time>2023-06-25T09:43:34Z</time>
      </trkpt>
      <trkpt lat="44.21668" lon="2.98981">
        <ele>808.7</ele>
        <time>2023-06-25T09:43:35Z</time>
      </trkpt>
      <trkpt lat="44.21664" lon="2.9897">
        <ele>807.6</ele>
        <time>2023-06-25T09:43:36Z</time>
      </trkpt>
      <trkpt lat="44.21661" lon="2.98961">
        <ele>806.8</ele>
        <time>2023-06-25T09:43:37Z</time>
      </trkpt>
      <trkpt lat="44.21658" lon="2.98953">
        <ele>806.1</ele>
        <time>2023-06-25T09:43:38Z</time>
      </trkpt>
      <trkpt lat="44.21656" lon="2.98947">
        <ele>805.7</ele>
        <time>2023-06-25T09:43:39Z</time>
      </trkpt>
      <trkpt lat="44.21657" lon="2.98942">
        <ele>806</ele>
        <time>2023-06-25T09:43:40Z</time>
      </trkpt>
      <trkpt lat="44.21659" lon="2.98938">
        <ele>806.3</ele>
        <time>2023-06-25T09:43:41Z</time>
      </trkpt>
      <trkpt lat="44.21662" lon="2.98935">
        <ele>806.6</ele>
        <time>2023-06-25T09:43:42Z</time>
      </trkpt>
      <trkpt lat="44.21666" lon="2.98931">
        <ele>807</ele>
        <time>2023-06-25T09:43:43Z</time>
      </trkpt>
      <trkpt lat="44.21668" lon="2.98927">
        <ele>807.3</ele>
        <time>2023-06-25T09:43:44Z</time>
      </trkpt>
      <trkpt lat="44.2167" lon="2.98921">
        <ele>806.8</ele>
        <time>2023-06-25T09:43:45Z</time>
      </trkpt>
      <trkpt lat="44.21671" lon="2.98913">
        <ele>806.3</ele>
        <time>2023-06-25T09:43:46Z</time>
      </trkpt>
      <trkpt lat="44.21672" lon="2.98906">
        <ele>805.9</ele>
        <time>2023-06-25T09:43:47Z</time>
      </trkpt>
      <trkpt lat="44.21673" lon="2.98899">
        <ele>805.4</ele>
        <time>2023-06-25T09:43:48Z</time>
      </trkpt>
      <trkpt lat="44.21674" lon="2.9889">
        <ele>805</ele>
        <time>2023-06-25T09:43:49Z</time>
      </trkpt>
      <trkpt lat="44.21675" lon="2.98882">
        <ele>804.5</ele>
        <time>2023-06-25T09:43:50Z</time>
      </trkpt>
      <trkpt lat="44.21675" lon="2.98873">
        <ele>804.1</ele>
        <time>2023-06-25T09:43:51Z</time>
      </trkpt>
      <trkpt lat="44.21675" lon="2.98863">
        <ele>803.8</ele>
        <time>2023-06-25T09:43:52Z</time>
      </trkpt>
      <trkpt lat="44.21675" lon="2.98854">
        <ele>803.6</ele>
        <time>2023-06-25T09:43:53Z</time>
      </trkpt>
      <trkpt lat="44.21675" lon="2.98845">
        <ele>803.4</ele>
        <time>2023-06-25T09:43:54Z</time>
      </trkpt>
      <trkpt lat="44.21675" lon="2.98838">
        <ele>803.2</ele>
        <time>2023-06-25T09:43:55Z</time>
      </trkpt>
      <trkpt lat="44.21675" lon="2.9883">
        <ele>803.1</ele>
        <time>2023-06-25T09:43:56Z</time>
      </trkpt>
      <trkpt lat="44.21675" lon="2.98823">
        <ele>803</ele>
        <time>2023-06-25T09:43:57Z</time>
      </trkpt>
      <trkpt lat="44.21674" lon="2.98815">
        <ele>802.9</ele>
        <time>2023-06-25T09:43:58Z</time>
      </trkpt>
      <trkpt lat="44.21673" lon="2.98808">
        <ele>802.7</ele>
        <time>2023-06-25T09:43:59Z</time>
      </trkpt>
      <trkpt lat="44.21673" lon="2.98802">
        <ele>802.6</ele>
        <time>2023-06-25T09:44:00Z</time>
      </trkpt>
      <trkpt lat="44.21673" lon="2.98797">
        <ele>802.4</ele>
        <time>2023-06-25T09:44:01Z</time>
      </trkpt>
      <trkpt lat="44.21673" lon="2.98792">
        <ele>802.2</ele>
        <time>2023-06-25T09:44:02Z</time>
      </trkpt>
      <trkpt lat="44.21672" lon="2.98786">
        <ele>802</ele>
        <time>2023-06-25T09:44:03Z</time>
      </trkpt>
      <trkpt lat="44.21672" lon="2.9878">
        <ele>801.6</ele>
        <time>2023-06-25T09:44:04Z</time>
      </trkpt>
      <trkpt lat="44.21671" lon="2.98774">
        <ele>801.2</ele>
        <time>2023-06-25T09:44:05Z</time>
      </trkpt>
      <trkpt lat="44.21671" lon="2.9877">
        <ele>800.9</ele>
        <time>2023-06-25T09:44:06Z</time>
      </trkpt>
      <trkpt lat="44.21671" lon="2.98761">
        <ele>800.2</ele>
        <time>2023-06-25T09:44:07Z</time>
      </trkpt>
      <trkpt lat="44.2167" lon="2.98754">
        <ele>799.6</ele>
        <time>2023-06-25T09:44:08Z</time>
      </trkpt>
      <trkpt lat="44.2167" lon="2.98748">
        <ele>799.1</ele>
        <time>2023-06-25T09:44:09Z</time>
      </trkpt>
      <trkpt lat="44.21669" lon="2.98742">
        <ele>798.5</ele>
        <time>2023-06-25T09:44:10Z</time>
      </trkpt>
      <trkpt lat="44.21669" lon="2.98738">
        <ele>798.1</ele>
        <time>2023-06-25T09:44:11Z</time>
      </trkpt>
      <trkpt lat="44.21668" lon="2.98732">
        <ele>797.4</ele>
        <time>2023-06-25T09:44:12Z</time>
      </trkpt>
      <trkpt lat="44.21667" lon="2.98726">
        <ele>796.8</ele>
        <time>2023-06-25T09:44:13Z</time>
      </trkpt>
      <trkpt lat="44.21666" lon="2.98719">
        <ele>796</ele>
        <time>2023-06-25T09:44:14Z</time>
      </trkpt>
      <trkpt lat="44.21664" lon="2.98711">
        <ele>795.1</ele>
        <time>2023-06-25T09:44:15Z</time>
      </trkpt>
      <trkpt lat="44.21662" lon="2.98703">
        <ele>794.2</ele>
        <time>2023-06-25T09:44:16Z</time>
      </trkpt>
      <trkpt lat="44.2166" lon="2.98695">
        <ele>793.2</ele>
        <time>2023-06-25T09:44:17Z</time>
      </trkpt>
      <trkpt lat="44.21658" lon="2.98687">
        <ele>792.2</ele>
        <time>2023-06-25T09:44:18Z</time>
      </trkpt>
      <trkpt lat="44.21655" lon="2.98678">
        <ele>791.4</ele>
        <time>2023-06-25T09:44:19Z</time>
      </trkpt>
      <trkpt lat="44.21652" lon="2.98668">
        <ele>790.5</ele>
        <time>2023-06-25T09:44:20Z</time>
      </trkpt>
      <trkpt lat="44.2165" lon="2.98659">
        <ele>789.5</ele>
        <time>2023-06-25T09:44:21Z</time>
      </trkpt>
      <trkpt lat="44.21648" lon="2.9865">
        <ele>788.6</ele>
        <time>2023-06-25T09:44:22Z</time>
      </trkpt>
      <trkpt lat="44.21647" lon="2.98641">
        <ele>787.8</ele>
        <time>2023-06-25T09:44:23Z</time>
      </trkpt>
      <trkpt lat="44.21647" lon="2.98633">
        <ele>786.9</ele>
        <time>2023-06-25T09:44:24Z</time>
      </trkpt>
      <trkpt lat="44.21647" lon="2.98625">
        <ele>786.1</ele>
        <time>2023-06-25T09:44:25Z</time>
      </trkpt>
      <trkpt lat="44.21648" lon="2.98617">
        <ele>785.3</ele>
        <time>2023-06-25T09:44:26Z</time>
      </trkpt>
      <trkpt lat="44.21649" lon="2.9861">
        <ele>784.6</ele>
        <time>2023-06-25T09:44:27Z</time>
      </trkpt>
      <trkpt lat="44.21652" lon="2.98603">
        <ele>783.9</ele>
        <time>2023-06-25T09:44:28Z</time>
      </trkpt>
      <trkpt lat="44.21654" lon="2.98598">
        <ele>783.4</ele>
        <time>2023-06-25T09:44:29Z</time>
      </trkpt>
      <trkpt lat="44.21656" lon="2.98594">
        <ele>782.9</ele>
        <time>2023-06-25T09:44:30Z</time>
      </trkpt>
      <trkpt lat="44.21656" lon="2.98591">
        <ele>782.7</ele>
        <time>2023-06-25T09:44:31Z</time>
      </trkpt>
      <trkpt lat="44.21656" lon="2.98589">
        <ele>782.7</ele>
        <time>2023-06-25T09:44:32Z</time>
      </trkpt>
      <trkpt lat="44.21653" lon="2.98588">
        <ele>782.6</ele>
        <time>2023-06-25T09:44:33Z</time>
      </trkpt>
      <trkpt lat="44.21652" lon="2.98589">
        <ele>782.6</ele>
        <time>2023-06-25T09:44:34Z</time>
      </trkpt>
      <trkpt lat="44.2165" lon="2.9859">
        <ele>782.5</ele>
        <time>2023-06-25T09:44:35Z</time>
      </trkpt>
      <trkpt lat="44.21646" lon="2.98595">
        <ele>782.4</ele>
        <time>2023-06-25T09:44:37Z</time>
      </trkpt>
      <trkpt lat="44.21643" lon="2.98599">
        <ele>782.3</ele>
        <time>2023-06-25T09:44:38Z</time>
      </trkpt>
      <trkpt lat="44.2164" lon="2.98603">
        <ele>782.1</ele>
        <time>2023-06-25T09:44:40Z</time>
      </trkpt>
      <trkpt lat="44.21637" lon="2.98608">
        <ele>782</ele>
        <time>2023-06-25T09:44:41Z</time>
      </trkpt>
      <trkpt lat="44.21635" lon="2.98612">
        <ele>782</ele>
        <time>2023-06-25T09:44:42Z</time>
      </trkpt>
      <trkpt lat="44.21632" lon="2.98618">
        <ele>781.9</ele>
        <time>2023-06-25T09:44:44Z</time>
      </trkpt>
      <trkpt lat="44.2163" lon="2.98622">
        <ele>781.9</ele>
        <time>2023-06-25T09:44:45Z</time>
      </trkpt>
      <trkpt lat="44.21629" lon="2.98626">
        <ele>781.9</ele>
        <time>2023-06-25T09:44:46Z</time>
      </trkpt>
      <trkpt lat="44.21627" lon="2.98631">
        <ele>781.9</ele>
        <time>2023-06-25T09:44:47Z</time>
      </trkpt>
      <trkpt lat="44.21626" lon="2.98635">
        <ele>781.8</ele>
        <time>2023-06-25T09:44:48Z</time>
      </trkpt>
      <trkpt lat="44.21624" lon="2.98641">
        <ele>781.5</ele>
        <time>2023-06-25T09:44:50Z</time>
      </trkpt>
      <trkpt lat="44.21622" lon="2.98647">
        <ele>781.3</ele>
        <time>2023-06-25T09:44:51Z</time>
      </trkpt>
      <trkpt lat="44.21622" lon="2.98649">
        <ele>781.3</ele>
        <time>2023-06-25T09:44:52Z</time>
      </trkpt>
      <trkpt lat="44.2162" lon="2.98656">
        <ele>781</ele>
        <time>2023-06-25T09:44:53Z</time>
      </trkpt>
      <trkpt lat="44.21619" lon="2.98663">
        <ele>780.8</ele>
        <time>2023-06-25T09:44:54Z</time>
      </trkpt>
      <trkpt lat="44.21618" lon="2.98667">
        <ele>780.7</ele>
        <time>2023-06-25T09:44:55Z</time>
      </trkpt>
      <trkpt lat="44.21618" lon="2.98676">
        <ele>780.4</ele>
        <time>2023-06-25T09:44:57Z</time>
      </trkpt>
      <trkpt lat="44.21617" lon="2.98681">
        <ele>780.3</ele>
        <time>2023-06-25T09:44:58Z</time>
      </trkpt>
      <trkpt lat="44.21614" lon="2.98688">
        <ele>780.1</ele>
        <time>2023-06-25T09:44:59Z</time>
      </trkpt>
      <trkpt lat="44.21611" lon="2.98695">
        <ele>779.9</ele>
        <time>2023-06-25T09:45:00Z</time>
      </trkpt>
      <trkpt lat="44.2161" lon="2.98702">
        <ele>779.8</ele>
        <time>2023-06-25T09:45:01Z</time>
      </trkpt>
      <trkpt lat="44.21608" lon="2.98707">
        <ele>779.6</ele>
        <time>2023-06-25T09:45:02Z</time>
      </trkpt>
      <trkpt lat="44.21607" lon="2.98709">
        <ele>779.6</ele>
        <time>2023-06-25T09:45:03Z</time>
      </trkpt>
      <trkpt lat="44.21604" lon="2.98719">
        <ele>779.2</ele>
        <time>2023-06-25T09:45:05Z</time>
      </trkpt>
      <trkpt lat="44.21602" lon="2.98727">
        <ele>778.2</ele>
        <time>2023-06-25T09:45:06Z</time>
      </trkpt>
      <trkpt lat="44.21599" lon="2.98731">
        <ele>777.3</ele>
        <time>2023-06-25T09:45:08Z</time>
      </trkpt>
      <trkpt lat="44.21596" lon="2.98736">
        <ele>776.4</ele>
        <time>2023-06-25T09:45:09Z</time>
      </trkpt>
      <trkpt lat="44.21595" lon="2.9874">
        <ele>775.6</ele>
        <time>2023-06-25T09:45:10Z</time>
      </trkpt>
      <trkpt lat="44.21593" lon="2.98745">
        <ele>774.8</ele>
        <time>2023-06-25T09:45:11Z</time>
      </trkpt>
      <trkpt lat="44.21591" lon="2.98749">
        <ele>774</ele>
        <time>2023-06-25T09:45:12Z</time>
      </trkpt>
      <trkpt lat="44.21586" lon="2.98755">
        <ele>772.6</ele>
        <time>2023-06-25T09:45:14Z</time>
      </trkpt>
      <trkpt lat="44.21582" lon="2.98757">
        <ele>771.7</ele>
        <time>2023-06-25T09:45:15Z</time>
      </trkpt>
      <trkpt lat="44.21578" lon="2.98759">
        <ele>770.6</ele>
        <time>2023-06-25T09:45:16Z</time>
      </trkpt>
      <trkpt lat="44.21572" lon="2.98762">
        <ele>769.3</ele>
        <time>2023-06-25T09:45:18Z</time>
      </trkpt>
      <trkpt lat="44.21567" lon="2.98764">
        <ele>768.2</ele>
        <time>2023-06-25T09:45:20Z</time>
      </trkpt>
      <trkpt lat="44.21565" lon="2.98765">
        <ele>767.8</ele>
        <time>2023-06-25T09:45:21Z</time>
      </trkpt>
      <trkpt lat="44.21563" lon="2.98765">
        <ele>767.4</ele>
        <time>2023-06-25T09:45:22Z</time>
      </trkpt>
      <trkpt lat="44.21558" lon="2.98765">
        <ele>766.2</ele>
        <time>2023-06-25T09:45:24Z</time>
      </trkpt>
      <trkpt lat="44.21553" lon="2.98763">
        <ele>765.2</ele>
        <time>2023-06-25T09:45:25Z</time>
      </trkpt>
      <trkpt lat="44.21545" lon="2.98762">
        <ele>763.3</ele>
        <time>2023-06-25T09:45:27Z</time>
      </trkpt>
      <trkpt lat="44.21541" lon="2.98763">
        <ele>763.1</ele>
        <time>2023-06-25T09:45:28Z</time>
      </trkpt>
      <trkpt lat="44.21536" lon="2.98763">
        <ele>762.8</ele>
        <time>2023-06-25T09:45:29Z</time>
      </trkpt>
      <trkpt lat="44.21531" lon="2.9876">
        <ele>762.5</ele>
        <time>2023-06-25T09:45:30Z</time>
      </trkpt>
      <trkpt lat="44.21525" lon="2.98758">
        <ele>762.2</ele>
        <time>2023-06-25T09:45:31Z</time>
      </trkpt>
      <trkpt lat="44.2152" lon="2.98755">
        <ele>761.9</ele>
        <time>2023-06-25T09:45:32Z</time>
      </trkpt>
      <trkpt lat="44.21515" lon="2.98753">
        <ele>761.7</ele>
        <time>2023-06-25T09:45:33Z</time>
      </trkpt>
      <trkpt lat="44.21511" lon="2.98751">
        <ele>761.5</ele>
        <time>2023-06-25T09:45:34Z</time>
      </trkpt>
      <trkpt lat="44.21505" lon="2.98747">
        <ele>760.9</ele>
        <time>2023-06-25T09:45:36Z</time>
      </trkpt>
      <trkpt lat="44.21501" lon="2.98745">
        <ele>761</ele>
        <time>2023-06-25T09:45:37Z</time>
      </trkpt>
      <trkpt lat="44.21498" lon="2.98743">
        <ele>761.2</ele>
        <time>2023-06-25T09:45:39Z</time>
      </trkpt>
      <trkpt lat="44.21498" lon="2.9874">
        <ele>761.3</ele>
        <time>2023-06-25T09:45:40Z</time>
      </trkpt>
      <trkpt lat="44.21502" lon="2.98736">
        <ele>761.5</ele>
        <time>2023-06-25T09:45:42Z</time>
      </trkpt>
      <trkpt lat="44.21506" lon="2.98736">
        <ele>761.7</ele>
        <time>2023-06-25T09:45:43Z</time>
      </trkpt>
      <trkpt lat="44.2151" lon="2.9874">
        <ele>762</ele>
        <time>2023-06-25T09:45:44Z</time>
      </trkpt>
      <trkpt lat="44.21517" lon="2.98744">
        <ele>762.3</ele>
        <time>2023-06-25T09:45:46Z</time>
      </trkpt>
      <trkpt lat="44.21524" lon="2.98745">
        <ele>762.7</ele>
        <time>2023-06-25T09:45:47Z</time>
      </trkpt>
      <trkpt lat="44.21529" lon="2.98745">
        <ele>763</ele>
        <time>2023-06-25T09:45:48Z</time>
      </trkpt>
      <trkpt lat="44.21534" lon="2.98744">
        <ele>763.2</ele>
        <time>2023-06-25T09:45:49Z</time>
      </trkpt>
      <trkpt lat="44.21538" lon="2.98742">
        <ele>763.5</ele>
        <time>2023-06-25T09:45:50Z</time>
      </trkpt>
      <trkpt lat="44.21542" lon="2.98738">
        <ele>763.7</ele>
        <time>2023-06-25T09:45:51Z</time>
      </trkpt>
      <trkpt lat="44.21546" lon="2.98733">
        <ele>763.9</ele>
        <time>2023-06-25T09:45:52Z</time>
      </trkpt>
      <trkpt lat="44.21548" lon="2.98727">
        <ele>764.1</ele>
        <time>2023-06-25T09:45:53Z</time>
      </trkpt>
      <trkpt lat="44.21548" lon="2.98721">
        <ele>764.3</ele>
        <time>2023-06-25T09:45:54Z</time>
      </trkpt>
      <trkpt lat="44.21548" lon="2.98712">
        <ele>764.6</ele>
        <time>2023-06-25T09:45:56Z</time>
      </trkpt>
      <trkpt lat="44.21548" lon="2.98705">
        <ele>764.7</ele>
        <time>2023-06-25T09:45:57Z</time>
      </trkpt>
      <trkpt lat="44.21549" lon="2.98698">
        <ele>764.9</ele>
        <time>2023-06-25T09:45:58Z</time>
      </trkpt>
      <trkpt lat="44.21549" lon="2.98693">
        <ele>765</ele>
        <time>2023-06-25T09:45:59Z</time>
      </trkpt>
      <trkpt lat="44.2155" lon="2.98685">
        <ele>765.2</ele>
        <time>2023-06-25T09:46:00Z</time>
      </trkpt>
      <trkpt lat="44.21551" lon="2.98679">
        <ele>765.2</ele>
        <time>2023-06-25T09:46:01Z</time>
      </trkpt>
      <trkpt lat="44.21553" lon="2.98673">
        <ele>765.2</ele>
        <time>2023-06-25T09:46:02Z</time>
      </trkpt>
      <trkpt lat="44.21554" lon="2.98666">
        <ele>765.2</ele>
        <time>2023-06-25T09:46:03Z</time>
      </trkpt>
      <trkpt lat="44.21555" lon="2.98654">
        <ele>763.7</ele>
        <time>2023-06-25T09:46:05Z</time>
      </trkpt>
      <trkpt lat="44.21555" lon="2.98646">
        <ele>762.3</ele>
        <time>2023-06-25T09:46:07Z</time>
      </trkpt>
      <trkpt lat="44.21555" lon="2.98642">
        <ele>761.4</ele>
        <time>2023-06-25T09:46:08Z</time>
      </trkpt>
      <trkpt lat="44.21556" lon="2.98636">
        <ele>760.4</ele>
        <time>2023-06-25T09:46:09Z</time>
      </trkpt>
      <trkpt lat="44.21557" lon="2.98631">
        <ele>759.7</ele>
        <time>2023-06-25T09:46:10Z</time>
      </trkpt>
      <trkpt lat="44.21558" lon="2.98623">
        <ele>758.9</ele>
        <time>2023-06-25T09:46:12Z</time>
      </trkpt>
      <trkpt lat="44.21559" lon="2.98618">
        <ele>758.4</ele>
        <time>2023-06-25T09:46:13Z</time>
      </trkpt>
      <trkpt lat="44.21559" lon="2.98614">
        <ele>757.9</ele>
        <time>2023-06-25T09:46:14Z</time>
      </trkpt>
      <trkpt lat="44.21558" lon="2.98608">
        <ele>757.3</ele>
        <time>2023-06-25T09:46:15Z</time>
      </trkpt>
      <trkpt lat="44.21557" lon="2.98603">
        <ele>756.6</ele>
        <time>2023-06-25T09:46:17Z</time>
      </trkpt>
      <trkpt lat="44.21555" lon="2.98597">
        <ele>755.9</ele>
        <time>2023-06-25T09:46:18Z</time>
      </trkpt>
      <trkpt lat="44.21554" lon="2.98594">
        <ele>755.4</ele>
        <time>2023-06-25T09:46:19Z</time>
      </trkpt>
      <trkpt lat="44.21552" lon="2.98589">
        <ele>754.7</ele>
        <time>2023-06-25T09:46:20Z</time>
      </trkpt>
      <trkpt lat="44.2155" lon="2.98584">
        <ele>754</ele>
        <time>2023-06-25T09:46:21Z</time>
      </trkpt>
      <trkpt lat="44.21548" lon="2.98575">
        <ele>752.9</ele>
        <time>2023-06-25T09:46:23Z</time>
      </trkpt>
      <trkpt lat="44.21546" lon="2.98567">
        <ele>751.8</ele>
        <time>2023-06-25T09:46:25Z</time>
      </trkpt>
      <trkpt lat="44.21546" lon="2.98562">
        <ele>750.6</ele>
        <time>2023-06-25T09:46:26Z</time>
      </trkpt>
      <trkpt lat="44.21544" lon="2.98559">
        <ele>750.3</ele>
        <time>2023-06-25T09:46:27Z</time>
      </trkpt>
      <trkpt lat="44.2154" lon="2.98562">
        <ele>749.8</ele>
        <time>2023-06-25T09:46:29Z</time>
      </trkpt>
      <trkpt lat="44.21534" lon="2.98563">
        <ele>749.2</ele>
        <time>2023-06-25T09:46:30Z</time>
      </trkpt>
      <trkpt lat="44.21529" lon="2.98559">
        <ele>748.5</ele>
        <time>2023-06-25T09:46:31Z</time>
      </trkpt>
      <trkpt lat="44.21525" lon="2.98555">
        <ele>747.9</ele>
        <time>2023-06-25T09:46:32Z</time>
      </trkpt>
      <trkpt lat="44.21524" lon="2.98554">
        <ele>747.7</ele>
        <time>2023-06-25T09:46:33Z</time>
      </trkpt>
      <trkpt lat="44.21522" lon="2.98553">
        <ele>747.6</ele>
        <time>2023-06-25T09:46:35Z</time>
      </trkpt>
      <trkpt lat="44.21522" lon="2.98554">
        <ele>747.5</ele>
        <time>2023-06-25T09:46:36Z</time>
      </trkpt>
      <trkpt lat="44.21522" lon="2.98554">
        <ele>747.4</ele>
        <time>2023-06-25T09:46:37Z</time>
      </trkpt>
      <trkpt lat="44.21523" lon="2.98555">
        <ele>747.3</ele>
        <time>2023-06-25T09:46:38Z</time>
      </trkpt>
      <trkpt lat="44.21524" lon="2.98555">
        <ele>747.2</ele>
        <time>2023-06-25T09:46:40Z</time>
      </trkpt>
      <trkpt lat="44.21524" lon="2.98556">
        <ele>747.2</ele>
        <time>2023-06-25T09:46:41Z</time>
      </trkpt>
      <trkpt lat="44.21524" lon="2.98556">
        <ele>747.1</ele>
        <time>2023-06-25T09:46:42Z</time>
      </trkpt>
      <trkpt lat="44.21524" lon="2.98555">
        <ele>747.1</ele>
        <time>2023-06-25T09:46:43Z</time>
      </trkpt>
      <trkpt lat="44.21523" lon="2.98555">
        <ele>747.1</ele>
        <time>2023-06-25T09:46:45Z</time>
      </trkpt>
      <trkpt lat="44.21525" lon="2.98556">
        <ele>746.9</ele>
        <time>2023-06-25T09:47:14Z</time>
      </trkpt>
      <trkpt lat="44.21525" lon="2.98557">
        <ele>746.8</ele>
        <time>2023-06-25T09:47:15Z</time>
      </trkpt>
      <trkpt lat="44.21527" lon="2.98559">
        <ele>746.6</ele>
        <time>2023-06-25T09:47:16Z</time>
      </trkpt>
      <trkpt lat="44.21528" lon="2.98561">
        <ele>746.4</ele>
        <time>2023-06-25T09:47:17Z</time>
      </trkpt>
      <trkpt lat="44.21529" lon="2.98564">
        <ele>746.1</ele>
        <time>2023-06-25T09:47:19Z</time>
      </trkpt>
      <trkpt lat="44.21529" lon="2.98566">
        <ele>746</ele>
        <time>2023-06-25T09:47:20Z</time>
      </trkpt>
      <trkpt lat="44.21529" lon="2.98568">
        <ele>746</ele>
        <time>2023-06-25T09:47:21Z</time>
      </trkpt>
      <trkpt lat="44.21529" lon="2.98569">
        <ele>746</ele>
        <time>2023-06-25T09:47:22Z</time>
      </trkpt>
      <trkpt lat="44.2153" lon="2.9857">
        <ele>746</ele>
        <time>2023-06-25T09:47:23Z</time>
      </trkpt>
      <trkpt lat="44.2153" lon="2.9857">
        <ele>746</ele>
        <time>2023-06-25T09:47:25Z</time>
      </trkpt>
      <trkpt lat="44.2153" lon="2.9857">
        <ele>746</ele>
        <time>2023-06-25T09:47:26Z</time>
      </trkpt>
      <trkpt lat="44.21531" lon="2.9857">
        <ele>746</ele>
        <time>2023-06-25T09:47:27Z</time>
      </trkpt>
      <trkpt lat="44.21531" lon="2.9857">
        <ele>746</ele>
        <time>2023-06-25T09:47:29Z</time>
      </trkpt>
      <trkpt lat="44.21532" lon="2.9857">
        <ele>746</ele>
        <time>2023-06-25T09:47:30Z</time>
      </trkpt>
      <trkpt lat="44.21532" lon="2.98571">
        <ele>746</ele>
        <time>2023-06-25T09:47:32Z</time>
      </trkpt>
      <trkpt lat="44.21538" lon="2.98562">
        <ele>746</ele>
        <time>2023-06-25T09:56:35Z</time>
      </trkpt>
      <trkpt lat="44.21541" lon="2.9856">
        <ele>750.7</ele>
        <time>2023-06-25T09:56:36Z</time>
      </trkpt>
      <trkpt lat="44.21545" lon="2.98557">
        <ele>749.4</ele>
        <time>2023-06-25T09:56:38Z</time>
      </trkpt>
      <trkpt lat="44.21546" lon="2.98556">
        <ele>748.9</ele>
        <time>2023-06-25T09:56:39Z</time>
      </trkpt>
      <trkpt lat="44.21549" lon="2.98552">
        <ele>747.9</ele>
        <time>2023-06-25T09:56:41Z</time>
      </trkpt>
      <trkpt lat="44.21549" lon="2.9855">
        <ele>747.4</ele>
        <time>2023-06-25T09:56:42Z</time>
      </trkpt>
      <trkpt lat="44.21552" lon="2.98547">
        <ele>746.5</ele>
        <time>2023-06-25T09:56:44Z</time>
      </trkpt>
      <trkpt lat="44.21553" lon="2.98546">
        <ele>746</ele>
        <time>2023-06-25T09:56:45Z</time>
      </trkpt>
      <trkpt lat="44.21556" lon="2.98544">
        <ele>745.8</ele>
        <time>2023-06-25T09:56:47Z</time>
      </trkpt>
      <trkpt lat="44.21557" lon="2.98542">
        <ele>746.1</ele>
        <time>2023-06-25T09:56:48Z</time>
      </trkpt>
      <trkpt lat="44.2156" lon="2.98541">
        <ele>746.7</ele>
        <time>2023-06-25T09:56:50Z</time>
      </trkpt>
      <trkpt lat="44.21562" lon="2.9854">
        <ele>747</ele>
        <time>2023-06-25T09:56:51Z</time>
      </trkpt>
      <trkpt lat="44.21565" lon="2.98539">
        <ele>747.7</ele>
        <time>2023-06-25T09:56:53Z</time>
      </trkpt>
      <trkpt lat="44.21567" lon="2.98537">
        <ele>748.1</ele>
        <time>2023-06-25T09:56:54Z</time>
      </trkpt>
      <trkpt lat="44.21571" lon="2.98535">
        <ele>748.9</ele>
        <time>2023-06-25T09:56:56Z</time>
      </trkpt>
      <trkpt lat="44.21574" lon="2.98535">
        <ele>749.4</ele>
        <time>2023-06-25T09:56:57Z</time>
      </trkpt>
      <trkpt lat="44.21577" lon="2.98533">
        <ele>750</ele>
        <time>2023-06-25T09:56:59Z</time>
      </trkpt>
      <trkpt lat="44.21579" lon="2.98533">
        <ele>750.3</ele>
        <time>2023-06-25T09:57:00Z</time>
      </trkpt>
      <trkpt lat="44.21581" lon="2.98532">
        <ele>750.7</ele>
        <time>2023-06-25T09:57:02Z</time>
      </trkpt>
      <trkpt lat="44.21583" lon="2.98532">
        <ele>751.1</ele>
        <time>2023-06-25T09:57:03Z</time>
      </trkpt>
      <trkpt lat="44.21585" lon="2.98531">
        <ele>751.4</ele>
        <time>2023-06-25T09:57:04Z</time>
      </trkpt>
      <trkpt lat="44.21589" lon="2.98528">
        <ele>752.2</ele>
        <time>2023-06-25T09:57:06Z</time>
      </trkpt>
      <trkpt lat="44.21592" lon="2.98526">
        <ele>752.9</ele>
        <time>2023-06-25T09:57:07Z</time>
      </trkpt>
      <trkpt lat="44.21593" lon="2.98526">
        <ele>753.2</ele>
        <time>2023-06-25T09:57:08Z</time>
      </trkpt>
      <trkpt lat="44.21597" lon="2.98524">
        <ele>753.9</ele>
        <time>2023-06-25T09:57:10Z</time>
      </trkpt>
      <trkpt lat="44.21602" lon="2.98523">
        <ele>754.8</ele>
        <time>2023-06-25T09:57:12Z</time>
      </trkpt>
      <trkpt lat="44.21604" lon="2.98525">
        <ele>755.2</ele>
        <time>2023-06-25T09:57:13Z</time>
      </trkpt>
      <trkpt lat="44.21605" lon="2.98525">
        <ele>755.4</ele>
        <time>2023-06-25T09:57:14Z</time>
      </trkpt>
      <trkpt lat="44.21608" lon="2.98525">
        <ele>755.8</ele>
        <time>2023-06-25T09:57:15Z</time>
      </trkpt>
      <trkpt lat="44.21612" lon="2.98524">
        <ele>756.7</ele>
        <time>2023-06-25T09:57:17Z</time>
      </trkpt>
      <trkpt lat="44.21615" lon="2.98525">
        <ele>757.2</ele>
        <time>2023-06-25T09:57:19Z</time>
      </trkpt>
      <trkpt lat="44.21618" lon="2.98525">
        <ele>757.8</ele>
        <time>2023-06-25T09:57:20Z</time>
      </trkpt>
      <trkpt lat="44.21619" lon="2.98524">
        <ele>758</ele>
        <time>2023-06-25T09:57:21Z</time>
      </trkpt>
      <trkpt lat="44.21622" lon="2.98522">
        <ele>758.7</ele>
        <time>2023-06-25T09:57:22Z</time>
      </trkpt>
      <trkpt lat="44.21624" lon="2.98522">
        <ele>759</ele>
        <time>2023-06-25T09:57:23Z</time>
      </trkpt>
      <trkpt lat="44.21627" lon="2.98521">
        <ele>759.5</ele>
        <time>2023-06-25T09:57:24Z</time>
      </trkpt>
      <trkpt lat="44.2163" lon="2.9852">
        <ele>760.2</ele>
        <time>2023-06-25T09:57:26Z</time>
      </trkpt>
      <trkpt lat="44.21633" lon="2.98519">
        <ele>760.8</ele>
        <time>2023-06-25T09:57:27Z</time>
      </trkpt>
      <trkpt lat="44.21636" lon="2.98518">
        <ele>761.3</ele>
        <time>2023-06-25T09:57:28Z</time>
      </trkpt>
      <trkpt lat="44.21639" lon="2.98517">
        <ele>761.9</ele>
        <time>2023-06-25T09:57:29Z</time>
      </trkpt>
      <trkpt lat="44.21643" lon="2.98516">
        <ele>762.5</ele>
        <time>2023-06-25T09:57:30Z</time>
      </trkpt>
      <trkpt lat="44.21647" lon="2.98514">
        <ele>763.3</ele>
        <time>2023-06-25T09:57:32Z</time>
      </trkpt>
      <trkpt lat="44.21649" lon="2.98513">
        <ele>763.6</ele>
        <time>2023-06-25T09:57:33Z</time>
      </trkpt>
      <trkpt lat="44.2165" lon="2.98513">
        <ele>763.9</ele>
        <time>2023-06-25T09:57:34Z</time>
      </trkpt>
      <trkpt lat="44.21653" lon="2.98513">
        <ele>764.3</ele>
        <time>2023-06-25T09:57:35Z</time>
      </trkpt>
      <trkpt lat="44.21657" lon="2.98514">
        <ele>764.9</ele>
        <time>2023-06-25T09:57:37Z</time>
      </trkpt>
      <trkpt lat="44.2166" lon="2.98516">
        <ele>765.3</ele>
        <time>2023-06-25T09:57:38Z</time>
      </trkpt>
      <trkpt lat="44.21663" lon="2.98516">
        <ele>765.7</ele>
        <time>2023-06-25T09:57:39Z</time>
      </trkpt>
      <trkpt lat="44.21665" lon="2.98517">
        <ele>765.9</ele>
        <time>2023-06-25T09:57:40Z</time>
      </trkpt>
      <trkpt lat="44.21669" lon="2.98516">
        <ele>766</ele>
        <time>2023-06-25T09:57:42Z</time>
      </trkpt>
      <trkpt lat="44.21672" lon="2.98514">
        <ele>766</ele>
        <time>2023-06-25T09:57:43Z</time>
      </trkpt>
      <trkpt lat="44.21675" lon="2.98512">
        <ele>766.1</ele>
        <time>2023-06-25T09:57:45Z</time>
      </trkpt>
      <trkpt lat="44.21679" lon="2.98508">
        <ele>766.1</ele>
        <time>2023-06-25T09:57:46Z</time>
      </trkpt>
      <trkpt lat="44.2168" lon="2.98507">
        <ele>766.1</ele>
        <time>2023-06-25T09:57:47Z</time>
      </trkpt>
      <trkpt lat="44.21683" lon="2.98504">
        <ele>766.2</ele>
        <time>2023-06-25T09:57:49Z</time>
      </trkpt>
      <trkpt lat="44.21686" lon="2.98502">
        <ele>766.3</ele>
        <time>2023-06-25T09:57:50Z</time>
      </trkpt>
      <trkpt lat="44.21689" lon="2.985">
        <ele>766.3</ele>
        <time>2023-06-25T09:57:51Z</time>
      </trkpt>
      <trkpt lat="44.21693" lon="2.98498">
        <ele>766.4</ele>
        <time>2023-06-25T09:57:52Z</time>
      </trkpt>
      <trkpt lat="44.21696" lon="2.98496">
        <ele>766.5</ele>
        <time>2023-06-25T09:57:53Z</time>
      </trkpt>
      <trkpt lat="44.217" lon="2.98494">
        <ele>766.6</ele>
        <time>2023-06-25T09:57:54Z</time>
      </trkpt>
      <trkpt lat="44.21704" lon="2.98492">
        <ele>766.7</ele>
        <time>2023-06-25T09:57:55Z</time>
      </trkpt>
      <trkpt lat="44.21709" lon="2.98489">
        <ele>766.8</ele>
        <time>2023-06-25T09:57:57Z</time>
      </trkpt>
      <trkpt lat="44.21713" lon="2.98486">
        <ele>766.9</ele>
        <time>2023-06-25T09:57:58Z</time>
      </trkpt>
      <trkpt lat="44.21717" lon="2.98484">
        <ele>767</ele>
        <time>2023-06-25T09:57:59Z</time>
      </trkpt>
      <trkpt lat="44.21721" lon="2.98482">
        <ele>767.1</ele>
        <time>2023-06-25T09:58:00Z</time>
      </trkpt>
      <trkpt lat="44.21726" lon="2.98481">
        <ele>767.2</ele>
        <time>2023-06-25T09:58:02Z</time>
      </trkpt>
      <trkpt lat="44.2173" lon="2.98479">
        <ele>767.3</ele>
        <time>2023-06-25T09:58:03Z</time>
      </trkpt>
      <trkpt lat="44.21735" lon="2.98477">
        <ele>767.5</ele>
        <time>2023-06-25T09:58:04Z</time>
      </trkpt>
      <trkpt lat="44.21739" lon="2.98476">
        <ele>767.6</ele>
        <time>2023-06-25T09:58:05Z</time>
      </trkpt>
      <trkpt lat="44.21742" lon="2.98474">
        <ele>767.7</ele>
        <time>2023-06-25T09:58:06Z</time>
      </trkpt>
      <trkpt lat="44.21748" lon="2.98472">
        <ele>767.8</ele>
        <time>2023-06-25T09:58:08Z</time>
      </trkpt>
      <trkpt lat="44.21752" lon="2.98469">
        <ele>767.9</ele>
        <time>2023-06-25T09:58:09Z</time>
      </trkpt>
      <trkpt lat="44.21756" lon="2.98465">
        <ele>768</ele>
        <time>2023-06-25T09:58:10Z</time>
      </trkpt>
      <trkpt lat="44.21762" lon="2.98462">
        <ele>768.2</ele>
        <time>2023-06-25T09:58:12Z</time>
      </trkpt>
      <trkpt lat="44.21766" lon="2.98459">
        <ele>768.3</ele>
        <time>2023-06-25T09:58:13Z</time>
      </trkpt>
      <trkpt lat="44.2177" lon="2.98457">
        <ele>768.3</ele>
        <time>2023-06-25T09:58:14Z</time>
      </trkpt>
      <trkpt lat="44.21774" lon="2.98454">
        <ele>768.4</ele>
        <time>2023-06-25T09:58:15Z</time>
      </trkpt>
      <trkpt lat="44.21778" lon="2.98452">
        <ele>768.5</ele>
        <time>2023-06-25T09:58:17Z</time>
      </trkpt>
      <trkpt lat="44.21782" lon="2.9845">
        <ele>768.5</ele>
        <time>2023-06-25T09:58:18Z</time>
      </trkpt>
      <trkpt lat="44.21785" lon="2.98449">
        <ele>768.6</ele>
        <time>2023-06-25T09:58:19Z</time>
      </trkpt>
      <trkpt lat="44.21791" lon="2.98447">
        <ele>768.7</ele>
        <time>2023-06-25T09:58:21Z</time>
      </trkpt>
      <trkpt lat="44.21794" lon="2.98446">
        <ele>768.7</ele>
        <time>2023-06-25T09:58:22Z</time>
      </trkpt>
      <trkpt lat="44.21797" lon="2.98445">
        <ele>768.7</ele>
        <time>2023-06-25T09:58:23Z</time>
      </trkpt>
      <trkpt lat="44.21802" lon="2.98443">
        <ele>768.6</ele>
        <time>2023-06-25T09:58:25Z</time>
      </trkpt>
      <trkpt lat="44.21806" lon="2.98441">
        <ele>768.6</ele>
        <time>2023-06-25T09:58:27Z</time>
      </trkpt>
      <trkpt lat="44.21811" lon="2.98438">
        <ele>768.5</ele>
        <time>2023-06-25T09:58:28Z</time>
      </trkpt>
      <trkpt lat="44.21815" lon="2.98437">
        <ele>768.3</ele>
        <time>2023-06-25T09:58:29Z</time>
      </trkpt>
      <trkpt lat="44.2182" lon="2.98437">
        <ele>768.1</ele>
        <time>2023-06-25T09:58:30Z</time>
      </trkpt>
      <trkpt lat="44.21826" lon="2.98437">
        <ele>767.8</ele>
        <time>2023-06-25T09:58:31Z</time>
      </trkpt>
      <trkpt lat="44.21831" lon="2.98437">
        <ele>767.5</ele>
        <time>2023-06-25T09:58:32Z</time>
      </trkpt>
      <trkpt lat="44.21839" lon="2.98438">
        <ele>767.1</ele>
        <time>2023-06-25T09:58:33Z</time>
      </trkpt>
      <trkpt lat="44.21846" lon="2.98439">
        <ele>766.6</ele>
        <time>2023-06-25T09:58:34Z</time>
      </trkpt>
      <trkpt lat="44.21853" lon="2.9844">
        <ele>766.1</ele>
        <time>2023-06-25T09:58:35Z</time>
      </trkpt>
      <trkpt lat="44.21861" lon="2.98442">
        <ele>765.7</ele>
        <time>2023-06-25T09:58:36Z</time>
      </trkpt>
      <trkpt lat="44.21867" lon="2.98443">
        <ele>765.3</ele>
        <time>2023-06-25T09:58:37Z</time>
      </trkpt>
      <trkpt lat="44.21874" lon="2.98443">
        <ele>764.9</ele>
        <time>2023-06-25T09:58:38Z</time>
      </trkpt>
      <trkpt lat="44.21881" lon="2.98439">
        <ele>764.5</ele>
        <time>2023-06-25T09:58:39Z</time>
      </trkpt>
      <trkpt lat="44.21888" lon="2.98433">
        <ele>764</ele>
        <time>2023-06-25T09:58:40Z</time>
      </trkpt>
      <trkpt lat="44.21893" lon="2.98424">
        <ele>763.6</ele>
        <time>2023-06-25T09:58:41Z</time>
      </trkpt>
      <trkpt lat="44.21894" lon="2.98413">
        <ele>763</ele>
        <time>2023-06-25T09:58:42Z</time>
      </trkpt>
      <trkpt lat="44.21894" lon="2.984">
        <ele>762.5</ele>
        <time>2023-06-25T09:58:43Z</time>
      </trkpt>
      <trkpt lat="44.21892" lon="2.98388">
        <ele>762.1</ele>
        <time>2023-06-25T09:58:44Z</time>
      </trkpt>
      <trkpt lat="44.2189" lon="2.98376">
        <ele>761.7</ele>
        <time>2023-06-25T09:58:45Z</time>
      </trkpt>
      <trkpt lat="44.21888" lon="2.98364">
        <ele>761.4</ele>
        <time>2023-06-25T09:58:46Z</time>
      </trkpt>
      <trkpt lat="44.21887" lon="2.98352">
        <ele>761.2</ele>
        <time>2023-06-25T09:58:47Z</time>
      </trkpt>
      <trkpt lat="44.21887" lon="2.9834">
        <ele>761</ele>
        <time>2023-06-25T09:58:48Z</time>
      </trkpt>
      <trkpt lat="44.21887" lon="2.98328">
        <ele>761</ele>
        <time>2023-06-25T09:58:49Z</time>
      </trkpt>
      <trkpt lat="44.21888" lon="2.98317">
        <ele>760.9</ele>
        <time>2023-06-25T09:58:50Z</time>
      </trkpt>
      <trkpt lat="44.2189" lon="2.98305">
        <ele>760.8</ele>
        <time>2023-06-25T09:58:51Z</time>
      </trkpt>
      <trkpt lat="44.21892" lon="2.98295">
        <ele>760.8</ele>
        <time>2023-06-25T09:58:52Z</time>
      </trkpt>
      <trkpt lat="44.21895" lon="2.98285">
        <ele>760.8</ele>
        <time>2023-06-25T09:58:53Z</time>
      </trkpt>
      <trkpt lat="44.21899" lon="2.98277">
        <ele>760.9</ele>
        <time>2023-06-25T09:58:54Z</time>
      </trkpt>
      <trkpt lat="44.21903" lon="2.98268">
        <ele>760.9</ele>
        <time>2023-06-25T09:58:55Z</time>
      </trkpt>
      <trkpt lat="44.21907" lon="2.98261">
        <ele>760.9</ele>
        <time>2023-06-25T09:58:56Z</time>
      </trkpt>
      <trkpt lat="44.21911" lon="2.98254">
        <ele>760.9</ele>
        <time>2023-06-25T09:58:57Z</time>
      </trkpt>
      <trkpt lat="44.21915" lon="2.98248">
        <ele>761</ele>
        <time>2023-06-25T09:58:58Z</time>
      </trkpt>
      <trkpt lat="44.21919" lon="2.98242">
        <ele>761</ele>
        <time>2023-06-25T09:58:59Z</time>
      </trkpt>
      <trkpt lat="44.21924" lon="2.98236">
        <ele>761</ele>
        <time>2023-06-25T09:59:00Z</time>
      </trkpt>
      <trkpt lat="44.21928" lon="2.9823">
        <ele>761</ele>
        <time>2023-06-25T09:59:01Z</time>
      </trkpt>
      <trkpt lat="44.21932" lon="2.98224">
        <ele>761.1</ele>
        <time>2023-06-25T09:59:02Z</time>
      </trkpt>
      <trkpt lat="44.21936" lon="2.98219">
        <ele>761.1</ele>
        <time>2023-06-25T09:59:03Z</time>
      </trkpt>
      <trkpt lat="44.21939" lon="2.98214">
        <ele>761.1</ele>
        <time>2023-06-25T09:59:04Z</time>
      </trkpt>
      <trkpt lat="44.21943" lon="2.98208">
        <ele>761.1</ele>
        <time>2023-06-25T09:59:05Z</time>
      </trkpt>
      <trkpt lat="44.21947" lon="2.98203">
        <ele>761.1</ele>
        <time>2023-06-25T09:59:06Z</time>
      </trkpt>
      <trkpt lat="44.21951" lon="2.98198">
        <ele>761.2</ele>
        <time>2023-06-25T09:59:07Z</time>
      </trkpt>
      <trkpt lat="44.21955" lon="2.98192">
        <ele>761.2</ele>
        <time>2023-06-25T09:59:08Z</time>
      </trkpt>
      <trkpt lat="44.2196" lon="2.98187">
        <ele>761.2</ele>
        <time>2023-06-25T09:59:09Z</time>
      </trkpt>
      <trkpt lat="44.21964" lon="2.98182">
        <ele>761.2</ele>
        <time>2023-06-25T09:59:10Z</time>
      </trkpt>
      <trkpt lat="44.21968" lon="2.98176">
        <ele>761.2</ele>
        <time>2023-06-25T09:59:11Z</time>
      </trkpt>
      <trkpt lat="44.21973" lon="2.98171">
        <ele>761.2</ele>
        <time>2023-06-25T09:59:12Z</time>
      </trkpt>
      <trkpt lat="44.21978" lon="2.98166">
        <ele>761.2</ele>
        <time>2023-06-25T09:59:13Z</time>
      </trkpt>
      <trkpt lat="44.21983" lon="2.98161">
        <ele>761.2</ele>
        <time>2023-06-25T09:59:14Z</time>
      </trkpt>
      <trkpt lat="44.21988" lon="2.98157">
        <ele>761.2</ele>
        <time>2023-06-25T09:59:15Z</time>
      </trkpt>
      <trkpt lat="44.21993" lon="2.98154">
        <ele>761.2</ele>
        <time>2023-06-25T09:59:16Z</time>
      </trkpt>
      <trkpt lat="44.21997" lon="2.9815">
        <ele>761.2</ele>
        <time>2023-06-25T09:59:17Z</time>
      </trkpt>
      <trkpt lat="44.22002" lon="2.98147">
        <ele>761.2</ele>
        <time>2023-06-25T09:59:18Z</time>
      </trkpt>
      <trkpt lat="44.22006" lon="2.98143">
        <ele>761.2</ele>
        <time>2023-06-25T09:59:19Z</time>
      </trkpt>
      <trkpt lat="44.22011" lon="2.98141">
        <ele>761.2</ele>
        <time>2023-06-25T09:59:20Z</time>
      </trkpt>
      <trkpt lat="44.22016" lon="2.98139">
        <ele>761.2</ele>
        <time>2023-06-25T09:59:21Z</time>
      </trkpt>
      <trkpt lat="44.22021" lon="2.98136">
        <ele>761.2</ele>
        <time>2023-06-25T09:59:22Z</time>
      </trkpt>
      <trkpt lat="44.22027" lon="2.98133">
        <ele>761.2</ele>
        <time>2023-06-25T09:59:23Z</time>
      </trkpt>
      <trkpt lat="44.22032" lon="2.9813">
        <ele>761.2</ele>
        <time>2023-06-25T09:59:24Z</time>
      </trkpt>
      <trkpt lat="44.22037" lon="2.98127">
        <ele>761.2</ele>
        <time>2023-06-25T09:59:25Z</time>
      </trkpt>
      <trkpt lat="44.22042" lon="2.98124">
        <ele>761.1</ele>
        <time>2023-06-25T09:59:26Z</time>
      </trkpt>
      <trkpt lat="44.22048" lon="2.98121">
        <ele>761.1</ele>
        <time>2023-06-25T09:59:27Z</time>
      </trkpt>
      <trkpt lat="44.22053" lon="2.98118">
        <ele>761.1</ele>
        <time>2023-06-25T09:59:28Z</time>
      </trkpt>
      <trkpt lat="44.22058" lon="2.98115">
        <ele>761.1</ele>
        <time>2023-06-25T09:59:29Z</time>
      </trkpt>
      <trkpt lat="44.22063" lon="2.98111">
        <ele>761.1</ele>
        <time>2023-06-25T09:59:30Z</time>
      </trkpt>
      <trkpt lat="44.22068" lon="2.98107">
        <ele>761.1</ele>
        <time>2023-06-25T09:59:31Z</time>
      </trkpt>
      <trkpt lat="44.22072" lon="2.98102">
        <ele>761.1</ele>
        <time>2023-06-25T09:59:32Z</time>
      </trkpt>
      <trkpt lat="44.22077" lon="2.98098">
        <ele>761.1</ele>
        <time>2023-06-25T09:59:33Z</time>
      </trkpt>
      <trkpt lat="44.22081" lon="2.98094">
        <ele>761.1</ele>
        <time>2023-06-25T09:59:34Z</time>
      </trkpt>
      <trkpt lat="44.22086" lon="2.9809">
        <ele>761.1</ele>
        <time>2023-06-25T09:59:35Z</time>
      </trkpt>
      <trkpt lat="44.22091" lon="2.98086">
        <ele>761.1</ele>
        <time>2023-06-25T09:59:36Z</time>
      </trkpt>
      <trkpt lat="44.22096" lon="2.98082">
        <ele>761.1</ele>
        <time>2023-06-25T09:59:37Z</time>
      </trkpt>
      <trkpt lat="44.22102" lon="2.98077">
        <ele>761.1</ele>
        <time>2023-06-25T09:59:38Z</time>
      </trkpt>
      <trkpt lat="44.22106" lon="2.98073">
        <ele>761.1</ele>
        <time>2023-06-25T09:59:39Z</time>
      </trkpt>
      <trkpt lat="44.22111" lon="2.98068">
        <ele>761</ele>
        <time>2023-06-25T09:59:40Z</time>
      </trkpt>
      <trkpt lat="44.22116" lon="2.98063">
        <ele>761</ele>
        <time>2023-06-25T09:59:41Z</time>
      </trkpt>
      <trkpt lat="44.22121" lon="2.98059">
        <ele>760.9</ele>
        <time>2023-06-25T09:59:42Z</time>
      </trkpt>
      <trkpt lat="44.22126" lon="2.98054">
        <ele>760.9</ele>
        <time>2023-06-25T09:59:43Z</time>
      </trkpt>
      <trkpt lat="44.22131" lon="2.9805">
        <ele>760.8</ele>
        <time>2023-06-25T09:59:44Z</time>
      </trkpt>
      <trkpt lat="44.22136" lon="2.98045">
        <ele>760.7</ele>
        <time>2023-06-25T09:59:45Z</time>
      </trkpt>
      <trkpt lat="44.22141" lon="2.9804">
        <ele>760.6</ele>
        <time>2023-06-25T09:59:46Z</time>
      </trkpt>
      <trkpt lat="44.22146" lon="2.98035">
        <ele>760.6</ele>
        <time>2023-06-25T09:59:47Z</time>
      </trkpt>
      <trkpt lat="44.2215" lon="2.98029">
        <ele>760.5</ele>
        <time>2023-06-25T09:59:48Z</time>
      </trkpt>
      <trkpt lat="44.22154" lon="2.98023">
        <ele>760.4</ele>
        <time>2023-06-25T09:59:49Z</time>
      </trkpt>
      <trkpt lat="44.22158" lon="2.98016">
        <ele>760.4</ele>
        <time>2023-06-25T09:59:50Z</time>
      </trkpt>
      <trkpt lat="44.22162" lon="2.9801">
        <ele>760.4</ele>
        <time>2023-06-25T09:59:51Z</time>
      </trkpt>
      <trkpt lat="44.22167" lon="2.98004">
        <ele>760.3</ele>
        <time>2023-06-25T09:59:52Z</time>
      </trkpt>
      <trkpt lat="44.22171" lon="2.97998">
        <ele>760.3</ele>
        <time>2023-06-25T09:59:53Z</time>
      </trkpt>
      <trkpt lat="44.22175" lon="2.97992">
        <ele>760.2</ele>
        <time>2023-06-25T09:59:54Z</time>
      </trkpt>
      <trkpt lat="44.2218" lon="2.97985">
        <ele>760.2</ele>
        <time>2023-06-25T09:59:55Z</time>
      </trkpt>
      <trkpt lat="44.22183" lon="2.97979">
        <ele>760.1</ele>
        <time>2023-06-25T09:59:56Z</time>
      </trkpt>
      <trkpt lat="44.22187" lon="2.97973">
        <ele>760.1</ele>
        <time>2023-06-25T09:59:57Z</time>
      </trkpt>
      <trkpt lat="44.22191" lon="2.97967">
        <ele>760.1</ele>
        <time>2023-06-25T09:59:58Z</time>
      </trkpt>
      <trkpt lat="44.22195" lon="2.97961">
        <ele>760</ele>
        <time>2023-06-25T09:59:59Z</time>
      </trkpt>
      <trkpt lat="44.222" lon="2.97955">
        <ele>760</ele>
        <time>2023-06-25T10:00:00Z</time>
      </trkpt>
      <trkpt lat="44.22204" lon="2.9795">
        <ele>759.9</ele>
        <time>2023-06-25T10:00:01Z</time>
      </trkpt>
      <trkpt lat="44.22208" lon="2.97944">
        <ele>759.9</ele>
        <time>2023-06-25T10:00:02Z</time>
      </trkpt>
      <trkpt lat="44.22212" lon="2.97938">
        <ele>759.8</ele>
        <time>2023-06-25T10:00:03Z</time>
      </trkpt>
      <trkpt lat="44.22216" lon="2.97932">
        <ele>759.7</ele>
        <time>2023-06-25T10:00:04Z</time>
      </trkpt>
      <trkpt lat="44.22221" lon="2.97926">
        <ele>759.6</ele>
        <time>2023-06-25T10:00:05Z</time>
      </trkpt>
      <trkpt lat="44.22226" lon="2.9792">
        <ele>759.5</ele>
        <time>2023-06-25T10:00:06Z</time>
      </trkpt>
      <trkpt lat="44.22231" lon="2.97914">
        <ele>759.4</ele>
        <time>2023-06-25T10:00:07Z</time>
      </trkpt>
      <trkpt lat="44.22236" lon="2.97908">
        <ele>759.3</ele>
        <time>2023-06-25T10:00:08Z</time>
      </trkpt>
      <trkpt lat="44.22241" lon="2.97903">
        <ele>759.2</ele>
        <time>2023-06-25T10:00:09Z</time>
      </trkpt>
      <trkpt lat="44.22246" lon="2.97897">
        <ele>759.1</ele>
        <time>2023-06-25T10:00:10Z</time>
      </trkpt>
      <trkpt lat="44.2225" lon="2.97891">
        <ele>759.1</ele>
        <time>2023-06-25T10:00:11Z</time>
      </trkpt>
      <trkpt lat="44.22255" lon="2.97886">
        <ele>759</ele>
        <time>2023-06-25T10:00:12Z</time>
      </trkpt>
      <trkpt lat="44.2226" lon="2.9788">
        <ele>758.9</ele>
        <time>2023-06-25T10:00:13Z</time>
      </trkpt>
      <trkpt lat="44.22265" lon="2.97875">
        <ele>758.9</ele>
        <time>2023-06-25T10:00:14Z</time>
      </trkpt>
      <trkpt lat="44.2227" lon="2.9787">
        <ele>758.8</ele>
        <time>2023-06-25T10:00:15Z</time>
      </trkpt>
      <trkpt lat="44.22275" lon="2.97866">
        <ele>758.7</ele>
        <time>2023-06-25T10:00:16Z</time>
      </trkpt>
      <trkpt lat="44.22281" lon="2.97861">
        <ele>758.5</ele>
        <time>2023-06-25T10:00:17Z</time>
      </trkpt>
      <trkpt lat="44.22286" lon="2.97856">
        <ele>758.4</ele>
        <time>2023-06-25T10:00:18Z</time>
      </trkpt>
      <trkpt lat="44.22291" lon="2.9785">
        <ele>758.3</ele>
        <time>2023-06-25T10:00:19Z</time>
      </trkpt>
      <trkpt lat="44.22296" lon="2.97843">
        <ele>758.2</ele>
        <time>2023-06-25T10:00:20Z</time>
      </trkpt>
      <trkpt lat="44.223" lon="2.97836">
        <ele>758.1</ele>
        <time>2023-06-25T10:00:21Z</time>
      </trkpt>
      <trkpt lat="44.22303" lon="2.97828">
        <ele>758.1</ele>
        <time>2023-06-25T10:00:22Z</time>
      </trkpt>
      <trkpt lat="44.22303" lon="2.9782">
        <ele>758.1</ele>
        <time>2023-06-25T10:00:23Z</time>
      </trkpt>
      <trkpt lat="44.22304" lon="2.97811">
        <ele>758</ele>
        <time>2023-06-25T10:00:24Z</time>
      </trkpt>
      <trkpt lat="44.22304" lon="2.97802">
        <ele>758</ele>
        <time>2023-06-25T10:00:25Z</time>
      </trkpt>
      <trkpt lat="44.22304" lon="2.97793">
        <ele>758</ele>
        <time>2023-06-25T10:00:26Z</time>
      </trkpt>
      <trkpt lat="44.22303" lon="2.97785">
        <ele>757.9</ele>
        <time>2023-06-25T10:00:27Z</time>
      </trkpt>
      <trkpt lat="44.22303" lon="2.97776">
        <ele>757.8</ele>
        <time>2023-06-25T10:00:28Z</time>
      </trkpt>
      <trkpt lat="44.22303" lon="2.97768">
        <ele>757.7</ele>
        <time>2023-06-25T10:00:29Z</time>
      </trkpt>
      <trkpt lat="44.22304" lon="2.97759">
        <ele>757.6</ele>
        <time>2023-06-25T10:00:30Z</time>
      </trkpt>
      <trkpt lat="44.22305" lon="2.97751">
        <ele>757.6</ele>
        <time>2023-06-25T10:00:31Z</time>
      </trkpt>
      <trkpt lat="44.22306" lon="2.97742">
        <ele>757.5</ele>
        <time>2023-06-25T10:00:32Z</time>
      </trkpt>
      <trkpt lat="44.22308" lon="2.97734">
        <ele>757.4</ele>
        <time>2023-06-25T10:00:33Z</time>
      </trkpt>
      <trkpt lat="44.2231" lon="2.97725">
        <ele>757.3</ele>
        <time>2023-06-25T10:00:34Z</time>
      </trkpt>
      <trkpt lat="44.22312" lon="2.97717">
        <ele>757.3</ele>
        <time>2023-06-25T10:00:35Z</time>
      </trkpt>
      <trkpt lat="44.22313" lon="2.97709">
        <ele>757.2</ele>
        <time>2023-06-25T10:00:36Z</time>
      </trkpt>
      <trkpt lat="44.22314" lon="2.97701">
        <ele>757.2</ele>
        <time>2023-06-25T10:00:37Z</time>
      </trkpt>
      <trkpt lat="44.22315" lon="2.97693">
        <ele>757.1</ele>
        <time>2023-06-25T10:00:38Z</time>
      </trkpt>
      <trkpt lat="44.22316" lon="2.97685">
        <ele>757.1</ele>
        <time>2023-06-25T10:00:39Z</time>
      </trkpt>
      <trkpt lat="44.22316" lon="2.97677">
        <ele>757.1</ele>
        <time>2023-06-25T10:00:40Z</time>
      </trkpt>
      <trkpt lat="44.22316" lon="2.97668">
        <ele>757</ele>
        <time>2023-06-25T10:00:41Z</time>
      </trkpt>
      <trkpt lat="44.22317" lon="2.9766">
        <ele>756.9</ele>
        <time>2023-06-25T10:00:42Z</time>
      </trkpt>
      <trkpt lat="44.22316" lon="2.97652">
        <ele>756.9</ele>
        <time>2023-06-25T10:00:43Z</time>
      </trkpt>
      <trkpt lat="44.22316" lon="2.97643">
        <ele>756.8</ele>
        <time>2023-06-25T10:00:44Z</time>
      </trkpt>
      <trkpt lat="44.22315" lon="2.97635">
        <ele>756.7</ele>
        <time>2023-06-25T10:00:45Z</time>
      </trkpt>
      <trkpt lat="44.22314" lon="2.97627">
        <ele>756.7</ele>
        <time>2023-06-25T10:00:46Z</time>
      </trkpt>
      <trkpt lat="44.22313" lon="2.97619">
        <ele>756.6</ele>
        <time>2023-06-25T10:00:47Z</time>
      </trkpt>
      <trkpt lat="44.22312" lon="2.97611">
        <ele>756.6</ele>
        <time>2023-06-25T10:00:48Z</time>
      </trkpt>
      <trkpt lat="44.2231" lon="2.97602">
        <ele>756.6</ele>
        <time>2023-06-25T10:00:49Z</time>
      </trkpt>
      <trkpt lat="44.22309" lon="2.97594">
        <ele>756.6</ele>
        <time>2023-06-25T10:00:50Z</time>
      </trkpt>
      <trkpt lat="44.22307" lon="2.97586">
        <ele>756.6</ele>
        <time>2023-06-25T10:00:51Z</time>
      </trkpt>
      <trkpt lat="44.22305" lon="2.97578">
        <ele>756.6</ele>
        <time>2023-06-25T10:00:52Z</time>
      </trkpt>
      <trkpt lat="44.22303" lon="2.9757">
        <ele>756.6</ele>
        <time>2023-06-25T10:00:53Z</time>
      </trkpt>
      <trkpt lat="44.22301" lon="2.97561">
        <ele>756.7</ele>
        <time>2023-06-25T10:00:54Z</time>
      </trkpt>
      <trkpt lat="44.223" lon="2.97553">
        <ele>756.7</ele>
        <time>2023-06-25T10:00:55Z</time>
      </trkpt>
      <trkpt lat="44.223" lon="2.97545">
        <ele>756.7</ele>
        <time>2023-06-25T10:00:56Z</time>
      </trkpt>
      <trkpt lat="44.22302" lon="2.97537">
        <ele>757</ele>
        <time>2023-06-25T10:00:57Z</time>
      </trkpt>
      <trkpt lat="44.22305" lon="2.9753">
        <ele>757.2</ele>
        <time>2023-06-25T10:00:58Z</time>
      </trkpt>
      <trkpt lat="44.22308" lon="2.97523">
        <ele>757.4</ele>
        <time>2023-06-25T10:00:59Z</time>
      </trkpt>
      <trkpt lat="44.22312" lon="2.97518">
        <ele>757.5</ele>
        <time>2023-06-25T10:01:00Z</time>
      </trkpt>
      <trkpt lat="44.22316" lon="2.97515">
        <ele>757.7</ele>
        <time>2023-06-25T10:01:01Z</time>
      </trkpt>
      <trkpt lat="44.22319" lon="2.97512">
        <ele>757.8</ele>
        <time>2023-06-25T10:01:02Z</time>
      </trkpt>
      <trkpt lat="44.22323" lon="2.97511">
        <ele>757.9</ele>
        <time>2023-06-25T10:01:03Z</time>
      </trkpt>
      <trkpt lat="44.22327" lon="2.97509">
        <ele>758</ele>
        <time>2023-06-25T10:01:04Z</time>
      </trkpt>
      <trkpt lat="44.2233" lon="2.97509">
        <ele>758.1</ele>
        <time>2023-06-25T10:01:05Z</time>
      </trkpt>
      <trkpt lat="44.22334" lon="2.97508">
        <ele>758.2</ele>
        <time>2023-06-25T10:01:06Z</time>
      </trkpt>
      <trkpt lat="44.22338" lon="2.97507">
        <ele>758.2</ele>
        <time>2023-06-25T10:01:07Z</time>
      </trkpt>
      <trkpt lat="44.22342" lon="2.97506">
        <ele>758.3</ele>
        <time>2023-06-25T10:01:08Z</time>
      </trkpt>
      <trkpt lat="44.22348" lon="2.97502">
        <ele>758.4</ele>
        <time>2023-06-25T10:01:10Z</time>
      </trkpt>
      <trkpt lat="44.22355" lon="2.97502">
        <ele>758.5</ele>
        <time>2023-06-25T10:01:11Z</time>
      </trkpt>
      <trkpt lat="44.22359" lon="2.97501">
        <ele>758.6</ele>
        <time>2023-06-25T10:01:12Z</time>
      </trkpt>
      <trkpt lat="44.22364" lon="2.97499">
        <ele>758.8</ele>
        <time>2023-06-25T10:01:13Z</time>
      </trkpt>
      <trkpt lat="44.2237" lon="2.97498">
        <ele>758.9</ele>
        <time>2023-06-25T10:01:15Z</time>
      </trkpt>
      <trkpt lat="44.22374" lon="2.97497">
        <ele>759.1</ele>
        <time>2023-06-25T10:01:16Z</time>
      </trkpt>
      <trkpt lat="44.22379" lon="2.97496">
        <ele>759.2</ele>
        <time>2023-06-25T10:01:17Z</time>
      </trkpt>
      <trkpt lat="44.22383" lon="2.97496">
        <ele>759.3</ele>
        <time>2023-06-25T10:01:18Z</time>
      </trkpt>
      <trkpt lat="44.22387" lon="2.97495">
        <ele>759.5</ele>
        <time>2023-06-25T10:01:19Z</time>
      </trkpt>
      <trkpt lat="44.22391" lon="2.97494">
        <ele>759.6</ele>
        <time>2023-06-25T10:01:20Z</time>
      </trkpt>
      <trkpt lat="44.22398" lon="2.97491">
        <ele>759.9</ele>
        <time>2023-06-25T10:01:22Z</time>
      </trkpt>
      <trkpt lat="44.22403" lon="2.97489">
        <ele>760.1</ele>
        <time>2023-06-25T10:01:23Z</time>
      </trkpt>
      <trkpt lat="44.2241" lon="2.97488">
        <ele>760.3</ele>
        <time>2023-06-25T10:01:25Z</time>
      </trkpt>
      <trkpt lat="44.22415" lon="2.97488">
        <ele>760.5</ele>
        <time>2023-06-25T10:01:26Z</time>
      </trkpt>
      <trkpt lat="44.2242" lon="2.97487">
        <ele>760.7</ele>
        <time>2023-06-25T10:01:27Z</time>
      </trkpt>
      <trkpt lat="44.22424" lon="2.97486">
        <ele>760.9</ele>
        <time>2023-06-25T10:01:28Z</time>
      </trkpt>
      <trkpt lat="44.22429" lon="2.97485">
        <ele>761.1</ele>
        <time>2023-06-25T10:01:30Z</time>
      </trkpt>
      <trkpt lat="44.22433" lon="2.97484">
        <ele>761.2</ele>
        <time>2023-06-25T10:01:31Z</time>
      </trkpt>
      <trkpt lat="44.22436" lon="2.97483">
        <ele>761.3</ele>
        <time>2023-06-25T10:01:32Z</time>
      </trkpt>
      <trkpt lat="44.22441" lon="2.97482">
        <ele>761.5</ele>
        <time>2023-06-25T10:01:33Z</time>
      </trkpt>
      <trkpt lat="44.22447" lon="2.9748">
        <ele>761.8</ele>
        <time>2023-06-25T10:01:35Z</time>
      </trkpt>
      <trkpt lat="44.22451" lon="2.97479">
        <ele>761.9</ele>
        <time>2023-06-25T10:01:36Z</time>
      </trkpt>
      <trkpt lat="44.22455" lon="2.97478">
        <ele>762.1</ele>
        <time>2023-06-25T10:01:37Z</time>
      </trkpt>
      <trkpt lat="44.22459" lon="2.97477">
        <ele>762.2</ele>
        <time>2023-06-25T10:01:38Z</time>
      </trkpt>
      <trkpt lat="44.22464" lon="2.97477">
        <ele>762.4</ele>
        <time>2023-06-25T10:01:39Z</time>
      </trkpt>
      <trkpt lat="44.22468" lon="2.97476">
        <ele>762.6</ele>
        <time>2023-06-25T10:01:41Z</time>
      </trkpt>
      <trkpt lat="44.22473" lon="2.97476">
        <ele>762.8</ele>
        <time>2023-06-25T10:01:42Z</time>
      </trkpt>
      <trkpt lat="44.22476" lon="2.97475">
        <ele>763</ele>
        <time>2023-06-25T10:01:43Z</time>
      </trkpt>
      <trkpt lat="44.22484" lon="2.97474">
        <ele>763.3</ele>
        <time>2023-06-25T10:01:45Z</time>
      </trkpt>
      <trkpt lat="44.22489" lon="2.97474">
        <ele>763.5</ele>
        <time>2023-06-25T10:01:46Z</time>
      </trkpt>
      <trkpt lat="44.22493" lon="2.97474">
        <ele>763.7</ele>
        <time>2023-06-25T10:01:47Z</time>
      </trkpt>
      <trkpt lat="44.22498" lon="2.97474">
        <ele>763.9</ele>
        <time>2023-06-25T10:01:48Z</time>
      </trkpt>
      <trkpt lat="44.22502" lon="2.97475">
        <ele>764</ele>
        <time>2023-06-25T10:01:49Z</time>
      </trkpt>
      <trkpt lat="44.22507" lon="2.97475">
        <ele>764.1</ele>
        <time>2023-06-25T10:01:51Z</time>
      </trkpt>
      <trkpt lat="44.22511" lon="2.97475">
        <ele>764.3</ele>
        <time>2023-06-25T10:01:52Z</time>
      </trkpt>
      <trkpt lat="44.22516" lon="2.97474">
        <ele>764.4</ele>
        <time>2023-06-25T10:01:53Z</time>
      </trkpt>
      <trkpt lat="44.22521" lon="2.97475">
        <ele>764.6</ele>
        <time>2023-06-25T10:01:54Z</time>
      </trkpt>
      <trkpt lat="44.22525" lon="2.97475">
        <ele>764.7</ele>
        <time>2023-06-25T10:01:55Z</time>
      </trkpt>
      <trkpt lat="44.22529" lon="2.97476">
        <ele>764.9</ele>
        <time>2023-06-25T10:01:56Z</time>
      </trkpt>
      <trkpt lat="44.22534" lon="2.97477">
        <ele>765.1</ele>
        <time>2023-06-25T10:01:57Z</time>
      </trkpt>
      <trkpt lat="44.22538" lon="2.97477">
        <ele>765.2</ele>
        <time>2023-06-25T10:01:58Z</time>
      </trkpt>
      <trkpt lat="44.22542" lon="2.97478">
        <ele>765.4</ele>
        <time>2023-06-25T10:01:59Z</time>
      </trkpt>
      <trkpt lat="44.22546" lon="2.97479">
        <ele>765.5</ele>
        <time>2023-06-25T10:02:01Z</time>
      </trkpt>
      <trkpt lat="44.22549" lon="2.97479">
        <ele>765.6</ele>
        <time>2023-06-25T10:02:02Z</time>
      </trkpt>
      <trkpt lat="44.22552" lon="2.97479">
        <ele>765.8</ele>
        <time>2023-06-25T10:02:03Z</time>
      </trkpt>
      <trkpt lat="44.22556" lon="2.97479">
        <ele>765.9</ele>
        <time>2023-06-25T10:02:04Z</time>
      </trkpt>
      <trkpt lat="44.22564" lon="2.97481">
        <ele>766.2</ele>
        <time>2023-06-25T10:02:06Z</time>
      </trkpt>
      <trkpt lat="44.22568" lon="2.97481">
        <ele>766.4</ele>
        <time>2023-06-25T10:02:07Z</time>
      </trkpt>
      <trkpt lat="44.22574" lon="2.97482">
        <ele>766.7</ele>
        <time>2023-06-25T10:02:09Z</time>
      </trkpt>
      <trkpt lat="44.22578" lon="2.97485">
        <ele>766.9</ele>
        <time>2023-06-25T10:02:10Z</time>
      </trkpt>
      <trkpt lat="44.22582" lon="2.97487">
        <ele>767.2</ele>
        <time>2023-06-25T10:02:11Z</time>
      </trkpt>
      <trkpt lat="44.22589" lon="2.9749">
        <ele>767.5</ele>
        <time>2023-06-25T10:02:13Z</time>
      </trkpt>
      <trkpt lat="44.22593" lon="2.97492">
        <ele>767.7</ele>
        <time>2023-06-25T10:02:14Z</time>
      </trkpt>
      <trkpt lat="44.22596" lon="2.97495">
        <ele>767.9</ele>
        <time>2023-06-25T10:02:15Z</time>
      </trkpt>
      <trkpt lat="44.22601" lon="2.97498">
        <ele>768.1</ele>
        <time>2023-06-25T10:02:16Z</time>
      </trkpt>
      <trkpt lat="44.22605" lon="2.97501">
        <ele>768.3</ele>
        <time>2023-06-25T10:02:17Z</time>
      </trkpt>
      <trkpt lat="44.22609" lon="2.97505">
        <ele>768.5</ele>
        <time>2023-06-25T10:02:18Z</time>
      </trkpt>
      <trkpt lat="44.22614" lon="2.97509">
        <ele>768.8</ele>
        <time>2023-06-25T10:02:20Z</time>
      </trkpt>
      <trkpt lat="44.22618" lon="2.97516">
        <ele>769.1</ele>
        <time>2023-06-25T10:02:21Z</time>
      </trkpt>
      <trkpt lat="44.22621" lon="2.97523">
        <ele>769.3</ele>
        <time>2023-06-25T10:02:22Z</time>
      </trkpt>
      <trkpt lat="44.22623" lon="2.97528">
        <ele>769.5</ele>
        <time>2023-06-25T10:02:23Z</time>
      </trkpt>
      <trkpt lat="44.22628" lon="2.97539">
        <ele>770</ele>
        <time>2023-06-25T10:02:25Z</time>
      </trkpt>
      <trkpt lat="44.2263" lon="2.97545">
        <ele>770.2</ele>
        <time>2023-06-25T10:02:26Z</time>
      </trkpt>
      <trkpt lat="44.22634" lon="2.97551">
        <ele>770.5</ele>
        <time>2023-06-25T10:02:27Z</time>
      </trkpt>
      <trkpt lat="44.22637" lon="2.97556">
        <ele>770.7</ele>
        <time>2023-06-25T10:02:28Z</time>
      </trkpt>
      <trkpt lat="44.22642" lon="2.97563">
        <ele>771</ele>
        <time>2023-06-25T10:02:30Z</time>
      </trkpt>
      <trkpt lat="44.22646" lon="2.97569">
        <ele>771.3</ele>
        <time>2023-06-25T10:02:31Z</time>
      </trkpt>
      <trkpt lat="44.22649" lon="2.97573">
        <ele>771.5</ele>
        <time>2023-06-25T10:02:32Z</time>
      </trkpt>
      <trkpt lat="44.22652" lon="2.97579">
        <ele>771.7</ele>
        <time>2023-06-25T10:02:33Z</time>
      </trkpt>
      <trkpt lat="44.22655" lon="2.97583">
        <ele>771.9</ele>
        <time>2023-06-25T10:02:35Z</time>
      </trkpt>
      <trkpt lat="44.22658" lon="2.97588">
        <ele>772.1</ele>
        <time>2023-06-25T10:02:36Z</time>
      </trkpt>
      <trkpt lat="44.2266" lon="2.97593">
        <ele>772.3</ele>
        <time>2023-06-25T10:02:37Z</time>
      </trkpt>
      <trkpt lat="44.22662" lon="2.97597">
        <ele>772.5</ele>
        <time>2023-06-25T10:02:38Z</time>
      </trkpt>
      <trkpt lat="44.22664" lon="2.97601">
        <ele>772.7</ele>
        <time>2023-06-25T10:02:39Z</time>
      </trkpt>
      <trkpt lat="44.22667" lon="2.97608">
        <ele>772.9</ele>
        <time>2023-06-25T10:02:41Z</time>
      </trkpt>
      <trkpt lat="44.22669" lon="2.97614">
        <ele>773.1</ele>
        <time>2023-06-25T10:02:42Z</time>
      </trkpt>
      <trkpt lat="44.2267" lon="2.9762">
        <ele>773.2</ele>
        <time>2023-06-25T10:02:43Z</time>
      </trkpt>
      <trkpt lat="44.22672" lon="2.97632">
        <ele>773.5</ele>
        <time>2023-06-25T10:02:45Z</time>
      </trkpt>
      <trkpt lat="44.22673" lon="2.97639">
        <ele>773.6</ele>
        <time>2023-06-25T10:02:46Z</time>
      </trkpt>
      <trkpt lat="44.22674" lon="2.97645">
        <ele>773.7</ele>
        <time>2023-06-25T10:02:47Z</time>
      </trkpt>
      <trkpt lat="44.22677" lon="2.97655">
        <ele>773.9</ele>
        <time>2023-06-25T10:02:49Z</time>
      </trkpt>
      <trkpt lat="44.22678" lon="2.97663">
        <ele>774</ele>
        <time>2023-06-25T10:02:50Z</time>
      </trkpt>
      <trkpt lat="44.2268" lon="2.97669">
        <ele>774</ele>
        <time>2023-06-25T10:02:51Z</time>
      </trkpt>
      <trkpt lat="44.22683" lon="2.97677">
        <ele>774.1</ele>
        <time>2023-06-25T10:02:53Z</time>
      </trkpt>
      <trkpt lat="44.22686" lon="2.97682">
        <ele>774.2</ele>
        <time>2023-06-25T10:02:54Z</time>
      </trkpt>
      <trkpt lat="44.22689" lon="2.9769">
        <ele>774.3</ele>
        <time>2023-06-25T10:02:56Z</time>
      </trkpt>
      <trkpt lat="44.22692" lon="2.97695">
        <ele>774.3</ele>
        <time>2023-06-25T10:02:57Z</time>
      </trkpt>
      <trkpt lat="44.22694" lon="2.977">
        <ele>774.4</ele>
        <time>2023-06-25T10:02:58Z</time>
      </trkpt>
      <trkpt lat="44.22699" lon="2.97705">
        <ele>774.5</ele>
        <time>2023-06-25T10:02:59Z</time>
      </trkpt>
      <trkpt lat="44.22701" lon="2.97709">
        <ele>774.5</ele>
        <time>2023-06-25T10:03:00Z</time>
      </trkpt>
      <trkpt lat="44.22706" lon="2.97715">
        <ele>774.7</ele>
        <time>2023-06-25T10:03:02Z</time>
      </trkpt>
      <trkpt lat="44.22713" lon="2.9772">
        <ele>774.8</ele>
        <time>2023-06-25T10:03:04Z</time>
      </trkpt>
      <trkpt lat="44.22717" lon="2.97722">
        <ele>774.9</ele>
        <time>2023-06-25T10:03:05Z</time>
      </trkpt>
      <trkpt lat="44.22721" lon="2.97725">
        <ele>775</ele>
        <time>2023-06-25T10:03:06Z</time>
      </trkpt>
      <trkpt lat="44.22728" lon="2.97726">
        <ele>775.2</ele>
        <time>2023-06-25T10:03:07Z</time>
      </trkpt>
      <trkpt lat="44.22737" lon="2.97728">
        <ele>775.5</ele>
        <time>2023-06-25T10:03:09Z</time>
      </trkpt>
      <trkpt lat="44.22742" lon="2.9773">
        <ele>775.6</ele>
        <time>2023-06-25T10:03:10Z</time>
      </trkpt>
      <trkpt lat="44.22746" lon="2.9773">
        <ele>775.8</ele>
        <time>2023-06-25T10:03:11Z</time>
      </trkpt>
      <trkpt lat="44.22751" lon="2.97731">
        <ele>775.9</ele>
        <time>2023-06-25T10:03:12Z</time>
      </trkpt>
      <trkpt lat="44.22754" lon="2.97731">
        <ele>776</ele>
        <time>2023-06-25T10:03:13Z</time>
      </trkpt>
      <trkpt lat="44.22762" lon="2.97732">
        <ele>776.3</ele>
        <time>2023-06-25T10:03:15Z</time>
      </trkpt>
      <trkpt lat="44.22769" lon="2.97734">
        <ele>776.5</ele>
        <time>2023-06-25T10:03:17Z</time>
      </trkpt>
      <trkpt lat="44.22774" lon="2.97735">
        <ele>776.7</ele>
        <time>2023-06-25T10:03:18Z</time>
      </trkpt>
      <trkpt lat="44.22781" lon="2.97737">
        <ele>777</ele>
        <time>2023-06-25T10:03:19Z</time>
      </trkpt>
      <trkpt lat="44.22785" lon="2.97738">
        <ele>777.1</ele>
        <time>2023-06-25T10:03:20Z</time>
      </trkpt>
      <trkpt lat="44.22793" lon="2.97741">
        <ele>777.4</ele>
        <time>2023-06-25T10:03:22Z</time>
      </trkpt>
      <trkpt lat="44.22797" lon="2.97741">
        <ele>777.6</ele>
        <time>2023-06-25T10:03:23Z</time>
      </trkpt>
      <trkpt lat="44.22802" lon="2.97743">
        <ele>777.8</ele>
        <time>2023-06-25T10:03:24Z</time>
      </trkpt>
      <trkpt lat="44.22809" lon="2.97745">
        <ele>778</ele>
        <time>2023-06-25T10:03:26Z</time>
      </trkpt>
      <trkpt lat="44.22813" lon="2.97744">
        <ele>778.1</ele>
        <time>2023-06-25T10:03:27Z</time>
      </trkpt>
      <trkpt lat="44.22818" lon="2.97746">
        <ele>778.3</ele>
        <time>2023-06-25T10:03:28Z</time>
      </trkpt>
      <trkpt lat="44.22823" lon="2.97749">
        <ele>778.5</ele>
        <time>2023-06-25T10:03:29Z</time>
      </trkpt>
      <trkpt lat="44.22828" lon="2.9775">
        <ele>778.6</ele>
        <time>2023-06-25T10:03:30Z</time>
      </trkpt>
      <trkpt lat="44.22833" lon="2.97752">
        <ele>778.8</ele>
        <time>2023-06-25T10:03:31Z</time>
      </trkpt>
      <trkpt lat="44.22838" lon="2.97753">
        <ele>778.9</ele>
        <time>2023-06-25T10:03:33Z</time>
      </trkpt>
      <trkpt lat="44.22842" lon="2.97755">
        <ele>779</ele>
        <time>2023-06-25T10:03:34Z</time>
      </trkpt>
      <trkpt lat="44.22846" lon="2.97757">
        <ele>779.1</ele>
        <time>2023-06-25T10:03:35Z</time>
      </trkpt>
      <trkpt lat="44.22851" lon="2.97758">
        <ele>779.3</ele>
        <time>2023-06-25T10:03:36Z</time>
      </trkpt>
      <trkpt lat="44.22856" lon="2.9776">
        <ele>779.4</ele>
        <time>2023-06-25T10:03:37Z</time>
      </trkpt>
      <trkpt lat="44.2286" lon="2.97762">
        <ele>779.5</ele>
        <time>2023-06-25T10:03:38Z</time>
      </trkpt>
      <trkpt lat="44.22865" lon="2.97765">
        <ele>779.6</ele>
        <time>2023-06-25T10:03:39Z</time>
      </trkpt>
      <trkpt lat="44.2287" lon="2.97767">
        <ele>779.7</ele>
        <time>2023-06-25T10:03:41Z</time>
      </trkpt>
      <trkpt lat="44.22873" lon="2.97769">
        <ele>779.8</ele>
        <time>2023-06-25T10:03:42Z</time>
      </trkpt>
      <trkpt lat="44.22877" lon="2.97771">
        <ele>779.9</ele>
        <time>2023-06-25T10:03:43Z</time>
      </trkpt>
      <trkpt lat="44.22882" lon="2.97773">
        <ele>780</ele>
        <time>2023-06-25T10:03:44Z</time>
      </trkpt>
      <trkpt lat="44.22887" lon="2.97776">
        <ele>780.2</ele>
        <time>2023-06-25T10:03:45Z</time>
      </trkpt>
      <trkpt lat="44.22894" lon="2.9778">
        <ele>780.4</ele>
        <time>2023-06-25T10:03:47Z</time>
      </trkpt>
      <trkpt lat="44.22899" lon="2.97783">
        <ele>780.5</ele>
        <time>2023-06-25T10:03:48Z</time>
      </trkpt>
      <trkpt lat="44.22906" lon="2.97789">
        <ele>780.7</ele>
        <time>2023-06-25T10:03:50Z</time>
      </trkpt>
      <trkpt lat="44.22911" lon="2.97792">
        <ele>780.8</ele>
        <time>2023-06-25T10:03:51Z</time>
      </trkpt>
      <trkpt lat="44.22918" lon="2.97797">
        <ele>780.9</ele>
        <time>2023-06-25T10:03:53Z</time>
      </trkpt>
      <trkpt lat="44.22923" lon="2.97801">
        <ele>781</ele>
        <time>2023-06-25T10:03:54Z</time>
      </trkpt>
      <trkpt lat="44.22927" lon="2.97806">
        <ele>781.1</ele>
        <time>2023-06-25T10:03:55Z</time>
      </trkpt>
      <trkpt lat="44.22932" lon="2.97809">
        <ele>781.2</ele>
        <time>2023-06-25T10:03:56Z</time>
      </trkpt>
      <trkpt lat="44.22936" lon="2.97813">
        <ele>781.4</ele>
        <time>2023-06-25T10:03:57Z</time>
      </trkpt>
      <trkpt lat="44.2294" lon="2.97817">
        <ele>781.5</ele>
        <time>2023-06-25T10:03:58Z</time>
      </trkpt>
      <trkpt lat="44.22944" lon="2.9782">
        <ele>781.7</ele>
        <time>2023-06-25T10:03:59Z</time>
      </trkpt>
      <trkpt lat="44.22948" lon="2.97822">
        <ele>781.9</ele>
        <time>2023-06-25T10:04:00Z</time>
      </trkpt>
      <trkpt lat="44.22951" lon="2.97824">
        <ele>782</ele>
        <time>2023-06-25T10:04:01Z</time>
      </trkpt>
      <trkpt lat="44.22956" lon="2.97827">
        <ele>782.2</ele>
        <time>2023-06-25T10:04:02Z</time>
      </trkpt>
      <trkpt lat="44.22962" lon="2.9783">
        <ele>782.4</ele>
        <time>2023-06-25T10:04:04Z</time>
      </trkpt>
      <trkpt lat="44.22967" lon="2.97833">
        <ele>782.6</ele>
        <time>2023-06-25T10:04:05Z</time>
      </trkpt>
      <trkpt lat="44.22971" lon="2.97836">
        <ele>782.8</ele>
        <time>2023-06-25T10:04:07Z</time>
      </trkpt>
      <trkpt lat="44.22975" lon="2.97838">
        <ele>782.9</ele>
        <time>2023-06-25T10:04:08Z</time>
      </trkpt>
      <trkpt lat="44.22979" lon="2.97841">
        <ele>783.1</ele>
        <time>2023-06-25T10:04:09Z</time>
      </trkpt>
      <trkpt lat="44.22983" lon="2.97844">
        <ele>783.2</ele>
        <time>2023-06-25T10:04:10Z</time>
      </trkpt>
      <trkpt lat="44.22986" lon="2.97846">
        <ele>783.3</ele>
        <time>2023-06-25T10:04:11Z</time>
      </trkpt>
      <trkpt lat="44.22994" lon="2.9785">
        <ele>783.5</ele>
        <time>2023-06-25T10:04:13Z</time>
      </trkpt>
      <trkpt lat="44.22999" lon="2.97852">
        <ele>783.7</ele>
        <time>2023-06-25T10:04:14Z</time>
      </trkpt>
      <trkpt lat="44.23006" lon="2.97857">
        <ele>783.8</ele>
        <time>2023-06-25T10:04:16Z</time>
      </trkpt>
      <trkpt lat="44.2301" lon="2.9786">
        <ele>783.9</ele>
        <time>2023-06-25T10:04:17Z</time>
      </trkpt>
      <trkpt lat="44.23016" lon="2.97867">
        <ele>784.1</ele>
        <time>2023-06-25T10:04:19Z</time>
      </trkpt>
      <trkpt lat="44.23021" lon="2.97873">
        <ele>784.2</ele>
        <time>2023-06-25T10:04:20Z</time>
      </trkpt>
      <trkpt lat="44.23024" lon="2.97878">
        <ele>784.3</ele>
        <time>2023-06-25T10:04:21Z</time>
      </trkpt>
      <trkpt lat="44.23027" lon="2.97883">
        <ele>784.4</ele>
        <time>2023-06-25T10:04:22Z</time>
      </trkpt>
      <trkpt lat="44.2303" lon="2.97888">
        <ele>784.5</ele>
        <time>2023-06-25T10:04:23Z</time>
      </trkpt>
      <trkpt lat="44.23035" lon="2.97894">
        <ele>784.7</ele>
        <time>2023-06-25T10:04:25Z</time>
      </trkpt>
      <trkpt lat="44.23038" lon="2.979">
        <ele>784.8</ele>
        <time>2023-06-25T10:04:26Z</time>
      </trkpt>
      <trkpt lat="44.23041" lon="2.97905">
        <ele>784.9</ele>
        <time>2023-06-25T10:04:27Z</time>
      </trkpt>
      <trkpt lat="44.23045" lon="2.97911">
        <ele>785.1</ele>
        <time>2023-06-25T10:04:29Z</time>
      </trkpt>
      <trkpt lat="44.23048" lon="2.97915">
        <ele>785.2</ele>
        <time>2023-06-25T10:04:30Z</time>
      </trkpt>
      <trkpt lat="44.2305" lon="2.97918">
        <ele>785.2</ele>
        <time>2023-06-25T10:04:31Z</time>
      </trkpt>
      <trkpt lat="44.23054" lon="2.97921">
        <ele>785.3</ele>
        <time>2023-06-25T10:04:32Z</time>
      </trkpt>
      <trkpt lat="44.23057" lon="2.97924">
        <ele>785.4</ele>
        <time>2023-06-25T10:04:33Z</time>
      </trkpt>
      <trkpt lat="44.23062" lon="2.97928">
        <ele>785.5</ele>
        <time>2023-06-25T10:04:35Z</time>
      </trkpt>
      <trkpt lat="44.23066" lon="2.9793">
        <ele>785.6</ele>
        <time>2023-06-25T10:04:36Z</time>
      </trkpt>
      <trkpt lat="44.2307" lon="2.97934">
        <ele>785.7</ele>
        <time>2023-06-25T10:04:37Z</time>
      </trkpt>
      <trkpt lat="44.23077" lon="2.97941">
        <ele>785.7</ele>
        <time>2023-06-25T10:04:39Z</time>
      </trkpt>
      <trkpt lat="44.2308" lon="2.97945">
        <ele>785.8</ele>
        <time>2023-06-25T10:04:40Z</time>
      </trkpt>
      <trkpt lat="44.23087" lon="2.9795">
        <ele>785.4</ele>
        <time>2023-06-25T10:04:42Z</time>
      </trkpt>
      <trkpt lat="44.23091" lon="2.97951">
        <ele>785.1</ele>
        <time>2023-06-25T10:04:43Z</time>
      </trkpt>
      <trkpt lat="44.23093" lon="2.97951">
        <ele>784.9</ele>
        <time>2023-06-25T10:04:44Z</time>
      </trkpt>
      <trkpt lat="44.23093" lon="2.97951">
        <ele>784.9</ele>
        <time>2023-06-25T10:04:46Z</time>
      </trkpt>
      <trkpt lat="44.23094" lon="2.97951">
        <ele>784.8</ele>
        <time>2023-06-25T10:04:47Z</time>
      </trkpt>
      <trkpt lat="44.23095" lon="2.97951">
        <ele>784.8</ele>
        <time>2023-06-25T10:04:48Z</time>
      </trkpt>
      <trkpt lat="44.23095" lon="2.97951">
        <ele>784.8</ele>
        <time>2023-06-25T10:04:50Z</time>
      </trkpt>
      <trkpt lat="44.23096" lon="2.97951">
        <ele>784.7</ele>
        <time>2023-06-25T10:04:51Z</time>
      </trkpt>
      <trkpt lat="44.23096" lon="2.97951">
        <ele>784.7</ele>
        <time>2023-06-25T10:04:53Z</time>
      </trkpt>
      <trkpt lat="44.23097" lon="2.97951">
        <ele>784.6</ele>
        <time>2023-06-25T10:04:54Z</time>
      </trkpt>
      <trkpt lat="44.23098" lon="2.97951">
        <ele>784.6</ele>
        <time>2023-06-25T10:05:09Z</time>
      </trkpt>
      <trkpt lat="44.23098" lon="2.97951">
        <ele>784.5</ele>
        <time>2023-06-25T10:05:10Z</time>
      </trkpt>
      <trkpt lat="44.23099" lon="2.97951">
        <ele>784.5</ele>
        <time>2023-06-25T10:05:11Z</time>
      </trkpt>
      <trkpt lat="44.23103" lon="2.97951">
        <ele>784.2</ele>
        <time>2023-06-25T10:05:12Z</time>
      </trkpt>
      <trkpt lat="44.23108" lon="2.97951">
        <ele>783.9</ele>
        <time>2023-06-25T10:05:13Z</time>
      </trkpt>
      <trkpt lat="44.23113" lon="2.97951">
        <ele>783.6</ele>
        <time>2023-06-25T10:05:14Z</time>
      </trkpt>
      <trkpt lat="44.23118" lon="2.97953">
        <ele>783.3</ele>
        <time>2023-06-25T10:05:15Z</time>
      </trkpt>
      <trkpt lat="44.23124" lon="2.97955">
        <ele>783.1</ele>
        <time>2023-06-25T10:05:16Z</time>
      </trkpt>
      <trkpt lat="44.23129" lon="2.97957">
        <ele>782.9</ele>
        <time>2023-06-25T10:05:17Z</time>
      </trkpt>
      <trkpt lat="44.23133" lon="2.9796">
        <ele>782.8</ele>
        <time>2023-06-25T10:05:18Z</time>
      </trkpt>
      <trkpt lat="44.23137" lon="2.97965">
        <ele>782.7</ele>
        <time>2023-06-25T10:05:19Z</time>
      </trkpt>
      <trkpt lat="44.23141" lon="2.97972">
        <ele>782.7</ele>
        <time>2023-06-25T10:05:20Z</time>
      </trkpt>
      <trkpt lat="44.23145" lon="2.97979">
        <ele>782.8</ele>
        <time>2023-06-25T10:05:21Z</time>
      </trkpt>
      <trkpt lat="44.23148" lon="2.97987">
        <ele>783</ele>
        <time>2023-06-25T10:05:22Z</time>
      </trkpt>
      <trkpt lat="44.23153" lon="2.97993">
        <ele>783.2</ele>
        <time>2023-06-25T10:05:23Z</time>
      </trkpt>
      <trkpt lat="44.23158" lon="2.97996">
        <ele>783.5</ele>
        <time>2023-06-25T10:05:24Z</time>
      </trkpt>
      <trkpt lat="44.23163" lon="2.97997">
        <ele>783.8</ele>
        <time>2023-06-25T10:05:25Z</time>
      </trkpt>
      <trkpt lat="44.23168" lon="2.97997">
        <ele>784.1</ele>
        <time>2023-06-25T10:05:26Z</time>
      </trkpt>
      <trkpt lat="44.23171" lon="2.97997">
        <ele>784.3</ele>
        <time>2023-06-25T10:05:27Z</time>
      </trkpt>
      <trkpt lat="44.23174" lon="2.97997">
        <ele>784.5</ele>
        <time>2023-06-25T10:05:28Z</time>
      </trkpt>
      <trkpt lat="44.23174" lon="2.97998">
        <ele>784.6</ele>
        <time>2023-06-25T10:05:29Z</time>
      </trkpt>
      <trkpt lat="44.23177" lon="2.98001">
        <ele>784.8</ele>
        <time>2023-06-25T10:05:30Z</time>
      </trkpt>
      <trkpt lat="44.23178" lon="2.98002">
        <ele>784.9</ele>
        <time>2023-06-25T10:05:31Z</time>
      </trkpt>
      <trkpt lat="44.23179" lon="2.98005">
        <ele>785.1</ele>
        <time>2023-06-25T10:05:32Z</time>
      </trkpt>
      <trkpt lat="44.2318" lon="2.98006">
        <ele>785.2</ele>
        <time>2023-06-25T10:05:33Z</time>
      </trkpt>
      <trkpt lat="44.23181" lon="2.98007">
        <ele>785.2</ele>
        <time>2023-06-25T10:05:34Z</time>
      </trkpt>
      <trkpt lat="44.23182" lon="2.98006">
        <ele>785.3</ele>
        <time>2023-06-25T10:05:35Z</time>
      </trkpt>
      <trkpt lat="44.23183" lon="2.98004">
        <ele>785.4</ele>
        <time>2023-06-25T10:05:36Z</time>
      </trkpt>
      <trkpt lat="44.2318" lon="2.98002">
        <ele>785.7</ele>
        <time>2023-06-25T10:05:38Z</time>
      </trkpt>
      <trkpt lat="44.23178" lon="2.98001">
        <ele>785.8</ele>
        <time>2023-06-25T10:05:39Z</time>
      </trkpt>
      <trkpt lat="44.23174" lon="2.98">
        <ele>786.1</ele>
        <time>2023-06-25T10:05:41Z</time>
      </trkpt>
      <trkpt lat="44.23172" lon="2.97997">
        <ele>786.3</ele>
        <time>2023-06-25T10:05:42Z</time>
      </trkpt>
      <trkpt lat="44.23174" lon="2.97993">
        <ele>786.6</ele>
        <time>2023-06-25T10:05:43Z</time>
      </trkpt>
      <trkpt lat="44.23175" lon="2.97993">
        <ele>786.7</ele>
        <time>2023-06-25T10:05:44Z</time>
      </trkpt>
      <trkpt lat="44.23179" lon="2.9799">
        <ele>787.1</ele>
        <time>2023-06-25T10:05:46Z</time>
      </trkpt>
      <trkpt lat="44.23182" lon="2.9799">
        <ele>787.3</ele>
        <time>2023-06-25T10:05:47Z</time>
      </trkpt>
      <trkpt lat="44.23186" lon="2.9799">
        <ele>787.6</ele>
        <time>2023-06-25T10:05:48Z</time>
      </trkpt>
      <trkpt lat="44.23188" lon="2.9799">
        <ele>787.8</ele>
        <time>2023-06-25T10:05:49Z</time>
      </trkpt>
      <trkpt lat="44.2319" lon="2.97989">
        <ele>787.9</ele>
        <time>2023-06-25T10:05:50Z</time>
      </trkpt>
      <trkpt lat="44.23192" lon="2.97988">
        <ele>788.2</ele>
        <time>2023-06-25T10:05:52Z</time>
      </trkpt>
      <trkpt lat="44.23195" lon="2.97988">
        <ele>788.5</ele>
        <time>2023-06-25T10:05:53Z</time>
      </trkpt>
      <trkpt lat="44.23197" lon="2.97988">
        <ele>788.6</ele>
        <time>2023-06-25T10:05:54Z</time>
      </trkpt>
      <trkpt lat="44.23199" lon="2.97987">
        <ele>788.8</ele>
        <time>2023-06-25T10:05:55Z</time>
      </trkpt>
      <trkpt lat="44.23201" lon="2.97986">
        <ele>789.1</ele>
        <time>2023-06-25T10:05:57Z</time>
      </trkpt>
      <trkpt lat="44.23203" lon="2.97982">
        <ele>789.5</ele>
        <time>2023-06-25T10:05:58Z</time>
      </trkpt>
      <trkpt lat="44.23204" lon="2.97981">
        <ele>789.6</ele>
        <time>2023-06-25T10:05:59Z</time>
      </trkpt>
      <trkpt lat="44.23206" lon="2.97977">
        <ele>790</ele>
        <time>2023-06-25T10:06:00Z</time>
      </trkpt>
      <trkpt lat="44.23208" lon="2.97973">
        <ele>790.4</ele>
        <time>2023-06-25T10:06:01Z</time>
      </trkpt>
      <trkpt lat="44.2321" lon="2.97968">
        <ele>790.9</ele>
        <time>2023-06-25T10:06:03Z</time>
      </trkpt>
      <trkpt lat="44.23213" lon="2.97967">
        <ele>791.2</ele>
        <time>2023-06-25T10:06:04Z</time>
      </trkpt>
      <trkpt lat="44.23217" lon="2.97964">
        <ele>791.7</ele>
        <time>2023-06-25T10:06:05Z</time>
      </trkpt>
      <trkpt lat="44.23218" lon="2.97964">
        <ele>791.8</ele>
        <time>2023-06-25T10:06:06Z</time>
      </trkpt>
      <trkpt lat="44.23221" lon="2.97963">
        <ele>792.1</ele>
        <time>2023-06-25T10:06:07Z</time>
      </trkpt>
      <trkpt lat="44.23222" lon="2.97963">
        <ele>792.2</ele>
        <time>2023-06-25T10:06:08Z</time>
      </trkpt>
      <trkpt lat="44.23223" lon="2.97962">
        <ele>792.4</ele>
        <time>2023-06-25T10:06:09Z</time>
      </trkpt>
      <trkpt lat="44.23225" lon="2.97962">
        <ele>792.6</ele>
        <time>2023-06-25T10:06:10Z</time>
      </trkpt>
      <trkpt lat="44.23227" lon="2.97962">
        <ele>792.8</ele>
        <time>2023-06-25T10:06:12Z</time>
      </trkpt>
      <trkpt lat="44.23228" lon="2.97962">
        <ele>792.9</ele>
        <time>2023-06-25T10:06:13Z</time>
      </trkpt>
      <trkpt lat="44.23229" lon="2.97961">
        <ele>793</ele>
        <time>2023-06-25T10:06:14Z</time>
      </trkpt>
      <trkpt lat="44.2323" lon="2.97961">
        <ele>793.1</ele>
        <time>2023-06-25T10:06:15Z</time>
      </trkpt>
      <trkpt lat="44.2323" lon="2.9796">
        <ele>793.2</ele>
        <time>2023-06-25T10:06:17Z</time>
      </trkpt>
      <trkpt lat="44.2323" lon="2.9796">
        <ele>793.2</ele>
        <time>2023-06-25T10:06:18Z</time>
      </trkpt>
      <trkpt lat="44.23229" lon="2.97961">
        <ele>793.3</ele>
        <time>2023-06-25T10:06:19Z</time>
      </trkpt>
      <trkpt lat="44.23229" lon="2.97961">
        <ele>793.4</ele>
        <time>2023-06-25T10:06:21Z</time>
      </trkpt>
      <trkpt lat="44.23229" lon="2.97962">
        <ele>793.4</ele>
        <time>2023-06-25T10:06:22Z</time>
      </trkpt>
      <trkpt lat="44.23229" lon="2.97962">
        <ele>793.4</ele>
        <time>2023-06-25T10:06:23Z</time>
      </trkpt>
      <trkpt lat="44.23234" lon="2.97959">
        <ele>794</ele>
        <time>2023-06-25T10:06:35Z</time>
      </trkpt>
      <trkpt lat="44.23236" lon="2.97958">
        <ele>794.1</ele>
        <time>2023-06-25T10:06:36Z</time>
      </trkpt>
      <trkpt lat="44.23239" lon="2.97957">
        <ele>794.5</ele>
        <time>2023-06-25T10:06:38Z</time>
      </trkpt>
      <trkpt lat="44.23242" lon="2.97956">
        <ele>794.8</ele>
        <time>2023-06-25T10:06:39Z</time>
      </trkpt>
      <trkpt lat="44.23244" lon="2.97955">
        <ele>795</ele>
        <time>2023-06-25T10:06:41Z</time>
      </trkpt>
      <trkpt lat="44.23245" lon="2.97955">
        <ele>795.1</ele>
        <time>2023-06-25T10:06:42Z</time>
      </trkpt>
      <trkpt lat="44.23247" lon="2.97954">
        <ele>795.3</ele>
        <time>2023-06-25T10:06:43Z</time>
      </trkpt>
      <trkpt lat="44.23248" lon="2.97954">
        <ele>795.4</ele>
        <time>2023-06-25T10:06:44Z</time>
      </trkpt>
      <trkpt lat="44.23248" lon="2.97954">
        <ele>795.4</ele>
        <time>2023-06-25T10:06:46Z</time>
      </trkpt>
      <trkpt lat="44.23248" lon="2.97954">
        <ele>795.4</ele>
        <time>2023-06-25T10:06:48Z</time>
      </trkpt>
      <trkpt lat="44.23249" lon="2.97954">
        <ele>795.4</ele>
        <time>2023-06-25T10:06:49Z</time>
      </trkpt>
      <trkpt lat="44.23249" lon="2.97954">
        <ele>795.4</ele>
        <time>2023-06-25T10:06:50Z</time>
      </trkpt>
      <trkpt lat="44.23249" lon="2.97954">
        <ele>795.5</ele>
        <time>2023-06-25T10:06:52Z</time>
      </trkpt>
      <trkpt lat="44.23249" lon="2.97954">
        <ele>795.5</ele>
        <time>2023-06-25T10:06:53Z</time>
      </trkpt>
      <trkpt lat="44.23268" lon="2.97943">
        <ele>797.4</ele>
        <time>2023-06-25T10:08:32Z</time>
      </trkpt>
      <trkpt lat="44.23269" lon="2.97942">
        <ele>797.5</ele>
        <time>2023-06-25T10:08:33Z</time>
      </trkpt>
      <trkpt lat="44.2327" lon="2.9794">
        <ele>797.6</ele>
        <time>2023-06-25T10:08:34Z</time>
      </trkpt>
      <trkpt lat="44.23274" lon="2.97937">
        <ele>798</ele>
        <time>2023-06-25T10:08:35Z</time>
      </trkpt>
      <trkpt lat="44.23277" lon="2.97935">
        <ele>798.3</ele>
        <time>2023-06-25T10:08:36Z</time>
      </trkpt>
      <trkpt lat="44.2328" lon="2.97932">
        <ele>798.7</ele>
        <time>2023-06-25T10:08:38Z</time>
      </trkpt>
      <trkpt lat="44.23283" lon="2.97929">
        <ele>798.9</ele>
        <time>2023-06-25T10:08:39Z</time>
      </trkpt>
      <trkpt lat="44.23286" lon="2.97926">
        <ele>799.3</ele>
        <time>2023-06-25T10:08:40Z</time>
      </trkpt>
      <trkpt lat="44.23287" lon="2.97925">
        <ele>799.4</ele>
        <time>2023-06-25T10:08:41Z</time>
      </trkpt>
      <trkpt lat="44.23288" lon="2.97923">
        <ele>799.5</ele>
        <time>2023-06-25T10:08:42Z</time>
      </trkpt>
      <trkpt lat="44.23289" lon="2.97921">
        <ele>800.1</ele>
        <time>2023-06-25T10:08:43Z</time>
      </trkpt>
      <trkpt lat="44.2329" lon="2.97918">
        <ele>800.5</ele>
        <time>2023-06-25T10:08:45Z</time>
      </trkpt>
      <trkpt lat="44.2329" lon="2.97916">
        <ele>800.7</ele>
        <time>2023-06-25T10:08:46Z</time>
      </trkpt>
      <trkpt lat="44.23291" lon="2.97912">
        <ele>801.2</ele>
        <time>2023-06-25T10:08:47Z</time>
      </trkpt>
      <trkpt lat="44.23291" lon="2.9791">
        <ele>801.4</ele>
        <time>2023-06-25T10:08:48Z</time>
      </trkpt>
      <trkpt lat="44.23292" lon="2.97903">
        <ele>802.2</ele>
        <time>2023-06-25T10:08:50Z</time>
      </trkpt>
      <trkpt lat="44.23292" lon="2.97901">
        <ele>802.5</ele>
        <time>2023-06-25T10:08:51Z</time>
      </trkpt>
      <trkpt lat="44.23292" lon="2.97899">
        <ele>802.7</ele>
        <time>2023-06-25T10:08:52Z</time>
      </trkpt>
      <trkpt lat="44.23292" lon="2.97894">
        <ele>803.2</ele>
        <time>2023-06-25T10:08:53Z</time>
      </trkpt>
      <trkpt lat="44.23292" lon="2.97892">
        <ele>803.4</ele>
        <time>2023-06-25T10:08:54Z</time>
      </trkpt>
      <trkpt lat="44.23292" lon="2.9789">
        <ele>803.7</ele>
        <time>2023-06-25T10:08:55Z</time>
      </trkpt>
      <trkpt lat="44.23292" lon="2.97884">
        <ele>804.4</ele>
        <time>2023-06-25T10:08:57Z</time>
      </trkpt>
      <trkpt lat="44.23292" lon="2.97881">
        <ele>804.8</ele>
        <time>2023-06-25T10:08:59Z</time>
      </trkpt>
      <trkpt lat="44.23292" lon="2.97876">
        <ele>805.3</ele>
        <time>2023-06-25T10:09:00Z</time>
      </trkpt>
      <trkpt lat="44.23292" lon="2.97874">
        <ele>805.5</ele>
        <time>2023-06-25T10:09:01Z</time>
      </trkpt>
      <trkpt lat="44.23292" lon="2.9787">
        <ele>806</ele>
        <time>2023-06-25T10:09:02Z</time>
      </trkpt>
      <trkpt lat="44.23293" lon="2.97866">
        <ele>806.5</ele>
        <time>2023-06-25T10:09:03Z</time>
      </trkpt>
      <trkpt lat="44.23294" lon="2.9786">
        <ele>807.2</ele>
        <time>2023-06-25T10:09:05Z</time>
      </trkpt>
      <trkpt lat="44.23294" lon="2.97857">
        <ele>807.4</ele>
        <time>2023-06-25T10:09:06Z</time>
      </trkpt>
      <trkpt lat="44.23294" lon="2.97855">
        <ele>807.7</ele>
        <time>2023-06-25T10:09:07Z</time>
      </trkpt>
      <trkpt lat="44.23294" lon="2.97851">
        <ele>808.2</ele>
        <time>2023-06-25T10:09:08Z</time>
      </trkpt>
      <trkpt lat="44.23294" lon="2.97845">
        <ele>808.9</ele>
        <time>2023-06-25T10:09:09Z</time>
      </trkpt>
      <trkpt lat="44.23294" lon="2.97842">
        <ele>809.2</ele>
        <time>2023-06-25T10:09:10Z</time>
      </trkpt>
      <trkpt lat="44.23294" lon="2.97839">
        <ele>809.6</ele>
        <time>2023-06-25T10:09:11Z</time>
      </trkpt>
      <trkpt lat="44.23294" lon="2.97834">
        <ele>810.1</ele>
        <time>2023-06-25T10:09:13Z</time>
      </trkpt>
      <trkpt lat="44.23293" lon="2.97829">
        <ele>810.6</ele>
        <time>2023-06-25T10:09:14Z</time>
      </trkpt>
      <trkpt lat="44.23292" lon="2.97828">
        <ele>810.8</ele>
        <time>2023-06-25T10:09:15Z</time>
      </trkpt>
      <trkpt lat="44.23292" lon="2.97823">
        <ele>811.4</ele>
        <time>2023-06-25T10:09:17Z</time>
      </trkpt>
      <trkpt lat="44.23292" lon="2.97821">
        <ele>811.6</ele>
        <time>2023-06-25T10:09:18Z</time>
      </trkpt>
      <trkpt lat="44.23292" lon="2.97817">
        <ele>812</ele>
        <time>2023-06-25T10:09:19Z</time>
      </trkpt>
      <trkpt lat="44.23291" lon="2.97816">
        <ele>812.2</ele>
        <time>2023-06-25T10:09:20Z</time>
      </trkpt>
      <trkpt lat="44.23291" lon="2.97812">
        <ele>812.6</ele>
        <time>2023-06-25T10:09:21Z</time>
      </trkpt>
      <trkpt lat="44.23292" lon="2.97808">
        <ele>812.9</ele>
        <time>2023-06-25T10:09:22Z</time>
      </trkpt>
      <trkpt lat="44.23291" lon="2.97805">
        <ele>813.2</ele>
        <time>2023-06-25T10:09:24Z</time>
      </trkpt>
      <trkpt lat="44.23291" lon="2.978">
        <ele>813.7</ele>
        <time>2023-06-25T10:09:25Z</time>
      </trkpt>
      <trkpt lat="44.2329" lon="2.97795">
        <ele>814.2</ele>
        <time>2023-06-25T10:09:26Z</time>
      </trkpt>
      <trkpt lat="44.23289" lon="2.97794">
        <ele>814.4</ele>
        <time>2023-06-25T10:09:27Z</time>
      </trkpt>
      <trkpt lat="44.23289" lon="2.9779">
        <ele>814.8</ele>
        <time>2023-06-25T10:09:28Z</time>
      </trkpt>
      <trkpt lat="44.23288" lon="2.97784">
        <ele>815.4</ele>
        <time>2023-06-25T10:09:30Z</time>
      </trkpt>
      <trkpt lat="44.23287" lon="2.9778">
        <ele>815.7</ele>
        <time>2023-06-25T10:09:31Z</time>
      </trkpt>
      <trkpt lat="44.23286" lon="2.97777">
        <ele>816</ele>
        <time>2023-06-25T10:09:32Z</time>
      </trkpt>
      <trkpt lat="44.23285" lon="2.97772">
        <ele>816.5</ele>
        <time>2023-06-25T10:09:34Z</time>
      </trkpt>
      <trkpt lat="44.23285" lon="2.97768">
        <ele>817</ele>
        <time>2023-06-25T10:09:35Z</time>
      </trkpt>
      <trkpt lat="44.23285" lon="2.97766">
        <ele>817.1</ele>
        <time>2023-06-25T10:09:36Z</time>
      </trkpt>
      <trkpt lat="44.23285" lon="2.97759">
        <ele>817.8</ele>
        <time>2023-06-25T10:09:38Z</time>
      </trkpt>
      <trkpt lat="44.23285" lon="2.97755">
        <ele>818.2</ele>
        <time>2023-06-25T10:09:39Z</time>
      </trkpt>
      <trkpt lat="44.23285" lon="2.9775">
        <ele>818.7</ele>
        <time>2023-06-25T10:09:40Z</time>
      </trkpt>
      <trkpt lat="44.23285" lon="2.97748">
        <ele>818.9</ele>
        <time>2023-06-25T10:09:41Z</time>
      </trkpt>
      <trkpt lat="44.23285" lon="2.97746">
        <ele>819.1</ele>
        <time>2023-06-25T10:09:42Z</time>
      </trkpt>
      <trkpt lat="44.23285" lon="2.97741">
        <ele>819.6</ele>
        <time>2023-06-25T10:09:44Z</time>
      </trkpt>
      <trkpt lat="44.23285" lon="2.97736">
        <ele>820.1</ele>
        <time>2023-06-25T10:09:45Z</time>
      </trkpt>
      <trkpt lat="44.23286" lon="2.97735">
        <ele>820.2</ele>
        <time>2023-06-25T10:09:46Z</time>
      </trkpt>
      <trkpt lat="44.23286" lon="2.9773">
        <ele>820.7</ele>
        <time>2023-06-25T10:09:47Z</time>
      </trkpt>
      <trkpt lat="44.23286" lon="2.97729">
        <ele>820.8</ele>
        <time>2023-06-25T10:09:48Z</time>
      </trkpt>
      <trkpt lat="44.23286" lon="2.97723">
        <ele>821.2</ele>
        <time>2023-06-25T10:09:49Z</time>
      </trkpt>
      <trkpt lat="44.23286" lon="2.97722">
        <ele>821.3</ele>
        <time>2023-06-25T10:09:50Z</time>
      </trkpt>
      <trkpt lat="44.23286" lon="2.97716">
        <ele>821.5</ele>
        <time>2023-06-25T10:09:52Z</time>
      </trkpt>
      <trkpt lat="44.23287" lon="2.97712">
        <ele>821.7</ele>
        <time>2023-06-25T10:09:53Z</time>
      </trkpt>
      <trkpt lat="44.23288" lon="2.97706">
        <ele>822</ele>
        <time>2023-06-25T10:09:55Z</time>
      </trkpt>
      <trkpt lat="44.23289" lon="2.97702">
        <ele>822.2</ele>
        <time>2023-06-25T10:09:56Z</time>
      </trkpt>
      <trkpt lat="44.2329" lon="2.97696">
        <ele>822.5</ele>
        <time>2023-06-25T10:09:58Z</time>
      </trkpt>
      <trkpt lat="44.23291" lon="2.97691">
        <ele>822.7</ele>
        <time>2023-06-25T10:09:59Z</time>
      </trkpt>
      <trkpt lat="44.23291" lon="2.97689">
        <ele>822.8</ele>
        <time>2023-06-25T10:10:00Z</time>
      </trkpt>
      <trkpt lat="44.23292" lon="2.97684">
        <ele>823</ele>
        <time>2023-06-25T10:10:02Z</time>
      </trkpt>
      <trkpt lat="44.23291" lon="2.97679">
        <ele>823.2</ele>
        <time>2023-06-25T10:10:04Z</time>
      </trkpt>
      <trkpt lat="44.23291" lon="2.97674">
        <ele>823.4</ele>
        <time>2023-06-25T10:10:05Z</time>
      </trkpt>
      <trkpt lat="44.23291" lon="2.97673">
        <ele>823.5</ele>
        <time>2023-06-25T10:10:06Z</time>
      </trkpt>
      <trkpt lat="44.23291" lon="2.97667">
        <ele>823.7</ele>
        <time>2023-06-25T10:10:08Z</time>
      </trkpt>
      <trkpt lat="44.2329" lon="2.97663">
        <ele>824</ele>
        <time>2023-06-25T10:10:09Z</time>
      </trkpt>
      <trkpt lat="44.23289" lon="2.97661">
        <ele>824</ele>
        <time>2023-06-25T10:10:10Z</time>
      </trkpt>
      <trkpt lat="44.23289" lon="2.97658">
        <ele>824.2</ele>
        <time>2023-06-25T10:10:11Z</time>
      </trkpt>
      <trkpt lat="44.23289" lon="2.97653">
        <ele>824.4</ele>
        <time>2023-06-25T10:10:13Z</time>
      </trkpt>
      <trkpt lat="44.23289" lon="2.97648">
        <ele>824.6</ele>
        <time>2023-06-25T10:10:15Z</time>
      </trkpt>
      <trkpt lat="44.23291" lon="2.97644">
        <ele>824.8</ele>
        <time>2023-06-25T10:10:16Z</time>
      </trkpt>
      <trkpt lat="44.23292" lon="2.9764">
        <ele>825</ele>
        <time>2023-06-25T10:10:17Z</time>
      </trkpt>
      <trkpt lat="44.23295" lon="2.97635">
        <ele>825.3</ele>
        <time>2023-06-25T10:10:19Z</time>
      </trkpt>
      <trkpt lat="44.23296" lon="2.97631">
        <ele>825.5</ele>
        <time>2023-06-25T10:10:20Z</time>
      </trkpt>
      <trkpt lat="44.23299" lon="2.97626">
        <ele>825.7</ele>
        <time>2023-06-25T10:10:21Z</time>
      </trkpt>
      <trkpt lat="44.233" lon="2.97625">
        <ele>825.8</ele>
        <time>2023-06-25T10:10:22Z</time>
      </trkpt>
      <trkpt lat="44.23303" lon="2.97622">
        <ele>826.1</ele>
        <time>2023-06-25T10:10:24Z</time>
      </trkpt>
      <trkpt lat="44.23305" lon="2.97619">
        <ele>826.2</ele>
        <time>2023-06-25T10:10:25Z</time>
      </trkpt>
      <trkpt lat="44.23307" lon="2.97617">
        <ele>826.4</ele>
        <time>2023-06-25T10:10:27Z</time>
      </trkpt>
      <trkpt lat="44.2331" lon="2.97614">
        <ele>826.6</ele>
        <time>2023-06-25T10:10:28Z</time>
      </trkpt>
      <trkpt lat="44.23314" lon="2.9761">
        <ele>826.9</ele>
        <time>2023-06-25T10:10:30Z</time>
      </trkpt>
      <trkpt lat="44.23317" lon="2.97607">
        <ele>827.2</ele>
        <time>2023-06-25T10:10:31Z</time>
      </trkpt>
      <trkpt lat="44.23319" lon="2.97604">
        <ele>827.4</ele>
        <time>2023-06-25T10:10:32Z</time>
      </trkpt>
      <trkpt lat="44.23323" lon="2.97599">
        <ele>827.7</ele>
        <time>2023-06-25T10:10:34Z</time>
      </trkpt>
      <trkpt lat="44.23326" lon="2.97596">
        <ele>827.9</ele>
        <time>2023-06-25T10:10:35Z</time>
      </trkpt>
      <trkpt lat="44.2333" lon="2.97593">
        <ele>828.2</ele>
        <time>2023-06-25T10:10:36Z</time>
      </trkpt>
      <trkpt lat="44.23333" lon="2.9759">
        <ele>828.5</ele>
        <time>2023-06-25T10:10:37Z</time>
      </trkpt>
      <trkpt lat="44.23337" lon="2.97587">
        <ele>828.7</ele>
        <time>2023-06-25T10:10:39Z</time>
      </trkpt>
      <trkpt lat="44.2334" lon="2.97585">
        <ele>828.9</ele>
        <time>2023-06-25T10:10:40Z</time>
      </trkpt>
      <trkpt lat="44.23342" lon="2.97582">
        <ele>829.5</ele>
        <time>2023-06-25T10:10:41Z</time>
      </trkpt>
      <trkpt lat="44.23342" lon="2.97581">
        <ele>829.6</ele>
        <time>2023-06-25T10:10:42Z</time>
      </trkpt>
      <trkpt lat="44.2334" lon="2.97577">
        <ele>829.8</ele>
        <time>2023-06-25T10:10:43Z</time>
      </trkpt>
      <trkpt lat="44.23339" lon="2.97576">
        <ele>829.9</ele>
        <time>2023-06-25T10:10:44Z</time>
      </trkpt>
      <trkpt lat="44.23337" lon="2.97571">
        <ele>830.1</ele>
        <time>2023-06-25T10:10:46Z</time>
      </trkpt>
      <trkpt lat="44.23334" lon="2.97567">
        <ele>830.3</ele>
        <time>2023-06-25T10:10:48Z</time>
      </trkpt>
      <trkpt lat="44.23332" lon="2.97566">
        <ele>830.4</ele>
        <time>2023-06-25T10:10:49Z</time>
      </trkpt>
      <trkpt lat="44.23331" lon="2.97564">
        <ele>830.5</ele>
        <time>2023-06-25T10:10:50Z</time>
      </trkpt>
      <trkpt lat="44.23328" lon="2.97561">
        <ele>830.6</ele>
        <time>2023-06-25T10:10:52Z</time>
      </trkpt>
      <trkpt lat="44.23326" lon="2.9756">
        <ele>830.7</ele>
        <time>2023-06-25T10:10:53Z</time>
      </trkpt>
      <trkpt lat="44.23323" lon="2.97558">
        <ele>830.8</ele>
        <time>2023-06-25T10:10:54Z</time>
      </trkpt>
      <trkpt lat="44.23321" lon="2.97556">
        <ele>830.9</ele>
        <time>2023-06-25T10:10:55Z</time>
      </trkpt>
      <trkpt lat="44.23319" lon="2.97552">
        <ele>831</ele>
        <time>2023-06-25T10:10:57Z</time>
      </trkpt>
      <trkpt lat="44.23315" lon="2.97549">
        <ele>831.1</ele>
        <time>2023-06-25T10:10:59Z</time>
      </trkpt>
      <trkpt lat="44.23312" lon="2.97546">
        <ele>831.2</ele>
        <time>2023-06-25T10:11:00Z</time>
      </trkpt>
      <trkpt lat="44.23311" lon="2.97545">
        <ele>831.2</ele>
        <time>2023-06-25T10:11:01Z</time>
      </trkpt>
      <trkpt lat="44.23308" lon="2.97542">
        <ele>831.3</ele>
        <time>2023-06-25T10:11:02Z</time>
      </trkpt>
      <trkpt lat="44.23304" lon="2.9754">
        <ele>831.4</ele>
        <time>2023-06-25T10:11:04Z</time>
      </trkpt>
      <trkpt lat="44.23302" lon="2.97537">
        <ele>831.5</ele>
        <time>2023-06-25T10:11:05Z</time>
      </trkpt>
      <trkpt lat="44.23299" lon="2.97534">
        <ele>831.5</ele>
        <time>2023-06-25T10:11:06Z</time>
      </trkpt>
      <trkpt lat="44.23296" lon="2.97532">
        <ele>831.6</ele>
        <time>2023-06-25T10:11:07Z</time>
      </trkpt>
      <trkpt lat="44.23294" lon="2.97531">
        <ele>831.6</ele>
        <time>2023-06-25T10:11:08Z</time>
      </trkpt>
      <trkpt lat="44.23291" lon="2.97529">
        <ele>831.6</ele>
        <time>2023-06-25T10:11:09Z</time>
      </trkpt>
      <trkpt lat="44.23288" lon="2.97526">
        <ele>831.7</ele>
        <time>2023-06-25T10:11:10Z</time>
      </trkpt>
      <trkpt lat="44.23282" lon="2.9752">
        <ele>831.7</ele>
        <time>2023-06-25T10:11:12Z</time>
      </trkpt>
      <trkpt lat="44.23278" lon="2.97517">
        <ele>831.7</ele>
        <time>2023-06-25T10:11:14Z</time>
      </trkpt>
      <trkpt lat="44.23275" lon="2.97514">
        <ele>831.7</ele>
        <time>2023-06-25T10:11:15Z</time>
      </trkpt>
      <trkpt lat="44.2327" lon="2.97511">
        <ele>831.7</ele>
        <time>2023-06-25T10:11:16Z</time>
      </trkpt>
      <trkpt lat="44.23267" lon="2.97509">
        <ele>831.7</ele>
        <time>2023-06-25T10:11:17Z</time>
      </trkpt>
      <trkpt lat="44.23264" lon="2.97506">
        <ele>831.6</ele>
        <time>2023-06-25T10:11:18Z</time>
      </trkpt>
      <trkpt lat="44.2326" lon="2.97503">
        <ele>831.5</ele>
        <time>2023-06-25T10:11:19Z</time>
      </trkpt>
      <trkpt lat="44.23255" lon="2.97502">
        <ele>831.4</ele>
        <time>2023-06-25T10:11:20Z</time>
      </trkpt>
      <trkpt lat="44.23249" lon="2.97499">
        <ele>831.3</ele>
        <time>2023-06-25T10:11:22Z</time>
      </trkpt>
      <trkpt lat="44.23244" lon="2.97497">
        <ele>831.1</ele>
        <time>2023-06-25T10:11:23Z</time>
      </trkpt>
      <trkpt lat="44.23234" lon="2.97493">
        <ele>830.9</ele>
        <time>2023-06-25T10:11:25Z</time>
      </trkpt>
      <trkpt lat="44.23228" lon="2.9749">
        <ele>830.7</ele>
        <time>2023-06-25T10:11:27Z</time>
      </trkpt>
      <trkpt lat="44.23224" lon="2.97487">
        <ele>830.5</ele>
        <time>2023-06-25T10:11:28Z</time>
      </trkpt>
      <trkpt lat="44.23219" lon="2.97484">
        <ele>830.4</ele>
        <time>2023-06-25T10:11:29Z</time>
      </trkpt>
      <trkpt lat="44.23215" lon="2.9748">
        <ele>830.2</ele>
        <time>2023-06-25T10:11:30Z</time>
      </trkpt>
      <trkpt lat="44.23209" lon="2.97474">
        <ele>830</ele>
        <time>2023-06-25T10:11:32Z</time>
      </trkpt>
      <trkpt lat="44.23204" lon="2.97469">
        <ele>829.8</ele>
        <time>2023-06-25T10:11:33Z</time>
      </trkpt>
      <trkpt lat="44.23201" lon="2.97465">
        <ele>829.7</ele>
        <time>2023-06-25T10:11:34Z</time>
      </trkpt>
      <trkpt lat="44.23197" lon="2.97459">
        <ele>829.6</ele>
        <time>2023-06-25T10:11:36Z</time>
      </trkpt>
      <trkpt lat="44.23194" lon="2.97455">
        <ele>829.5</ele>
        <time>2023-06-25T10:11:37Z</time>
      </trkpt>
      <trkpt lat="44.23191" lon="2.9745">
        <ele>829.4</ele>
        <time>2023-06-25T10:11:38Z</time>
      </trkpt>
      <trkpt lat="44.23188" lon="2.97448">
        <ele>829.3</ele>
        <time>2023-06-25T10:11:39Z</time>
      </trkpt>
      <trkpt lat="44.23184" lon="2.97443">
        <ele>829.2</ele>
        <time>2023-06-25T10:11:40Z</time>
      </trkpt>
      <trkpt lat="44.23181" lon="2.97437">
        <ele>829.1</ele>
        <time>2023-06-25T10:11:41Z</time>
      </trkpt>
      <trkpt lat="44.2318" lon="2.9743">
        <ele>828.8</ele>
        <time>2023-06-25T10:11:43Z</time>
      </trkpt>
      <trkpt lat="44.23181" lon="2.97425">
        <ele>828.4</ele>
        <time>2023-06-25T10:11:44Z</time>
      </trkpt>
      <trkpt lat="44.23182" lon="2.97419">
        <ele>828</ele>
        <time>2023-06-25T10:11:45Z</time>
      </trkpt>
      <trkpt lat="44.23184" lon="2.97413">
        <ele>827.6</ele>
        <time>2023-06-25T10:11:46Z</time>
      </trkpt>
      <trkpt lat="44.23186" lon="2.97408">
        <ele>827.2</ele>
        <time>2023-06-25T10:11:47Z</time>
      </trkpt>
      <trkpt lat="44.23187" lon="2.97402">
        <ele>826.7</ele>
        <time>2023-06-25T10:11:49Z</time>
      </trkpt>
      <trkpt lat="44.23187" lon="2.97397">
        <ele>827</ele>
        <time>2023-06-25T10:11:50Z</time>
      </trkpt>
      <trkpt lat="44.23187" lon="2.97396">
        <ele>827.1</ele>
        <time>2023-06-25T10:11:51Z</time>
      </trkpt>
      <trkpt lat="44.23187" lon="2.97397">
        <ele>827.1</ele>
        <time>2023-06-25T10:11:53Z</time>
      </trkpt>
      <trkpt lat="44.23187" lon="2.97397">
        <ele>827.2</ele>
        <time>2023-06-25T10:11:54Z</time>
      </trkpt>
      <trkpt lat="44.23187" lon="2.97397">
        <ele>827.2</ele>
        <time>2023-06-25T10:11:56Z</time>
      </trkpt>
      <trkpt lat="44.23187" lon="2.97397">
        <ele>827.2</ele>
        <time>2023-06-25T10:11:57Z</time>
      </trkpt>
      <trkpt lat="44.23187" lon="2.97398">
        <ele>827.3</ele>
        <time>2023-06-25T10:11:58Z</time>
      </trkpt>
      <trkpt lat="44.23188" lon="2.97398">
        <ele>827.3</ele>
        <time>2023-06-25T10:12:00Z</time>
      </trkpt>
      <trkpt lat="44.23187" lon="2.97399">
        <ele>827.3</ele>
        <time>2023-06-25T10:12:01Z</time>
      </trkpt>
      <trkpt lat="44.23192" lon="2.97401">
        <ele>827.8</ele>
        <time>2023-06-25T10:12:34Z</time>
      </trkpt>
      <trkpt lat="44.23195" lon="2.97402">
        <ele>828</ele>
        <time>2023-06-25T10:12:36Z</time>
      </trkpt>
      <trkpt lat="44.23197" lon="2.97402">
        <ele>828.2</ele>
        <time>2023-06-25T10:12:37Z</time>
      </trkpt>
      <trkpt lat="44.23199" lon="2.97403">
        <ele>828.3</ele>
        <time>2023-06-25T10:12:38Z</time>
      </trkpt>
      <trkpt lat="44.23203" lon="2.97402">
        <ele>828.6</ele>
        <time>2023-06-25T10:12:40Z</time>
      </trkpt>
      <trkpt lat="44.23205" lon="2.97402">
        <ele>828.7</ele>
        <time>2023-06-25T10:12:42Z</time>
      </trkpt>
      <trkpt lat="44.23206" lon="2.97401">
        <ele>828.8</ele>
        <time>2023-06-25T10:12:43Z</time>
      </trkpt>
      <trkpt lat="44.23209" lon="2.97401">
        <ele>829</ele>
        <time>2023-06-25T10:12:44Z</time>
      </trkpt>
      <trkpt lat="44.23211" lon="2.97401">
        <ele>829.1</ele>
        <time>2023-06-25T10:12:45Z</time>
      </trkpt>
      <trkpt lat="44.23212" lon="2.97401">
        <ele>829.2</ele>
        <time>2023-06-25T10:12:47Z</time>
      </trkpt>
      <trkpt lat="44.23213" lon="2.97401">
        <ele>829.2</ele>
        <time>2023-06-25T10:12:48Z</time>
      </trkpt>
      <trkpt lat="44.23213" lon="2.97401">
        <ele>829.3</ele>
        <time>2023-06-25T10:12:49Z</time>
      </trkpt>
      <trkpt lat="44.23215" lon="2.97401">
        <ele>829.4</ele>
        <time>2023-06-25T10:12:51Z</time>
      </trkpt>
      <trkpt lat="44.23216" lon="2.97401">
        <ele>829.4</ele>
        <time>2023-06-25T10:12:52Z</time>
      </trkpt>
      <trkpt lat="44.23219" lon="2.97399">
        <ele>829.6</ele>
        <time>2023-06-25T10:12:54Z</time>
      </trkpt>
      <trkpt lat="44.23223" lon="2.97398">
        <ele>829.9</ele>
        <time>2023-06-25T10:12:55Z</time>
      </trkpt>
      <trkpt lat="44.23225" lon="2.97398">
        <ele>829.9</ele>
        <time>2023-06-25T10:12:56Z</time>
      </trkpt>
      <trkpt lat="44.23231" lon="2.97397">
        <ele>830.3</ele>
        <time>2023-06-25T10:12:58Z</time>
      </trkpt>
      <trkpt lat="44.23234" lon="2.97397">
        <ele>830.5</ele>
        <time>2023-06-25T10:12:59Z</time>
      </trkpt>
      <trkpt lat="44.23241" lon="2.97398">
        <ele>830.9</ele>
        <time>2023-06-25T10:13:01Z</time>
      </trkpt>
      <trkpt lat="44.23245" lon="2.97398">
        <ele>831.1</ele>
        <time>2023-06-25T10:13:02Z</time>
      </trkpt>
      <trkpt lat="44.23251" lon="2.97397">
        <ele>831.4</ele>
        <time>2023-06-25T10:13:04Z</time>
      </trkpt>
      <trkpt lat="44.23254" lon="2.97395">
        <ele>831.6</ele>
        <time>2023-06-25T10:13:05Z</time>
      </trkpt>
      <trkpt lat="44.23258" lon="2.97394">
        <ele>831.8</ele>
        <time>2023-06-25T10:13:06Z</time>
      </trkpt>
      <trkpt lat="44.23261" lon="2.97392">
        <ele>832</ele>
        <time>2023-06-25T10:13:07Z</time>
      </trkpt>
      <trkpt lat="44.23265" lon="2.97391">
        <ele>832.2</ele>
        <time>2023-06-25T10:13:09Z</time>
      </trkpt>
      <trkpt lat="44.23268" lon="2.97389">
        <ele>832.3</ele>
        <time>2023-06-25T10:13:10Z</time>
      </trkpt>
      <trkpt lat="44.23269" lon="2.97385">
        <ele>832.5</ele>
        <time>2023-06-25T10:13:11Z</time>
      </trkpt>
      <trkpt lat="44.23271" lon="2.97382">
        <ele>832.6</ele>
        <time>2023-06-25T10:13:12Z</time>
      </trkpt>
      <trkpt lat="44.23273" lon="2.97379">
        <ele>832.8</ele>
        <time>2023-06-25T10:13:13Z</time>
      </trkpt>
      <trkpt lat="44.23275" lon="2.97376">
        <ele>832.9</ele>
        <time>2023-06-25T10:13:14Z</time>
      </trkpt>
      <trkpt lat="44.23278" lon="2.97372">
        <ele>833.1</ele>
        <time>2023-06-25T10:13:16Z</time>
      </trkpt>
      <trkpt lat="44.2328" lon="2.97369">
        <ele>833.3</ele>
        <time>2023-06-25T10:13:17Z</time>
      </trkpt>
      <trkpt lat="44.23283" lon="2.97366">
        <ele>833.4</ele>
        <time>2023-06-25T10:13:18Z</time>
      </trkpt>
      <trkpt lat="44.23285" lon="2.97364">
        <ele>833.6</ele>
        <time>2023-06-25T10:13:19Z</time>
      </trkpt>
      <trkpt lat="44.23289" lon="2.97362">
        <ele>833.8</ele>
        <time>2023-06-25T10:13:20Z</time>
      </trkpt>
      <trkpt lat="44.23292" lon="2.97358">
        <ele>834</ele>
        <time>2023-06-25T10:13:22Z</time>
      </trkpt>
      <trkpt lat="44.23296" lon="2.97355">
        <ele>834.2</ele>
        <time>2023-06-25T10:13:23Z</time>
      </trkpt>
      <trkpt lat="44.233" lon="2.97352">
        <ele>834.4</ele>
        <time>2023-06-25T10:13:24Z</time>
      </trkpt>
      <trkpt lat="44.23302" lon="2.97349">
        <ele>834.6</ele>
        <time>2023-06-25T10:13:26Z</time>
      </trkpt>
      <trkpt lat="44.23305" lon="2.97348">
        <ele>834.7</ele>
        <time>2023-06-25T10:13:27Z</time>
      </trkpt>
      <trkpt lat="44.23308" lon="2.97346">
        <ele>834.9</ele>
        <time>2023-06-25T10:13:28Z</time>
      </trkpt>
      <trkpt lat="44.2331" lon="2.97345">
        <ele>835</ele>
        <time>2023-06-25T10:13:29Z</time>
      </trkpt>
      <trkpt lat="44.23313" lon="2.97343">
        <ele>835.2</ele>
        <time>2023-06-25T10:13:31Z</time>
      </trkpt>
      <trkpt lat="44.23316" lon="2.97342">
        <ele>835.3</ele>
        <time>2023-06-25T10:13:32Z</time>
      </trkpt>
      <trkpt lat="44.2332" lon="2.97341">
        <ele>835.5</ele>
        <time>2023-06-25T10:13:33Z</time>
      </trkpt>
      <trkpt lat="44.23322" lon="2.97341">
        <ele>835.6</ele>
        <time>2023-06-25T10:13:34Z</time>
      </trkpt>
      <trkpt lat="44.23325" lon="2.97339">
        <ele>835.8</ele>
        <time>2023-06-25T10:13:35Z</time>
      </trkpt>
      <trkpt lat="44.23328" lon="2.97339">
        <ele>835.9</ele>
        <time>2023-06-25T10:13:36Z</time>
      </trkpt>
      <trkpt lat="44.23332" lon="2.97338">
        <ele>836.1</ele>
        <time>2023-06-25T10:13:37Z</time>
      </trkpt>
      <trkpt lat="44.23337" lon="2.97337">
        <ele>836.4</ele>
        <time>2023-06-25T10:13:39Z</time>
      </trkpt>
      <trkpt lat="44.2334" lon="2.97337">
        <ele>836.6</ele>
        <time>2023-06-25T10:13:40Z</time>
      </trkpt>
      <trkpt lat="44.23344" lon="2.97338">
        <ele>836.7</ele>
        <time>2023-06-25T10:13:41Z</time>
      </trkpt>
      <trkpt lat="44.23347" lon="2.97337">
        <ele>836.9</ele>
        <time>2023-06-25T10:13:42Z</time>
      </trkpt>
      <trkpt lat="44.23352" lon="2.97338">
        <ele>837.2</ele>
        <time>2023-06-25T10:13:44Z</time>
      </trkpt>
      <trkpt lat="44.23356" lon="2.97339">
        <ele>837.3</ele>
        <time>2023-06-25T10:13:45Z</time>
      </trkpt>
      <trkpt lat="44.2336" lon="2.9734">
        <ele>837.5</ele>
        <time>2023-06-25T10:13:46Z</time>
      </trkpt>
      <trkpt lat="44.23363" lon="2.97341">
        <ele>837.7</ele>
        <time>2023-06-25T10:13:47Z</time>
      </trkpt>
      <trkpt lat="44.23369" lon="2.9734">
        <ele>838</ele>
        <time>2023-06-25T10:13:49Z</time>
      </trkpt>
      <trkpt lat="44.23373" lon="2.97341">
        <ele>838.2</ele>
        <time>2023-06-25T10:13:50Z</time>
      </trkpt>
      <trkpt lat="44.23378" lon="2.97341">
        <ele>838.5</ele>
        <time>2023-06-25T10:13:51Z</time>
      </trkpt>
      <trkpt lat="44.23382" lon="2.97341">
        <ele>838.7</ele>
        <time>2023-06-25T10:13:52Z</time>
      </trkpt>
      <trkpt lat="44.23389" lon="2.97341">
        <ele>839</ele>
        <time>2023-06-25T10:13:54Z</time>
      </trkpt>
      <trkpt lat="44.23396" lon="2.97342">
        <ele>839.4</ele>
        <time>2023-06-25T10:13:56Z</time>
      </trkpt>
      <trkpt lat="44.23401" lon="2.97342">
        <ele>839.6</ele>
        <time>2023-06-25T10:13:57Z</time>
      </trkpt>
      <trkpt lat="44.23405" lon="2.97342">
        <ele>839.8</ele>
        <time>2023-06-25T10:13:58Z</time>
      </trkpt>
      <trkpt lat="44.2341" lon="2.97343">
        <ele>840.1</ele>
        <time>2023-06-25T10:13:59Z</time>
      </trkpt>
      <trkpt lat="44.23416" lon="2.97343">
        <ele>840.4</ele>
        <time>2023-06-25T10:14:01Z</time>
      </trkpt>
      <trkpt lat="44.23421" lon="2.97343">
        <ele>840.6</ele>
        <time>2023-06-25T10:14:02Z</time>
      </trkpt>
      <trkpt lat="44.23426" lon="2.97343">
        <ele>840.8</ele>
        <time>2023-06-25T10:14:03Z</time>
      </trkpt>
      <trkpt lat="44.2343" lon="2.97343">
        <ele>841.1</ele>
        <time>2023-06-25T10:14:04Z</time>
      </trkpt>
      <trkpt lat="44.23435" lon="2.97343">
        <ele>841.3</ele>
        <time>2023-06-25T10:14:05Z</time>
      </trkpt>
      <trkpt lat="44.23441" lon="2.97344">
        <ele>841.6</ele>
        <time>2023-06-25T10:14:07Z</time>
      </trkpt>
      <trkpt lat="44.23444" lon="2.97344">
        <ele>841.8</ele>
        <time>2023-06-25T10:14:08Z</time>
      </trkpt>
      <trkpt lat="44.23448" lon="2.97345">
        <ele>842</ele>
        <time>2023-06-25T10:14:09Z</time>
      </trkpt>
      <trkpt lat="44.23455" lon="2.97345">
        <ele>842.3</ele>
        <time>2023-06-25T10:14:11Z</time>
      </trkpt>
      <trkpt lat="44.23458" lon="2.97345">
        <ele>842.5</ele>
        <time>2023-06-25T10:14:12Z</time>
      </trkpt>
      <trkpt lat="44.23462" lon="2.97345">
        <ele>842.6</ele>
        <time>2023-06-25T10:14:13Z</time>
      </trkpt>
      <trkpt lat="44.23466" lon="2.97345">
        <ele>842.9</ele>
        <time>2023-06-25T10:14:15Z</time>
      </trkpt>
      <trkpt lat="44.2347" lon="2.97345">
        <ele>843.1</ele>
        <time>2023-06-25T10:14:16Z</time>
      </trkpt>
      <trkpt lat="44.23474" lon="2.97344">
        <ele>843.2</ele>
        <time>2023-06-25T10:14:17Z</time>
      </trkpt>
      <trkpt lat="44.23478" lon="2.97344">
        <ele>843.4</ele>
        <time>2023-06-25T10:14:18Z</time>
      </trkpt>
      <trkpt lat="44.23479" lon="2.97343">
        <ele>843.5</ele>
        <time>2023-06-25T10:14:19Z</time>
      </trkpt>
      <trkpt lat="44.2348" lon="2.97343">
        <ele>843.6</ele>
        <time>2023-06-25T10:14:20Z</time>
      </trkpt>
      <trkpt lat="44.2348" lon="2.97343">
        <ele>843.6</ele>
        <time>2023-06-25T10:14:21Z</time>
      </trkpt>
      <trkpt lat="44.23481" lon="2.97343">
        <ele>843.6</ele>
        <time>2023-06-25T10:14:23Z</time>
      </trkpt>
      <trkpt lat="44.23481" lon="2.97343">
        <ele>843.6</ele>
        <time>2023-06-25T10:14:24Z</time>
      </trkpt>
      <trkpt lat="44.23482" lon="2.97343">
        <ele>843.7</ele>
        <time>2023-06-25T10:14:26Z</time>
      </trkpt>
      <trkpt lat="44.23482" lon="2.97343">
        <ele>843.7</ele>
        <time>2023-06-25T10:14:27Z</time>
      </trkpt>
      <trkpt lat="44.23483" lon="2.97343">
        <ele>843.7</ele>
        <time>2023-06-25T10:14:28Z</time>
      </trkpt>
      <trkpt lat="44.23483" lon="2.97343">
        <ele>843.7</ele>
        <time>2023-06-25T10:14:30Z</time>
      </trkpt>
      <trkpt lat="44.23484" lon="2.97343">
        <ele>843.8</ele>
        <time>2023-06-25T10:14:31Z</time>
      </trkpt>
      <trkpt lat="44.23487" lon="2.97342">
        <ele>843.9</ele>
        <time>2023-06-25T10:14:32Z</time>
      </trkpt>
      <trkpt lat="44.2349" lon="2.97341">
        <ele>844</ele>
        <time>2023-06-25T10:14:33Z</time>
      </trkpt>
      <trkpt lat="44.23493" lon="2.9734">
        <ele>844.2</ele>
        <time>2023-06-25T10:14:35Z</time>
      </trkpt>
      <trkpt lat="44.23496" lon="2.97339">
        <ele>844.4</ele>
        <time>2023-06-25T10:14:36Z</time>
      </trkpt>
      <trkpt lat="44.23499" lon="2.97339">
        <ele>844.5</ele>
        <time>2023-06-25T10:14:37Z</time>
      </trkpt>
      <trkpt lat="44.23502" lon="2.97337">
        <ele>844.7</ele>
        <time>2023-06-25T10:14:38Z</time>
      </trkpt>
      <trkpt lat="44.23505" lon="2.97336">
        <ele>844.8</ele>
        <time>2023-06-25T10:14:39Z</time>
      </trkpt>
      <trkpt lat="44.23508" lon="2.97335">
        <ele>845</ele>
        <time>2023-06-25T10:14:40Z</time>
      </trkpt>
      <trkpt lat="44.23513" lon="2.97334">
        <ele>845.2</ele>
        <time>2023-06-25T10:14:41Z</time>
      </trkpt>
      <trkpt lat="44.23517" lon="2.97334">
        <ele>845.4</ele>
        <time>2023-06-25T10:14:43Z</time>
      </trkpt>
      <trkpt lat="44.23521" lon="2.97332">
        <ele>845.7</ele>
        <time>2023-06-25T10:14:44Z</time>
      </trkpt>
      <trkpt lat="44.23523" lon="2.97331">
        <ele>845.7</ele>
        <time>2023-06-25T10:14:45Z</time>
      </trkpt>
      <trkpt lat="44.23525" lon="2.97329">
        <ele>845.9</ele>
        <time>2023-06-25T10:14:46Z</time>
      </trkpt>
      <trkpt lat="44.23529" lon="2.97327">
        <ele>846.1</ele>
        <time>2023-06-25T10:14:47Z</time>
      </trkpt>
      <trkpt lat="44.23532" lon="2.97326">
        <ele>846.3</ele>
        <time>2023-06-25T10:14:48Z</time>
      </trkpt>
      <trkpt lat="44.23536" lon="2.97324">
        <ele>846.5</ele>
        <time>2023-06-25T10:14:50Z</time>
      </trkpt>
      <trkpt lat="44.23539" lon="2.97323">
        <ele>846.6</ele>
        <time>2023-06-25T10:14:51Z</time>
      </trkpt>
      <trkpt lat="44.23542" lon="2.97321">
        <ele>846.8</ele>
        <time>2023-06-25T10:14:52Z</time>
      </trkpt>
      <trkpt lat="44.23545" lon="2.9732">
        <ele>847</ele>
        <time>2023-06-25T10:14:53Z</time>
      </trkpt>
      <trkpt lat="44.2355" lon="2.97317">
        <ele>847.2</ele>
        <time>2023-06-25T10:14:55Z</time>
      </trkpt>
      <trkpt lat="44.23554" lon="2.97316">
        <ele>847.4</ele>
        <time>2023-06-25T10:14:56Z</time>
      </trkpt>
      <trkpt lat="44.23557" lon="2.97315">
        <ele>847.6</ele>
        <time>2023-06-25T10:14:57Z</time>
      </trkpt>
      <trkpt lat="44.23563" lon="2.97313">
        <ele>847.9</ele>
        <time>2023-06-25T10:14:59Z</time>
      </trkpt>
      <trkpt lat="44.23567" lon="2.9731">
        <ele>848.1</ele>
        <time>2023-06-25T10:15:00Z</time>
      </trkpt>
      <trkpt lat="44.2357" lon="2.97308">
        <ele>848.3</ele>
        <time>2023-06-25T10:15:01Z</time>
      </trkpt>
      <trkpt lat="44.23574" lon="2.97306">
        <ele>848.5</ele>
        <time>2023-06-25T10:15:03Z</time>
      </trkpt>
      <trkpt lat="44.23578" lon="2.97304">
        <ele>848.7</ele>
        <time>2023-06-25T10:15:04Z</time>
      </trkpt>
      <trkpt lat="44.23581" lon="2.97303">
        <ele>848.8</ele>
        <time>2023-06-25T10:15:05Z</time>
      </trkpt>
      <trkpt lat="44.23584" lon="2.973">
        <ele>849</ele>
        <time>2023-06-25T10:15:06Z</time>
      </trkpt>
      <trkpt lat="44.23588" lon="2.97298">
        <ele>849.2</ele>
        <time>2023-06-25T10:15:07Z</time>
      </trkpt>
      <trkpt lat="44.23591" lon="2.97295">
        <ele>849.4</ele>
        <time>2023-06-25T10:15:08Z</time>
      </trkpt>
      <trkpt lat="44.23596" lon="2.97291">
        <ele>849.7</ele>
        <time>2023-06-25T10:15:10Z</time>
      </trkpt>
      <trkpt lat="44.23599" lon="2.97289">
        <ele>849.9</ele>
        <time>2023-06-25T10:15:11Z</time>
      </trkpt>
      <trkpt lat="44.23602" lon="2.97287">
        <ele>850.1</ele>
        <time>2023-06-25T10:15:12Z</time>
      </trkpt>
      <trkpt lat="44.23609" lon="2.97282">
        <ele>850.4</ele>
        <time>2023-06-25T10:15:14Z</time>
      </trkpt>
      <trkpt lat="44.23612" lon="2.9728">
        <ele>850.6</ele>
        <time>2023-06-25T10:15:15Z</time>
      </trkpt>
      <trkpt lat="44.23615" lon="2.97278">
        <ele>850.7</ele>
        <time>2023-06-25T10:15:16Z</time>
      </trkpt>
      <trkpt lat="44.23619" lon="2.97275">
        <ele>851</ele>
        <time>2023-06-25T10:15:17Z</time>
      </trkpt>
      <trkpt lat="44.23624" lon="2.97272">
        <ele>851.2</ele>
        <time>2023-06-25T10:15:19Z</time>
      </trkpt>
      <trkpt lat="44.23629" lon="2.9727">
        <ele>851.5</ele>
        <time>2023-06-25T10:15:21Z</time>
      </trkpt>
      <trkpt lat="44.23633" lon="2.97268">
        <ele>851.7</ele>
        <time>2023-06-25T10:15:22Z</time>
      </trkpt>
      <trkpt lat="44.23638" lon="2.97265">
        <ele>852</ele>
        <time>2023-06-25T10:15:24Z</time>
      </trkpt>
      <trkpt lat="44.23642" lon="2.97263">
        <ele>852.2</ele>
        <time>2023-06-25T10:15:25Z</time>
      </trkpt>
      <trkpt lat="44.23645" lon="2.97261">
        <ele>852.4</ele>
        <time>2023-06-25T10:15:26Z</time>
      </trkpt>
      <trkpt lat="44.23651" lon="2.97258">
        <ele>852.7</ele>
        <time>2023-06-25T10:15:28Z</time>
      </trkpt>
      <trkpt lat="44.23654" lon="2.97256">
        <ele>852.9</ele>
        <time>2023-06-25T10:15:29Z</time>
      </trkpt>
      <trkpt lat="44.23658" lon="2.97253">
        <ele>853.1</ele>
        <time>2023-06-25T10:15:30Z</time>
      </trkpt>
      <trkpt lat="44.23662" lon="2.97252">
        <ele>853.3</ele>
        <time>2023-06-25T10:15:31Z</time>
      </trkpt>
      <trkpt lat="44.23665" lon="2.97249">
        <ele>853.5</ele>
        <time>2023-06-25T10:15:32Z</time>
      </trkpt>
      <trkpt lat="44.23672" lon="2.97246">
        <ele>853.8</ele>
        <time>2023-06-25T10:15:34Z</time>
      </trkpt>
      <trkpt lat="44.23675" lon="2.97245">
        <ele>854</ele>
        <time>2023-06-25T10:15:36Z</time>
      </trkpt>
      <trkpt lat="44.23678" lon="2.97244">
        <ele>854.1</ele>
        <time>2023-06-25T10:15:37Z</time>
      </trkpt>
      <trkpt lat="44.23681" lon="2.97242">
        <ele>854.3</ele>
        <time>2023-06-25T10:15:38Z</time>
      </trkpt>
      <trkpt lat="44.23685" lon="2.9724">
        <ele>854.5</ele>
        <time>2023-06-25T10:15:39Z</time>
      </trkpt>
      <trkpt lat="44.23687" lon="2.97239">
        <ele>854.6</ele>
        <time>2023-06-25T10:15:40Z</time>
      </trkpt>
      <trkpt lat="44.2369" lon="2.97238">
        <ele>854.8</ele>
        <time>2023-06-25T10:15:41Z</time>
      </trkpt>
      <trkpt lat="44.23694" lon="2.97236">
        <ele>855</ele>
        <time>2023-06-25T10:15:43Z</time>
      </trkpt>
      <trkpt lat="44.23697" lon="2.97234">
        <ele>855.2</ele>
        <time>2023-06-25T10:15:44Z</time>
      </trkpt>
      <trkpt lat="44.237" lon="2.97233">
        <ele>855.3</ele>
        <time>2023-06-25T10:15:45Z</time>
      </trkpt>
      <trkpt lat="44.23703" lon="2.97231">
        <ele>855.5</ele>
        <time>2023-06-25T10:15:46Z</time>
      </trkpt>
      <trkpt lat="44.23706" lon="2.97229">
        <ele>855.6</ele>
        <time>2023-06-25T10:15:47Z</time>
      </trkpt>
      <trkpt lat="44.23711" lon="2.97227">
        <ele>855.9</ele>
        <time>2023-06-25T10:15:49Z</time>
      </trkpt>
      <trkpt lat="44.23715" lon="2.97227">
        <ele>856.1</ele>
        <time>2023-06-25T10:15:50Z</time>
      </trkpt>
      <trkpt lat="44.23721" lon="2.97227">
        <ele>856.4</ele>
        <time>2023-06-25T10:15:52Z</time>
      </trkpt>
      <trkpt lat="44.23725" lon="2.97228">
        <ele>856.6</ele>
        <time>2023-06-25T10:15:53Z</time>
      </trkpt>
      <trkpt lat="44.23729" lon="2.97231">
        <ele>856.8</ele>
        <time>2023-06-25T10:15:55Z</time>
      </trkpt>
      <trkpt lat="44.23734" lon="2.97234">
        <ele>857.1</ele>
        <time>2023-06-25T10:15:56Z</time>
      </trkpt>
      <trkpt lat="44.23737" lon="2.97235">
        <ele>857.2</ele>
        <time>2023-06-25T10:15:57Z</time>
      </trkpt>
      <trkpt lat="44.23739" lon="2.97238">
        <ele>857.4</ele>
        <time>2023-06-25T10:15:58Z</time>
      </trkpt>
      <trkpt lat="44.2374" lon="2.97239">
        <ele>857.6</ele>
        <time>2023-06-25T10:15:59Z</time>
      </trkpt>
      <trkpt lat="44.23743" lon="2.97242">
        <ele>857.9</ele>
        <time>2023-06-25T10:16:00Z</time>
      </trkpt>
      <trkpt lat="44.23747" lon="2.97244">
        <ele>858.3</ele>
        <time>2023-06-25T10:16:02Z</time>
      </trkpt>
      <trkpt lat="44.2375" lon="2.97246">
        <ele>858.6</ele>
        <time>2023-06-25T10:16:03Z</time>
      </trkpt>
      <trkpt lat="44.23754" lon="2.97248">
        <ele>859.1</ele>
        <time>2023-06-25T10:16:04Z</time>
      </trkpt>
      <trkpt lat="44.2376" lon="2.97251">
        <ele>859.6</ele>
        <time>2023-06-25T10:16:06Z</time>
      </trkpt>
      <trkpt lat="44.23765" lon="2.97253">
        <ele>860.1</ele>
        <time>2023-06-25T10:16:07Z</time>
      </trkpt>
      <trkpt lat="44.23768" lon="2.97254">
        <ele>860.5</ele>
        <time>2023-06-25T10:16:08Z</time>
      </trkpt>
      <trkpt lat="44.23772" lon="2.97256">
        <ele>860.8</ele>
        <time>2023-06-25T10:16:09Z</time>
      </trkpt>
      <trkpt lat="44.23776" lon="2.97257">
        <ele>861.2</ele>
        <time>2023-06-25T10:16:10Z</time>
      </trkpt>
      <trkpt lat="44.23782" lon="2.97259">
        <ele>861.9</ele>
        <time>2023-06-25T10:16:12Z</time>
      </trkpt>
      <trkpt lat="44.23786" lon="2.97261">
        <ele>862.3</ele>
        <time>2023-06-25T10:16:13Z</time>
      </trkpt>
      <trkpt lat="44.23792" lon="2.97263">
        <ele>862.8</ele>
        <time>2023-06-25T10:16:15Z</time>
      </trkpt>
      <trkpt lat="44.23796" lon="2.97266">
        <ele>863.2</ele>
        <time>2023-06-25T10:16:16Z</time>
      </trkpt>
      <trkpt lat="44.23802" lon="2.97269">
        <ele>863.8</ele>
        <time>2023-06-25T10:16:18Z</time>
      </trkpt>
      <trkpt lat="44.23805" lon="2.97271">
        <ele>864.2</ele>
        <time>2023-06-25T10:16:19Z</time>
      </trkpt>
      <trkpt lat="44.23809" lon="2.97273">
        <ele>864.6</ele>
        <time>2023-06-25T10:16:20Z</time>
      </trkpt>
      <trkpt lat="44.23812" lon="2.97275">
        <ele>864.9</ele>
        <time>2023-06-25T10:16:21Z</time>
      </trkpt>
      <trkpt lat="44.23816" lon="2.97277">
        <ele>865.3</ele>
        <time>2023-06-25T10:16:22Z</time>
      </trkpt>
      <trkpt lat="44.23819" lon="2.97278">
        <ele>865.7</ele>
        <time>2023-06-25T10:16:23Z</time>
      </trkpt>
      <trkpt lat="44.23823" lon="2.9728">
        <ele>866</ele>
        <time>2023-06-25T10:16:24Z</time>
      </trkpt>
      <trkpt lat="44.23826" lon="2.97281">
        <ele>866.4</ele>
        <time>2023-06-25T10:16:26Z</time>
      </trkpt>
      <trkpt lat="44.23829" lon="2.97284">
        <ele>866.7</ele>
        <time>2023-06-25T10:16:27Z</time>
      </trkpt>
      <trkpt lat="44.23832" lon="2.97286">
        <ele>867</ele>
        <time>2023-06-25T10:16:28Z</time>
      </trkpt>
      <trkpt lat="44.23835" lon="2.97288">
        <ele>867.3</ele>
        <time>2023-06-25T10:16:29Z</time>
      </trkpt>
      <trkpt lat="44.23839" lon="2.9729">
        <ele>867.7</ele>
        <time>2023-06-25T10:16:30Z</time>
      </trkpt>
      <trkpt lat="44.23843" lon="2.97291">
        <ele>868.1</ele>
        <time>2023-06-25T10:16:31Z</time>
      </trkpt>
      <trkpt lat="44.23846" lon="2.97291">
        <ele>868.4</ele>
        <time>2023-06-25T10:16:32Z</time>
      </trkpt>
      <trkpt lat="44.23849" lon="2.97291">
        <ele>868.7</ele>
        <time>2023-06-25T10:16:33Z</time>
      </trkpt>
      <trkpt lat="44.23854" lon="2.97291">
        <ele>869.1</ele>
        <time>2023-06-25T10:16:35Z</time>
      </trkpt>
      <trkpt lat="44.23857" lon="2.97292">
        <ele>869.5</ele>
        <time>2023-06-25T10:16:36Z</time>
      </trkpt>
      <trkpt lat="44.23861" lon="2.97292">
        <ele>869.8</ele>
        <time>2023-06-25T10:16:37Z</time>
      </trkpt>
      <trkpt lat="44.23864" lon="2.97291">
        <ele>870.1</ele>
        <time>2023-06-25T10:16:38Z</time>
      </trkpt>
      <trkpt lat="44.23867" lon="2.97291">
        <ele>870.4</ele>
        <time>2023-06-25T10:16:39Z</time>
      </trkpt>
      <trkpt lat="44.23871" lon="2.97291">
        <ele>870.8</ele>
        <time>2023-06-25T10:16:41Z</time>
      </trkpt>
      <trkpt lat="44.23875" lon="2.97291">
        <ele>871.2</ele>
        <time>2023-06-25T10:16:42Z</time>
      </trkpt>
      <trkpt lat="44.23879" lon="2.9729">
        <ele>871.6</ele>
        <time>2023-06-25T10:16:43Z</time>
      </trkpt>
      <trkpt lat="44.2388" lon="2.9729">
        <ele>871.7</ele>
        <time>2023-06-25T10:16:44Z</time>
      </trkpt>
      <trkpt lat="44.23884" lon="2.97291">
        <ele>872</ele>
        <time>2023-06-25T10:16:45Z</time>
      </trkpt>
      <trkpt lat="44.23887" lon="2.97292">
        <ele>872.3</ele>
        <time>2023-06-25T10:16:46Z</time>
      </trkpt>
      <trkpt lat="44.2389" lon="2.97291">
        <ele>872.6</ele>
        <time>2023-06-25T10:16:47Z</time>
      </trkpt>
      <trkpt lat="44.23893" lon="2.97291">
        <ele>872.9</ele>
        <time>2023-06-25T10:16:48Z</time>
      </trkpt>
      <trkpt lat="44.23898" lon="2.9729">
        <ele>873.5</ele>
        <time>2023-06-25T10:16:50Z</time>
      </trkpt>
      <trkpt lat="44.23902" lon="2.9729">
        <ele>873.8</ele>
        <time>2023-06-25T10:16:51Z</time>
      </trkpt>
      <trkpt lat="44.23905" lon="2.97291">
        <ele>874.1</ele>
        <time>2023-06-25T10:16:52Z</time>
      </trkpt>
      <trkpt lat="44.23909" lon="2.97291">
        <ele>874.4</ele>
        <time>2023-06-25T10:16:53Z</time>
      </trkpt>
      <trkpt lat="44.23914" lon="2.97291">
        <ele>875</ele>
        <time>2023-06-25T10:16:55Z</time>
      </trkpt>
      <trkpt lat="44.23918" lon="2.97292">
        <ele>875.3</ele>
        <time>2023-06-25T10:16:56Z</time>
      </trkpt>
      <trkpt lat="44.23921" lon="2.97291">
        <ele>875.6</ele>
        <time>2023-06-25T10:16:57Z</time>
      </trkpt>
      <trkpt lat="44.23926" lon="2.97292">
        <ele>876.1</ele>
        <time>2023-06-25T10:16:59Z</time>
      </trkpt>
      <trkpt lat="44.23929" lon="2.97293">
        <ele>876.4</ele>
        <time>2023-06-25T10:17:00Z</time>
      </trkpt>
      <trkpt lat="44.23932" lon="2.97293">
        <ele>876.7</ele>
        <time>2023-06-25T10:17:01Z</time>
      </trkpt>
      <trkpt lat="44.23936" lon="2.97293">
        <ele>877.1</ele>
        <time>2023-06-25T10:17:03Z</time>
      </trkpt>
      <trkpt lat="44.23939" lon="2.97294">
        <ele>877.3</ele>
        <time>2023-06-25T10:17:04Z</time>
      </trkpt>
      <trkpt lat="44.23942" lon="2.97294">
        <ele>877.7</ele>
        <time>2023-06-25T10:17:05Z</time>
      </trkpt>
      <trkpt lat="44.23945" lon="2.97295">
        <ele>877.9</ele>
        <time>2023-06-25T10:17:06Z</time>
      </trkpt>
      <trkpt lat="44.23949" lon="2.97295">
        <ele>878.3</ele>
        <time>2023-06-25T10:17:07Z</time>
      </trkpt>
      <trkpt lat="44.2395" lon="2.97295">
        <ele>878.5</ele>
        <time>2023-06-25T10:17:08Z</time>
      </trkpt>
      <trkpt lat="44.23954" lon="2.97294">
        <ele>878.8</ele>
        <time>2023-06-25T10:17:10Z</time>
      </trkpt>
      <trkpt lat="44.23957" lon="2.97294">
        <ele>879.1</ele>
        <time>2023-06-25T10:17:11Z</time>
      </trkpt>
      <trkpt lat="44.2396" lon="2.97295">
        <ele>879.4</ele>
        <time>2023-06-25T10:17:12Z</time>
      </trkpt>
      <trkpt lat="44.23964" lon="2.97296">
        <ele>879.8</ele>
        <time>2023-06-25T10:17:13Z</time>
      </trkpt>
      <trkpt lat="44.23965" lon="2.97296">
        <ele>879.9</ele>
        <time>2023-06-25T10:17:14Z</time>
      </trkpt>
      <trkpt lat="44.23969" lon="2.97297">
        <ele>880.3</ele>
        <time>2023-06-25T10:17:15Z</time>
      </trkpt>
      <trkpt lat="44.2397" lon="2.97297">
        <ele>880.4</ele>
        <time>2023-06-25T10:17:16Z</time>
      </trkpt>
      <trkpt lat="44.23974" lon="2.97296">
        <ele>880.7</ele>
        <time>2023-06-25T10:17:17Z</time>
      </trkpt>
      <trkpt lat="44.23975" lon="2.97297">
        <ele>880.9</ele>
        <time>2023-06-25T10:17:18Z</time>
      </trkpt>
      <trkpt lat="44.23979" lon="2.97298">
        <ele>881.2</ele>
        <time>2023-06-25T10:17:20Z</time>
      </trkpt>
      <trkpt lat="44.2398" lon="2.97298">
        <ele>881.3</ele>
        <time>2023-06-25T10:17:21Z</time>
      </trkpt>
      <trkpt lat="44.23984" lon="2.973">
        <ele>881.7</ele>
        <time>2023-06-25T10:17:22Z</time>
      </trkpt>
      <trkpt lat="44.23985" lon="2.973">
        <ele>881.8</ele>
        <time>2023-06-25T10:17:23Z</time>
      </trkpt>
      <trkpt lat="44.23987" lon="2.97301">
        <ele>882.1</ele>
        <time>2023-06-25T10:17:24Z</time>
      </trkpt>
      <trkpt lat="44.23991" lon="2.97301">
        <ele>882.4</ele>
        <time>2023-06-25T10:17:26Z</time>
      </trkpt>
      <trkpt lat="44.23994" lon="2.973">
        <ele>882.8</ele>
        <time>2023-06-25T10:17:27Z</time>
      </trkpt>
      <trkpt lat="44.23996" lon="2.973">
        <ele>882.9</ele>
        <time>2023-06-25T10:17:28Z</time>
      </trkpt>
      <trkpt lat="44.23999" lon="2.97298">
        <ele>883.2</ele>
        <time>2023-06-25T10:17:29Z</time>
      </trkpt>
      <trkpt lat="44.24" lon="2.97297">
        <ele>883.3</ele>
        <time>2023-06-25T10:17:30Z</time>
      </trkpt>
      <trkpt lat="44.24002" lon="2.97295">
        <ele>883.6</ele>
        <time>2023-06-25T10:17:32Z</time>
      </trkpt>
      <trkpt lat="44.24003" lon="2.97294">
        <ele>883.7</ele>
        <time>2023-06-25T10:17:33Z</time>
      </trkpt>
      <trkpt lat="44.24005" lon="2.97291">
        <ele>884</ele>
        <time>2023-06-25T10:17:34Z</time>
      </trkpt>
      <trkpt lat="44.24006" lon="2.9729">
        <ele>884.1</ele>
        <time>2023-06-25T10:17:35Z</time>
      </trkpt>
      <trkpt lat="44.24008" lon="2.97287">
        <ele>884.4</ele>
        <time>2023-06-25T10:17:36Z</time>
      </trkpt>
      <trkpt lat="44.24011" lon="2.97282">
        <ele>884.8</ele>
        <time>2023-06-25T10:17:38Z</time>
      </trkpt>
      <trkpt lat="44.24013" lon="2.97278">
        <ele>885.2</ele>
        <time>2023-06-25T10:17:39Z</time>
      </trkpt>
      <trkpt lat="44.24014" lon="2.97276">
        <ele>885.3</ele>
        <time>2023-06-25T10:17:40Z</time>
      </trkpt>
      <trkpt lat="44.24016" lon="2.9727">
        <ele>885.8</ele>
        <time>2023-06-25T10:17:42Z</time>
      </trkpt>
      <trkpt lat="44.24017" lon="2.97268">
        <ele>885.9</ele>
        <time>2023-06-25T10:17:43Z</time>
      </trkpt>
      <trkpt lat="44.24017" lon="2.97266">
        <ele>886.1</ele>
        <time>2023-06-25T10:17:44Z</time>
      </trkpt>
      <trkpt lat="44.24019" lon="2.97263">
        <ele>886.3</ele>
        <time>2023-06-25T10:17:45Z</time>
      </trkpt>
      <trkpt lat="44.2402" lon="2.97258">
        <ele>886.7</ele>
        <time>2023-06-25T10:17:47Z</time>
      </trkpt>
      <trkpt lat="44.24022" lon="2.97255">
        <ele>886.9</ele>
        <time>2023-06-25T10:17:48Z</time>
      </trkpt>
      <trkpt lat="44.24024" lon="2.97253">
        <ele>887.2</ele>
        <time>2023-06-25T10:17:49Z</time>
      </trkpt>
      <trkpt lat="44.24026" lon="2.97249">
        <ele>887.6</ele>
        <time>2023-06-25T10:17:50Z</time>
      </trkpt>
      <trkpt lat="44.24027" lon="2.97247">
        <ele>887.7</ele>
        <time>2023-06-25T10:17:51Z</time>
      </trkpt>
      <trkpt lat="44.24029" lon="2.97245">
        <ele>888</ele>
        <time>2023-06-25T10:17:52Z</time>
      </trkpt>
      <trkpt lat="44.24033" lon="2.97241">
        <ele>888.4</ele>
        <time>2023-06-25T10:17:54Z</time>
      </trkpt>
      <trkpt lat="44.24034" lon="2.9724">
        <ele>888.5</ele>
        <time>2023-06-25T10:17:55Z</time>
      </trkpt>
      <trkpt lat="44.24034" lon="2.97239">
        <ele>888.6</ele>
        <time>2023-06-25T10:17:56Z</time>
      </trkpt>
      <trkpt lat="44.24037" lon="2.97236">
        <ele>888.9</ele>
        <time>2023-06-25T10:17:57Z</time>
      </trkpt>
      <trkpt lat="44.24038" lon="2.97235">
        <ele>889.1</ele>
        <time>2023-06-25T10:17:58Z</time>
      </trkpt>
      <trkpt lat="44.24041" lon="2.97232">
        <ele>889.4</ele>
        <time>2023-06-25T10:18:00Z</time>
      </trkpt>
      <trkpt lat="44.24042" lon="2.97231">
        <ele>889.5</ele>
        <time>2023-06-25T10:18:01Z</time>
      </trkpt>
      <trkpt lat="44.24044" lon="2.97228">
        <ele>889.8</ele>
        <time>2023-06-25T10:18:02Z</time>
      </trkpt>
      <trkpt lat="44.24045" lon="2.97227">
        <ele>889.9</ele>
        <time>2023-06-25T10:18:03Z</time>
      </trkpt>
      <trkpt lat="44.24048" lon="2.97223">
        <ele>890.4</ele>
        <time>2023-06-25T10:18:05Z</time>
      </trkpt>
      <trkpt lat="44.24049" lon="2.97221">
        <ele>890.5</ele>
        <time>2023-06-25T10:18:06Z</time>
      </trkpt>
      <trkpt lat="44.2405" lon="2.9722">
        <ele>890.6</ele>
        <time>2023-06-25T10:18:07Z</time>
      </trkpt>
      <trkpt lat="44.24054" lon="2.97216">
        <ele>891.1</ele>
        <time>2023-06-25T10:18:09Z</time>
      </trkpt>
      <trkpt lat="44.24055" lon="2.97215">
        <ele>891.2</ele>
        <time>2023-06-25T10:18:10Z</time>
      </trkpt>
      <trkpt lat="44.24056" lon="2.97214">
        <ele>891.4</ele>
        <time>2023-06-25T10:18:11Z</time>
      </trkpt>
      <trkpt lat="44.24059" lon="2.9721">
        <ele>891.7</ele>
        <time>2023-06-25T10:18:13Z</time>
      </trkpt>
      <trkpt lat="44.2406" lon="2.97209">
        <ele>891.8</ele>
        <time>2023-06-25T10:18:14Z</time>
      </trkpt>
      <trkpt lat="44.24062" lon="2.97206">
        <ele>892.1</ele>
        <time>2023-06-25T10:18:15Z</time>
      </trkpt>
      <trkpt lat="44.24063" lon="2.97205">
        <ele>892.2</ele>
        <time>2023-06-25T10:18:16Z</time>
      </trkpt>
      <trkpt lat="44.24065" lon="2.97201">
        <ele>892.6</ele>
        <time>2023-06-25T10:18:17Z</time>
      </trkpt>
      <trkpt lat="44.24066" lon="2.972">
        <ele>892.7</ele>
        <time>2023-06-25T10:18:18Z</time>
      </trkpt>
      <trkpt lat="44.24068" lon="2.97198">
        <ele>892.9</ele>
        <time>2023-06-25T10:18:19Z</time>
      </trkpt>
      <trkpt lat="44.24072" lon="2.97195">
        <ele>893.3</ele>
        <time>2023-06-25T10:18:21Z</time>
      </trkpt>
      <trkpt lat="44.24073" lon="2.97194">
        <ele>893.4</ele>
        <time>2023-06-25T10:18:22Z</time>
      </trkpt>
      <trkpt lat="44.24075" lon="2.97192">
        <ele>893.7</ele>
        <time>2023-06-25T10:18:23Z</time>
      </trkpt>
      <trkpt lat="44.24076" lon="2.97192">
        <ele>893.8</ele>
        <time>2023-06-25T10:18:24Z</time>
      </trkpt>
      <trkpt lat="44.24077" lon="2.97191">
        <ele>893.9</ele>
        <time>2023-06-25T10:18:25Z</time>
      </trkpt>
      <trkpt lat="44.2408" lon="2.97188">
        <ele>894.2</ele>
        <time>2023-06-25T10:18:27Z</time>
      </trkpt>
      <trkpt lat="44.24081" lon="2.97187">
        <ele>894.4</ele>
        <time>2023-06-25T10:18:28Z</time>
      </trkpt>
      <trkpt lat="44.24083" lon="2.97184">
        <ele>894.7</ele>
        <time>2023-06-25T10:18:30Z</time>
      </trkpt>
      <trkpt lat="44.24085" lon="2.97182">
        <ele>894.8</ele>
        <time>2023-06-25T10:18:31Z</time>
      </trkpt>
      <trkpt lat="44.24086" lon="2.97181">
        <ele>895</ele>
        <time>2023-06-25T10:18:32Z</time>
      </trkpt>
      <trkpt lat="44.2409" lon="2.97177">
        <ele>895.4</ele>
        <time>2023-06-25T10:18:34Z</time>
      </trkpt>
      <trkpt lat="44.24091" lon="2.97177">
        <ele>895.5</ele>
        <time>2023-06-25T10:18:35Z</time>
      </trkpt>
      <trkpt lat="44.24092" lon="2.97176">
        <ele>895.7</ele>
        <time>2023-06-25T10:18:36Z</time>
      </trkpt>
      <trkpt lat="44.24095" lon="2.97173">
        <ele>896</ele>
        <time>2023-06-25T10:18:38Z</time>
      </trkpt>
      <trkpt lat="44.24096" lon="2.97171">
        <ele>896.2</ele>
        <time>2023-06-25T10:18:39Z</time>
      </trkpt>
      <trkpt lat="44.24098" lon="2.97168">
        <ele>896.5</ele>
        <time>2023-06-25T10:18:40Z</time>
      </trkpt>
      <trkpt lat="44.24099" lon="2.97168">
        <ele>896.6</ele>
        <time>2023-06-25T10:18:41Z</time>
      </trkpt>
      <trkpt lat="44.24102" lon="2.97165">
        <ele>896.9</ele>
        <time>2023-06-25T10:18:42Z</time>
      </trkpt>
      <trkpt lat="44.24103" lon="2.97165">
        <ele>897</ele>
        <time>2023-06-25T10:18:43Z</time>
      </trkpt>
      <trkpt lat="44.24106" lon="2.97161">
        <ele>897.3</ele>
        <time>2023-06-25T10:18:45Z</time>
      </trkpt>
      <trkpt lat="44.24109" lon="2.97157">
        <ele>897.7</ele>
        <time>2023-06-25T10:18:47Z</time>
      </trkpt>
      <trkpt lat="44.24111" lon="2.97154">
        <ele>898</ele>
        <time>2023-06-25T10:18:48Z</time>
      </trkpt>
      <trkpt lat="44.24114" lon="2.97151">
        <ele>898.4</ele>
        <time>2023-06-25T10:18:49Z</time>
      </trkpt>
      <trkpt lat="44.24115" lon="2.9715">
        <ele>898.5</ele>
        <time>2023-06-25T10:18:50Z</time>
      </trkpt>
      <trkpt lat="44.24117" lon="2.97147">
        <ele>898.8</ele>
        <time>2023-06-25T10:18:51Z</time>
      </trkpt>
      <trkpt lat="44.2412" lon="2.97144">
        <ele>899.1</ele>
        <time>2023-06-25T10:18:52Z</time>
      </trkpt>
      <trkpt lat="44.24122" lon="2.97141">
        <ele>899.4</ele>
        <time>2023-06-25T10:18:54Z</time>
      </trkpt>
      <trkpt lat="44.24124" lon="2.97138">
        <ele>899.7</ele>
        <time>2023-06-25T10:18:55Z</time>
      </trkpt>
      <trkpt lat="44.24127" lon="2.97136">
        <ele>900.1</ele>
        <time>2023-06-25T10:18:56Z</time>
      </trkpt>
      <trkpt lat="44.2413" lon="2.97133">
        <ele>900.4</ele>
        <time>2023-06-25T10:18:57Z</time>
      </trkpt>
      <trkpt lat="44.24133" lon="2.9713">
        <ele>900.7</ele>
        <time>2023-06-25T10:18:58Z</time>
      </trkpt>
      <trkpt lat="44.24137" lon="2.97127">
        <ele>901.2</ele>
        <time>2023-06-25T10:19:00Z</time>
      </trkpt>
      <trkpt lat="44.2414" lon="2.97126">
        <ele>901.5</ele>
        <time>2023-06-25T10:19:01Z</time>
      </trkpt>
      <trkpt lat="44.24143" lon="2.97124">
        <ele>901.8</ele>
        <time>2023-06-25T10:19:02Z</time>
      </trkpt>
      <trkpt lat="44.24147" lon="2.97122">
        <ele>902.2</ele>
        <time>2023-06-25T10:19:04Z</time>
      </trkpt>
      <trkpt lat="44.24151" lon="2.97119">
        <ele>902.4</ele>
        <time>2023-06-25T10:19:05Z</time>
      </trkpt>
      <trkpt lat="44.24153" lon="2.97118">
        <ele>902.4</ele>
        <time>2023-06-25T10:19:06Z</time>
      </trkpt>
      <trkpt lat="44.24158" lon="2.97116">
        <ele>902.5</ele>
        <time>2023-06-25T10:19:08Z</time>
      </trkpt>
      <trkpt lat="44.24163" lon="2.97114">
        <ele>902.7</ele>
        <time>2023-06-25T10:19:10Z</time>
      </trkpt>
      <trkpt lat="44.24166" lon="2.97112">
        <ele>902.7</ele>
        <time>2023-06-25T10:19:11Z</time>
      </trkpt>
      <trkpt lat="44.24169" lon="2.97111">
        <ele>902.8</ele>
        <time>2023-06-25T10:19:13Z</time>
      </trkpt>
      <trkpt lat="44.24171" lon="2.9711">
        <ele>902.8</ele>
        <time>2023-06-25T10:19:14Z</time>
      </trkpt>
      <trkpt lat="44.24175" lon="2.97108">
        <ele>902.9</ele>
        <time>2023-06-25T10:19:15Z</time>
      </trkpt>
      <trkpt lat="44.24176" lon="2.97108">
        <ele>902.9</ele>
        <time>2023-06-25T10:19:16Z</time>
      </trkpt>
      <trkpt lat="44.2418" lon="2.97106">
        <ele>903</ele>
        <time>2023-06-25T10:19:18Z</time>
      </trkpt>
      <trkpt lat="44.24182" lon="2.97106">
        <ele>903.1</ele>
        <time>2023-06-25T10:19:19Z</time>
      </trkpt>
      <trkpt lat="44.24184" lon="2.97105">
        <ele>903.1</ele>
        <time>2023-06-25T10:19:20Z</time>
      </trkpt>
      <trkpt lat="44.24187" lon="2.97103">
        <ele>903.2</ele>
        <time>2023-06-25T10:19:21Z</time>
      </trkpt>
      <trkpt lat="44.24188" lon="2.97102">
        <ele>903.2</ele>
        <time>2023-06-25T10:19:22Z</time>
      </trkpt>
      <trkpt lat="44.24191" lon="2.97099">
        <ele>903.3</ele>
        <time>2023-06-25T10:19:24Z</time>
      </trkpt>
      <trkpt lat="44.24192" lon="2.97099">
        <ele>903.3</ele>
        <time>2023-06-25T10:19:26Z</time>
      </trkpt>
      <trkpt lat="44.24193" lon="2.97099">
        <ele>903.3</ele>
        <time>2023-06-25T10:19:27Z</time>
      </trkpt>
      <trkpt lat="44.24194" lon="2.97099">
        <ele>903.3</ele>
        <time>2023-06-25T10:19:28Z</time>
      </trkpt>
      <trkpt lat="44.24195" lon="2.97099">
        <ele>903.4</ele>
        <time>2023-06-25T10:19:30Z</time>
      </trkpt>
      <trkpt lat="44.24195" lon="2.97099">
        <ele>903.4</ele>
        <time>2023-06-25T10:19:31Z</time>
      </trkpt>
      <trkpt lat="44.24196" lon="2.97099">
        <ele>903.4</ele>
        <time>2023-06-25T10:19:32Z</time>
      </trkpt>
      <trkpt lat="44.24197" lon="2.97099">
        <ele>903.4</ele>
        <time>2023-06-25T10:19:33Z</time>
      </trkpt>
      <trkpt lat="44.24198" lon="2.97099">
        <ele>903.4</ele>
        <time>2023-06-25T10:19:34Z</time>
      </trkpt>
      <trkpt lat="44.24198" lon="2.97099">
        <ele>903.4</ele>
        <time>2023-06-25T10:19:35Z</time>
      </trkpt>
      <trkpt lat="44.24199" lon="2.97099">
        <ele>903.5</ele>
        <time>2023-06-25T10:19:37Z</time>
      </trkpt>
      <trkpt lat="44.242" lon="2.97099">
        <ele>903.5</ele>
        <time>2023-06-25T10:19:38Z</time>
      </trkpt>
      <trkpt lat="44.24201" lon="2.97099">
        <ele>903.5</ele>
        <time>2023-06-25T10:20:20Z</time>
      </trkpt>
      <trkpt lat="44.24202" lon="2.97099">
        <ele>903.5</ele>
        <time>2023-06-25T10:20:21Z</time>
      </trkpt>
      <trkpt lat="44.24202" lon="2.97098">
        <ele>903.5</ele>
        <time>2023-06-25T10:20:22Z</time>
      </trkpt>
      <trkpt lat="44.24206" lon="2.97097">
        <ele>903.6</ele>
        <time>2023-06-25T10:20:23Z</time>
      </trkpt>
      <trkpt lat="44.24213" lon="2.97096">
        <ele>903.7</ele>
        <time>2023-06-25T10:20:25Z</time>
      </trkpt>
      <trkpt lat="44.24216" lon="2.97094">
        <ele>903.8</ele>
        <time>2023-06-25T10:20:26Z</time>
      </trkpt>
      <trkpt lat="44.24221" lon="2.97092">
        <ele>903.9</ele>
        <time>2023-06-25T10:20:27Z</time>
      </trkpt>
      <trkpt lat="44.24226" lon="2.97089">
        <ele>904</ele>
        <time>2023-06-25T10:20:29Z</time>
      </trkpt>
      <trkpt lat="44.24232" lon="2.97086">
        <ele>904.2</ele>
        <time>2023-06-25T10:20:31Z</time>
      </trkpt>
      <trkpt lat="44.24237" lon="2.97085">
        <ele>904.3</ele>
        <time>2023-06-25T10:20:32Z</time>
      </trkpt>
      <trkpt lat="44.24241" lon="2.97083">
        <ele>904.4</ele>
        <time>2023-06-25T10:20:33Z</time>
      </trkpt>
      <trkpt lat="44.24245" lon="2.97082">
        <ele>904.5</ele>
        <time>2023-06-25T10:20:34Z</time>
      </trkpt>
      <trkpt lat="44.24249" lon="2.97081">
        <ele>904.5</ele>
        <time>2023-06-25T10:20:35Z</time>
      </trkpt>
      <trkpt lat="44.24259" lon="2.97077">
        <ele>904.8</ele>
        <time>2023-06-25T10:20:37Z</time>
      </trkpt>
      <trkpt lat="44.24265" lon="2.97075">
        <ele>904.9</ele>
        <time>2023-06-25T10:20:39Z</time>
      </trkpt>
      <trkpt lat="44.24269" lon="2.97073">
        <ele>905</ele>
        <time>2023-06-25T10:20:40Z</time>
      </trkpt>
      <trkpt lat="44.24273" lon="2.97071">
        <ele>905.1</ele>
        <time>2023-06-25T10:20:41Z</time>
      </trkpt>
      <trkpt lat="44.2428" lon="2.97068">
        <ele>905.2</ele>
        <time>2023-06-25T10:20:43Z</time>
      </trkpt>
      <trkpt lat="44.24285" lon="2.97067">
        <ele>905.3</ele>
        <time>2023-06-25T10:20:44Z</time>
      </trkpt>
      <trkpt lat="44.24291" lon="2.97066">
        <ele>905.4</ele>
        <time>2023-06-25T10:20:45Z</time>
      </trkpt>
      <trkpt lat="44.24296" lon="2.97064">
        <ele>905.6</ele>
        <time>2023-06-25T10:20:47Z</time>
      </trkpt>
      <trkpt lat="44.24301" lon="2.97063">
        <ele>905.7</ele>
        <time>2023-06-25T10:20:48Z</time>
      </trkpt>
      <trkpt lat="44.24304" lon="2.97062">
        <ele>905.7</ele>
        <time>2023-06-25T10:20:49Z</time>
      </trkpt>
      <trkpt lat="44.24309" lon="2.97061">
        <ele>905.8</ele>
        <time>2023-06-25T10:20:50Z</time>
      </trkpt>
      <trkpt lat="44.24314" lon="2.97061">
        <ele>905.9</ele>
        <time>2023-06-25T10:20:51Z</time>
      </trkpt>
      <trkpt lat="44.24318" lon="2.9706">
        <ele>906</ele>
        <time>2023-06-25T10:20:52Z</time>
      </trkpt>
      <trkpt lat="44.24324" lon="2.97058">
        <ele>906.2</ele>
        <time>2023-06-25T10:20:54Z</time>
      </trkpt>
      <trkpt lat="44.24329" lon="2.97057">
        <ele>906.3</ele>
        <time>2023-06-25T10:20:55Z</time>
      </trkpt>
      <trkpt lat="44.24333" lon="2.97055">
        <ele>906.4</ele>
        <time>2023-06-25T10:20:56Z</time>
      </trkpt>
      <trkpt lat="44.24338" lon="2.97054">
        <ele>906.5</ele>
        <time>2023-06-25T10:20:57Z</time>
      </trkpt>
      <trkpt lat="44.24345" lon="2.97051">
        <ele>906.6</ele>
        <time>2023-06-25T10:20:59Z</time>
      </trkpt>
      <trkpt lat="44.24351" lon="2.97049">
        <ele>906.7</ele>
        <time>2023-06-25T10:21:01Z</time>
      </trkpt>
      <trkpt lat="44.24355" lon="2.97047">
        <ele>906.8</ele>
        <time>2023-06-25T10:21:02Z</time>
      </trkpt>
      <trkpt lat="44.2436" lon="2.97046">
        <ele>906.9</ele>
        <time>2023-06-25T10:21:03Z</time>
      </trkpt>
      <trkpt lat="44.24363" lon="2.97044">
        <ele>907</ele>
        <time>2023-06-25T10:21:04Z</time>
      </trkpt>
      <trkpt lat="44.2437" lon="2.97041">
        <ele>907.2</ele>
        <time>2023-06-25T10:21:06Z</time>
      </trkpt>
      <trkpt lat="44.24373" lon="2.97037">
        <ele>907.2</ele>
        <time>2023-06-25T10:21:07Z</time>
      </trkpt>
      <trkpt lat="44.24379" lon="2.97035">
        <ele>907.4</ele>
        <time>2023-06-25T10:21:09Z</time>
      </trkpt>
      <trkpt lat="44.24382" lon="2.97032">
        <ele>907.4</ele>
        <time>2023-06-25T10:21:10Z</time>
      </trkpt>
      <trkpt lat="44.24386" lon="2.9703">
        <ele>907.5</ele>
        <time>2023-06-25T10:21:11Z</time>
      </trkpt>
      <trkpt lat="44.2439" lon="2.97029">
        <ele>907.6</ele>
        <time>2023-06-25T10:21:12Z</time>
      </trkpt>
      <trkpt lat="44.24394" lon="2.97026">
        <ele>907.7</ele>
        <time>2023-06-25T10:21:14Z</time>
      </trkpt>
      <trkpt lat="44.24399" lon="2.97023">
        <ele>907.8</ele>
        <time>2023-06-25T10:21:15Z</time>
      </trkpt>
      <trkpt lat="44.24402" lon="2.97022">
        <ele>907.9</ele>
        <time>2023-06-25T10:21:16Z</time>
      </trkpt>
      <trkpt lat="44.24406" lon="2.97019">
        <ele>908</ele>
        <time>2023-06-25T10:21:17Z</time>
      </trkpt>
      <trkpt lat="44.24412" lon="2.97017">
        <ele>908.1</ele>
        <time>2023-06-25T10:21:19Z</time>
      </trkpt>
      <trkpt lat="44.24416" lon="2.97016">
        <ele>908.2</ele>
        <time>2023-06-25T10:21:20Z</time>
      </trkpt>
      <trkpt lat="44.24418" lon="2.97018">
        <ele>908.2</ele>
        <time>2023-06-25T10:21:21Z</time>
      </trkpt>
      <trkpt lat="44.24421" lon="2.97021">
        <ele>908.3</ele>
        <time>2023-06-25T10:21:23Z</time>
      </trkpt>
      <trkpt lat="44.24424" lon="2.97024">
        <ele>908.4</ele>
        <time>2023-06-25T10:21:24Z</time>
      </trkpt>
      <trkpt lat="44.24427" lon="2.97025">
        <ele>908.5</ele>
        <time>2023-06-25T10:21:25Z</time>
      </trkpt>
      <trkpt lat="44.24428" lon="2.97026">
        <ele>908.5</ele>
        <time>2023-06-25T10:21:26Z</time>
      </trkpt>
      <trkpt lat="44.24429" lon="2.97027">
        <ele>908.5</ele>
        <time>2023-06-25T10:21:27Z</time>
      </trkpt>
      <trkpt lat="44.24432" lon="2.9703">
        <ele>908.6</ele>
        <time>2023-06-25T10:21:29Z</time>
      </trkpt>
      <trkpt lat="44.24435" lon="2.97033">
        <ele>908.7</ele>
        <time>2023-06-25T10:21:30Z</time>
      </trkpt>
      <trkpt lat="44.24435" lon="2.97033">
        <ele>908.7</ele>
        <time>2023-06-25T10:21:31Z</time>
      </trkpt>
      <trkpt lat="44.24438" lon="2.97037">
        <ele>908.8</ele>
        <time>2023-06-25T10:21:32Z</time>
      </trkpt>
      <trkpt lat="44.24439" lon="2.97038">
        <ele>908.8</ele>
        <time>2023-06-25T10:21:33Z</time>
      </trkpt>
      <trkpt lat="44.24442" lon="2.97042">
        <ele>908.9</ele>
        <time>2023-06-25T10:21:35Z</time>
      </trkpt>
      <trkpt lat="44.24444" lon="2.97045">
        <ele>908.9</ele>
        <time>2023-06-25T10:21:36Z</time>
      </trkpt>
      <trkpt lat="44.24445" lon="2.97046">
        <ele>909</ele>
        <time>2023-06-25T10:21:37Z</time>
      </trkpt>
      <trkpt lat="44.24449" lon="2.97051">
        <ele>909.1</ele>
        <time>2023-06-25T10:21:39Z</time>
      </trkpt>
      <trkpt lat="44.2445" lon="2.97053">
        <ele>909.1</ele>
        <time>2023-06-25T10:21:40Z</time>
      </trkpt>
      <trkpt lat="44.24451" lon="2.97054">
        <ele>909.1</ele>
        <time>2023-06-25T10:21:41Z</time>
      </trkpt>
      <trkpt lat="44.24453" lon="2.97058">
        <ele>909.2</ele>
        <time>2023-06-25T10:21:42Z</time>
      </trkpt>
      <trkpt lat="44.24455" lon="2.97061">
        <ele>909.3</ele>
        <time>2023-06-25T10:21:43Z</time>
      </trkpt>
      <trkpt lat="44.24458" lon="2.97066">
        <ele>909.4</ele>
        <time>2023-06-25T10:21:45Z</time>
      </trkpt>
      <trkpt lat="44.24461" lon="2.9707">
        <ele>909.4</ele>
        <time>2023-06-25T10:21:46Z</time>
      </trkpt>
      <trkpt lat="44.24464" lon="2.97074">
        <ele>909.5</ele>
        <time>2023-06-25T10:21:47Z</time>
      </trkpt>
      <trkpt lat="44.24468" lon="2.97079">
        <ele>909.7</ele>
        <time>2023-06-25T10:21:49Z</time>
      </trkpt>
      <trkpt lat="44.24471" lon="2.97083">
        <ele>909.7</ele>
        <time>2023-06-25T10:21:50Z</time>
      </trkpt>
      <trkpt lat="44.24473" lon="2.97087">
        <ele>909.8</ele>
        <time>2023-06-25T10:21:51Z</time>
      </trkpt>
      <trkpt lat="44.24477" lon="2.97093">
        <ele>909.9</ele>
        <time>2023-06-25T10:21:53Z</time>
      </trkpt>
      <trkpt lat="44.24482" lon="2.971">
        <ele>910.1</ele>
        <time>2023-06-25T10:21:55Z</time>
      </trkpt>
      <trkpt lat="44.24485" lon="2.97104">
        <ele>910.2</ele>
        <time>2023-06-25T10:21:56Z</time>
      </trkpt>
      <trkpt lat="44.24488" lon="2.97109">
        <ele>910.3</ele>
        <time>2023-06-25T10:21:57Z</time>
      </trkpt>
      <trkpt lat="44.24492" lon="2.97116">
        <ele>910.4</ele>
        <time>2023-06-25T10:21:59Z</time>
      </trkpt>
      <trkpt lat="44.24496" lon="2.9712">
        <ele>910.5</ele>
        <time>2023-06-25T10:22:00Z</time>
      </trkpt>
      <trkpt lat="44.245" lon="2.97126">
        <ele>910.6</ele>
        <time>2023-06-25T10:22:02Z</time>
      </trkpt>
      <trkpt lat="44.24503" lon="2.9713">
        <ele>910.7</ele>
        <time>2023-06-25T10:22:03Z</time>
      </trkpt>
      <trkpt lat="44.24507" lon="2.97136">
        <ele>910.8</ele>
        <time>2023-06-25T10:22:04Z</time>
      </trkpt>
      <trkpt lat="44.24512" lon="2.97141">
        <ele>911</ele>
        <time>2023-06-25T10:22:05Z</time>
      </trkpt>
      <trkpt lat="44.24515" lon="2.97146">
        <ele>911.1</ele>
        <time>2023-06-25T10:22:06Z</time>
      </trkpt>
      <trkpt lat="44.2452" lon="2.97151">
        <ele>911.2</ele>
        <time>2023-06-25T10:22:07Z</time>
      </trkpt>
      <trkpt lat="44.24524" lon="2.97154">
        <ele>911.3</ele>
        <time>2023-06-25T10:22:09Z</time>
      </trkpt>
      <trkpt lat="44.24528" lon="2.97156">
        <ele>911.4</ele>
        <time>2023-06-25T10:22:10Z</time>
      </trkpt>
      <trkpt lat="44.24531" lon="2.97154">
        <ele>911.4</ele>
        <time>2023-06-25T10:22:11Z</time>
      </trkpt>
      <trkpt lat="44.24533" lon="2.9715">
        <ele>911.5</ele>
        <time>2023-06-25T10:22:12Z</time>
      </trkpt>
      <trkpt lat="44.24536" lon="2.97146">
        <ele>911.6</ele>
        <time>2023-06-25T10:22:13Z</time>
      </trkpt>
      <trkpt lat="44.24538" lon="2.97139">
        <ele>911.6</ele>
        <time>2023-06-25T10:22:15Z</time>
      </trkpt>
      <trkpt lat="44.2454" lon="2.97135">
        <ele>911.7</ele>
        <time>2023-06-25T10:22:16Z</time>
      </trkpt>
      <trkpt lat="44.24542" lon="2.97127">
        <ele>911.8</ele>
        <time>2023-06-25T10:22:18Z</time>
      </trkpt>
      <trkpt lat="44.24543" lon="2.9712">
        <ele>911.8</ele>
        <time>2023-06-25T10:22:19Z</time>
      </trkpt>
      <trkpt lat="44.24544" lon="2.97114">
        <ele>911.9</ele>
        <time>2023-06-25T10:22:20Z</time>
      </trkpt>
      <trkpt lat="44.24547" lon="2.97103">
        <ele>912.1</ele>
        <time>2023-06-25T10:22:22Z</time>
      </trkpt>
      <trkpt lat="44.24548" lon="2.97098">
        <ele>912.2</ele>
        <time>2023-06-25T10:22:23Z</time>
      </trkpt>
      <trkpt lat="44.2455" lon="2.97092">
        <ele>912.3</ele>
        <time>2023-06-25T10:22:24Z</time>
      </trkpt>
      <trkpt lat="44.24552" lon="2.97084">
        <ele>912.4</ele>
        <time>2023-06-25T10:22:26Z</time>
      </trkpt>
      <trkpt lat="44.24555" lon="2.97074">
        <ele>912.6</ele>
        <time>2023-06-25T10:22:28Z</time>
      </trkpt>
      <trkpt lat="44.24556" lon="2.97069">
        <ele>912.7</ele>
        <time>2023-06-25T10:22:29Z</time>
      </trkpt>
      <trkpt lat="44.24558" lon="2.97063">
        <ele>912.8</ele>
        <time>2023-06-25T10:22:30Z</time>
      </trkpt>
      <trkpt lat="44.24559" lon="2.97058">
        <ele>912.9</ele>
        <time>2023-06-25T10:22:31Z</time>
      </trkpt>
      <trkpt lat="44.24562" lon="2.97051">
        <ele>913</ele>
        <time>2023-06-25T10:22:33Z</time>
      </trkpt>
      <trkpt lat="44.24564" lon="2.97046">
        <ele>913.1</ele>
        <time>2023-06-25T10:22:34Z</time>
      </trkpt>
      <trkpt lat="44.24566" lon="2.97041">
        <ele>913.1</ele>
        <time>2023-06-25T10:22:35Z</time>
      </trkpt>
      <trkpt lat="44.24567" lon="2.97036">
        <ele>913.2</ele>
        <time>2023-06-25T10:22:36Z</time>
      </trkpt>
      <trkpt lat="44.24569" lon="2.97028">
        <ele>913.3</ele>
        <time>2023-06-25T10:22:38Z</time>
      </trkpt>
      <trkpt lat="44.24571" lon="2.97023">
        <ele>913.4</ele>
        <time>2023-06-25T10:22:39Z</time>
      </trkpt>
      <trkpt lat="44.24573" lon="2.97016">
        <ele>913.6</ele>
        <time>2023-06-25T10:22:40Z</time>
      </trkpt>
      <trkpt lat="44.24574" lon="2.97011">
        <ele>913.7</ele>
        <time>2023-06-25T10:22:41Z</time>
      </trkpt>
      <trkpt lat="44.24575" lon="2.97003">
        <ele>914</ele>
        <time>2023-06-25T10:22:43Z</time>
      </trkpt>
      <trkpt lat="44.24576" lon="2.96992">
        <ele>914.3</ele>
        <time>2023-06-25T10:22:45Z</time>
      </trkpt>
      <trkpt lat="44.24576" lon="2.96988">
        <ele>914.4</ele>
        <time>2023-06-25T10:22:46Z</time>
      </trkpt>
      <trkpt lat="44.24577" lon="2.96983">
        <ele>914.5</ele>
        <time>2023-06-25T10:22:47Z</time>
      </trkpt>
      <trkpt lat="44.24579" lon="2.96974">
        <ele>914.7</ele>
        <time>2023-06-25T10:22:49Z</time>
      </trkpt>
      <trkpt lat="44.24579" lon="2.96969">
        <ele>914.8</ele>
        <time>2023-06-25T10:22:50Z</time>
      </trkpt>
      <trkpt lat="44.2458" lon="2.96964">
        <ele>914.9</ele>
        <time>2023-06-25T10:22:51Z</time>
      </trkpt>
      <trkpt lat="44.24582" lon="2.96956">
        <ele>915.1</ele>
        <time>2023-06-25T10:22:53Z</time>
      </trkpt>
      <trkpt lat="44.24583" lon="2.96951">
        <ele>915.2</ele>
        <time>2023-06-25T10:22:54Z</time>
      </trkpt>
      <trkpt lat="44.24584" lon="2.96946">
        <ele>915.3</ele>
        <time>2023-06-25T10:22:55Z</time>
      </trkpt>
      <trkpt lat="44.24586" lon="2.96941">
        <ele>915.4</ele>
        <time>2023-06-25T10:22:56Z</time>
      </trkpt>
      <trkpt lat="44.24587" lon="2.96936">
        <ele>915.6</ele>
        <time>2023-06-25T10:22:57Z</time>
      </trkpt>
      <trkpt lat="44.24589" lon="2.9693">
        <ele>915.7</ele>
        <time>2023-06-25T10:22:58Z</time>
      </trkpt>
      <trkpt lat="44.24591" lon="2.96924">
        <ele>915.9</ele>
        <time>2023-06-25T10:23:00Z</time>
      </trkpt>
      <trkpt lat="44.24592" lon="2.96917">
        <ele>916.1</ele>
        <time>2023-06-25T10:23:01Z</time>
      </trkpt>
      <trkpt lat="44.24594" lon="2.96913">
        <ele>916.2</ele>
        <time>2023-06-25T10:23:02Z</time>
      </trkpt>
      <trkpt lat="44.24596" lon="2.96907">
        <ele>916.3</ele>
        <time>2023-06-25T10:23:03Z</time>
      </trkpt>
      <trkpt lat="44.24598" lon="2.96902">
        <ele>916.5</ele>
        <time>2023-06-25T10:23:05Z</time>
      </trkpt>
      <trkpt lat="44.246" lon="2.96897">
        <ele>916.7</ele>
        <time>2023-06-25T10:23:06Z</time>
      </trkpt>
      <trkpt lat="44.24602" lon="2.96892">
        <ele>916.8</ele>
        <time>2023-06-25T10:23:07Z</time>
      </trkpt>
      <trkpt lat="44.24604" lon="2.96887">
        <ele>917</ele>
        <time>2023-06-25T10:23:08Z</time>
      </trkpt>
      <trkpt lat="44.24606" lon="2.96882">
        <ele>917.2</ele>
        <time>2023-06-25T10:23:09Z</time>
      </trkpt>
      <trkpt lat="44.24608" lon="2.96878">
        <ele>917.3</ele>
        <time>2023-06-25T10:23:10Z</time>
      </trkpt>
      <trkpt lat="44.2461" lon="2.96874">
        <ele>917.5</ele>
        <time>2023-06-25T10:23:11Z</time>
      </trkpt>
      <trkpt lat="44.24615" lon="2.9687">
        <ele>917.7</ele>
        <time>2023-06-25T10:23:13Z</time>
      </trkpt>
      <trkpt lat="44.24618" lon="2.9687">
        <ele>917.8</ele>
        <time>2023-06-25T10:23:14Z</time>
      </trkpt>
      <trkpt lat="44.24621" lon="2.9687">
        <ele>918.1</ele>
        <time>2023-06-25T10:23:15Z</time>
      </trkpt>
      <trkpt lat="44.24627" lon="2.96873">
        <ele>918.3</ele>
        <time>2023-06-25T10:23:17Z</time>
      </trkpt>
      <trkpt lat="44.2463" lon="2.96877">
        <ele>918.4</ele>
        <time>2023-06-25T10:23:18Z</time>
      </trkpt>
      <trkpt lat="44.24633" lon="2.96882">
        <ele>918.5</ele>
        <time>2023-06-25T10:23:19Z</time>
      </trkpt>
      <trkpt lat="44.24637" lon="2.96888">
        <ele>918.7</ele>
        <time>2023-06-25T10:23:21Z</time>
      </trkpt>
      <trkpt lat="44.24642" lon="2.96893">
        <ele>918.9</ele>
        <time>2023-06-25T10:23:22Z</time>
      </trkpt>
      <trkpt lat="44.24644" lon="2.96897">
        <ele>919</ele>
        <time>2023-06-25T10:23:23Z</time>
      </trkpt>
      <trkpt lat="44.24648" lon="2.96901">
        <ele>919.1</ele>
        <time>2023-06-25T10:23:24Z</time>
      </trkpt>
      <trkpt lat="44.24652" lon="2.96906">
        <ele>919.3</ele>
        <time>2023-06-25T10:23:25Z</time>
      </trkpt>
      <trkpt lat="44.24655" lon="2.9691">
        <ele>919.4</ele>
        <time>2023-06-25T10:23:26Z</time>
      </trkpt>
      <trkpt lat="44.24659" lon="2.96914">
        <ele>919.6</ele>
        <time>2023-06-25T10:23:27Z</time>
      </trkpt>
      <trkpt lat="44.24663" lon="2.96918">
        <ele>919.7</ele>
        <time>2023-06-25T10:23:28Z</time>
      </trkpt>
      <trkpt lat="44.24666" lon="2.96922">
        <ele>919.8</ele>
        <time>2023-06-25T10:23:29Z</time>
      </trkpt>
      <trkpt lat="44.24669" lon="2.96922">
        <ele>919.9</ele>
        <time>2023-06-25T10:23:30Z</time>
      </trkpt>
      <trkpt lat="44.24675" lon="2.9693">
        <ele>920.1</ele>
        <time>2023-06-25T10:23:32Z</time>
      </trkpt>
      <trkpt lat="44.24678" lon="2.96934">
        <ele>920.3</ele>
        <time>2023-06-25T10:23:33Z</time>
      </trkpt>
      <trkpt lat="44.24682" lon="2.96938">
        <ele>920.4</ele>
        <time>2023-06-25T10:23:35Z</time>
      </trkpt>
      <trkpt lat="44.24685" lon="2.96942">
        <ele>920.5</ele>
        <time>2023-06-25T10:23:36Z</time>
      </trkpt>
      <trkpt lat="44.24688" lon="2.96946">
        <ele>920.6</ele>
        <time>2023-06-25T10:23:37Z</time>
      </trkpt>
      <trkpt lat="44.2469" lon="2.9695">
        <ele>920.8</ele>
        <time>2023-06-25T10:23:38Z</time>
      </trkpt>
      <trkpt lat="44.24694" lon="2.96955">
        <ele>920.9</ele>
        <time>2023-06-25T10:23:39Z</time>
      </trkpt>
      <trkpt lat="44.24697" lon="2.96961">
        <ele>921.1</ele>
        <time>2023-06-25T10:23:40Z</time>
      </trkpt>
      <trkpt lat="44.24699" lon="2.96966">
        <ele>921.2</ele>
        <time>2023-06-25T10:23:41Z</time>
      </trkpt>
      <trkpt lat="44.24703" lon="2.9697">
        <ele>921.3</ele>
        <time>2023-06-25T10:23:42Z</time>
      </trkpt>
      <trkpt lat="44.24707" lon="2.96974">
        <ele>921.5</ele>
        <time>2023-06-25T10:23:43Z</time>
      </trkpt>
      <trkpt lat="44.24711" lon="2.96978">
        <ele>921.6</ele>
        <time>2023-06-25T10:23:44Z</time>
      </trkpt>
      <trkpt lat="44.24715" lon="2.96981">
        <ele>921.8</ele>
        <time>2023-06-25T10:23:45Z</time>
      </trkpt>
      <trkpt lat="44.2472" lon="2.96983">
        <ele>921.9</ele>
        <time>2023-06-25T10:23:46Z</time>
      </trkpt>
      <trkpt lat="44.24725" lon="2.96985">
        <ele>922</ele>
        <time>2023-06-25T10:23:47Z</time>
      </trkpt>
      <trkpt lat="44.2473" lon="2.96986">
        <ele>922.2</ele>
        <time>2023-06-25T10:23:48Z</time>
      </trkpt>
      <trkpt lat="44.24735" lon="2.96986">
        <ele>922.3</ele>
        <time>2023-06-25T10:23:49Z</time>
      </trkpt>
      <trkpt lat="44.2474" lon="2.96987">
        <ele>922.5</ele>
        <time>2023-06-25T10:23:50Z</time>
      </trkpt>
      <trkpt lat="44.24745" lon="2.96987">
        <ele>922.6</ele>
        <time>2023-06-25T10:23:51Z</time>
      </trkpt>
      <trkpt lat="44.2475" lon="2.96987">
        <ele>922.8</ele>
        <time>2023-06-25T10:23:52Z</time>
      </trkpt>
      <trkpt lat="44.24755" lon="2.96988">
        <ele>922.9</ele>
        <time>2023-06-25T10:23:53Z</time>
      </trkpt>
      <trkpt lat="44.2476" lon="2.96988">
        <ele>923.1</ele>
        <time>2023-06-25T10:23:54Z</time>
      </trkpt>
      <trkpt lat="44.24764" lon="2.96987">
        <ele>923.2</ele>
        <time>2023-06-25T10:23:55Z</time>
      </trkpt>
      <trkpt lat="44.24767" lon="2.96987">
        <ele>923.3</ele>
        <time>2023-06-25T10:23:56Z</time>
      </trkpt>
      <trkpt lat="44.24771" lon="2.96987">
        <ele>923.4</ele>
        <time>2023-06-25T10:23:57Z</time>
      </trkpt>
      <trkpt lat="44.24775" lon="2.96988">
        <ele>923.5</ele>
        <time>2023-06-25T10:23:58Z</time>
      </trkpt>
      <trkpt lat="44.24778" lon="2.96989">
        <ele>923.6</ele>
        <time>2023-06-25T10:23:59Z</time>
      </trkpt>
      <trkpt lat="44.24782" lon="2.96991">
        <ele>923.7</ele>
        <time>2023-06-25T10:24:00Z</time>
      </trkpt>
      <trkpt lat="44.24786" lon="2.96994">
        <ele>923.9</ele>
        <time>2023-06-25T10:24:01Z</time>
      </trkpt>
      <trkpt lat="44.24788" lon="2.96995">
        <ele>923.9</ele>
        <time>2023-06-25T10:24:02Z</time>
      </trkpt>
      <trkpt lat="44.24792" lon="2.96999">
        <ele>924.1</ele>
        <time>2023-06-25T10:24:03Z</time>
      </trkpt>
      <trkpt lat="44.24796" lon="2.97003">
        <ele>924.2</ele>
        <time>2023-06-25T10:24:05Z</time>
      </trkpt>
      <trkpt lat="44.24798" lon="2.97007">
        <ele>924.3</ele>
        <time>2023-06-25T10:24:06Z</time>
      </trkpt>
      <trkpt lat="44.24801" lon="2.97009">
        <ele>924.4</ele>
        <time>2023-06-25T10:24:07Z</time>
      </trkpt>
      <trkpt lat="44.24804" lon="2.97012">
        <ele>924.5</ele>
        <time>2023-06-25T10:24:08Z</time>
      </trkpt>
      <trkpt lat="44.24807" lon="2.97013">
        <ele>924.6</ele>
        <time>2023-06-25T10:24:09Z</time>
      </trkpt>
      <trkpt lat="44.24811" lon="2.97015">
        <ele>924.7</ele>
        <time>2023-06-25T10:24:10Z</time>
      </trkpt>
      <trkpt lat="44.24814" lon="2.97017">
        <ele>924.8</ele>
        <time>2023-06-25T10:24:11Z</time>
      </trkpt>
      <trkpt lat="44.24817" lon="2.97017">
        <ele>924.9</ele>
        <time>2023-06-25T10:24:12Z</time>
      </trkpt>
      <trkpt lat="44.24823" lon="2.97018">
        <ele>925.1</ele>
        <time>2023-06-25T10:24:14Z</time>
      </trkpt>
      <trkpt lat="44.24826" lon="2.97019">
        <ele>925.2</ele>
        <time>2023-06-25T10:24:15Z</time>
      </trkpt>
      <trkpt lat="44.2483" lon="2.97019">
        <ele>925.3</ele>
        <time>2023-06-25T10:24:16Z</time>
      </trkpt>
      <trkpt lat="44.24834" lon="2.9702">
        <ele>925.4</ele>
        <time>2023-06-25T10:24:17Z</time>
      </trkpt>
      <trkpt lat="44.24839" lon="2.97023">
        <ele>925.6</ele>
        <time>2023-06-25T10:24:18Z</time>
      </trkpt>
      <trkpt lat="44.24844" lon="2.97026">
        <ele>925.7</ele>
        <time>2023-06-25T10:24:20Z</time>
      </trkpt>
      <trkpt lat="44.24847" lon="2.97028">
        <ele>925.8</ele>
        <time>2023-06-25T10:24:21Z</time>
      </trkpt>
      <trkpt lat="44.24848" lon="2.97028">
        <ele>925.9</ele>
        <time>2023-06-25T10:24:22Z</time>
      </trkpt>
      <trkpt lat="44.2485" lon="2.97029">
        <ele>925.9</ele>
        <time>2023-06-25T10:24:24Z</time>
      </trkpt>
      <trkpt lat="44.24851" lon="2.97029">
        <ele>925.9</ele>
        <time>2023-06-25T10:24:25Z</time>
      </trkpt>
      <trkpt lat="44.2485" lon="2.97029">
        <ele>926</ele>
        <time>2023-06-25T10:24:26Z</time>
      </trkpt>
      <trkpt lat="44.24849" lon="2.97029">
        <ele>926</ele>
        <time>2023-06-25T10:24:27Z</time>
      </trkpt>
      <trkpt lat="44.24849" lon="2.97029">
        <ele>926</ele>
        <time>2023-06-25T10:24:28Z</time>
      </trkpt>
      <trkpt lat="44.24849" lon="2.97029">
        <ele>926</ele>
        <time>2023-06-25T10:24:29Z</time>
      </trkpt>
      <trkpt lat="44.24848" lon="2.97028">
        <ele>926</ele>
        <time>2023-06-25T10:24:31Z</time>
      </trkpt>
      <trkpt lat="44.24848" lon="2.97028">
        <ele>926</ele>
        <time>2023-06-25T10:24:32Z</time>
      </trkpt>
      <trkpt lat="44.24853" lon="2.97032">
        <ele>926.2</ele>
        <time>2023-06-25T10:24:41Z</time>
      </trkpt>
      <trkpt lat="44.24855" lon="2.97037">
        <ele>926.3</ele>
        <time>2023-06-25T10:24:42Z</time>
      </trkpt>
      <trkpt lat="44.24855" lon="2.97039">
        <ele>926.3</ele>
        <time>2023-06-25T10:24:43Z</time>
      </trkpt>
      <trkpt lat="44.24856" lon="2.97041">
        <ele>926.4</ele>
        <time>2023-06-25T10:24:44Z</time>
      </trkpt>
      <trkpt lat="44.24856" lon="2.97042">
        <ele>926.4</ele>
        <time>2023-06-25T10:24:45Z</time>
      </trkpt>
      <trkpt lat="44.24857" lon="2.97042">
        <ele>926.4</ele>
        <time>2023-06-25T10:24:47Z</time>
      </trkpt>
      <trkpt lat="44.24857" lon="2.97043">
        <ele>926.4</ele>
        <time>2023-06-25T10:24:48Z</time>
      </trkpt>
      <trkpt lat="44.24857" lon="2.97043">
        <ele>926.5</ele>
        <time>2023-06-25T10:24:50Z</time>
      </trkpt>
      <trkpt lat="44.24858" lon="2.97044">
        <ele>926.5</ele>
        <time>2023-06-25T10:24:51Z</time>
      </trkpt>
      <trkpt lat="44.24858" lon="2.97044">
        <ele>926.5</ele>
        <time>2023-06-25T10:24:53Z</time>
      </trkpt>
      <trkpt lat="44.24859" lon="2.97045">
        <ele>926.5</ele>
        <time>2023-06-25T10:24:54Z</time>
      </trkpt>
      <trkpt lat="44.24859" lon="2.97045">
        <ele>926.5</ele>
        <time>2023-06-25T10:24:55Z</time>
      </trkpt>
      <trkpt lat="44.24859" lon="2.97046">
        <ele>926.5</ele>
        <time>2023-06-25T10:24:57Z</time>
      </trkpt>
      <trkpt lat="44.2486" lon="2.97046">
        <ele>926.5</ele>
        <time>2023-06-25T10:24:59Z</time>
      </trkpt>
      <trkpt lat="44.2486" lon="2.97047">
        <ele>926.6</ele>
        <time>2023-06-25T10:25:00Z</time>
      </trkpt>
      <trkpt lat="44.2486" lon="2.97047">
        <ele>926.6</ele>
        <time>2023-06-25T10:25:12Z</time>
      </trkpt>
      <trkpt lat="44.24861" lon="2.97048">
        <ele>926.6</ele>
        <time>2023-06-25T10:25:13Z</time>
      </trkpt>
      <trkpt lat="44.24861" lon="2.97048">
        <ele>926.6</ele>
        <time>2023-06-25T10:25:14Z</time>
      </trkpt>
      <trkpt lat="44.24863" lon="2.97051">
        <ele>926.7</ele>
        <time>2023-06-25T10:25:15Z</time>
      </trkpt>
      <trkpt lat="44.24866" lon="2.97055">
        <ele>926.8</ele>
        <time>2023-06-25T10:25:17Z</time>
      </trkpt>
      <trkpt lat="44.2487" lon="2.97058">
        <ele>926.9</ele>
        <time>2023-06-25T10:25:18Z</time>
      </trkpt>
      <trkpt lat="44.24871" lon="2.9706">
        <ele>927</ele>
        <time>2023-06-25T10:25:19Z</time>
      </trkpt>
      <trkpt lat="44.24874" lon="2.97063">
        <ele>927.1</ele>
        <time>2023-06-25T10:25:21Z</time>
      </trkpt>
      <trkpt lat="44.24876" lon="2.97065">
        <ele>927.2</ele>
        <time>2023-06-25T10:25:22Z</time>
      </trkpt>
      <trkpt lat="44.24879" lon="2.97067">
        <ele>927.2</ele>
        <time>2023-06-25T10:25:23Z</time>
      </trkpt>
      <trkpt lat="44.24882" lon="2.9707">
        <ele>927.4</ele>
        <time>2023-06-25T10:25:25Z</time>
      </trkpt>
      <trkpt lat="44.24884" lon="2.97073">
        <ele>927.5</ele>
        <time>2023-06-25T10:25:26Z</time>
      </trkpt>
      <trkpt lat="44.24887" lon="2.97075">
        <ele>927.5</ele>
        <time>2023-06-25T10:25:27Z</time>
      </trkpt>
      <trkpt lat="44.24889" lon="2.97077">
        <ele>927.6</ele>
        <time>2023-06-25T10:25:28Z</time>
      </trkpt>
      <trkpt lat="44.24893" lon="2.97081">
        <ele>927.8</ele>
        <time>2023-06-25T10:25:29Z</time>
      </trkpt>
      <trkpt lat="44.24897" lon="2.97085">
        <ele>927.9</ele>
        <time>2023-06-25T10:25:31Z</time>
      </trkpt>
      <trkpt lat="44.249" lon="2.97088">
        <ele>928</ele>
        <time>2023-06-25T10:25:32Z</time>
      </trkpt>
      <trkpt lat="44.24904" lon="2.97092">
        <ele>928.2</ele>
        <time>2023-06-25T10:25:34Z</time>
      </trkpt>
      <trkpt lat="44.24906" lon="2.97095">
        <ele>928.2</ele>
        <time>2023-06-25T10:25:35Z</time>
      </trkpt>
      <trkpt lat="44.24909" lon="2.97098">
        <ele>928.3</ele>
        <time>2023-06-25T10:25:36Z</time>
      </trkpt>
      <trkpt lat="44.24911" lon="2.97101">
        <ele>928.4</ele>
        <time>2023-06-25T10:25:37Z</time>
      </trkpt>
      <trkpt lat="44.24915" lon="2.97105">
        <ele>928.6</ele>
        <time>2023-06-25T10:25:38Z</time>
      </trkpt>
      <trkpt lat="44.24916" lon="2.97106">
        <ele>928.6</ele>
        <time>2023-06-25T10:25:39Z</time>
      </trkpt>
      <trkpt lat="44.24918" lon="2.97109">
        <ele>928.7</ele>
        <time>2023-06-25T10:25:40Z</time>
      </trkpt>
      <trkpt lat="44.2492" lon="2.97113">
        <ele>928.8</ele>
        <time>2023-06-25T10:25:42Z</time>
      </trkpt>
      <trkpt lat="44.24922" lon="2.97117">
        <ele>928.9</ele>
        <time>2023-06-25T10:25:43Z</time>
      </trkpt>
      <trkpt lat="44.24923" lon="2.97121">
        <ele>929</ele>
        <time>2023-06-25T10:25:44Z</time>
      </trkpt>
      <trkpt lat="44.24923" lon="2.97124">
        <ele>929.1</ele>
        <time>2023-06-25T10:25:45Z</time>
      </trkpt>
      <trkpt lat="44.24925" lon="2.97127">
        <ele>929.1</ele>
        <time>2023-06-25T10:25:47Z</time>
      </trkpt>
      <trkpt lat="44.24927" lon="2.97131">
        <ele>929.3</ele>
        <time>2023-06-25T10:25:48Z</time>
      </trkpt>
      <trkpt lat="44.24928" lon="2.97133">
        <ele>929.3</ele>
        <time>2023-06-25T10:25:49Z</time>
      </trkpt>
      <trkpt lat="44.2493" lon="2.97136">
        <ele>929.4</ele>
        <time>2023-06-25T10:25:50Z</time>
      </trkpt>
      <trkpt lat="44.24931" lon="2.97136">
        <ele>929.4</ele>
        <time>2023-06-25T10:25:51Z</time>
      </trkpt>
      <trkpt lat="44.24933" lon="2.97139">
        <ele>929.5</ele>
        <time>2023-06-25T10:25:52Z</time>
      </trkpt>
      <trkpt lat="44.24934" lon="2.9714">
        <ele>929.5</ele>
        <time>2023-06-25T10:25:53Z</time>
      </trkpt>
      <trkpt lat="44.24936" lon="2.97141">
        <ele>929.6</ele>
        <time>2023-06-25T10:25:54Z</time>
      </trkpt>
      <trkpt lat="44.24939" lon="2.97142">
        <ele>929.7</ele>
        <time>2023-06-25T10:25:56Z</time>
      </trkpt>
      <trkpt lat="44.24942" lon="2.97142">
        <ele>929.8</ele>
        <time>2023-06-25T10:25:57Z</time>
      </trkpt>
      <trkpt lat="44.24943" lon="2.97142">
        <ele>929.8</ele>
        <time>2023-06-25T10:25:58Z</time>
      </trkpt>
      <trkpt lat="44.24947" lon="2.97143">
        <ele>929.9</ele>
        <time>2023-06-25T10:25:59Z</time>
      </trkpt>
      <trkpt lat="44.24948" lon="2.97143">
        <ele>929.9</ele>
        <time>2023-06-25T10:26:00Z</time>
      </trkpt>
      <trkpt lat="44.2495" lon="2.97143">
        <ele>930</ele>
        <time>2023-06-25T10:26:01Z</time>
      </trkpt>
      <trkpt lat="44.24953" lon="2.97143">
        <ele>930.1</ele>
        <time>2023-06-25T10:26:03Z</time>
      </trkpt>
      <trkpt lat="44.24957" lon="2.97143">
        <ele>930.2</ele>
        <time>2023-06-25T10:26:04Z</time>
      </trkpt>
      <trkpt lat="44.24958" lon="2.97143">
        <ele>930.2</ele>
        <time>2023-06-25T10:26:05Z</time>
      </trkpt>
      <trkpt lat="44.24961" lon="2.97143">
        <ele>930.3</ele>
        <time>2023-06-25T10:26:06Z</time>
      </trkpt>
      <trkpt lat="44.24962" lon="2.97143">
        <ele>930.4</ele>
        <time>2023-06-25T10:26:07Z</time>
      </trkpt>
      <trkpt lat="44.24965" lon="2.97143">
        <ele>930.4</ele>
        <time>2023-06-25T10:26:08Z</time>
      </trkpt>
      <trkpt lat="44.24967" lon="2.97143">
        <ele>930.5</ele>
        <time>2023-06-25T10:26:10Z</time>
      </trkpt>
      <trkpt lat="44.24971" lon="2.97143">
        <ele>930.6</ele>
        <time>2023-06-25T10:26:11Z</time>
      </trkpt>
      <trkpt lat="44.24976" lon="2.97144">
        <ele>930.7</ele>
        <time>2023-06-25T10:26:13Z</time>
      </trkpt>
      <trkpt lat="44.24977" lon="2.97144">
        <ele>930.8</ele>
        <time>2023-06-25T10:26:14Z</time>
      </trkpt>
      <trkpt lat="44.24978" lon="2.97144">
        <ele>930.8</ele>
        <time>2023-06-25T10:26:15Z</time>
      </trkpt>
      <trkpt lat="44.24982" lon="2.97144">
        <ele>930.9</ele>
        <time>2023-06-25T10:26:16Z</time>
      </trkpt>
      <trkpt lat="44.24983" lon="2.97144">
        <ele>931</ele>
        <time>2023-06-25T10:26:17Z</time>
      </trkpt>
      <trkpt lat="44.24986" lon="2.97144">
        <ele>931</ele>
        <time>2023-06-25T10:26:18Z</time>
      </trkpt>
      <trkpt lat="44.24989" lon="2.97146">
        <ele>931.1</ele>
        <time>2023-06-25T10:26:20Z</time>
      </trkpt>
      <trkpt lat="44.24992" lon="2.97146">
        <ele>931.2</ele>
        <time>2023-06-25T10:26:21Z</time>
      </trkpt>
      <trkpt lat="44.24994" lon="2.97147">
        <ele>931.3</ele>
        <time>2023-06-25T10:26:22Z</time>
      </trkpt>
      <trkpt lat="44.25" lon="2.97148">
        <ele>931.5</ele>
        <time>2023-06-25T10:26:24Z</time>
      </trkpt>
      <trkpt lat="44.25001" lon="2.97148">
        <ele>931.5</ele>
        <time>2023-06-25T10:26:25Z</time>
      </trkpt>
      <trkpt lat="44.25003" lon="2.97149">
        <ele>931.6</ele>
        <time>2023-06-25T10:26:26Z</time>
      </trkpt>
      <trkpt lat="44.25008" lon="2.9715">
        <ele>931.7</ele>
        <time>2023-06-25T10:26:28Z</time>
      </trkpt>
      <trkpt lat="44.25011" lon="2.97151">
        <ele>931.8</ele>
        <time>2023-06-25T10:26:29Z</time>
      </trkpt>
      <trkpt lat="44.25015" lon="2.97152">
        <ele>931.9</ele>
        <time>2023-06-25T10:26:30Z</time>
      </trkpt>
      <trkpt lat="44.25016" lon="2.97152">
        <ele>931.9</ele>
        <time>2023-06-25T10:26:31Z</time>
      </trkpt>
      <trkpt lat="44.25019" lon="2.97153">
        <ele>932</ele>
        <time>2023-06-25T10:26:32Z</time>
      </trkpt>
      <trkpt lat="44.25021" lon="2.97154">
        <ele>932.1</ele>
        <time>2023-06-25T10:26:33Z</time>
      </trkpt>
      <trkpt lat="44.25024" lon="2.97155">
        <ele>932.2</ele>
        <time>2023-06-25T10:26:35Z</time>
      </trkpt>
      <trkpt lat="44.25028" lon="2.97157">
        <ele>932.3</ele>
        <time>2023-06-25T10:26:36Z</time>
      </trkpt>
      <trkpt lat="44.25029" lon="2.97157">
        <ele>932.3</ele>
        <time>2023-06-25T10:26:37Z</time>
      </trkpt>
      <trkpt lat="44.25032" lon="2.97158">
        <ele>932.4</ele>
        <time>2023-06-25T10:26:38Z</time>
      </trkpt>
      <trkpt lat="44.25035" lon="2.9716">
        <ele>932.5</ele>
        <time>2023-06-25T10:26:39Z</time>
      </trkpt>
      <trkpt lat="44.25038" lon="2.97162">
        <ele>932.6</ele>
        <time>2023-06-25T10:26:41Z</time>
      </trkpt>
      <trkpt lat="44.25041" lon="2.97164">
        <ele>932.7</ele>
        <time>2023-06-25T10:26:42Z</time>
      </trkpt>
      <trkpt lat="44.25044" lon="2.97166">
        <ele>932.8</ele>
        <time>2023-06-25T10:26:43Z</time>
      </trkpt>
      <trkpt lat="44.25046" lon="2.97168">
        <ele>932.9</ele>
        <time>2023-06-25T10:26:44Z</time>
      </trkpt>
      <trkpt lat="44.25049" lon="2.97171">
        <ele>933</ele>
        <time>2023-06-25T10:26:45Z</time>
      </trkpt>
      <trkpt lat="44.25052" lon="2.97171">
        <ele>933.1</ele>
        <time>2023-06-25T10:26:46Z</time>
      </trkpt>
      <trkpt lat="44.25055" lon="2.97173">
        <ele>933.2</ele>
        <time>2023-06-25T10:26:48Z</time>
      </trkpt>
      <trkpt lat="44.25058" lon="2.97174">
        <ele>933.3</ele>
        <time>2023-06-25T10:26:49Z</time>
      </trkpt>
      <trkpt lat="44.25061" lon="2.97175">
        <ele>933.3</ele>
        <time>2023-06-25T10:26:50Z</time>
      </trkpt>
      <trkpt lat="44.25066" lon="2.97176">
        <ele>933.5</ele>
        <time>2023-06-25T10:26:52Z</time>
      </trkpt>
      <trkpt lat="44.2507" lon="2.97176">
        <ele>933.6</ele>
        <time>2023-06-25T10:26:53Z</time>
      </trkpt>
      <trkpt lat="44.25073" lon="2.97176">
        <ele>933.7</ele>
        <time>2023-06-25T10:26:54Z</time>
      </trkpt>
      <trkpt lat="44.25075" lon="2.97176">
        <ele>933.8</ele>
        <time>2023-06-25T10:26:55Z</time>
      </trkpt>
      <trkpt lat="44.25079" lon="2.97175">
        <ele>933.9</ele>
        <time>2023-06-25T10:26:57Z</time>
      </trkpt>
      <trkpt lat="44.2508" lon="2.97174">
        <ele>933.9</ele>
        <time>2023-06-25T10:26:58Z</time>
      </trkpt>
      <trkpt lat="44.25081" lon="2.97173">
        <ele>934</ele>
        <time>2023-06-25T10:26:59Z</time>
      </trkpt>
      <trkpt lat="44.25084" lon="2.9717">
        <ele>934.1</ele>
        <time>2023-06-25T10:27:00Z</time>
      </trkpt>
      <trkpt lat="44.25084" lon="2.9717">
        <ele>934.1</ele>
        <time>2023-06-25T10:27:01Z</time>
      </trkpt>
      <trkpt lat="44.25086" lon="2.97167">
        <ele>934.2</ele>
        <time>2023-06-25T10:27:02Z</time>
      </trkpt>
      <trkpt lat="44.25087" lon="2.97166">
        <ele>934.2</ele>
        <time>2023-06-25T10:27:03Z</time>
      </trkpt>
      <trkpt lat="44.2509" lon="2.97162">
        <ele>934.3</ele>
        <time>2023-06-25T10:27:05Z</time>
      </trkpt>
      <trkpt lat="44.25091" lon="2.9716">
        <ele>934.3</ele>
        <time>2023-06-25T10:27:06Z</time>
      </trkpt>
      <trkpt lat="44.25093" lon="2.97157">
        <ele>934.5</ele>
        <time>2023-06-25T10:27:07Z</time>
      </trkpt>
      <trkpt lat="44.25094" lon="2.97156">
        <ele>934.5</ele>
        <time>2023-06-25T10:27:08Z</time>
      </trkpt>
      <trkpt lat="44.25096" lon="2.97153">
        <ele>934.6</ele>
        <time>2023-06-25T10:27:09Z</time>
      </trkpt>
      <trkpt lat="44.25099" lon="2.9715">
        <ele>934.7</ele>
        <time>2023-06-25T10:27:11Z</time>
      </trkpt>
      <trkpt lat="44.25101" lon="2.97148">
        <ele>934.8</ele>
        <time>2023-06-25T10:27:12Z</time>
      </trkpt>
      <trkpt lat="44.25105" lon="2.97144">
        <ele>934.9</ele>
        <time>2023-06-25T10:27:13Z</time>
      </trkpt>
      <trkpt lat="44.25106" lon="2.97142">
        <ele>934.9</ele>
        <time>2023-06-25T10:27:14Z</time>
      </trkpt>
      <trkpt lat="44.25109" lon="2.97139">
        <ele>935</ele>
        <time>2023-06-25T10:27:15Z</time>
      </trkpt>
      <trkpt lat="44.2511" lon="2.97138">
        <ele>935.1</ele>
        <time>2023-06-25T10:27:16Z</time>
      </trkpt>
      <trkpt lat="44.25113" lon="2.97135">
        <ele>935.2</ele>
        <time>2023-06-25T10:27:18Z</time>
      </trkpt>
      <trkpt lat="44.25116" lon="2.97133">
        <ele>935.3</ele>
        <time>2023-06-25T10:27:19Z</time>
      </trkpt>
      <trkpt lat="44.25119" lon="2.97131">
        <ele>935.4</ele>
        <time>2023-06-25T10:27:20Z</time>
      </trkpt>
      <trkpt lat="44.2512" lon="2.9713">
        <ele>935.4</ele>
        <time>2023-06-25T10:27:21Z</time>
      </trkpt>
      <trkpt lat="44.25123" lon="2.97128">
        <ele>935.5</ele>
        <time>2023-06-25T10:27:22Z</time>
      </trkpt>
      <trkpt lat="44.25124" lon="2.97127">
        <ele>935.6</ele>
        <time>2023-06-25T10:27:23Z</time>
      </trkpt>
      <trkpt lat="44.25126" lon="2.97125">
        <ele>935.6</ele>
        <time>2023-06-25T10:27:24Z</time>
      </trkpt>
      <trkpt lat="44.25127" lon="2.97124">
        <ele>935.7</ele>
        <time>2023-06-25T10:27:25Z</time>
      </trkpt>
      <trkpt lat="44.25129" lon="2.97121">
        <ele>935.7</ele>
        <time>2023-06-25T10:27:27Z</time>
      </trkpt>
      <trkpt lat="44.2513" lon="2.97121">
        <ele>935.8</ele>
        <time>2023-06-25T10:27:28Z</time>
      </trkpt>
      <trkpt lat="44.25131" lon="2.97119">
        <ele>935.8</ele>
        <time>2023-06-25T10:27:29Z</time>
      </trkpt>
      <trkpt lat="44.25133" lon="2.97118">
        <ele>935.9</ele>
        <time>2023-06-25T10:27:30Z</time>
      </trkpt>
      <trkpt lat="44.25136" lon="2.97115">
        <ele>936</ele>
        <time>2023-06-25T10:27:32Z</time>
      </trkpt>
      <trkpt lat="44.25137" lon="2.97114">
        <ele>936</ele>
        <time>2023-06-25T10:27:33Z</time>
      </trkpt>
      <trkpt lat="44.2514" lon="2.97112">
        <ele>936.1</ele>
        <time>2023-06-25T10:27:34Z</time>
      </trkpt>
      <trkpt lat="44.2514" lon="2.97111">
        <ele>936.1</ele>
        <time>2023-06-25T10:27:35Z</time>
      </trkpt>
      <trkpt lat="44.25143" lon="2.9711">
        <ele>936.2</ele>
        <time>2023-06-25T10:27:36Z</time>
      </trkpt>
      <trkpt lat="44.25147" lon="2.97107">
        <ele>936.3</ele>
        <time>2023-06-25T10:27:38Z</time>
      </trkpt>
      <trkpt lat="44.2515" lon="2.97105">
        <ele>936.4</ele>
        <time>2023-06-25T10:27:39Z</time>
      </trkpt>
      <trkpt lat="44.25153" lon="2.97102">
        <ele>936.5</ele>
        <time>2023-06-25T10:27:40Z</time>
      </trkpt>
      <trkpt lat="44.25155" lon="2.971">
        <ele>936.6</ele>
        <time>2023-06-25T10:27:41Z</time>
      </trkpt>
      <trkpt lat="44.25158" lon="2.97098">
        <ele>936.7</ele>
        <time>2023-06-25T10:27:42Z</time>
      </trkpt>
      <trkpt lat="44.2516" lon="2.97095">
        <ele>936.8</ele>
        <time>2023-06-25T10:27:44Z</time>
      </trkpt>
      <trkpt lat="44.25163" lon="2.97093">
        <ele>936.9</ele>
        <time>2023-06-25T10:27:45Z</time>
      </trkpt>
      <trkpt lat="44.25164" lon="2.97093">
        <ele>936.9</ele>
        <time>2023-06-25T10:27:46Z</time>
      </trkpt>
      <trkpt lat="44.25168" lon="2.9709">
        <ele>937</ele>
        <time>2023-06-25T10:27:48Z</time>
      </trkpt>
      <trkpt lat="44.2517" lon="2.97088">
        <ele>937.1</ele>
        <time>2023-06-25T10:27:49Z</time>
      </trkpt>
      <trkpt lat="44.25174" lon="2.97085">
        <ele>937.3</ele>
        <time>2023-06-25T10:27:50Z</time>
      </trkpt>
      <trkpt lat="44.25178" lon="2.97081">
        <ele>937.4</ele>
        <time>2023-06-25T10:27:52Z</time>
      </trkpt>
      <trkpt lat="44.25182" lon="2.97078">
        <ele>937.5</ele>
        <time>2023-06-25T10:27:53Z</time>
      </trkpt>
      <trkpt lat="44.25186" lon="2.97073">
        <ele>937.7</ele>
        <time>2023-06-25T10:27:55Z</time>
      </trkpt>
      <trkpt lat="44.25189" lon="2.97071">
        <ele>937.8</ele>
        <time>2023-06-25T10:27:56Z</time>
      </trkpt>
      <trkpt lat="44.25194" lon="2.97067">
        <ele>938</ele>
        <time>2023-06-25T10:27:58Z</time>
      </trkpt>
      <trkpt lat="44.25197" lon="2.97064">
        <ele>938.1</ele>
        <time>2023-06-25T10:27:59Z</time>
      </trkpt>
      <trkpt lat="44.252" lon="2.97061">
        <ele>938.2</ele>
        <time>2023-06-25T10:28:00Z</time>
      </trkpt>
      <trkpt lat="44.25205" lon="2.97057">
        <ele>938.3</ele>
        <time>2023-06-25T10:28:02Z</time>
      </trkpt>
      <trkpt lat="44.25207" lon="2.97055">
        <ele>938.4</ele>
        <time>2023-06-25T10:28:03Z</time>
      </trkpt>
      <trkpt lat="44.2521" lon="2.97053">
        <ele>938.5</ele>
        <time>2023-06-25T10:28:05Z</time>
      </trkpt>
      <trkpt lat="44.25213" lon="2.97051">
        <ele>938.6</ele>
        <time>2023-06-25T10:28:06Z</time>
      </trkpt>
      <trkpt lat="44.25215" lon="2.97049">
        <ele>938.7</ele>
        <time>2023-06-25T10:28:07Z</time>
      </trkpt>
      <trkpt lat="44.25219" lon="2.97046">
        <ele>938.8</ele>
        <time>2023-06-25T10:28:09Z</time>
      </trkpt>
      <trkpt lat="44.25222" lon="2.97043">
        <ele>938.9</ele>
        <time>2023-06-25T10:28:10Z</time>
      </trkpt>
      <trkpt lat="44.25226" lon="2.97041">
        <ele>939.1</ele>
        <time>2023-06-25T10:28:11Z</time>
      </trkpt>
      <trkpt lat="44.25231" lon="2.97037">
        <ele>939.2</ele>
        <time>2023-06-25T10:28:13Z</time>
      </trkpt>
      <trkpt lat="44.25237" lon="2.97033">
        <ele>939.4</ele>
        <time>2023-06-25T10:28:15Z</time>
      </trkpt>
      <trkpt lat="44.25241" lon="2.9703">
        <ele>939.5</ele>
        <time>2023-06-25T10:28:16Z</time>
      </trkpt>
      <trkpt lat="44.25244" lon="2.97028">
        <ele>939.6</ele>
        <time>2023-06-25T10:28:17Z</time>
      </trkpt>
      <trkpt lat="44.25247" lon="2.97025">
        <ele>939.7</ele>
        <time>2023-06-25T10:28:18Z</time>
      </trkpt>
      <trkpt lat="44.25255" lon="2.97019">
        <ele>940</ele>
        <time>2023-06-25T10:28:20Z</time>
      </trkpt>
      <trkpt lat="44.25259" lon="2.97016">
        <ele>940.1</ele>
        <time>2023-06-25T10:28:22Z</time>
      </trkpt>
      <trkpt lat="44.25262" lon="2.97014">
        <ele>940.3</ele>
        <time>2023-06-25T10:28:23Z</time>
      </trkpt>
      <trkpt lat="44.25265" lon="2.97012">
        <ele>940.3</ele>
        <time>2023-06-25T10:28:24Z</time>
      </trkpt>
      <trkpt lat="44.25268" lon="2.9701">
        <ele>940.5</ele>
        <time>2023-06-25T10:28:26Z</time>
      </trkpt>
      <trkpt lat="44.25271" lon="2.97007">
        <ele>940.5</ele>
        <time>2023-06-25T10:28:27Z</time>
      </trkpt>
      <trkpt lat="44.25272" lon="2.97007">
        <ele>940.6</ele>
        <time>2023-06-25T10:28:28Z</time>
      </trkpt>
      <trkpt lat="44.25276" lon="2.97008">
        <ele>940.7</ele>
        <time>2023-06-25T10:28:29Z</time>
      </trkpt>
      <trkpt lat="44.25277" lon="2.97009">
        <ele>940.5</ele>
        <time>2023-06-25T10:28:30Z</time>
      </trkpt>
      <trkpt lat="44.25279" lon="2.97015">
        <ele>940.3</ele>
        <time>2023-06-25T10:28:31Z</time>
      </trkpt>
      <trkpt lat="44.2528" lon="2.9702">
        <ele>940.2</ele>
        <time>2023-06-25T10:28:32Z</time>
      </trkpt>
      <trkpt lat="44.25282" lon="2.97024">
        <ele>940.1</ele>
        <time>2023-06-25T10:28:33Z</time>
      </trkpt>
      <trkpt lat="44.25284" lon="2.97031">
        <ele>939.9</ele>
        <time>2023-06-25T10:28:35Z</time>
      </trkpt>
      <trkpt lat="44.25286" lon="2.97037">
        <ele>939.7</ele>
        <time>2023-06-25T10:28:36Z</time>
      </trkpt>
      <trkpt lat="44.25288" lon="2.97043">
        <ele>939.6</ele>
        <time>2023-06-25T10:28:37Z</time>
      </trkpt>
      <trkpt lat="44.2529" lon="2.97048">
        <ele>939.4</ele>
        <time>2023-06-25T10:28:38Z</time>
      </trkpt>
      <trkpt lat="44.25292" lon="2.97055">
        <ele>939.3</ele>
        <time>2023-06-25T10:28:40Z</time>
      </trkpt>
      <trkpt lat="44.25294" lon="2.97063">
        <ele>939</ele>
        <time>2023-06-25T10:28:41Z</time>
      </trkpt>
      <trkpt lat="44.25297" lon="2.97069">
        <ele>938.9</ele>
        <time>2023-06-25T10:28:42Z</time>
      </trkpt>
      <trkpt lat="44.25299" lon="2.97075">
        <ele>938.7</ele>
        <time>2023-06-25T10:28:43Z</time>
      </trkpt>
      <trkpt lat="44.25301" lon="2.97081">
        <ele>938.5</ele>
        <time>2023-06-25T10:28:44Z</time>
      </trkpt>
      <trkpt lat="44.25302" lon="2.97088">
        <ele>938.4</ele>
        <time>2023-06-25T10:28:45Z</time>
      </trkpt>
      <trkpt lat="44.25304" lon="2.97095">
        <ele>938.2</ele>
        <time>2023-06-25T10:28:46Z</time>
      </trkpt>
      <trkpt lat="44.25306" lon="2.97102">
        <ele>938</ele>
        <time>2023-06-25T10:28:47Z</time>
      </trkpt>
      <trkpt lat="44.25309" lon="2.97109">
        <ele>937.8</ele>
        <time>2023-06-25T10:28:48Z</time>
      </trkpt>
      <trkpt lat="44.25311" lon="2.97116">
        <ele>937.6</ele>
        <time>2023-06-25T10:28:49Z</time>
      </trkpt>
      <trkpt lat="44.25314" lon="2.97122">
        <ele>937.4</ele>
        <time>2023-06-25T10:28:50Z</time>
      </trkpt>
      <trkpt lat="44.25317" lon="2.97128">
        <ele>937.2</ele>
        <time>2023-06-25T10:28:51Z</time>
      </trkpt>
      <trkpt lat="44.25321" lon="2.97134">
        <ele>937</ele>
        <time>2023-06-25T10:28:52Z</time>
      </trkpt>
      <trkpt lat="44.25325" lon="2.97141">
        <ele>936.8</ele>
        <time>2023-06-25T10:28:53Z</time>
      </trkpt>
      <trkpt lat="44.25328" lon="2.97147">
        <ele>936.6</ele>
        <time>2023-06-25T10:28:54Z</time>
      </trkpt>
      <trkpt lat="44.25332" lon="2.97153">
        <ele>936.4</ele>
        <time>2023-06-25T10:28:55Z</time>
      </trkpt>
      <trkpt lat="44.25335" lon="2.9716">
        <ele>936.2</ele>
        <time>2023-06-25T10:28:56Z</time>
      </trkpt>
      <trkpt lat="44.25338" lon="2.97166">
        <ele>936.1</ele>
        <time>2023-06-25T10:28:57Z</time>
      </trkpt>
      <trkpt lat="44.25341" lon="2.97173">
        <ele>935.9</ele>
        <time>2023-06-25T10:28:58Z</time>
      </trkpt>
      <trkpt lat="44.25344" lon="2.9718">
        <ele>935.7</ele>
        <time>2023-06-25T10:28:59Z</time>
      </trkpt>
      <trkpt lat="44.25347" lon="2.97186">
        <ele>935.5</ele>
        <time>2023-06-25T10:29:00Z</time>
      </trkpt>
      <trkpt lat="44.25348" lon="2.9719">
        <ele>935.4</ele>
        <time>2023-06-25T10:29:01Z</time>
      </trkpt>
      <trkpt lat="44.2535" lon="2.97197">
        <ele>935.2</ele>
        <time>2023-06-25T10:29:02Z</time>
      </trkpt>
      <trkpt lat="44.25351" lon="2.972">
        <ele>935.1</ele>
        <time>2023-06-25T10:29:03Z</time>
      </trkpt>
      <trkpt lat="44.25353" lon="2.97207">
        <ele>934.9</ele>
        <time>2023-06-25T10:29:04Z</time>
      </trkpt>
      <trkpt lat="44.25353" lon="2.97214">
        <ele>934.8</ele>
        <time>2023-06-25T10:29:05Z</time>
      </trkpt>
      <trkpt lat="44.25354" lon="2.97221">
        <ele>934.6</ele>
        <time>2023-06-25T10:29:06Z</time>
      </trkpt>
      <trkpt lat="44.25355" lon="2.97228">
        <ele>934.4</ele>
        <time>2023-06-25T10:29:07Z</time>
      </trkpt>
      <trkpt lat="44.25355" lon="2.97235">
        <ele>934.2</ele>
        <time>2023-06-25T10:29:08Z</time>
      </trkpt>
      <trkpt lat="44.25356" lon="2.97242">
        <ele>934.1</ele>
        <time>2023-06-25T10:29:09Z</time>
      </trkpt>
      <trkpt lat="44.25355" lon="2.97248">
        <ele>933.9</ele>
        <time>2023-06-25T10:29:10Z</time>
      </trkpt>
      <trkpt lat="44.25356" lon="2.97255">
        <ele>933.7</ele>
        <time>2023-06-25T10:29:11Z</time>
      </trkpt>
      <trkpt lat="44.25356" lon="2.97262">
        <ele>933.6</ele>
        <time>2023-06-25T10:29:13Z</time>
      </trkpt>
      <trkpt lat="44.25355" lon="2.9727">
        <ele>933.4</ele>
        <time>2023-06-25T10:29:14Z</time>
      </trkpt>
      <trkpt lat="44.25355" lon="2.97278">
        <ele>933.2</ele>
        <time>2023-06-25T10:29:15Z</time>
      </trkpt>
      <trkpt lat="44.25355" lon="2.97286">
        <ele>933</ele>
        <time>2023-06-25T10:29:16Z</time>
      </trkpt>
      <trkpt lat="44.25354" lon="2.97291">
        <ele>932.8</ele>
        <time>2023-06-25T10:29:17Z</time>
      </trkpt>
      <trkpt lat="44.25354" lon="2.97297">
        <ele>932.7</ele>
        <time>2023-06-25T10:29:18Z</time>
      </trkpt>
      <trkpt lat="44.25353" lon="2.97304">
        <ele>932.6</ele>
        <time>2023-06-25T10:29:20Z</time>
      </trkpt>
      <trkpt lat="44.25352" lon="2.97309">
        <ele>932.4</ele>
        <time>2023-06-25T10:29:21Z</time>
      </trkpt>
      <trkpt lat="44.2535" lon="2.97314">
        <ele>932.3</ele>
        <time>2023-06-25T10:29:22Z</time>
      </trkpt>
      <trkpt lat="44.25349" lon="2.9732">
        <ele>932.1</ele>
        <time>2023-06-25T10:29:23Z</time>
      </trkpt>
      <trkpt lat="44.25347" lon="2.97328">
        <ele>931.8</ele>
        <time>2023-06-25T10:29:24Z</time>
      </trkpt>
      <trkpt lat="44.25343" lon="2.97341">
        <ele>931.4</ele>
        <time>2023-06-25T10:29:26Z</time>
      </trkpt>
      <trkpt lat="44.25341" lon="2.97348">
        <ele>931.2</ele>
        <time>2023-06-25T10:29:27Z</time>
      </trkpt>
      <trkpt lat="44.25339" lon="2.97356">
        <ele>930.9</ele>
        <time>2023-06-25T10:29:28Z</time>
      </trkpt>
      <trkpt lat="44.25337" lon="2.97363">
        <ele>930.7</ele>
        <time>2023-06-25T10:29:29Z</time>
      </trkpt>
      <trkpt lat="44.25335" lon="2.97371">
        <ele>930.4</ele>
        <time>2023-06-25T10:29:30Z</time>
      </trkpt>
      <trkpt lat="44.25333" lon="2.97378">
        <ele>930.2</ele>
        <time>2023-06-25T10:29:31Z</time>
      </trkpt>
      <trkpt lat="44.25331" lon="2.97385">
        <ele>930</ele>
        <time>2023-06-25T10:29:32Z</time>
      </trkpt>
      <trkpt lat="44.2533" lon="2.97392">
        <ele>929.7</ele>
        <time>2023-06-25T10:29:33Z</time>
      </trkpt>
      <trkpt lat="44.25328" lon="2.97398">
        <ele>929.5</ele>
        <time>2023-06-25T10:29:34Z</time>
      </trkpt>
      <trkpt lat="44.25326" lon="2.97405">
        <ele>929.3</ele>
        <time>2023-06-25T10:29:35Z</time>
      </trkpt>
      <trkpt lat="44.25324" lon="2.97411">
        <ele>929.1</ele>
        <time>2023-06-25T10:29:36Z</time>
      </trkpt>
      <trkpt lat="44.25323" lon="2.97417">
        <ele>928.9</ele>
        <time>2023-06-25T10:29:37Z</time>
      </trkpt>
      <trkpt lat="44.25321" lon="2.97424">
        <ele>928.7</ele>
        <time>2023-06-25T10:29:38Z</time>
      </trkpt>
      <trkpt lat="44.25319" lon="2.97431">
        <ele>928.5</ele>
        <time>2023-06-25T10:29:39Z</time>
      </trkpt>
      <trkpt lat="44.25317" lon="2.97437">
        <ele>928.3</ele>
        <time>2023-06-25T10:29:40Z</time>
      </trkpt>
      <trkpt lat="44.25316" lon="2.97444">
        <ele>928.1</ele>
        <time>2023-06-25T10:29:41Z</time>
      </trkpt>
      <trkpt lat="44.25315" lon="2.97452">
        <ele>927.8</ele>
        <time>2023-06-25T10:29:42Z</time>
      </trkpt>
      <trkpt lat="44.25314" lon="2.9746">
        <ele>927.6</ele>
        <time>2023-06-25T10:29:43Z</time>
      </trkpt>
      <trkpt lat="44.25312" lon="2.97468">
        <ele>927.3</ele>
        <time>2023-06-25T10:29:44Z</time>
      </trkpt>
      <trkpt lat="44.25311" lon="2.97476">
        <ele>927.1</ele>
        <time>2023-06-25T10:29:45Z</time>
      </trkpt>
      <trkpt lat="44.25311" lon="2.97484">
        <ele>926.8</ele>
        <time>2023-06-25T10:29:46Z</time>
      </trkpt>
      <trkpt lat="44.2531" lon="2.97494">
        <ele>926.5</ele>
        <time>2023-06-25T10:29:47Z</time>
      </trkpt>
      <trkpt lat="44.2531" lon="2.97503">
        <ele>926.3</ele>
        <time>2023-06-25T10:29:48Z</time>
      </trkpt>
      <trkpt lat="44.2531" lon="2.97513">
        <ele>926</ele>
        <time>2023-06-25T10:29:49Z</time>
      </trkpt>
      <trkpt lat="44.2531" lon="2.97524">
        <ele>925.6</ele>
        <time>2023-06-25T10:29:50Z</time>
      </trkpt>
      <trkpt lat="44.25311" lon="2.97535">
        <ele>925.3</ele>
        <time>2023-06-25T10:29:51Z</time>
      </trkpt>
      <trkpt lat="44.25311" lon="2.97547">
        <ele>924.9</ele>
        <time>2023-06-25T10:29:52Z</time>
      </trkpt>
      <trkpt lat="44.25312" lon="2.9756">
        <ele>924.5</ele>
        <time>2023-06-25T10:29:53Z</time>
      </trkpt>
      <trkpt lat="44.25312" lon="2.97573">
        <ele>924.2</ele>
        <time>2023-06-25T10:29:54Z</time>
      </trkpt>
      <trkpt lat="44.25313" lon="2.97586">
        <ele>923.8</ele>
        <time>2023-06-25T10:29:55Z</time>
      </trkpt>
      <trkpt lat="44.25314" lon="2.97599">
        <ele>923.4</ele>
        <time>2023-06-25T10:29:56Z</time>
      </trkpt>
      <trkpt lat="44.25315" lon="2.97612">
        <ele>923</ele>
        <time>2023-06-25T10:29:57Z</time>
      </trkpt>
      <trkpt lat="44.25316" lon="2.97625">
        <ele>922.6</ele>
        <time>2023-06-25T10:29:58Z</time>
      </trkpt>
      <trkpt lat="44.25317" lon="2.97638">
        <ele>922.2</ele>
        <time>2023-06-25T10:29:59Z</time>
      </trkpt>
      <trkpt lat="44.25318" lon="2.97651">
        <ele>921.8</ele>
        <time>2023-06-25T10:30:00Z</time>
      </trkpt>
      <trkpt lat="44.25319" lon="2.97664">
        <ele>921.4</ele>
        <time>2023-06-25T10:30:01Z</time>
      </trkpt>
      <trkpt lat="44.2532" lon="2.97677">
        <ele>921</ele>
        <time>2023-06-25T10:30:02Z</time>
      </trkpt>
      <trkpt lat="44.25321" lon="2.97691">
        <ele>920.6</ele>
        <time>2023-06-25T10:30:03Z</time>
      </trkpt>
      <trkpt lat="44.25321" lon="2.97704">
        <ele>920.2</ele>
        <time>2023-06-25T10:30:04Z</time>
      </trkpt>
      <trkpt lat="44.25322" lon="2.97718">
        <ele>919.8</ele>
        <time>2023-06-25T10:30:05Z</time>
      </trkpt>
      <trkpt lat="44.25322" lon="2.97732">
        <ele>919.3</ele>
        <time>2023-06-25T10:30:06Z</time>
      </trkpt>
      <trkpt lat="44.25322" lon="2.97746">
        <ele>918.9</ele>
        <time>2023-06-25T10:30:07Z</time>
      </trkpt>
      <trkpt lat="44.25322" lon="2.9776">
        <ele>918.5</ele>
        <time>2023-06-25T10:30:08Z</time>
      </trkpt>
      <trkpt lat="44.25322" lon="2.97774">
        <ele>918</ele>
        <time>2023-06-25T10:30:09Z</time>
      </trkpt>
      <trkpt lat="44.25322" lon="2.97788">
        <ele>917.6</ele>
        <time>2023-06-25T10:30:10Z</time>
      </trkpt>
      <trkpt lat="44.25321" lon="2.97802">
        <ele>917.2</ele>
        <time>2023-06-25T10:30:11Z</time>
      </trkpt>
      <trkpt lat="44.25321" lon="2.97816">
        <ele>916.8</ele>
        <time>2023-06-25T10:30:12Z</time>
      </trkpt>
      <trkpt lat="44.25321" lon="2.9783">
        <ele>916.4</ele>
        <time>2023-06-25T10:30:13Z</time>
      </trkpt>
      <trkpt lat="44.25321" lon="2.97844">
        <ele>915.9</ele>
        <time>2023-06-25T10:30:14Z</time>
      </trkpt>
      <trkpt lat="44.25323" lon="2.97857">
        <ele>915.5</ele>
        <time>2023-06-25T10:30:15Z</time>
      </trkpt>
      <trkpt lat="44.25324" lon="2.97871">
        <ele>915.1</ele>
        <time>2023-06-25T10:30:16Z</time>
      </trkpt>
      <trkpt lat="44.25325" lon="2.97884">
        <ele>914.7</ele>
        <time>2023-06-25T10:30:17Z</time>
      </trkpt>
      <trkpt lat="44.25327" lon="2.97897">
        <ele>914.3</ele>
        <time>2023-06-25T10:30:18Z</time>
      </trkpt>
      <trkpt lat="44.25329" lon="2.9791">
        <ele>913.9</ele>
        <time>2023-06-25T10:30:19Z</time>
      </trkpt>
      <trkpt lat="44.25332" lon="2.97923">
        <ele>913.5</ele>
        <time>2023-06-25T10:30:20Z</time>
      </trkpt>
      <trkpt lat="44.25335" lon="2.97935">
        <ele>913.1</ele>
        <time>2023-06-25T10:30:21Z</time>
      </trkpt>
      <trkpt lat="44.25338" lon="2.97948">
        <ele>912.7</ele>
        <time>2023-06-25T10:30:22Z</time>
      </trkpt>
      <trkpt lat="44.25341" lon="2.9796">
        <ele>912.3</ele>
        <time>2023-06-25T10:30:23Z</time>
      </trkpt>
      <trkpt lat="44.25345" lon="2.97972">
        <ele>911.9</ele>
        <time>2023-06-25T10:30:24Z</time>
      </trkpt>
      <trkpt lat="44.25349" lon="2.97984">
        <ele>911.5</ele>
        <time>2023-06-25T10:30:25Z</time>
      </trkpt>
      <trkpt lat="44.25356" lon="2.97995">
        <ele>911.1</ele>
        <time>2023-06-25T10:30:26Z</time>
      </trkpt>
      <trkpt lat="44.25363" lon="2.98006">
        <ele>910.7</ele>
        <time>2023-06-25T10:30:27Z</time>
      </trkpt>
      <trkpt lat="44.2537" lon="2.98016">
        <ele>910.2</ele>
        <time>2023-06-25T10:30:28Z</time>
      </trkpt>
      <trkpt lat="44.25376" lon="2.98026">
        <ele>909.8</ele>
        <time>2023-06-25T10:30:29Z</time>
      </trkpt>
      <trkpt lat="44.25382" lon="2.98035">
        <ele>909.5</ele>
        <time>2023-06-25T10:30:30Z</time>
      </trkpt>
      <trkpt lat="44.25387" lon="2.98043">
        <ele>909.1</ele>
        <time>2023-06-25T10:30:31Z</time>
      </trkpt>
      <trkpt lat="44.25392" lon="2.9805">
        <ele>908.9</ele>
        <time>2023-06-25T10:30:32Z</time>
      </trkpt>
      <trkpt lat="44.25396" lon="2.98058">
        <ele>908.8</ele>
        <time>2023-06-25T10:30:33Z</time>
      </trkpt>
      <trkpt lat="44.254" lon="2.98064">
        <ele>908.7</ele>
        <time>2023-06-25T10:30:34Z</time>
      </trkpt>
      <trkpt lat="44.25404" lon="2.9807">
        <ele>908.6</ele>
        <time>2023-06-25T10:30:35Z</time>
      </trkpt>
      <trkpt lat="44.25407" lon="2.98074">
        <ele>908.5</ele>
        <time>2023-06-25T10:30:36Z</time>
      </trkpt>
      <trkpt lat="44.2541" lon="2.98079">
        <ele>908.5</ele>
        <time>2023-06-25T10:30:37Z</time>
      </trkpt>
      <trkpt lat="44.25413" lon="2.98085">
        <ele>908.5</ele>
        <time>2023-06-25T10:30:38Z</time>
      </trkpt>
      <trkpt lat="44.25414" lon="2.98092">
        <ele>908.5</ele>
        <time>2023-06-25T10:30:39Z</time>
      </trkpt>
      <trkpt lat="44.25416" lon="2.98099">
        <ele>908.6</ele>
        <time>2023-06-25T10:30:40Z</time>
      </trkpt>
      <trkpt lat="44.25418" lon="2.98105">
        <ele>908.6</ele>
        <time>2023-06-25T10:30:41Z</time>
      </trkpt>
      <trkpt lat="44.2542" lon="2.98111">
        <ele>908.7</ele>
        <time>2023-06-25T10:30:42Z</time>
      </trkpt>
      <trkpt lat="44.25422" lon="2.98116">
        <ele>908.8</ele>
        <time>2023-06-25T10:30:43Z</time>
      </trkpt>
      <trkpt lat="44.25424" lon="2.98122">
        <ele>908.9</ele>
        <time>2023-06-25T10:30:44Z</time>
      </trkpt>
      <trkpt lat="44.25427" lon="2.98128">
        <ele>909</ele>
        <time>2023-06-25T10:30:45Z</time>
      </trkpt>
      <trkpt lat="44.25429" lon="2.98134">
        <ele>909.1</ele>
        <time>2023-06-25T10:30:46Z</time>
      </trkpt>
      <trkpt lat="44.25431" lon="2.9814">
        <ele>909.1</ele>
        <time>2023-06-25T10:30:47Z</time>
      </trkpt>
      <trkpt lat="44.25433" lon="2.98146">
        <ele>909.1</ele>
        <time>2023-06-25T10:30:48Z</time>
      </trkpt>
      <trkpt lat="44.25436" lon="2.98151">
        <ele>909.1</ele>
        <time>2023-06-25T10:30:49Z</time>
      </trkpt>
      <trkpt lat="44.25438" lon="2.98156">
        <ele>909.1</ele>
        <time>2023-06-25T10:30:50Z</time>
      </trkpt>
      <trkpt lat="44.25441" lon="2.98161">
        <ele>909.1</ele>
        <time>2023-06-25T10:30:51Z</time>
      </trkpt>
      <trkpt lat="44.25444" lon="2.98165">
        <ele>909.1</ele>
        <time>2023-06-25T10:30:52Z</time>
      </trkpt>
      <trkpt lat="44.25448" lon="2.98168">
        <ele>909.1</ele>
        <time>2023-06-25T10:30:53Z</time>
      </trkpt>
      <trkpt lat="44.25451" lon="2.9817">
        <ele>909.1</ele>
        <time>2023-06-25T10:30:54Z</time>
      </trkpt>
      <trkpt lat="44.25457" lon="2.98173">
        <ele>909.1</ele>
        <time>2023-06-25T10:30:55Z</time>
      </trkpt>
      <trkpt lat="44.25462" lon="2.98175">
        <ele>909.2</ele>
        <time>2023-06-25T10:30:56Z</time>
      </trkpt>
      <trkpt lat="44.25468" lon="2.98177">
        <ele>909.2</ele>
        <time>2023-06-25T10:30:57Z</time>
      </trkpt>
      <trkpt lat="44.25473" lon="2.98177">
        <ele>909.2</ele>
        <time>2023-06-25T10:30:58Z</time>
      </trkpt>
      <trkpt lat="44.25479" lon="2.98178">
        <ele>909.3</ele>
        <time>2023-06-25T10:30:59Z</time>
      </trkpt>
      <trkpt lat="44.25484" lon="2.98178">
        <ele>909.3</ele>
        <time>2023-06-25T10:31:00Z</time>
      </trkpt>
      <trkpt lat="44.2549" lon="2.98178">
        <ele>909.3</ele>
        <time>2023-06-25T10:31:01Z</time>
      </trkpt>
      <trkpt lat="44.25496" lon="2.98179">
        <ele>909.4</ele>
        <time>2023-06-25T10:31:02Z</time>
      </trkpt>
      <trkpt lat="44.25502" lon="2.98179">
        <ele>909.4</ele>
        <time>2023-06-25T10:31:03Z</time>
      </trkpt>
      <trkpt lat="44.25507" lon="2.9818">
        <ele>909.4</ele>
        <time>2023-06-25T10:31:04Z</time>
      </trkpt>
      <trkpt lat="44.25512" lon="2.98181">
        <ele>909.4</ele>
        <time>2023-06-25T10:31:05Z</time>
      </trkpt>
      <trkpt lat="44.25518" lon="2.98181">
        <ele>909.4</ele>
        <time>2023-06-25T10:31:06Z</time>
      </trkpt>
      <trkpt lat="44.25523" lon="2.98182">
        <ele>909.4</ele>
        <time>2023-06-25T10:31:07Z</time>
      </trkpt>
      <trkpt lat="44.25528" lon="2.98182">
        <ele>909.4</ele>
        <time>2023-06-25T10:31:08Z</time>
      </trkpt>
      <trkpt lat="44.25533" lon="2.98182">
        <ele>909.4</ele>
        <time>2023-06-25T10:31:09Z</time>
      </trkpt>
      <trkpt lat="44.25539" lon="2.98183">
        <ele>909.5</ele>
        <time>2023-06-25T10:31:10Z</time>
      </trkpt>
      <trkpt lat="44.25544" lon="2.98183">
        <ele>909.5</ele>
        <time>2023-06-25T10:31:11Z</time>
      </trkpt>
      <trkpt lat="44.2555" lon="2.98184">
        <ele>909.5</ele>
        <time>2023-06-25T10:31:12Z</time>
      </trkpt>
      <trkpt lat="44.25555" lon="2.98184">
        <ele>909.5</ele>
        <time>2023-06-25T10:31:13Z</time>
      </trkpt>
      <trkpt lat="44.2556" lon="2.98184">
        <ele>909.5</ele>
        <time>2023-06-25T10:31:14Z</time>
      </trkpt>
      <trkpt lat="44.25565" lon="2.98185">
        <ele>909.6</ele>
        <time>2023-06-25T10:31:15Z</time>
      </trkpt>
      <trkpt lat="44.2557" lon="2.98186">
        <ele>909.6</ele>
        <time>2023-06-25T10:31:16Z</time>
      </trkpt>
      <trkpt lat="44.25574" lon="2.98186">
        <ele>909.6</ele>
        <time>2023-06-25T10:31:17Z</time>
      </trkpt>
      <trkpt lat="44.25579" lon="2.98186">
        <ele>909.6</ele>
        <time>2023-06-25T10:31:18Z</time>
      </trkpt>
      <trkpt lat="44.25584" lon="2.98186">
        <ele>909.6</ele>
        <time>2023-06-25T10:31:19Z</time>
      </trkpt>
      <trkpt lat="44.25589" lon="2.98186">
        <ele>909.7</ele>
        <time>2023-06-25T10:31:20Z</time>
      </trkpt>
      <trkpt lat="44.25593" lon="2.98186">
        <ele>909.7</ele>
        <time>2023-06-25T10:31:21Z</time>
      </trkpt>
      <trkpt lat="44.25599" lon="2.98186">
        <ele>909.8</ele>
        <time>2023-06-25T10:31:22Z</time>
      </trkpt>
      <trkpt lat="44.25604" lon="2.98187">
        <ele>909.8</ele>
        <time>2023-06-25T10:31:23Z</time>
      </trkpt>
      <trkpt lat="44.25609" lon="2.98187">
        <ele>909.9</ele>
        <time>2023-06-25T10:31:24Z</time>
      </trkpt>
      <trkpt lat="44.25614" lon="2.98187">
        <ele>910</ele>
        <time>2023-06-25T10:31:25Z</time>
      </trkpt>
      <trkpt lat="44.2562" lon="2.98188">
        <ele>910.1</ele>
        <time>2023-06-25T10:31:26Z</time>
      </trkpt>
      <trkpt lat="44.25625" lon="2.98189">
        <ele>910.2</ele>
        <time>2023-06-25T10:31:27Z</time>
      </trkpt>
      <trkpt lat="44.25631" lon="2.98189">
        <ele>910.3</ele>
        <time>2023-06-25T10:31:28Z</time>
      </trkpt>
      <trkpt lat="44.25636" lon="2.98189">
        <ele>910.5</ele>
        <time>2023-06-25T10:31:29Z</time>
      </trkpt>
      <trkpt lat="44.25641" lon="2.98189">
        <ele>910.6</ele>
        <time>2023-06-25T10:31:30Z</time>
      </trkpt>
      <trkpt lat="44.25646" lon="2.9819">
        <ele>910.8</ele>
        <time>2023-06-25T10:31:31Z</time>
      </trkpt>
      <trkpt lat="44.25651" lon="2.9819">
        <ele>911</ele>
        <time>2023-06-25T10:31:32Z</time>
      </trkpt>
      <trkpt lat="44.25656" lon="2.9819">
        <ele>911.1</ele>
        <time>2023-06-25T10:31:33Z</time>
      </trkpt>
      <trkpt lat="44.2566" lon="2.98191">
        <ele>911.2</ele>
        <time>2023-06-25T10:31:34Z</time>
      </trkpt>
      <trkpt lat="44.25664" lon="2.98191">
        <ele>911.4</ele>
        <time>2023-06-25T10:31:35Z</time>
      </trkpt>
      <trkpt lat="44.25669" lon="2.98192">
        <ele>911.5</ele>
        <time>2023-06-25T10:31:36Z</time>
      </trkpt>
      <trkpt lat="44.25675" lon="2.98192">
        <ele>911.7</ele>
        <time>2023-06-25T10:31:37Z</time>
      </trkpt>
      <trkpt lat="44.2568" lon="2.98193">
        <ele>911.9</ele>
        <time>2023-06-25T10:31:38Z</time>
      </trkpt>
      <trkpt lat="44.25685" lon="2.98193">
        <ele>912</ele>
        <time>2023-06-25T10:31:39Z</time>
      </trkpt>
      <trkpt lat="44.2569" lon="2.98194">
        <ele>912.1</ele>
        <time>2023-06-25T10:31:40Z</time>
      </trkpt>
      <trkpt lat="44.25695" lon="2.98195">
        <ele>912.3</ele>
        <time>2023-06-25T10:31:42Z</time>
      </trkpt>
      <trkpt lat="44.25701" lon="2.98195">
        <ele>912.4</ele>
        <time>2023-06-25T10:31:43Z</time>
      </trkpt>
      <trkpt lat="44.25706" lon="2.98195">
        <ele>912.6</ele>
        <time>2023-06-25T10:31:44Z</time>
      </trkpt>
      <trkpt lat="44.25714" lon="2.98196">
        <ele>912.8</ele>
        <time>2023-06-25T10:31:46Z</time>
      </trkpt>
      <trkpt lat="44.25719" lon="2.98197">
        <ele>912.8</ele>
        <time>2023-06-25T10:31:47Z</time>
      </trkpt>
      <trkpt lat="44.25725" lon="2.982">
        <ele>912.9</ele>
        <time>2023-06-25T10:31:48Z</time>
      </trkpt>
      <trkpt lat="44.25733" lon="2.98204">
        <ele>912.9</ele>
        <time>2023-06-25T10:31:50Z</time>
      </trkpt>
      <trkpt lat="44.25738" lon="2.98207">
        <ele>912.9</ele>
        <time>2023-06-25T10:31:51Z</time>
      </trkpt>
      <trkpt lat="44.25744" lon="2.98211">
        <ele>912.8</ele>
        <time>2023-06-25T10:31:52Z</time>
      </trkpt>
      <trkpt lat="44.25749" lon="2.98215">
        <ele>912.6</ele>
        <time>2023-06-25T10:31:53Z</time>
      </trkpt>
      <trkpt lat="44.25753" lon="2.98218">
        <ele>912.4</ele>
        <time>2023-06-25T10:31:54Z</time>
      </trkpt>
      <trkpt lat="44.25758" lon="2.98223">
        <ele>912.2</ele>
        <time>2023-06-25T10:31:55Z</time>
      </trkpt>
      <trkpt lat="44.25764" lon="2.98227">
        <ele>912</ele>
        <time>2023-06-25T10:31:56Z</time>
      </trkpt>
      <trkpt lat="44.25769" lon="2.98233">
        <ele>911.8</ele>
        <time>2023-06-25T10:31:57Z</time>
      </trkpt>
      <trkpt lat="44.25775" lon="2.98238">
        <ele>911.5</ele>
        <time>2023-06-25T10:31:58Z</time>
      </trkpt>
      <trkpt lat="44.2578" lon="2.98244">
        <ele>911.3</ele>
        <time>2023-06-25T10:31:59Z</time>
      </trkpt>
      <trkpt lat="44.25786" lon="2.9825">
        <ele>911</ele>
        <time>2023-06-25T10:32:00Z</time>
      </trkpt>
      <trkpt lat="44.25791" lon="2.98256">
        <ele>910.8</ele>
        <time>2023-06-25T10:32:01Z</time>
      </trkpt>
      <trkpt lat="44.25796" lon="2.98263">
        <ele>910.6</ele>
        <time>2023-06-25T10:32:02Z</time>
      </trkpt>
      <trkpt lat="44.25801" lon="2.98269">
        <ele>910.3</ele>
        <time>2023-06-25T10:32:03Z</time>
      </trkpt>
      <trkpt lat="44.25806" lon="2.98275">
        <ele>910.1</ele>
        <time>2023-06-25T10:32:04Z</time>
      </trkpt>
      <trkpt lat="44.25811" lon="2.98281">
        <ele>909.8</ele>
        <time>2023-06-25T10:32:05Z</time>
      </trkpt>
      <trkpt lat="44.25817" lon="2.98288">
        <ele>909.5</ele>
        <time>2023-06-25T10:32:06Z</time>
      </trkpt>
      <trkpt lat="44.25822" lon="2.98294">
        <ele>909.2</ele>
        <time>2023-06-25T10:32:07Z</time>
      </trkpt>
      <trkpt lat="44.25828" lon="2.98301">
        <ele>908.8</ele>
        <time>2023-06-25T10:32:08Z</time>
      </trkpt>
      <trkpt lat="44.25833" lon="2.98308">
        <ele>908.5</ele>
        <time>2023-06-25T10:32:09Z</time>
      </trkpt>
      <trkpt lat="44.25839" lon="2.98314">
        <ele>908.2</ele>
        <time>2023-06-25T10:32:10Z</time>
      </trkpt>
      <trkpt lat="44.25845" lon="2.98321">
        <ele>907.9</ele>
        <time>2023-06-25T10:32:11Z</time>
      </trkpt>
      <trkpt lat="44.2585" lon="2.98328">
        <ele>907.6</ele>
        <time>2023-06-25T10:32:12Z</time>
      </trkpt>
      <trkpt lat="44.25856" lon="2.98334">
        <ele>907.3</ele>
        <time>2023-06-25T10:32:13Z</time>
      </trkpt>
      <trkpt lat="44.25862" lon="2.98341">
        <ele>906.9</ele>
        <time>2023-06-25T10:32:14Z</time>
      </trkpt>
      <trkpt lat="44.25868" lon="2.98348">
        <ele>906.5</ele>
        <time>2023-06-25T10:32:15Z</time>
      </trkpt>
      <trkpt lat="44.25874" lon="2.98355">
        <ele>906.2</ele>
        <time>2023-06-25T10:32:16Z</time>
      </trkpt>
      <trkpt lat="44.2588" lon="2.98362">
        <ele>905.7</ele>
        <time>2023-06-25T10:32:17Z</time>
      </trkpt>
      <trkpt lat="44.25886" lon="2.9837">
        <ele>905.3</ele>
        <time>2023-06-25T10:32:18Z</time>
      </trkpt>
      <trkpt lat="44.25893" lon="2.98377">
        <ele>904.7</ele>
        <time>2023-06-25T10:32:19Z</time>
      </trkpt>
      <trkpt lat="44.25899" lon="2.98385">
        <ele>904.2</ele>
        <time>2023-06-25T10:32:20Z</time>
      </trkpt>
      <trkpt lat="44.25906" lon="2.98394">
        <ele>903.6</ele>
        <time>2023-06-25T10:32:21Z</time>
      </trkpt>
      <trkpt lat="44.25913" lon="2.98402">
        <ele>903.1</ele>
        <time>2023-06-25T10:32:22Z</time>
      </trkpt>
      <trkpt lat="44.2592" lon="2.98411">
        <ele>902.5</ele>
        <time>2023-06-25T10:32:23Z</time>
      </trkpt>
      <trkpt lat="44.25926" lon="2.98421">
        <ele>901.9</ele>
        <time>2023-06-25T10:32:24Z</time>
      </trkpt>
      <trkpt lat="44.25932" lon="2.98432">
        <ele>901.4</ele>
        <time>2023-06-25T10:32:25Z</time>
      </trkpt>
      <trkpt lat="44.25937" lon="2.98444">
        <ele>900.8</ele>
        <time>2023-06-25T10:32:26Z</time>
      </trkpt>
      <trkpt lat="44.25942" lon="2.98456">
        <ele>900.2</ele>
        <time>2023-06-25T10:32:27Z</time>
      </trkpt>
      <trkpt lat="44.25948" lon="2.98468">
        <ele>899.7</ele>
        <time>2023-06-25T10:32:28Z</time>
      </trkpt>
      <trkpt lat="44.25954" lon="2.98479">
        <ele>899.2</ele>
        <time>2023-06-25T10:32:29Z</time>
      </trkpt>
      <trkpt lat="44.2596" lon="2.9849">
        <ele>898.8</ele>
        <time>2023-06-25T10:32:30Z</time>
      </trkpt>
      <trkpt lat="44.25967" lon="2.985">
        <ele>898.3</ele>
        <time>2023-06-25T10:32:31Z</time>
      </trkpt>
      <trkpt lat="44.25975" lon="2.9851">
        <ele>898</ele>
        <time>2023-06-25T10:32:32Z</time>
      </trkpt>
      <trkpt lat="44.25982" lon="2.98519">
        <ele>897.7</ele>
        <time>2023-06-25T10:32:33Z</time>
      </trkpt>
      <trkpt lat="44.2599" lon="2.98528">
        <ele>897.4</ele>
        <time>2023-06-25T10:32:34Z</time>
      </trkpt>
      <trkpt lat="44.25998" lon="2.98535">
        <ele>897.1</ele>
        <time>2023-06-25T10:32:35Z</time>
      </trkpt>
      <trkpt lat="44.26007" lon="2.98541">
        <ele>897</ele>
        <time>2023-06-25T10:32:36Z</time>
      </trkpt>
      <trkpt lat="44.26016" lon="2.98545">
        <ele>897</ele>
        <time>2023-06-25T10:32:37Z</time>
      </trkpt>
      <trkpt lat="44.26025" lon="2.98548">
        <ele>896.9</ele>
        <time>2023-06-25T10:32:38Z</time>
      </trkpt>
      <trkpt lat="44.26035" lon="2.98549">
        <ele>896.9</ele>
        <time>2023-06-25T10:32:39Z</time>
      </trkpt>
      <trkpt lat="44.26044" lon="2.98549">
        <ele>897</ele>
        <time>2023-06-25T10:32:40Z</time>
      </trkpt>
      <trkpt lat="44.26053" lon="2.98548">
        <ele>897.1</ele>
        <time>2023-06-25T10:32:41Z</time>
      </trkpt>
      <trkpt lat="44.26061" lon="2.98545">
        <ele>897.3</ele>
        <time>2023-06-25T10:32:42Z</time>
      </trkpt>
      <trkpt lat="44.26069" lon="2.98543">
        <ele>897.5</ele>
        <time>2023-06-25T10:32:43Z</time>
      </trkpt>
      <trkpt lat="44.26076" lon="2.98539">
        <ele>897.7</ele>
        <time>2023-06-25T10:32:44Z</time>
      </trkpt>
      <trkpt lat="44.26083" lon="2.98534">
        <ele>898</ele>
        <time>2023-06-25T10:32:45Z</time>
      </trkpt>
      <trkpt lat="44.26089" lon="2.98529">
        <ele>898.4</ele>
        <time>2023-06-25T10:32:46Z</time>
      </trkpt>
      <trkpt lat="44.26094" lon="2.98524">
        <ele>898.7</ele>
        <time>2023-06-25T10:32:47Z</time>
      </trkpt>
      <trkpt lat="44.26099" lon="2.98519">
        <ele>899</ele>
        <time>2023-06-25T10:32:48Z</time>
      </trkpt>
      <trkpt lat="44.26103" lon="2.98515">
        <ele>899.3</ele>
        <time>2023-06-25T10:32:49Z</time>
      </trkpt>
      <trkpt lat="44.26106" lon="2.98512">
        <ele>899.6</ele>
        <time>2023-06-25T10:32:50Z</time>
      </trkpt>
      <trkpt lat="44.26108" lon="2.98508">
        <ele>899.7</ele>
        <time>2023-06-25T10:32:51Z</time>
      </trkpt>
      <trkpt lat="44.26109" lon="2.98505">
        <ele>899.9</ele>
        <time>2023-06-25T10:32:52Z</time>
      </trkpt>
      <trkpt lat="44.2611" lon="2.98501">
        <ele>900.1</ele>
        <time>2023-06-25T10:32:53Z</time>
      </trkpt>
      <trkpt lat="44.26111" lon="2.98496">
        <ele>900.3</ele>
        <time>2023-06-25T10:32:54Z</time>
      </trkpt>
      <trkpt lat="44.26112" lon="2.9849">
        <ele>900.5</ele>
        <time>2023-06-25T10:32:55Z</time>
      </trkpt>
      <trkpt lat="44.26113" lon="2.98486">
        <ele>900.7</ele>
        <time>2023-06-25T10:32:56Z</time>
      </trkpt>
      <trkpt lat="44.26114" lon="2.98483">
        <ele>900.9</ele>
        <time>2023-06-25T10:32:57Z</time>
      </trkpt>
      <trkpt lat="44.26117" lon="2.98473">
        <ele>901.4</ele>
        <time>2023-06-25T10:32:59Z</time>
      </trkpt>
      <trkpt lat="44.2612" lon="2.98466">
        <ele>901.8</ele>
        <time>2023-06-25T10:33:00Z</time>
      </trkpt>
      <trkpt lat="44.26122" lon="2.9846">
        <ele>902.1</ele>
        <time>2023-06-25T10:33:01Z</time>
      </trkpt>
      <trkpt lat="44.26125" lon="2.98455">
        <ele>902.5</ele>
        <time>2023-06-25T10:33:02Z</time>
      </trkpt>
      <trkpt lat="44.26128" lon="2.98448">
        <ele>903</ele>
        <time>2023-06-25T10:33:04Z</time>
      </trkpt>
      <trkpt lat="44.26131" lon="2.98441">
        <ele>903.5</ele>
        <time>2023-06-25T10:33:06Z</time>
      </trkpt>
      <trkpt lat="44.26132" lon="2.98438">
        <ele>903.8</ele>
        <time>2023-06-25T10:33:07Z</time>
      </trkpt>
      <trkpt lat="44.26134" lon="2.98434">
        <ele>904.1</ele>
        <time>2023-06-25T10:33:08Z</time>
      </trkpt>
      <trkpt lat="44.26135" lon="2.98431">
        <ele>904.4</ele>
        <time>2023-06-25T10:33:09Z</time>
      </trkpt>
      <trkpt lat="44.26137" lon="2.98428">
        <ele>904.7</ele>
        <time>2023-06-25T10:33:10Z</time>
      </trkpt>
      <trkpt lat="44.26138" lon="2.98424">
        <ele>905.1</ele>
        <time>2023-06-25T10:33:12Z</time>
      </trkpt>
      <trkpt lat="44.2614" lon="2.98419">
        <ele>905.5</ele>
        <time>2023-06-25T10:33:13Z</time>
      </trkpt>
      <trkpt lat="44.26141" lon="2.98417">
        <ele>905.7</ele>
        <time>2023-06-25T10:33:14Z</time>
      </trkpt>
      <trkpt lat="44.26143" lon="2.98413">
        <ele>906.1</ele>
        <time>2023-06-25T10:33:15Z</time>
      </trkpt>
      <trkpt lat="44.26144" lon="2.98409">
        <ele>906.4</ele>
        <time>2023-06-25T10:33:16Z</time>
      </trkpt>
      <trkpt lat="44.26146" lon="2.98405">
        <ele>906.8</ele>
        <time>2023-06-25T10:33:17Z</time>
      </trkpt>
      <trkpt lat="44.26148" lon="2.98401">
        <ele>907.2</ele>
        <time>2023-06-25T10:33:18Z</time>
      </trkpt>
      <trkpt lat="44.26149" lon="2.984">
        <ele>907.4</ele>
        <time>2023-06-25T10:33:19Z</time>
      </trkpt>
      <trkpt lat="44.26152" lon="2.98394">
        <ele>907.9</ele>
        <time>2023-06-25T10:33:21Z</time>
      </trkpt>
      <trkpt lat="44.26152" lon="2.98392">
        <ele>908.1</ele>
        <time>2023-06-25T10:33:22Z</time>
      </trkpt>
      <trkpt lat="44.26153" lon="2.9839">
        <ele>908.3</ele>
        <time>2023-06-25T10:33:23Z</time>
      </trkpt>
      <trkpt lat="44.26155" lon="2.98386">
        <ele>908.6</ele>
        <time>2023-06-25T10:33:24Z</time>
      </trkpt>
      <trkpt lat="44.26157" lon="2.98381">
        <ele>909</ele>
        <time>2023-06-25T10:33:25Z</time>
      </trkpt>
      <trkpt lat="44.26158" lon="2.98379">
        <ele>909.1</ele>
        <time>2023-06-25T10:33:26Z</time>
      </trkpt>
      <trkpt lat="44.2616" lon="2.98374">
        <ele>909.5</ele>
        <time>2023-06-25T10:33:28Z</time>
      </trkpt>
      <trkpt lat="44.26163" lon="2.98369">
        <ele>909.8</ele>
        <time>2023-06-25T10:33:29Z</time>
      </trkpt>
      <trkpt lat="44.26163" lon="2.98368">
        <ele>909.9</ele>
        <time>2023-06-25T10:33:30Z</time>
      </trkpt>
      <trkpt lat="44.26164" lon="2.98364">
        <ele>910.1</ele>
        <time>2023-06-25T10:33:31Z</time>
      </trkpt>
      <trkpt lat="44.26166" lon="2.98359">
        <ele>910.4</ele>
        <time>2023-06-25T10:33:32Z</time>
      </trkpt>
      <trkpt lat="44.26167" lon="2.98357">
        <ele>910.5</ele>
        <time>2023-06-25T10:33:33Z</time>
      </trkpt>
      <trkpt lat="44.26169" lon="2.98353">
        <ele>910.7</ele>
        <time>2023-06-25T10:33:35Z</time>
      </trkpt>
      <trkpt lat="44.26171" lon="2.9835">
        <ele>910.9</ele>
        <time>2023-06-25T10:33:36Z</time>
      </trkpt>
      <trkpt lat="44.26173" lon="2.98347">
        <ele>911.1</ele>
        <time>2023-06-25T10:33:37Z</time>
      </trkpt>
      <trkpt lat="44.26176" lon="2.98344">
        <ele>911.3</ele>
        <time>2023-06-25T10:33:38Z</time>
      </trkpt>
      <trkpt lat="44.26178" lon="2.98341">
        <ele>911.5</ele>
        <time>2023-06-25T10:33:39Z</time>
      </trkpt>
      <trkpt lat="44.26183" lon="2.98336">
        <ele>911.8</ele>
        <time>2023-06-25T10:33:41Z</time>
      </trkpt>
      <trkpt lat="44.26186" lon="2.98332">
        <ele>912.1</ele>
        <time>2023-06-25T10:33:43Z</time>
      </trkpt>
      <trkpt lat="44.26189" lon="2.98329">
        <ele>912.3</ele>
        <time>2023-06-25T10:33:44Z</time>
      </trkpt>
      <trkpt lat="44.26191" lon="2.98325">
        <ele>912.5</ele>
        <time>2023-06-25T10:33:45Z</time>
      </trkpt>
      <trkpt lat="44.26195" lon="2.9832">
        <ele>912.8</ele>
        <time>2023-06-25T10:33:47Z</time>
      </trkpt>
      <trkpt lat="44.26196" lon="2.98318">
        <ele>912.9</ele>
        <time>2023-06-25T10:33:48Z</time>
      </trkpt>
      <trkpt lat="44.26198" lon="2.98316">
        <ele>913.1</ele>
        <time>2023-06-25T10:33:49Z</time>
      </trkpt>
      <trkpt lat="44.262" lon="2.98314">
        <ele>913.2</ele>
        <time>2023-06-25T10:33:50Z</time>
      </trkpt>
      <trkpt lat="44.26202" lon="2.9831">
        <ele>913.3</ele>
        <time>2023-06-25T10:33:51Z</time>
      </trkpt>
      <trkpt lat="44.26202" lon="2.98307">
        <ele>913.4</ele>
        <time>2023-06-25T10:33:52Z</time>
      </trkpt>
      <trkpt lat="44.26204" lon="2.98305">
        <ele>913.4</ele>
        <time>2023-06-25T10:33:53Z</time>
      </trkpt>
      <trkpt lat="44.26207" lon="2.98303">
        <ele>913.5</ele>
        <time>2023-06-25T10:33:55Z</time>
      </trkpt>
      <trkpt lat="44.26204" lon="2.98302">
        <ele>913.5</ele>
        <time>2023-06-25T10:33:56Z</time>
      </trkpt>
      <trkpt lat="44.26203" lon="2.98303">
        <ele>913.4</ele>
        <time>2023-06-25T10:33:57Z</time>
      </trkpt>
      <trkpt lat="44.262" lon="2.98309">
        <ele>913.3</ele>
        <time>2023-06-25T10:33:59Z</time>
      </trkpt>
      <trkpt lat="44.26199" lon="2.98313">
        <ele>913.2</ele>
        <time>2023-06-25T10:34:00Z</time>
      </trkpt>
      <trkpt lat="44.26201" lon="2.9832">
        <ele>913.1</ele>
        <time>2023-06-25T10:34:02Z</time>
      </trkpt>
      <trkpt lat="44.26204" lon="2.98322">
        <ele>915</ele>
        <time>2023-06-25T10:34:03Z</time>
      </trkpt>
      <trkpt lat="44.26206" lon="2.98323">
        <ele>915.4</ele>
        <time>2023-06-25T10:34:04Z</time>
      </trkpt>
      <trkpt lat="44.26209" lon="2.98326">
        <ele>916.3</ele>
        <time>2023-06-25T10:34:05Z</time>
      </trkpt>
      <trkpt lat="44.26213" lon="2.98329">
        <ele>917.5</ele>
        <time>2023-06-25T10:34:07Z</time>
      </trkpt>
      <trkpt lat="44.26215" lon="2.98333">
        <ele>918.1</ele>
        <time>2023-06-25T10:34:08Z</time>
      </trkpt>
      <trkpt lat="44.26216" lon="2.98338">
        <ele>919.2</ele>
        <time>2023-06-25T10:34:10Z</time>
      </trkpt>
      <trkpt lat="44.26218" lon="2.98342">
        <ele>920.1</ele>
        <time>2023-06-25T10:34:11Z</time>
      </trkpt>
      <trkpt lat="44.26218" lon="2.98343">
        <ele>920.4</ele>
        <time>2023-06-25T10:34:12Z</time>
      </trkpt>
      <trkpt lat="44.26221" lon="2.98348">
        <ele>921.4</ele>
        <time>2023-06-25T10:34:14Z</time>
      </trkpt>
      <trkpt lat="44.26223" lon="2.98351">
        <ele>922.2</ele>
        <time>2023-06-25T10:34:15Z</time>
      </trkpt>
      <trkpt lat="44.26223" lon="2.98352">
        <ele>922.5</ele>
        <time>2023-06-25T10:34:16Z</time>
      </trkpt>
      <trkpt lat="44.26224" lon="2.98354">
        <ele>922.9</ele>
        <time>2023-06-25T10:34:17Z</time>
      </trkpt>
      <trkpt lat="44.26226" lon="2.98355">
        <ele>923.3</ele>
        <time>2023-06-25T10:34:19Z</time>
      </trkpt>
      <trkpt lat="44.26227" lon="2.98356">
        <ele>923.7</ele>
        <time>2023-06-25T10:34:20Z</time>
      </trkpt>
      <trkpt lat="44.26229" lon="2.98356">
        <ele>924</ele>
        <time>2023-06-25T10:34:21Z</time>
      </trkpt>
      <trkpt lat="44.26231" lon="2.98358">
        <ele>924.7</ele>
        <time>2023-06-25T10:34:22Z</time>
      </trkpt>
      <trkpt lat="44.26232" lon="2.98358">
        <ele>924.9</ele>
        <time>2023-06-25T10:34:23Z</time>
      </trkpt>
      <trkpt lat="44.26235" lon="2.98361">
        <ele>925.6</ele>
        <time>2023-06-25T10:34:24Z</time>
      </trkpt>
      <trkpt lat="44.26236" lon="2.98362">
        <ele>925.9</ele>
        <time>2023-06-25T10:34:25Z</time>
      </trkpt>
      <trkpt lat="44.26239" lon="2.98365">
        <ele>926.3</ele>
        <time>2023-06-25T10:34:26Z</time>
      </trkpt>
      <trkpt lat="44.26239" lon="2.98366">
        <ele>926.3</ele>
        <time>2023-06-25T10:34:27Z</time>
      </trkpt>
      <trkpt lat="44.26241" lon="2.98368">
        <ele>926.4</ele>
        <time>2023-06-25T10:34:28Z</time>
      </trkpt>
      <trkpt lat="44.26243" lon="2.98372">
        <ele>926.5</ele>
        <time>2023-06-25T10:34:30Z</time>
      </trkpt>
      <trkpt lat="44.26245" lon="2.98375">
        <ele>926.6</ele>
        <time>2023-06-25T10:34:31Z</time>
      </trkpt>
      <trkpt lat="44.26247" lon="2.98377">
        <ele>926.7</ele>
        <time>2023-06-25T10:34:32Z</time>
      </trkpt>
      <trkpt lat="44.26251" lon="2.98382">
        <ele>926.8</ele>
        <time>2023-06-25T10:34:34Z</time>
      </trkpt>
      <trkpt lat="44.26254" lon="2.98384">
        <ele>926.9</ele>
        <time>2023-06-25T10:34:35Z</time>
      </trkpt>
      <trkpt lat="44.26257" lon="2.98387">
        <ele>927.1</ele>
        <time>2023-06-25T10:34:36Z</time>
      </trkpt>
      <trkpt lat="44.2626" lon="2.98389">
        <ele>927.2</ele>
        <time>2023-06-25T10:34:37Z</time>
      </trkpt>
      <trkpt lat="44.26264" lon="2.98392">
        <ele>927.3</ele>
        <time>2023-06-25T10:34:39Z</time>
      </trkpt>
      <trkpt lat="44.26267" lon="2.98394">
        <ele>927.4</ele>
        <time>2023-06-25T10:34:40Z</time>
      </trkpt>
      <trkpt lat="44.26269" lon="2.98395">
        <ele>927.5</ele>
        <time>2023-06-25T10:34:41Z</time>
      </trkpt>
      <trkpt lat="44.26274" lon="2.98398">
        <ele>927.7</ele>
        <time>2023-06-25T10:34:43Z</time>
      </trkpt>
      <trkpt lat="44.26278" lon="2.98398">
        <ele>927.9</ele>
        <time>2023-06-25T10:34:44Z</time>
      </trkpt>
      <trkpt lat="44.26282" lon="2.98397">
        <ele>927.9</ele>
        <time>2023-06-25T10:34:45Z</time>
      </trkpt>
      <trkpt lat="44.26285" lon="2.98396">
        <ele>928</ele>
        <time>2023-06-25T10:34:46Z</time>
      </trkpt>
      <trkpt lat="44.2629" lon="2.98392">
        <ele>928</ele>
        <time>2023-06-25T10:34:48Z</time>
      </trkpt>
      <trkpt lat="44.26293" lon="2.9839">
        <ele>928.1</ele>
        <time>2023-06-25T10:34:49Z</time>
      </trkpt>
      <trkpt lat="44.26296" lon="2.98389">
        <ele>928.1</ele>
        <time>2023-06-25T10:34:50Z</time>
      </trkpt>
      <trkpt lat="44.26299" lon="2.98388">
        <ele>928.2</ele>
        <time>2023-06-25T10:34:51Z</time>
      </trkpt>
      <trkpt lat="44.26304" lon="2.98387">
        <ele>928.2</ele>
        <time>2023-06-25T10:34:53Z</time>
      </trkpt>
      <trkpt lat="44.26309" lon="2.98387">
        <ele>928.2</ele>
        <time>2023-06-25T10:34:54Z</time>
      </trkpt>
      <trkpt lat="44.2631" lon="2.98386">
        <ele>928.3</ele>
        <time>2023-06-25T10:34:55Z</time>
      </trkpt>
      <trkpt lat="44.26314" lon="2.98386">
        <ele>928.3</ele>
        <time>2023-06-25T10:34:56Z</time>
      </trkpt>
      <trkpt lat="44.26316" lon="2.98385">
        <ele>928.3</ele>
        <time>2023-06-25T10:34:57Z</time>
      </trkpt>
      <trkpt lat="44.2632" lon="2.98385">
        <ele>928.4</ele>
        <time>2023-06-25T10:34:59Z</time>
      </trkpt>
      <trkpt lat="44.26324" lon="2.98385">
        <ele>928.5</ele>
        <time>2023-06-25T10:35:00Z</time>
      </trkpt>
      <trkpt lat="44.26327" lon="2.98385">
        <ele>928.6</ele>
        <time>2023-06-25T10:35:01Z</time>
      </trkpt>
      <trkpt lat="44.26331" lon="2.98385">
        <ele>928.7</ele>
        <time>2023-06-25T10:35:02Z</time>
      </trkpt>
      <trkpt lat="44.26333" lon="2.98386">
        <ele>928.7</ele>
        <time>2023-06-25T10:35:03Z</time>
      </trkpt>
      <trkpt lat="44.26337" lon="2.98387">
        <ele>929</ele>
        <time>2023-06-25T10:35:05Z</time>
      </trkpt>
      <trkpt lat="44.2634" lon="2.98388">
        <ele>929.3</ele>
        <time>2023-06-25T10:35:06Z</time>
      </trkpt>
      <trkpt lat="44.26341" lon="2.98388">
        <ele>929.4</ele>
        <time>2023-06-25T10:35:07Z</time>
      </trkpt>
      <trkpt lat="44.26345" lon="2.98389">
        <ele>929.7</ele>
        <time>2023-06-25T10:35:08Z</time>
      </trkpt>
      <trkpt lat="44.2635" lon="2.9839">
        <ele>930.2</ele>
        <time>2023-06-25T10:35:10Z</time>
      </trkpt>
      <trkpt lat="44.26355" lon="2.98392">
        <ele>930.6</ele>
        <time>2023-06-25T10:35:12Z</time>
      </trkpt>
      <trkpt lat="44.26359" lon="2.98394">
        <ele>931</ele>
        <time>2023-06-25T10:35:14Z</time>
      </trkpt>
      <trkpt lat="44.26362" lon="2.98396">
        <ele>931.3</ele>
        <time>2023-06-25T10:35:15Z</time>
      </trkpt>
      <trkpt lat="44.26369" lon="2.98402">
        <ele>931.9</ele>
        <time>2023-06-25T10:35:17Z</time>
      </trkpt>
      <trkpt lat="44.26373" lon="2.98408">
        <ele>932.4</ele>
        <time>2023-06-25T10:35:19Z</time>
      </trkpt>
      <trkpt lat="44.26377" lon="2.98415">
        <ele>932.9</ele>
        <time>2023-06-25T10:35:21Z</time>
      </trkpt>
      <trkpt lat="44.26379" lon="2.9842">
        <ele>933.1</ele>
        <time>2023-06-25T10:35:22Z</time>
      </trkpt>
      <trkpt lat="44.26383" lon="2.98429">
        <ele>933.7</ele>
        <time>2023-06-25T10:35:24Z</time>
      </trkpt>
      <trkpt lat="44.26385" lon="2.98434">
        <ele>934</ele>
        <time>2023-06-25T10:35:26Z</time>
      </trkpt>
      <trkpt lat="44.26387" lon="2.98437">
        <ele>934.2</ele>
        <time>2023-06-25T10:35:27Z</time>
      </trkpt>
      <trkpt lat="44.2639" lon="2.98441">
        <ele>934.5</ele>
        <time>2023-06-25T10:35:28Z</time>
      </trkpt>
      <trkpt lat="44.26391" lon="2.98444">
        <ele>934.6</ele>
        <time>2023-06-25T10:35:29Z</time>
      </trkpt>
      <trkpt lat="44.26395" lon="2.98447">
        <ele>935</ele>
        <time>2023-06-25T10:35:31Z</time>
      </trkpt>
      <trkpt lat="44.26398" lon="2.9845">
        <ele>935.2</ele>
        <time>2023-06-25T10:35:32Z</time>
      </trkpt>
      <trkpt lat="44.264" lon="2.98452">
        <ele>935.5</ele>
        <time>2023-06-25T10:35:33Z</time>
      </trkpt>
      <trkpt lat="44.26405" lon="2.98455">
        <ele>935.8</ele>
        <time>2023-06-25T10:35:35Z</time>
      </trkpt>
      <trkpt lat="44.26407" lon="2.98456">
        <ele>936</ele>
        <time>2023-06-25T10:35:36Z</time>
      </trkpt>
      <trkpt lat="44.2641" lon="2.98458">
        <ele>936.2</ele>
        <time>2023-06-25T10:35:37Z</time>
      </trkpt>
      <trkpt lat="44.26414" lon="2.98461">
        <ele>936.6</ele>
        <time>2023-06-25T10:35:39Z</time>
      </trkpt>
      <trkpt lat="44.26417" lon="2.98462">
        <ele>936.8</ele>
        <time>2023-06-25T10:35:40Z</time>
      </trkpt>
      <trkpt lat="44.26421" lon="2.98464">
        <ele>937.1</ele>
        <time>2023-06-25T10:35:42Z</time>
      </trkpt>
      <trkpt lat="44.26424" lon="2.98465">
        <ele>937.4</ele>
        <time>2023-06-25T10:35:43Z</time>
      </trkpt>
      <trkpt lat="44.26427" lon="2.98467">
        <ele>937.6</ele>
        <time>2023-06-25T10:35:44Z</time>
      </trkpt>
      <trkpt lat="44.2643" lon="2.98469">
        <ele>937.9</ele>
        <time>2023-06-25T10:35:45Z</time>
      </trkpt>
      <trkpt lat="44.26433" lon="2.98472">
        <ele>938.2</ele>
        <time>2023-06-25T10:35:47Z</time>
      </trkpt>
      <trkpt lat="44.26436" lon="2.98473">
        <ele>938.4</ele>
        <time>2023-06-25T10:35:48Z</time>
      </trkpt>
      <trkpt lat="44.2644" lon="2.98475">
        <ele>938.8</ele>
        <time>2023-06-25T10:35:49Z</time>
      </trkpt>
      <trkpt lat="44.26443" lon="2.98476">
        <ele>939</ele>
        <time>2023-06-25T10:35:50Z</time>
      </trkpt>
      <trkpt lat="44.26446" lon="2.98477">
        <ele>939.3</ele>
        <time>2023-06-25T10:35:51Z</time>
      </trkpt>
      <trkpt lat="44.26449" lon="2.98479">
        <ele>939.5</ele>
        <time>2023-06-25T10:35:52Z</time>
      </trkpt>
      <trkpt lat="44.26451" lon="2.9848">
        <ele>939.7</ele>
        <time>2023-06-25T10:35:53Z</time>
      </trkpt>
      <trkpt lat="44.26455" lon="2.98482">
        <ele>940</ele>
        <time>2023-06-25T10:35:55Z</time>
      </trkpt>
      <trkpt lat="44.26458" lon="2.98484">
        <ele>940.2</ele>
        <time>2023-06-25T10:35:56Z</time>
      </trkpt>
      <trkpt lat="44.26461" lon="2.98486">
        <ele>940.4</ele>
        <time>2023-06-25T10:35:57Z</time>
      </trkpt>
      <trkpt lat="44.26465" lon="2.98488">
        <ele>940.7</ele>
        <time>2023-06-25T10:35:58Z</time>
      </trkpt>
      <trkpt lat="44.26466" lon="2.98488">
        <ele>940.8</ele>
        <time>2023-06-25T10:35:59Z</time>
      </trkpt>
      <trkpt lat="44.26468" lon="2.9849">
        <ele>941</ele>
        <time>2023-06-25T10:36:00Z</time>
      </trkpt>
      <trkpt lat="44.26471" lon="2.98492">
        <ele>941.2</ele>
        <time>2023-06-25T10:36:01Z</time>
      </trkpt>
      <trkpt lat="44.26475" lon="2.98494">
        <ele>941.4</ele>
        <time>2023-06-25T10:36:03Z</time>
      </trkpt>
      <trkpt lat="44.26476" lon="2.98495">
        <ele>941.5</ele>
        <time>2023-06-25T10:36:04Z</time>
      </trkpt>
      <trkpt lat="44.26479" lon="2.98497">
        <ele>941.7</ele>
        <time>2023-06-25T10:36:05Z</time>
      </trkpt>
      <trkpt lat="44.2648" lon="2.98498">
        <ele>941.7</ele>
        <time>2023-06-25T10:36:06Z</time>
      </trkpt>
      <trkpt lat="44.26482" lon="2.985">
        <ele>941.8</ele>
        <time>2023-06-25T10:36:08Z</time>
      </trkpt>
      <trkpt lat="44.26484" lon="2.98502">
        <ele>941.9</ele>
        <time>2023-06-25T10:36:09Z</time>
      </trkpt>
      <trkpt lat="44.26486" lon="2.98505">
        <ele>942</ele>
        <time>2023-06-25T10:36:11Z</time>
      </trkpt>
      <trkpt lat="44.26488" lon="2.98508">
        <ele>942.1</ele>
        <time>2023-06-25T10:36:12Z</time>
      </trkpt>
      <trkpt lat="44.26489" lon="2.98509">
        <ele>942.1</ele>
        <time>2023-06-25T10:36:13Z</time>
      </trkpt>
      <trkpt lat="44.26491" lon="2.9851">
        <ele>942.2</ele>
        <time>2023-06-25T10:36:14Z</time>
      </trkpt>
      <trkpt lat="44.26492" lon="2.98511">
        <ele>942.2</ele>
        <time>2023-06-25T10:36:15Z</time>
      </trkpt>
      <trkpt lat="44.26493" lon="2.98512">
        <ele>942.2</ele>
        <time>2023-06-25T10:36:17Z</time>
      </trkpt>
      <trkpt lat="44.26493" lon="2.98513">
        <ele>942.2</ele>
        <time>2023-06-25T10:36:18Z</time>
      </trkpt>
      <trkpt lat="44.26494" lon="2.98514">
        <ele>942.3</ele>
        <time>2023-06-25T10:36:20Z</time>
      </trkpt>
      <trkpt lat="44.26494" lon="2.98514">
        <ele>942.3</ele>
        <time>2023-06-25T10:36:21Z</time>
      </trkpt>
      <trkpt lat="44.26495" lon="2.98515">
        <ele>942.3</ele>
        <time>2023-06-25T10:36:22Z</time>
      </trkpt>
      <trkpt lat="44.26495" lon="2.98516">
        <ele>942.3</ele>
        <time>2023-06-25T10:36:23Z</time>
      </trkpt>
      <trkpt lat="44.26496" lon="2.98517">
        <ele>942.3</ele>
        <time>2023-06-25T10:36:24Z</time>
      </trkpt>
      <trkpt lat="44.26496" lon="2.98518">
        <ele>942.3</ele>
        <time>2023-06-25T10:36:26Z</time>
      </trkpt>
      <trkpt lat="44.26497" lon="2.98519">
        <ele>942.3</ele>
        <time>2023-06-25T10:37:16Z</time>
      </trkpt>
      <trkpt lat="44.26497" lon="2.98519">
        <ele>942.3</ele>
        <time>2023-06-25T10:37:17Z</time>
      </trkpt>
      <trkpt lat="44.26498" lon="2.9852">
        <ele>942.3</ele>
        <time>2023-06-25T10:37:18Z</time>
      </trkpt>
      <trkpt lat="44.26501" lon="2.98527">
        <ele>942.4</ele>
        <time>2023-06-25T10:37:20Z</time>
      </trkpt>
      <trkpt lat="44.26503" lon="2.9853">
        <ele>942.5</ele>
        <time>2023-06-25T10:37:21Z</time>
      </trkpt>
      <trkpt lat="44.26505" lon="2.98533">
        <ele>942.5</ele>
        <time>2023-06-25T10:37:22Z</time>
      </trkpt>
      <trkpt lat="44.26509" lon="2.98539">
        <ele>942.6</ele>
        <time>2023-06-25T10:37:24Z</time>
      </trkpt>
      <trkpt lat="44.26511" lon="2.98543">
        <ele>942.7</ele>
        <time>2023-06-25T10:37:25Z</time>
      </trkpt>
      <trkpt lat="44.26515" lon="2.98548">
        <ele>942.7</ele>
        <time>2023-06-25T10:37:27Z</time>
      </trkpt>
      <trkpt lat="44.26517" lon="2.98553">
        <ele>942.8</ele>
        <time>2023-06-25T10:37:28Z</time>
      </trkpt>
      <trkpt lat="44.26518" lon="2.98558">
        <ele>942.8</ele>
        <time>2023-06-25T10:37:29Z</time>
      </trkpt>
      <trkpt lat="44.2652" lon="2.98562">
        <ele>942.8</ele>
        <time>2023-06-25T10:37:30Z</time>
      </trkpt>
      <trkpt lat="44.26522" lon="2.98565">
        <ele>942.9</ele>
        <time>2023-06-25T10:37:31Z</time>
      </trkpt>
      <trkpt lat="44.26524" lon="2.98569">
        <ele>942.8</ele>
        <time>2023-06-25T10:37:32Z</time>
      </trkpt>
      <trkpt lat="44.26527" lon="2.98576">
        <ele>942.8</ele>
        <time>2023-06-25T10:37:34Z</time>
      </trkpt>
      <trkpt lat="44.26529" lon="2.9858">
        <ele>942.8</ele>
        <time>2023-06-25T10:37:35Z</time>
      </trkpt>
      <trkpt lat="44.26532" lon="2.98586">
        <ele>942.8</ele>
        <time>2023-06-25T10:37:36Z</time>
      </trkpt>
      <trkpt lat="44.26534" lon="2.98593">
        <ele>942.8</ele>
        <time>2023-06-25T10:37:38Z</time>
      </trkpt>
      <trkpt lat="44.26538" lon="2.98601">
        <ele>942.8</ele>
        <time>2023-06-25T10:37:40Z</time>
      </trkpt>
      <trkpt lat="44.2654" lon="2.98607">
        <ele>942.9</ele>
        <time>2023-06-25T10:37:41Z</time>
      </trkpt>
      <trkpt lat="44.26542" lon="2.98612">
        <ele>943</ele>
        <time>2023-06-25T10:37:42Z</time>
      </trkpt>
      <trkpt lat="44.26546" lon="2.9862">
        <ele>943.1</ele>
        <time>2023-06-25T10:37:44Z</time>
      </trkpt>
      <trkpt lat="44.26548" lon="2.98626">
        <ele>943.2</ele>
        <time>2023-06-25T10:37:45Z</time>
      </trkpt>
      <trkpt lat="44.2655" lon="2.98631">
        <ele>943.4</ele>
        <time>2023-06-25T10:37:46Z</time>
      </trkpt>
      <trkpt lat="44.26553" lon="2.98636">
        <ele>943.5</ele>
        <time>2023-06-25T10:37:47Z</time>
      </trkpt>
      <trkpt lat="44.26558" lon="2.98645">
        <ele>943.9</ele>
        <time>2023-06-25T10:37:49Z</time>
      </trkpt>
      <trkpt lat="44.26562" lon="2.98653">
        <ele>944.3</ele>
        <time>2023-06-25T10:37:51Z</time>
      </trkpt>
      <trkpt lat="44.26565" lon="2.98658">
        <ele>944.5</ele>
        <time>2023-06-25T10:37:52Z</time>
      </trkpt>
      <trkpt lat="44.26568" lon="2.98663">
        <ele>944.8</ele>
        <time>2023-06-25T10:37:53Z</time>
      </trkpt>
      <trkpt lat="44.26571" lon="2.98668">
        <ele>945</ele>
        <time>2023-06-25T10:37:54Z</time>
      </trkpt>
      <trkpt lat="44.26575" lon="2.98672">
        <ele>945.1</ele>
        <time>2023-06-25T10:37:55Z</time>
      </trkpt>
      <trkpt lat="44.2658" lon="2.98678">
        <ele>945.4</ele>
        <time>2023-06-25T10:37:57Z</time>
      </trkpt>
      <trkpt lat="44.26583" lon="2.98681">
        <ele>945.6</ele>
        <time>2023-06-25T10:37:58Z</time>
      </trkpt>
      <trkpt lat="44.26587" lon="2.98686">
        <ele>945.9</ele>
        <time>2023-06-25T10:38:00Z</time>
      </trkpt>
      <trkpt lat="44.2659" lon="2.98689">
        <ele>946.2</ele>
        <time>2023-06-25T10:38:01Z</time>
      </trkpt>
      <trkpt lat="44.26593" lon="2.98693">
        <ele>946.6</ele>
        <time>2023-06-25T10:38:02Z</time>
      </trkpt>
      <trkpt lat="44.26597" lon="2.98697">
        <ele>947</ele>
        <time>2023-06-25T10:38:03Z</time>
      </trkpt>
      <trkpt lat="44.266" lon="2.987">
        <ele>947.3</ele>
        <time>2023-06-25T10:38:04Z</time>
      </trkpt>
      <trkpt lat="44.26603" lon="2.98702">
        <ele>947.7</ele>
        <time>2023-06-25T10:38:05Z</time>
      </trkpt>
      <trkpt lat="44.26606" lon="2.98704">
        <ele>948</ele>
        <time>2023-06-25T10:38:06Z</time>
      </trkpt>
      <trkpt lat="44.26609" lon="2.98708">
        <ele>948.3</ele>
        <time>2023-06-25T10:38:07Z</time>
      </trkpt>
      <trkpt lat="44.26612" lon="2.98712">
        <ele>948.7</ele>
        <time>2023-06-25T10:38:08Z</time>
      </trkpt>
      <trkpt lat="44.26616" lon="2.98717">
        <ele>949.1</ele>
        <time>2023-06-25T10:38:10Z</time>
      </trkpt>
      <trkpt lat="44.26619" lon="2.9872">
        <ele>949.4</ele>
        <time>2023-06-25T10:38:11Z</time>
      </trkpt>
      <trkpt lat="44.26622" lon="2.98723">
        <ele>949.8</ele>
        <time>2023-06-25T10:38:12Z</time>
      </trkpt>
      <trkpt lat="44.26625" lon="2.98726">
        <ele>950.1</ele>
        <time>2023-06-25T10:38:13Z</time>
      </trkpt>
      <trkpt lat="44.26628" lon="2.98729">
        <ele>950.4</ele>
        <time>2023-06-25T10:38:14Z</time>
      </trkpt>
      <trkpt lat="44.26633" lon="2.98735">
        <ele>950.9</ele>
        <time>2023-06-25T10:38:16Z</time>
      </trkpt>
      <trkpt lat="44.26636" lon="2.98737">
        <ele>951.2</ele>
        <time>2023-06-25T10:38:17Z</time>
      </trkpt>
      <trkpt lat="44.26639" lon="2.9874">
        <ele>951.4</ele>
        <time>2023-06-25T10:38:18Z</time>
      </trkpt>
      <trkpt lat="44.26643" lon="2.98744">
        <ele>951.7</ele>
        <time>2023-06-25T10:38:20Z</time>
      </trkpt>
      <trkpt lat="44.26646" lon="2.98746">
        <ele>952</ele>
        <time>2023-06-25T10:38:21Z</time>
      </trkpt>
      <trkpt lat="44.26649" lon="2.98748">
        <ele>952.1</ele>
        <time>2023-06-25T10:38:22Z</time>
      </trkpt>
      <trkpt lat="44.26651" lon="2.98751">
        <ele>952.4</ele>
        <time>2023-06-25T10:38:23Z</time>
      </trkpt>
      <trkpt lat="44.26654" lon="2.98755">
        <ele>952.6</ele>
        <time>2023-06-25T10:38:25Z</time>
      </trkpt>
      <trkpt lat="44.26657" lon="2.98756">
        <ele>952.8</ele>
        <time>2023-06-25T10:38:26Z</time>
      </trkpt>
      <trkpt lat="44.2666" lon="2.98758">
        <ele>953</ele>
        <time>2023-06-25T10:38:27Z</time>
      </trkpt>
      <trkpt lat="44.26664" lon="2.98759">
        <ele>953.2</ele>
        <time>2023-06-25T10:38:28Z</time>
      </trkpt>
      <trkpt lat="44.26668" lon="2.98762">
        <ele>953.5</ele>
        <time>2023-06-25T10:38:30Z</time>
      </trkpt>
      <trkpt lat="44.26671" lon="2.98763">
        <ele>953.6</ele>
        <time>2023-06-25T10:38:31Z</time>
      </trkpt>
      <trkpt lat="44.26676" lon="2.98764">
        <ele>953.9</ele>
        <time>2023-06-25T10:38:33Z</time>
      </trkpt>
      <trkpt lat="44.26679" lon="2.98764">
        <ele>954.1</ele>
        <time>2023-06-25T10:38:34Z</time>
      </trkpt>
      <trkpt lat="44.26685" lon="2.98763">
        <ele>954.5</ele>
        <time>2023-06-25T10:38:36Z</time>
      </trkpt>
      <trkpt lat="44.26689" lon="2.98763">
        <ele>954.7</ele>
        <time>2023-06-25T10:38:37Z</time>
      </trkpt>
      <trkpt lat="44.26693" lon="2.98762">
        <ele>955</ele>
        <time>2023-06-25T10:38:38Z</time>
      </trkpt>
      <trkpt lat="44.26695" lon="2.98761">
        <ele>955.2</ele>
        <time>2023-06-25T10:38:39Z</time>
      </trkpt>
      <trkpt lat="44.26701" lon="2.98761">
        <ele>955.6</ele>
        <time>2023-06-25T10:38:41Z</time>
      </trkpt>
      <trkpt lat="44.26705" lon="2.98761">
        <ele>955.9</ele>
        <time>2023-06-25T10:38:42Z</time>
      </trkpt>
      <trkpt lat="44.26711" lon="2.9876">
        <ele>956.3</ele>
        <time>2023-06-25T10:38:44Z</time>
      </trkpt>
      <trkpt lat="44.26715" lon="2.98759">
        <ele>956.6</ele>
        <time>2023-06-25T10:38:45Z</time>
      </trkpt>
      <trkpt lat="44.2672" lon="2.98759">
        <ele>957</ele>
        <time>2023-06-25T10:38:47Z</time>
      </trkpt>
      <trkpt lat="44.26725" lon="2.98758">
        <ele>957.6</ele>
        <time>2023-06-25T10:38:48Z</time>
      </trkpt>
      <trkpt lat="44.26729" lon="2.98758">
        <ele>958</ele>
        <time>2023-06-25T10:38:49Z</time>
      </trkpt>
      <trkpt lat="44.26734" lon="2.98758">
        <ele>958.7</ele>
        <time>2023-06-25T10:38:51Z</time>
      </trkpt>
      <trkpt lat="44.26737" lon="2.98759">
        <ele>959.2</ele>
        <time>2023-06-25T10:38:52Z</time>
      </trkpt>
      <trkpt lat="44.2674" lon="2.9876">
        <ele>959.6</ele>
        <time>2023-06-25T10:38:54Z</time>
      </trkpt>
      <trkpt lat="44.26743" lon="2.9876">
        <ele>959.9</ele>
        <time>2023-06-25T10:38:55Z</time>
      </trkpt>
      <trkpt lat="44.26747" lon="2.98761">
        <ele>960.3</ele>
        <time>2023-06-25T10:38:56Z</time>
      </trkpt>
      <trkpt lat="44.2675" lon="2.98762">
        <ele>960.6</ele>
        <time>2023-06-25T10:38:57Z</time>
      </trkpt>
      <trkpt lat="44.26752" lon="2.98763">
        <ele>960.7</ele>
        <time>2023-06-25T10:38:58Z</time>
      </trkpt>
      <trkpt lat="44.26755" lon="2.98765">
        <ele>961.1</ele>
        <time>2023-06-25T10:38:59Z</time>
      </trkpt>
      <trkpt lat="44.26756" lon="2.98766">
        <ele>961.2</ele>
        <time>2023-06-25T10:39:00Z</time>
      </trkpt>
      <trkpt lat="44.26758" lon="2.98768">
        <ele>961.5</ele>
        <time>2023-06-25T10:39:02Z</time>
      </trkpt>
      <trkpt lat="44.26761" lon="2.98769">
        <ele>961.8</ele>
        <time>2023-06-25T10:39:03Z</time>
      </trkpt>
      <trkpt lat="44.26764" lon="2.98771">
        <ele>962.2</ele>
        <time>2023-06-25T10:39:04Z</time>
      </trkpt>
      <trkpt lat="44.26766" lon="2.98774">
        <ele>962.5</ele>
        <time>2023-06-25T10:39:05Z</time>
      </trkpt>
      <trkpt lat="44.26768" lon="2.98776">
        <ele>962.9</ele>
        <time>2023-06-25T10:39:06Z</time>
      </trkpt>
      <trkpt lat="44.26771" lon="2.98779">
        <ele>963.3</ele>
        <time>2023-06-25T10:39:08Z</time>
      </trkpt>
      <trkpt lat="44.26773" lon="2.98782">
        <ele>963.7</ele>
        <time>2023-06-25T10:39:09Z</time>
      </trkpt>
      <trkpt lat="44.26776" lon="2.98785">
        <ele>964.1</ele>
        <time>2023-06-25T10:39:10Z</time>
      </trkpt>
      <trkpt lat="44.26778" lon="2.98789">
        <ele>964.6</ele>
        <time>2023-06-25T10:39:11Z</time>
      </trkpt>
      <trkpt lat="44.2678" lon="2.9879">
        <ele>964.8</ele>
        <time>2023-06-25T10:39:12Z</time>
      </trkpt>
      <trkpt lat="44.26782" lon="2.98792">
        <ele>965.1</ele>
        <time>2023-06-25T10:39:13Z</time>
      </trkpt>
      <trkpt lat="44.26785" lon="2.98795">
        <ele>965.5</ele>
        <time>2023-06-25T10:39:14Z</time>
      </trkpt>
      <trkpt lat="44.26786" lon="2.98796">
        <ele>965.6</ele>
        <time>2023-06-25T10:39:15Z</time>
      </trkpt>
      <trkpt lat="44.26789" lon="2.98799">
        <ele>966</ele>
        <time>2023-06-25T10:39:16Z</time>
      </trkpt>
      <trkpt lat="44.2679" lon="2.988">
        <ele>966.2</ele>
        <time>2023-06-25T10:39:17Z</time>
      </trkpt>
      <trkpt lat="44.26793" lon="2.98802">
        <ele>966.5</ele>
        <time>2023-06-25T10:39:19Z</time>
      </trkpt>
      <trkpt lat="44.26794" lon="2.98803">
        <ele>966.6</ele>
        <time>2023-06-25T10:39:20Z</time>
      </trkpt>
      <trkpt lat="44.26797" lon="2.98805">
        <ele>967</ele>
        <time>2023-06-25T10:39:21Z</time>
      </trkpt>
      <trkpt lat="44.26799" lon="2.98806">
        <ele>967.1</ele>
        <time>2023-06-25T10:39:22Z</time>
      </trkpt>
      <trkpt lat="44.26801" lon="2.98807">
        <ele>967.4</ele>
        <time>2023-06-25T10:39:23Z</time>
      </trkpt>
      <trkpt lat="44.26803" lon="2.98809">
        <ele>967.7</ele>
        <time>2023-06-25T10:39:25Z</time>
      </trkpt>
      <trkpt lat="44.26807" lon="2.98811">
        <ele>968.1</ele>
        <time>2023-06-25T10:39:26Z</time>
      </trkpt>
      <trkpt lat="44.26808" lon="2.98812">
        <ele>968.3</ele>
        <time>2023-06-25T10:39:27Z</time>
      </trkpt>
      <trkpt lat="44.26811" lon="2.98813">
        <ele>968.7</ele>
        <time>2023-06-25T10:39:28Z</time>
      </trkpt>
      <trkpt lat="44.26812" lon="2.98814">
        <ele>968.8</ele>
        <time>2023-06-25T10:39:29Z</time>
      </trkpt>
      <trkpt lat="44.26815" lon="2.98815">
        <ele>969.1</ele>
        <time>2023-06-25T10:39:30Z</time>
      </trkpt>
      <trkpt lat="44.26819" lon="2.98817">
        <ele>969.6</ele>
        <time>2023-06-25T10:39:32Z</time>
      </trkpt>
      <trkpt lat="44.26821" lon="2.98817">
        <ele>969.8</ele>
        <time>2023-06-25T10:39:33Z</time>
      </trkpt>
      <trkpt lat="44.26823" lon="2.98818">
        <ele>969.9</ele>
        <time>2023-06-25T10:39:34Z</time>
      </trkpt>
      <trkpt lat="44.26825" lon="2.9882">
        <ele>970.2</ele>
        <time>2023-06-25T10:39:35Z</time>
      </trkpt>
      <trkpt lat="44.26828" lon="2.98822">
        <ele>970.5</ele>
        <time>2023-06-25T10:39:37Z</time>
      </trkpt>
      <trkpt lat="44.26832" lon="2.98824">
        <ele>970.8</ele>
        <time>2023-06-25T10:39:38Z</time>
      </trkpt>
      <trkpt lat="44.26833" lon="2.98825">
        <ele>970.8</ele>
        <time>2023-06-25T10:39:39Z</time>
      </trkpt>
      <trkpt lat="44.26836" lon="2.98827">
        <ele>971.1</ele>
        <time>2023-06-25T10:39:40Z</time>
      </trkpt>
      <trkpt lat="44.26837" lon="2.98828">
        <ele>971.1</ele>
        <time>2023-06-25T10:39:41Z</time>
      </trkpt>
      <trkpt lat="44.2684" lon="2.9883">
        <ele>971.4</ele>
        <time>2023-06-25T10:39:43Z</time>
      </trkpt>
      <trkpt lat="44.26841" lon="2.98831">
        <ele>971.4</ele>
        <time>2023-06-25T10:39:44Z</time>
      </trkpt>
      <trkpt lat="44.26844" lon="2.98832">
        <ele>971.6</ele>
        <time>2023-06-25T10:39:45Z</time>
      </trkpt>
      <trkpt lat="44.26848" lon="2.98834">
        <ele>971.8</ele>
        <time>2023-06-25T10:39:46Z</time>
      </trkpt>
      <trkpt lat="44.26849" lon="2.98835">
        <ele>971.9</ele>
        <time>2023-06-25T10:39:47Z</time>
      </trkpt>
      <trkpt lat="44.26851" lon="2.98836">
        <ele>972</ele>
        <time>2023-06-25T10:39:48Z</time>
      </trkpt>
      <trkpt lat="44.26854" lon="2.98836">
        <ele>972.2</ele>
        <time>2023-06-25T10:39:50Z</time>
      </trkpt>
      <trkpt lat="44.26858" lon="2.98836">
        <ele>972.4</ele>
        <time>2023-06-25T10:39:51Z</time>
      </trkpt>
      <trkpt lat="44.26859" lon="2.98837">
        <ele>972.4</ele>
        <time>2023-06-25T10:39:52Z</time>
      </trkpt>
      <trkpt lat="44.26862" lon="2.98837">
        <ele>972.5</ele>
        <time>2023-06-25T10:39:53Z</time>
      </trkpt>
      <trkpt lat="44.26867" lon="2.98837">
        <ele>972.7</ele>
        <time>2023-06-25T10:39:55Z</time>
      </trkpt>
      <trkpt lat="44.2687" lon="2.98836">
        <ele>972.9</ele>
        <time>2023-06-25T10:39:56Z</time>
      </trkpt>
      <trkpt lat="44.26871" lon="2.98835">
        <ele>972.9</ele>
        <time>2023-06-25T10:39:57Z</time>
      </trkpt>
      <trkpt lat="44.26876" lon="2.98834">
        <ele>973.1</ele>
        <time>2023-06-25T10:39:59Z</time>
      </trkpt>
      <trkpt lat="44.26878" lon="2.98832">
        <ele>973.2</ele>
        <time>2023-06-25T10:40:00Z</time>
      </trkpt>
      <trkpt lat="44.26882" lon="2.98829">
        <ele>973.4</ele>
        <time>2023-06-25T10:40:02Z</time>
      </trkpt>
      <trkpt lat="44.26885" lon="2.98827">
        <ele>973.5</ele>
        <time>2023-06-25T10:40:03Z</time>
      </trkpt>
      <trkpt lat="44.26888" lon="2.98824">
        <ele>973.7</ele>
        <time>2023-06-25T10:40:05Z</time>
      </trkpt>
      <trkpt lat="44.26891" lon="2.98822">
        <ele>973.8</ele>
        <time>2023-06-25T10:40:06Z</time>
      </trkpt>
      <trkpt lat="44.26895" lon="2.9882">
        <ele>974.1</ele>
        <time>2023-06-25T10:40:08Z</time>
      </trkpt>
      <trkpt lat="44.26898" lon="2.98819">
        <ele>974.2</ele>
        <time>2023-06-25T10:40:09Z</time>
      </trkpt>
      <trkpt lat="44.26903" lon="2.98818">
        <ele>974.5</ele>
        <time>2023-06-25T10:40:11Z</time>
      </trkpt>
      <trkpt lat="44.26907" lon="2.98818">
        <ele>974.6</ele>
        <time>2023-06-25T10:40:12Z</time>
      </trkpt>
      <trkpt lat="44.2691" lon="2.98816">
        <ele>974.8</ele>
        <time>2023-06-25T10:40:13Z</time>
      </trkpt>
      <trkpt lat="44.26913" lon="2.98815">
        <ele>974.8</ele>
        <time>2023-06-25T10:40:14Z</time>
      </trkpt>
      <trkpt lat="44.26916" lon="2.98814">
        <ele>974.9</ele>
        <time>2023-06-25T10:40:15Z</time>
      </trkpt>
      <trkpt lat="44.2692" lon="2.98813">
        <ele>974.9</ele>
        <time>2023-06-25T10:40:17Z</time>
      </trkpt>
      <trkpt lat="44.26923" lon="2.98813">
        <ele>974.9</ele>
        <time>2023-06-25T10:40:18Z</time>
      </trkpt>
      <trkpt lat="44.26926" lon="2.98813">
        <ele>975</ele>
        <time>2023-06-25T10:40:19Z</time>
      </trkpt>
      <trkpt lat="44.26931" lon="2.98812">
        <ele>975</ele>
        <time>2023-06-25T10:40:21Z</time>
      </trkpt>
      <trkpt lat="44.26934" lon="2.98812">
        <ele>975</ele>
        <time>2023-06-25T10:40:22Z</time>
      </trkpt>
      <trkpt lat="44.26939" lon="2.98812">
        <ele>975.1</ele>
        <time>2023-06-25T10:40:24Z</time>
      </trkpt>
      <trkpt lat="44.26941" lon="2.98811">
        <ele>975.1</ele>
        <time>2023-06-25T10:40:25Z</time>
      </trkpt>
      <trkpt lat="44.26946" lon="2.9881">
        <ele>975.1</ele>
        <time>2023-06-25T10:40:27Z</time>
      </trkpt>
      <trkpt lat="44.2695" lon="2.98809">
        <ele>975.1</ele>
        <time>2023-06-25T10:40:28Z</time>
      </trkpt>
      <trkpt lat="44.26955" lon="2.98809">
        <ele>975.1</ele>
        <time>2023-06-25T10:40:29Z</time>
      </trkpt>
      <trkpt lat="44.26959" lon="2.98808">
        <ele>975</ele>
        <time>2023-06-25T10:40:30Z</time>
      </trkpt>
      <trkpt lat="44.26965" lon="2.98808">
        <ele>975</ele>
        <time>2023-06-25T10:40:32Z</time>
      </trkpt>
      <trkpt lat="44.26972" lon="2.98807">
        <ele>975</ele>
        <time>2023-06-25T10:40:34Z</time>
      </trkpt>
      <trkpt lat="44.26977" lon="2.98806">
        <ele>975</ele>
        <time>2023-06-25T10:40:35Z</time>
      </trkpt>
      <trkpt lat="44.2698" lon="2.98805">
        <ele>975</ele>
        <time>2023-06-25T10:40:36Z</time>
      </trkpt>
      <trkpt lat="44.26986" lon="2.98804">
        <ele>975</ele>
        <time>2023-06-25T10:40:38Z</time>
      </trkpt>
      <trkpt lat="44.26991" lon="2.98804">
        <ele>975.2</ele>
        <time>2023-06-25T10:40:39Z</time>
      </trkpt>
      <trkpt lat="44.26995" lon="2.98803">
        <ele>975.3</ele>
        <time>2023-06-25T10:40:40Z</time>
      </trkpt>
      <trkpt lat="44.27004" lon="2.98803">
        <ele>975.6</ele>
        <time>2023-06-25T10:40:42Z</time>
      </trkpt>
      <trkpt lat="44.27007" lon="2.98803">
        <ele>975.7</ele>
        <time>2023-06-25T10:40:43Z</time>
      </trkpt>
      <trkpt lat="44.27012" lon="2.98802">
        <ele>975.8</ele>
        <time>2023-06-25T10:40:45Z</time>
      </trkpt>
      <trkpt lat="44.27016" lon="2.98802">
        <ele>975.9</ele>
        <time>2023-06-25T10:40:46Z</time>
      </trkpt>
      <trkpt lat="44.27021" lon="2.98802">
        <ele>976</ele>
        <time>2023-06-25T10:40:47Z</time>
      </trkpt>
      <trkpt lat="44.27025" lon="2.98802">
        <ele>976.1</ele>
        <time>2023-06-25T10:40:48Z</time>
      </trkpt>
      <trkpt lat="44.27029" lon="2.98801">
        <ele>976.3</ele>
        <time>2023-06-25T10:40:49Z</time>
      </trkpt>
      <trkpt lat="44.27033" lon="2.988">
        <ele>976.4</ele>
        <time>2023-06-25T10:40:50Z</time>
      </trkpt>
      <trkpt lat="44.27037" lon="2.98801">
        <ele>976.6</ele>
        <time>2023-06-25T10:40:52Z</time>
      </trkpt>
      <trkpt lat="44.27042" lon="2.98801">
        <ele>976.6</ele>
        <time>2023-06-25T10:40:53Z</time>
      </trkpt>
      <trkpt lat="44.27045" lon="2.98801">
        <ele>976.7</ele>
        <time>2023-06-25T10:40:54Z</time>
      </trkpt>
      <trkpt lat="44.27051" lon="2.988">
        <ele>976.7</ele>
        <time>2023-06-25T10:40:56Z</time>
      </trkpt>
      <trkpt lat="44.27055" lon="2.98799">
        <ele>976.8</ele>
        <time>2023-06-25T10:40:57Z</time>
      </trkpt>
      <trkpt lat="44.2706" lon="2.98799">
        <ele>976.9</ele>
        <time>2023-06-25T10:40:58Z</time>
      </trkpt>
      <trkpt lat="44.27063" lon="2.98798">
        <ele>977</ele>
        <time>2023-06-25T10:40:59Z</time>
      </trkpt>
      <trkpt lat="44.27068" lon="2.98796">
        <ele>977.1</ele>
        <time>2023-06-25T10:41:01Z</time>
      </trkpt>
      <trkpt lat="44.27072" lon="2.98795">
        <ele>977.2</ele>
        <time>2023-06-25T10:41:02Z</time>
      </trkpt>
      <trkpt lat="44.27076" lon="2.98795">
        <ele>977.2</ele>
        <time>2023-06-25T10:41:03Z</time>
      </trkpt>
      <trkpt lat="44.27079" lon="2.98794">
        <ele>977.2</ele>
        <time>2023-06-25T10:41:04Z</time>
      </trkpt>
      <trkpt lat="44.27083" lon="2.98793">
        <ele>977.3</ele>
        <time>2023-06-25T10:41:05Z</time>
      </trkpt>
      <trkpt lat="44.27087" lon="2.98792">
        <ele>977.4</ele>
        <time>2023-06-25T10:41:06Z</time>
      </trkpt>
      <trkpt lat="44.27092" lon="2.9879">
        <ele>977.5</ele>
        <time>2023-06-25T10:41:08Z</time>
      </trkpt>
      <trkpt lat="44.27097" lon="2.98789">
        <ele>977.6</ele>
        <time>2023-06-25T10:41:09Z</time>
      </trkpt>
      <trkpt lat="44.27102" lon="2.98787">
        <ele>977.7</ele>
        <time>2023-06-25T10:41:11Z</time>
      </trkpt>
      <trkpt lat="44.27106" lon="2.98786">
        <ele>977.7</ele>
        <time>2023-06-25T10:41:12Z</time>
      </trkpt>
      <trkpt lat="44.2711" lon="2.98784">
        <ele>977.8</ele>
        <time>2023-06-25T10:41:13Z</time>
      </trkpt>
      <trkpt lat="44.27114" lon="2.98782">
        <ele>977.9</ele>
        <time>2023-06-25T10:41:14Z</time>
      </trkpt>
      <trkpt lat="44.27121" lon="2.98779">
        <ele>978</ele>
        <time>2023-06-25T10:41:16Z</time>
      </trkpt>
      <trkpt lat="44.27127" lon="2.98776">
        <ele>978.3</ele>
        <time>2023-06-25T10:41:18Z</time>
      </trkpt>
      <trkpt lat="44.27131" lon="2.98775">
        <ele>978.4</ele>
        <time>2023-06-25T10:41:19Z</time>
      </trkpt>
      <trkpt lat="44.27139" lon="2.98772">
        <ele>978.6</ele>
        <time>2023-06-25T10:41:21Z</time>
      </trkpt>
      <trkpt lat="44.27145" lon="2.9877">
        <ele>978.7</ele>
        <time>2023-06-25T10:41:23Z</time>
      </trkpt>
      <trkpt lat="44.27149" lon="2.98769">
        <ele>978.8</ele>
        <time>2023-06-25T10:41:24Z</time>
      </trkpt>
      <trkpt lat="44.27153" lon="2.98768">
        <ele>978.9</ele>
        <time>2023-06-25T10:41:25Z</time>
      </trkpt>
      <trkpt lat="44.27157" lon="2.98767">
        <ele>979</ele>
        <time>2023-06-25T10:41:26Z</time>
      </trkpt>
      <trkpt lat="44.27163" lon="2.98766">
        <ele>979.2</ele>
        <time>2023-06-25T10:41:28Z</time>
      </trkpt>
      <trkpt lat="44.27168" lon="2.98764">
        <ele>979.4</ele>
        <time>2023-06-25T10:41:29Z</time>
      </trkpt>
      <trkpt lat="44.27172" lon="2.98764">
        <ele>979.5</ele>
        <time>2023-06-25T10:41:30Z</time>
      </trkpt>
      <trkpt lat="44.27176" lon="2.98763">
        <ele>979.5</ele>
        <time>2023-06-25T10:41:31Z</time>
      </trkpt>
      <trkpt lat="44.27182" lon="2.98761">
        <ele>979.7</ele>
        <time>2023-06-25T10:41:33Z</time>
      </trkpt>
      <trkpt lat="44.27187" lon="2.9876">
        <ele>979.7</ele>
        <time>2023-06-25T10:41:34Z</time>
      </trkpt>
      <trkpt lat="44.27195" lon="2.98758">
        <ele>980</ele>
        <time>2023-06-25T10:41:36Z</time>
      </trkpt>
      <trkpt lat="44.27198" lon="2.98758">
        <ele>980.1</ele>
        <time>2023-06-25T10:41:37Z</time>
      </trkpt>
      <trkpt lat="44.27203" lon="2.98757">
        <ele>980.5</ele>
        <time>2023-06-25T10:41:39Z</time>
      </trkpt>
      <trkpt lat="44.27206" lon="2.98759">
        <ele>980.9</ele>
        <time>2023-06-25T10:41:40Z</time>
      </trkpt>
      <trkpt lat="44.2721" lon="2.9876">
        <ele>981.3</ele>
        <time>2023-06-25T10:41:41Z</time>
      </trkpt>
      <trkpt lat="44.27214" lon="2.98762">
        <ele>981.7</ele>
        <time>2023-06-25T10:41:42Z</time>
      </trkpt>
      <trkpt lat="44.27218" lon="2.98763">
        <ele>982.2</ele>
        <time>2023-06-25T10:41:43Z</time>
      </trkpt>
      <trkpt lat="44.27221" lon="2.98765">
        <ele>982.7</ele>
        <time>2023-06-25T10:41:44Z</time>
      </trkpt>
      <trkpt lat="44.27226" lon="2.98768">
        <ele>983.2</ele>
        <time>2023-06-25T10:41:46Z</time>
      </trkpt>
      <trkpt lat="44.27229" lon="2.9877">
        <ele>983.7</ele>
        <time>2023-06-25T10:41:47Z</time>
      </trkpt>
      <trkpt lat="44.27233" lon="2.98772">
        <ele>984.3</ele>
        <time>2023-06-25T10:41:48Z</time>
      </trkpt>
      <trkpt lat="44.27236" lon="2.98773">
        <ele>984.8</ele>
        <time>2023-06-25T10:41:49Z</time>
      </trkpt>
      <trkpt lat="44.27239" lon="2.98775">
        <ele>985.3</ele>
        <time>2023-06-25T10:41:50Z</time>
      </trkpt>
      <trkpt lat="44.27243" lon="2.98777">
        <ele>985.7</ele>
        <time>2023-06-25T10:41:51Z</time>
      </trkpt>
      <trkpt lat="44.27247" lon="2.98778">
        <ele>986.3</ele>
        <time>2023-06-25T10:41:53Z</time>
      </trkpt>
      <trkpt lat="44.2725" lon="2.9878">
        <ele>986.7</ele>
        <time>2023-06-25T10:41:54Z</time>
      </trkpt>
      <trkpt lat="44.27254" lon="2.98783">
        <ele>987.2</ele>
        <time>2023-06-25T10:41:55Z</time>
      </trkpt>
      <trkpt lat="44.27257" lon="2.98783">
        <ele>987.6</ele>
        <time>2023-06-25T10:41:56Z</time>
      </trkpt>
      <trkpt lat="44.27261" lon="2.98784">
        <ele>988.2</ele>
        <time>2023-06-25T10:41:57Z</time>
      </trkpt>
      <trkpt lat="44.27266" lon="2.98786">
        <ele>989</ele>
        <time>2023-06-25T10:41:59Z</time>
      </trkpt>
      <trkpt lat="44.27272" lon="2.98787">
        <ele>989.8</ele>
        <time>2023-06-25T10:42:01Z</time>
      </trkpt>
      <trkpt lat="44.27276" lon="2.98788">
        <ele>990.4</ele>
        <time>2023-06-25T10:42:02Z</time>
      </trkpt>
      <trkpt lat="44.27281" lon="2.98788">
        <ele>991.2</ele>
        <time>2023-06-25T10:42:04Z</time>
      </trkpt>
      <trkpt lat="44.27285" lon="2.98788">
        <ele>991.7</ele>
        <time>2023-06-25T10:42:05Z</time>
      </trkpt>
      <trkpt lat="44.2729" lon="2.98789">
        <ele>992.4</ele>
        <time>2023-06-25T10:42:07Z</time>
      </trkpt>
      <trkpt lat="44.27293" lon="2.98789">
        <ele>992.8</ele>
        <time>2023-06-25T10:42:08Z</time>
      </trkpt>
      <trkpt lat="44.27296" lon="2.98789">
        <ele>993.2</ele>
        <time>2023-06-25T10:42:09Z</time>
      </trkpt>
      <trkpt lat="44.27302" lon="2.98789">
        <ele>994.1</ele>
        <time>2023-06-25T10:42:11Z</time>
      </trkpt>
      <trkpt lat="44.27306" lon="2.98788">
        <ele>994.8</ele>
        <time>2023-06-25T10:42:12Z</time>
      </trkpt>
      <trkpt lat="44.27311" lon="2.98786">
        <ele>995.9</ele>
        <time>2023-06-25T10:42:14Z</time>
      </trkpt>
      <trkpt lat="44.27316" lon="2.98784">
        <ele>996.8</ele>
        <time>2023-06-25T10:42:15Z</time>
      </trkpt>
      <trkpt lat="44.2732" lon="2.98783">
        <ele>997.6</ele>
        <time>2023-06-25T10:42:16Z</time>
      </trkpt>
      <trkpt lat="44.27326" lon="2.98782">
        <ele>998.6</ele>
        <time>2023-06-25T10:42:18Z</time>
      </trkpt>
      <trkpt lat="44.2733" lon="2.98781">
        <ele>999</ele>
        <time>2023-06-25T10:42:19Z</time>
      </trkpt>
      <trkpt lat="44.27333" lon="2.98779">
        <ele>999.3</ele>
        <time>2023-06-25T10:42:20Z</time>
      </trkpt>
      <trkpt lat="44.27337" lon="2.98778">
        <ele>999.7</ele>
        <time>2023-06-25T10:42:21Z</time>
      </trkpt>
      <trkpt lat="44.27341" lon="2.98778">
        <ele>1000</ele>
        <time>2023-06-25T10:42:22Z</time>
      </trkpt>
      <trkpt lat="44.27344" lon="2.98778">
        <ele>1000.3</ele>
        <time>2023-06-25T10:42:23Z</time>
      </trkpt>
      <trkpt lat="44.27348" lon="2.98778">
        <ele>1000.7</ele>
        <time>2023-06-25T10:42:24Z</time>
      </trkpt>
      <trkpt lat="44.27353" lon="2.98777">
        <ele>1001.1</ele>
        <time>2023-06-25T10:42:26Z</time>
      </trkpt>
      <trkpt lat="44.27356" lon="2.98776">
        <ele>1001.4</ele>
        <time>2023-06-25T10:42:27Z</time>
      </trkpt>
      <trkpt lat="44.2736" lon="2.98776">
        <ele>1001.7</ele>
        <time>2023-06-25T10:42:28Z</time>
      </trkpt>
      <trkpt lat="44.27364" lon="2.98777">
        <ele>1002</ele>
        <time>2023-06-25T10:42:29Z</time>
      </trkpt>
      <trkpt lat="44.27369" lon="2.98776">
        <ele>1002.4</ele>
        <time>2023-06-25T10:42:31Z</time>
      </trkpt>
      <trkpt lat="44.27373" lon="2.98775">
        <ele>1002.7</ele>
        <time>2023-06-25T10:42:32Z</time>
      </trkpt>
      <trkpt lat="44.27379" lon="2.98772">
        <ele>1003.2</ele>
        <time>2023-06-25T10:42:34Z</time>
      </trkpt>
      <trkpt lat="44.27382" lon="2.98769">
        <ele>1003.5</ele>
        <time>2023-06-25T10:42:35Z</time>
      </trkpt>
      <trkpt lat="44.27385" lon="2.98766">
        <ele>1003.8</ele>
        <time>2023-06-25T10:42:36Z</time>
      </trkpt>
      <trkpt lat="44.27391" lon="2.98762">
        <ele>1004.3</ele>
        <time>2023-06-25T10:42:38Z</time>
      </trkpt>
      <trkpt lat="44.27394" lon="2.98759">
        <ele>1004.5</ele>
        <time>2023-06-25T10:42:39Z</time>
      </trkpt>
      <trkpt lat="44.27397" lon="2.98756">
        <ele>1004.8</ele>
        <time>2023-06-25T10:42:40Z</time>
      </trkpt>
      <trkpt lat="44.27402" lon="2.98752">
        <ele>1005.2</ele>
        <time>2023-06-25T10:42:42Z</time>
      </trkpt>
      <trkpt lat="44.27406" lon="2.98749">
        <ele>1005.5</ele>
        <time>2023-06-25T10:42:43Z</time>
      </trkpt>
      <trkpt lat="44.27409" lon="2.98746">
        <ele>1005.8</ele>
        <time>2023-06-25T10:42:44Z</time>
      </trkpt>
      <trkpt lat="44.27413" lon="2.98743">
        <ele>1006</ele>
        <time>2023-06-25T10:42:45Z</time>
      </trkpt>
      <trkpt lat="44.27417" lon="2.98739">
        <ele>1006.4</ele>
        <time>2023-06-25T10:42:46Z</time>
      </trkpt>
      <trkpt lat="44.2742" lon="2.98734">
        <ele>1006.7</ele>
        <time>2023-06-25T10:42:47Z</time>
      </trkpt>
      <trkpt lat="44.27425" lon="2.98728">
        <ele>1006.9</ele>
        <time>2023-06-25T10:42:49Z</time>
      </trkpt>
      <trkpt lat="44.27428" lon="2.98724">
        <ele>1006.2</ele>
        <time>2023-06-25T10:42:50Z</time>
      </trkpt>
      <trkpt lat="44.27432" lon="2.98719">
        <ele>1005.2</ele>
        <time>2023-06-25T10:42:51Z</time>
      </trkpt>
      <trkpt lat="44.27435" lon="2.98714">
        <ele>1004.1</ele>
        <time>2023-06-25T10:42:52Z</time>
      </trkpt>
      <trkpt lat="44.27439" lon="2.98708">
        <ele>1004</ele>
        <time>2023-06-25T10:42:54Z</time>
      </trkpt>
      <trkpt lat="44.27443" lon="2.98702">
        <ele>1003.9</ele>
        <time>2023-06-25T10:42:55Z</time>
      </trkpt>
      <trkpt lat="44.27446" lon="2.98697">
        <ele>1003.9</ele>
        <time>2023-06-25T10:42:56Z</time>
      </trkpt>
      <trkpt lat="44.27449" lon="2.98692">
        <ele>1003.8</ele>
        <time>2023-06-25T10:42:57Z</time>
      </trkpt>
      <trkpt lat="44.27452" lon="2.98687">
        <ele>1003.8</ele>
        <time>2023-06-25T10:42:58Z</time>
      </trkpt>
      <trkpt lat="44.27456" lon="2.98679">
        <ele>1003.7</ele>
        <time>2023-06-25T10:43:00Z</time>
      </trkpt>
      <trkpt lat="44.2746" lon="2.98672">
        <ele>1003.6</ele>
        <time>2023-06-25T10:43:02Z</time>
      </trkpt>
      <trkpt lat="44.27462" lon="2.98667">
        <ele>1003.6</ele>
        <time>2023-06-25T10:43:03Z</time>
      </trkpt>
      <trkpt lat="44.27465" lon="2.98662">
        <ele>1003.6</ele>
        <time>2023-06-25T10:43:04Z</time>
      </trkpt>
      <trkpt lat="44.27467" lon="2.98658">
        <ele>1003.6</ele>
        <time>2023-06-25T10:43:05Z</time>
      </trkpt>
      <trkpt lat="44.2747" lon="2.98651">
        <ele>1003.6</ele>
        <time>2023-06-25T10:43:07Z</time>
      </trkpt>
      <trkpt lat="44.27472" lon="2.98646">
        <ele>1003.6</ele>
        <time>2023-06-25T10:43:08Z</time>
      </trkpt>
      <trkpt lat="44.27474" lon="2.98642">
        <ele>1003.7</ele>
        <time>2023-06-25T10:43:09Z</time>
      </trkpt>
      <trkpt lat="44.27476" lon="2.98637">
        <ele>1003.8</ele>
        <time>2023-06-25T10:43:11Z</time>
      </trkpt>
      <trkpt lat="44.27478" lon="2.98634">
        <ele>1003.9</ele>
        <time>2023-06-25T10:43:12Z</time>
      </trkpt>
      <trkpt lat="44.2748" lon="2.98629">
        <ele>1004.1</ele>
        <time>2023-06-25T10:43:13Z</time>
      </trkpt>
      <trkpt lat="44.27483" lon="2.98626">
        <ele>1004.2</ele>
        <time>2023-06-25T10:43:14Z</time>
      </trkpt>
      <trkpt lat="44.27484" lon="2.98622">
        <ele>1004.4</ele>
        <time>2023-06-25T10:43:15Z</time>
      </trkpt>
      <trkpt lat="44.27486" lon="2.98618">
        <ele>1004.6</ele>
        <time>2023-06-25T10:43:16Z</time>
      </trkpt>
      <trkpt lat="44.27487" lon="2.98613">
        <ele>1004.8</ele>
        <time>2023-06-25T10:43:18Z</time>
      </trkpt>
      <trkpt lat="44.27488" lon="2.98609">
        <ele>1005</ele>
        <time>2023-06-25T10:43:19Z</time>
      </trkpt>
      <trkpt lat="44.27489" lon="2.98604">
        <ele>1005.2</ele>
        <time>2023-06-25T10:43:20Z</time>
      </trkpt>
      <trkpt lat="44.27491" lon="2.986">
        <ele>1005.4</ele>
        <time>2023-06-25T10:43:21Z</time>
      </trkpt>
      <trkpt lat="44.27492" lon="2.98595">
        <ele>1005.6</ele>
        <time>2023-06-25T10:43:22Z</time>
      </trkpt>
      <trkpt lat="44.27493" lon="2.98591">
        <ele>1005.8</ele>
        <time>2023-06-25T10:43:23Z</time>
      </trkpt>
      <trkpt lat="44.27494" lon="2.98586">
        <ele>1006</ele>
        <time>2023-06-25T10:43:24Z</time>
      </trkpt>
      <trkpt lat="44.27495" lon="2.98581">
        <ele>1006.3</ele>
        <time>2023-06-25T10:43:26Z</time>
      </trkpt>
      <trkpt lat="44.27496" lon="2.98576">
        <ele>1006.5</ele>
        <time>2023-06-25T10:43:27Z</time>
      </trkpt>
      <trkpt lat="44.27497" lon="2.98572">
        <ele>1006.8</ele>
        <time>2023-06-25T10:43:28Z</time>
      </trkpt>
      <trkpt lat="44.27498" lon="2.98566">
        <ele>1007.1</ele>
        <time>2023-06-25T10:43:29Z</time>
      </trkpt>
      <trkpt lat="44.27498" lon="2.98562">
        <ele>1007.3</ele>
        <time>2023-06-25T10:43:30Z</time>
      </trkpt>
      <trkpt lat="44.27498" lon="2.98557">
        <ele>1007.7</ele>
        <time>2023-06-25T10:43:31Z</time>
      </trkpt>
      <trkpt lat="44.27499" lon="2.98553">
        <ele>1008</ele>
        <time>2023-06-25T10:43:32Z</time>
      </trkpt>
      <trkpt lat="44.27499" lon="2.98549">
        <ele>1008.2</ele>
        <time>2023-06-25T10:43:33Z</time>
      </trkpt>
      <trkpt lat="44.27499" lon="2.98544">
        <ele>1008.6</ele>
        <time>2023-06-25T10:43:35Z</time>
      </trkpt>
      <trkpt lat="44.27501" lon="2.98539">
        <ele>1009</ele>
        <time>2023-06-25T10:43:36Z</time>
      </trkpt>
      <trkpt lat="44.27501" lon="2.98537">
        <ele>1009.1</ele>
        <time>2023-06-25T10:43:37Z</time>
      </trkpt>
      <trkpt lat="44.27501" lon="2.98533">
        <ele>1009.4</ele>
        <time>2023-06-25T10:43:38Z</time>
      </trkpt>
      <trkpt lat="44.27502" lon="2.98528">
        <ele>1009.8</ele>
        <time>2023-06-25T10:43:40Z</time>
      </trkpt>
      <trkpt lat="44.27503" lon="2.98524">
        <ele>1010.1</ele>
        <time>2023-06-25T10:43:41Z</time>
      </trkpt>
      <trkpt lat="44.27504" lon="2.98523">
        <ele>1010.1</ele>
        <time>2023-06-25T10:43:42Z</time>
      </trkpt>
      <trkpt lat="44.27505" lon="2.98518">
        <ele>1010.5</ele>
        <time>2023-06-25T10:43:44Z</time>
      </trkpt>
      <trkpt lat="44.27508" lon="2.98514">
        <ele>1010.8</ele>
        <time>2023-06-25T10:43:45Z</time>
      </trkpt>
      <trkpt lat="44.27508" lon="2.98513">
        <ele>1011</ele>
        <time>2023-06-25T10:43:46Z</time>
      </trkpt>
      <trkpt lat="44.27511" lon="2.98509">
        <ele>1011.3</ele>
        <time>2023-06-25T10:43:47Z</time>
      </trkpt>
      <trkpt lat="44.27512" lon="2.98508">
        <ele>1011.4</ele>
        <time>2023-06-25T10:43:48Z</time>
      </trkpt>
      <trkpt lat="44.27514" lon="2.98504">
        <ele>1011.8</ele>
        <time>2023-06-25T10:43:50Z</time>
      </trkpt>
      <trkpt lat="44.27517" lon="2.985">
        <ele>1012.1</ele>
        <time>2023-06-25T10:43:51Z</time>
      </trkpt>
      <trkpt lat="44.27518" lon="2.985">
        <ele>1012.2</ele>
        <time>2023-06-25T10:43:52Z</time>
      </trkpt>
      <trkpt lat="44.2752" lon="2.98499">
        <ele>1012.4</ele>
        <time>2023-06-25T10:43:53Z</time>
      </trkpt>
      <trkpt lat="44.27522" lon="2.98497">
        <ele>1012.7</ele>
        <time>2023-06-25T10:43:55Z</time>
      </trkpt>
      <trkpt lat="44.27525" lon="2.98495">
        <ele>1013</ele>
        <time>2023-06-25T10:43:56Z</time>
      </trkpt>
      <trkpt lat="44.27526" lon="2.98494">
        <ele>1013.1</ele>
        <time>2023-06-25T10:43:57Z</time>
      </trkpt>
      <trkpt lat="44.27529" lon="2.98492">
        <ele>1013.5</ele>
        <time>2023-06-25T10:43:58Z</time>
      </trkpt>
      <trkpt lat="44.2753" lon="2.98492">
        <ele>1013.7</ele>
        <time>2023-06-25T10:43:59Z</time>
      </trkpt>
      <trkpt lat="44.27532" lon="2.98491">
        <ele>1013.9</ele>
        <time>2023-06-25T10:44:00Z</time>
      </trkpt>
      <trkpt lat="44.27534" lon="2.9849">
        <ele>1014.1</ele>
        <time>2023-06-25T10:44:02Z</time>
      </trkpt>
      <trkpt lat="44.27537" lon="2.98488">
        <ele>1014.5</ele>
        <time>2023-06-25T10:44:03Z</time>
      </trkpt>
      <trkpt lat="44.27539" lon="2.98488">
        <ele>1014.6</ele>
        <time>2023-06-25T10:44:04Z</time>
      </trkpt>
      <trkpt lat="44.27542" lon="2.98487">
        <ele>1014.9</ele>
        <time>2023-06-25T10:44:05Z</time>
      </trkpt>
      <trkpt lat="44.27543" lon="2.98486">
        <ele>1015</ele>
        <time>2023-06-25T10:44:06Z</time>
      </trkpt>
      <trkpt lat="44.27546" lon="2.98485">
        <ele>1015.2</ele>
        <time>2023-06-25T10:44:07Z</time>
      </trkpt>
      <trkpt lat="44.2755" lon="2.98483">
        <ele>1015.6</ele>
        <time>2023-06-25T10:44:09Z</time>
      </trkpt>
      <trkpt lat="44.27552" lon="2.98482">
        <ele>1015.8</ele>
        <time>2023-06-25T10:44:10Z</time>
      </trkpt>
      <trkpt lat="44.27554" lon="2.98481">
        <ele>1016</ele>
        <time>2023-06-25T10:44:11Z</time>
      </trkpt>
      <trkpt lat="44.27557" lon="2.9848">
        <ele>1016.2</ele>
        <time>2023-06-25T10:44:12Z</time>
      </trkpt>
      <trkpt lat="44.27559" lon="2.98478">
        <ele>1016.5</ele>
        <time>2023-06-25T10:44:13Z</time>
      </trkpt>
      <trkpt lat="44.27562" lon="2.98476">
        <ele>1016.9</ele>
        <time>2023-06-25T10:44:15Z</time>
      </trkpt>
      <trkpt lat="44.27565" lon="2.98474">
        <ele>1017.3</ele>
        <time>2023-06-25T10:44:16Z</time>
      </trkpt>
      <trkpt lat="44.27566" lon="2.98473">
        <ele>1017.4</ele>
        <time>2023-06-25T10:44:17Z</time>
      </trkpt>
      <trkpt lat="44.27568" lon="2.98471">
        <ele>1017.8</ele>
        <time>2023-06-25T10:44:19Z</time>
      </trkpt>
      <trkpt lat="44.27569" lon="2.9847">
        <ele>1018</ele>
        <time>2023-06-25T10:44:20Z</time>
      </trkpt>
      <trkpt lat="44.27573" lon="2.98469">
        <ele>1018.5</ele>
        <time>2023-06-25T10:44:21Z</time>
      </trkpt>
      <trkpt lat="44.27574" lon="2.98469">
        <ele>1018.6</ele>
        <time>2023-06-25T10:44:22Z</time>
      </trkpt>
      <trkpt lat="44.27576" lon="2.98467">
        <ele>1019</ele>
        <time>2023-06-25T10:44:23Z</time>
      </trkpt>
      <trkpt lat="44.27578" lon="2.98466">
        <ele>1019.1</ele>
        <time>2023-06-25T10:44:24Z</time>
      </trkpt>
      <trkpt lat="44.2758" lon="2.98466">
        <ele>1019.4</ele>
        <time>2023-06-25T10:44:25Z</time>
      </trkpt>
      <trkpt lat="44.27582" lon="2.98464">
        <ele>1019.7</ele>
        <time>2023-06-25T10:44:27Z</time>
      </trkpt>
      <trkpt lat="44.27585" lon="2.98463">
        <ele>1020.1</ele>
        <time>2023-06-25T10:44:28Z</time>
      </trkpt>
      <trkpt lat="44.27586" lon="2.98463">
        <ele>1020.2</ele>
        <time>2023-06-25T10:44:29Z</time>
      </trkpt>
      <trkpt lat="44.27589" lon="2.98461">
        <ele>1020.6</ele>
        <time>2023-06-25T10:44:30Z</time>
      </trkpt>
      <trkpt lat="44.2759" lon="2.9846">
        <ele>1020.7</ele>
        <time>2023-06-25T10:44:31Z</time>
      </trkpt>
      <trkpt lat="44.27592" lon="2.98459">
        <ele>1021</ele>
        <time>2023-06-25T10:44:32Z</time>
      </trkpt>
      <trkpt lat="44.27596" lon="2.98457">
        <ele>1021.4</ele>
        <time>2023-06-25T10:44:34Z</time>
      </trkpt>
      <trkpt lat="44.27598" lon="2.98457">
        <ele>1021.6</ele>
        <time>2023-06-25T10:44:35Z</time>
      </trkpt>
      <trkpt lat="44.276" lon="2.98456">
        <ele>1021.8</ele>
        <time>2023-06-25T10:44:37Z</time>
      </trkpt>
      <trkpt lat="44.27604" lon="2.98454">
        <ele>1022.1</ele>
        <time>2023-06-25T10:44:38Z</time>
      </trkpt>
      <trkpt lat="44.27605" lon="2.98453">
        <ele>1022.2</ele>
        <time>2023-06-25T10:44:39Z</time>
      </trkpt>
      <trkpt lat="44.27608" lon="2.98452">
        <ele>1022.5</ele>
        <time>2023-06-25T10:44:40Z</time>
      </trkpt>
      <trkpt lat="44.27609" lon="2.98451">
        <ele>1022.6</ele>
        <time>2023-06-25T10:44:41Z</time>
      </trkpt>
      <trkpt lat="44.27611" lon="2.9845">
        <ele>1022.8</ele>
        <time>2023-06-25T10:44:42Z</time>
      </trkpt>
      <trkpt lat="44.27615" lon="2.98448">
        <ele>1023</ele>
        <time>2023-06-25T10:44:44Z</time>
      </trkpt>
      <trkpt lat="44.27617" lon="2.98447">
        <ele>1023.2</ele>
        <time>2023-06-25T10:44:45Z</time>
      </trkpt>
      <trkpt lat="44.2762" lon="2.98446">
        <ele>1023.4</ele>
        <time>2023-06-25T10:44:47Z</time>
      </trkpt>
      <trkpt lat="44.27623" lon="2.98445">
        <ele>1023.6</ele>
        <time>2023-06-25T10:44:48Z</time>
      </trkpt>
      <trkpt lat="44.27625" lon="2.98443">
        <ele>1023.8</ele>
        <time>2023-06-25T10:44:49Z</time>
      </trkpt>
      <trkpt lat="44.27629" lon="2.98441">
        <ele>1024</ele>
        <time>2023-06-25T10:44:51Z</time>
      </trkpt>
      <trkpt lat="44.27631" lon="2.9844">
        <ele>1024.2</ele>
        <time>2023-06-25T10:44:52Z</time>
      </trkpt>
      <trkpt lat="44.27635" lon="2.98439">
        <ele>1024.4</ele>
        <time>2023-06-25T10:44:54Z</time>
      </trkpt>
      <trkpt lat="44.27639" lon="2.98436">
        <ele>1024.7</ele>
        <time>2023-06-25T10:44:55Z</time>
      </trkpt>
      <trkpt lat="44.2764" lon="2.98435">
        <ele>1024.7</ele>
        <time>2023-06-25T10:44:56Z</time>
      </trkpt>
      <trkpt lat="44.27643" lon="2.98435">
        <ele>1024.6</ele>
        <time>2023-06-25T10:44:58Z</time>
      </trkpt>
      <trkpt lat="44.27646" lon="2.98434">
        <ele>1024.6</ele>
        <time>2023-06-25T10:44:59Z</time>
      </trkpt>
      <trkpt lat="44.27649" lon="2.98432">
        <ele>1024.6</ele>
        <time>2023-06-25T10:45:00Z</time>
      </trkpt>
      <trkpt lat="44.27651" lon="2.98431">
        <ele>1024.6</ele>
        <time>2023-06-25T10:45:01Z</time>
      </trkpt>
      <trkpt lat="44.27655" lon="2.98431">
        <ele>1024.5</ele>
        <time>2023-06-25T10:45:02Z</time>
      </trkpt>
      <trkpt lat="44.2766" lon="2.9843">
        <ele>1024.5</ele>
        <time>2023-06-25T10:45:04Z</time>
      </trkpt>
      <trkpt lat="44.27662" lon="2.98427">
        <ele>1024.4</ele>
        <time>2023-06-25T10:45:06Z</time>
      </trkpt>
      <trkpt lat="44.27662" lon="2.98426">
        <ele>1024.4</ele>
        <time>2023-06-25T10:45:07Z</time>
      </trkpt>
      <trkpt lat="44.27661" lon="2.98428">
        <ele>1024.4</ele>
        <time>2023-06-25T10:45:08Z</time>
      </trkpt>
      <trkpt lat="44.27661" lon="2.98428">
        <ele>1024.4</ele>
        <time>2023-06-25T10:45:10Z</time>
      </trkpt>
      <trkpt lat="44.27661" lon="2.98428">
        <ele>1024.4</ele>
        <time>2023-06-25T10:45:11Z</time>
      </trkpt>
      <trkpt lat="44.27661" lon="2.98428">
        <ele>1024.4</ele>
        <time>2023-06-25T10:45:12Z</time>
      </trkpt>
      <trkpt lat="44.27661" lon="2.98428">
        <ele>1024.4</ele>
        <time>2023-06-25T10:45:13Z</time>
      </trkpt>
      <trkpt lat="44.27661" lon="2.98428">
        <ele>1024.4</ele>
        <time>2023-06-25T10:45:14Z</time>
      </trkpt>
      <trkpt lat="44.2766" lon="2.98427">
        <ele>1024.3</ele>
        <time>2023-06-25T10:45:16Z</time>
      </trkpt>
      <trkpt lat="44.2766" lon="2.98427">
        <ele>1024.3</ele>
        <time>2023-06-25T10:45:17Z</time>
      </trkpt>
      <trkpt lat="44.2766" lon="2.98427">
        <ele>1024.3</ele>
        <time>2023-06-25T10:45:18Z</time>
      </trkpt>
      <trkpt lat="44.2766" lon="2.98428">
        <ele>1024.3</ele>
        <time>2023-06-25T10:45:19Z</time>
      </trkpt>
      <trkpt lat="44.2766" lon="2.98427">
        <ele>1024.3</ele>
        <time>2023-06-25T10:45:21Z</time>
      </trkpt>
      <trkpt lat="44.27659" lon="2.98427">
        <ele>1024.3</ele>
        <time>2023-06-25T10:45:22Z</time>
      </trkpt>
      <trkpt lat="44.27661" lon="2.9843">
        <ele>1024.3</ele>
        <time>2023-06-25T10:46:41Z</time>
      </trkpt>
      <trkpt lat="44.27665" lon="2.98431">
        <ele>1024.2</ele>
        <time>2023-06-25T10:46:42Z</time>
      </trkpt>
      <trkpt lat="44.2767" lon="2.98431">
        <ele>1024.1</ele>
        <time>2023-06-25T10:46:43Z</time>
      </trkpt>
      <trkpt lat="44.27674" lon="2.98431">
        <ele>1024.1</ele>
        <time>2023-06-25T10:46:44Z</time>
      </trkpt>
      <trkpt lat="44.2768" lon="2.98431">
        <ele>1024</ele>
        <time>2023-06-25T10:46:45Z</time>
      </trkpt>
      <trkpt lat="44.27683" lon="2.98431">
        <ele>1023.9</ele>
        <time>2023-06-25T10:46:46Z</time>
      </trkpt>
      <trkpt lat="44.27692" lon="2.98432">
        <ele>1023.8</ele>
        <time>2023-06-25T10:46:48Z</time>
      </trkpt>
      <trkpt lat="44.27697" lon="2.98434">
        <ele>1023.6</ele>
        <time>2023-06-25T10:46:49Z</time>
      </trkpt>
      <trkpt lat="44.27703" lon="2.98435">
        <ele>1023.5</ele>
        <time>2023-06-25T10:46:51Z</time>
      </trkpt>
      <trkpt lat="44.27709" lon="2.98437">
        <ele>1023.3</ele>
        <time>2023-06-25T10:46:52Z</time>
      </trkpt>
      <trkpt lat="44.27713" lon="2.98438">
        <ele>1023.3</ele>
        <time>2023-06-25T10:46:53Z</time>
      </trkpt>
      <trkpt lat="44.2772" lon="2.98441">
        <ele>1023.2</ele>
        <time>2023-06-25T10:46:54Z</time>
      </trkpt>
      <trkpt lat="44.27725" lon="2.98444">
        <ele>1023.1</ele>
        <time>2023-06-25T10:46:55Z</time>
      </trkpt>
      <trkpt lat="44.27731" lon="2.98446">
        <ele>1023.1</ele>
        <time>2023-06-25T10:46:56Z</time>
      </trkpt>
      <trkpt lat="44.27736" lon="2.9845">
        <ele>1023</ele>
        <time>2023-06-25T10:46:57Z</time>
      </trkpt>
      <trkpt lat="44.2774" lon="2.98453">
        <ele>1023</ele>
        <time>2023-06-25T10:46:58Z</time>
      </trkpt>
      <trkpt lat="44.27745" lon="2.98456">
        <ele>1023</ele>
        <time>2023-06-25T10:46:59Z</time>
      </trkpt>
      <trkpt lat="44.2775" lon="2.9846">
        <ele>1023</ele>
        <time>2023-06-25T10:47:00Z</time>
      </trkpt>
      <trkpt lat="44.27755" lon="2.98464">
        <ele>1023</ele>
        <time>2023-06-25T10:47:01Z</time>
      </trkpt>
      <trkpt lat="44.27759" lon="2.98468">
        <ele>1022.9</ele>
        <time>2023-06-25T10:47:02Z</time>
      </trkpt>
      <trkpt lat="44.27763" lon="2.98472">
        <ele>1022.9</ele>
        <time>2023-06-25T10:47:03Z</time>
      </trkpt>
      <trkpt lat="44.27767" lon="2.98476">
        <ele>1022.9</ele>
        <time>2023-06-25T10:47:04Z</time>
      </trkpt>
      <trkpt lat="44.27771" lon="2.98481">
        <ele>1022.9</ele>
        <time>2023-06-25T10:47:05Z</time>
      </trkpt>
      <trkpt lat="44.27775" lon="2.98485">
        <ele>1023</ele>
        <time>2023-06-25T10:47:06Z</time>
      </trkpt>
      <trkpt lat="44.27778" lon="2.9849">
        <ele>1023</ele>
        <time>2023-06-25T10:47:07Z</time>
      </trkpt>
      <trkpt lat="44.27781" lon="2.98494">
        <ele>1023</ele>
        <time>2023-06-25T10:47:08Z</time>
      </trkpt>
      <trkpt lat="44.27785" lon="2.98499">
        <ele>1023.1</ele>
        <time>2023-06-25T10:47:09Z</time>
      </trkpt>
      <trkpt lat="44.27788" lon="2.98503">
        <ele>1023.1</ele>
        <time>2023-06-25T10:47:10Z</time>
      </trkpt>
      <trkpt lat="44.2779" lon="2.98507">
        <ele>1023.2</ele>
        <time>2023-06-25T10:47:11Z</time>
      </trkpt>
      <trkpt lat="44.27793" lon="2.98511">
        <ele>1023.3</ele>
        <time>2023-06-25T10:47:12Z</time>
      </trkpt>
      <trkpt lat="44.27797" lon="2.98516">
        <ele>1023.3</ele>
        <time>2023-06-25T10:47:13Z</time>
      </trkpt>
      <trkpt lat="44.278" lon="2.98521">
        <ele>1023.4</ele>
        <time>2023-06-25T10:47:14Z</time>
      </trkpt>
      <trkpt lat="44.27803" lon="2.98526">
        <ele>1023.5</ele>
        <time>2023-06-25T10:47:15Z</time>
      </trkpt>
      <trkpt lat="44.27804" lon="2.98528">
        <ele>1023.5</ele>
        <time>2023-06-25T10:47:16Z</time>
      </trkpt>
      <trkpt lat="44.27808" lon="2.98533">
        <ele>1023.7</ele>
        <time>2023-06-25T10:47:17Z</time>
      </trkpt>
      <trkpt lat="44.27811" lon="2.98538">
        <ele>1023.8</ele>
        <time>2023-06-25T10:47:18Z</time>
      </trkpt>
      <trkpt lat="44.27814" lon="2.98543">
        <ele>1023.9</ele>
        <time>2023-06-25T10:47:19Z</time>
      </trkpt>
      <trkpt lat="44.27817" lon="2.98548">
        <ele>1024</ele>
        <time>2023-06-25T10:47:20Z</time>
      </trkpt>
      <trkpt lat="44.2782" lon="2.98554">
        <ele>1024.1</ele>
        <time>2023-06-25T10:47:21Z</time>
      </trkpt>
      <trkpt lat="44.27824" lon="2.98559">
        <ele>1024.2</ele>
        <time>2023-06-25T10:47:22Z</time>
      </trkpt>
      <trkpt lat="44.27826" lon="2.98564">
        <ele>1024.3</ele>
        <time>2023-06-25T10:47:23Z</time>
      </trkpt>
      <trkpt lat="44.2783" lon="2.98569">
        <ele>1024.4</ele>
        <time>2023-06-25T10:47:24Z</time>
      </trkpt>
      <trkpt lat="44.27833" lon="2.98571">
        <ele>1024.4</ele>
        <time>2023-06-25T10:47:25Z</time>
      </trkpt>
      <trkpt lat="44.27837" lon="2.98577">
        <ele>1024.5</ele>
        <time>2023-06-25T10:47:26Z</time>
      </trkpt>
      <trkpt lat="44.27842" lon="2.98582">
        <ele>1024.6</ele>
        <time>2023-06-25T10:47:27Z</time>
      </trkpt>
      <trkpt lat="44.27845" lon="2.98586">
        <ele>1024.7</ele>
        <time>2023-06-25T10:47:28Z</time>
      </trkpt>
      <trkpt lat="44.2785" lon="2.9859">
        <ele>1024.9</ele>
        <time>2023-06-25T10:47:29Z</time>
      </trkpt>
      <trkpt lat="44.27854" lon="2.98595">
        <ele>1025.1</ele>
        <time>2023-06-25T10:47:30Z</time>
      </trkpt>
      <trkpt lat="44.27858" lon="2.98599">
        <ele>1025.2</ele>
        <time>2023-06-25T10:47:31Z</time>
      </trkpt>
      <trkpt lat="44.27862" lon="2.98603">
        <ele>1025.4</ele>
        <time>2023-06-25T10:47:32Z</time>
      </trkpt>
      <trkpt lat="44.27866" lon="2.98607">
        <ele>1025.5</ele>
        <time>2023-06-25T10:47:33Z</time>
      </trkpt>
      <trkpt lat="44.2787" lon="2.98612">
        <ele>1025.6</ele>
        <time>2023-06-25T10:47:34Z</time>
      </trkpt>
      <trkpt lat="44.27873" lon="2.98617">
        <ele>1025.7</ele>
        <time>2023-06-25T10:47:35Z</time>
      </trkpt>
      <trkpt lat="44.27877" lon="2.9862">
        <ele>1025.7</ele>
        <time>2023-06-25T10:47:36Z</time>
      </trkpt>
      <trkpt lat="44.27881" lon="2.98623">
        <ele>1025.6</ele>
        <time>2023-06-25T10:47:38Z</time>
      </trkpt>
      <trkpt lat="44.27885" lon="2.98624">
        <ele>1025.3</ele>
        <time>2023-06-25T10:47:39Z</time>
      </trkpt>
      <trkpt lat="44.2789" lon="2.98627">
        <ele>1025</ele>
        <time>2023-06-25T10:47:40Z</time>
      </trkpt>
      <trkpt lat="44.27894" lon="2.9863">
        <ele>1024.7</ele>
        <time>2023-06-25T10:47:41Z</time>
      </trkpt>
      <trkpt lat="44.279" lon="2.98634">
        <ele>1024.4</ele>
        <time>2023-06-25T10:47:43Z</time>
      </trkpt>
      <trkpt lat="44.27908" lon="2.98637">
        <ele>1024</ele>
        <time>2023-06-25T10:47:44Z</time>
      </trkpt>
      <trkpt lat="44.27913" lon="2.98639">
        <ele>1023.8</ele>
        <time>2023-06-25T10:47:45Z</time>
      </trkpt>
      <trkpt lat="44.27918" lon="2.98641">
        <ele>1023.6</ele>
        <time>2023-06-25T10:47:46Z</time>
      </trkpt>
      <trkpt lat="44.27923" lon="2.98644">
        <ele>1023.3</ele>
        <time>2023-06-25T10:47:47Z</time>
      </trkpt>
      <trkpt lat="44.27928" lon="2.98647">
        <ele>1023.2</ele>
        <time>2023-06-25T10:47:48Z</time>
      </trkpt>
      <trkpt lat="44.27934" lon="2.9865">
        <ele>1023</ele>
        <time>2023-06-25T10:47:49Z</time>
      </trkpt>
      <trkpt lat="44.27939" lon="2.98653">
        <ele>1022.8</ele>
        <time>2023-06-25T10:47:50Z</time>
      </trkpt>
      <trkpt lat="44.27944" lon="2.98655">
        <ele>1022.7</ele>
        <time>2023-06-25T10:47:51Z</time>
      </trkpt>
      <trkpt lat="44.27949" lon="2.98656">
        <ele>1022.6</ele>
        <time>2023-06-25T10:47:52Z</time>
      </trkpt>
      <trkpt lat="44.27954" lon="2.98656">
        <ele>1022.5</ele>
        <time>2023-06-25T10:47:53Z</time>
      </trkpt>
      <trkpt lat="44.27958" lon="2.98656">
        <ele>1022.4</ele>
        <time>2023-06-25T10:47:55Z</time>
      </trkpt>
      <trkpt lat="44.27962" lon="2.98648">
        <ele>1022.3</ele>
        <time>2023-06-25T10:47:56Z</time>
      </trkpt>
      <trkpt lat="44.27966" lon="2.98639">
        <ele>1022.1</ele>
        <time>2023-06-25T10:47:57Z</time>
      </trkpt>
      <trkpt lat="44.2797" lon="2.9863">
        <ele>1021.9</ele>
        <time>2023-06-25T10:47:58Z</time>
      </trkpt>
      <trkpt lat="44.27973" lon="2.98624">
        <ele>1021.7</ele>
        <time>2023-06-25T10:47:59Z</time>
      </trkpt>
      <trkpt lat="44.27977" lon="2.98617">
        <ele>1021.6</ele>
        <time>2023-06-25T10:48:00Z</time>
      </trkpt>
      <trkpt lat="44.2798" lon="2.98611">
        <ele>1021.4</ele>
        <time>2023-06-25T10:48:01Z</time>
      </trkpt>
      <trkpt lat="44.27983" lon="2.98606">
        <ele>1021.3</ele>
        <time>2023-06-25T10:48:02Z</time>
      </trkpt>
      <trkpt lat="44.27987" lon="2.98601">
        <ele>1021.1</ele>
        <time>2023-06-25T10:48:03Z</time>
      </trkpt>
      <trkpt lat="44.27991" lon="2.98596">
        <ele>1021</ele>
        <time>2023-06-25T10:48:04Z</time>
      </trkpt>
      <trkpt lat="44.27996" lon="2.98591">
        <ele>1020.8</ele>
        <time>2023-06-25T10:48:05Z</time>
      </trkpt>
      <trkpt lat="44.28001" lon="2.98587">
        <ele>1020.7</ele>
        <time>2023-06-25T10:48:06Z</time>
      </trkpt>
      <trkpt lat="44.28006" lon="2.98583">
        <ele>1020.5</ele>
        <time>2023-06-25T10:48:07Z</time>
      </trkpt>
      <trkpt lat="44.28011" lon="2.9858">
        <ele>1020.4</ele>
        <time>2023-06-25T10:48:08Z</time>
      </trkpt>
      <trkpt lat="44.28017" lon="2.98577">
        <ele>1020.3</ele>
        <time>2023-06-25T10:48:09Z</time>
      </trkpt>
      <trkpt lat="44.28022" lon="2.98575">
        <ele>1020.1</ele>
        <time>2023-06-25T10:48:10Z</time>
      </trkpt>
      <trkpt lat="44.28027" lon="2.98573">
        <ele>1020</ele>
        <time>2023-06-25T10:48:11Z</time>
      </trkpt>
      <trkpt lat="44.28032" lon="2.98572">
        <ele>1019.9</ele>
        <time>2023-06-25T10:48:12Z</time>
      </trkpt>
      <trkpt lat="44.28038" lon="2.98571">
        <ele>1019.8</ele>
        <time>2023-06-25T10:48:13Z</time>
      </trkpt>
      <trkpt lat="44.28043" lon="2.98571">
        <ele>1019.7</ele>
        <time>2023-06-25T10:48:14Z</time>
      </trkpt>
      <trkpt lat="44.28048" lon="2.98571">
        <ele>1019.6</ele>
        <time>2023-06-25T10:48:15Z</time>
      </trkpt>
      <trkpt lat="44.28054" lon="2.98571">
        <ele>1019.5</ele>
        <time>2023-06-25T10:48:16Z</time>
      </trkpt>
      <trkpt lat="44.28059" lon="2.9857">
        <ele>1019.4</ele>
        <time>2023-06-25T10:48:17Z</time>
      </trkpt>
      <trkpt lat="44.28064" lon="2.98571">
        <ele>1019.2</ele>
        <time>2023-06-25T10:48:18Z</time>
      </trkpt>
      <trkpt lat="44.2807" lon="2.98572">
        <ele>1019.1</ele>
        <time>2023-06-25T10:48:19Z</time>
      </trkpt>
      <trkpt lat="44.28076" lon="2.98573">
        <ele>1018.9</ele>
        <time>2023-06-25T10:48:20Z</time>
      </trkpt>
      <trkpt lat="44.28081" lon="2.98574">
        <ele>1018.8</ele>
        <time>2023-06-25T10:48:21Z</time>
      </trkpt>
      <trkpt lat="44.28086" lon="2.98576">
        <ele>1018.6</ele>
        <time>2023-06-25T10:48:22Z</time>
      </trkpt>
      <trkpt lat="44.28092" lon="2.98577">
        <ele>1018.4</ele>
        <time>2023-06-25T10:48:23Z</time>
      </trkpt>
      <trkpt lat="44.28097" lon="2.98579">
        <ele>1018.2</ele>
        <time>2023-06-25T10:48:24Z</time>
      </trkpt>
      <trkpt lat="44.28102" lon="2.9858">
        <ele>1018</ele>
        <time>2023-06-25T10:48:25Z</time>
      </trkpt>
      <trkpt lat="44.28107" lon="2.98582">
        <ele>1017.8</ele>
        <time>2023-06-25T10:48:26Z</time>
      </trkpt>
      <trkpt lat="44.28112" lon="2.98584">
        <ele>1017.7</ele>
        <time>2023-06-25T10:48:27Z</time>
      </trkpt>
      <trkpt lat="44.28118" lon="2.98586">
        <ele>1017.5</ele>
        <time>2023-06-25T10:48:28Z</time>
      </trkpt>
      <trkpt lat="44.28123" lon="2.98589">
        <ele>1017.3</ele>
        <time>2023-06-25T10:48:29Z</time>
      </trkpt>
      <trkpt lat="44.28128" lon="2.98592">
        <ele>1017</ele>
        <time>2023-06-25T10:48:30Z</time>
      </trkpt>
      <trkpt lat="44.28133" lon="2.98594">
        <ele>1016.8</ele>
        <time>2023-06-25T10:48:31Z</time>
      </trkpt>
      <trkpt lat="44.28139" lon="2.98596">
        <ele>1016.6</ele>
        <time>2023-06-25T10:48:32Z</time>
      </trkpt>
      <trkpt lat="44.28144" lon="2.98597">
        <ele>1016.4</ele>
        <time>2023-06-25T10:48:33Z</time>
      </trkpt>
      <trkpt lat="44.28151" lon="2.98598">
        <ele>1016.1</ele>
        <time>2023-06-25T10:48:34Z</time>
      </trkpt>
      <trkpt lat="44.28158" lon="2.98597">
        <ele>1015.9</ele>
        <time>2023-06-25T10:48:35Z</time>
      </trkpt>
      <trkpt lat="44.28165" lon="2.98594">
        <ele>1015.7</ele>
        <time>2023-06-25T10:48:36Z</time>
      </trkpt>
      <trkpt lat="44.28171" lon="2.98588">
        <ele>1015.7</ele>
        <time>2023-06-25T10:48:37Z</time>
      </trkpt>
      <trkpt lat="44.28176" lon="2.98583">
        <ele>1015.6</ele>
        <time>2023-06-25T10:48:38Z</time>
      </trkpt>
      <trkpt lat="44.28181" lon="2.98578">
        <ele>1015.7</ele>
        <time>2023-06-25T10:48:39Z</time>
      </trkpt>
      <trkpt lat="44.28185" lon="2.98574">
        <ele>1015.7</ele>
        <time>2023-06-25T10:48:40Z</time>
      </trkpt>
      <trkpt lat="44.2819" lon="2.98569">
        <ele>1015.9</ele>
        <time>2023-06-25T10:48:41Z</time>
      </trkpt>
      <trkpt lat="44.28194" lon="2.98565">
        <ele>1016</ele>
        <time>2023-06-25T10:48:42Z</time>
      </trkpt>
      <trkpt lat="44.28197" lon="2.98561">
        <ele>1016.2</ele>
        <time>2023-06-25T10:48:43Z</time>
      </trkpt>
      <trkpt lat="44.28199" lon="2.98558">
        <ele>1016.2</ele>
        <time>2023-06-25T10:48:44Z</time>
      </trkpt>
      <trkpt lat="44.28202" lon="2.98553">
        <ele>1016.4</ele>
        <time>2023-06-25T10:48:45Z</time>
      </trkpt>
      <trkpt lat="44.28205" lon="2.9855">
        <ele>1016.6</ele>
        <time>2023-06-25T10:48:46Z</time>
      </trkpt>
      <trkpt lat="44.28207" lon="2.98546">
        <ele>1016.7</ele>
        <time>2023-06-25T10:48:47Z</time>
      </trkpt>
      <trkpt lat="44.28209" lon="2.98544">
        <ele>1016.8</ele>
        <time>2023-06-25T10:48:48Z</time>
      </trkpt>
      <trkpt lat="44.28211" lon="2.98541">
        <ele>1016.9</ele>
        <time>2023-06-25T10:48:49Z</time>
      </trkpt>
      <trkpt lat="44.28214" lon="2.98536">
        <ele>1017.2</ele>
        <time>2023-06-25T10:48:50Z</time>
      </trkpt>
      <trkpt lat="44.28216" lon="2.98532">
        <ele>1017.4</ele>
        <time>2023-06-25T10:48:51Z</time>
      </trkpt>
      <trkpt lat="44.2822" lon="2.98528">
        <ele>1017.6</ele>
        <time>2023-06-25T10:48:53Z</time>
      </trkpt>
      <trkpt lat="44.28226" lon="2.98521">
        <ele>1017.9</ele>
        <time>2023-06-25T10:48:54Z</time>
      </trkpt>
      <trkpt lat="44.2823" lon="2.98516">
        <ele>1018.1</ele>
        <time>2023-06-25T10:48:56Z</time>
      </trkpt>
      <trkpt lat="44.28234" lon="2.98511">
        <ele>1018.3</ele>
        <time>2023-06-25T10:48:57Z</time>
      </trkpt>
      <trkpt lat="44.28238" lon="2.98507">
        <ele>1018.5</ele>
        <time>2023-06-25T10:48:58Z</time>
      </trkpt>
      <trkpt lat="44.28244" lon="2.98501">
        <ele>1018.7</ele>
        <time>2023-06-25T10:49:00Z</time>
      </trkpt>
      <trkpt lat="44.28248" lon="2.98497">
        <ele>1018.9</ele>
        <time>2023-06-25T10:49:01Z</time>
      </trkpt>
      <trkpt lat="44.28254" lon="2.98493">
        <ele>1019.1</ele>
        <time>2023-06-25T10:49:03Z</time>
      </trkpt>
      <trkpt lat="44.28255" lon="2.98492">
        <ele>1019.2</ele>
        <time>2023-06-25T10:49:04Z</time>
      </trkpt>
      <trkpt lat="44.28256" lon="2.98492">
        <ele>1019.2</ele>
        <time>2023-06-25T10:49:05Z</time>
      </trkpt>
      <trkpt lat="44.28257" lon="2.98491">
        <ele>1019.2</ele>
        <time>2023-06-25T10:49:07Z</time>
      </trkpt>
      <trkpt lat="44.28257" lon="2.98491">
        <ele>1019.3</ele>
        <time>2023-06-25T10:49:08Z</time>
      </trkpt>
      <trkpt lat="44.28258" lon="2.98491">
        <ele>1019.3</ele>
        <time>2023-06-25T10:49:09Z</time>
      </trkpt>
      <trkpt lat="44.28258" lon="2.98491">
        <ele>1019.3</ele>
        <time>2023-06-25T10:49:10Z</time>
      </trkpt>
      <trkpt lat="44.28259" lon="2.9849">
        <ele>1019.3</ele>
        <time>2023-06-25T10:49:11Z</time>
      </trkpt>
      <trkpt lat="44.2826" lon="2.9849">
        <ele>1019.4</ele>
        <time>2023-06-25T10:49:12Z</time>
      </trkpt>
      <trkpt lat="44.2826" lon="2.9849">
        <ele>1019.4</ele>
        <time>2023-06-25T10:49:13Z</time>
      </trkpt>
      <trkpt lat="44.28261" lon="2.9849">
        <ele>1019.4</ele>
        <time>2023-06-25T10:49:28Z</time>
      </trkpt>
      <trkpt lat="44.28261" lon="2.9849">
        <ele>1019.4</ele>
        <time>2023-06-25T10:49:29Z</time>
      </trkpt>
      <trkpt lat="44.28262" lon="2.98489">
        <ele>1019.5</ele>
        <time>2023-06-25T10:49:30Z</time>
      </trkpt>
      <trkpt lat="44.28262" lon="2.98489">
        <ele>1019.5</ele>
        <time>2023-06-25T10:49:31Z</time>
      </trkpt>
      <trkpt lat="44.28266" lon="2.98486">
        <ele>1019.6</ele>
        <time>2023-06-25T10:49:33Z</time>
      </trkpt>
      <trkpt lat="44.28269" lon="2.98483">
        <ele>1019.8</ele>
        <time>2023-06-25T10:49:34Z</time>
      </trkpt>
      <trkpt lat="44.28272" lon="2.9848">
        <ele>1019.9</ele>
        <time>2023-06-25T10:49:35Z</time>
      </trkpt>
      <trkpt lat="44.28274" lon="2.98478">
        <ele>1020</ele>
        <time>2023-06-25T10:49:36Z</time>
      </trkpt>
      <trkpt lat="44.28277" lon="2.98476">
        <ele>1020.1</ele>
        <time>2023-06-25T10:49:37Z</time>
      </trkpt>
      <trkpt lat="44.28282" lon="2.98471">
        <ele>1020.2</ele>
        <time>2023-06-25T10:49:39Z</time>
      </trkpt>
      <trkpt lat="44.28286" lon="2.98466">
        <ele>1020.3</ele>
        <time>2023-06-25T10:49:40Z</time>
      </trkpt>
      <trkpt lat="44.28288" lon="2.98463">
        <ele>1020.4</ele>
        <time>2023-06-25T10:49:41Z</time>
      </trkpt>
      <trkpt lat="44.28293" lon="2.98458">
        <ele>1020.5</ele>
        <time>2023-06-25T10:49:42Z</time>
      </trkpt>
      <trkpt lat="44.28296" lon="2.98453">
        <ele>1020.6</ele>
        <time>2023-06-25T10:49:43Z</time>
      </trkpt>
      <trkpt lat="44.28301" lon="2.98448">
        <ele>1020.7</ele>
        <time>2023-06-25T10:49:45Z</time>
      </trkpt>
      <trkpt lat="44.28305" lon="2.98445">
        <ele>1020.8</ele>
        <time>2023-06-25T10:49:46Z</time>
      </trkpt>
      <trkpt lat="44.28308" lon="2.98441">
        <ele>1020.8</ele>
        <time>2023-06-25T10:49:47Z</time>
      </trkpt>
      <trkpt lat="44.28313" lon="2.98438">
        <ele>1020.9</ele>
        <time>2023-06-25T10:49:49Z</time>
      </trkpt>
      <trkpt lat="44.28317" lon="2.98435">
        <ele>1021</ele>
        <time>2023-06-25T10:49:50Z</time>
      </trkpt>
      <trkpt lat="44.28322" lon="2.98431">
        <ele>1021.1</ele>
        <time>2023-06-25T10:49:51Z</time>
      </trkpt>
      <trkpt lat="44.28326" lon="2.98428">
        <ele>1021.2</ele>
        <time>2023-06-25T10:49:52Z</time>
      </trkpt>
      <trkpt lat="44.28331" lon="2.98425">
        <ele>1021.3</ele>
        <time>2023-06-25T10:49:54Z</time>
      </trkpt>
      <trkpt lat="44.28336" lon="2.98424">
        <ele>1021.4</ele>
        <time>2023-06-25T10:49:55Z</time>
      </trkpt>
      <trkpt lat="44.2834" lon="2.98422">
        <ele>1021.6</ele>
        <time>2023-06-25T10:49:57Z</time>
      </trkpt>
      <trkpt lat="44.28344" lon="2.9842">
        <ele>1021.8</ele>
        <time>2023-06-25T10:49:58Z</time>
      </trkpt>
      <trkpt lat="44.28348" lon="2.98419">
        <ele>1021.9</ele>
        <time>2023-06-25T10:49:59Z</time>
      </trkpt>
      <trkpt lat="44.28354" lon="2.98419">
        <ele>1022.2</ele>
        <time>2023-06-25T10:50:00Z</time>
      </trkpt>
      <trkpt lat="44.28359" lon="2.98418">
        <ele>1022.5</ele>
        <time>2023-06-25T10:50:01Z</time>
      </trkpt>
      <trkpt lat="44.28363" lon="2.98416">
        <ele>1022.7</ele>
        <time>2023-06-25T10:50:03Z</time>
      </trkpt>
      <trkpt lat="44.28368" lon="2.98414">
        <ele>1023</ele>
        <time>2023-06-25T10:50:04Z</time>
      </trkpt>
      <trkpt lat="44.28373" lon="2.98412">
        <ele>1023.3</ele>
        <time>2023-06-25T10:50:05Z</time>
      </trkpt>
      <trkpt lat="44.28377" lon="2.98411">
        <ele>1023.6</ele>
        <time>2023-06-25T10:50:06Z</time>
      </trkpt>
      <trkpt lat="44.28381" lon="2.9841">
        <ele>1023.9</ele>
        <time>2023-06-25T10:50:07Z</time>
      </trkpt>
      <trkpt lat="44.28385" lon="2.9841">
        <ele>1024.2</ele>
        <time>2023-06-25T10:50:08Z</time>
      </trkpt>
      <trkpt lat="44.2839" lon="2.98411">
        <ele>1024.6</ele>
        <time>2023-06-25T10:50:10Z</time>
      </trkpt>
      <trkpt lat="44.28396" lon="2.98411">
        <ele>1025</ele>
        <time>2023-06-25T10:50:11Z</time>
      </trkpt>
      <trkpt lat="44.284" lon="2.98412">
        <ele>1025.4</ele>
        <time>2023-06-25T10:50:13Z</time>
      </trkpt>
      <trkpt lat="44.28405" lon="2.98412">
        <ele>1025.7</ele>
        <time>2023-06-25T10:50:14Z</time>
      </trkpt>
      <trkpt lat="44.28408" lon="2.98412">
        <ele>1025.9</ele>
        <time>2023-06-25T10:50:15Z</time>
      </trkpt>
      <trkpt lat="44.28413" lon="2.98411">
        <ele>1026.3</ele>
        <time>2023-06-25T10:50:17Z</time>
      </trkpt>
      <trkpt lat="44.28417" lon="2.98411">
        <ele>1026.5</ele>
        <time>2023-06-25T10:50:18Z</time>
      </trkpt>
      <trkpt lat="44.2842" lon="2.98411">
        <ele>1026.7</ele>
        <time>2023-06-25T10:50:19Z</time>
      </trkpt>
      <trkpt lat="44.28425" lon="2.98409">
        <ele>1027.1</ele>
        <time>2023-06-25T10:50:21Z</time>
      </trkpt>
      <trkpt lat="44.28428" lon="2.98408">
        <ele>1027.3</ele>
        <time>2023-06-25T10:50:22Z</time>
      </trkpt>
      <trkpt lat="44.28431" lon="2.98407">
        <ele>1027.5</ele>
        <time>2023-06-25T10:50:23Z</time>
      </trkpt>
      <trkpt lat="44.28434" lon="2.98407">
        <ele>1027.8</ele>
        <time>2023-06-25T10:50:24Z</time>
      </trkpt>
      <trkpt lat="44.28437" lon="2.98407">
        <ele>1028</ele>
        <time>2023-06-25T10:50:25Z</time>
      </trkpt>
      <trkpt lat="44.28441" lon="2.98407">
        <ele>1028.3</ele>
        <time>2023-06-25T10:50:26Z</time>
      </trkpt>
      <trkpt lat="44.28444" lon="2.98406">
        <ele>1028.5</ele>
        <time>2023-06-25T10:50:27Z</time>
      </trkpt>
      <trkpt lat="44.28448" lon="2.98406">
        <ele>1028.8</ele>
        <time>2023-06-25T10:50:28Z</time>
      </trkpt>
      <trkpt lat="44.28451" lon="2.98405">
        <ele>1029.1</ele>
        <time>2023-06-25T10:50:29Z</time>
      </trkpt>
      <trkpt lat="44.28455" lon="2.98404">
        <ele>1029.4</ele>
        <time>2023-06-25T10:50:30Z</time>
      </trkpt>
      <trkpt lat="44.2846" lon="2.98403">
        <ele>1029.7</ele>
        <time>2023-06-25T10:50:31Z</time>
      </trkpt>
      <trkpt lat="44.28464" lon="2.98402">
        <ele>1030.1</ele>
        <time>2023-06-25T10:50:33Z</time>
      </trkpt>
      <trkpt lat="44.28467" lon="2.98401">
        <ele>1030.3</ele>
        <time>2023-06-25T10:50:34Z</time>
      </trkpt>
      <trkpt lat="44.2847" lon="2.984">
        <ele>1030.5</ele>
        <time>2023-06-25T10:50:35Z</time>
      </trkpt>
      <trkpt lat="44.28473" lon="2.98398">
        <ele>1030.6</ele>
        <time>2023-06-25T10:50:36Z</time>
      </trkpt>
      <trkpt lat="44.28477" lon="2.98396">
        <ele>1030.9</ele>
        <time>2023-06-25T10:50:38Z</time>
      </trkpt>
      <trkpt lat="44.28482" lon="2.98391">
        <ele>1031.1</ele>
        <time>2023-06-25T10:50:39Z</time>
      </trkpt>
      <trkpt lat="44.28486" lon="2.98388">
        <ele>1031.3</ele>
        <time>2023-06-25T10:50:41Z</time>
      </trkpt>
      <trkpt lat="44.28488" lon="2.98386">
        <ele>1031.4</ele>
        <time>2023-06-25T10:50:42Z</time>
      </trkpt>
      <trkpt lat="44.28492" lon="2.98384">
        <ele>1031.6</ele>
        <time>2023-06-25T10:50:43Z</time>
      </trkpt>
      <trkpt lat="44.28496" lon="2.98382">
        <ele>1031.7</ele>
        <time>2023-06-25T10:50:44Z</time>
      </trkpt>
      <trkpt lat="44.28499" lon="2.98379">
        <ele>1031.9</ele>
        <time>2023-06-25T10:50:45Z</time>
      </trkpt>
      <trkpt lat="44.28504" lon="2.98375">
        <ele>1032</ele>
        <time>2023-06-25T10:50:47Z</time>
      </trkpt>
      <trkpt lat="44.28507" lon="2.98372">
        <ele>1032.1</ele>
        <time>2023-06-25T10:50:48Z</time>
      </trkpt>
      <trkpt lat="44.28511" lon="2.98367">
        <ele>1032.2</ele>
        <time>2023-06-25T10:50:50Z</time>
      </trkpt>
      <trkpt lat="44.28513" lon="2.98364">
        <ele>1032.3</ele>
        <time>2023-06-25T10:50:51Z</time>
      </trkpt>
      <trkpt lat="44.28516" lon="2.98359">
        <ele>1032.3</ele>
        <time>2023-06-25T10:50:52Z</time>
      </trkpt>
      <trkpt lat="44.2852" lon="2.98353">
        <ele>1032.3</ele>
        <time>2023-06-25T10:50:53Z</time>
      </trkpt>
      <trkpt lat="44.28523" lon="2.9835">
        <ele>1032.3</ele>
        <time>2023-06-25T10:50:54Z</time>
      </trkpt>
      <trkpt lat="44.28527" lon="2.98345">
        <ele>1032.3</ele>
        <time>2023-06-25T10:50:56Z</time>
      </trkpt>
      <trkpt lat="44.28528" lon="2.98342">
        <ele>1032.3</ele>
        <time>2023-06-25T10:50:57Z</time>
      </trkpt>
      <trkpt lat="44.28532" lon="2.98337">
        <ele>1032.3</ele>
        <time>2023-06-25T10:50:58Z</time>
      </trkpt>
      <trkpt lat="44.28536" lon="2.98333">
        <ele>1032.2</ele>
        <time>2023-06-25T10:50:59Z</time>
      </trkpt>
      <trkpt lat="44.28544" lon="2.98321">
        <ele>1032.1</ele>
        <time>2023-06-25T10:51:01Z</time>
      </trkpt>
      <trkpt lat="44.28548" lon="2.98315">
        <ele>1032</ele>
        <time>2023-06-25T10:51:03Z</time>
      </trkpt>
      <trkpt lat="44.28551" lon="2.9831">
        <ele>1031.9</ele>
        <time>2023-06-25T10:51:04Z</time>
      </trkpt>
      <trkpt lat="44.28556" lon="2.98303">
        <ele>1031.8</ele>
        <time>2023-06-25T10:51:05Z</time>
      </trkpt>
      <trkpt lat="44.28559" lon="2.98298">
        <ele>1031.7</ele>
        <time>2023-06-25T10:51:06Z</time>
      </trkpt>
      <trkpt lat="44.28564" lon="2.9829">
        <ele>1031.6</ele>
        <time>2023-06-25T10:51:07Z</time>
      </trkpt>
      <trkpt lat="44.28567" lon="2.98286">
        <ele>1031.5</ele>
        <time>2023-06-25T10:51:08Z</time>
      </trkpt>
      <trkpt lat="44.2857" lon="2.98279">
        <ele>1031.4</ele>
        <time>2023-06-25T10:51:10Z</time>
      </trkpt>
      <trkpt lat="44.28574" lon="2.98274">
        <ele>1031.3</ele>
        <time>2023-06-25T10:51:11Z</time>
      </trkpt>
      <trkpt lat="44.28577" lon="2.98268">
        <ele>1031.2</ele>
        <time>2023-06-25T10:51:12Z</time>
      </trkpt>
      <trkpt lat="44.28581" lon="2.98263">
        <ele>1031.1</ele>
        <time>2023-06-25T10:51:13Z</time>
      </trkpt>
      <trkpt lat="44.28585" lon="2.98258">
        <ele>1030.9</ele>
        <time>2023-06-25T10:51:14Z</time>
      </trkpt>
      <trkpt lat="44.28591" lon="2.98249">
        <ele>1030.8</ele>
        <time>2023-06-25T10:51:16Z</time>
      </trkpt>
      <trkpt lat="44.28595" lon="2.98244">
        <ele>1030.7</ele>
        <time>2023-06-25T10:51:17Z</time>
      </trkpt>
      <trkpt lat="44.28599" lon="2.98239">
        <ele>1030.6</ele>
        <time>2023-06-25T10:51:18Z</time>
      </trkpt>
      <trkpt lat="44.28603" lon="2.98233">
        <ele>1030.4</ele>
        <time>2023-06-25T10:51:19Z</time>
      </trkpt>
      <trkpt lat="44.28609" lon="2.98226">
        <ele>1030.2</ele>
        <time>2023-06-25T10:51:21Z</time>
      </trkpt>
      <trkpt lat="44.28613" lon="2.98221">
        <ele>1030.1</ele>
        <time>2023-06-25T10:51:22Z</time>
      </trkpt>
      <trkpt lat="44.28618" lon="2.98215">
        <ele>1030</ele>
        <time>2023-06-25T10:51:23Z</time>
      </trkpt>
      <trkpt lat="44.28625" lon="2.98209">
        <ele>1030</ele>
        <time>2023-06-25T10:51:25Z</time>
      </trkpt>
      <trkpt lat="44.28632" lon="2.98204">
        <ele>1029.9</ele>
        <time>2023-06-25T10:51:26Z</time>
      </trkpt>
      <trkpt lat="44.28637" lon="2.982">
        <ele>1029.8</ele>
        <time>2023-06-25T10:51:27Z</time>
      </trkpt>
      <trkpt lat="44.28641" lon="2.98195">
        <ele>1029.7</ele>
        <time>2023-06-25T10:51:28Z</time>
      </trkpt>
      <trkpt lat="44.28646" lon="2.98191">
        <ele>1029.7</ele>
        <time>2023-06-25T10:51:29Z</time>
      </trkpt>
      <trkpt lat="44.2865" lon="2.98187">
        <ele>1029.5</ele>
        <time>2023-06-25T10:51:30Z</time>
      </trkpt>
      <trkpt lat="44.28655" lon="2.98184">
        <ele>1029.4</ele>
        <time>2023-06-25T10:51:31Z</time>
      </trkpt>
      <trkpt lat="44.2866" lon="2.9818">
        <ele>1029.3</ele>
        <time>2023-06-25T10:51:32Z</time>
      </trkpt>
      <trkpt lat="44.28664" lon="2.98176">
        <ele>1029.1</ele>
        <time>2023-06-25T10:51:33Z</time>
      </trkpt>
      <trkpt lat="44.28669" lon="2.98172">
        <ele>1029</ele>
        <time>2023-06-25T10:51:34Z</time>
      </trkpt>
      <trkpt lat="44.28673" lon="2.98168">
        <ele>1028.8</ele>
        <time>2023-06-25T10:51:35Z</time>
      </trkpt>
      <trkpt lat="44.28677" lon="2.98164">
        <ele>1028.7</ele>
        <time>2023-06-25T10:51:36Z</time>
      </trkpt>
      <trkpt lat="44.28682" lon="2.9816">
        <ele>1028.6</ele>
        <time>2023-06-25T10:51:37Z</time>
      </trkpt>
      <trkpt lat="44.28686" lon="2.98155">
        <ele>1028.5</ele>
        <time>2023-06-25T10:51:38Z</time>
      </trkpt>
      <trkpt lat="44.28691" lon="2.98151">
        <ele>1028.4</ele>
        <time>2023-06-25T10:51:39Z</time>
      </trkpt>
      <trkpt lat="44.28695" lon="2.98146">
        <ele>1028.3</ele>
        <time>2023-06-25T10:51:40Z</time>
      </trkpt>
      <trkpt lat="44.287" lon="2.98141">
        <ele>1028.2</ele>
        <time>2023-06-25T10:51:41Z</time>
      </trkpt>
      <trkpt lat="44.28704" lon="2.98137">
        <ele>1028.1</ele>
        <time>2023-06-25T10:51:42Z</time>
      </trkpt>
      <trkpt lat="44.28709" lon="2.98133">
        <ele>1028</ele>
        <time>2023-06-25T10:51:43Z</time>
      </trkpt>
      <trkpt lat="44.28713" lon="2.98128">
        <ele>1027.9</ele>
        <time>2023-06-25T10:51:44Z</time>
      </trkpt>
      <trkpt lat="44.28717" lon="2.98124">
        <ele>1027.8</ele>
        <time>2023-06-25T10:51:45Z</time>
      </trkpt>
      <trkpt lat="44.28721" lon="2.9812">
        <ele>1027.7</ele>
        <time>2023-06-25T10:51:46Z</time>
      </trkpt>
      <trkpt lat="44.28726" lon="2.98116">
        <ele>1027.6</ele>
        <time>2023-06-25T10:51:47Z</time>
      </trkpt>
      <trkpt lat="44.2873" lon="2.98112">
        <ele>1027.4</ele>
        <time>2023-06-25T10:51:48Z</time>
      </trkpt>
      <trkpt lat="44.28734" lon="2.98107">
        <ele>1027.3</ele>
        <time>2023-06-25T10:51:49Z</time>
      </trkpt>
      <trkpt lat="44.28739" lon="2.98103">
        <ele>1027.2</ele>
        <time>2023-06-25T10:51:50Z</time>
      </trkpt>
      <trkpt lat="44.28743" lon="2.98099">
        <ele>1027</ele>
        <time>2023-06-25T10:51:51Z</time>
      </trkpt>
      <trkpt lat="44.28748" lon="2.98094">
        <ele>1026.9</ele>
        <time>2023-06-25T10:51:52Z</time>
      </trkpt>
      <trkpt lat="44.28753" lon="2.98089">
        <ele>1026.7</ele>
        <time>2023-06-25T10:51:53Z</time>
      </trkpt>
      <trkpt lat="44.28757" lon="2.98085">
        <ele>1026.5</ele>
        <time>2023-06-25T10:51:54Z</time>
      </trkpt>
      <trkpt lat="44.28762" lon="2.9808">
        <ele>1026.3</ele>
        <time>2023-06-25T10:51:55Z</time>
      </trkpt>
      <trkpt lat="44.28766" lon="2.98075">
        <ele>1026</ele>
        <time>2023-06-25T10:51:56Z</time>
      </trkpt>
      <trkpt lat="44.28771" lon="2.9807">
        <ele>1025.8</ele>
        <time>2023-06-25T10:51:57Z</time>
      </trkpt>
      <trkpt lat="44.28776" lon="2.98065">
        <ele>1025.6</ele>
        <time>2023-06-25T10:51:58Z</time>
      </trkpt>
      <trkpt lat="44.28781" lon="2.9806">
        <ele>1025.3</ele>
        <time>2023-06-25T10:51:59Z</time>
      </trkpt>
      <trkpt lat="44.28786" lon="2.98055">
        <ele>1025.1</ele>
        <time>2023-06-25T10:52:00Z</time>
      </trkpt>
      <trkpt lat="44.28791" lon="2.98049">
        <ele>1024.9</ele>
        <time>2023-06-25T10:52:01Z</time>
      </trkpt>
      <trkpt lat="44.28796" lon="2.98044">
        <ele>1024.8</ele>
        <time>2023-06-25T10:52:02Z</time>
      </trkpt>
      <trkpt lat="44.28801" lon="2.98038">
        <ele>1024.7</ele>
        <time>2023-06-25T10:52:03Z</time>
      </trkpt>
      <trkpt lat="44.28806" lon="2.98033">
        <ele>1024.6</ele>
        <time>2023-06-25T10:52:04Z</time>
      </trkpt>
      <trkpt lat="44.28811" lon="2.98028">
        <ele>1024.6</ele>
        <time>2023-06-25T10:52:05Z</time>
      </trkpt>
      <trkpt lat="44.28816" lon="2.98023">
        <ele>1024.6</ele>
        <time>2023-06-25T10:52:06Z</time>
      </trkpt>
      <trkpt lat="44.28821" lon="2.98019">
        <ele>1024.7</ele>
        <time>2023-06-25T10:52:07Z</time>
      </trkpt>
      <trkpt lat="44.28826" lon="2.98015">
        <ele>1024.8</ele>
        <time>2023-06-25T10:52:08Z</time>
      </trkpt>
      <trkpt lat="44.2883" lon="2.98011">
        <ele>1024.9</ele>
        <time>2023-06-25T10:52:09Z</time>
      </trkpt>
      <trkpt lat="44.28835" lon="2.98008">
        <ele>1025</ele>
        <time>2023-06-25T10:52:10Z</time>
      </trkpt>
      <trkpt lat="44.2884" lon="2.98005">
        <ele>1025.2</ele>
        <time>2023-06-25T10:52:11Z</time>
      </trkpt>
      <trkpt lat="44.28844" lon="2.98002">
        <ele>1025.5</ele>
        <time>2023-06-25T10:52:12Z</time>
      </trkpt>
      <trkpt lat="44.28848" lon="2.98">
        <ele>1025.7</ele>
        <time>2023-06-25T10:52:13Z</time>
      </trkpt>
      <trkpt lat="44.28853" lon="2.97998">
        <ele>1025.9</ele>
        <time>2023-06-25T10:52:14Z</time>
      </trkpt>
      <trkpt lat="44.28856" lon="2.97998">
        <ele>1026.1</ele>
        <time>2023-06-25T10:52:15Z</time>
      </trkpt>
      <trkpt lat="44.2886" lon="2.97996">
        <ele>1026.3</ele>
        <time>2023-06-25T10:52:16Z</time>
      </trkpt>
      <trkpt lat="44.28863" lon="2.97994">
        <ele>1026.6</ele>
        <time>2023-06-25T10:52:17Z</time>
      </trkpt>
      <trkpt lat="44.28867" lon="2.97992">
        <ele>1026.9</ele>
        <time>2023-06-25T10:52:18Z</time>
      </trkpt>
      <trkpt lat="44.2887" lon="2.97991">
        <ele>1027.1</ele>
        <time>2023-06-25T10:52:19Z</time>
      </trkpt>
      <trkpt lat="44.28873" lon="2.97989">
        <ele>1027.4</ele>
        <time>2023-06-25T10:52:20Z</time>
      </trkpt>
      <trkpt lat="44.28877" lon="2.97988">
        <ele>1027.7</ele>
        <time>2023-06-25T10:52:21Z</time>
      </trkpt>
      <trkpt lat="44.28878" lon="2.97987">
        <ele>1027.9</ele>
        <time>2023-06-25T10:52:22Z</time>
      </trkpt>
      <trkpt lat="44.28882" lon="2.97983">
        <ele>1028.3</ele>
        <time>2023-06-25T10:52:23Z</time>
      </trkpt>
      <trkpt lat="44.28886" lon="2.9798">
        <ele>1028.7</ele>
        <time>2023-06-25T10:52:25Z</time>
      </trkpt>
      <trkpt lat="44.28889" lon="2.97977">
        <ele>1029.1</ele>
        <time>2023-06-25T10:52:26Z</time>
      </trkpt>
      <trkpt lat="44.28892" lon="2.97974">
        <ele>1029.5</ele>
        <time>2023-06-25T10:52:27Z</time>
      </trkpt>
      <trkpt lat="44.28894" lon="2.97972">
        <ele>1029.8</ele>
        <time>2023-06-25T10:52:28Z</time>
      </trkpt>
      <trkpt lat="44.28897" lon="2.97968">
        <ele>1030.3</ele>
        <time>2023-06-25T10:52:30Z</time>
      </trkpt>
      <trkpt lat="44.28899" lon="2.97966">
        <ele>1030.6</ele>
        <time>2023-06-25T10:52:31Z</time>
      </trkpt>
      <trkpt lat="44.28902" lon="2.97964">
        <ele>1030.9</ele>
        <time>2023-06-25T10:52:32Z</time>
      </trkpt>
      <trkpt lat="44.28905" lon="2.97961">
        <ele>1031.4</ele>
        <time>2023-06-25T10:52:33Z</time>
      </trkpt>
      <trkpt lat="44.28908" lon="2.97958">
        <ele>1031.8</ele>
        <time>2023-06-25T10:52:34Z</time>
      </trkpt>
      <trkpt lat="44.2891" lon="2.97956">
        <ele>1032.2</ele>
        <time>2023-06-25T10:52:35Z</time>
      </trkpt>
      <trkpt lat="44.28913" lon="2.97954">
        <ele>1032.5</ele>
        <time>2023-06-25T10:52:37Z</time>
      </trkpt>
      <trkpt lat="44.28916" lon="2.97952">
        <ele>1032.9</ele>
        <time>2023-06-25T10:52:38Z</time>
      </trkpt>
      <trkpt lat="44.28919" lon="2.97949">
        <ele>1033.2</ele>
        <time>2023-06-25T10:52:39Z</time>
      </trkpt>
      <trkpt lat="44.28922" lon="2.97947">
        <ele>1033.6</ele>
        <time>2023-06-25T10:52:40Z</time>
      </trkpt>
      <trkpt lat="44.28924" lon="2.97945">
        <ele>1033.9</ele>
        <time>2023-06-25T10:52:42Z</time>
      </trkpt>
      <trkpt lat="44.28928" lon="2.97942">
        <ele>1034.2</ele>
        <time>2023-06-25T10:52:43Z</time>
      </trkpt>
      <trkpt lat="44.2893" lon="2.9794">
        <ele>1034.5</ele>
        <time>2023-06-25T10:52:44Z</time>
      </trkpt>
      <trkpt lat="44.28933" lon="2.97938">
        <ele>1034.8</ele>
        <time>2023-06-25T10:52:45Z</time>
      </trkpt>
      <trkpt lat="44.28935" lon="2.97935">
        <ele>1035</ele>
        <time>2023-06-25T10:52:47Z</time>
      </trkpt>
      <trkpt lat="44.28938" lon="2.97932">
        <ele>1035.3</ele>
        <time>2023-06-25T10:52:48Z</time>
      </trkpt>
      <trkpt lat="44.28941" lon="2.97929">
        <ele>1035.6</ele>
        <time>2023-06-25T10:52:49Z</time>
      </trkpt>
      <trkpt lat="44.28944" lon="2.97927">
        <ele>1035.8</ele>
        <time>2023-06-25T10:52:50Z</time>
      </trkpt>
      <trkpt lat="44.28947" lon="2.97924">
        <ele>1036</ele>
        <time>2023-06-25T10:52:51Z</time>
      </trkpt>
      <trkpt lat="44.28951" lon="2.97922">
        <ele>1036.3</ele>
        <time>2023-06-25T10:52:52Z</time>
      </trkpt>
      <trkpt lat="44.28957" lon="2.97918">
        <ele>1036.6</ele>
        <time>2023-06-25T10:52:54Z</time>
      </trkpt>
      <trkpt lat="44.2896" lon="2.97916">
        <ele>1036.7</ele>
        <time>2023-06-25T10:52:55Z</time>
      </trkpt>
      <trkpt lat="44.28962" lon="2.97914">
        <ele>1036.8</ele>
        <time>2023-06-25T10:52:56Z</time>
      </trkpt>
      <trkpt lat="44.28965" lon="2.97912">
        <ele>1036.9</ele>
        <time>2023-06-25T10:52:57Z</time>
      </trkpt>
      <trkpt lat="44.28968" lon="2.9791">
        <ele>1037</ele>
        <time>2023-06-25T10:52:58Z</time>
      </trkpt>
      <trkpt lat="44.28971" lon="2.97909">
        <ele>1037.1</ele>
        <time>2023-06-25T10:53:00Z</time>
      </trkpt>
      <trkpt lat="44.28974" lon="2.97907">
        <ele>1037.2</ele>
        <time>2023-06-25T10:53:01Z</time>
      </trkpt>
      <trkpt lat="44.28977" lon="2.97905">
        <ele>1037.2</ele>
        <time>2023-06-25T10:53:02Z</time>
      </trkpt>
      <trkpt lat="44.28982" lon="2.97899">
        <ele>1037.3</ele>
        <time>2023-06-25T10:53:04Z</time>
      </trkpt>
      <trkpt lat="44.28986" lon="2.97897">
        <ele>1037.3</ele>
        <time>2023-06-25T10:53:05Z</time>
      </trkpt>
      <trkpt lat="44.2899" lon="2.97894">
        <ele>1037.4</ele>
        <time>2023-06-25T10:53:06Z</time>
      </trkpt>
      <trkpt lat="44.28994" lon="2.97891">
        <ele>1037.4</ele>
        <time>2023-06-25T10:53:07Z</time>
      </trkpt>
      <trkpt lat="44.28999" lon="2.97888">
        <ele>1037.4</ele>
        <time>2023-06-25T10:53:09Z</time>
      </trkpt>
      <trkpt lat="44.29003" lon="2.97885">
        <ele>1037.4</ele>
        <time>2023-06-25T10:53:10Z</time>
      </trkpt>
      <trkpt lat="44.29006" lon="2.97883">
        <ele>1037.4</ele>
        <time>2023-06-25T10:53:11Z</time>
      </trkpt>
      <trkpt lat="44.2901" lon="2.97879">
        <ele>1037.4</ele>
        <time>2023-06-25T10:53:12Z</time>
      </trkpt>
      <trkpt lat="44.29014" lon="2.97876">
        <ele>1037.3</ele>
        <time>2023-06-25T10:53:13Z</time>
      </trkpt>
      <trkpt lat="44.29018" lon="2.97873">
        <ele>1037.3</ele>
        <time>2023-06-25T10:53:14Z</time>
      </trkpt>
      <trkpt lat="44.29025" lon="2.97868">
        <ele>1037.2</ele>
        <time>2023-06-25T10:53:16Z</time>
      </trkpt>
      <trkpt lat="44.29029" lon="2.97865">
        <ele>1037.1</ele>
        <time>2023-06-25T10:53:17Z</time>
      </trkpt>
      <trkpt lat="44.29034" lon="2.97862">
        <ele>1037</ele>
        <time>2023-06-25T10:53:18Z</time>
      </trkpt>
      <trkpt lat="44.29039" lon="2.97858">
        <ele>1037</ele>
        <time>2023-06-25T10:53:20Z</time>
      </trkpt>
      <trkpt lat="44.29049" lon="2.97851">
        <ele>1036.9</ele>
        <time>2023-06-25T10:53:22Z</time>
      </trkpt>
      <trkpt lat="44.29054" lon="2.97847">
        <ele>1036.8</ele>
        <time>2023-06-25T10:53:24Z</time>
      </trkpt>
      <trkpt lat="44.29058" lon="2.97844">
        <ele>1036.8</ele>
        <time>2023-06-25T10:53:25Z</time>
      </trkpt>
      <trkpt lat="44.29064" lon="2.97841">
        <ele>1036.8</ele>
        <time>2023-06-25T10:53:26Z</time>
      </trkpt>
      <trkpt lat="44.29067" lon="2.97838">
        <ele>1036.8</ele>
        <time>2023-06-25T10:53:27Z</time>
      </trkpt>
      <trkpt lat="44.29072" lon="2.97834">
        <ele>1036.8</ele>
        <time>2023-06-25T10:53:28Z</time>
      </trkpt>
      <trkpt lat="44.29079" lon="2.97826">
        <ele>1036.8</ele>
        <time>2023-06-25T10:53:30Z</time>
      </trkpt>
      <trkpt lat="44.29082" lon="2.9782">
        <ele>1036.8</ele>
        <time>2023-06-25T10:53:31Z</time>
      </trkpt>
      <trkpt lat="44.29085" lon="2.97813">
        <ele>1036.8</ele>
        <time>2023-06-25T10:53:32Z</time>
      </trkpt>
      <trkpt lat="44.29086" lon="2.97806">
        <ele>1036.8</ele>
        <time>2023-06-25T10:53:33Z</time>
      </trkpt>
      <trkpt lat="44.29087" lon="2.97796">
        <ele>1036.8</ele>
        <time>2023-06-25T10:53:35Z</time>
      </trkpt>
      <trkpt lat="44.29086" lon="2.97791">
        <ele>1036.8</ele>
        <time>2023-06-25T10:53:36Z</time>
      </trkpt>
      <trkpt lat="44.29083" lon="2.97784">
        <ele>1036.7</ele>
        <time>2023-06-25T10:53:38Z</time>
      </trkpt>
      <trkpt lat="44.2908" lon="2.97779">
        <ele>1036.6</ele>
        <time>2023-06-25T10:53:39Z</time>
      </trkpt>
      <trkpt lat="44.29076" lon="2.97773">
        <ele>1036.6</ele>
        <time>2023-06-25T10:53:40Z</time>
      </trkpt>
      <trkpt lat="44.29073" lon="2.97768">
        <ele>1036.5</ele>
        <time>2023-06-25T10:53:41Z</time>
      </trkpt>
      <trkpt lat="44.29069" lon="2.97762">
        <ele>1036.4</ele>
        <time>2023-06-25T10:53:42Z</time>
      </trkpt>
      <trkpt lat="44.29066" lon="2.97756">
        <ele>1036.3</ele>
        <time>2023-06-25T10:53:43Z</time>
      </trkpt>
      <trkpt lat="44.29064" lon="2.97751">
        <ele>1036.3</ele>
        <time>2023-06-25T10:53:44Z</time>
      </trkpt>
      <trkpt lat="44.29062" lon="2.97745">
        <ele>1036.2</ele>
        <time>2023-06-25T10:53:45Z</time>
      </trkpt>
      <trkpt lat="44.2906" lon="2.97739">
        <ele>1036.1</ele>
        <time>2023-06-25T10:53:46Z</time>
      </trkpt>
      <trkpt lat="44.29058" lon="2.97733">
        <ele>1036</ele>
        <time>2023-06-25T10:53:47Z</time>
      </trkpt>
      <trkpt lat="44.29056" lon="2.97726">
        <ele>1035.9</ele>
        <time>2023-06-25T10:53:48Z</time>
      </trkpt>
      <trkpt lat="44.29054" lon="2.9772">
        <ele>1035.7</ele>
        <time>2023-06-25T10:53:49Z</time>
      </trkpt>
      <trkpt lat="44.29053" lon="2.97714">
        <ele>1035.6</ele>
        <time>2023-06-25T10:53:50Z</time>
      </trkpt>
      <trkpt lat="44.29051" lon="2.97707">
        <ele>1035.5</ele>
        <time>2023-06-25T10:53:51Z</time>
      </trkpt>
      <trkpt lat="44.29051" lon="2.97699">
        <ele>1035.4</ele>
        <time>2023-06-25T10:53:52Z</time>
      </trkpt>
      <trkpt lat="44.2905" lon="2.97692">
        <ele>1035.2</ele>
        <time>2023-06-25T10:53:53Z</time>
      </trkpt>
      <trkpt lat="44.29049" lon="2.97685">
        <ele>1035.1</ele>
        <time>2023-06-25T10:53:54Z</time>
      </trkpt>
      <trkpt lat="44.29049" lon="2.97677">
        <ele>1035</ele>
        <time>2023-06-25T10:53:55Z</time>
      </trkpt>
      <trkpt lat="44.29049" lon="2.97669">
        <ele>1034.8</ele>
        <time>2023-06-25T10:53:56Z</time>
      </trkpt>
      <trkpt lat="44.2905" lon="2.97662">
        <ele>1034.7</ele>
        <time>2023-06-25T10:53:57Z</time>
      </trkpt>
      <trkpt lat="44.2905" lon="2.97654">
        <ele>1034.5</ele>
        <time>2023-06-25T10:53:58Z</time>
      </trkpt>
      <trkpt lat="44.29051" lon="2.97646">
        <ele>1034.4</ele>
        <time>2023-06-25T10:53:59Z</time>
      </trkpt>
      <trkpt lat="44.29051" lon="2.97639">
        <ele>1034.3</ele>
        <time>2023-06-25T10:54:00Z</time>
      </trkpt>
      <trkpt lat="44.29052" lon="2.97631">
        <ele>1034.2</ele>
        <time>2023-06-25T10:54:01Z</time>
      </trkpt>
      <trkpt lat="44.29053" lon="2.97624">
        <ele>1034</ele>
        <time>2023-06-25T10:54:02Z</time>
      </trkpt>
      <trkpt lat="44.29053" lon="2.97616">
        <ele>1033.9</ele>
        <time>2023-06-25T10:54:03Z</time>
      </trkpt>
      <trkpt lat="44.29055" lon="2.97609">
        <ele>1033.7</ele>
        <time>2023-06-25T10:54:04Z</time>
      </trkpt>
      <trkpt lat="44.29056" lon="2.97602">
        <ele>1033.6</ele>
        <time>2023-06-25T10:54:05Z</time>
      </trkpt>
      <trkpt lat="44.29056" lon="2.97594">
        <ele>1033.4</ele>
        <time>2023-06-25T10:54:06Z</time>
      </trkpt>
      <trkpt lat="44.29058" lon="2.97586">
        <ele>1033.3</ele>
        <time>2023-06-25T10:54:07Z</time>
      </trkpt>
      <trkpt lat="44.29059" lon="2.97578">
        <ele>1033.2</ele>
        <time>2023-06-25T10:54:08Z</time>
      </trkpt>
      <trkpt lat="44.2906" lon="2.9757">
        <ele>1033</ele>
        <time>2023-06-25T10:54:09Z</time>
      </trkpt>
      <trkpt lat="44.29061" lon="2.97563">
        <ele>1032.9</ele>
        <time>2023-06-25T10:54:10Z</time>
      </trkpt>
      <trkpt lat="44.29062" lon="2.97555">
        <ele>1032.8</ele>
        <time>2023-06-25T10:54:11Z</time>
      </trkpt>
      <trkpt lat="44.29064" lon="2.97548">
        <ele>1032.9</ele>
        <time>2023-06-25T10:54:12Z</time>
      </trkpt>
      <trkpt lat="44.29065" lon="2.97541">
        <ele>1032.9</ele>
        <time>2023-06-25T10:54:13Z</time>
      </trkpt>
      <trkpt lat="44.29068" lon="2.97534">
        <ele>1033</ele>
        <time>2023-06-25T10:54:14Z</time>
      </trkpt>
      <trkpt lat="44.2907" lon="2.97528">
        <ele>1033.1</ele>
        <time>2023-06-25T10:54:15Z</time>
      </trkpt>
      <trkpt lat="44.29072" lon="2.97521">
        <ele>1033.1</ele>
        <time>2023-06-25T10:54:16Z</time>
      </trkpt>
      <trkpt lat="44.29074" lon="2.97515">
        <ele>1033.2</ele>
        <time>2023-06-25T10:54:17Z</time>
      </trkpt>
      <trkpt lat="44.29076" lon="2.97508">
        <ele>1033.3</ele>
        <time>2023-06-25T10:54:18Z</time>
      </trkpt>
      <trkpt lat="44.29078" lon="2.97502">
        <ele>1033.5</ele>
        <time>2023-06-25T10:54:19Z</time>
      </trkpt>
      <trkpt lat="44.29079" lon="2.97496">
        <ele>1033.6</ele>
        <time>2023-06-25T10:54:20Z</time>
      </trkpt>
      <trkpt lat="44.29081" lon="2.9749">
        <ele>1033.8</ele>
        <time>2023-06-25T10:54:21Z</time>
      </trkpt>
      <trkpt lat="44.29082" lon="2.97483">
        <ele>1034.1</ele>
        <time>2023-06-25T10:54:22Z</time>
      </trkpt>
      <trkpt lat="44.29083" lon="2.97477">
        <ele>1034.3</ele>
        <time>2023-06-25T10:54:23Z</time>
      </trkpt>
      <trkpt lat="44.29084" lon="2.97472">
        <ele>1034.5</ele>
        <time>2023-06-25T10:54:24Z</time>
      </trkpt>
      <trkpt lat="44.29085" lon="2.97467">
        <ele>1034.7</ele>
        <time>2023-06-25T10:54:25Z</time>
      </trkpt>
      <trkpt lat="44.29085" lon="2.97461">
        <ele>1034.9</ele>
        <time>2023-06-25T10:54:26Z</time>
      </trkpt>
      <trkpt lat="44.29086" lon="2.97455">
        <ele>1035.1</ele>
        <time>2023-06-25T10:54:27Z</time>
      </trkpt>
      <trkpt lat="44.29086" lon="2.9745">
        <ele>1035.2</ele>
        <time>2023-06-25T10:54:28Z</time>
      </trkpt>
      <trkpt lat="44.29087" lon="2.97446">
        <ele>1035.4</ele>
        <time>2023-06-25T10:54:29Z</time>
      </trkpt>
      <trkpt lat="44.29088" lon="2.9744">
        <ele>1035.6</ele>
        <time>2023-06-25T10:54:30Z</time>
      </trkpt>
      <trkpt lat="44.2909" lon="2.97436">
        <ele>1035.8</ele>
        <time>2023-06-25T10:54:31Z</time>
      </trkpt>
      <trkpt lat="44.2909" lon="2.97433">
        <ele>1036</ele>
        <time>2023-06-25T10:54:32Z</time>
      </trkpt>
      <trkpt lat="44.2909" lon="2.97424">
        <ele>1036.5</ele>
        <time>2023-06-25T10:54:34Z</time>
      </trkpt>
      <trkpt lat="44.2909" lon="2.97418">
        <ele>1036.8</ele>
        <time>2023-06-25T10:54:35Z</time>
      </trkpt>
      <trkpt lat="44.2909" lon="2.97412">
        <ele>1037.2</ele>
        <time>2023-06-25T10:54:36Z</time>
      </trkpt>
      <trkpt lat="44.29089" lon="2.97407">
        <ele>1037.5</ele>
        <time>2023-06-25T10:54:37Z</time>
      </trkpt>
      <trkpt lat="44.29088" lon="2.97401">
        <ele>1037.8</ele>
        <time>2023-06-25T10:54:38Z</time>
      </trkpt>
      <trkpt lat="44.29087" lon="2.97396">
        <ele>1038.1</ele>
        <time>2023-06-25T10:54:39Z</time>
      </trkpt>
      <trkpt lat="44.29086" lon="2.97392">
        <ele>1038.4</ele>
        <time>2023-06-25T10:54:40Z</time>
      </trkpt>
      <trkpt lat="44.29084" lon="2.97388">
        <ele>1038.6</ele>
        <time>2023-06-25T10:54:41Z</time>
      </trkpt>
      <trkpt lat="44.29082" lon="2.97383">
        <ele>1038.9</ele>
        <time>2023-06-25T10:54:42Z</time>
      </trkpt>
      <trkpt lat="44.2908" lon="2.97378">
        <ele>1039.2</ele>
        <time>2023-06-25T10:54:43Z</time>
      </trkpt>
      <trkpt lat="44.29079" lon="2.97374">
        <ele>1039.5</ele>
        <time>2023-06-25T10:54:44Z</time>
      </trkpt>
      <trkpt lat="44.29077" lon="2.9737">
        <ele>1039.7</ele>
        <time>2023-06-25T10:54:45Z</time>
      </trkpt>
      <trkpt lat="44.29075" lon="2.97365">
        <ele>1040</ele>
        <time>2023-06-25T10:54:46Z</time>
      </trkpt>
      <trkpt lat="44.29073" lon="2.97361">
        <ele>1040.2</ele>
        <time>2023-06-25T10:54:48Z</time>
      </trkpt>
      <trkpt lat="44.29071" lon="2.97358">
        <ele>1040.4</ele>
        <time>2023-06-25T10:54:49Z</time>
      </trkpt>
      <trkpt lat="44.29069" lon="2.97354">
        <ele>1040.7</ele>
        <time>2023-06-25T10:54:50Z</time>
      </trkpt>
      <trkpt lat="44.29067" lon="2.9735">
        <ele>1040.9</ele>
        <time>2023-06-25T10:54:51Z</time>
      </trkpt>
      <trkpt lat="44.29065" lon="2.97343">
        <ele>1041.2</ele>
        <time>2023-06-25T10:54:53Z</time>
      </trkpt>
      <trkpt lat="44.29063" lon="2.97339">
        <ele>1041.4</ele>
        <time>2023-06-25T10:54:54Z</time>
      </trkpt>
      <trkpt lat="44.29061" lon="2.97334">
        <ele>1041.7</ele>
        <time>2023-06-25T10:54:55Z</time>
      </trkpt>
      <trkpt lat="44.29059" lon="2.97329">
        <ele>1041.9</ele>
        <time>2023-06-25T10:54:56Z</time>
      </trkpt>
      <trkpt lat="44.29058" lon="2.97325">
        <ele>1042</ele>
        <time>2023-06-25T10:54:57Z</time>
      </trkpt>
      <trkpt lat="44.29057" lon="2.97319">
        <ele>1042.2</ele>
        <time>2023-06-25T10:54:59Z</time>
      </trkpt>
      <trkpt lat="44.29056" lon="2.97314">
        <ele>1042.4</ele>
        <time>2023-06-25T10:55:00Z</time>
      </trkpt>
      <trkpt lat="44.29056" lon="2.97309">
        <ele>1042.6</ele>
        <time>2023-06-25T10:55:01Z</time>
      </trkpt>
      <trkpt lat="44.29055" lon="2.97303">
        <ele>1042.8</ele>
        <time>2023-06-25T10:55:02Z</time>
      </trkpt>
      <trkpt lat="44.29055" lon="2.97298">
        <ele>1043</ele>
        <time>2023-06-25T10:55:03Z</time>
      </trkpt>
      <trkpt lat="44.29055" lon="2.97294">
        <ele>1043.1</ele>
        <time>2023-06-25T10:55:04Z</time>
      </trkpt>
      <trkpt lat="44.29055" lon="2.9729">
        <ele>1043.2</ele>
        <time>2023-06-25T10:55:05Z</time>
      </trkpt>
      <trkpt lat="44.29055" lon="2.97282">
        <ele>1043.5</ele>
        <time>2023-06-25T10:55:07Z</time>
      </trkpt>
      <trkpt lat="44.29056" lon="2.97277">
        <ele>1043.7</ele>
        <time>2023-06-25T10:55:08Z</time>
      </trkpt>
      <trkpt lat="44.29056" lon="2.97272">
        <ele>1043.9</ele>
        <time>2023-06-25T10:55:09Z</time>
      </trkpt>
      <trkpt lat="44.29056" lon="2.97267">
        <ele>1044.1</ele>
        <time>2023-06-25T10:55:10Z</time>
      </trkpt>
      <trkpt lat="44.29056" lon="2.9726">
        <ele>1044.4</ele>
        <time>2023-06-25T10:55:12Z</time>
      </trkpt>
      <trkpt lat="44.29057" lon="2.97255">
        <ele>1044.6</ele>
        <time>2023-06-25T10:55:13Z</time>
      </trkpt>
      <trkpt lat="44.29057" lon="2.97249">
        <ele>1044.8</ele>
        <time>2023-06-25T10:55:14Z</time>
      </trkpt>
      <trkpt lat="44.29057" lon="2.97245">
        <ele>1045</ele>
        <time>2023-06-25T10:55:15Z</time>
      </trkpt>
      <trkpt lat="44.29058" lon="2.9724">
        <ele>1045.2</ele>
        <time>2023-06-25T10:55:16Z</time>
      </trkpt>
      <trkpt lat="44.29058" lon="2.97235">
        <ele>1045.4</ele>
        <time>2023-06-25T10:55:17Z</time>
      </trkpt>
      <trkpt lat="44.29059" lon="2.9723">
        <ele>1045.6</ele>
        <time>2023-06-25T10:55:19Z</time>
      </trkpt>
      <trkpt lat="44.29059" lon="2.97225">
        <ele>1045.8</ele>
        <time>2023-06-25T10:55:20Z</time>
      </trkpt>
      <trkpt lat="44.2906" lon="2.97221">
        <ele>1046</ele>
        <time>2023-06-25T10:55:21Z</time>
      </trkpt>
      <trkpt lat="44.29062" lon="2.97216">
        <ele>1046.2</ele>
        <time>2023-06-25T10:55:22Z</time>
      </trkpt>
      <trkpt lat="44.29062" lon="2.9721">
        <ele>1046.5</ele>
        <time>2023-06-25T10:55:24Z</time>
      </trkpt>
      <trkpt lat="44.29063" lon="2.97204">
        <ele>1046.7</ele>
        <time>2023-06-25T10:55:25Z</time>
      </trkpt>
      <trkpt lat="44.29064" lon="2.972">
        <ele>1046.8</ele>
        <time>2023-06-25T10:55:26Z</time>
      </trkpt>
      <trkpt lat="44.29065" lon="2.97195">
        <ele>1047</ele>
        <time>2023-06-25T10:55:27Z</time>
      </trkpt>
      <trkpt lat="44.29066" lon="2.97191">
        <ele>1047.2</ele>
        <time>2023-06-25T10:55:28Z</time>
      </trkpt>
      <trkpt lat="44.29068" lon="2.97186">
        <ele>1047.4</ele>
        <time>2023-06-25T10:55:29Z</time>
      </trkpt>
      <trkpt lat="44.2907" lon="2.9718">
        <ele>1047.6</ele>
        <time>2023-06-25T10:55:31Z</time>
      </trkpt>
      <trkpt lat="44.29071" lon="2.97176">
        <ele>1047.8</ele>
        <time>2023-06-25T10:55:32Z</time>
      </trkpt>
      <trkpt lat="44.29073" lon="2.97172">
        <ele>1048</ele>
        <time>2023-06-25T10:55:33Z</time>
      </trkpt>
      <trkpt lat="44.29074" lon="2.97167">
        <ele>1048.3</ele>
        <time>2023-06-25T10:55:34Z</time>
      </trkpt>
      <trkpt lat="44.29075" lon="2.97163">
        <ele>1048.4</ele>
        <time>2023-06-25T10:55:35Z</time>
      </trkpt>
      <trkpt lat="44.29078" lon="2.97155">
        <ele>1048.8</ele>
        <time>2023-06-25T10:55:37Z</time>
      </trkpt>
      <trkpt lat="44.2908" lon="2.97151">
        <ele>1049</ele>
        <time>2023-06-25T10:55:38Z</time>
      </trkpt>
      <trkpt lat="44.29081" lon="2.97147">
        <ele>1049.2</ele>
        <time>2023-06-25T10:55:39Z</time>
      </trkpt>
      <trkpt lat="44.29083" lon="2.97143">
        <ele>1049.4</ele>
        <time>2023-06-25T10:55:40Z</time>
      </trkpt>
      <trkpt lat="44.29084" lon="2.97138">
        <ele>1049.6</ele>
        <time>2023-06-25T10:55:42Z</time>
      </trkpt>
      <trkpt lat="44.29086" lon="2.97135">
        <ele>1049.7</ele>
        <time>2023-06-25T10:55:43Z</time>
      </trkpt>
      <trkpt lat="44.29088" lon="2.97131">
        <ele>1049.9</ele>
        <time>2023-06-25T10:55:44Z</time>
      </trkpt>
      <trkpt lat="44.29089" lon="2.97127">
        <ele>1050</ele>
        <time>2023-06-25T10:55:45Z</time>
      </trkpt>
      <trkpt lat="44.29091" lon="2.97123">
        <ele>1050.1</ele>
        <time>2023-06-25T10:55:46Z</time>
      </trkpt>
      <trkpt lat="44.29093" lon="2.9712">
        <ele>1050.3</ele>
        <time>2023-06-25T10:55:48Z</time>
      </trkpt>
      <trkpt lat="44.29094" lon="2.97116">
        <ele>1050.4</ele>
        <time>2023-06-25T10:55:49Z</time>
      </trkpt>
      <trkpt lat="44.29096" lon="2.97113">
        <ele>1050.5</ele>
        <time>2023-06-25T10:55:50Z</time>
      </trkpt>
      <trkpt lat="44.29097" lon="2.97109">
        <ele>1050.6</ele>
        <time>2023-06-25T10:55:51Z</time>
      </trkpt>
      <trkpt lat="44.29099" lon="2.97105">
        <ele>1050.7</ele>
        <time>2023-06-25T10:55:52Z</time>
      </trkpt>
      <trkpt lat="44.29102" lon="2.97102">
        <ele>1050.8</ele>
        <time>2023-06-25T10:55:53Z</time>
      </trkpt>
      <trkpt lat="44.29105" lon="2.97098">
        <ele>1050.8</ele>
        <time>2023-06-25T10:55:55Z</time>
      </trkpt>
      <trkpt lat="44.29107" lon="2.97094">
        <ele>1050.9</ele>
        <time>2023-06-25T10:55:56Z</time>
      </trkpt>
      <trkpt lat="44.29109" lon="2.9709">
        <ele>1050.9</ele>
        <time>2023-06-25T10:55:57Z</time>
      </trkpt>
      <trkpt lat="44.29111" lon="2.97087">
        <ele>1050.9</ele>
        <time>2023-06-25T10:55:58Z</time>
      </trkpt>
      <trkpt lat="44.29113" lon="2.97083">
        <ele>1050.9</ele>
        <time>2023-06-25T10:55:59Z</time>
      </trkpt>
      <trkpt lat="44.29117" lon="2.97076">
        <ele>1050.8</ele>
        <time>2023-06-25T10:56:01Z</time>
      </trkpt>
      <trkpt lat="44.29119" lon="2.97071">
        <ele>1050.8</ele>
        <time>2023-06-25T10:56:02Z</time>
      </trkpt>
      <trkpt lat="44.29122" lon="2.97065">
        <ele>1050.8</ele>
        <time>2023-06-25T10:56:04Z</time>
      </trkpt>
      <trkpt lat="44.29127" lon="2.97055">
        <ele>1050.7</ele>
        <time>2023-06-25T10:56:05Z</time>
      </trkpt>
      <trkpt lat="44.2913" lon="2.97048">
        <ele>1050.7</ele>
        <time>2023-06-25T10:56:07Z</time>
      </trkpt>
      <trkpt lat="44.29131" lon="2.97042">
        <ele>1050.7</ele>
        <time>2023-06-25T10:56:08Z</time>
      </trkpt>
      <trkpt lat="44.29133" lon="2.97036">
        <ele>1050.6</ele>
        <time>2023-06-25T10:56:09Z</time>
      </trkpt>
      <trkpt lat="44.29134" lon="2.97029">
        <ele>1050.6</ele>
        <time>2023-06-25T10:56:10Z</time>
      </trkpt>
      <trkpt lat="44.29135" lon="2.97022">
        <ele>1050.6</ele>
        <time>2023-06-25T10:56:11Z</time>
      </trkpt>
      <trkpt lat="44.29136" lon="2.9701">
        <ele>1050.7</ele>
        <time>2023-06-25T10:56:13Z</time>
      </trkpt>
      <trkpt lat="44.29138" lon="2.97003">
        <ele>1050.8</ele>
        <time>2023-06-25T10:56:15Z</time>
      </trkpt>
      <trkpt lat="44.29136" lon="2.96994">
        <ele>1050.9</ele>
        <time>2023-06-25T10:56:16Z</time>
      </trkpt>
      <trkpt lat="44.29134" lon="2.96986">
        <ele>1051</ele>
        <time>2023-06-25T10:56:17Z</time>
      </trkpt>
      <trkpt lat="44.29132" lon="2.9698">
        <ele>1051.1</ele>
        <time>2023-06-25T10:56:18Z</time>
      </trkpt>
      <trkpt lat="44.2913" lon="2.96969">
        <ele>1051.3</ele>
        <time>2023-06-25T10:56:20Z</time>
      </trkpt>
      <trkpt lat="44.29128" lon="2.96964">
        <ele>1051.5</ele>
        <time>2023-06-25T10:56:21Z</time>
      </trkpt>
      <trkpt lat="44.29126" lon="2.96956">
        <ele>1051.7</ele>
        <time>2023-06-25T10:56:23Z</time>
      </trkpt>
      <trkpt lat="44.29125" lon="2.96951">
        <ele>1051.9</ele>
        <time>2023-06-25T10:56:24Z</time>
      </trkpt>
      <trkpt lat="44.29123" lon="2.96946">
        <ele>1052</ele>
        <time>2023-06-25T10:56:25Z</time>
      </trkpt>
      <trkpt lat="44.29122" lon="2.96941">
        <ele>1052.1</ele>
        <time>2023-06-25T10:56:26Z</time>
      </trkpt>
      <trkpt lat="44.29122" lon="2.96936">
        <ele>1052.3</ele>
        <time>2023-06-25T10:56:27Z</time>
      </trkpt>
      <trkpt lat="44.29121" lon="2.96931">
        <ele>1052.4</ele>
        <time>2023-06-25T10:56:28Z</time>
      </trkpt>
      <trkpt lat="44.2912" lon="2.96926">
        <ele>1052.5</ele>
        <time>2023-06-25T10:56:29Z</time>
      </trkpt>
      <trkpt lat="44.29119" lon="2.96918">
        <ele>1052.7</ele>
        <time>2023-06-25T10:56:31Z</time>
      </trkpt>
      <trkpt lat="44.29119" lon="2.96912">
        <ele>1052.9</ele>
        <time>2023-06-25T10:56:32Z</time>
      </trkpt>
      <trkpt lat="44.29119" lon="2.9691">
        <ele>1052.9</ele>
        <time>2023-06-25T10:56:33Z</time>
      </trkpt>
      <trkpt lat="44.29118" lon="2.96906">
        <ele>1053</ele>
        <time>2023-06-25T10:56:34Z</time>
      </trkpt>
      <trkpt lat="44.29118" lon="2.96902">
        <ele>1053.1</ele>
        <time>2023-06-25T10:56:35Z</time>
      </trkpt>
      <trkpt lat="44.29121" lon="2.96898">
        <ele>1053.1</ele>
        <time>2023-06-25T10:56:37Z</time>
      </trkpt>
      <trkpt lat="44.29123" lon="2.96897">
        <ele>1053.1</ele>
        <time>2023-06-25T10:56:38Z</time>
      </trkpt>
      <trkpt lat="44.29124" lon="2.96896">
        <ele>1053</ele>
        <time>2023-06-25T10:56:39Z</time>
      </trkpt>
      <trkpt lat="44.29126" lon="2.96891">
        <ele>1053</ele>
        <time>2023-06-25T10:56:40Z</time>
      </trkpt>
      <trkpt lat="44.29127" lon="2.96889">
        <ele>1053</ele>
        <time>2023-06-25T10:56:41Z</time>
      </trkpt>
      <trkpt lat="44.2913" lon="2.96885">
        <ele>1052.9</ele>
        <time>2023-06-25T10:56:43Z</time>
      </trkpt>
      <trkpt lat="44.29132" lon="2.96881">
        <ele>1052.9</ele>
        <time>2023-06-25T10:56:44Z</time>
      </trkpt>
      <trkpt lat="44.29133" lon="2.96879">
        <ele>1052.8</ele>
        <time>2023-06-25T10:56:45Z</time>
      </trkpt>
      <trkpt lat="44.29134" lon="2.96876">
        <ele>1052.8</ele>
        <time>2023-06-25T10:56:46Z</time>
      </trkpt>
      <trkpt lat="44.29135" lon="2.96873">
        <ele>1052.7</ele>
        <time>2023-06-25T10:56:47Z</time>
      </trkpt>
      <trkpt lat="44.29137" lon="2.96866">
        <ele>1052.5</ele>
        <time>2023-06-25T10:56:49Z</time>
      </trkpt>
      <trkpt lat="44.29139" lon="2.96861">
        <ele>1052.3</ele>
        <time>2023-06-25T10:56:50Z</time>
      </trkpt>
      <trkpt lat="44.2914" lon="2.96856">
        <ele>1052</ele>
        <time>2023-06-25T10:56:51Z</time>
      </trkpt>
      <trkpt lat="44.29143" lon="2.96848">
        <ele>1051.6</ele>
        <time>2023-06-25T10:56:53Z</time>
      </trkpt>
      <trkpt lat="44.29145" lon="2.96839">
        <ele>1051</ele>
        <time>2023-06-25T10:56:54Z</time>
      </trkpt>
      <trkpt lat="44.29147" lon="2.96831">
        <ele>1050.5</ele>
        <time>2023-06-25T10:56:55Z</time>
      </trkpt>
      <trkpt lat="44.2915" lon="2.96824">
        <ele>1050.1</ele>
        <time>2023-06-25T10:56:56Z</time>
      </trkpt>
      <trkpt lat="44.29152" lon="2.96817">
        <ele>1049.6</ele>
        <time>2023-06-25T10:56:57Z</time>
      </trkpt>
      <trkpt lat="44.29155" lon="2.96809">
        <ele>1049</ele>
        <time>2023-06-25T10:56:58Z</time>
      </trkpt>
      <trkpt lat="44.29158" lon="2.96801">
        <ele>1048.3</ele>
        <time>2023-06-25T10:56:59Z</time>
      </trkpt>
      <trkpt lat="44.29161" lon="2.96793">
        <ele>1047.7</ele>
        <time>2023-06-25T10:57:00Z</time>
      </trkpt>
      <trkpt lat="44.29164" lon="2.96786">
        <ele>1047.1</ele>
        <time>2023-06-25T10:57:01Z</time>
      </trkpt>
      <trkpt lat="44.29167" lon="2.96779">
        <ele>1046.6</ele>
        <time>2023-06-25T10:57:02Z</time>
      </trkpt>
      <trkpt lat="44.2917" lon="2.96772">
        <ele>1046.1</ele>
        <time>2023-06-25T10:57:03Z</time>
      </trkpt>
      <trkpt lat="44.29174" lon="2.96764">
        <ele>1045.5</ele>
        <time>2023-06-25T10:57:04Z</time>
      </trkpt>
      <trkpt lat="44.29178" lon="2.96757">
        <ele>1045</ele>
        <time>2023-06-25T10:57:05Z</time>
      </trkpt>
      <trkpt lat="44.29182" lon="2.9675">
        <ele>1044.5</ele>
        <time>2023-06-25T10:57:06Z</time>
      </trkpt>
      <trkpt lat="44.29187" lon="2.96743">
        <ele>1043.8</ele>
        <time>2023-06-25T10:57:07Z</time>
      </trkpt>
      <trkpt lat="44.29192" lon="2.96735">
        <ele>1043.1</ele>
        <time>2023-06-25T10:57:08Z</time>
      </trkpt>
      <trkpt lat="44.29197" lon="2.96728">
        <ele>1042.2</ele>
        <time>2023-06-25T10:57:09Z</time>
      </trkpt>
      <trkpt lat="44.29203" lon="2.9672">
        <ele>1041.3</ele>
        <time>2023-06-25T10:57:10Z</time>
      </trkpt>
      <trkpt lat="44.29209" lon="2.96712">
        <ele>1040.4</ele>
        <time>2023-06-25T10:57:11Z</time>
      </trkpt>
      <trkpt lat="44.29215" lon="2.96704">
        <ele>1039.5</ele>
        <time>2023-06-25T10:57:12Z</time>
      </trkpt>
      <trkpt lat="44.29221" lon="2.96696">
        <ele>1038.7</ele>
        <time>2023-06-25T10:57:13Z</time>
      </trkpt>
      <trkpt lat="44.29228" lon="2.96687">
        <ele>1037.9</ele>
        <time>2023-06-25T10:57:14Z</time>
      </trkpt>
      <trkpt lat="44.29235" lon="2.96678">
        <ele>1037.1</ele>
        <time>2023-06-25T10:57:15Z</time>
      </trkpt>
      <trkpt lat="44.29242" lon="2.96668">
        <ele>1036.3</ele>
        <time>2023-06-25T10:57:16Z</time>
      </trkpt>
      <trkpt lat="44.29249" lon="2.96658">
        <ele>1035.6</ele>
        <time>2023-06-25T10:57:17Z</time>
      </trkpt>
      <trkpt lat="44.29257" lon="2.96649">
        <ele>1035.2</ele>
        <time>2023-06-25T10:57:18Z</time>
      </trkpt>
      <trkpt lat="44.29264" lon="2.9664">
        <ele>1035</ele>
        <time>2023-06-25T10:57:19Z</time>
      </trkpt>
      <trkpt lat="44.29272" lon="2.96631">
        <ele>1034.8</ele>
        <time>2023-06-25T10:57:20Z</time>
      </trkpt>
      <trkpt lat="44.29279" lon="2.96623">
        <ele>1034.8</ele>
        <time>2023-06-25T10:57:21Z</time>
      </trkpt>
      <trkpt lat="44.29286" lon="2.96614">
        <ele>1034.8</ele>
        <time>2023-06-25T10:57:22Z</time>
      </trkpt>
      <trkpt lat="44.29292" lon="2.96606">
        <ele>1034.9</ele>
        <time>2023-06-25T10:57:23Z</time>
      </trkpt>
      <trkpt lat="44.29298" lon="2.96597">
        <ele>1034.8</ele>
        <time>2023-06-25T10:57:24Z</time>
      </trkpt>
      <trkpt lat="44.29303" lon="2.96589">
        <ele>1034.6</ele>
        <time>2023-06-25T10:57:25Z</time>
      </trkpt>
      <trkpt lat="44.29308" lon="2.9658">
        <ele>1034.5</ele>
        <time>2023-06-25T10:57:26Z</time>
      </trkpt>
      <trkpt lat="44.29312" lon="2.96571">
        <ele>1034.4</ele>
        <time>2023-06-25T10:57:27Z</time>
      </trkpt>
      <trkpt lat="44.29316" lon="2.96563">
        <ele>1034.3</ele>
        <time>2023-06-25T10:57:28Z</time>
      </trkpt>
      <trkpt lat="44.29319" lon="2.96554">
        <ele>1034.2</ele>
        <time>2023-06-25T10:57:29Z</time>
      </trkpt>
      <trkpt lat="44.29322" lon="2.96546">
        <ele>1034.2</ele>
        <time>2023-06-25T10:57:30Z</time>
      </trkpt>
      <trkpt lat="44.29326" lon="2.96538">
        <ele>1034.1</ele>
        <time>2023-06-25T10:57:31Z</time>
      </trkpt>
      <trkpt lat="44.29329" lon="2.9653">
        <ele>1034.1</ele>
        <time>2023-06-25T10:57:32Z</time>
      </trkpt>
      <trkpt lat="44.29332" lon="2.96522">
        <ele>1034</ele>
        <time>2023-06-25T10:57:33Z</time>
      </trkpt>
      <trkpt lat="44.29335" lon="2.96515">
        <ele>1033.8</ele>
        <time>2023-06-25T10:57:34Z</time>
      </trkpt>
      <trkpt lat="44.29338" lon="2.96507">
        <ele>1033.6</ele>
        <time>2023-06-25T10:57:35Z</time>
      </trkpt>
      <trkpt lat="44.29341" lon="2.965">
        <ele>1033.5</ele>
        <time>2023-06-25T10:57:36Z</time>
      </trkpt>
      <trkpt lat="44.29344" lon="2.96493">
        <ele>1033.3</ele>
        <time>2023-06-25T10:57:37Z</time>
      </trkpt>
      <trkpt lat="44.29347" lon="2.96486">
        <ele>1033.2</ele>
        <time>2023-06-25T10:57:38Z</time>
      </trkpt>
      <trkpt lat="44.29349" lon="2.96478">
        <ele>1033</ele>
        <time>2023-06-25T10:57:39Z</time>
      </trkpt>
      <trkpt lat="44.29352" lon="2.96471">
        <ele>1032.9</ele>
        <time>2023-06-25T10:57:40Z</time>
      </trkpt>
      <trkpt lat="44.29355" lon="2.96464">
        <ele>1032.8</ele>
        <time>2023-06-25T10:57:41Z</time>
      </trkpt>
      <trkpt lat="44.29358" lon="2.96457">
        <ele>1032.6</ele>
        <time>2023-06-25T10:57:42Z</time>
      </trkpt>
      <trkpt lat="44.29361" lon="2.9645">
        <ele>1032.5</ele>
        <time>2023-06-25T10:57:43Z</time>
      </trkpt>
      <trkpt lat="44.29364" lon="2.96443">
        <ele>1032.4</ele>
        <time>2023-06-25T10:57:44Z</time>
      </trkpt>
      <trkpt lat="44.29367" lon="2.96436">
        <ele>1032.3</ele>
        <time>2023-06-25T10:57:45Z</time>
      </trkpt>
      <trkpt lat="44.2937" lon="2.96429">
        <ele>1032.2</ele>
        <time>2023-06-25T10:57:46Z</time>
      </trkpt>
      <trkpt lat="44.29373" lon="2.96422">
        <ele>1032.1</ele>
        <time>2023-06-25T10:57:47Z</time>
      </trkpt>
      <trkpt lat="44.29376" lon="2.96415">
        <ele>1031.9</ele>
        <time>2023-06-25T10:57:48Z</time>
      </trkpt>
      <trkpt lat="44.29379" lon="2.96408">
        <ele>1031.8</ele>
        <time>2023-06-25T10:57:49Z</time>
      </trkpt>
      <trkpt lat="44.29382" lon="2.964">
        <ele>1031.6</ele>
        <time>2023-06-25T10:57:50Z</time>
      </trkpt>
      <trkpt lat="44.29385" lon="2.96393">
        <ele>1031.4</ele>
        <time>2023-06-25T10:57:51Z</time>
      </trkpt>
      <trkpt lat="44.29387" lon="2.96386">
        <ele>1031.2</ele>
        <time>2023-06-25T10:57:52Z</time>
      </trkpt>
      <trkpt lat="44.2939" lon="2.96379">
        <ele>1031</ele>
        <time>2023-06-25T10:57:53Z</time>
      </trkpt>
      <trkpt lat="44.29393" lon="2.96371">
        <ele>1030.8</ele>
        <time>2023-06-25T10:57:54Z</time>
      </trkpt>
      <trkpt lat="44.29396" lon="2.96364">
        <ele>1030.5</ele>
        <time>2023-06-25T10:57:55Z</time>
      </trkpt>
      <trkpt lat="44.29399" lon="2.96356">
        <ele>1030.2</ele>
        <time>2023-06-25T10:57:56Z</time>
      </trkpt>
      <trkpt lat="44.29402" lon="2.96348">
        <ele>1029.9</ele>
        <time>2023-06-25T10:57:57Z</time>
      </trkpt>
      <trkpt lat="44.29405" lon="2.96341">
        <ele>1029.5</ele>
        <time>2023-06-25T10:57:58Z</time>
      </trkpt>
      <trkpt lat="44.29408" lon="2.96333">
        <ele>1029.2</ele>
        <time>2023-06-25T10:57:59Z</time>
      </trkpt>
      <trkpt lat="44.2941" lon="2.96325">
        <ele>1028.9</ele>
        <time>2023-06-25T10:58:00Z</time>
      </trkpt>
      <trkpt lat="44.29413" lon="2.96317">
        <ele>1028.6</ele>
        <time>2023-06-25T10:58:01Z</time>
      </trkpt>
      <trkpt lat="44.29415" lon="2.96308">
        <ele>1028.2</ele>
        <time>2023-06-25T10:58:02Z</time>
      </trkpt>
      <trkpt lat="44.29418" lon="2.96299">
        <ele>1027.8</ele>
        <time>2023-06-25T10:58:03Z</time>
      </trkpt>
      <trkpt lat="44.2942" lon="2.96289">
        <ele>1027.6</ele>
        <time>2023-06-25T10:58:04Z</time>
      </trkpt>
      <trkpt lat="44.29423" lon="2.9628">
        <ele>1027.4</ele>
        <time>2023-06-25T10:58:05Z</time>
      </trkpt>
      <trkpt lat="44.29426" lon="2.96271">
        <ele>1027.2</ele>
        <time>2023-06-25T10:58:06Z</time>
      </trkpt>
      <trkpt lat="44.29428" lon="2.96261">
        <ele>1026.9</ele>
        <time>2023-06-25T10:58:07Z</time>
      </trkpt>
      <trkpt lat="44.29431" lon="2.96252">
        <ele>1026.6</ele>
        <time>2023-06-25T10:58:08Z</time>
      </trkpt>
      <trkpt lat="44.29434" lon="2.96242">
        <ele>1026.5</ele>
        <time>2023-06-25T10:58:09Z</time>
      </trkpt>
      <trkpt lat="44.29436" lon="2.96233">
        <ele>1026.4</ele>
        <time>2023-06-25T10:58:10Z</time>
      </trkpt>
      <trkpt lat="44.29439" lon="2.96224">
        <ele>1026.4</ele>
        <time>2023-06-25T10:58:11Z</time>
      </trkpt>
      <trkpt lat="44.29441" lon="2.96214">
        <ele>1026.4</ele>
        <time>2023-06-25T10:58:12Z</time>
      </trkpt>
      <trkpt lat="44.29444" lon="2.96205">
        <ele>1026.4</ele>
        <time>2023-06-25T10:58:13Z</time>
      </trkpt>
      <trkpt lat="44.29446" lon="2.96196">
        <ele>1026.4</ele>
        <time>2023-06-25T10:58:14Z</time>
      </trkpt>
      <trkpt lat="44.29449" lon="2.96188">
        <ele>1026.3</ele>
        <time>2023-06-25T10:58:15Z</time>
      </trkpt>
      <trkpt lat="44.29452" lon="2.96179">
        <ele>1026.2</ele>
        <time>2023-06-25T10:58:16Z</time>
      </trkpt>
      <trkpt lat="44.29455" lon="2.96171">
        <ele>1026.2</ele>
        <time>2023-06-25T10:58:17Z</time>
      </trkpt>
      <trkpt lat="44.29457" lon="2.96163">
        <ele>1026</ele>
        <time>2023-06-25T10:58:18Z</time>
      </trkpt>
      <trkpt lat="44.29459" lon="2.96155">
        <ele>1025.9</ele>
        <time>2023-06-25T10:58:19Z</time>
      </trkpt>
      <trkpt lat="44.29462" lon="2.96147">
        <ele>1025.7</ele>
        <time>2023-06-25T10:58:20Z</time>
      </trkpt>
      <trkpt lat="44.29464" lon="2.96139">
        <ele>1025.6</ele>
        <time>2023-06-25T10:58:21Z</time>
      </trkpt>
      <trkpt lat="44.29466" lon="2.96132">
        <ele>1025.5</ele>
        <time>2023-06-25T10:58:22Z</time>
      </trkpt>
      <trkpt lat="44.29468" lon="2.96124">
        <ele>1025.4</ele>
        <time>2023-06-25T10:58:23Z</time>
      </trkpt>
      <trkpt lat="44.29471" lon="2.96117">
        <ele>1025.4</ele>
        <time>2023-06-25T10:58:24Z</time>
      </trkpt>
      <trkpt lat="44.29472" lon="2.96109">
        <ele>1025.3</ele>
        <time>2023-06-25T10:58:25Z</time>
      </trkpt>
      <trkpt lat="44.29474" lon="2.96102">
        <ele>1025.3</ele>
        <time>2023-06-25T10:58:26Z</time>
      </trkpt>
      <trkpt lat="44.29476" lon="2.96095">
        <ele>1025.3</ele>
        <time>2023-06-25T10:58:27Z</time>
      </trkpt>
      <trkpt lat="44.29478" lon="2.96088">
        <ele>1025.2</ele>
        <time>2023-06-25T10:58:28Z</time>
      </trkpt>
      <trkpt lat="44.29479" lon="2.96082">
        <ele>1025.1</ele>
        <time>2023-06-25T10:58:29Z</time>
      </trkpt>
      <trkpt lat="44.29481" lon="2.96075">
        <ele>1025.1</ele>
        <time>2023-06-25T10:58:30Z</time>
      </trkpt>
      <trkpt lat="44.29483" lon="2.96069">
        <ele>1025</ele>
        <time>2023-06-25T10:58:31Z</time>
      </trkpt>
      <trkpt lat="44.29484" lon="2.96063">
        <ele>1024.9</ele>
        <time>2023-06-25T10:58:32Z</time>
      </trkpt>
      <trkpt lat="44.29485" lon="2.96058">
        <ele>1024.9</ele>
        <time>2023-06-25T10:58:33Z</time>
      </trkpt>
      <trkpt lat="44.29486" lon="2.96053">
        <ele>1024.8</ele>
        <time>2023-06-25T10:58:34Z</time>
      </trkpt>
      <trkpt lat="44.29487" lon="2.9605">
        <ele>1024.7</ele>
        <time>2023-06-25T10:58:35Z</time>
      </trkpt>
      <trkpt lat="44.29488" lon="2.96046">
        <ele>1024.7</ele>
        <time>2023-06-25T10:58:36Z</time>
      </trkpt>
      <trkpt lat="44.29488" lon="2.96044">
        <ele>1024.6</ele>
        <time>2023-06-25T10:58:37Z</time>
      </trkpt>
      <trkpt lat="44.29489" lon="2.96042">
        <ele>1024.6</ele>
        <time>2023-06-25T10:58:38Z</time>
      </trkpt>
      <trkpt lat="44.29489" lon="2.96041">
        <ele>1024.6</ele>
        <time>2023-06-25T10:58:39Z</time>
      </trkpt>
      <trkpt lat="44.29489" lon="2.96042">
        <ele>1024.6</ele>
        <time>2023-06-25T10:58:40Z</time>
      </trkpt>
      <trkpt lat="44.29489" lon="2.96042">
        <ele>1024.6</ele>
        <time>2023-06-25T10:58:41Z</time>
      </trkpt>
      <trkpt lat="44.29489" lon="2.96042">
        <ele>1024.6</ele>
        <time>2023-06-25T10:58:43Z</time>
      </trkpt>
      <trkpt lat="44.29489" lon="2.96042">
        <ele>1024.6</ele>
        <time>2023-06-25T10:58:45Z</time>
      </trkpt>
      <trkpt lat="44.29489" lon="2.96041">
        <ele>1024.5</ele>
        <time>2023-06-25T10:58:46Z</time>
      </trkpt>
      <trkpt lat="44.29489" lon="2.96041">
        <ele>1024.5</ele>
        <time>2023-06-25T10:58:48Z</time>
      </trkpt>
      <trkpt lat="44.29489" lon="2.9604">
        <ele>1024.5</ele>
        <time>2023-06-25T10:59:35Z</time>
      </trkpt>
      <trkpt lat="44.29489" lon="2.96038">
        <ele>1024.5</ele>
        <time>2023-06-25T10:59:36Z</time>
      </trkpt>
      <trkpt lat="44.2949" lon="2.96037">
        <ele>1024.5</ele>
        <time>2023-06-25T10:59:37Z</time>
      </trkpt>
      <trkpt lat="44.2949" lon="2.96036">
        <ele>1024.4</ele>
        <time>2023-06-25T10:59:38Z</time>
      </trkpt>
      <trkpt lat="44.29491" lon="2.96033">
        <ele>1024.4</ele>
        <time>2023-06-25T10:59:40Z</time>
      </trkpt>
      <trkpt lat="44.29491" lon="2.96032">
        <ele>1024.3</ele>
        <time>2023-06-25T10:59:41Z</time>
      </trkpt>
      <trkpt lat="44.29492" lon="2.9603">
        <ele>1024.3</ele>
        <time>2023-06-25T10:59:42Z</time>
      </trkpt>
      <trkpt lat="44.29492" lon="2.96028">
        <ele>1024.2</ele>
        <time>2023-06-25T10:59:44Z</time>
      </trkpt>
      <trkpt lat="44.29492" lon="2.96027">
        <ele>1024.2</ele>
        <time>2023-06-25T10:59:45Z</time>
      </trkpt>
      <trkpt lat="44.29493" lon="2.96025">
        <ele>1024.2</ele>
        <time>2023-06-25T10:59:47Z</time>
      </trkpt>
      <trkpt lat="44.29493" lon="2.96023">
        <ele>1024.1</ele>
        <time>2023-06-25T10:59:48Z</time>
      </trkpt>
      <trkpt lat="44.29494" lon="2.96022">
        <ele>1024</ele>
        <time>2023-06-25T11:00:59Z</time>
      </trkpt>
      <trkpt lat="44.29494" lon="2.9602">
        <ele>1024</ele>
        <time>2023-06-25T11:01:00Z</time>
      </trkpt>
      <trkpt lat="44.29495" lon="2.96015">
        <ele>1023.8</ele>
        <time>2023-06-25T11:01:01Z</time>
      </trkpt>
      <trkpt lat="44.29496" lon="2.96009">
        <ele>1023.5</ele>
        <time>2023-06-25T11:01:03Z</time>
      </trkpt>
      <trkpt lat="44.29498" lon="2.96002">
        <ele>1023.2</ele>
        <time>2023-06-25T11:01:04Z</time>
      </trkpt>
      <trkpt lat="44.29499" lon="2.95996">
        <ele>1022.9</ele>
        <time>2023-06-25T11:01:05Z</time>
      </trkpt>
      <trkpt lat="44.29501" lon="2.95988">
        <ele>1022.7</ele>
        <time>2023-06-25T11:01:06Z</time>
      </trkpt>
      <trkpt lat="44.29502" lon="2.95982">
        <ele>1022.5</ele>
        <time>2023-06-25T11:01:07Z</time>
      </trkpt>
      <trkpt lat="44.29503" lon="2.95974">
        <ele>1022.3</ele>
        <time>2023-06-25T11:01:09Z</time>
      </trkpt>
      <trkpt lat="44.29504" lon="2.95966">
        <ele>1022.2</ele>
        <time>2023-06-25T11:01:10Z</time>
      </trkpt>
      <trkpt lat="44.29506" lon="2.9596">
        <ele>1022</ele>
        <time>2023-06-25T11:01:11Z</time>
      </trkpt>
      <trkpt lat="44.29507" lon="2.95954">
        <ele>1021.9</ele>
        <time>2023-06-25T11:01:12Z</time>
      </trkpt>
      <trkpt lat="44.29509" lon="2.95947">
        <ele>1021.7</ele>
        <time>2023-06-25T11:01:13Z</time>
      </trkpt>
      <trkpt lat="44.29511" lon="2.95941">
        <ele>1021.5</ele>
        <time>2023-06-25T11:01:14Z</time>
      </trkpt>
      <trkpt lat="44.29514" lon="2.95935">
        <ele>1021.2</ele>
        <time>2023-06-25T11:01:15Z</time>
      </trkpt>
      <trkpt lat="44.29517" lon="2.95929">
        <ele>1020.9</ele>
        <time>2023-06-25T11:01:16Z</time>
      </trkpt>
      <trkpt lat="44.2952" lon="2.95924">
        <ele>1020.6</ele>
        <time>2023-06-25T11:01:17Z</time>
      </trkpt>
      <trkpt lat="44.29524" lon="2.95919">
        <ele>1020.2</ele>
        <time>2023-06-25T11:01:18Z</time>
      </trkpt>
      <trkpt lat="44.29527" lon="2.95914">
        <ele>1019.8</ele>
        <time>2023-06-25T11:01:19Z</time>
      </trkpt>
      <trkpt lat="44.29531" lon="2.95909">
        <ele>1019.4</ele>
        <time>2023-06-25T11:01:20Z</time>
      </trkpt>
      <trkpt lat="44.29535" lon="2.95903">
        <ele>1019</ele>
        <time>2023-06-25T11:01:21Z</time>
      </trkpt>
      <trkpt lat="44.29539" lon="2.95898">
        <ele>1018.6</ele>
        <time>2023-06-25T11:01:22Z</time>
      </trkpt>
      <trkpt lat="44.29543" lon="2.95892">
        <ele>1018.2</ele>
        <time>2023-06-25T11:01:23Z</time>
      </trkpt>
      <trkpt lat="44.29548" lon="2.95885">
        <ele>1017.8</ele>
        <time>2023-06-25T11:01:24Z</time>
      </trkpt>
      <trkpt lat="44.29553" lon="2.95879">
        <ele>1017.3</ele>
        <time>2023-06-25T11:01:25Z</time>
      </trkpt>
      <trkpt lat="44.29558" lon="2.95872">
        <ele>1016.9</ele>
        <time>2023-06-25T11:01:26Z</time>
      </trkpt>
      <trkpt lat="44.29563" lon="2.95866">
        <ele>1016.4</ele>
        <time>2023-06-25T11:01:27Z</time>
      </trkpt>
      <trkpt lat="44.29568" lon="2.9586">
        <ele>1015.9</ele>
        <time>2023-06-25T11:01:28Z</time>
      </trkpt>
      <trkpt lat="44.29572" lon="2.95853">
        <ele>1015.4</ele>
        <time>2023-06-25T11:01:29Z</time>
      </trkpt>
      <trkpt lat="44.29576" lon="2.95847">
        <ele>1014.9</ele>
        <time>2023-06-25T11:01:30Z</time>
      </trkpt>
      <trkpt lat="44.29581" lon="2.95841">
        <ele>1014.4</ele>
        <time>2023-06-25T11:01:31Z</time>
      </trkpt>
      <trkpt lat="44.29585" lon="2.95834">
        <ele>1014</ele>
        <time>2023-06-25T11:01:32Z</time>
      </trkpt>
      <trkpt lat="44.2959" lon="2.95828">
        <ele>1013.5</ele>
        <time>2023-06-25T11:01:33Z</time>
      </trkpt>
      <trkpt lat="44.29594" lon="2.95822">
        <ele>1013.1</ele>
        <time>2023-06-25T11:01:34Z</time>
      </trkpt>
      <trkpt lat="44.29598" lon="2.95816">
        <ele>1012.6</ele>
        <time>2023-06-25T11:01:35Z</time>
      </trkpt>
      <trkpt lat="44.29603" lon="2.95809">
        <ele>1012.1</ele>
        <time>2023-06-25T11:01:36Z</time>
      </trkpt>
      <trkpt lat="44.29608" lon="2.95803">
        <ele>1011.6</ele>
        <time>2023-06-25T11:01:37Z</time>
      </trkpt>
      <trkpt lat="44.29612" lon="2.95796">
        <ele>1011</ele>
        <time>2023-06-25T11:01:38Z</time>
      </trkpt>
      <trkpt lat="44.29617" lon="2.9579">
        <ele>1010.5</ele>
        <time>2023-06-25T11:01:39Z</time>
      </trkpt>
      <trkpt lat="44.29622" lon="2.95783">
        <ele>1009.9</ele>
        <time>2023-06-25T11:01:40Z</time>
      </trkpt>
      <trkpt lat="44.29626" lon="2.95777">
        <ele>1009.3</ele>
        <time>2023-06-25T11:01:41Z</time>
      </trkpt>
      <trkpt lat="44.29631" lon="2.95771">
        <ele>1008.8</ele>
        <time>2023-06-25T11:01:42Z</time>
      </trkpt>
      <trkpt lat="44.29636" lon="2.95765">
        <ele>1008.3</ele>
        <time>2023-06-25T11:01:43Z</time>
      </trkpt>
      <trkpt lat="44.29641" lon="2.9576">
        <ele>1007.9</ele>
        <time>2023-06-25T11:01:44Z</time>
      </trkpt>
      <trkpt lat="44.29646" lon="2.95755">
        <ele>1007.5</ele>
        <time>2023-06-25T11:01:45Z</time>
      </trkpt>
      <trkpt lat="44.29651" lon="2.95752">
        <ele>1007.1</ele>
        <time>2023-06-25T11:01:46Z</time>
      </trkpt>
      <trkpt lat="44.29656" lon="2.95749">
        <ele>1006.7</ele>
        <time>2023-06-25T11:01:47Z</time>
      </trkpt>
      <trkpt lat="44.29662" lon="2.95747">
        <ele>1006.2</ele>
        <time>2023-06-25T11:01:48Z</time>
      </trkpt>
      <trkpt lat="44.29668" lon="2.95746">
        <ele>1005.8</ele>
        <time>2023-06-25T11:01:49Z</time>
      </trkpt>
      <trkpt lat="44.29673" lon="2.95745">
        <ele>1005.3</ele>
        <time>2023-06-25T11:01:50Z</time>
      </trkpt>
      <trkpt lat="44.2968" lon="2.95743">
        <ele>1004.8</ele>
        <time>2023-06-25T11:01:51Z</time>
      </trkpt>
      <trkpt lat="44.29687" lon="2.95742">
        <ele>1004.1</ele>
        <time>2023-06-25T11:01:52Z</time>
      </trkpt>
      <trkpt lat="44.29695" lon="2.9574">
        <ele>1003.4</ele>
        <time>2023-06-25T11:01:53Z</time>
      </trkpt>
      <trkpt lat="44.29704" lon="2.95737">
        <ele>1002.7</ele>
        <time>2023-06-25T11:01:54Z</time>
      </trkpt>
      <trkpt lat="44.29711" lon="2.95735">
        <ele>1002.2</ele>
        <time>2023-06-25T11:01:55Z</time>
      </trkpt>
      <trkpt lat="44.29717" lon="2.95733">
        <ele>1001.7</ele>
        <time>2023-06-25T11:01:56Z</time>
      </trkpt>
      <trkpt lat="44.29721" lon="2.95731">
        <ele>1001.3</ele>
        <time>2023-06-25T11:01:57Z</time>
      </trkpt>
      <trkpt lat="44.29724" lon="2.9573">
        <ele>1001.1</ele>
        <time>2023-06-25T11:01:58Z</time>
      </trkpt>
      <trkpt lat="44.29727" lon="2.95729">
        <ele>1000.9</ele>
        <time>2023-06-25T11:01:59Z</time>
      </trkpt>
      <trkpt lat="44.29729" lon="2.95728">
        <ele>1000.7</ele>
        <time>2023-06-25T11:02:00Z</time>
      </trkpt>
      <trkpt lat="44.29729" lon="2.95728">
        <ele>1000.7</ele>
        <time>2023-06-25T11:02:01Z</time>
      </trkpt>
      <trkpt lat="44.29729" lon="2.95728">
        <ele>1000.7</ele>
        <time>2023-06-25T11:02:02Z</time>
      </trkpt>
      <trkpt lat="44.29729" lon="2.95728">
        <ele>1000.6</ele>
        <time>2023-06-25T11:02:03Z</time>
      </trkpt>
      <trkpt lat="44.29728" lon="2.95728">
        <ele>1000.6</ele>
        <time>2023-06-25T11:02:04Z</time>
      </trkpt>
      <trkpt lat="44.29729" lon="2.95728">
        <ele>1000.6</ele>
        <time>2023-06-25T11:02:06Z</time>
      </trkpt>
      <trkpt lat="44.29729" lon="2.95728">
        <ele>1000.6</ele>
        <time>2023-06-25T11:02:07Z</time>
      </trkpt>
      <trkpt lat="44.29729" lon="2.95728">
        <ele>1000.6</ele>
        <time>2023-06-25T11:02:08Z</time>
      </trkpt>
      <trkpt lat="44.29729" lon="2.95728">
        <ele>1000.6</ele>
        <time>2023-06-25T11:02:10Z</time>
      </trkpt>
      <trkpt lat="44.29735" lon="2.95726">
        <ele>1000</ele>
        <time>2023-06-25T11:02:36Z</time>
      </trkpt>
      <trkpt lat="44.29737" lon="2.95724">
        <ele>999.9</ele>
        <time>2023-06-25T11:02:37Z</time>
      </trkpt>
      <trkpt lat="44.29744" lon="2.9572">
        <ele>999.3</ele>
        <time>2023-06-25T11:02:39Z</time>
      </trkpt>
      <trkpt lat="44.29748" lon="2.95717">
        <ele>999</ele>
        <time>2023-06-25T11:02:40Z</time>
      </trkpt>
      <trkpt lat="44.29756" lon="2.95712">
        <ele>998.5</ele>
        <time>2023-06-25T11:02:41Z</time>
      </trkpt>
      <trkpt lat="44.29762" lon="2.95708">
        <ele>998.1</ele>
        <time>2023-06-25T11:02:42Z</time>
      </trkpt>
      <trkpt lat="44.29767" lon="2.95705">
        <ele>997.8</ele>
        <time>2023-06-25T11:02:43Z</time>
      </trkpt>
      <trkpt lat="44.29771" lon="2.95701">
        <ele>997.5</ele>
        <time>2023-06-25T11:02:44Z</time>
      </trkpt>
      <trkpt lat="44.29776" lon="2.95698">
        <ele>997.2</ele>
        <time>2023-06-25T11:02:45Z</time>
      </trkpt>
      <trkpt lat="44.29782" lon="2.95694">
        <ele>996.8</ele>
        <time>2023-06-25T11:02:46Z</time>
      </trkpt>
      <trkpt lat="44.29787" lon="2.9569">
        <ele>996.4</ele>
        <time>2023-06-25T11:02:47Z</time>
      </trkpt>
      <trkpt lat="44.29793" lon="2.95685">
        <ele>996</ele>
        <time>2023-06-25T11:02:48Z</time>
      </trkpt>
      <trkpt lat="44.29799" lon="2.9568">
        <ele>995.5</ele>
        <time>2023-06-25T11:02:49Z</time>
      </trkpt>
      <trkpt lat="44.29805" lon="2.95674">
        <ele>995</ele>
        <time>2023-06-25T11:02:50Z</time>
      </trkpt>
      <trkpt lat="44.29811" lon="2.9567">
        <ele>994.4</ele>
        <time>2023-06-25T11:02:51Z</time>
      </trkpt>
      <trkpt lat="44.29817" lon="2.95665">
        <ele>993.8</ele>
        <time>2023-06-25T11:02:52Z</time>
      </trkpt>
      <trkpt lat="44.29823" lon="2.95661">
        <ele>993.3</ele>
        <time>2023-06-25T11:02:53Z</time>
      </trkpt>
      <trkpt lat="44.29829" lon="2.95657">
        <ele>992.8</ele>
        <time>2023-06-25T11:02:54Z</time>
      </trkpt>
      <trkpt lat="44.29835" lon="2.95652">
        <ele>992.2</ele>
        <time>2023-06-25T11:02:55Z</time>
      </trkpt>
      <trkpt lat="44.29841" lon="2.95648">
        <ele>991.6</ele>
        <time>2023-06-25T11:02:56Z</time>
      </trkpt>
      <trkpt lat="44.29846" lon="2.95644">
        <ele>991</ele>
        <time>2023-06-25T11:02:57Z</time>
      </trkpt>
      <trkpt lat="44.29852" lon="2.95639">
        <ele>990.3</ele>
        <time>2023-06-25T11:02:58Z</time>
      </trkpt>
      <trkpt lat="44.29857" lon="2.95635">
        <ele>989.8</ele>
        <time>2023-06-25T11:02:59Z</time>
      </trkpt>
      <trkpt lat="44.29863" lon="2.95631">
        <ele>989.3</ele>
        <time>2023-06-25T11:03:00Z</time>
      </trkpt>
      <trkpt lat="44.29869" lon="2.95626">
        <ele>988.7</ele>
        <time>2023-06-25T11:03:01Z</time>
      </trkpt>
      <trkpt lat="44.29874" lon="2.95622">
        <ele>988.1</ele>
        <time>2023-06-25T11:03:02Z</time>
      </trkpt>
      <trkpt lat="44.2988" lon="2.95618">
        <ele>987.4</ele>
        <time>2023-06-25T11:03:03Z</time>
      </trkpt>
      <trkpt lat="44.29885" lon="2.95613">
        <ele>986.5</ele>
        <time>2023-06-25T11:03:04Z</time>
      </trkpt>
      <trkpt lat="44.29891" lon="2.95609">
        <ele>985.7</ele>
        <time>2023-06-25T11:03:05Z</time>
      </trkpt>
      <trkpt lat="44.29896" lon="2.95605">
        <ele>985</ele>
        <time>2023-06-25T11:03:06Z</time>
      </trkpt>
      <trkpt lat="44.29901" lon="2.95602">
        <ele>984.3</ele>
        <time>2023-06-25T11:03:07Z</time>
      </trkpt>
      <trkpt lat="44.29907" lon="2.95598">
        <ele>983.6</ele>
        <time>2023-06-25T11:03:08Z</time>
      </trkpt>
      <trkpt lat="44.29913" lon="2.95594">
        <ele>982.9</ele>
        <time>2023-06-25T11:03:09Z</time>
      </trkpt>
      <trkpt lat="44.2992" lon="2.9559">
        <ele>982</ele>
        <time>2023-06-25T11:03:10Z</time>
      </trkpt>
      <trkpt lat="44.29927" lon="2.95587">
        <ele>981.2</ele>
        <time>2023-06-25T11:03:11Z</time>
      </trkpt>
      <trkpt lat="44.29934" lon="2.95585">
        <ele>980.5</ele>
        <time>2023-06-25T11:03:12Z</time>
      </trkpt>
      <trkpt lat="44.2994" lon="2.95583">
        <ele>979.9</ele>
        <time>2023-06-25T11:03:13Z</time>
      </trkpt>
      <trkpt lat="44.29946" lon="2.95581">
        <ele>979.2</ele>
        <time>2023-06-25T11:03:14Z</time>
      </trkpt>
      <trkpt lat="44.29954" lon="2.9558">
        <ele>978.3</ele>
        <time>2023-06-25T11:03:15Z</time>
      </trkpt>
      <trkpt lat="44.29961" lon="2.95579">
        <ele>977.4</ele>
        <time>2023-06-25T11:03:16Z</time>
      </trkpt>
      <trkpt lat="44.29968" lon="2.95578">
        <ele>976.6</ele>
        <time>2023-06-25T11:03:17Z</time>
      </trkpt>
      <trkpt lat="44.29975" lon="2.95576">
        <ele>975.7</ele>
        <time>2023-06-25T11:03:18Z</time>
      </trkpt>
      <trkpt lat="44.29982" lon="2.95575">
        <ele>975</ele>
        <time>2023-06-25T11:03:19Z</time>
      </trkpt>
      <trkpt lat="44.29988" lon="2.95574">
        <ele>974.4</ele>
        <time>2023-06-25T11:03:20Z</time>
      </trkpt>
      <trkpt lat="44.29994" lon="2.95574">
        <ele>973.7</ele>
        <time>2023-06-25T11:03:21Z</time>
      </trkpt>
      <trkpt lat="44.30001" lon="2.95573">
        <ele>973.1</ele>
        <time>2023-06-25T11:03:22Z</time>
      </trkpt>
      <trkpt lat="44.30007" lon="2.95573">
        <ele>972.4</ele>
        <time>2023-06-25T11:03:23Z</time>
      </trkpt>
      <trkpt lat="44.30013" lon="2.95572">
        <ele>971.8</ele>
        <time>2023-06-25T11:03:24Z</time>
      </trkpt>
      <trkpt lat="44.30019" lon="2.95571">
        <ele>971.3</ele>
        <time>2023-06-25T11:03:25Z</time>
      </trkpt>
      <trkpt lat="44.30024" lon="2.95569">
        <ele>970.6</ele>
        <time>2023-06-25T11:03:26Z</time>
      </trkpt>
      <trkpt lat="44.30031" lon="2.9557">
        <ele>970.2</ele>
        <time>2023-06-25T11:03:27Z</time>
      </trkpt>
      <trkpt lat="44.30038" lon="2.95571">
        <ele>969.8</ele>
        <time>2023-06-25T11:03:28Z</time>
      </trkpt>
      <trkpt lat="44.30045" lon="2.95572">
        <ele>969.4</ele>
        <time>2023-06-25T11:03:29Z</time>
      </trkpt>
      <trkpt lat="44.30051" lon="2.95574">
        <ele>969</ele>
        <time>2023-06-25T11:03:30Z</time>
      </trkpt>
      <trkpt lat="44.30057" lon="2.95577">
        <ele>968.6</ele>
        <time>2023-06-25T11:03:31Z</time>
      </trkpt>
      <trkpt lat="44.30064" lon="2.9558">
        <ele>968.1</ele>
        <time>2023-06-25T11:03:32Z</time>
      </trkpt>
      <trkpt lat="44.30071" lon="2.95584">
        <ele>967.5</ele>
        <time>2023-06-25T11:03:33Z</time>
      </trkpt>
      <trkpt lat="44.30079" lon="2.95587">
        <ele>966.9</ele>
        <time>2023-06-25T11:03:34Z</time>
      </trkpt>
      <trkpt lat="44.30088" lon="2.95591">
        <ele>966.3</ele>
        <time>2023-06-25T11:03:35Z</time>
      </trkpt>
      <trkpt lat="44.30096" lon="2.95596">
        <ele>965.6</ele>
        <time>2023-06-25T11:03:36Z</time>
      </trkpt>
      <trkpt lat="44.30105" lon="2.95601">
        <ele>965</ele>
        <time>2023-06-25T11:03:37Z</time>
      </trkpt>
      <trkpt lat="44.30113" lon="2.95606">
        <ele>964.4</ele>
        <time>2023-06-25T11:03:38Z</time>
      </trkpt>
      <trkpt lat="44.30122" lon="2.9561">
        <ele>963.7</ele>
        <time>2023-06-25T11:03:39Z</time>
      </trkpt>
      <trkpt lat="44.30131" lon="2.95616">
        <ele>963.1</ele>
        <time>2023-06-25T11:03:40Z</time>
      </trkpt>
      <trkpt lat="44.30141" lon="2.95621">
        <ele>962.4</ele>
        <time>2023-06-25T11:03:41Z</time>
      </trkpt>
      <trkpt lat="44.3015" lon="2.95626">
        <ele>961.8</ele>
        <time>2023-06-25T11:03:42Z</time>
      </trkpt>
      <trkpt lat="44.30159" lon="2.9563">
        <ele>961.2</ele>
        <time>2023-06-25T11:03:43Z</time>
      </trkpt>
      <trkpt lat="44.30168" lon="2.95632">
        <ele>960.7</ele>
        <time>2023-06-25T11:03:44Z</time>
      </trkpt>
      <trkpt lat="44.30177" lon="2.95634">
        <ele>960.3</ele>
        <time>2023-06-25T11:03:45Z</time>
      </trkpt>
      <trkpt lat="44.30186" lon="2.95636">
        <ele>959.8</ele>
        <time>2023-06-25T11:03:46Z</time>
      </trkpt>
      <trkpt lat="44.30195" lon="2.95636">
        <ele>959.5</ele>
        <time>2023-06-25T11:03:47Z</time>
      </trkpt>
      <trkpt lat="44.30205" lon="2.95635">
        <ele>959.3</ele>
        <time>2023-06-25T11:03:48Z</time>
      </trkpt>
      <trkpt lat="44.30214" lon="2.95634">
        <ele>959</ele>
        <time>2023-06-25T11:03:49Z</time>
      </trkpt>
      <trkpt lat="44.30223" lon="2.95632">
        <ele>958.8</ele>
        <time>2023-06-25T11:03:50Z</time>
      </trkpt>
      <trkpt lat="44.30232" lon="2.95628">
        <ele>958.6</ele>
        <time>2023-06-25T11:03:51Z</time>
      </trkpt>
      <trkpt lat="44.30241" lon="2.95624">
        <ele>958.4</ele>
        <time>2023-06-25T11:03:52Z</time>
      </trkpt>
      <trkpt lat="44.30249" lon="2.95621">
        <ele>958.2</ele>
        <time>2023-06-25T11:03:53Z</time>
      </trkpt>
      <trkpt lat="44.30257" lon="2.95617">
        <ele>958.1</ele>
        <time>2023-06-25T11:03:54Z</time>
      </trkpt>
      <trkpt lat="44.30264" lon="2.95613">
        <ele>958</ele>
        <time>2023-06-25T11:03:55Z</time>
      </trkpt>
      <trkpt lat="44.30268" lon="2.95611">
        <ele>958</ele>
        <time>2023-06-25T11:03:56Z</time>
      </trkpt>
      <trkpt lat="44.30271" lon="2.95609">
        <ele>958</ele>
        <time>2023-06-25T11:03:57Z</time>
      </trkpt>
      <trkpt lat="44.30272" lon="2.95608">
        <ele>958</ele>
        <time>2023-06-25T11:03:58Z</time>
      </trkpt>
      <trkpt lat="44.30273" lon="2.95605">
        <ele>958.1</ele>
        <time>2023-06-25T11:03:59Z</time>
      </trkpt>
      <trkpt lat="44.30272" lon="2.95603">
        <ele>958.1</ele>
        <time>2023-06-25T11:04:00Z</time>
      </trkpt>
      <trkpt lat="44.30271" lon="2.95603">
        <ele>958.1</ele>
        <time>2023-06-25T11:04:01Z</time>
      </trkpt>
      <trkpt lat="44.30268" lon="2.95605">
        <ele>958.2</ele>
        <time>2023-06-25T11:04:02Z</time>
      </trkpt>
      <trkpt lat="44.30267" lon="2.95606">
        <ele>958.2</ele>
        <time>2023-06-25T11:04:03Z</time>
      </trkpt>
      <trkpt lat="44.30264" lon="2.95608">
        <ele>958.2</ele>
        <time>2023-06-25T11:04:04Z</time>
      </trkpt>
      <trkpt lat="44.3026" lon="2.95609">
        <ele>958.3</ele>
        <time>2023-06-25T11:04:05Z</time>
      </trkpt>
      <trkpt lat="44.30258" lon="2.9561">
        <ele>958.3</ele>
        <time>2023-06-25T11:04:06Z</time>
      </trkpt>
      <trkpt lat="44.30256" lon="2.95611">
        <ele>958.4</ele>
        <time>2023-06-25T11:04:07Z</time>
      </trkpt>
      <trkpt lat="44.30252" lon="2.95613">
        <ele>958.4</ele>
        <time>2023-06-25T11:04:08Z</time>
      </trkpt>
      <trkpt lat="44.30249" lon="2.95614">
        <ele>958.5</ele>
        <time>2023-06-25T11:04:09Z</time>
      </trkpt>
      <trkpt lat="44.30245" lon="2.95615">
        <ele>958.6</ele>
        <time>2023-06-25T11:04:10Z</time>
      </trkpt>
      <trkpt lat="44.30239" lon="2.95617">
        <ele>958.7</ele>
        <time>2023-06-25T11:04:11Z</time>
      </trkpt>
      <trkpt lat="44.3023" lon="2.95621">
        <ele>958.8</ele>
        <time>2023-06-25T11:04:13Z</time>
      </trkpt>
      <trkpt lat="44.30225" lon="2.95622">
        <ele>958.9</ele>
        <time>2023-06-25T11:04:14Z</time>
      </trkpt>
      <trkpt lat="44.3022" lon="2.95623">
        <ele>959</ele>
        <time>2023-06-25T11:04:15Z</time>
      </trkpt>
      <trkpt lat="44.30214" lon="2.95624">
        <ele>959.1</ele>
        <time>2023-06-25T11:04:16Z</time>
      </trkpt>
      <trkpt lat="44.30209" lon="2.95625">
        <ele>959.2</ele>
        <time>2023-06-25T11:04:17Z</time>
      </trkpt>
      <trkpt lat="44.30205" lon="2.95627">
        <ele>959.3</ele>
        <time>2023-06-25T11:04:18Z</time>
      </trkpt>
      <trkpt lat="44.30201" lon="2.95628">
        <ele>959.4</ele>
        <time>2023-06-25T11:04:19Z</time>
      </trkpt>
      <trkpt lat="44.30199" lon="2.95629">
        <ele>959.4</ele>
        <time>2023-06-25T11:04:20Z</time>
      </trkpt>
      <trkpt lat="44.30193" lon="2.95637">
        <ele>959.6</ele>
        <time>2023-06-25T11:04:22Z</time>
      </trkpt>
      <trkpt lat="44.30189" lon="2.95643">
        <ele>959.5</ele>
        <time>2023-06-25T11:04:23Z</time>
      </trkpt>
      <trkpt lat="44.30187" lon="2.95648">
        <ele>959.2</ele>
        <time>2023-06-25T11:04:24Z</time>
      </trkpt>
      <trkpt lat="44.30186" lon="2.95655">
        <ele>958.9</ele>
        <time>2023-06-25T11:04:25Z</time>
      </trkpt>
      <trkpt lat="44.30186" lon="2.95663">
        <ele>958.6</ele>
        <time>2023-06-25T11:04:26Z</time>
      </trkpt>
      <trkpt lat="44.30185" lon="2.95671">
        <ele>958.3</ele>
        <time>2023-06-25T11:04:27Z</time>
      </trkpt>
      <trkpt lat="44.30184" lon="2.95679">
        <ele>958</ele>
        <time>2023-06-25T11:04:28Z</time>
      </trkpt>
      <trkpt lat="44.30182" lon="2.95688">
        <ele>957.7</ele>
        <time>2023-06-25T11:04:29Z</time>
      </trkpt>
      <trkpt lat="44.3018" lon="2.95696">
        <ele>957.4</ele>
        <time>2023-06-25T11:04:30Z</time>
      </trkpt>
      <trkpt lat="44.30178" lon="2.95704">
        <ele>957.2</ele>
        <time>2023-06-25T11:04:31Z</time>
      </trkpt>
      <trkpt lat="44.30176" lon="2.95713">
        <ele>956.9</ele>
        <time>2023-06-25T11:04:32Z</time>
      </trkpt>
      <trkpt lat="44.30173" lon="2.95721">
        <ele>956.7</ele>
        <time>2023-06-25T11:04:33Z</time>
      </trkpt>
      <trkpt lat="44.3017" lon="2.95729">
        <ele>956.4</ele>
        <time>2023-06-25T11:04:34Z</time>
      </trkpt>
      <trkpt lat="44.30166" lon="2.95736">
        <ele>956.2</ele>
        <time>2023-06-25T11:04:35Z</time>
      </trkpt>
      <trkpt lat="44.30162" lon="2.95744">
        <ele>955.9</ele>
        <time>2023-06-25T11:04:36Z</time>
      </trkpt>
      <trkpt lat="44.30159" lon="2.95752">
        <ele>955.6</ele>
        <time>2023-06-25T11:04:37Z</time>
      </trkpt>
      <trkpt lat="44.30155" lon="2.9576">
        <ele>955.4</ele>
        <time>2023-06-25T11:04:38Z</time>
      </trkpt>
      <trkpt lat="44.3015" lon="2.95767">
        <ele>955.1</ele>
        <time>2023-06-25T11:04:39Z</time>
      </trkpt>
      <trkpt lat="44.30146" lon="2.95775">
        <ele>954.8</ele>
        <time>2023-06-25T11:04:40Z</time>
      </trkpt>
      <trkpt lat="44.30141" lon="2.95782">
        <ele>954.5</ele>
        <time>2023-06-25T11:04:41Z</time>
      </trkpt>
      <trkpt lat="44.30135" lon="2.95789">
        <ele>954.2</ele>
        <time>2023-06-25T11:04:42Z</time>
      </trkpt>
      <trkpt lat="44.30128" lon="2.95794">
        <ele>953.9</ele>
        <time>2023-06-25T11:04:43Z</time>
      </trkpt>
      <trkpt lat="44.30121" lon="2.95798">
        <ele>953.6</ele>
        <time>2023-06-25T11:04:44Z</time>
      </trkpt>
      <trkpt lat="44.30114" lon="2.958">
        <ele>953.4</ele>
        <time>2023-06-25T11:04:45Z</time>
      </trkpt>
      <trkpt lat="44.30107" lon="2.95803">
        <ele>953.1</ele>
        <time>2023-06-25T11:04:46Z</time>
      </trkpt>
      <trkpt lat="44.301" lon="2.95805">
        <ele>952.8</ele>
        <time>2023-06-25T11:04:47Z</time>
      </trkpt>
      <trkpt lat="44.30092" lon="2.95807">
        <ele>952.5</ele>
        <time>2023-06-25T11:04:48Z</time>
      </trkpt>
      <trkpt lat="44.30085" lon="2.95811">
        <ele>952.2</ele>
        <time>2023-06-25T11:04:49Z</time>
      </trkpt>
      <trkpt lat="44.30078" lon="2.95816">
        <ele>951.9</ele>
        <time>2023-06-25T11:04:50Z</time>
      </trkpt>
      <trkpt lat="44.30071" lon="2.95821">
        <ele>951.6</ele>
        <time>2023-06-25T11:04:51Z</time>
      </trkpt>
      <trkpt lat="44.30065" lon="2.95827">
        <ele>951.3</ele>
        <time>2023-06-25T11:04:52Z</time>
      </trkpt>
      <trkpt lat="44.30059" lon="2.95834">
        <ele>951</ele>
        <time>2023-06-25T11:04:53Z</time>
      </trkpt>
      <trkpt lat="44.30054" lon="2.95842">
        <ele>950.7</ele>
        <time>2023-06-25T11:04:54Z</time>
      </trkpt>
      <trkpt lat="44.30049" lon="2.95851">
        <ele>950.4</ele>
        <time>2023-06-25T11:04:55Z</time>
      </trkpt>
      <trkpt lat="44.30045" lon="2.9586">
        <ele>950.1</ele>
        <time>2023-06-25T11:04:56Z</time>
      </trkpt>
      <trkpt lat="44.30042" lon="2.95871">
        <ele>949.8</ele>
        <time>2023-06-25T11:04:57Z</time>
      </trkpt>
      <trkpt lat="44.30038" lon="2.95881">
        <ele>949.5</ele>
        <time>2023-06-25T11:04:58Z</time>
      </trkpt>
      <trkpt lat="44.30035" lon="2.95891">
        <ele>949.2</ele>
        <time>2023-06-25T11:04:59Z</time>
      </trkpt>
      <trkpt lat="44.30031" lon="2.95901">
        <ele>949</ele>
        <time>2023-06-25T11:05:00Z</time>
      </trkpt>
      <trkpt lat="44.30027" lon="2.9591">
        <ele>948.7</ele>
        <time>2023-06-25T11:05:01Z</time>
      </trkpt>
      <trkpt lat="44.30021" lon="2.95919">
        <ele>948.4</ele>
        <time>2023-06-25T11:05:02Z</time>
      </trkpt>
      <trkpt lat="44.30014" lon="2.95926">
        <ele>948.1</ele>
        <time>2023-06-25T11:05:03Z</time>
      </trkpt>
      <trkpt lat="44.30006" lon="2.9593">
        <ele>947.8</ele>
        <time>2023-06-25T11:05:04Z</time>
      </trkpt>
      <trkpt lat="44.29998" lon="2.95933">
        <ele>947.6</ele>
        <time>2023-06-25T11:05:05Z</time>
      </trkpt>
      <trkpt lat="44.2999" lon="2.95934">
        <ele>947.3</ele>
        <time>2023-06-25T11:05:06Z</time>
      </trkpt>
      <trkpt lat="44.29983" lon="2.95936">
        <ele>947.1</ele>
        <time>2023-06-25T11:05:07Z</time>
      </trkpt>
      <trkpt lat="44.29977" lon="2.95938">
        <ele>946.9</ele>
        <time>2023-06-25T11:05:08Z</time>
      </trkpt>
      <trkpt lat="44.29972" lon="2.95941">
        <ele>946.6</ele>
        <time>2023-06-25T11:05:09Z</time>
      </trkpt>
      <trkpt lat="44.29968" lon="2.95947">
        <ele>946.4</ele>
        <time>2023-06-25T11:05:10Z</time>
      </trkpt>
      <trkpt lat="44.29964" lon="2.95954">
        <ele>946.1</ele>
        <time>2023-06-25T11:05:11Z</time>
      </trkpt>
      <trkpt lat="44.29963" lon="2.95962">
        <ele>945.8</ele>
        <time>2023-06-25T11:05:12Z</time>
      </trkpt>
      <trkpt lat="44.29962" lon="2.95971">
        <ele>945.5</ele>
        <time>2023-06-25T11:05:13Z</time>
      </trkpt>
      <trkpt lat="44.29961" lon="2.9598">
        <ele>945.2</ele>
        <time>2023-06-25T11:05:14Z</time>
      </trkpt>
      <trkpt lat="44.2996" lon="2.95989">
        <ele>944.9</ele>
        <time>2023-06-25T11:05:15Z</time>
      </trkpt>
      <trkpt lat="44.2996" lon="2.95998">
        <ele>943.7</ele>
        <time>2023-06-25T11:05:16Z</time>
      </trkpt>
      <trkpt lat="44.29962" lon="2.96006">
        <ele>943.4</ele>
        <time>2023-06-25T11:05:17Z</time>
      </trkpt>
      <trkpt lat="44.29964" lon="2.96013">
        <ele>943.1</ele>
        <time>2023-06-25T11:05:18Z</time>
      </trkpt>
      <trkpt lat="44.29968" lon="2.96017">
        <ele>943</ele>
        <time>2023-06-25T11:05:19Z</time>
      </trkpt>
      <trkpt lat="44.29973" lon="2.96018">
        <ele>942.7</ele>
        <time>2023-06-25T11:05:20Z</time>
      </trkpt>
      <trkpt lat="44.29979" lon="2.96019">
        <ele>942.5</ele>
        <time>2023-06-25T11:05:21Z</time>
      </trkpt>
      <trkpt lat="44.29985" lon="2.96022">
        <ele>942.3</ele>
        <time>2023-06-25T11:05:22Z</time>
      </trkpt>
      <trkpt lat="44.2999" lon="2.96028">
        <ele>942.1</ele>
        <time>2023-06-25T11:05:23Z</time>
      </trkpt>
      <trkpt lat="44.29993" lon="2.96037">
        <ele>941.8</ele>
        <time>2023-06-25T11:05:24Z</time>
      </trkpt>
      <trkpt lat="44.29995" lon="2.96046">
        <ele>941.6</ele>
        <time>2023-06-25T11:05:25Z</time>
      </trkpt>
      <trkpt lat="44.29995" lon="2.96055">
        <ele>941.4</ele>
        <time>2023-06-25T11:05:26Z</time>
      </trkpt>
      <trkpt lat="44.29994" lon="2.96065">
        <ele>941.1</ele>
        <time>2023-06-25T11:05:27Z</time>
      </trkpt>
      <trkpt lat="44.29991" lon="2.96073">
        <ele>940.9</ele>
        <time>2023-06-25T11:05:28Z</time>
      </trkpt>
      <trkpt lat="44.29989" lon="2.96082">
        <ele>940.7</ele>
        <time>2023-06-25T11:05:29Z</time>
      </trkpt>
      <trkpt lat="44.29986" lon="2.9609">
        <ele>940.5</ele>
        <time>2023-06-25T11:05:30Z</time>
      </trkpt>
      <trkpt lat="44.29983" lon="2.96098">
        <ele>940.3</ele>
        <time>2023-06-25T11:05:31Z</time>
      </trkpt>
      <trkpt lat="44.29981" lon="2.96106">
        <ele>940</ele>
        <time>2023-06-25T11:05:32Z</time>
      </trkpt>
      <trkpt lat="44.29979" lon="2.96115">
        <ele>939.8</ele>
        <time>2023-06-25T11:05:33Z</time>
      </trkpt>
      <trkpt lat="44.29978" lon="2.96125">
        <ele>939.6</ele>
        <time>2023-06-25T11:05:34Z</time>
      </trkpt>
      <trkpt lat="44.29977" lon="2.96134">
        <ele>939.3</ele>
        <time>2023-06-25T11:05:35Z</time>
      </trkpt>
      <trkpt lat="44.29978" lon="2.96144">
        <ele>939.1</ele>
        <time>2023-06-25T11:05:36Z</time>
      </trkpt>
      <trkpt lat="44.29979" lon="2.96154">
        <ele>938.9</ele>
        <time>2023-06-25T11:05:37Z</time>
      </trkpt>
      <trkpt lat="44.2998" lon="2.96163">
        <ele>938.7</ele>
        <time>2023-06-25T11:05:38Z</time>
      </trkpt>
      <trkpt lat="44.29982" lon="2.96173">
        <ele>938.4</ele>
        <time>2023-06-25T11:05:39Z</time>
      </trkpt>
      <trkpt lat="44.29984" lon="2.96183">
        <ele>938.2</ele>
        <time>2023-06-25T11:05:40Z</time>
      </trkpt>
      <trkpt lat="44.29986" lon="2.96192">
        <ele>938</ele>
        <time>2023-06-25T11:05:41Z</time>
      </trkpt>
      <trkpt lat="44.29987" lon="2.96202">
        <ele>937.8</ele>
        <time>2023-06-25T11:05:42Z</time>
      </trkpt>
      <trkpt lat="44.29989" lon="2.96212">
        <ele>937.5</ele>
        <time>2023-06-25T11:05:43Z</time>
      </trkpt>
      <trkpt lat="44.2999" lon="2.96222">
        <ele>937.3</ele>
        <time>2023-06-25T11:05:44Z</time>
      </trkpt>
      <trkpt lat="44.29992" lon="2.96232">
        <ele>937.1</ele>
        <time>2023-06-25T11:05:45Z</time>
      </trkpt>
      <trkpt lat="44.29993" lon="2.96242">
        <ele>936.8</ele>
        <time>2023-06-25T11:05:46Z</time>
      </trkpt>
      <trkpt lat="44.29993" lon="2.96253">
        <ele>936.6</ele>
        <time>2023-06-25T11:05:47Z</time>
      </trkpt>
      <trkpt lat="44.29993" lon="2.96264">
        <ele>936.4</ele>
        <time>2023-06-25T11:05:48Z</time>
      </trkpt>
      <trkpt lat="44.29993" lon="2.96275">
        <ele>936.2</ele>
        <time>2023-06-25T11:05:49Z</time>
      </trkpt>
      <trkpt lat="44.29993" lon="2.96285">
        <ele>935.9</ele>
        <time>2023-06-25T11:05:50Z</time>
      </trkpt>
      <trkpt lat="44.29992" lon="2.96296">
        <ele>935.7</ele>
        <time>2023-06-25T11:05:51Z</time>
      </trkpt>
      <trkpt lat="44.29989" lon="2.96307">
        <ele>935.4</ele>
        <time>2023-06-25T11:05:52Z</time>
      </trkpt>
      <trkpt lat="44.29986" lon="2.96317">
        <ele>935.1</ele>
        <time>2023-06-25T11:05:53Z</time>
      </trkpt>
      <trkpt lat="44.29982" lon="2.96326">
        <ele>934.8</ele>
        <time>2023-06-25T11:05:54Z</time>
      </trkpt>
      <trkpt lat="44.29979" lon="2.96336">
        <ele>934.5</ele>
        <time>2023-06-25T11:05:55Z</time>
      </trkpt>
      <trkpt lat="44.29977" lon="2.96347">
        <ele>934.2</ele>
        <time>2023-06-25T11:05:56Z</time>
      </trkpt>
      <trkpt lat="44.29977" lon="2.96359">
        <ele>933.9</ele>
        <time>2023-06-25T11:05:57Z</time>
      </trkpt>
      <trkpt lat="44.29977" lon="2.9637">
        <ele>933.5</ele>
        <time>2023-06-25T11:05:58Z</time>
      </trkpt>
      <trkpt lat="44.29978" lon="2.96382">
        <ele>933.2</ele>
        <time>2023-06-25T11:05:59Z</time>
      </trkpt>
      <trkpt lat="44.29978" lon="2.96393">
        <ele>932.9</ele>
        <time>2023-06-25T11:06:00Z</time>
      </trkpt>
      <trkpt lat="44.29977" lon="2.96405">
        <ele>932.5</ele>
        <time>2023-06-25T11:06:01Z</time>
      </trkpt>
      <trkpt lat="44.29976" lon="2.96417">
        <ele>932.2</ele>
        <time>2023-06-25T11:06:02Z</time>
      </trkpt>
      <trkpt lat="44.29974" lon="2.96429">
        <ele>932</ele>
        <time>2023-06-25T11:06:03Z</time>
      </trkpt>
      <trkpt lat="44.29972" lon="2.96441">
        <ele>931.7</ele>
        <time>2023-06-25T11:06:04Z</time>
      </trkpt>
      <trkpt lat="44.2997" lon="2.96453">
        <ele>931.4</ele>
        <time>2023-06-25T11:06:05Z</time>
      </trkpt>
      <trkpt lat="44.29969" lon="2.96465">
        <ele>931.2</ele>
        <time>2023-06-25T11:06:06Z</time>
      </trkpt>
      <trkpt lat="44.2997" lon="2.96477">
        <ele>930.9</ele>
        <time>2023-06-25T11:06:07Z</time>
      </trkpt>
      <trkpt lat="44.29971" lon="2.96488">
        <ele>930.7</ele>
        <time>2023-06-25T11:06:08Z</time>
      </trkpt>
      <trkpt lat="44.29973" lon="2.965">
        <ele>930.4</ele>
        <time>2023-06-25T11:06:09Z</time>
      </trkpt>
      <trkpt lat="44.29975" lon="2.96511">
        <ele>930.2</ele>
        <time>2023-06-25T11:06:10Z</time>
      </trkpt>
      <trkpt lat="44.29977" lon="2.96522">
        <ele>929.9</ele>
        <time>2023-06-25T11:06:11Z</time>
      </trkpt>
      <trkpt lat="44.29979" lon="2.96533">
        <ele>929.6</ele>
        <time>2023-06-25T11:06:12Z</time>
      </trkpt>
      <trkpt lat="44.29981" lon="2.96544">
        <ele>929.4</ele>
        <time>2023-06-25T11:06:13Z</time>
      </trkpt>
      <trkpt lat="44.29984" lon="2.96555">
        <ele>929.2</ele>
        <time>2023-06-25T11:06:14Z</time>
      </trkpt>
      <trkpt lat="44.29988" lon="2.96565">
        <ele>928.9</ele>
        <time>2023-06-25T11:06:15Z</time>
      </trkpt>
      <trkpt lat="44.29994" lon="2.96573">
        <ele>928.7</ele>
        <time>2023-06-25T11:06:16Z</time>
      </trkpt>
      <trkpt lat="44.30001" lon="2.96579">
        <ele>928.4</ele>
        <time>2023-06-25T11:06:17Z</time>
      </trkpt>
      <trkpt lat="44.30008" lon="2.96585">
        <ele>928.2</ele>
        <time>2023-06-25T11:06:18Z</time>
      </trkpt>
      <trkpt lat="44.30014" lon="2.96586">
        <ele>928</ele>
        <time>2023-06-25T11:06:19Z</time>
      </trkpt>
      <trkpt lat="44.30021" lon="2.96582">
        <ele>927.7</ele>
        <time>2023-06-25T11:06:20Z</time>
      </trkpt>
      <trkpt lat="44.30027" lon="2.96574">
        <ele>927.5</ele>
        <time>2023-06-25T11:06:21Z</time>
      </trkpt>
      <trkpt lat="44.30031" lon="2.96564">
        <ele>927.3</ele>
        <time>2023-06-25T11:06:22Z</time>
      </trkpt>
      <trkpt lat="44.30034" lon="2.96554">
        <ele>927.1</ele>
        <time>2023-06-25T11:06:23Z</time>
      </trkpt>
      <trkpt lat="44.30037" lon="2.96542">
        <ele>926.9</ele>
        <time>2023-06-25T11:06:24Z</time>
      </trkpt>
      <trkpt lat="44.30038" lon="2.96531">
        <ele>926.6</ele>
        <time>2023-06-25T11:06:25Z</time>
      </trkpt>
      <trkpt lat="44.3004" lon="2.9652">
        <ele>926.4</ele>
        <time>2023-06-25T11:06:26Z</time>
      </trkpt>
      <trkpt lat="44.30042" lon="2.96508">
        <ele>926.2</ele>
        <time>2023-06-25T11:06:27Z</time>
      </trkpt>
      <trkpt lat="44.30044" lon="2.96497">
        <ele>925.9</ele>
        <time>2023-06-25T11:06:28Z</time>
      </trkpt>
      <trkpt lat="44.30046" lon="2.96486">
        <ele>925.7</ele>
        <time>2023-06-25T11:06:29Z</time>
      </trkpt>
      <trkpt lat="44.30049" lon="2.96475">
        <ele>925.4</ele>
        <time>2023-06-25T11:06:30Z</time>
      </trkpt>
      <trkpt lat="44.30053" lon="2.96466">
        <ele>925.1</ele>
        <time>2023-06-25T11:06:31Z</time>
      </trkpt>
      <trkpt lat="44.30059" lon="2.96457">
        <ele>924.9</ele>
        <time>2023-06-25T11:06:32Z</time>
      </trkpt>
      <trkpt lat="44.30065" lon="2.9645">
        <ele>924.6</ele>
        <time>2023-06-25T11:06:33Z</time>
      </trkpt>
      <trkpt lat="44.30071" lon="2.96443">
        <ele>924.4</ele>
        <time>2023-06-25T11:06:34Z</time>
      </trkpt>
      <trkpt lat="44.30077" lon="2.96436">
        <ele>924.1</ele>
        <time>2023-06-25T11:06:35Z</time>
      </trkpt>
      <trkpt lat="44.30082" lon="2.96429">
        <ele>923.9</ele>
        <time>2023-06-25T11:06:36Z</time>
      </trkpt>
      <trkpt lat="44.30088" lon="2.96421">
        <ele>923.6</ele>
        <time>2023-06-25T11:06:37Z</time>
      </trkpt>
      <trkpt lat="44.30093" lon="2.96413">
        <ele>923.4</ele>
        <time>2023-06-25T11:06:38Z</time>
      </trkpt>
      <trkpt lat="44.30099" lon="2.96405">
        <ele>923.2</ele>
        <time>2023-06-25T11:06:39Z</time>
      </trkpt>
      <trkpt lat="44.30105" lon="2.96398">
        <ele>923</ele>
        <time>2023-06-25T11:06:40Z</time>
      </trkpt>
      <trkpt lat="44.30111" lon="2.96393">
        <ele>922.8</ele>
        <time>2023-06-25T11:06:41Z</time>
      </trkpt>
      <trkpt lat="44.30118" lon="2.96388">
        <ele>922.7</ele>
        <time>2023-06-25T11:06:42Z</time>
      </trkpt>
      <trkpt lat="44.30125" lon="2.96384">
        <ele>922.5</ele>
        <time>2023-06-25T11:06:43Z</time>
      </trkpt>
      <trkpt lat="44.30132" lon="2.96383">
        <ele>922.3</ele>
        <time>2023-06-25T11:06:44Z</time>
      </trkpt>
      <trkpt lat="44.30139" lon="2.96383">
        <ele>922.1</ele>
        <time>2023-06-25T11:06:45Z</time>
      </trkpt>
      <trkpt lat="44.30147" lon="2.96385">
        <ele>921.8</ele>
        <time>2023-06-25T11:06:46Z</time>
      </trkpt>
      <trkpt lat="44.30154" lon="2.96388">
        <ele>921.5</ele>
        <time>2023-06-25T11:06:47Z</time>
      </trkpt>
      <trkpt lat="44.30161" lon="2.96391">
        <ele>921.3</ele>
        <time>2023-06-25T11:06:48Z</time>
      </trkpt>
      <trkpt lat="44.30168" lon="2.96395">
        <ele>921.1</ele>
        <time>2023-06-25T11:06:49Z</time>
      </trkpt>
      <trkpt lat="44.30174" lon="2.964">
        <ele>920.9</ele>
        <time>2023-06-25T11:06:50Z</time>
      </trkpt>
      <trkpt lat="44.30181" lon="2.96404">
        <ele>920.7</ele>
        <time>2023-06-25T11:06:51Z</time>
      </trkpt>
      <trkpt lat="44.30188" lon="2.9641">
        <ele>920.4</ele>
        <time>2023-06-25T11:06:52Z</time>
      </trkpt>
      <trkpt lat="44.30194" lon="2.96417">
        <ele>920</ele>
        <time>2023-06-25T11:06:53Z</time>
      </trkpt>
      <trkpt lat="44.30201" lon="2.96425">
        <ele>919.6</ele>
        <time>2023-06-25T11:06:54Z</time>
      </trkpt>
      <trkpt lat="44.30207" lon="2.96431">
        <ele>919.3</ele>
        <time>2023-06-25T11:06:55Z</time>
      </trkpt>
      <trkpt lat="44.30214" lon="2.96437">
        <ele>919.1</ele>
        <time>2023-06-25T11:06:56Z</time>
      </trkpt>
      <trkpt lat="44.30221" lon="2.96444">
        <ele>918.8</ele>
        <time>2023-06-25T11:06:57Z</time>
      </trkpt>
      <trkpt lat="44.30227" lon="2.9645">
        <ele>918.5</ele>
        <time>2023-06-25T11:06:58Z</time>
      </trkpt>
      <trkpt lat="44.30234" lon="2.96456">
        <ele>918.2</ele>
        <time>2023-06-25T11:06:59Z</time>
      </trkpt>
      <trkpt lat="44.3024" lon="2.96461">
        <ele>917.9</ele>
        <time>2023-06-25T11:07:00Z</time>
      </trkpt>
      <trkpt lat="44.30247" lon="2.96466">
        <ele>917.6</ele>
        <time>2023-06-25T11:07:01Z</time>
      </trkpt>
      <trkpt lat="44.30254" lon="2.96469">
        <ele>917.4</ele>
        <time>2023-06-25T11:07:02Z</time>
      </trkpt>
      <trkpt lat="44.30261" lon="2.96472">
        <ele>917.2</ele>
        <time>2023-06-25T11:07:03Z</time>
      </trkpt>
      <trkpt lat="44.30269" lon="2.96475">
        <ele>917.1</ele>
        <time>2023-06-25T11:07:04Z</time>
      </trkpt>
      <trkpt lat="44.30277" lon="2.96479">
        <ele>916.9</ele>
        <time>2023-06-25T11:07:05Z</time>
      </trkpt>
      <trkpt lat="44.30285" lon="2.96483">
        <ele>916.8</ele>
        <time>2023-06-25T11:07:06Z</time>
      </trkpt>
      <trkpt lat="44.30293" lon="2.96486">
        <ele>916.6</ele>
        <time>2023-06-25T11:07:07Z</time>
      </trkpt>
      <trkpt lat="44.30301" lon="2.96491">
        <ele>916.3</ele>
        <time>2023-06-25T11:07:08Z</time>
      </trkpt>
      <trkpt lat="44.30308" lon="2.96495">
        <ele>916</ele>
        <time>2023-06-25T11:07:09Z</time>
      </trkpt>
      <trkpt lat="44.30316" lon="2.96499">
        <ele>915.6</ele>
        <time>2023-06-25T11:07:10Z</time>
      </trkpt>
      <trkpt lat="44.30323" lon="2.96506">
        <ele>915.2</ele>
        <time>2023-06-25T11:07:11Z</time>
      </trkpt>
      <trkpt lat="44.30331" lon="2.96514">
        <ele>914.8</ele>
        <time>2023-06-25T11:07:12Z</time>
      </trkpt>
      <trkpt lat="44.30338" lon="2.96521">
        <ele>914.4</ele>
        <time>2023-06-25T11:07:13Z</time>
      </trkpt>
      <trkpt lat="44.30345" lon="2.9653">
        <ele>913.9</ele>
        <time>2023-06-25T11:07:14Z</time>
      </trkpt>
      <trkpt lat="44.30351" lon="2.96538">
        <ele>913.6</ele>
        <time>2023-06-25T11:07:15Z</time>
      </trkpt>
      <trkpt lat="44.30355" lon="2.96548">
        <ele>913.2</ele>
        <time>2023-06-25T11:07:16Z</time>
      </trkpt>
      <trkpt lat="44.30359" lon="2.96559">
        <ele>913</ele>
        <time>2023-06-25T11:07:17Z</time>
      </trkpt>
      <trkpt lat="44.30363" lon="2.96571">
        <ele>912.7</ele>
        <time>2023-06-25T11:07:18Z</time>
      </trkpt>
      <trkpt lat="44.30368" lon="2.96586">
        <ele>912.3</ele>
        <time>2023-06-25T11:07:19Z</time>
      </trkpt>
      <trkpt lat="44.30371" lon="2.96601">
        <ele>911.9</ele>
        <time>2023-06-25T11:07:20Z</time>
      </trkpt>
      <trkpt lat="44.30373" lon="2.96616">
        <ele>911.4</ele>
        <time>2023-06-25T11:07:21Z</time>
      </trkpt>
      <trkpt lat="44.30375" lon="2.9663">
        <ele>911</ele>
        <time>2023-06-25T11:07:22Z</time>
      </trkpt>
      <trkpt lat="44.30376" lon="2.96644">
        <ele>910.7</ele>
        <time>2023-06-25T11:07:23Z</time>
      </trkpt>
      <trkpt lat="44.30376" lon="2.96657">
        <ele>910.5</ele>
        <time>2023-06-25T11:07:24Z</time>
      </trkpt>
      <trkpt lat="44.30376" lon="2.9667">
        <ele>910.4</ele>
        <time>2023-06-25T11:07:25Z</time>
      </trkpt>
      <trkpt lat="44.30376" lon="2.96681">
        <ele>910.4</ele>
        <time>2023-06-25T11:07:26Z</time>
      </trkpt>
      <trkpt lat="44.30376" lon="2.96692">
        <ele>910.4</ele>
        <time>2023-06-25T11:07:27Z</time>
      </trkpt>
      <trkpt lat="44.30376" lon="2.96703">
        <ele>910.4</ele>
        <time>2023-06-25T11:07:28Z</time>
      </trkpt>
      <trkpt lat="44.30376" lon="2.96714">
        <ele>910.5</ele>
        <time>2023-06-25T11:07:29Z</time>
      </trkpt>
      <trkpt lat="44.30376" lon="2.96724">
        <ele>910.5</ele>
        <time>2023-06-25T11:07:30Z</time>
      </trkpt>
      <trkpt lat="44.30375" lon="2.96733">
        <ele>910.6</ele>
        <time>2023-06-25T11:07:31Z</time>
      </trkpt>
      <trkpt lat="44.30374" lon="2.96742">
        <ele>910.6</ele>
        <time>2023-06-25T11:07:32Z</time>
      </trkpt>
      <trkpt lat="44.30372" lon="2.96752">
        <ele>910.7</ele>
        <time>2023-06-25T11:07:33Z</time>
      </trkpt>
      <trkpt lat="44.3037" lon="2.96761">
        <ele>910.7</ele>
        <time>2023-06-25T11:07:34Z</time>
      </trkpt>
      <trkpt lat="44.30367" lon="2.96771">
        <ele>910.8</ele>
        <time>2023-06-25T11:07:35Z</time>
      </trkpt>
      <trkpt lat="44.30365" lon="2.9678">
        <ele>910.8</ele>
        <time>2023-06-25T11:07:36Z</time>
      </trkpt>
      <trkpt lat="44.30362" lon="2.9679">
        <ele>910.8</ele>
        <time>2023-06-25T11:07:37Z</time>
      </trkpt>
      <trkpt lat="44.30359" lon="2.96798">
        <ele>910.8</ele>
        <time>2023-06-25T11:07:38Z</time>
      </trkpt>
      <trkpt lat="44.30357" lon="2.96807">
        <ele>910.8</ele>
        <time>2023-06-25T11:07:39Z</time>
      </trkpt>
      <trkpt lat="44.30354" lon="2.96815">
        <ele>910.8</ele>
        <time>2023-06-25T11:07:40Z</time>
      </trkpt>
      <trkpt lat="44.3035" lon="2.96823">
        <ele>910.8</ele>
        <time>2023-06-25T11:07:41Z</time>
      </trkpt>
      <trkpt lat="44.30347" lon="2.96832">
        <ele>910.8</ele>
        <time>2023-06-25T11:07:42Z</time>
      </trkpt>
      <trkpt lat="44.30343" lon="2.9684">
        <ele>910.8</ele>
        <time>2023-06-25T11:07:43Z</time>
      </trkpt>
      <trkpt lat="44.3034" lon="2.96847">
        <ele>910.9</ele>
        <time>2023-06-25T11:07:44Z</time>
      </trkpt>
      <trkpt lat="44.30336" lon="2.96855">
        <ele>910.9</ele>
        <time>2023-06-25T11:07:45Z</time>
      </trkpt>
      <trkpt lat="44.30332" lon="2.96862">
        <ele>910.9</ele>
        <time>2023-06-25T11:07:46Z</time>
      </trkpt>
      <trkpt lat="44.30327" lon="2.96869">
        <ele>911</ele>
        <time>2023-06-25T11:07:47Z</time>
      </trkpt>
      <trkpt lat="44.30323" lon="2.96875">
        <ele>911</ele>
        <time>2023-06-25T11:07:48Z</time>
      </trkpt>
      <trkpt lat="44.30319" lon="2.96882">
        <ele>911</ele>
        <time>2023-06-25T11:07:49Z</time>
      </trkpt>
      <trkpt lat="44.30314" lon="2.96888">
        <ele>911</ele>
        <time>2023-06-25T11:07:50Z</time>
      </trkpt>
      <trkpt lat="44.30308" lon="2.96893">
        <ele>911</ele>
        <time>2023-06-25T11:07:51Z</time>
      </trkpt>
      <trkpt lat="44.30303" lon="2.96898">
        <ele>911</ele>
        <time>2023-06-25T11:07:52Z</time>
      </trkpt>
      <trkpt lat="44.30298" lon="2.96903">
        <ele>911</ele>
        <time>2023-06-25T11:07:53Z</time>
      </trkpt>
      <trkpt lat="44.30292" lon="2.96908">
        <ele>911</ele>
        <time>2023-06-25T11:07:54Z</time>
      </trkpt>
      <trkpt lat="44.30287" lon="2.96913">
        <ele>911</ele>
        <time>2023-06-25T11:07:55Z</time>
      </trkpt>
      <trkpt lat="44.30282" lon="2.96919">
        <ele>911</ele>
        <time>2023-06-25T11:07:56Z</time>
      </trkpt>
      <trkpt lat="44.30277" lon="2.96924">
        <ele>911</ele>
        <time>2023-06-25T11:07:57Z</time>
      </trkpt>
      <trkpt lat="44.30272" lon="2.9693">
        <ele>911</ele>
        <time>2023-06-25T11:07:58Z</time>
      </trkpt>
      <trkpt lat="44.30268" lon="2.96937">
        <ele>911</ele>
        <time>2023-06-25T11:07:59Z</time>
      </trkpt>
      <trkpt lat="44.30263" lon="2.96943">
        <ele>911</ele>
        <time>2023-06-25T11:08:00Z</time>
      </trkpt>
      <trkpt lat="44.30259" lon="2.9695">
        <ele>911</ele>
        <time>2023-06-25T11:08:01Z</time>
      </trkpt>
      <trkpt lat="44.30255" lon="2.96956">
        <ele>911</ele>
        <time>2023-06-25T11:08:02Z</time>
      </trkpt>
      <trkpt lat="44.30252" lon="2.96961">
        <ele>911</ele>
        <time>2023-06-25T11:08:03Z</time>
      </trkpt>
      <trkpt lat="44.30248" lon="2.96966">
        <ele>911.1</ele>
        <time>2023-06-25T11:08:04Z</time>
      </trkpt>
      <trkpt lat="44.30244" lon="2.96971">
        <ele>911.1</ele>
        <time>2023-06-25T11:08:05Z</time>
      </trkpt>
      <trkpt lat="44.3024" lon="2.96976">
        <ele>911.2</ele>
        <time>2023-06-25T11:08:06Z</time>
      </trkpt>
      <trkpt lat="44.30236" lon="2.96981">
        <ele>911.2</ele>
        <time>2023-06-25T11:08:07Z</time>
      </trkpt>
      <trkpt lat="44.30231" lon="2.96985">
        <ele>911.3</ele>
        <time>2023-06-25T11:08:08Z</time>
      </trkpt>
      <trkpt lat="44.30226" lon="2.96989">
        <ele>911.3</ele>
        <time>2023-06-25T11:08:09Z</time>
      </trkpt>
      <trkpt lat="44.30221" lon="2.96993">
        <ele>911.3</ele>
        <time>2023-06-25T11:08:10Z</time>
      </trkpt>
      <trkpt lat="44.30216" lon="2.96998">
        <ele>911.3</ele>
        <time>2023-06-25T11:08:11Z</time>
      </trkpt>
      <trkpt lat="44.3021" lon="2.97003">
        <ele>911.3</ele>
        <time>2023-06-25T11:08:12Z</time>
      </trkpt>
      <trkpt lat="44.30205" lon="2.97007">
        <ele>911.3</ele>
        <time>2023-06-25T11:08:13Z</time>
      </trkpt>
      <trkpt lat="44.30199" lon="2.97012">
        <ele>911.4</ele>
        <time>2023-06-25T11:08:14Z</time>
      </trkpt>
      <trkpt lat="44.30193" lon="2.97016">
        <ele>911.4</ele>
        <time>2023-06-25T11:08:15Z</time>
      </trkpt>
      <trkpt lat="44.30187" lon="2.9702">
        <ele>911.4</ele>
        <time>2023-06-25T11:08:16Z</time>
      </trkpt>
      <trkpt lat="44.30182" lon="2.97025">
        <ele>911.4</ele>
        <time>2023-06-25T11:08:17Z</time>
      </trkpt>
      <trkpt lat="44.30177" lon="2.9703">
        <ele>911.4</ele>
        <time>2023-06-25T11:08:18Z</time>
      </trkpt>
      <trkpt lat="44.30173" lon="2.97035">
        <ele>911.4</ele>
        <time>2023-06-25T11:08:19Z</time>
      </trkpt>
      <trkpt lat="44.30168" lon="2.9704">
        <ele>911.4</ele>
        <time>2023-06-25T11:08:20Z</time>
      </trkpt>
      <trkpt lat="44.30165" lon="2.97045">
        <ele>911.4</ele>
        <time>2023-06-25T11:08:21Z</time>
      </trkpt>
      <trkpt lat="44.3016" lon="2.97051">
        <ele>911.4</ele>
        <time>2023-06-25T11:08:22Z</time>
      </trkpt>
      <trkpt lat="44.30156" lon="2.97056">
        <ele>911.5</ele>
        <time>2023-06-25T11:08:23Z</time>
      </trkpt>
      <trkpt lat="44.30151" lon="2.97062">
        <ele>911.5</ele>
        <time>2023-06-25T11:08:24Z</time>
      </trkpt>
      <trkpt lat="44.30146" lon="2.97068">
        <ele>911.6</ele>
        <time>2023-06-25T11:08:25Z</time>
      </trkpt>
      <trkpt lat="44.30141" lon="2.97074">
        <ele>911.6</ele>
        <time>2023-06-25T11:08:26Z</time>
      </trkpt>
      <trkpt lat="44.30136" lon="2.97079">
        <ele>911.5</ele>
        <time>2023-06-25T11:08:27Z</time>
      </trkpt>
      <trkpt lat="44.30132" lon="2.97085">
        <ele>911.5</ele>
        <time>2023-06-25T11:08:28Z</time>
      </trkpt>
      <trkpt lat="44.30127" lon="2.97091">
        <ele>911.5</ele>
        <time>2023-06-25T11:08:29Z</time>
      </trkpt>
      <trkpt lat="44.30122" lon="2.97095">
        <ele>911.5</ele>
        <time>2023-06-25T11:08:30Z</time>
      </trkpt>
      <trkpt lat="44.30117" lon="2.971">
        <ele>911.5</ele>
        <time>2023-06-25T11:08:31Z</time>
      </trkpt>
      <trkpt lat="44.30112" lon="2.97105">
        <ele>911.6</ele>
        <time>2023-06-25T11:08:32Z</time>
      </trkpt>
      <trkpt lat="44.30108" lon="2.9711">
        <ele>911.6</ele>
        <time>2023-06-25T11:08:33Z</time>
      </trkpt>
      <trkpt lat="44.30104" lon="2.97116">
        <ele>911.6</ele>
        <time>2023-06-25T11:08:34Z</time>
      </trkpt>
      <trkpt lat="44.301" lon="2.97123">
        <ele>911.7</ele>
        <time>2023-06-25T11:08:35Z</time>
      </trkpt>
      <trkpt lat="44.30097" lon="2.9713">
        <ele>911.8</ele>
        <time>2023-06-25T11:08:36Z</time>
      </trkpt>
      <trkpt lat="44.30094" lon="2.97136">
        <ele>911.8</ele>
        <time>2023-06-25T11:08:37Z</time>
      </trkpt>
      <trkpt lat="44.30092" lon="2.97144">
        <ele>911.9</ele>
        <time>2023-06-25T11:08:38Z</time>
      </trkpt>
      <trkpt lat="44.3009" lon="2.97151">
        <ele>912</ele>
        <time>2023-06-25T11:08:39Z</time>
      </trkpt>
      <trkpt lat="44.30089" lon="2.97159">
        <ele>912</ele>
        <time>2023-06-25T11:08:40Z</time>
      </trkpt>
      <trkpt lat="44.30088" lon="2.97166">
        <ele>912.1</ele>
        <time>2023-06-25T11:08:41Z</time>
      </trkpt>
      <trkpt lat="44.30088" lon="2.97173">
        <ele>912.1</ele>
        <time>2023-06-25T11:08:42Z</time>
      </trkpt>
      <trkpt lat="44.30087" lon="2.97181">
        <ele>912.1</ele>
        <time>2023-06-25T11:08:43Z</time>
      </trkpt>
      <trkpt lat="44.30087" lon="2.97189">
        <ele>912.2</ele>
        <time>2023-06-25T11:08:44Z</time>
      </trkpt>
      <trkpt lat="44.30088" lon="2.97196">
        <ele>912.2</ele>
        <time>2023-06-25T11:08:45Z</time>
      </trkpt>
      <trkpt lat="44.30089" lon="2.97203">
        <ele>912.3</ele>
        <time>2023-06-25T11:08:46Z</time>
      </trkpt>
      <trkpt lat="44.3009" lon="2.9721">
        <ele>912.4</ele>
        <time>2023-06-25T11:08:47Z</time>
      </trkpt>
      <trkpt lat="44.30092" lon="2.97217">
        <ele>912.5</ele>
        <time>2023-06-25T11:08:48Z</time>
      </trkpt>
      <trkpt lat="44.30093" lon="2.97222">
        <ele>912.5</ele>
        <time>2023-06-25T11:08:49Z</time>
      </trkpt>
      <trkpt lat="44.30091" lon="2.97226">
        <ele>912.6</ele>
        <time>2023-06-25T11:08:50Z</time>
      </trkpt>
      <trkpt lat="44.3009" lon="2.97228">
        <ele>912.6</ele>
        <time>2023-06-25T11:08:51Z</time>
      </trkpt>
      <trkpt lat="44.30088" lon="2.97229">
        <ele>912.7</ele>
        <time>2023-06-25T11:08:52Z</time>
      </trkpt>
      <trkpt lat="44.30088" lon="2.97229">
        <ele>912.7</ele>
        <time>2023-06-25T11:08:53Z</time>
      </trkpt>
      <trkpt lat="44.30088" lon="2.97229">
        <ele>912.7</ele>
        <time>2023-06-25T11:08:54Z</time>
      </trkpt>
      <trkpt lat="44.30088" lon="2.97229">
        <ele>912.7</ele>
        <time>2023-06-25T11:08:55Z</time>
      </trkpt>
      <trkpt lat="44.30089" lon="2.97229">
        <ele>912.7</ele>
        <time>2023-06-25T11:08:56Z</time>
      </trkpt>
      <trkpt lat="44.30088" lon="2.97227">
        <ele>912.7</ele>
        <time>2023-06-25T11:08:57Z</time>
      </trkpt>
      <trkpt lat="44.30088" lon="2.97223">
        <ele>912.7</ele>
        <time>2023-06-25T11:08:59Z</time>
      </trkpt>
      <trkpt lat="44.30089" lon="2.97219">
        <ele>912.8</ele>
        <time>2023-06-25T11:09:00Z</time>
      </trkpt>
      <trkpt lat="44.3009" lon="2.97213">
        <ele>912.8</ele>
        <time>2023-06-25T11:09:01Z</time>
      </trkpt>
      <trkpt lat="44.30091" lon="2.97207">
        <ele>912.8</ele>
        <time>2023-06-25T11:09:02Z</time>
      </trkpt>
      <trkpt lat="44.30091" lon="2.97201">
        <ele>912.9</ele>
        <time>2023-06-25T11:09:03Z</time>
      </trkpt>
      <trkpt lat="44.30089" lon="2.97193">
        <ele>912.9</ele>
        <time>2023-06-25T11:09:05Z</time>
      </trkpt>
      <trkpt lat="44.30089" lon="2.97195">
        <ele>912.9</ele>
        <time>2023-06-25T11:09:06Z</time>
      </trkpt>
      <trkpt lat="44.30088" lon="2.97196">
        <ele>912.9</ele>
        <time>2023-06-25T11:09:07Z</time>
      </trkpt>
      <trkpt lat="44.30088" lon="2.97197">
        <ele>912.9</ele>
        <time>2023-06-25T11:09:09Z</time>
      </trkpt>
      <trkpt lat="44.30088" lon="2.97198">
        <ele>912.9</ele>
        <time>2023-06-25T11:09:10Z</time>
      </trkpt>
      <trkpt lat="44.30088" lon="2.97199">
        <ele>912.9</ele>
        <time>2023-06-25T11:09:11Z</time>
      </trkpt>
      <trkpt lat="44.30091" lon="2.97212">
        <ele>912.8</ele>
        <time>2023-06-25T11:09:13Z</time>
      </trkpt>
      <trkpt lat="44.30092" lon="2.97219">
        <ele>912.8</ele>
        <time>2023-06-25T11:09:14Z</time>
      </trkpt>
      <trkpt lat="44.30092" lon="2.97226">
        <ele>913</ele>
        <time>2023-06-25T11:09:15Z</time>
      </trkpt>
      <trkpt lat="44.30093" lon="2.97231">
        <ele>913.3</ele>
        <time>2023-06-25T11:09:16Z</time>
      </trkpt>
      <trkpt lat="44.30093" lon="2.97233">
        <ele>913.5</ele>
        <time>2023-06-25T11:09:17Z</time>
      </trkpt>
      <trkpt lat="44.30093" lon="2.97238">
        <ele>913.8</ele>
        <time>2023-06-25T11:09:19Z</time>
      </trkpt>
      <trkpt lat="44.30093" lon="2.97242">
        <ele>914.1</ele>
        <time>2023-06-25T11:09:20Z</time>
      </trkpt>
      <trkpt lat="44.30093" lon="2.97246">
        <ele>914.4</ele>
        <time>2023-06-25T11:09:21Z</time>
      </trkpt>
      <trkpt lat="44.30093" lon="2.97251">
        <ele>914.8</ele>
        <time>2023-06-25T11:09:22Z</time>
      </trkpt>
      <trkpt lat="44.30092" lon="2.97256">
        <ele>915.3</ele>
        <time>2023-06-25T11:09:23Z</time>
      </trkpt>
      <trkpt lat="44.30091" lon="2.97262">
        <ele>915.8</ele>
        <time>2023-06-25T11:09:24Z</time>
      </trkpt>
      <trkpt lat="44.30091" lon="2.97266">
        <ele>916.2</ele>
        <time>2023-06-25T11:09:25Z</time>
      </trkpt>
      <trkpt lat="44.30091" lon="2.97271">
        <ele>916.7</ele>
        <time>2023-06-25T11:09:27Z</time>
      </trkpt>
      <trkpt lat="44.30091" lon="2.97276">
        <ele>917.1</ele>
        <time>2023-06-25T11:09:28Z</time>
      </trkpt>
      <trkpt lat="44.3009" lon="2.9728">
        <ele>917.5</ele>
        <time>2023-06-25T11:09:29Z</time>
      </trkpt>
      <trkpt lat="44.30089" lon="2.97285">
        <ele>917.9</ele>
        <time>2023-06-25T11:09:30Z</time>
      </trkpt>
      <trkpt lat="44.30089" lon="2.9729">
        <ele>918.4</ele>
        <time>2023-06-25T11:09:31Z</time>
      </trkpt>
      <trkpt lat="44.30088" lon="2.97294">
        <ele>918.8</ele>
        <time>2023-06-25T11:09:32Z</time>
      </trkpt>
      <trkpt lat="44.30086" lon="2.973">
        <ele>919.5</ele>
        <time>2023-06-25T11:09:33Z</time>
      </trkpt>
      <trkpt lat="44.30086" lon="2.97306">
        <ele>919.9</ele>
        <time>2023-06-25T11:09:35Z</time>
      </trkpt>
      <trkpt lat="44.30085" lon="2.97307">
        <ele>920.1</ele>
        <time>2023-06-25T11:09:36Z</time>
      </trkpt>
      <trkpt lat="44.30084" lon="2.9731">
        <ele>920.5</ele>
        <time>2023-06-25T11:09:37Z</time>
      </trkpt>
      <trkpt lat="44.30083" lon="2.97311">
        <ele>920.6</ele>
        <time>2023-06-25T11:09:38Z</time>
      </trkpt>
      <trkpt lat="44.30081" lon="2.97315">
        <ele>921.1</ele>
        <time>2023-06-25T11:09:39Z</time>
      </trkpt>
      <trkpt lat="44.3008" lon="2.97316">
        <ele>921.2</ele>
        <time>2023-06-25T11:09:40Z</time>
      </trkpt>
      <trkpt lat="44.30079" lon="2.97318">
        <ele>921.5</ele>
        <time>2023-06-25T11:09:41Z</time>
      </trkpt>
      <trkpt lat="44.30077" lon="2.97322">
        <ele>922</ele>
        <time>2023-06-25T11:09:43Z</time>
      </trkpt>
      <trkpt lat="44.30075" lon="2.97326">
        <ele>922.5</ele>
        <time>2023-06-25T11:09:44Z</time>
      </trkpt>
      <trkpt lat="44.30075" lon="2.97328">
        <ele>922.7</ele>
        <time>2023-06-25T11:09:45Z</time>
      </trkpt>
      <trkpt lat="44.30072" lon="2.97333">
        <ele>923.3</ele>
        <time>2023-06-25T11:09:46Z</time>
      </trkpt>
      <trkpt lat="44.3007" lon="2.97335">
        <ele>923.5</ele>
        <time>2023-06-25T11:09:47Z</time>
      </trkpt>
      <trkpt lat="44.30067" lon="2.97338">
        <ele>923.9</ele>
        <time>2023-06-25T11:09:48Z</time>
      </trkpt>
      <trkpt lat="44.30062" lon="2.97343">
        <ele>924.5</ele>
        <time>2023-06-25T11:09:50Z</time>
      </trkpt>
      <trkpt lat="44.3006" lon="2.97346">
        <ele>924.8</ele>
        <time>2023-06-25T11:09:51Z</time>
      </trkpt>
      <trkpt lat="44.30056" lon="2.97352">
        <ele>925.1</ele>
        <time>2023-06-25T11:09:53Z</time>
      </trkpt>
      <trkpt lat="44.30052" lon="2.97358">
        <ele>925.3</ele>
        <time>2023-06-25T11:09:55Z</time>
      </trkpt>
      <trkpt lat="44.30048" lon="2.97362">
        <ele>925.5</ele>
        <time>2023-06-25T11:09:56Z</time>
      </trkpt>
      <trkpt lat="44.30045" lon="2.97365">
        <ele>925.5</ele>
        <time>2023-06-25T11:09:57Z</time>
      </trkpt>
      <trkpt lat="44.30043" lon="2.97368">
        <ele>925.5</ele>
        <time>2023-06-25T11:09:58Z</time>
      </trkpt>
      <trkpt lat="44.30039" lon="2.97372">
        <ele>925.5</ele>
        <time>2023-06-25T11:10:00Z</time>
      </trkpt>
      <trkpt lat="44.30036" lon="2.97376">
        <ele>925.4</ele>
        <time>2023-06-25T11:10:01Z</time>
      </trkpt>
      <trkpt lat="44.30034" lon="2.97381">
        <ele>925.3</ele>
        <time>2023-06-25T11:10:02Z</time>
      </trkpt>
      <trkpt lat="44.30032" lon="2.97385">
        <ele>925.1</ele>
        <time>2023-06-25T11:10:03Z</time>
      </trkpt>
      <trkpt lat="44.30025" lon="2.97397">
        <ele>924.4</ele>
        <time>2023-06-25T11:10:05Z</time>
      </trkpt>
      <trkpt lat="44.3002" lon="2.97404">
        <ele>923.9</ele>
        <time>2023-06-25T11:10:06Z</time>
      </trkpt>
      <trkpt lat="44.30015" lon="2.97411">
        <ele>923.5</ele>
        <time>2023-06-25T11:10:07Z</time>
      </trkpt>
      <trkpt lat="44.3001" lon="2.97418">
        <ele>923.2</ele>
        <time>2023-06-25T11:10:08Z</time>
      </trkpt>
      <trkpt lat="44.30007" lon="2.97426">
        <ele>922.9</ele>
        <time>2023-06-25T11:10:09Z</time>
      </trkpt>
      <trkpt lat="44.30003" lon="2.97434">
        <ele>922.7</ele>
        <time>2023-06-25T11:10:10Z</time>
      </trkpt>
      <trkpt lat="44.30002" lon="2.97443">
        <ele>922.5</ele>
        <time>2023-06-25T11:10:11Z</time>
      </trkpt>
      <trkpt lat="44.30002" lon="2.97453">
        <ele>922.4</ele>
        <time>2023-06-25T11:10:12Z</time>
      </trkpt>
      <trkpt lat="44.30003" lon="2.97462">
        <ele>922.3</ele>
        <time>2023-06-25T11:10:13Z</time>
      </trkpt>
      <trkpt lat="44.30004" lon="2.9747">
        <ele>922.3</ele>
        <time>2023-06-25T11:10:14Z</time>
      </trkpt>
      <trkpt lat="44.30005" lon="2.97478">
        <ele>922.2</ele>
        <time>2023-06-25T11:10:15Z</time>
      </trkpt>
      <trkpt lat="44.30007" lon="2.97487">
        <ele>922.2</ele>
        <time>2023-06-25T11:10:16Z</time>
      </trkpt>
      <trkpt lat="44.30009" lon="2.97495">
        <ele>922.2</ele>
        <time>2023-06-25T11:10:17Z</time>
      </trkpt>
      <trkpt lat="44.3001" lon="2.97503">
        <ele>922.3</ele>
        <time>2023-06-25T11:10:18Z</time>
      </trkpt>
      <trkpt lat="44.30012" lon="2.97511">
        <ele>922.4</ele>
        <time>2023-06-25T11:10:19Z</time>
      </trkpt>
      <trkpt lat="44.30013" lon="2.97518">
        <ele>922.5</ele>
        <time>2023-06-25T11:10:20Z</time>
      </trkpt>
      <trkpt lat="44.30015" lon="2.97526">
        <ele>922.6</ele>
        <time>2023-06-25T11:10:21Z</time>
      </trkpt>
      <trkpt lat="44.30018" lon="2.97533">
        <ele>922.6</ele>
        <time>2023-06-25T11:10:22Z</time>
      </trkpt>
      <trkpt lat="44.30021" lon="2.97539">
        <ele>922.6</ele>
        <time>2023-06-25T11:10:23Z</time>
      </trkpt>
      <trkpt lat="44.30023" lon="2.97546">
        <ele>922.5</ele>
        <time>2023-06-25T11:10:24Z</time>
      </trkpt>
      <trkpt lat="44.30025" lon="2.97552">
        <ele>922.4</ele>
        <time>2023-06-25T11:10:25Z</time>
      </trkpt>
      <trkpt lat="44.30028" lon="2.97559">
        <ele>922.3</ele>
        <time>2023-06-25T11:10:26Z</time>
      </trkpt>
      <trkpt lat="44.3003" lon="2.97566">
        <ele>922.1</ele>
        <time>2023-06-25T11:10:27Z</time>
      </trkpt>
      <trkpt lat="44.30033" lon="2.97572">
        <ele>921.9</ele>
        <time>2023-06-25T11:10:28Z</time>
      </trkpt>
      <trkpt lat="44.30036" lon="2.97579">
        <ele>921.7</ele>
        <time>2023-06-25T11:10:29Z</time>
      </trkpt>
      <trkpt lat="44.30039" lon="2.97586">
        <ele>921.5</ele>
        <time>2023-06-25T11:10:30Z</time>
      </trkpt>
      <trkpt lat="44.30042" lon="2.97593">
        <ele>921.3</ele>
        <time>2023-06-25T11:10:31Z</time>
      </trkpt>
      <trkpt lat="44.30045" lon="2.976">
        <ele>921</ele>
        <time>2023-06-25T11:10:32Z</time>
      </trkpt>
      <trkpt lat="44.30048" lon="2.97608">
        <ele>920.7</ele>
        <time>2023-06-25T11:10:33Z</time>
      </trkpt>
      <trkpt lat="44.30052" lon="2.97616">
        <ele>920.5</ele>
        <time>2023-06-25T11:10:34Z</time>
      </trkpt>
      <trkpt lat="44.30054" lon="2.97625">
        <ele>920.2</ele>
        <time>2023-06-25T11:10:35Z</time>
      </trkpt>
      <trkpt lat="44.30057" lon="2.97634">
        <ele>920</ele>
        <time>2023-06-25T11:10:36Z</time>
      </trkpt>
      <trkpt lat="44.30058" lon="2.97644">
        <ele>919.9</ele>
        <time>2023-06-25T11:10:37Z</time>
      </trkpt>
      <trkpt lat="44.30059" lon="2.97654">
        <ele>919.8</ele>
        <time>2023-06-25T11:10:38Z</time>
      </trkpt>
      <trkpt lat="44.3006" lon="2.97664">
        <ele>919.7</ele>
        <time>2023-06-25T11:10:39Z</time>
      </trkpt>
      <trkpt lat="44.30061" lon="2.97674">
        <ele>919.6</ele>
        <time>2023-06-25T11:10:40Z</time>
      </trkpt>
      <trkpt lat="44.30061" lon="2.97684">
        <ele>919.3</ele>
        <time>2023-06-25T11:10:41Z</time>
      </trkpt>
      <trkpt lat="44.30062" lon="2.97694">
        <ele>919.1</ele>
        <time>2023-06-25T11:10:42Z</time>
      </trkpt>
      <trkpt lat="44.30064" lon="2.97704">
        <ele>918.8</ele>
        <time>2023-06-25T11:10:43Z</time>
      </trkpt>
      <trkpt lat="44.30066" lon="2.97713">
        <ele>918.7</ele>
        <time>2023-06-25T11:10:44Z</time>
      </trkpt>
      <trkpt lat="44.30069" lon="2.97722">
        <ele>918.5</ele>
        <time>2023-06-25T11:10:45Z</time>
      </trkpt>
      <trkpt lat="44.30072" lon="2.97731">
        <ele>918.3</ele>
        <time>2023-06-25T11:10:46Z</time>
      </trkpt>
      <trkpt lat="44.30076" lon="2.9774">
        <ele>918.1</ele>
        <time>2023-06-25T11:10:47Z</time>
      </trkpt>
      <trkpt lat="44.3008" lon="2.97748">
        <ele>918</ele>
        <time>2023-06-25T11:10:48Z</time>
      </trkpt>
      <trkpt lat="44.30084" lon="2.97757">
        <ele>917.9</ele>
        <time>2023-06-25T11:10:49Z</time>
      </trkpt>
      <trkpt lat="44.30087" lon="2.97765">
        <ele>917.8</ele>
        <time>2023-06-25T11:10:50Z</time>
      </trkpt>
      <trkpt lat="44.3009" lon="2.97774">
        <ele>917.7</ele>
        <time>2023-06-25T11:10:51Z</time>
      </trkpt>
      <trkpt lat="44.30094" lon="2.97782">
        <ele>917.5</ele>
        <time>2023-06-25T11:10:52Z</time>
      </trkpt>
      <trkpt lat="44.30096" lon="2.97791">
        <ele>917.4</ele>
        <time>2023-06-25T11:10:53Z</time>
      </trkpt>
      <trkpt lat="44.30099" lon="2.97799">
        <ele>917.2</ele>
        <time>2023-06-25T11:10:54Z</time>
      </trkpt>
      <trkpt lat="44.30102" lon="2.97807">
        <ele>916.9</ele>
        <time>2023-06-25T11:10:55Z</time>
      </trkpt>
      <trkpt lat="44.30105" lon="2.97815">
        <ele>916.8</ele>
        <time>2023-06-25T11:10:56Z</time>
      </trkpt>
      <trkpt lat="44.30108" lon="2.97823">
        <ele>916.6</ele>
        <time>2023-06-25T11:10:57Z</time>
      </trkpt>
      <trkpt lat="44.30111" lon="2.97831">
        <ele>916.5</ele>
        <time>2023-06-25T11:10:58Z</time>
      </trkpt>
      <trkpt lat="44.30114" lon="2.97838">
        <ele>916.4</ele>
        <time>2023-06-25T11:10:59Z</time>
      </trkpt>
      <trkpt lat="44.30117" lon="2.97846">
        <ele>916.4</ele>
        <time>2023-06-25T11:11:00Z</time>
      </trkpt>
      <trkpt lat="44.3012" lon="2.97853">
        <ele>916.4</ele>
        <time>2023-06-25T11:11:01Z</time>
      </trkpt>
      <trkpt lat="44.30122" lon="2.97861">
        <ele>916.3</ele>
        <time>2023-06-25T11:11:02Z</time>
      </trkpt>
      <trkpt lat="44.30125" lon="2.97868">
        <ele>916.3</ele>
        <time>2023-06-25T11:11:03Z</time>
      </trkpt>
      <trkpt lat="44.30127" lon="2.97875">
        <ele>916.3</ele>
        <time>2023-06-25T11:11:04Z</time>
      </trkpt>
      <trkpt lat="44.30129" lon="2.97882">
        <ele>916.3</ele>
        <time>2023-06-25T11:11:05Z</time>
      </trkpt>
      <trkpt lat="44.3013" lon="2.97889">
        <ele>916.4</ele>
        <time>2023-06-25T11:11:06Z</time>
      </trkpt>
      <trkpt lat="44.30132" lon="2.97896">
        <ele>916.5</ele>
        <time>2023-06-25T11:11:07Z</time>
      </trkpt>
      <trkpt lat="44.30134" lon="2.97903">
        <ele>916.6</ele>
        <time>2023-06-25T11:11:08Z</time>
      </trkpt>
      <trkpt lat="44.30136" lon="2.97911">
        <ele>916.7</ele>
        <time>2023-06-25T11:11:09Z</time>
      </trkpt>
      <trkpt lat="44.30137" lon="2.97918">
        <ele>916.8</ele>
        <time>2023-06-25T11:11:10Z</time>
      </trkpt>
      <trkpt lat="44.30138" lon="2.97925">
        <ele>917</ele>
        <time>2023-06-25T11:11:11Z</time>
      </trkpt>
      <trkpt lat="44.30137" lon="2.97933">
        <ele>917.1</ele>
        <time>2023-06-25T11:11:12Z</time>
      </trkpt>
      <trkpt lat="44.30137" lon="2.97941">
        <ele>917.5</ele>
        <time>2023-06-25T11:11:13Z</time>
      </trkpt>
      <trkpt lat="44.30136" lon="2.97949">
        <ele>917.9</ele>
        <time>2023-06-25T11:11:14Z</time>
      </trkpt>
      <trkpt lat="44.30134" lon="2.97956">
        <ele>918.3</ele>
        <time>2023-06-25T11:11:15Z</time>
      </trkpt>
      <trkpt lat="44.30132" lon="2.97964">
        <ele>918.7</ele>
        <time>2023-06-25T11:11:16Z</time>
      </trkpt>
      <trkpt lat="44.30129" lon="2.97971">
        <ele>919.1</ele>
        <time>2023-06-25T11:11:17Z</time>
      </trkpt>
      <trkpt lat="44.30125" lon="2.97978">
        <ele>919.6</ele>
        <time>2023-06-25T11:11:18Z</time>
      </trkpt>
      <trkpt lat="44.30121" lon="2.97983">
        <ele>920.1</ele>
        <time>2023-06-25T11:11:19Z</time>
      </trkpt>
      <trkpt lat="44.30116" lon="2.97988">
        <ele>920.6</ele>
        <time>2023-06-25T11:11:20Z</time>
      </trkpt>
      <trkpt lat="44.30112" lon="2.97992">
        <ele>921</ele>
        <time>2023-06-25T11:11:21Z</time>
      </trkpt>
      <trkpt lat="44.30109" lon="2.97996">
        <ele>921.5</ele>
        <time>2023-06-25T11:11:22Z</time>
      </trkpt>
      <trkpt lat="44.30105" lon="2.97999">
        <ele>921.9</ele>
        <time>2023-06-25T11:11:23Z</time>
      </trkpt>
      <trkpt lat="44.30103" lon="2.98001">
        <ele>922.2</ele>
        <time>2023-06-25T11:11:24Z</time>
      </trkpt>
      <trkpt lat="44.30099" lon="2.98003">
        <ele>922.7</ele>
        <time>2023-06-25T11:11:25Z</time>
      </trkpt>
      <trkpt lat="44.30098" lon="2.98003">
        <ele>922.8</ele>
        <time>2023-06-25T11:11:26Z</time>
      </trkpt>
      <trkpt lat="44.30096" lon="2.98005">
        <ele>923.1</ele>
        <time>2023-06-25T11:11:27Z</time>
      </trkpt>
      <trkpt lat="44.30093" lon="2.98006">
        <ele>923.4</ele>
        <time>2023-06-25T11:11:28Z</time>
      </trkpt>
      <trkpt lat="44.3009" lon="2.98007">
        <ele>923.7</ele>
        <time>2023-06-25T11:11:29Z</time>
      </trkpt>
      <trkpt lat="44.30087" lon="2.98008">
        <ele>924.1</ele>
        <time>2023-06-25T11:11:30Z</time>
      </trkpt>
      <trkpt lat="44.30084" lon="2.98011">
        <ele>924.5</ele>
        <time>2023-06-25T11:11:31Z</time>
      </trkpt>
      <trkpt lat="44.30083" lon="2.98012">
        <ele>924.6</ele>
        <time>2023-06-25T11:11:32Z</time>
      </trkpt>
      <trkpt lat="44.30079" lon="2.98014">
        <ele>925.1</ele>
        <time>2023-06-25T11:11:33Z</time>
      </trkpt>
      <trkpt lat="44.30075" lon="2.98015">
        <ele>925.5</ele>
        <time>2023-06-25T11:11:34Z</time>
      </trkpt>
      <trkpt lat="44.30072" lon="2.98017">
        <ele>925.8</ele>
        <time>2023-06-25T11:11:35Z</time>
      </trkpt>
      <trkpt lat="44.30069" lon="2.98019">
        <ele>926.2</ele>
        <time>2023-06-25T11:11:36Z</time>
      </trkpt>
      <trkpt lat="44.30066" lon="2.9802">
        <ele>926.5</ele>
        <time>2023-06-25T11:11:37Z</time>
      </trkpt>
      <trkpt lat="44.30063" lon="2.98022">
        <ele>926.9</ele>
        <time>2023-06-25T11:11:39Z</time>
      </trkpt>
      <trkpt lat="44.3006" lon="2.98025">
        <ele>927.3</ele>
        <time>2023-06-25T11:11:40Z</time>
      </trkpt>
      <trkpt lat="44.30056" lon="2.98027">
        <ele>927.7</ele>
        <time>2023-06-25T11:11:41Z</time>
      </trkpt>
      <trkpt lat="44.30055" lon="2.98028">
        <ele>927.9</ele>
        <time>2023-06-25T11:11:42Z</time>
      </trkpt>
      <trkpt lat="44.30052" lon="2.98029">
        <ele>928.2</ele>
        <time>2023-06-25T11:11:43Z</time>
      </trkpt>
      <trkpt lat="44.30048" lon="2.98031">
        <ele>928.6</ele>
        <time>2023-06-25T11:11:44Z</time>
      </trkpt>
      <trkpt lat="44.30045" lon="2.98032">
        <ele>929</ele>
        <time>2023-06-25T11:11:45Z</time>
      </trkpt>
      <trkpt lat="44.30042" lon="2.98034">
        <ele>929.3</ele>
        <time>2023-06-25T11:11:46Z</time>
      </trkpt>
      <trkpt lat="44.30038" lon="2.98037">
        <ele>929.8</ele>
        <time>2023-06-25T11:11:48Z</time>
      </trkpt>
      <trkpt lat="44.30035" lon="2.98038">
        <ele>930.2</ele>
        <time>2023-06-25T11:11:49Z</time>
      </trkpt>
      <trkpt lat="44.30032" lon="2.98041">
        <ele>930.5</ele>
        <time>2023-06-25T11:11:50Z</time>
      </trkpt>
      <trkpt lat="44.3003" lon="2.98043">
        <ele>930.8</ele>
        <time>2023-06-25T11:11:51Z</time>
      </trkpt>
      <trkpt lat="44.30026" lon="2.98047">
        <ele>931.3</ele>
        <time>2023-06-25T11:11:53Z</time>
      </trkpt>
      <trkpt lat="44.30024" lon="2.9805">
        <ele>931.7</ele>
        <time>2023-06-25T11:11:54Z</time>
      </trkpt>
      <trkpt lat="44.3002" lon="2.98052">
        <ele>932.1</ele>
        <time>2023-06-25T11:11:55Z</time>
      </trkpt>
      <trkpt lat="44.30017" lon="2.98054">
        <ele>932.5</ele>
        <time>2023-06-25T11:11:56Z</time>
      </trkpt>
      <trkpt lat="44.30014" lon="2.98057">
        <ele>932.9</ele>
        <time>2023-06-25T11:11:57Z</time>
      </trkpt>
      <trkpt lat="44.30011" lon="2.98059">
        <ele>933.2</ele>
        <time>2023-06-25T11:11:58Z</time>
      </trkpt>
      <trkpt lat="44.30007" lon="2.98064">
        <ele>933.7</ele>
        <time>2023-06-25T11:12:00Z</time>
      </trkpt>
      <trkpt lat="44.30004" lon="2.98066">
        <ele>934.1</ele>
        <time>2023-06-25T11:12:01Z</time>
      </trkpt>
      <trkpt lat="44.30001" lon="2.98067">
        <ele>934.4</ele>
        <time>2023-06-25T11:12:03Z</time>
      </trkpt>
      <trkpt lat="44.29998" lon="2.9807">
        <ele>934.7</ele>
        <time>2023-06-25T11:12:04Z</time>
      </trkpt>
      <trkpt lat="44.29995" lon="2.98073">
        <ele>935</ele>
        <time>2023-06-25T11:12:05Z</time>
      </trkpt>
      <trkpt lat="44.29994" lon="2.98074">
        <ele>935.2</ele>
        <time>2023-06-25T11:12:06Z</time>
      </trkpt>
      <trkpt lat="44.29992" lon="2.98076">
        <ele>935.4</ele>
        <time>2023-06-25T11:12:07Z</time>
      </trkpt>
      <trkpt lat="44.29988" lon="2.98077">
        <ele>935.8</ele>
        <time>2023-06-25T11:12:08Z</time>
      </trkpt>
      <trkpt lat="44.29985" lon="2.98079">
        <ele>936.1</ele>
        <time>2023-06-25T11:12:09Z</time>
      </trkpt>
      <trkpt lat="44.29982" lon="2.98083">
        <ele>936.5</ele>
        <time>2023-06-25T11:12:10Z</time>
      </trkpt>
      <trkpt lat="44.29978" lon="2.98086">
        <ele>936.9</ele>
        <time>2023-06-25T11:12:12Z</time>
      </trkpt>
      <trkpt lat="44.29975" lon="2.98088">
        <ele>937.2</ele>
        <time>2023-06-25T11:12:13Z</time>
      </trkpt>
      <trkpt lat="44.29972" lon="2.9809">
        <ele>937.5</ele>
        <time>2023-06-25T11:12:14Z</time>
      </trkpt>
      <trkpt lat="44.29969" lon="2.98092">
        <ele>937.8</ele>
        <time>2023-06-25T11:12:15Z</time>
      </trkpt>
      <trkpt lat="44.29967" lon="2.98095">
        <ele>938.1</ele>
        <time>2023-06-25T11:12:16Z</time>
      </trkpt>
      <trkpt lat="44.29963" lon="2.98099">
        <ele>938.5</ele>
        <time>2023-06-25T11:12:18Z</time>
      </trkpt>
      <trkpt lat="44.29962" lon="2.98101">
        <ele>938.7</ele>
        <time>2023-06-25T11:12:19Z</time>
      </trkpt>
      <trkpt lat="44.2996" lon="2.98102">
        <ele>938.8</ele>
        <time>2023-06-25T11:12:20Z</time>
      </trkpt>
      <trkpt lat="44.29956" lon="2.98106">
        <ele>939.3</ele>
        <time>2023-06-25T11:12:22Z</time>
      </trkpt>
      <trkpt lat="44.29954" lon="2.98109">
        <ele>939.6</ele>
        <time>2023-06-25T11:12:23Z</time>
      </trkpt>
      <trkpt lat="44.29952" lon="2.98112">
        <ele>939.8</ele>
        <time>2023-06-25T11:12:24Z</time>
      </trkpt>
      <trkpt lat="44.2995" lon="2.98115">
        <ele>940.1</ele>
        <time>2023-06-25T11:12:26Z</time>
      </trkpt>
      <trkpt lat="44.29948" lon="2.98118">
        <ele>940.4</ele>
        <time>2023-06-25T11:12:27Z</time>
      </trkpt>
      <trkpt lat="44.29945" lon="2.9812">
        <ele>940.7</ele>
        <time>2023-06-25T11:12:28Z</time>
      </trkpt>
      <trkpt lat="44.29944" lon="2.98122">
        <ele>940.9</ele>
        <time>2023-06-25T11:12:29Z</time>
      </trkpt>
      <trkpt lat="44.29943" lon="2.98124">
        <ele>941</ele>
        <time>2023-06-25T11:12:30Z</time>
      </trkpt>
      <trkpt lat="44.29942" lon="2.98127">
        <ele>941.2</ele>
        <time>2023-06-25T11:12:31Z</time>
      </trkpt>
      <trkpt lat="44.2994" lon="2.98131">
        <ele>941.6</ele>
        <time>2023-06-25T11:12:33Z</time>
      </trkpt>
      <trkpt lat="44.29937" lon="2.98135">
        <ele>941.9</ele>
        <time>2023-06-25T11:12:34Z</time>
      </trkpt>
      <trkpt lat="44.29935" lon="2.98138">
        <ele>942.2</ele>
        <time>2023-06-25T11:12:35Z</time>
      </trkpt>
      <trkpt lat="44.29933" lon="2.98141">
        <ele>942.4</ele>
        <time>2023-06-25T11:12:36Z</time>
      </trkpt>
      <trkpt lat="44.29931" lon="2.98145">
        <ele>942.7</ele>
        <time>2023-06-25T11:12:37Z</time>
      </trkpt>
      <trkpt lat="44.29929" lon="2.98152">
        <ele>943.2</ele>
        <time>2023-06-25T11:12:39Z</time>
      </trkpt>
      <trkpt lat="44.29927" lon="2.98156">
        <ele>943.5</ele>
        <time>2023-06-25T11:12:40Z</time>
      </trkpt>
      <trkpt lat="44.29926" lon="2.98163">
        <ele>943.9</ele>
        <time>2023-06-25T11:12:42Z</time>
      </trkpt>
      <trkpt lat="44.29926" lon="2.98168">
        <ele>944.2</ele>
        <time>2023-06-25T11:12:43Z</time>
      </trkpt>
      <trkpt lat="44.29924" lon="2.98173">
        <ele>944.5</ele>
        <time>2023-06-25T11:12:44Z</time>
      </trkpt>
      <trkpt lat="44.29922" lon="2.98184">
        <ele>945.1</ele>
        <time>2023-06-25T11:12:46Z</time>
      </trkpt>
      <trkpt lat="44.29922" lon="2.9819">
        <ele>945.5</ele>
        <time>2023-06-25T11:12:48Z</time>
      </trkpt>
      <trkpt lat="44.29921" lon="2.98196">
        <ele>945.8</ele>
        <time>2023-06-25T11:12:49Z</time>
      </trkpt>
      <trkpt lat="44.2992" lon="2.98202">
        <ele>946</ele>
        <time>2023-06-25T11:12:50Z</time>
      </trkpt>
      <trkpt lat="44.2992" lon="2.98207">
        <ele>946.2</ele>
        <time>2023-06-25T11:12:51Z</time>
      </trkpt>
      <trkpt lat="44.2992" lon="2.98212">
        <ele>946.4</ele>
        <time>2023-06-25T11:12:52Z</time>
      </trkpt>
      <trkpt lat="44.2992" lon="2.98218">
        <ele>946.6</ele>
        <time>2023-06-25T11:12:54Z</time>
      </trkpt>
      <trkpt lat="44.29919" lon="2.98222">
        <ele>946.7</ele>
        <time>2023-06-25T11:12:55Z</time>
      </trkpt>
      <trkpt lat="44.29919" lon="2.98226">
        <ele>946.8</ele>
        <time>2023-06-25T11:12:56Z</time>
      </trkpt>
      <trkpt lat="44.29919" lon="2.9823">
        <ele>946.9</ele>
        <time>2023-06-25T11:12:57Z</time>
      </trkpt>
      <trkpt lat="44.2992" lon="2.98235">
        <ele>947</ele>
        <time>2023-06-25T11:12:58Z</time>
      </trkpt>
      <trkpt lat="44.29921" lon="2.98241">
        <ele>947.1</ele>
        <time>2023-06-25T11:13:00Z</time>
      </trkpt>
      <trkpt lat="44.29922" lon="2.98245">
        <ele>947.1</ele>
        <time>2023-06-25T11:13:01Z</time>
      </trkpt>
      <trkpt lat="44.29921" lon="2.98248">
        <ele>947.1</ele>
        <time>2023-06-25T11:13:02Z</time>
      </trkpt>
      <trkpt lat="44.29921" lon="2.98249">
        <ele>947.1</ele>
        <time>2023-06-25T11:13:03Z</time>
      </trkpt>
      <trkpt lat="44.29921" lon="2.98248">
        <ele>947.1</ele>
        <time>2023-06-25T11:13:05Z</time>
      </trkpt>
      <trkpt lat="44.29921" lon="2.98248">
        <ele>947.1</ele>
        <time>2023-06-25T11:13:06Z</time>
      </trkpt>
      <trkpt lat="44.29921" lon="2.98248">
        <ele>947.1</ele>
        <time>2023-06-25T11:13:07Z</time>
      </trkpt>
      <trkpt lat="44.29921" lon="2.98248">
        <ele>947.1</ele>
        <time>2023-06-25T11:13:09Z</time>
      </trkpt>
      <trkpt lat="44.29921" lon="2.98248">
        <ele>947.1</ele>
        <time>2023-06-25T11:13:10Z</time>
      </trkpt>
      <trkpt lat="44.29921" lon="2.98248">
        <ele>947.1</ele>
        <time>2023-06-25T11:13:11Z</time>
      </trkpt>
      <trkpt lat="44.29921" lon="2.98249">
        <ele>947.1</ele>
        <time>2023-06-25T11:13:13Z</time>
      </trkpt>
      <trkpt lat="44.29922" lon="2.98253">
        <ele>947.1</ele>
        <time>2023-06-25T11:13:56Z</time>
      </trkpt>
      <trkpt lat="44.29923" lon="2.98255">
        <ele>947.1</ele>
        <time>2023-06-25T11:13:57Z</time>
      </trkpt>
      <trkpt lat="44.29923" lon="2.98258">
        <ele>947.1</ele>
        <time>2023-06-25T11:13:58Z</time>
      </trkpt>
      <trkpt lat="44.29924" lon="2.98262">
        <ele>947.1</ele>
        <time>2023-06-25T11:14:00Z</time>
      </trkpt>
      <trkpt lat="44.29925" lon="2.98269">
        <ele>947</ele>
        <time>2023-06-25T11:14:01Z</time>
      </trkpt>
      <trkpt lat="44.29925" lon="2.98274">
        <ele>947</ele>
        <time>2023-06-25T11:14:02Z</time>
      </trkpt>
      <trkpt lat="44.29926" lon="2.98283">
        <ele>946.9</ele>
        <time>2023-06-25T11:14:03Z</time>
      </trkpt>
      <trkpt lat="44.29928" lon="2.9829">
        <ele>946.7</ele>
        <time>2023-06-25T11:14:05Z</time>
      </trkpt>
      <trkpt lat="44.2993" lon="2.98301">
        <ele>946.3</ele>
        <time>2023-06-25T11:14:06Z</time>
      </trkpt>
      <trkpt lat="44.29932" lon="2.98307">
        <ele>946.1</ele>
        <time>2023-06-25T11:14:07Z</time>
      </trkpt>
      <trkpt lat="44.29933" lon="2.98314">
        <ele>945.8</ele>
        <time>2023-06-25T11:14:08Z</time>
      </trkpt>
      <trkpt lat="44.29935" lon="2.98322">
        <ele>945.5</ele>
        <time>2023-06-25T11:14:09Z</time>
      </trkpt>
      <trkpt lat="44.29936" lon="2.98329">
        <ele>945.1</ele>
        <time>2023-06-25T11:14:10Z</time>
      </trkpt>
      <trkpt lat="44.29938" lon="2.98337">
        <ele>944.7</ele>
        <time>2023-06-25T11:14:11Z</time>
      </trkpt>
      <trkpt lat="44.2994" lon="2.98345">
        <ele>944.3</ele>
        <time>2023-06-25T11:14:12Z</time>
      </trkpt>
      <trkpt lat="44.29942" lon="2.98354">
        <ele>943.8</ele>
        <time>2023-06-25T11:14:13Z</time>
      </trkpt>
      <trkpt lat="44.29943" lon="2.98364">
        <ele>943.3</ele>
        <time>2023-06-25T11:14:14Z</time>
      </trkpt>
      <trkpt lat="44.29945" lon="2.98374">
        <ele>942.6</ele>
        <time>2023-06-25T11:14:15Z</time>
      </trkpt>
      <trkpt lat="44.29947" lon="2.98385">
        <ele>941.9</ele>
        <time>2023-06-25T11:14:16Z</time>
      </trkpt>
      <trkpt lat="44.29949" lon="2.98396">
        <ele>941.1</ele>
        <time>2023-06-25T11:14:17Z</time>
      </trkpt>
      <trkpt lat="44.29951" lon="2.98408">
        <ele>940.2</ele>
        <time>2023-06-25T11:14:18Z</time>
      </trkpt>
      <trkpt lat="44.29953" lon="2.98421">
        <ele>939.3</ele>
        <time>2023-06-25T11:14:19Z</time>
      </trkpt>
      <trkpt lat="44.29955" lon="2.98434">
        <ele>938.4</ele>
        <time>2023-06-25T11:14:20Z</time>
      </trkpt>
      <trkpt lat="44.29957" lon="2.98448">
        <ele>937.3</ele>
        <time>2023-06-25T11:14:21Z</time>
      </trkpt>
      <trkpt lat="44.29959" lon="2.98461">
        <ele>936.3</ele>
        <time>2023-06-25T11:14:22Z</time>
      </trkpt>
      <trkpt lat="44.29961" lon="2.98475">
        <ele>935.3</ele>
        <time>2023-06-25T11:14:23Z</time>
      </trkpt>
      <trkpt lat="44.29961" lon="2.98489">
        <ele>934.2</ele>
        <time>2023-06-25T11:14:24Z</time>
      </trkpt>
      <trkpt lat="44.2996" lon="2.98502">
        <ele>933.2</ele>
        <time>2023-06-25T11:14:25Z</time>
      </trkpt>
      <trkpt lat="44.29957" lon="2.98516">
        <ele>932.2</ele>
        <time>2023-06-25T11:14:26Z</time>
      </trkpt>
      <trkpt lat="44.29953" lon="2.98528">
        <ele>931.3</ele>
        <time>2023-06-25T11:14:27Z</time>
      </trkpt>
      <trkpt lat="44.29947" lon="2.98538">
        <ele>930.3</ele>
        <time>2023-06-25T11:14:28Z</time>
      </trkpt>
      <trkpt lat="44.29941" lon="2.98546">
        <ele>929.5</ele>
        <time>2023-06-25T11:14:29Z</time>
      </trkpt>
      <trkpt lat="44.29934" lon="2.98552">
        <ele>928.6</ele>
        <time>2023-06-25T11:14:30Z</time>
      </trkpt>
      <trkpt lat="44.29927" lon="2.98555">
        <ele>927.7</ele>
        <time>2023-06-25T11:14:31Z</time>
      </trkpt>
      <trkpt lat="44.2992" lon="2.98557">
        <ele>926.9</ele>
        <time>2023-06-25T11:14:32Z</time>
      </trkpt>
      <trkpt lat="44.29915" lon="2.98559">
        <ele>926.1</ele>
        <time>2023-06-25T11:14:33Z</time>
      </trkpt>
      <trkpt lat="44.2991" lon="2.98562">
        <ele>925.5</ele>
        <time>2023-06-25T11:14:34Z</time>
      </trkpt>
      <trkpt lat="44.29907" lon="2.98566">
        <ele>924.8</ele>
        <time>2023-06-25T11:14:35Z</time>
      </trkpt>
      <trkpt lat="44.29906" lon="2.98571">
        <ele>924.3</ele>
        <time>2023-06-25T11:14:36Z</time>
      </trkpt>
      <trkpt lat="44.29908" lon="2.98575">
        <ele>923.9</ele>
        <time>2023-06-25T11:14:37Z</time>
      </trkpt>
      <trkpt lat="44.29912" lon="2.98577">
        <ele>923.1</ele>
        <time>2023-06-25T11:14:38Z</time>
      </trkpt>
      <trkpt lat="44.29917" lon="2.98578">
        <ele>922.7</ele>
        <time>2023-06-25T11:14:39Z</time>
      </trkpt>
      <trkpt lat="44.29921" lon="2.98579">
        <ele>922.3</ele>
        <time>2023-06-25T11:14:40Z</time>
      </trkpt>
      <trkpt lat="44.29927" lon="2.98581">
        <ele>921.9</ele>
        <time>2023-06-25T11:14:41Z</time>
      </trkpt>
      <trkpt lat="44.29934" lon="2.98582">
        <ele>921.4</ele>
        <time>2023-06-25T11:14:42Z</time>
      </trkpt>
      <trkpt lat="44.29941" lon="2.98582">
        <ele>920.9</ele>
        <time>2023-06-25T11:14:43Z</time>
      </trkpt>
      <trkpt lat="44.29948" lon="2.98583">
        <ele>920.5</ele>
        <time>2023-06-25T11:14:44Z</time>
      </trkpt>
      <trkpt lat="44.29954" lon="2.98584">
        <ele>920.1</ele>
        <time>2023-06-25T11:14:45Z</time>
      </trkpt>
      <trkpt lat="44.29961" lon="2.98585">
        <ele>919.8</ele>
        <time>2023-06-25T11:14:46Z</time>
      </trkpt>
      <trkpt lat="44.29969" lon="2.98586">
        <ele>919.5</ele>
        <time>2023-06-25T11:14:47Z</time>
      </trkpt>
      <trkpt lat="44.29976" lon="2.98587">
        <ele>919.2</ele>
        <time>2023-06-25T11:14:48Z</time>
      </trkpt>
      <trkpt lat="44.29984" lon="2.98587">
        <ele>919</ele>
        <time>2023-06-25T11:14:49Z</time>
      </trkpt>
      <trkpt lat="44.29991" lon="2.98587">
        <ele>918.9</ele>
        <time>2023-06-25T11:14:50Z</time>
      </trkpt>
      <trkpt lat="44.29998" lon="2.98588">
        <ele>918.8</ele>
        <time>2023-06-25T11:14:51Z</time>
      </trkpt>
      <trkpt lat="44.30005" lon="2.9859">
        <ele>918.7</ele>
        <time>2023-06-25T11:14:52Z</time>
      </trkpt>
      <trkpt lat="44.30012" lon="2.98592">
        <ele>918.6</ele>
        <time>2023-06-25T11:14:53Z</time>
      </trkpt>
      <trkpt lat="44.30018" lon="2.98596">
        <ele>918.5</ele>
        <time>2023-06-25T11:14:54Z</time>
      </trkpt>
      <trkpt lat="44.30024" lon="2.98601">
        <ele>918.3</ele>
        <time>2023-06-25T11:14:55Z</time>
      </trkpt>
      <trkpt lat="44.30028" lon="2.98608">
        <ele>918.2</ele>
        <time>2023-06-25T11:14:56Z</time>
      </trkpt>
      <trkpt lat="44.30031" lon="2.98616">
        <ele>918</ele>
        <time>2023-06-25T11:14:57Z</time>
      </trkpt>
      <trkpt lat="44.30033" lon="2.98625">
        <ele>917.9</ele>
        <time>2023-06-25T11:14:58Z</time>
      </trkpt>
      <trkpt lat="44.30035" lon="2.98634">
        <ele>917.7</ele>
        <time>2023-06-25T11:14:59Z</time>
      </trkpt>
      <trkpt lat="44.30037" lon="2.98643">
        <ele>917.5</ele>
        <time>2023-06-25T11:15:00Z</time>
      </trkpt>
      <trkpt lat="44.30039" lon="2.98651">
        <ele>917.4</ele>
        <time>2023-06-25T11:15:01Z</time>
      </trkpt>
      <trkpt lat="44.30041" lon="2.98661">
        <ele>917.2</ele>
        <time>2023-06-25T11:15:02Z</time>
      </trkpt>
      <trkpt lat="44.30042" lon="2.9867">
        <ele>917</ele>
        <time>2023-06-25T11:15:03Z</time>
      </trkpt>
      <trkpt lat="44.30044" lon="2.98679">
        <ele>916.8</ele>
        <time>2023-06-25T11:15:04Z</time>
      </trkpt>
      <trkpt lat="44.30046" lon="2.98688">
        <ele>916.6</ele>
        <time>2023-06-25T11:15:05Z</time>
      </trkpt>
      <trkpt lat="44.30047" lon="2.98697">
        <ele>916.4</ele>
        <time>2023-06-25T11:15:06Z</time>
      </trkpt>
      <trkpt lat="44.30048" lon="2.98706">
        <ele>916.2</ele>
        <time>2023-06-25T11:15:07Z</time>
      </trkpt>
      <trkpt lat="44.3005" lon="2.98716">
        <ele>916</ele>
        <time>2023-06-25T11:15:08Z</time>
      </trkpt>
      <trkpt lat="44.30052" lon="2.98726">
        <ele>915.7</ele>
        <time>2023-06-25T11:15:09Z</time>
      </trkpt>
      <trkpt lat="44.30052" lon="2.98735">
        <ele>915.4</ele>
        <time>2023-06-25T11:15:10Z</time>
      </trkpt>
      <trkpt lat="44.30054" lon="2.98745">
        <ele>915.1</ele>
        <time>2023-06-25T11:15:11Z</time>
      </trkpt>
      <trkpt lat="44.30055" lon="2.98755">
        <ele>914.8</ele>
        <time>2023-06-25T11:15:12Z</time>
      </trkpt>
      <trkpt lat="44.30055" lon="2.98766">
        <ele>914.4</ele>
        <time>2023-06-25T11:15:13Z</time>
      </trkpt>
      <trkpt lat="44.30053" lon="2.98777">
        <ele>914</ele>
        <time>2023-06-25T11:15:14Z</time>
      </trkpt>
      <trkpt lat="44.3005" lon="2.98788">
        <ele>913.5</ele>
        <time>2023-06-25T11:15:15Z</time>
      </trkpt>
      <trkpt lat="44.30046" lon="2.98799">
        <ele>913.1</ele>
        <time>2023-06-25T11:15:16Z</time>
      </trkpt>
      <trkpt lat="44.30042" lon="2.98809">
        <ele>912.5</ele>
        <time>2023-06-25T11:15:17Z</time>
      </trkpt>
      <trkpt lat="44.30037" lon="2.98819">
        <ele>911.9</ele>
        <time>2023-06-25T11:15:18Z</time>
      </trkpt>
      <trkpt lat="44.30032" lon="2.9883">
        <ele>911.1</ele>
        <time>2023-06-25T11:15:19Z</time>
      </trkpt>
      <trkpt lat="44.30027" lon="2.98841">
        <ele>910.4</ele>
        <time>2023-06-25T11:15:20Z</time>
      </trkpt>
      <trkpt lat="44.30021" lon="2.98852">
        <ele>909.5</ele>
        <time>2023-06-25T11:15:21Z</time>
      </trkpt>
      <trkpt lat="44.30015" lon="2.98863">
        <ele>908.7</ele>
        <time>2023-06-25T11:15:22Z</time>
      </trkpt>
      <trkpt lat="44.3001" lon="2.98875">
        <ele>907.8</ele>
        <time>2023-06-25T11:15:23Z</time>
      </trkpt>
      <trkpt lat="44.30005" lon="2.98888">
        <ele>906.9</ele>
        <time>2023-06-25T11:15:24Z</time>
      </trkpt>
      <trkpt lat="44.30001" lon="2.98901">
        <ele>906</ele>
        <time>2023-06-25T11:15:25Z</time>
      </trkpt>
      <trkpt lat="44.29998" lon="2.98911">
        <ele>905.3</ele>
        <time>2023-06-25T11:15:26Z</time>
      </trkpt>
      <trkpt lat="44.29996" lon="2.98921">
        <ele>904.7</ele>
        <time>2023-06-25T11:15:27Z</time>
      </trkpt>
      <trkpt lat="44.29994" lon="2.98932">
        <ele>903.9</ele>
        <time>2023-06-25T11:15:28Z</time>
      </trkpt>
      <trkpt lat="44.29993" lon="2.98944">
        <ele>903.1</ele>
        <time>2023-06-25T11:15:29Z</time>
      </trkpt>
      <trkpt lat="44.29992" lon="2.98957">
        <ele>902.3</ele>
        <time>2023-06-25T11:15:30Z</time>
      </trkpt>
      <trkpt lat="44.29991" lon="2.98969">
        <ele>901.6</ele>
        <time>2023-06-25T11:15:31Z</time>
      </trkpt>
      <trkpt lat="44.29991" lon="2.98981">
        <ele>900.9</ele>
        <time>2023-06-25T11:15:32Z</time>
      </trkpt>
      <trkpt lat="44.29992" lon="2.98992">
        <ele>900.1</ele>
        <time>2023-06-25T11:15:33Z</time>
      </trkpt>
      <trkpt lat="44.29994" lon="2.99003">
        <ele>899.3</ele>
        <time>2023-06-25T11:15:34Z</time>
      </trkpt>
      <trkpt lat="44.29998" lon="2.99012">
        <ele>898.6</ele>
        <time>2023-06-25T11:15:35Z</time>
      </trkpt>
      <trkpt lat="44.30004" lon="2.99021">
        <ele>897.8</ele>
        <time>2023-06-25T11:15:36Z</time>
      </trkpt>
      <trkpt lat="44.30011" lon="2.99028">
        <ele>897.1</ele>
        <time>2023-06-25T11:15:37Z</time>
      </trkpt>
      <trkpt lat="44.30018" lon="2.99034">
        <ele>896.3</ele>
        <time>2023-06-25T11:15:38Z</time>
      </trkpt>
      <trkpt lat="44.30025" lon="2.99041">
        <ele>895.6</ele>
        <time>2023-06-25T11:15:39Z</time>
      </trkpt>
      <trkpt lat="44.3003" lon="2.9905">
        <ele>895</ele>
        <time>2023-06-25T11:15:40Z</time>
      </trkpt>
      <trkpt lat="44.30032" lon="2.99061">
        <ele>894.4</ele>
        <time>2023-06-25T11:15:41Z</time>
      </trkpt>
      <trkpt lat="44.30032" lon="2.99073">
        <ele>893.8</ele>
        <time>2023-06-25T11:15:42Z</time>
      </trkpt>
      <trkpt lat="44.30029" lon="2.99084">
        <ele>893.3</ele>
        <time>2023-06-25T11:15:43Z</time>
      </trkpt>
      <trkpt lat="44.30024" lon="2.99094">
        <ele>892.7</ele>
        <time>2023-06-25T11:15:44Z</time>
      </trkpt>
      <trkpt lat="44.30018" lon="2.99103">
        <ele>891.9</ele>
        <time>2023-06-25T11:15:45Z</time>
      </trkpt>
      <trkpt lat="44.30012" lon="2.99112">
        <ele>891.1</ele>
        <time>2023-06-25T11:15:46Z</time>
      </trkpt>
      <trkpt lat="44.30006" lon="2.99121">
        <ele>890.2</ele>
        <time>2023-06-25T11:15:47Z</time>
      </trkpt>
      <trkpt lat="44.3" lon="2.9913">
        <ele>889.4</ele>
        <time>2023-06-25T11:15:48Z</time>
      </trkpt>
      <trkpt lat="44.29996" lon="2.9914">
        <ele>888.6</ele>
        <time>2023-06-25T11:15:49Z</time>
      </trkpt>
      <trkpt lat="44.29993" lon="2.99152">
        <ele>887.7</ele>
        <time>2023-06-25T11:15:50Z</time>
      </trkpt>
      <trkpt lat="44.29992" lon="2.99164">
        <ele>886.8</ele>
        <time>2023-06-25T11:15:51Z</time>
      </trkpt>
      <trkpt lat="44.29992" lon="2.99179">
        <ele>885.8</ele>
        <time>2023-06-25T11:15:52Z</time>
      </trkpt>
      <trkpt lat="44.29993" lon="2.99193">
        <ele>884.8</ele>
        <time>2023-06-25T11:15:53Z</time>
      </trkpt>
      <trkpt lat="44.29993" lon="2.99208">
        <ele>883.9</ele>
        <time>2023-06-25T11:15:54Z</time>
      </trkpt>
      <trkpt lat="44.29993" lon="2.99222">
        <ele>883</ele>
        <time>2023-06-25T11:15:55Z</time>
      </trkpt>
      <trkpt lat="44.29993" lon="2.99234">
        <ele>882.1</ele>
        <time>2023-06-25T11:15:56Z</time>
      </trkpt>
      <trkpt lat="44.29993" lon="2.99244">
        <ele>881.3</ele>
        <time>2023-06-25T11:15:57Z</time>
      </trkpt>
      <trkpt lat="44.29995" lon="2.99253">
        <ele>880.6</ele>
        <time>2023-06-25T11:15:58Z</time>
      </trkpt>
      <trkpt lat="44.29999" lon="2.99261">
        <ele>879.9</ele>
        <time>2023-06-25T11:15:59Z</time>
      </trkpt>
      <trkpt lat="44.30005" lon="2.99269">
        <ele>879.2</ele>
        <time>2023-06-25T11:16:00Z</time>
      </trkpt>
      <trkpt lat="44.30012" lon="2.99275">
        <ele>878.4</ele>
        <time>2023-06-25T11:16:01Z</time>
      </trkpt>
      <trkpt lat="44.30021" lon="2.99281">
        <ele>877.6</ele>
        <time>2023-06-25T11:16:02Z</time>
      </trkpt>
      <trkpt lat="44.3003" lon="2.99286">
        <ele>876.8</ele>
        <time>2023-06-25T11:16:03Z</time>
      </trkpt>
      <trkpt lat="44.3004" lon="2.99289">
        <ele>875.9</ele>
        <time>2023-06-25T11:16:04Z</time>
      </trkpt>
      <trkpt lat="44.30048" lon="2.99292">
        <ele>875</ele>
        <time>2023-06-25T11:16:05Z</time>
      </trkpt>
      <trkpt lat="44.30057" lon="2.99291">
        <ele>874.1</ele>
        <time>2023-06-25T11:16:06Z</time>
      </trkpt>
      <trkpt lat="44.30066" lon="2.99289">
        <ele>873.2</ele>
        <time>2023-06-25T11:16:07Z</time>
      </trkpt>
      <trkpt lat="44.30074" lon="2.99286">
        <ele>872.4</ele>
        <time>2023-06-25T11:16:08Z</time>
      </trkpt>
      <trkpt lat="44.30083" lon="2.99281">
        <ele>871.5</ele>
        <time>2023-06-25T11:16:09Z</time>
      </trkpt>
      <trkpt lat="44.30091" lon="2.99276">
        <ele>870.6</ele>
        <time>2023-06-25T11:16:10Z</time>
      </trkpt>
      <trkpt lat="44.301" lon="2.99269">
        <ele>869.7</ele>
        <time>2023-06-25T11:16:11Z</time>
      </trkpt>
      <trkpt lat="44.30109" lon="2.99263">
        <ele>868.8</ele>
        <time>2023-06-25T11:16:12Z</time>
      </trkpt>
      <trkpt lat="44.30118" lon="2.99257">
        <ele>867.8</ele>
        <time>2023-06-25T11:16:13Z</time>
      </trkpt>
      <trkpt lat="44.30127" lon="2.99251">
        <ele>866.9</ele>
        <time>2023-06-25T11:16:14Z</time>
      </trkpt>
      <trkpt lat="44.30136" lon="2.99245">
        <ele>866</ele>
        <time>2023-06-25T11:16:15Z</time>
      </trkpt>
      <trkpt lat="44.30145" lon="2.99239">
        <ele>865.2</ele>
        <time>2023-06-25T11:16:16Z</time>
      </trkpt>
      <trkpt lat="44.30153" lon="2.99232">
        <ele>864.3</ele>
        <time>2023-06-25T11:16:17Z</time>
      </trkpt>
      <trkpt lat="44.30162" lon="2.99225">
        <ele>863.4</ele>
        <time>2023-06-25T11:16:18Z</time>
      </trkpt>
      <trkpt lat="44.3017" lon="2.99216">
        <ele>862.4</ele>
        <time>2023-06-25T11:16:19Z</time>
      </trkpt>
      <trkpt lat="44.30178" lon="2.99207">
        <ele>861.5</ele>
        <time>2023-06-25T11:16:20Z</time>
      </trkpt>
      <trkpt lat="44.30185" lon="2.99198">
        <ele>860.7</ele>
        <time>2023-06-25T11:16:21Z</time>
      </trkpt>
      <trkpt lat="44.30191" lon="2.99189">
        <ele>859.8</ele>
        <time>2023-06-25T11:16:22Z</time>
      </trkpt>
      <trkpt lat="44.30197" lon="2.9918">
        <ele>858.9</ele>
        <time>2023-06-25T11:16:23Z</time>
      </trkpt>
      <trkpt lat="44.30203" lon="2.9917">
        <ele>858.1</ele>
        <time>2023-06-25T11:16:24Z</time>
      </trkpt>
      <trkpt lat="44.30207" lon="2.9916">
        <ele>857.3</ele>
        <time>2023-06-25T11:16:25Z</time>
      </trkpt>
      <trkpt lat="44.3021" lon="2.99148">
        <ele>856.5</ele>
        <time>2023-06-25T11:16:26Z</time>
      </trkpt>
      <trkpt lat="44.30211" lon="2.99138">
        <ele>855.8</ele>
        <time>2023-06-25T11:16:27Z</time>
      </trkpt>
      <trkpt lat="44.30212" lon="2.99127">
        <ele>855.1</ele>
        <time>2023-06-25T11:16:28Z</time>
      </trkpt>
      <trkpt lat="44.3021" lon="2.99118">
        <ele>854.4</ele>
        <time>2023-06-25T11:16:29Z</time>
      </trkpt>
      <trkpt lat="44.3021" lon="2.99111">
        <ele>853.9</ele>
        <time>2023-06-25T11:16:30Z</time>
      </trkpt>
      <trkpt lat="44.30209" lon="2.99105">
        <ele>853.5</ele>
        <time>2023-06-25T11:16:31Z</time>
      </trkpt>
      <trkpt lat="44.30209" lon="2.991">
        <ele>853.2</ele>
        <time>2023-06-25T11:16:32Z</time>
      </trkpt>
      <trkpt lat="44.3021" lon="2.99098">
        <ele>853</ele>
        <time>2023-06-25T11:16:33Z</time>
      </trkpt>
      <trkpt lat="44.30209" lon="2.99095">
        <ele>852.9</ele>
        <time>2023-06-25T11:16:34Z</time>
      </trkpt>
      <trkpt lat="44.30209" lon="2.99093">
        <ele>852.8</ele>
        <time>2023-06-25T11:16:35Z</time>
      </trkpt>
      <trkpt lat="44.30209" lon="2.99094">
        <ele>852.7</ele>
        <time>2023-06-25T11:16:36Z</time>
      </trkpt>
      <trkpt lat="44.30209" lon="2.99095">
        <ele>852.6</ele>
        <time>2023-06-25T11:16:37Z</time>
      </trkpt>
      <trkpt lat="44.30209" lon="2.99097">
        <ele>852.5</ele>
        <time>2023-06-25T11:16:38Z</time>
      </trkpt>
      <trkpt lat="44.30211" lon="2.99102">
        <ele>852.2</ele>
        <time>2023-06-25T11:16:40Z</time>
      </trkpt>
      <trkpt lat="44.30212" lon="2.99104">
        <ele>852.1</ele>
        <time>2023-06-25T11:16:41Z</time>
      </trkpt>
      <trkpt lat="44.30214" lon="2.99108">
        <ele>851.7</ele>
        <time>2023-06-25T11:16:42Z</time>
      </trkpt>
      <trkpt lat="44.30219" lon="2.99119">
        <ele>850.8</ele>
        <time>2023-06-25T11:16:44Z</time>
      </trkpt>
      <trkpt lat="44.30222" lon="2.99145">
        <ele>849</ele>
        <time>2023-06-25T11:16:45Z</time>
      </trkpt>
      <trkpt lat="44.30223" lon="2.99163">
        <ele>847.6</ele>
        <time>2023-06-25T11:16:46Z</time>
      </trkpt>
      <trkpt lat="44.30224" lon="2.99187">
        <ele>845.9</ele>
        <time>2023-06-25T11:16:47Z</time>
      </trkpt>
      <trkpt lat="44.30223" lon="2.99211">
        <ele>844.2</ele>
        <time>2023-06-25T11:16:48Z</time>
      </trkpt>
      <trkpt lat="44.3022" lon="2.99231">
        <ele>842.8</ele>
        <time>2023-06-25T11:16:49Z</time>
      </trkpt>
      <trkpt lat="44.30214" lon="2.99246">
        <ele>841.6</ele>
        <time>2023-06-25T11:16:50Z</time>
      </trkpt>
      <trkpt lat="44.30206" lon="2.99262">
        <ele>840.3</ele>
        <time>2023-06-25T11:16:51Z</time>
      </trkpt>
      <trkpt lat="44.30197" lon="2.99273">
        <ele>839.2</ele>
        <time>2023-06-25T11:16:52Z</time>
      </trkpt>
      <trkpt lat="44.30188" lon="2.99283">
        <ele>838.1</ele>
        <time>2023-06-25T11:16:53Z</time>
      </trkpt>
      <trkpt lat="44.30177" lon="2.99292">
        <ele>836.8</ele>
        <time>2023-06-25T11:16:54Z</time>
      </trkpt>
      <trkpt lat="44.30166" lon="2.99301">
        <ele>835.5</ele>
        <time>2023-06-25T11:16:55Z</time>
      </trkpt>
      <trkpt lat="44.30156" lon="2.9931">
        <ele>834.2</ele>
        <time>2023-06-25T11:16:56Z</time>
      </trkpt>
      <trkpt lat="44.30146" lon="2.99318">
        <ele>833.2</ele>
        <time>2023-06-25T11:16:57Z</time>
      </trkpt>
      <trkpt lat="44.30136" lon="2.99327">
        <ele>832.1</ele>
        <time>2023-06-25T11:16:58Z</time>
      </trkpt>
      <trkpt lat="44.30128" lon="2.99337">
        <ele>831.2</ele>
        <time>2023-06-25T11:16:59Z</time>
      </trkpt>
      <trkpt lat="44.3012" lon="2.99347">
        <ele>830.4</ele>
        <time>2023-06-25T11:17:00Z</time>
      </trkpt>
      <trkpt lat="44.30111" lon="2.99358">
        <ele>829.5</ele>
        <time>2023-06-25T11:17:01Z</time>
      </trkpt>
      <trkpt lat="44.30104" lon="2.99369">
        <ele>828.5</ele>
        <time>2023-06-25T11:17:02Z</time>
      </trkpt>
      <trkpt lat="44.30096" lon="2.9938">
        <ele>827.4</ele>
        <time>2023-06-25T11:17:03Z</time>
      </trkpt>
      <trkpt lat="44.30088" lon="2.9939">
        <ele>826.4</ele>
        <time>2023-06-25T11:17:04Z</time>
      </trkpt>
      <trkpt lat="44.3008" lon="2.99399">
        <ele>825.3</ele>
        <time>2023-06-25T11:17:05Z</time>
      </trkpt>
      <trkpt lat="44.30072" lon="2.99407">
        <ele>824.3</ele>
        <time>2023-06-25T11:17:06Z</time>
      </trkpt>
      <trkpt lat="44.30064" lon="2.99414">
        <ele>823.4</ele>
        <time>2023-06-25T11:17:07Z</time>
      </trkpt>
      <trkpt lat="44.30056" lon="2.99418">
        <ele>822.5</ele>
        <time>2023-06-25T11:17:08Z</time>
      </trkpt>
      <trkpt lat="44.30047" lon="2.9942">
        <ele>821.2</ele>
        <time>2023-06-25T11:17:09Z</time>
      </trkpt>
      <trkpt lat="44.30039" lon="2.99419">
        <ele>820.5</ele>
        <time>2023-06-25T11:17:10Z</time>
      </trkpt>
      <trkpt lat="44.30031" lon="2.99418">
        <ele>819.6</ele>
        <time>2023-06-25T11:17:11Z</time>
      </trkpt>
      <trkpt lat="44.30022" lon="2.99417">
        <ele>818.7</ele>
        <time>2023-06-25T11:17:12Z</time>
      </trkpt>
      <trkpt lat="44.30014" lon="2.99415">
        <ele>817.9</ele>
        <time>2023-06-25T11:17:13Z</time>
      </trkpt>
      <trkpt lat="44.30005" lon="2.99416">
        <ele>817.1</ele>
        <time>2023-06-25T11:17:14Z</time>
      </trkpt>
      <trkpt lat="44.29995" lon="2.99419">
        <ele>816.3</ele>
        <time>2023-06-25T11:17:15Z</time>
      </trkpt>
      <trkpt lat="44.29985" lon="2.99424">
        <ele>815.5</ele>
        <time>2023-06-25T11:17:16Z</time>
      </trkpt>
      <trkpt lat="44.29975" lon="2.99429">
        <ele>814.7</ele>
        <time>2023-06-25T11:17:17Z</time>
      </trkpt>
      <trkpt lat="44.29966" lon="2.99433">
        <ele>813.8</ele>
        <time>2023-06-25T11:17:18Z</time>
      </trkpt>
      <trkpt lat="44.29957" lon="2.99437">
        <ele>813</ele>
        <time>2023-06-25T11:17:19Z</time>
      </trkpt>
      <trkpt lat="44.29948" lon="2.9944">
        <ele>812.2</ele>
        <time>2023-06-25T11:17:20Z</time>
      </trkpt>
      <trkpt lat="44.29939" lon="2.99441">
        <ele>811.4</ele>
        <time>2023-06-25T11:17:21Z</time>
      </trkpt>
      <trkpt lat="44.29931" lon="2.9944">
        <ele>810.7</ele>
        <time>2023-06-25T11:17:22Z</time>
      </trkpt>
      <trkpt lat="44.29923" lon="2.9944">
        <ele>810</ele>
        <time>2023-06-25T11:17:23Z</time>
      </trkpt>
      <trkpt lat="44.29914" lon="2.99441">
        <ele>809.3</ele>
        <time>2023-06-25T11:17:24Z</time>
      </trkpt>
      <trkpt lat="44.29906" lon="2.99443">
        <ele>808.7</ele>
        <time>2023-06-25T11:17:25Z</time>
      </trkpt>
      <trkpt lat="44.29897" lon="2.99446">
        <ele>808</ele>
        <time>2023-06-25T11:17:26Z</time>
      </trkpt>
      <trkpt lat="44.29889" lon="2.99449">
        <ele>807.3</ele>
        <time>2023-06-25T11:17:27Z</time>
      </trkpt>
      <trkpt lat="44.2988" lon="2.99452">
        <ele>806.5</ele>
        <time>2023-06-25T11:17:28Z</time>
      </trkpt>
      <trkpt lat="44.29871" lon="2.99455">
        <ele>805.7</ele>
        <time>2023-06-25T11:17:29Z</time>
      </trkpt>
      <trkpt lat="44.29862" lon="2.99456">
        <ele>804.7</ele>
        <time>2023-06-25T11:17:30Z</time>
      </trkpt>
      <trkpt lat="44.29852" lon="2.99456">
        <ele>803.7</ele>
        <time>2023-06-25T11:17:31Z</time>
      </trkpt>
      <trkpt lat="44.29843" lon="2.99456">
        <ele>802.7</ele>
        <time>2023-06-25T11:17:32Z</time>
      </trkpt>
      <trkpt lat="44.29834" lon="2.99456">
        <ele>801.7</ele>
        <time>2023-06-25T11:17:33Z</time>
      </trkpt>
      <trkpt lat="44.29824" lon="2.99455">
        <ele>800.8</ele>
        <time>2023-06-25T11:17:34Z</time>
      </trkpt>
      <trkpt lat="44.29814" lon="2.99454">
        <ele>799.8</ele>
        <time>2023-06-25T11:17:35Z</time>
      </trkpt>
      <trkpt lat="44.29804" lon="2.99453">
        <ele>798.8</ele>
        <time>2023-06-25T11:17:36Z</time>
      </trkpt>
      <trkpt lat="44.29793" lon="2.99451">
        <ele>797.8</ele>
        <time>2023-06-25T11:17:37Z</time>
      </trkpt>
      <trkpt lat="44.29783" lon="2.99449">
        <ele>796.8</ele>
        <time>2023-06-25T11:17:38Z</time>
      </trkpt>
      <trkpt lat="44.29774" lon="2.99447">
        <ele>795.9</ele>
        <time>2023-06-25T11:17:39Z</time>
      </trkpt>
      <trkpt lat="44.29765" lon="2.99444">
        <ele>795</ele>
        <time>2023-06-25T11:17:40Z</time>
      </trkpt>
      <trkpt lat="44.29756" lon="2.99441">
        <ele>794</ele>
        <time>2023-06-25T11:17:41Z</time>
      </trkpt>
      <trkpt lat="44.29748" lon="2.99437">
        <ele>793</ele>
        <time>2023-06-25T11:17:42Z</time>
      </trkpt>
      <trkpt lat="44.29739" lon="2.99431">
        <ele>792</ele>
        <time>2023-06-25T11:17:43Z</time>
      </trkpt>
      <trkpt lat="44.2973" lon="2.99423">
        <ele>790.9</ele>
        <time>2023-06-25T11:17:44Z</time>
      </trkpt>
      <trkpt lat="44.29722" lon="2.99411">
        <ele>789.6</ele>
        <time>2023-06-25T11:17:45Z</time>
      </trkpt>
      <trkpt lat="44.29715" lon="2.99398">
        <ele>788.6</ele>
        <time>2023-06-25T11:17:46Z</time>
      </trkpt>
      <trkpt lat="44.29711" lon="2.99386">
        <ele>787.9</ele>
        <time>2023-06-25T11:17:47Z</time>
      </trkpt>
      <trkpt lat="44.29708" lon="2.99373">
        <ele>787.1</ele>
        <time>2023-06-25T11:17:48Z</time>
      </trkpt>
      <trkpt lat="44.29707" lon="2.99359">
        <ele>786.3</ele>
        <time>2023-06-25T11:17:49Z</time>
      </trkpt>
      <trkpt lat="44.29706" lon="2.99347">
        <ele>785.5</ele>
        <time>2023-06-25T11:17:50Z</time>
      </trkpt>
      <trkpt lat="44.29706" lon="2.99336">
        <ele>784.7</ele>
        <time>2023-06-25T11:17:51Z</time>
      </trkpt>
      <trkpt lat="44.29706" lon="2.99327">
        <ele>784.1</ele>
        <time>2023-06-25T11:17:52Z</time>
      </trkpt>
      <trkpt lat="44.29703" lon="2.99322">
        <ele>783.6</ele>
        <time>2023-06-25T11:17:53Z</time>
      </trkpt>
      <trkpt lat="44.29698" lon="2.99322">
        <ele>781.4</ele>
        <time>2023-06-25T11:17:54Z</time>
      </trkpt>
      <trkpt lat="44.29694" lon="2.99324">
        <ele>781</ele>
        <time>2023-06-25T11:17:55Z</time>
      </trkpt>
      <trkpt lat="44.29693" lon="2.99329">
        <ele>780.7</ele>
        <time>2023-06-25T11:17:56Z</time>
      </trkpt>
      <trkpt lat="44.29693" lon="2.99337">
        <ele>780.2</ele>
        <time>2023-06-25T11:17:57Z</time>
      </trkpt>
      <trkpt lat="44.29694" lon="2.99346">
        <ele>779.6</ele>
        <time>2023-06-25T11:17:58Z</time>
      </trkpt>
      <trkpt lat="44.29694" lon="2.99356">
        <ele>779</ele>
        <time>2023-06-25T11:17:59Z</time>
      </trkpt>
      <trkpt lat="44.29694" lon="2.99366">
        <ele>778.4</ele>
        <time>2023-06-25T11:18:00Z</time>
      </trkpt>
      <trkpt lat="44.29694" lon="2.99377">
        <ele>777.7</ele>
        <time>2023-06-25T11:18:01Z</time>
      </trkpt>
      <trkpt lat="44.29695" lon="2.99388">
        <ele>776.9</ele>
        <time>2023-06-25T11:18:02Z</time>
      </trkpt>
      <trkpt lat="44.29698" lon="2.994">
        <ele>776</ele>
        <time>2023-06-25T11:18:03Z</time>
      </trkpt>
      <trkpt lat="44.29702" lon="2.99412">
        <ele>775</ele>
        <time>2023-06-25T11:18:04Z</time>
      </trkpt>
      <trkpt lat="44.29707" lon="2.99423">
        <ele>774</ele>
        <time>2023-06-25T11:18:05Z</time>
      </trkpt>
      <trkpt lat="44.29713" lon="2.99434">
        <ele>773</ele>
        <time>2023-06-25T11:18:06Z</time>
      </trkpt>
      <trkpt lat="44.29719" lon="2.99446">
        <ele>771.9</ele>
        <time>2023-06-25T11:18:07Z</time>
      </trkpt>
      <trkpt lat="44.29727" lon="2.99458">
        <ele>770.8</ele>
        <time>2023-06-25T11:18:08Z</time>
      </trkpt>
      <trkpt lat="44.29735" lon="2.99469">
        <ele>769.8</ele>
        <time>2023-06-25T11:18:09Z</time>
      </trkpt>
      <trkpt lat="44.29744" lon="2.9948">
        <ele>768.8</ele>
        <time>2023-06-25T11:18:10Z</time>
      </trkpt>
      <trkpt lat="44.29754" lon="2.99492">
        <ele>767.8</ele>
        <time>2023-06-25T11:18:11Z</time>
      </trkpt>
      <trkpt lat="44.29764" lon="2.99503">
        <ele>766.9</ele>
        <time>2023-06-25T11:18:12Z</time>
      </trkpt>
      <trkpt lat="44.29773" lon="2.99514">
        <ele>766.1</ele>
        <time>2023-06-25T11:18:13Z</time>
      </trkpt>
      <trkpt lat="44.29783" lon="2.99525">
        <ele>765.4</ele>
        <time>2023-06-25T11:18:14Z</time>
      </trkpt>
      <trkpt lat="44.29792" lon="2.99536">
        <ele>764.7</ele>
        <time>2023-06-25T11:18:15Z</time>
      </trkpt>
      <trkpt lat="44.29801" lon="2.99547">
        <ele>764</ele>
        <time>2023-06-25T11:18:16Z</time>
      </trkpt>
      <trkpt lat="44.29811" lon="2.99556">
        <ele>763.3</ele>
        <time>2023-06-25T11:18:17Z</time>
      </trkpt>
      <trkpt lat="44.29821" lon="2.99564">
        <ele>762.6</ele>
        <time>2023-06-25T11:18:18Z</time>
      </trkpt>
      <trkpt lat="44.29831" lon="2.99571">
        <ele>761.9</ele>
        <time>2023-06-25T11:18:19Z</time>
      </trkpt>
      <trkpt lat="44.29841" lon="2.99578">
        <ele>761.1</ele>
        <time>2023-06-25T11:18:20Z</time>
      </trkpt>
      <trkpt lat="44.29851" lon="2.99584">
        <ele>760.3</ele>
        <time>2023-06-25T11:18:21Z</time>
      </trkpt>
      <trkpt lat="44.29862" lon="2.99589">
        <ele>759.4</ele>
        <time>2023-06-25T11:18:22Z</time>
      </trkpt>
      <trkpt lat="44.29873" lon="2.99595">
        <ele>758.3</ele>
        <time>2023-06-25T11:18:23Z</time>
      </trkpt>
      <trkpt lat="44.29884" lon="2.996">
        <ele>757.2</ele>
        <time>2023-06-25T11:18:24Z</time>
      </trkpt>
      <trkpt lat="44.29897" lon="2.99607">
        <ele>755.9</ele>
        <time>2023-06-25T11:18:25Z</time>
      </trkpt>
      <trkpt lat="44.29911" lon="2.99614">
        <ele>754.4</ele>
        <time>2023-06-25T11:18:26Z</time>
      </trkpt>
      <trkpt lat="44.29923" lon="2.99621">
        <ele>753.1</ele>
        <time>2023-06-25T11:18:27Z</time>
      </trkpt>
      <trkpt lat="44.29935" lon="2.99628">
        <ele>751.9</ele>
        <time>2023-06-25T11:18:28Z</time>
      </trkpt>
      <trkpt lat="44.29947" lon="2.99634">
        <ele>750.9</ele>
        <time>2023-06-25T11:18:29Z</time>
      </trkpt>
      <trkpt lat="44.2996" lon="2.99641">
        <ele>749.8</ele>
        <time>2023-06-25T11:18:30Z</time>
      </trkpt>
      <trkpt lat="44.29972" lon="2.99647">
        <ele>748.9</ele>
        <time>2023-06-25T11:18:31Z</time>
      </trkpt>
      <trkpt lat="44.29984" lon="2.99655">
        <ele>747.9</ele>
        <time>2023-06-25T11:18:32Z</time>
      </trkpt>
      <trkpt lat="44.29995" lon="2.99665">
        <ele>746.9</ele>
        <time>2023-06-25T11:18:33Z</time>
      </trkpt>
      <trkpt lat="44.30006" lon="2.99675">
        <ele>745.9</ele>
        <time>2023-06-25T11:18:34Z</time>
      </trkpt>
      <trkpt lat="44.30017" lon="2.99686">
        <ele>744.7</ele>
        <time>2023-06-25T11:18:35Z</time>
      </trkpt>
      <trkpt lat="44.30028" lon="2.99696">
        <ele>743.5</ele>
        <time>2023-06-25T11:18:36Z</time>
      </trkpt>
      <trkpt lat="44.30038" lon="2.99707">
        <ele>742.3</ele>
        <time>2023-06-25T11:18:37Z</time>
      </trkpt>
      <trkpt lat="44.30048" lon="2.99719">
        <ele>741.3</ele>
        <time>2023-06-25T11:18:38Z</time>
      </trkpt>
      <trkpt lat="44.30057" lon="2.99731">
        <ele>740.1</ele>
        <time>2023-06-25T11:18:39Z</time>
      </trkpt>
      <trkpt lat="44.30067" lon="2.99743">
        <ele>739.1</ele>
        <time>2023-06-25T11:18:40Z</time>
      </trkpt>
      <trkpt lat="44.30076" lon="2.99753">
        <ele>738</ele>
        <time>2023-06-25T11:18:41Z</time>
      </trkpt>
      <trkpt lat="44.30085" lon="2.99762">
        <ele>737</ele>
        <time>2023-06-25T11:18:42Z</time>
      </trkpt>
      <trkpt lat="44.30096" lon="2.99772">
        <ele>735.9</ele>
        <time>2023-06-25T11:18:43Z</time>
      </trkpt>
      <trkpt lat="44.30105" lon="2.99782">
        <ele>734.8</ele>
        <time>2023-06-25T11:18:44Z</time>
      </trkpt>
      <trkpt lat="44.30114" lon="2.99792">
        <ele>733.7</ele>
        <time>2023-06-25T11:18:45Z</time>
      </trkpt>
      <trkpt lat="44.30123" lon="2.99802">
        <ele>732.7</ele>
        <time>2023-06-25T11:18:46Z</time>
      </trkpt>
      <trkpt lat="44.30133" lon="2.99813">
        <ele>731.7</ele>
        <time>2023-06-25T11:18:47Z</time>
      </trkpt>
      <trkpt lat="44.30144" lon="2.99822">
        <ele>730.7</ele>
        <time>2023-06-25T11:18:48Z</time>
      </trkpt>
      <trkpt lat="44.30155" lon="2.99831">
        <ele>729.6</ele>
        <time>2023-06-25T11:18:49Z</time>
      </trkpt>
      <trkpt lat="44.30165" lon="2.99839">
        <ele>728.6</ele>
        <time>2023-06-25T11:18:50Z</time>
      </trkpt>
      <trkpt lat="44.30175" lon="2.99848">
        <ele>727.7</ele>
        <time>2023-06-25T11:18:51Z</time>
      </trkpt>
      <trkpt lat="44.30184" lon="2.99856">
        <ele>726.8</ele>
        <time>2023-06-25T11:18:52Z</time>
      </trkpt>
      <trkpt lat="44.30192" lon="2.99864">
        <ele>726</ele>
        <time>2023-06-25T11:18:53Z</time>
      </trkpt>
      <trkpt lat="44.302" lon="2.99871">
        <ele>725.2</ele>
        <time>2023-06-25T11:18:54Z</time>
      </trkpt>
      <trkpt lat="44.30209" lon="2.99879">
        <ele>724.4</ele>
        <time>2023-06-25T11:18:55Z</time>
      </trkpt>
      <trkpt lat="44.30219" lon="2.99884">
        <ele>723.7</ele>
        <time>2023-06-25T11:18:56Z</time>
      </trkpt>
      <trkpt lat="44.30229" lon="2.99886">
        <ele>723</ele>
        <time>2023-06-25T11:18:57Z</time>
      </trkpt>
      <trkpt lat="44.30241" lon="2.99889">
        <ele>722.4</ele>
        <time>2023-06-25T11:18:58Z</time>
      </trkpt>
      <trkpt lat="44.30252" lon="2.99891">
        <ele>721.9</ele>
        <time>2023-06-25T11:18:59Z</time>
      </trkpt>
      <trkpt lat="44.30263" lon="2.99893">
        <ele>721.4</ele>
        <time>2023-06-25T11:19:00Z</time>
      </trkpt>
      <trkpt lat="44.30274" lon="2.99896">
        <ele>721.1</ele>
        <time>2023-06-25T11:19:01Z</time>
      </trkpt>
      <trkpt lat="44.30285" lon="2.999">
        <ele>720.7</ele>
        <time>2023-06-25T11:19:02Z</time>
      </trkpt>
      <trkpt lat="44.30296" lon="2.99904">
        <ele>720.4</ele>
        <time>2023-06-25T11:19:03Z</time>
      </trkpt>
      <trkpt lat="44.30306" lon="2.9991">
        <ele>720.1</ele>
        <time>2023-06-25T11:19:04Z</time>
      </trkpt>
      <trkpt lat="44.30316" lon="2.99916">
        <ele>719.7</ele>
        <time>2023-06-25T11:19:05Z</time>
      </trkpt>
      <trkpt lat="44.30325" lon="2.99922">
        <ele>719.2</ele>
        <time>2023-06-25T11:19:06Z</time>
      </trkpt>
      <trkpt lat="44.30334" lon="2.9993">
        <ele>718.7</ele>
        <time>2023-06-25T11:19:07Z</time>
      </trkpt>
      <trkpt lat="44.30343" lon="2.99937">
        <ele>718.1</ele>
        <time>2023-06-25T11:19:08Z</time>
      </trkpt>
      <trkpt lat="44.30352" lon="2.99945">
        <ele>717.5</ele>
        <time>2023-06-25T11:19:09Z</time>
      </trkpt>
      <trkpt lat="44.30361" lon="2.99953">
        <ele>717</ele>
        <time>2023-06-25T11:19:10Z</time>
      </trkpt>
      <trkpt lat="44.30371" lon="2.9996">
        <ele>716.5</ele>
        <time>2023-06-25T11:19:11Z</time>
      </trkpt>
      <trkpt lat="44.30381" lon="2.99965">
        <ele>716</ele>
        <time>2023-06-25T11:19:12Z</time>
      </trkpt>
      <trkpt lat="44.30391" lon="2.9997">
        <ele>715.4</ele>
        <time>2023-06-25T11:19:13Z</time>
      </trkpt>
      <trkpt lat="44.304" lon="2.99976">
        <ele>714.9</ele>
        <time>2023-06-25T11:19:14Z</time>
      </trkpt>
      <trkpt lat="44.30409" lon="2.99981">
        <ele>714.4</ele>
        <time>2023-06-25T11:19:15Z</time>
      </trkpt>
      <trkpt lat="44.30419" lon="2.99986">
        <ele>713.9</ele>
        <time>2023-06-25T11:19:16Z</time>
      </trkpt>
      <trkpt lat="44.30428" lon="2.9999">
        <ele>713.4</ele>
        <time>2023-06-25T11:19:17Z</time>
      </trkpt>
      <trkpt lat="44.30437" lon="2.99993">
        <ele>712.9</ele>
        <time>2023-06-25T11:19:18Z</time>
      </trkpt>
      <trkpt lat="44.30448" lon="2.99994">
        <ele>712.4</ele>
        <time>2023-06-25T11:19:19Z</time>
      </trkpt>
      <trkpt lat="44.30458" lon="2.99995">
        <ele>711.9</ele>
        <time>2023-06-25T11:19:20Z</time>
      </trkpt>
      <trkpt lat="44.30468" lon="2.99996">
        <ele>711.5</ele>
        <time>2023-06-25T11:19:21Z</time>
      </trkpt>
      <trkpt lat="44.30478" lon="2.99997">
        <ele>711.1</ele>
        <time>2023-06-25T11:19:22Z</time>
      </trkpt>
      <trkpt lat="44.30487" lon="2.99997">
        <ele>710.7</ele>
        <time>2023-06-25T11:19:23Z</time>
      </trkpt>
      <trkpt lat="44.30497" lon="2.99997">
        <ele>710.3</ele>
        <time>2023-06-25T11:19:24Z</time>
      </trkpt>
      <trkpt lat="44.30506" lon="2.99996">
        <ele>710</ele>
        <time>2023-06-25T11:19:25Z</time>
      </trkpt>
      <trkpt lat="44.30515" lon="2.99996">
        <ele>709.6</ele>
        <time>2023-06-25T11:19:26Z</time>
      </trkpt>
      <trkpt lat="44.30524" lon="2.99998">
        <ele>709.3</ele>
        <time>2023-06-25T11:19:27Z</time>
      </trkpt>
      <trkpt lat="44.30532" lon="3.00002">
        <ele>708.9</ele>
        <time>2023-06-25T11:19:28Z</time>
      </trkpt>
      <trkpt lat="44.30541" lon="3.00006">
        <ele>708.6</ele>
        <time>2023-06-25T11:19:29Z</time>
      </trkpt>
      <trkpt lat="44.30549" lon="3.00011">
        <ele>708.2</ele>
        <time>2023-06-25T11:19:30Z</time>
      </trkpt>
      <trkpt lat="44.30556" lon="3.00018">
        <ele>707.8</ele>
        <time>2023-06-25T11:19:31Z</time>
      </trkpt>
      <trkpt lat="44.30564" lon="3.00024">
        <ele>707.5</ele>
        <time>2023-06-25T11:19:32Z</time>
      </trkpt>
      <trkpt lat="44.30572" lon="3.00031">
        <ele>707.1</ele>
        <time>2023-06-25T11:19:33Z</time>
      </trkpt>
      <trkpt lat="44.3058" lon="3.00037">
        <ele>706.8</ele>
        <time>2023-06-25T11:19:34Z</time>
      </trkpt>
      <trkpt lat="44.30588" lon="3.00043">
        <ele>706.4</ele>
        <time>2023-06-25T11:19:35Z</time>
      </trkpt>
      <trkpt lat="44.30596" lon="3.00049">
        <ele>706</ele>
        <time>2023-06-25T11:19:36Z</time>
      </trkpt>
      <trkpt lat="44.30604" lon="3.00053">
        <ele>705.7</ele>
        <time>2023-06-25T11:19:37Z</time>
      </trkpt>
      <trkpt lat="44.30612" lon="3.00056">
        <ele>705.4</ele>
        <time>2023-06-25T11:19:38Z</time>
      </trkpt>
      <trkpt lat="44.3062" lon="3.00059">
        <ele>705</ele>
        <time>2023-06-25T11:19:39Z</time>
      </trkpt>
      <trkpt lat="44.30628" lon="3.00062">
        <ele>704.7</ele>
        <time>2023-06-25T11:19:40Z</time>
      </trkpt>
      <trkpt lat="44.30636" lon="3.00067">
        <ele>704.3</ele>
        <time>2023-06-25T11:19:41Z</time>
      </trkpt>
      <trkpt lat="44.30644" lon="3.00071">
        <ele>703.9</ele>
        <time>2023-06-25T11:19:42Z</time>
      </trkpt>
      <trkpt lat="44.30653" lon="3.00076">
        <ele>703.6</ele>
        <time>2023-06-25T11:19:43Z</time>
      </trkpt>
      <trkpt lat="44.30661" lon="3.0008">
        <ele>703.3</ele>
        <time>2023-06-25T11:19:44Z</time>
      </trkpt>
      <trkpt lat="44.3067" lon="3.00085">
        <ele>703.1</ele>
        <time>2023-06-25T11:19:45Z</time>
      </trkpt>
      <trkpt lat="44.30678" lon="3.00089">
        <ele>702.7</ele>
        <time>2023-06-25T11:19:46Z</time>
      </trkpt>
      <trkpt lat="44.30687" lon="3.00091">
        <ele>702.4</ele>
        <time>2023-06-25T11:19:47Z</time>
      </trkpt>
      <trkpt lat="44.30696" lon="3.00093">
        <ele>702.2</ele>
        <time>2023-06-25T11:19:48Z</time>
      </trkpt>
      <trkpt lat="44.30705" lon="3.00094">
        <ele>702</ele>
        <time>2023-06-25T11:19:49Z</time>
      </trkpt>
      <trkpt lat="44.30714" lon="3.00095">
        <ele>702</ele>
        <time>2023-06-25T11:19:50Z</time>
      </trkpt>
      <trkpt lat="44.30723" lon="3.00095">
        <ele>702</ele>
        <time>2023-06-25T11:19:51Z</time>
      </trkpt>
      <trkpt lat="44.30732" lon="3.00095">
        <ele>702</ele>
        <time>2023-06-25T11:19:52Z</time>
      </trkpt>
      <trkpt lat="44.3074" lon="3.00096">
        <ele>701.9</ele>
        <time>2023-06-25T11:19:53Z</time>
      </trkpt>
      <trkpt lat="44.30748" lon="3.00098">
        <ele>701.7</ele>
        <time>2023-06-25T11:19:54Z</time>
      </trkpt>
      <trkpt lat="44.30755" lon="3.00102">
        <ele>701.5</ele>
        <time>2023-06-25T11:19:55Z</time>
      </trkpt>
      <trkpt lat="44.30762" lon="3.00106">
        <ele>701.3</ele>
        <time>2023-06-25T11:19:56Z</time>
      </trkpt>
      <trkpt lat="44.30769" lon="3.0011">
        <ele>701.1</ele>
        <time>2023-06-25T11:19:57Z</time>
      </trkpt>
      <trkpt lat="44.30774" lon="3.00114">
        <ele>700.9</ele>
        <time>2023-06-25T11:19:58Z</time>
      </trkpt>
      <trkpt lat="44.30779" lon="3.00118">
        <ele>700.7</ele>
        <time>2023-06-25T11:19:59Z</time>
      </trkpt>
      <trkpt lat="44.30783" lon="3.00121">
        <ele>700.6</ele>
        <time>2023-06-25T11:20:00Z</time>
      </trkpt>
      <trkpt lat="44.30786" lon="3.00124">
        <ele>700.4</ele>
        <time>2023-06-25T11:20:01Z</time>
      </trkpt>
      <trkpt lat="44.30789" lon="3.00127">
        <ele>700</ele>
        <time>2023-06-25T11:20:02Z</time>
      </trkpt>
      <trkpt lat="44.30791" lon="3.00128">
        <ele>699.8</ele>
        <time>2023-06-25T11:20:03Z</time>
      </trkpt>
      <trkpt lat="44.30793" lon="3.00131">
        <ele>699.4</ele>
        <time>2023-06-25T11:20:04Z</time>
      </trkpt>
      <trkpt lat="44.30796" lon="3.00134">
        <ele>699.2</ele>
        <time>2023-06-25T11:20:05Z</time>
      </trkpt>
      <trkpt lat="44.30798" lon="3.00139">
        <ele>699.1</ele>
        <time>2023-06-25T11:20:06Z</time>
      </trkpt>
      <trkpt lat="44.30801" lon="3.00143">
        <ele>698.9</ele>
        <time>2023-06-25T11:20:07Z</time>
      </trkpt>
      <trkpt lat="44.30803" lon="3.00149">
        <ele>698.8</ele>
        <time>2023-06-25T11:20:08Z</time>
      </trkpt>
      <trkpt lat="44.30805" lon="3.00154">
        <ele>698.6</ele>
        <time>2023-06-25T11:20:09Z</time>
      </trkpt>
      <trkpt lat="44.30807" lon="3.00163">
        <ele>698.3</ele>
        <time>2023-06-25T11:20:10Z</time>
      </trkpt>
      <trkpt lat="44.3081" lon="3.0017">
        <ele>698.1</ele>
        <time>2023-06-25T11:20:11Z</time>
      </trkpt>
      <trkpt lat="44.30813" lon="3.00177">
        <ele>698</ele>
        <time>2023-06-25T11:20:12Z</time>
      </trkpt>
      <trkpt lat="44.30814" lon="3.00184">
        <ele>697.8</ele>
        <time>2023-06-25T11:20:13Z</time>
      </trkpt>
      <trkpt lat="44.30814" lon="3.0019">
        <ele>697.7</ele>
        <time>2023-06-25T11:20:14Z</time>
      </trkpt>
      <trkpt lat="44.30816" lon="3.00197">
        <ele>697.5</ele>
        <time>2023-06-25T11:20:15Z</time>
      </trkpt>
      <trkpt lat="44.30816" lon="3.002">
        <ele>697.4</ele>
        <time>2023-06-25T11:20:16Z</time>
      </trkpt>
      <trkpt lat="44.30818" lon="3.00206">
        <ele>697.2</ele>
        <time>2023-06-25T11:20:17Z</time>
      </trkpt>
      <trkpt lat="44.3082" lon="3.00211">
        <ele>697.1</ele>
        <time>2023-06-25T11:20:18Z</time>
      </trkpt>
      <trkpt lat="44.30822" lon="3.00215">
        <ele>697</ele>
        <time>2023-06-25T11:20:19Z</time>
      </trkpt>
      <trkpt lat="44.30824" lon="3.0022">
        <ele>696.9</ele>
        <time>2023-06-25T11:20:20Z</time>
      </trkpt>
      <trkpt lat="44.30826" lon="3.00226">
        <ele>696.8</ele>
        <time>2023-06-25T11:20:21Z</time>
      </trkpt>
      <trkpt lat="44.30829" lon="3.00232">
        <ele>696.7</ele>
        <time>2023-06-25T11:20:22Z</time>
      </trkpt>
      <trkpt lat="44.30831" lon="3.00237">
        <ele>696.5</ele>
        <time>2023-06-25T11:20:23Z</time>
      </trkpt>
      <trkpt lat="44.30833" lon="3.00241">
        <ele>696.4</ele>
        <time>2023-06-25T11:20:24Z</time>
      </trkpt>
      <trkpt lat="44.30836" lon="3.00245">
        <ele>696.3</ele>
        <time>2023-06-25T11:20:25Z</time>
      </trkpt>
      <trkpt lat="44.30838" lon="3.00249">
        <ele>696.2</ele>
        <time>2023-06-25T11:20:26Z</time>
      </trkpt>
      <trkpt lat="44.30841" lon="3.00254">
        <ele>696.1</ele>
        <time>2023-06-25T11:20:27Z</time>
      </trkpt>
      <trkpt lat="44.30842" lon="3.00259">
        <ele>696.1</ele>
        <time>2023-06-25T11:20:28Z</time>
      </trkpt>
      <trkpt lat="44.30845" lon="3.00265">
        <ele>696</ele>
        <time>2023-06-25T11:20:29Z</time>
      </trkpt>
      <trkpt lat="44.30847" lon="3.00268">
        <ele>696</ele>
        <time>2023-06-25T11:20:30Z</time>
      </trkpt>
      <trkpt lat="44.3085" lon="3.00273">
        <ele>695.9</ele>
        <time>2023-06-25T11:20:31Z</time>
      </trkpt>
      <trkpt lat="44.30853" lon="3.00278">
        <ele>695.7</ele>
        <time>2023-06-25T11:20:32Z</time>
      </trkpt>
      <trkpt lat="44.30857" lon="3.00284">
        <ele>695.6</ele>
        <time>2023-06-25T11:20:33Z</time>
      </trkpt>
      <trkpt lat="44.3086" lon="3.0029">
        <ele>695.4</ele>
        <time>2023-06-25T11:20:34Z</time>
      </trkpt>
      <trkpt lat="44.30864" lon="3.00296">
        <ele>695.3</ele>
        <time>2023-06-25T11:20:35Z</time>
      </trkpt>
      <trkpt lat="44.30868" lon="3.00302">
        <ele>695.2</ele>
        <time>2023-06-25T11:20:36Z</time>
      </trkpt>
      <trkpt lat="44.30873" lon="3.00308">
        <ele>695</ele>
        <time>2023-06-25T11:20:37Z</time>
      </trkpt>
      <trkpt lat="44.30878" lon="3.00314">
        <ele>694.9</ele>
        <time>2023-06-25T11:20:38Z</time>
      </trkpt>
      <trkpt lat="44.30881" lon="3.00321">
        <ele>694.8</ele>
        <time>2023-06-25T11:20:39Z</time>
      </trkpt>
      <trkpt lat="44.30884" lon="3.00328">
        <ele>694.7</ele>
        <time>2023-06-25T11:20:40Z</time>
      </trkpt>
      <trkpt lat="44.30887" lon="3.00334">
        <ele>694.7</ele>
        <time>2023-06-25T11:20:41Z</time>
      </trkpt>
      <trkpt lat="44.30889" lon="3.0034">
        <ele>694.7</ele>
        <time>2023-06-25T11:20:42Z</time>
      </trkpt>
      <trkpt lat="44.30891" lon="3.00345">
        <ele>694.7</ele>
        <time>2023-06-25T11:20:44Z</time>
      </trkpt>
      <trkpt lat="44.30893" lon="3.00347">
        <ele>694.7</ele>
        <time>2023-06-25T11:20:45Z</time>
      </trkpt>
      <trkpt lat="44.30894" lon="3.00347">
        <ele>694.7</ele>
        <time>2023-06-25T11:20:46Z</time>
      </trkpt>
      <trkpt lat="44.30893" lon="3.00343">
        <ele>694.7</ele>
        <time>2023-06-25T11:20:48Z</time>
      </trkpt>
      <trkpt lat="44.30892" lon="3.00342">
        <ele>694.7</ele>
        <time>2023-06-25T11:20:49Z</time>
      </trkpt>
      <trkpt lat="44.30891" lon="3.00342">
        <ele>694.7</ele>
        <time>2023-06-25T11:20:51Z</time>
      </trkpt>
      <trkpt lat="44.30891" lon="3.00342">
        <ele>694.7</ele>
        <time>2023-06-25T11:20:52Z</time>
      </trkpt>
      <trkpt lat="44.3089" lon="3.00341">
        <ele>694.8</ele>
        <time>2023-06-25T11:20:54Z</time>
      </trkpt>
      <trkpt lat="44.3089" lon="3.00341">
        <ele>694.8</ele>
        <time>2023-06-25T11:20:55Z</time>
      </trkpt>
      <trkpt lat="44.30889" lon="3.00341">
        <ele>694.8</ele>
        <time>2023-06-25T11:20:57Z</time>
      </trkpt>
      <trkpt lat="44.30888" lon="3.0034">
        <ele>694.8</ele>
        <time>2023-06-25T11:20:58Z</time>
      </trkpt>
      <trkpt lat="44.30888" lon="3.0034">
        <ele>694.8</ele>
        <time>2023-06-25T11:21:00Z</time>
      </trkpt>
      <trkpt lat="44.30887" lon="3.0034">
        <ele>694.8</ele>
        <time>2023-06-25T11:21:01Z</time>
      </trkpt>
      <trkpt lat="44.30886" lon="3.00339">
        <ele>694.8</ele>
        <time>2023-06-25T11:21:03Z</time>
      </trkpt>
      <trkpt lat="44.30886" lon="3.00339">
        <ele>694.8</ele>
        <time>2023-06-25T11:21:15Z</time>
      </trkpt>
      <trkpt lat="44.30885" lon="3.00339">
        <ele>694.8</ele>
        <time>2023-06-25T11:21:16Z</time>
      </trkpt>
      <trkpt lat="44.30884" lon="3.00338">
        <ele>694.8</ele>
        <time>2023-06-25T11:21:17Z</time>
      </trkpt>
      <trkpt lat="44.30883" lon="3.00334">
        <ele>694.8</ele>
        <time>2023-06-25T11:21:18Z</time>
      </trkpt>
      <trkpt lat="44.30883" lon="3.00333">
        <ele>694.8</ele>
        <time>2023-06-25T11:21:19Z</time>
      </trkpt>
      <trkpt lat="44.30882" lon="3.00328">
        <ele>694.8</ele>
        <time>2023-06-25T11:21:20Z</time>
      </trkpt>
      <trkpt lat="44.30881" lon="3.00324">
        <ele>694.9</ele>
        <time>2023-06-25T11:21:21Z</time>
      </trkpt>
      <trkpt lat="44.30877" lon="3.00316">
        <ele>694.9</ele>
        <time>2023-06-25T11:21:23Z</time>
      </trkpt>
      <trkpt lat="44.30874" lon="3.00311">
        <ele>694.9</ele>
        <time>2023-06-25T11:21:24Z</time>
      </trkpt>
      <trkpt lat="44.30871" lon="3.00307">
        <ele>695</ele>
        <time>2023-06-25T11:21:25Z</time>
      </trkpt>
      <trkpt lat="44.30866" lon="3.00301">
        <ele>695.2</ele>
        <time>2023-06-25T11:21:27Z</time>
      </trkpt>
      <trkpt lat="44.30863" lon="3.00297">
        <ele>695.3</ele>
        <time>2023-06-25T11:21:28Z</time>
      </trkpt>
      <trkpt lat="44.30859" lon="3.00292">
        <ele>695.4</ele>
        <time>2023-06-25T11:21:30Z</time>
      </trkpt>
      <trkpt lat="44.30856" lon="3.00289">
        <ele>695.5</ele>
        <time>2023-06-25T11:21:31Z</time>
      </trkpt>
      <trkpt lat="44.30853" lon="3.00285">
        <ele>695.6</ele>
        <time>2023-06-25T11:21:33Z</time>
      </trkpt>
      <trkpt lat="44.30849" lon="3.00281">
        <ele>695.8</ele>
        <time>2023-06-25T11:21:34Z</time>
      </trkpt>
      <trkpt lat="44.30843" lon="3.00273">
        <ele>696</ele>
        <time>2023-06-25T11:21:36Z</time>
      </trkpt>
      <trkpt lat="44.3084" lon="3.00269">
        <ele>696</ele>
        <time>2023-06-25T11:21:37Z</time>
      </trkpt>
      <trkpt lat="44.30839" lon="3.00263">
        <ele>696.1</ele>
        <time>2023-06-25T11:21:38Z</time>
      </trkpt>
      <trkpt lat="44.30839" lon="3.00259">
        <ele>696.1</ele>
        <time>2023-06-25T11:21:39Z</time>
      </trkpt>
      <trkpt lat="44.30841" lon="3.00255">
        <ele>696.2</ele>
        <time>2023-06-25T11:21:41Z</time>
      </trkpt>
      <trkpt lat="44.30843" lon="3.0025">
        <ele>696.3</ele>
        <time>2023-06-25T11:21:42Z</time>
      </trkpt>
      <trkpt lat="44.30845" lon="3.00247">
        <ele>696.4</ele>
        <time>2023-06-25T11:21:43Z</time>
      </trkpt>
      <trkpt lat="44.30847" lon="3.00244">
        <ele>696.4</ele>
        <time>2023-06-25T11:21:44Z</time>
      </trkpt>
      <trkpt lat="44.30849" lon="3.00238">
        <ele>696.5</ele>
        <time>2023-06-25T11:21:46Z</time>
      </trkpt>
      <trkpt lat="44.30849" lon="3.00234">
        <ele>696.6</ele>
        <time>2023-06-25T11:21:47Z</time>
      </trkpt>
      <trkpt lat="44.30846" lon="3.00227">
        <ele>696.7</ele>
        <time>2023-06-25T11:21:49Z</time>
      </trkpt>
      <trkpt lat="44.30842" lon="3.00227">
        <ele>696.8</ele>
        <time>2023-06-25T11:21:50Z</time>
      </trkpt>
      <trkpt lat="44.30837" lon="3.00225">
        <ele>696.9</ele>
        <time>2023-06-25T11:21:52Z</time>
      </trkpt>
      <trkpt lat="44.30834" lon="3.00221">
        <ele>696.9</ele>
        <time>2023-06-25T11:21:53Z</time>
      </trkpt>
      <trkpt lat="44.30833" lon="3.0022">
        <ele>696.9</ele>
        <time>2023-06-25T11:21:54Z</time>
      </trkpt>
      <trkpt lat="44.30833" lon="3.00214">
        <ele>697</ele>
        <time>2023-06-25T11:21:56Z</time>
      </trkpt>
      <trkpt lat="44.30833" lon="3.00209">
        <ele>697.1</ele>
        <time>2023-06-25T11:21:57Z</time>
      </trkpt>
      <trkpt lat="44.30833" lon="3.00207">
        <ele>697.1</ele>
        <time>2023-06-25T11:21:58Z</time>
      </trkpt>
      <trkpt lat="44.30832" lon="3.00203">
        <ele>697.1</ele>
        <time>2023-06-25T11:22:00Z</time>
      </trkpt>
      <trkpt lat="44.30832" lon="3.00201">
        <ele>697</ele>
        <time>2023-06-25T11:22:01Z</time>
      </trkpt>
      <trkpt lat="44.30832" lon="3.002">
        <ele>697</ele>
        <time>2023-06-25T11:22:03Z</time>
      </trkpt>
      <trkpt lat="44.30832" lon="3.00199">
        <ele>697</ele>
        <time>2023-06-25T11:22:04Z</time>
      </trkpt>
      <trkpt lat="44.30833" lon="3.002">
        <ele>697</ele>
        <time>2023-06-25T11:22:05Z</time>
      </trkpt>
      <trkpt lat="44.30833" lon="3.00202">
        <ele>697</ele>
        <time>2023-06-25T11:22:07Z</time>
      </trkpt>
      <trkpt lat="44.30833" lon="3.00203">
        <ele>697</ele>
        <time>2023-06-25T11:22:08Z</time>
      </trkpt>
      <trkpt lat="44.30833" lon="3.00203">
        <ele>697</ele>
        <time>2023-06-25T11:22:09Z</time>
      </trkpt>
      <trkpt lat="44.30833" lon="3.00203">
        <ele>697</ele>
        <time>2023-06-25T11:22:10Z</time>
      </trkpt>
      <trkpt lat="44.30834" lon="3.00203">
        <ele>697</ele>
        <time>2023-06-25T11:22:12Z</time>
      </trkpt>
      <trkpt lat="44.30834" lon="3.00203">
        <ele>697</ele>
        <time>2023-06-25T11:22:30Z</time>
      </trkpt>
      <trkpt lat="44.30834" lon="3.00203">
        <ele>697</ele>
        <time>2023-06-25T11:22:32Z</time>
      </trkpt>
      <trkpt lat="44.30834" lon="3.00203">
        <ele>696.9</ele>
        <time>2023-06-25T11:22:34Z</time>
      </trkpt>
      <trkpt lat="44.30834" lon="3.00203">
        <ele>696.9</ele>
        <time>2023-06-25T11:22:35Z</time>
      </trkpt>
      <trkpt lat="44.30834" lon="3.00203">
        <ele>696.9</ele>
        <time>2023-06-25T11:22:36Z</time>
      </trkpt>
      <trkpt lat="44.30834" lon="3.00203">
        <ele>696.9</ele>
        <time>2023-06-25T11:22:37Z</time>
      </trkpt>
      <trkpt lat="44.30834" lon="3.00204">
        <ele>696.9</ele>
        <time>2023-06-25T11:22:39Z</time>
      </trkpt>
      <trkpt lat="44.30835" lon="3.00204">
        <ele>696.9</ele>
        <time>2023-06-25T11:22:40Z</time>
      </trkpt>
      <trkpt lat="44.30835" lon="3.00204">
        <ele>696.9</ele>
        <time>2023-06-25T11:22:42Z</time>
      </trkpt>
      <trkpt lat="44.30835" lon="3.00204">
        <ele>696.9</ele>
        <time>2023-06-25T11:22:43Z</time>
      </trkpt>
      <trkpt lat="44.30835" lon="3.00204">
        <ele>696.9</ele>
        <time>2023-06-25T11:22:45Z</time>
      </trkpt>
      <trkpt lat="44.30835" lon="3.00204">
        <ele>696.9</ele>
        <time>2023-06-25T11:22:46Z</time>
      </trkpt>
      <trkpt lat="44.30835" lon="3.00204">
        <ele>696.9</ele>
        <time>2023-06-25T11:22:47Z</time>
      </trkpt>
      <trkpt lat="44.30835" lon="3.00204">
        <ele>696.9</ele>
        <time>2023-06-25T11:22:49Z</time>
      </trkpt>
      <trkpt lat="44.30836" lon="3.00204">
        <ele>696.9</ele>
        <time>2023-06-25T11:22:50Z</time>
      </trkpt>
      <trkpt lat="44.30836" lon="3.00204">
        <ele>696.9</ele>
        <time>2023-06-25T11:22:52Z</time>
      </trkpt>
      <trkpt lat="44.30836" lon="3.00204">
        <ele>696.9</ele>
        <time>2023-06-25T11:22:53Z</time>
      </trkpt>
      <trkpt lat="44.30836" lon="3.00205">
        <ele>696.9</ele>
        <time>2023-06-25T11:22:54Z</time>
      </trkpt>
      <trkpt lat="44.30836" lon="3.00205">
        <ele>696.9</ele>
        <time>2023-06-25T11:22:55Z</time>
      </trkpt>
      <trkpt lat="44.30836" lon="3.00205">
        <ele>696.9</ele>
        <time>2023-06-25T11:22:57Z</time>
      </trkpt>
      <trkpt lat="44.30836" lon="3.00205">
        <ele>696.9</ele>
        <time>2023-06-25T11:22:58Z</time>
      </trkpt>
      <trkpt lat="44.30837" lon="3.00205">
        <ele>696.9</ele>
        <time>2023-06-25T11:22:59Z</time>
      </trkpt>
      <trkpt lat="44.30837" lon="3.00205">
        <ele>696.9</ele>
        <time>2023-06-25T11:23:00Z</time>
      </trkpt>
      <trkpt lat="44.30837" lon="3.00205">
        <ele>696.9</ele>
        <time>2023-06-25T11:23:01Z</time>
      </trkpt>
      <trkpt lat="44.30837" lon="3.00205">
        <ele>696.9</ele>
        <time>2023-06-25T11:23:03Z</time>
      </trkpt>
      <trkpt lat="44.30837" lon="3.00205">
        <ele>696.9</ele>
        <time>2023-06-25T11:23:06Z</time>
      </trkpt>
      <trkpt lat="44.30837" lon="3.00205">
        <ele>696.9</ele>
        <time>2023-06-25T11:23:08Z</time>
      </trkpt>
      <trkpt lat="44.30837" lon="3.00205">
        <ele>696.9</ele>
        <time>2023-06-25T11:23:10Z</time>
      </trkpt>
      <trkpt lat="44.30837" lon="3.00205">
        <ele>696.9</ele>
        <time>2023-06-25T11:23:11Z</time>
      </trkpt>
      <trkpt lat="44.30838" lon="3.00206">
        <ele>696.9</ele>
        <time>2023-06-25T11:23:12Z</time>
      </trkpt>
      <trkpt lat="44.30838" lon="3.00206">
        <ele>696.9</ele>
        <time>2023-06-25T11:23:14Z</time>
      </trkpt>
      <trkpt lat="44.30838" lon="3.00206">
        <ele>696.9</ele>
        <time>2023-06-25T11:23:15Z</time>
      </trkpt>
      <trkpt lat="44.30838" lon="3.00206">
        <ele>696.9</ele>
        <time>2023-06-25T11:23:16Z</time>
      </trkpt>
      <trkpt lat="44.30838" lon="3.00206">
        <ele>696.9</ele>
        <time>2023-06-25T11:23:17Z</time>
      </trkpt>
      <trkpt lat="44.30838" lon="3.00206">
        <ele>696.9</ele>
        <time>2023-06-25T11:23:18Z</time>
      </trkpt>
      <trkpt lat="44.30838" lon="3.00206">
        <ele>696.9</ele>
        <time>2023-06-25T11:23:19Z</time>
      </trkpt>
      <trkpt lat="44.30839" lon="3.00206">
        <ele>696.9</ele>
        <time>2023-06-25T11:23:21Z</time>
      </trkpt>
      <trkpt lat="44.30839" lon="3.00206">
        <ele>696.9</ele>
        <time>2023-06-25T11:23:22Z</time>
      </trkpt>
      <trkpt lat="44.30839" lon="3.00206">
        <ele>696.9</ele>
        <time>2023-06-25T11:23:24Z</time>
      </trkpt>
      <trkpt lat="44.30839" lon="3.00206">
        <ele>696.9</ele>
        <time>2023-06-25T11:23:25Z</time>
      </trkpt>
      <trkpt lat="44.30839" lon="3.00206">
        <ele>696.9</ele>
        <time>2023-06-25T11:23:27Z</time>
      </trkpt>
      <trkpt lat="44.30839" lon="3.00207">
        <ele>696.9</ele>
        <time>2023-06-25T11:23:28Z</time>
      </trkpt>
      <trkpt lat="44.3084" lon="3.00209">
        <ele>696.8</ele>
        <time>2023-06-25T11:23:29Z</time>
      </trkpt>
      <trkpt lat="44.30842" lon="3.00214">
        <ele>696.8</ele>
        <time>2023-06-25T11:23:31Z</time>
      </trkpt>
      <trkpt lat="44.30844" lon="3.00217">
        <ele>696.7</ele>
        <time>2023-06-25T11:23:32Z</time>
      </trkpt>
      <trkpt lat="44.30847" lon="3.0022">
        <ele>696.7</ele>
        <time>2023-06-25T11:23:34Z</time>
      </trkpt>
      <trkpt lat="44.30848" lon="3.00223">
        <ele>696.6</ele>
        <time>2023-06-25T11:23:35Z</time>
      </trkpt>
      <trkpt lat="44.3085" lon="3.00229">
        <ele>696.6</ele>
        <time>2023-06-25T11:23:37Z</time>
      </trkpt>
      <trkpt lat="44.3085" lon="3.00234">
        <ele>696.5</ele>
        <time>2023-06-25T11:23:38Z</time>
      </trkpt>
      <trkpt lat="44.30849" lon="3.0024">
        <ele>696.5</ele>
        <time>2023-06-25T11:23:39Z</time>
      </trkpt>
      <trkpt lat="44.30846" lon="3.00246">
        <ele>696.4</ele>
        <time>2023-06-25T11:23:41Z</time>
      </trkpt>
      <trkpt lat="44.30844" lon="3.00253">
        <ele>696.3</ele>
        <time>2023-06-25T11:23:42Z</time>
      </trkpt>
      <trkpt lat="44.30843" lon="3.00257">
        <ele>696.1</ele>
        <time>2023-06-25T11:23:43Z</time>
      </trkpt>
      <trkpt lat="44.30842" lon="3.00261">
        <ele>696</ele>
        <time>2023-06-25T11:23:44Z</time>
      </trkpt>
      <trkpt lat="44.30843" lon="3.00266">
        <ele>696</ele>
        <time>2023-06-25T11:23:45Z</time>
      </trkpt>
      <trkpt lat="44.30846" lon="3.00272">
        <ele>695.9</ele>
        <time>2023-06-25T11:23:47Z</time>
      </trkpt>
      <trkpt lat="44.30848" lon="3.00275">
        <ele>695.9</ele>
        <time>2023-06-25T11:23:48Z</time>
      </trkpt>
      <trkpt lat="44.30853" lon="3.00282">
        <ele>695.7</ele>
        <time>2023-06-25T11:23:50Z</time>
      </trkpt>
      <trkpt lat="44.30856" lon="3.00285">
        <ele>695.6</ele>
        <time>2023-06-25T11:23:51Z</time>
      </trkpt>
      <trkpt lat="44.30863" lon="3.00291">
        <ele>695.4</ele>
        <time>2023-06-25T11:23:53Z</time>
      </trkpt>
      <trkpt lat="44.30872" lon="3.003">
        <ele>695.1</ele>
        <time>2023-06-25T11:23:54Z</time>
      </trkpt>
      <trkpt lat="44.30877" lon="3.00305">
        <ele>695</ele>
        <time>2023-06-25T11:23:55Z</time>
      </trkpt>
      <trkpt lat="44.30881" lon="3.00311">
        <ele>694.8</ele>
        <time>2023-06-25T11:23:56Z</time>
      </trkpt>
      <trkpt lat="44.30885" lon="3.00317">
        <ele>694.7</ele>
        <time>2023-06-25T11:23:57Z</time>
      </trkpt>
      <trkpt lat="44.30889" lon="3.00322">
        <ele>694.6</ele>
        <time>2023-06-25T11:23:58Z</time>
      </trkpt>
      <trkpt lat="44.30893" lon="3.00326">
        <ele>694.5</ele>
        <time>2023-06-25T11:23:59Z</time>
      </trkpt>
      <trkpt lat="44.30898" lon="3.00331">
        <ele>694.4</ele>
        <time>2023-06-25T11:24:00Z</time>
      </trkpt>
      <trkpt lat="44.30902" lon="3.00336">
        <ele>694.3</ele>
        <time>2023-06-25T11:24:01Z</time>
      </trkpt>
      <trkpt lat="44.30907" lon="3.00341">
        <ele>694.1</ele>
        <time>2023-06-25T11:24:02Z</time>
      </trkpt>
      <trkpt lat="44.30912" lon="3.00347">
        <ele>693.9</ele>
        <time>2023-06-25T11:24:03Z</time>
      </trkpt>
      <trkpt lat="44.30916" lon="3.00352">
        <ele>693.7</ele>
        <time>2023-06-25T11:24:04Z</time>
      </trkpt>
      <trkpt lat="44.30921" lon="3.00357">
        <ele>693.5</ele>
        <time>2023-06-25T11:24:05Z</time>
      </trkpt>
      <trkpt lat="44.30925" lon="3.00361">
        <ele>693.4</ele>
        <time>2023-06-25T11:24:06Z</time>
      </trkpt>
      <trkpt lat="44.3093" lon="3.00365">
        <ele>693.2</ele>
        <time>2023-06-25T11:24:07Z</time>
      </trkpt>
      <trkpt lat="44.30935" lon="3.00371">
        <ele>693</ele>
        <time>2023-06-25T11:24:08Z</time>
      </trkpt>
      <trkpt lat="44.30939" lon="3.00377">
        <ele>692.8</ele>
        <time>2023-06-25T11:24:09Z</time>
      </trkpt>
      <trkpt lat="44.30944" lon="3.00382">
        <ele>692.6</ele>
        <time>2023-06-25T11:24:10Z</time>
      </trkpt>
      <trkpt lat="44.30948" lon="3.00387">
        <ele>692.4</ele>
        <time>2023-06-25T11:24:11Z</time>
      </trkpt>
      <trkpt lat="44.30953" lon="3.00392">
        <ele>692.3</ele>
        <time>2023-06-25T11:24:12Z</time>
      </trkpt>
      <trkpt lat="44.30957" lon="3.00396">
        <ele>692.2</ele>
        <time>2023-06-25T11:24:13Z</time>
      </trkpt>
      <trkpt lat="44.30962" lon="3.004">
        <ele>692.1</ele>
        <time>2023-06-25T11:24:14Z</time>
      </trkpt>
      <trkpt lat="44.30966" lon="3.00404">
        <ele>691.9</ele>
        <time>2023-06-25T11:24:15Z</time>
      </trkpt>
      <trkpt lat="44.30971" lon="3.0041">
        <ele>691.8</ele>
        <time>2023-06-25T11:24:16Z</time>
      </trkpt>
      <trkpt lat="44.30975" lon="3.00415">
        <ele>691.6</ele>
        <time>2023-06-25T11:24:17Z</time>
      </trkpt>
      <trkpt lat="44.3098" lon="3.0042">
        <ele>691.5</ele>
        <time>2023-06-25T11:24:18Z</time>
      </trkpt>
      <trkpt lat="44.30985" lon="3.00426">
        <ele>691.3</ele>
        <time>2023-06-25T11:24:19Z</time>
      </trkpt>
      <trkpt lat="44.3099" lon="3.0043">
        <ele>691.2</ele>
        <time>2023-06-25T11:24:20Z</time>
      </trkpt>
      <trkpt lat="44.30994" lon="3.00434">
        <ele>691.1</ele>
        <time>2023-06-25T11:24:21Z</time>
      </trkpt>
      <trkpt lat="44.30998" lon="3.00438">
        <ele>690.9</ele>
        <time>2023-06-25T11:24:22Z</time>
      </trkpt>
      <trkpt lat="44.31003" lon="3.00441">
        <ele>690.8</ele>
        <time>2023-06-25T11:24:23Z</time>
      </trkpt>
      <trkpt lat="44.31008" lon="3.00444">
        <ele>690.6</ele>
        <time>2023-06-25T11:24:24Z</time>
      </trkpt>
      <trkpt lat="44.31014" lon="3.00447">
        <ele>690.4</ele>
        <time>2023-06-25T11:24:25Z</time>
      </trkpt>
      <trkpt lat="44.3102" lon="3.00451">
        <ele>690.2</ele>
        <time>2023-06-25T11:24:26Z</time>
      </trkpt>
      <trkpt lat="44.31026" lon="3.00455">
        <ele>690</ele>
        <time>2023-06-25T11:24:27Z</time>
      </trkpt>
      <trkpt lat="44.31032" lon="3.00461">
        <ele>689.8</ele>
        <time>2023-06-25T11:24:28Z</time>
      </trkpt>
      <trkpt lat="44.31038" lon="3.00465">
        <ele>689.7</ele>
        <time>2023-06-25T11:24:29Z</time>
      </trkpt>
      <trkpt lat="44.31045" lon="3.0047">
        <ele>689.5</ele>
        <time>2023-06-25T11:24:30Z</time>
      </trkpt>
      <trkpt lat="44.31051" lon="3.00473">
        <ele>689.4</ele>
        <time>2023-06-25T11:24:31Z</time>
      </trkpt>
      <trkpt lat="44.31058" lon="3.00476">
        <ele>689.3</ele>
        <time>2023-06-25T11:24:32Z</time>
      </trkpt>
      <trkpt lat="44.31065" lon="3.00478">
        <ele>689.2</ele>
        <time>2023-06-25T11:24:33Z</time>
      </trkpt>
      <trkpt lat="44.31072" lon="3.0048">
        <ele>689.1</ele>
        <time>2023-06-25T11:24:34Z</time>
      </trkpt>
      <trkpt lat="44.31078" lon="3.00482">
        <ele>689</ele>
        <time>2023-06-25T11:24:35Z</time>
      </trkpt>
      <trkpt lat="44.31084" lon="3.00483">
        <ele>688.9</ele>
        <time>2023-06-25T11:24:36Z</time>
      </trkpt>
      <trkpt lat="44.31091" lon="3.00485">
        <ele>688.8</ele>
        <time>2023-06-25T11:24:37Z</time>
      </trkpt>
      <trkpt lat="44.31097" lon="3.00486">
        <ele>688.7</ele>
        <time>2023-06-25T11:24:38Z</time>
      </trkpt>
      <trkpt lat="44.31103" lon="3.00487">
        <ele>688.6</ele>
        <time>2023-06-25T11:24:39Z</time>
      </trkpt>
      <trkpt lat="44.31109" lon="3.00489">
        <ele>688.4</ele>
        <time>2023-06-25T11:24:40Z</time>
      </trkpt>
      <trkpt lat="44.31116" lon="3.00493">
        <ele>688.3</ele>
        <time>2023-06-25T11:24:41Z</time>
      </trkpt>
      <trkpt lat="44.31122" lon="3.00497">
        <ele>688.1</ele>
        <time>2023-06-25T11:24:42Z</time>
      </trkpt>
      <trkpt lat="44.31128" lon="3.005">
        <ele>687.9</ele>
        <time>2023-06-25T11:24:43Z</time>
      </trkpt>
      <trkpt lat="44.31134" lon="3.00504">
        <ele>687.7</ele>
        <time>2023-06-25T11:24:44Z</time>
      </trkpt>
      <trkpt lat="44.3114" lon="3.00508">
        <ele>687.5</ele>
        <time>2023-06-25T11:24:45Z</time>
      </trkpt>
      <trkpt lat="44.31147" lon="3.00511">
        <ele>687.4</ele>
        <time>2023-06-25T11:24:46Z</time>
      </trkpt>
      <trkpt lat="44.31153" lon="3.00514">
        <ele>687.2</ele>
        <time>2023-06-25T11:24:47Z</time>
      </trkpt>
      <trkpt lat="44.3116" lon="3.00517">
        <ele>687</ele>
        <time>2023-06-25T11:24:48Z</time>
      </trkpt>
      <trkpt lat="44.31166" lon="3.00521">
        <ele>686.8</ele>
        <time>2023-06-25T11:24:49Z</time>
      </trkpt>
      <trkpt lat="44.31171" lon="3.00525">
        <ele>686.6</ele>
        <time>2023-06-25T11:24:50Z</time>
      </trkpt>
      <trkpt lat="44.31176" lon="3.0053">
        <ele>686.5</ele>
        <time>2023-06-25T11:24:51Z</time>
      </trkpt>
      <trkpt lat="44.31179" lon="3.00533">
        <ele>686.3</ele>
        <time>2023-06-25T11:24:52Z</time>
      </trkpt>
      <trkpt lat="44.31181" lon="3.00531">
        <ele>685.9</ele>
        <time>2023-06-25T11:24:53Z</time>
      </trkpt>
      <trkpt lat="44.31181" lon="3.0053">
        <ele>685.8</ele>
        <time>2023-06-25T11:24:54Z</time>
      </trkpt>
      <trkpt lat="44.31182" lon="3.00529">
        <ele>685.8</ele>
        <time>2023-06-25T11:24:55Z</time>
      </trkpt>
      <trkpt lat="44.31183" lon="3.00525">
        <ele>685.6</ele>
        <time>2023-06-25T11:24:56Z</time>
      </trkpt>
      <trkpt lat="44.31184" lon="3.00524">
        <ele>685.5</ele>
        <time>2023-06-25T11:24:57Z</time>
      </trkpt>
      <trkpt lat="44.31185" lon="3.00524">
        <ele>685.5</ele>
        <time>2023-06-25T11:24:58Z</time>
      </trkpt>
      <trkpt lat="44.31187" lon="3.00523">
        <ele>685.4</ele>
        <time>2023-06-25T11:24:59Z</time>
      </trkpt>
      <trkpt lat="44.3119" lon="3.00526">
        <ele>685.2</ele>
        <time>2023-06-25T11:25:01Z</time>
      </trkpt>
      <trkpt lat="44.31196" lon="3.00527">
        <ele>684.9</ele>
        <time>2023-06-25T11:25:02Z</time>
      </trkpt>
      <trkpt lat="44.31203" lon="3.00532">
        <ele>684.6</ele>
        <time>2023-06-25T11:25:03Z</time>
      </trkpt>
      <trkpt lat="44.31206" lon="3.00533">
        <ele>684.5</ele>
        <time>2023-06-25T11:25:04Z</time>
      </trkpt>
      <trkpt lat="44.31211" lon="3.00534">
        <ele>684.3</ele>
        <time>2023-06-25T11:25:06Z</time>
      </trkpt>
      <trkpt lat="44.31218" lon="3.00537">
        <ele>684</ele>
        <time>2023-06-25T11:25:07Z</time>
      </trkpt>
      <trkpt lat="44.31224" lon="3.0054">
        <ele>683.8</ele>
        <time>2023-06-25T11:25:08Z</time>
      </trkpt>
      <trkpt lat="44.31229" lon="3.00543">
        <ele>683.6</ele>
        <time>2023-06-25T11:25:09Z</time>
      </trkpt>
      <trkpt lat="44.31235" lon="3.00546">
        <ele>683.4</ele>
        <time>2023-06-25T11:25:10Z</time>
      </trkpt>
      <trkpt lat="44.3124" lon="3.00549">
        <ele>683.2</ele>
        <time>2023-06-25T11:25:11Z</time>
      </trkpt>
      <trkpt lat="44.31245" lon="3.00551">
        <ele>683</ele>
        <time>2023-06-25T11:25:12Z</time>
      </trkpt>
      <trkpt lat="44.3125" lon="3.00553">
        <ele>682.8</ele>
        <time>2023-06-25T11:25:13Z</time>
      </trkpt>
      <trkpt lat="44.31255" lon="3.00555">
        <ele>682.7</ele>
        <time>2023-06-25T11:25:14Z</time>
      </trkpt>
      <trkpt lat="44.31261" lon="3.00557">
        <ele>682.6</ele>
        <time>2023-06-25T11:25:15Z</time>
      </trkpt>
      <trkpt lat="44.31266" lon="3.0056">
        <ele>682.4</ele>
        <time>2023-06-25T11:25:16Z</time>
      </trkpt>
      <trkpt lat="44.31271" lon="3.00561">
        <ele>682.3</ele>
        <time>2023-06-25T11:25:17Z</time>
      </trkpt>
      <trkpt lat="44.31276" lon="3.00563">
        <ele>682.1</ele>
        <time>2023-06-25T11:25:18Z</time>
      </trkpt>
      <trkpt lat="44.3128" lon="3.00565">
        <ele>682</ele>
        <time>2023-06-25T11:25:19Z</time>
      </trkpt>
      <trkpt lat="44.31285" lon="3.00567">
        <ele>681.9</ele>
        <time>2023-06-25T11:25:20Z</time>
      </trkpt>
      <trkpt lat="44.3129" lon="3.00569">
        <ele>681.8</ele>
        <time>2023-06-25T11:25:21Z</time>
      </trkpt>
      <trkpt lat="44.31295" lon="3.00569">
        <ele>681.7</ele>
        <time>2023-06-25T11:25:22Z</time>
      </trkpt>
      <trkpt lat="44.313" lon="3.00569">
        <ele>681.6</ele>
        <time>2023-06-25T11:25:23Z</time>
      </trkpt>
      <trkpt lat="44.31304" lon="3.00568">
        <ele>681.5</ele>
        <time>2023-06-25T11:25:24Z</time>
      </trkpt>
      <trkpt lat="44.31309" lon="3.00569">
        <ele>681.3</ele>
        <time>2023-06-25T11:25:25Z</time>
      </trkpt>
      <trkpt lat="44.31313" lon="3.00569">
        <ele>681.2</ele>
        <time>2023-06-25T11:25:26Z</time>
      </trkpt>
      <trkpt lat="44.31318" lon="3.00569">
        <ele>681.1</ele>
        <time>2023-06-25T11:25:27Z</time>
      </trkpt>
      <trkpt lat="44.3132" lon="3.00569">
        <ele>681</ele>
        <time>2023-06-25T11:25:28Z</time>
      </trkpt>
      <trkpt lat="44.31325" lon="3.00569">
        <ele>680.9</ele>
        <time>2023-06-25T11:25:29Z</time>
      </trkpt>
      <trkpt lat="44.3133" lon="3.00569">
        <ele>680.8</ele>
        <time>2023-06-25T11:25:30Z</time>
      </trkpt>
      <trkpt lat="44.31333" lon="3.00569">
        <ele>680.7</ele>
        <time>2023-06-25T11:25:31Z</time>
      </trkpt>
      <trkpt lat="44.31337" lon="3.00569">
        <ele>680.6</ele>
        <time>2023-06-25T11:25:32Z</time>
      </trkpt>
      <trkpt lat="44.31343" lon="3.00568">
        <ele>680.5</ele>
        <time>2023-06-25T11:25:33Z</time>
      </trkpt>
      <trkpt lat="44.31346" lon="3.00567">
        <ele>680.4</ele>
        <time>2023-06-25T11:25:34Z</time>
      </trkpt>
      <trkpt lat="44.31352" lon="3.00566">
        <ele>680.3</ele>
        <time>2023-06-25T11:25:35Z</time>
      </trkpt>
      <trkpt lat="44.31357" lon="3.00565">
        <ele>680.2</ele>
        <time>2023-06-25T11:25:36Z</time>
      </trkpt>
      <trkpt lat="44.31361" lon="3.00564">
        <ele>680.1</ele>
        <time>2023-06-25T11:25:37Z</time>
      </trkpt>
      <trkpt lat="44.31365" lon="3.00562">
        <ele>680</ele>
        <time>2023-06-25T11:25:38Z</time>
      </trkpt>
      <trkpt lat="44.3137" lon="3.00559">
        <ele>680</ele>
        <time>2023-06-25T11:25:39Z</time>
      </trkpt>
      <trkpt lat="44.31374" lon="3.00557">
        <ele>679.9</ele>
        <time>2023-06-25T11:25:40Z</time>
      </trkpt>
      <trkpt lat="44.31379" lon="3.00553">
        <ele>679.9</ele>
        <time>2023-06-25T11:25:42Z</time>
      </trkpt>
      <trkpt lat="44.31381" lon="3.00553">
        <ele>679.9</ele>
        <time>2023-06-25T11:25:43Z</time>
      </trkpt>
      <trkpt lat="44.31386" lon="3.00552">
        <ele>679.8</ele>
        <time>2023-06-25T11:25:44Z</time>
      </trkpt>
      <trkpt lat="44.31387" lon="3.00552">
        <ele>679.8</ele>
        <time>2023-06-25T11:25:45Z</time>
      </trkpt>
      <trkpt lat="44.31389" lon="3.00552">
        <ele>679.7</ele>
        <time>2023-06-25T11:25:46Z</time>
      </trkpt>
      <trkpt lat="44.31391" lon="3.00555">
        <ele>679.7</ele>
        <time>2023-06-25T11:25:47Z</time>
      </trkpt>
      <trkpt lat="44.31395" lon="3.00557">
        <ele>679.6</ele>
        <time>2023-06-25T11:25:49Z</time>
      </trkpt>
      <trkpt lat="44.31399" lon="3.00559">
        <ele>679.5</ele>
        <time>2023-06-25T11:25:50Z</time>
      </trkpt>
      <trkpt lat="44.31404" lon="3.0056">
        <ele>679.4</ele>
        <time>2023-06-25T11:25:51Z</time>
      </trkpt>
      <trkpt lat="44.31412" lon="3.00563">
        <ele>679.2</ele>
        <time>2023-06-25T11:25:53Z</time>
      </trkpt>
      <trkpt lat="44.31418" lon="3.00563">
        <ele>679</ele>
        <time>2023-06-25T11:25:54Z</time>
      </trkpt>
      <trkpt lat="44.31425" lon="3.00563">
        <ele>678.8</ele>
        <time>2023-06-25T11:25:56Z</time>
      </trkpt>
      <trkpt lat="44.31432" lon="3.00561">
        <ele>678.6</ele>
        <time>2023-06-25T11:25:57Z</time>
      </trkpt>
      <trkpt lat="44.31437" lon="3.00561">
        <ele>678.5</ele>
        <time>2023-06-25T11:25:58Z</time>
      </trkpt>
      <trkpt lat="44.31442" lon="3.00562">
        <ele>678.4</ele>
        <time>2023-06-25T11:25:59Z</time>
      </trkpt>
      <trkpt lat="44.31447" lon="3.00562">
        <ele>678.3</ele>
        <time>2023-06-25T11:26:00Z</time>
      </trkpt>
      <trkpt lat="44.31452" lon="3.00562">
        <ele>678.2</ele>
        <time>2023-06-25T11:26:01Z</time>
      </trkpt>
      <trkpt lat="44.31458" lon="3.00562">
        <ele>678.1</ele>
        <time>2023-06-25T11:26:02Z</time>
      </trkpt>
      <trkpt lat="44.31463" lon="3.00562">
        <ele>678.1</ele>
        <time>2023-06-25T11:26:03Z</time>
      </trkpt>
      <trkpt lat="44.31468" lon="3.00562">
        <ele>678</ele>
        <time>2023-06-25T11:26:04Z</time>
      </trkpt>
      <trkpt lat="44.31473" lon="3.00562">
        <ele>678</ele>
        <time>2023-06-25T11:26:05Z</time>
      </trkpt>
      <trkpt lat="44.31478" lon="3.00563">
        <ele>677.9</ele>
        <time>2023-06-25T11:26:06Z</time>
      </trkpt>
      <trkpt lat="44.31483" lon="3.00564">
        <ele>677.9</ele>
        <time>2023-06-25T11:26:07Z</time>
      </trkpt>
      <trkpt lat="44.31488" lon="3.00564">
        <ele>677.9</ele>
        <time>2023-06-25T11:26:08Z</time>
      </trkpt>
      <trkpt lat="44.31493" lon="3.00565">
        <ele>677.8</ele>
        <time>2023-06-25T11:26:09Z</time>
      </trkpt>
      <trkpt lat="44.31498" lon="3.00566">
        <ele>677.7</ele>
        <time>2023-06-25T11:26:10Z</time>
      </trkpt>
      <trkpt lat="44.31503" lon="3.00567">
        <ele>677.6</ele>
        <time>2023-06-25T11:26:11Z</time>
      </trkpt>
      <trkpt lat="44.31508" lon="3.00568">
        <ele>677.5</ele>
        <time>2023-06-25T11:26:12Z</time>
      </trkpt>
      <trkpt lat="44.31513" lon="3.00569">
        <ele>677.4</ele>
        <time>2023-06-25T11:26:13Z</time>
      </trkpt>
      <trkpt lat="44.31518" lon="3.00569">
        <ele>677.3</ele>
        <time>2023-06-25T11:26:14Z</time>
      </trkpt>
      <trkpt lat="44.31523" lon="3.0057">
        <ele>677.1</ele>
        <time>2023-06-25T11:26:15Z</time>
      </trkpt>
      <trkpt lat="44.31528" lon="3.0057">
        <ele>676.9</ele>
        <time>2023-06-25T11:26:16Z</time>
      </trkpt>
      <trkpt lat="44.31533" lon="3.00571">
        <ele>676.8</ele>
        <time>2023-06-25T11:26:17Z</time>
      </trkpt>
      <trkpt lat="44.31539" lon="3.00572">
        <ele>676.6</ele>
        <time>2023-06-25T11:26:18Z</time>
      </trkpt>
      <trkpt lat="44.31544" lon="3.00574">
        <ele>676.5</ele>
        <time>2023-06-25T11:26:19Z</time>
      </trkpt>
      <trkpt lat="44.3155" lon="3.00575">
        <ele>676.4</ele>
        <time>2023-06-25T11:26:20Z</time>
      </trkpt>
      <trkpt lat="44.31555" lon="3.00576">
        <ele>676.3</ele>
        <time>2023-06-25T11:26:21Z</time>
      </trkpt>
      <trkpt lat="44.31561" lon="3.00577">
        <ele>676.2</ele>
        <time>2023-06-25T11:26:22Z</time>
      </trkpt>
      <trkpt lat="44.31566" lon="3.00578">
        <ele>676.2</ele>
        <time>2023-06-25T11:26:23Z</time>
      </trkpt>
      <trkpt lat="44.31572" lon="3.00579">
        <ele>676.1</ele>
        <time>2023-06-25T11:26:24Z</time>
      </trkpt>
      <trkpt lat="44.31577" lon="3.0058">
        <ele>676</ele>
        <time>2023-06-25T11:26:25Z</time>
      </trkpt>
      <trkpt lat="44.31583" lon="3.00581">
        <ele>675.9</ele>
        <time>2023-06-25T11:26:26Z</time>
      </trkpt>
      <trkpt lat="44.31588" lon="3.00583">
        <ele>675.8</ele>
        <time>2023-06-25T11:26:27Z</time>
      </trkpt>
      <trkpt lat="44.31594" lon="3.00584">
        <ele>675.8</ele>
        <time>2023-06-25T11:26:28Z</time>
      </trkpt>
      <trkpt lat="44.316" lon="3.00585">
        <ele>675.8</ele>
        <time>2023-06-25T11:26:29Z</time>
      </trkpt>
      <trkpt lat="44.31605" lon="3.00586">
        <ele>675.7</ele>
        <time>2023-06-25T11:26:30Z</time>
      </trkpt>
      <trkpt lat="44.31611" lon="3.00588">
        <ele>675.6</ele>
        <time>2023-06-25T11:26:31Z</time>
      </trkpt>
      <trkpt lat="44.31617" lon="3.00589">
        <ele>675.5</ele>
        <time>2023-06-25T11:26:32Z</time>
      </trkpt>
      <trkpt lat="44.31622" lon="3.0059">
        <ele>675.4</ele>
        <time>2023-06-25T11:26:33Z</time>
      </trkpt>
      <trkpt lat="44.31628" lon="3.00591">
        <ele>675.3</ele>
        <time>2023-06-25T11:26:34Z</time>
      </trkpt>
      <trkpt lat="44.31633" lon="3.00591">
        <ele>675.2</ele>
        <time>2023-06-25T11:26:35Z</time>
      </trkpt>
      <trkpt lat="44.31638" lon="3.00591">
        <ele>675.2</ele>
        <time>2023-06-25T11:26:36Z</time>
      </trkpt>
      <trkpt lat="44.31644" lon="3.00592">
        <ele>675.2</ele>
        <time>2023-06-25T11:26:37Z</time>
      </trkpt>
      <trkpt lat="44.31649" lon="3.00593">
        <ele>675.3</ele>
        <time>2023-06-25T11:26:38Z</time>
      </trkpt>
      <trkpt lat="44.31654" lon="3.00593">
        <ele>675.4</ele>
        <time>2023-06-25T11:26:39Z</time>
      </trkpt>
      <trkpt lat="44.3166" lon="3.00593">
        <ele>675.4</ele>
        <time>2023-06-25T11:26:40Z</time>
      </trkpt>
      <trkpt lat="44.31666" lon="3.00593">
        <ele>675.2</ele>
        <time>2023-06-25T11:26:41Z</time>
      </trkpt>
      <trkpt lat="44.31671" lon="3.00592">
        <ele>675</ele>
        <time>2023-06-25T11:26:42Z</time>
      </trkpt>
      <trkpt lat="44.31677" lon="3.00592">
        <ele>674.8</ele>
        <time>2023-06-25T11:26:43Z</time>
      </trkpt>
      <trkpt lat="44.31682" lon="3.00592">
        <ele>674.7</ele>
        <time>2023-06-25T11:26:44Z</time>
      </trkpt>
      <trkpt lat="44.31688" lon="3.00591">
        <ele>674.6</ele>
        <time>2023-06-25T11:26:45Z</time>
      </trkpt>
      <trkpt lat="44.31693" lon="3.0059">
        <ele>674.5</ele>
        <time>2023-06-25T11:26:46Z</time>
      </trkpt>
      <trkpt lat="44.31698" lon="3.00589">
        <ele>674.5</ele>
        <time>2023-06-25T11:26:47Z</time>
      </trkpt>
      <trkpt lat="44.31703" lon="3.00589">
        <ele>674.5</ele>
        <time>2023-06-25T11:26:48Z</time>
      </trkpt>
      <trkpt lat="44.31708" lon="3.00588">
        <ele>674.5</ele>
        <time>2023-06-25T11:26:49Z</time>
      </trkpt>
      <trkpt lat="44.31714" lon="3.00587">
        <ele>674.4</ele>
        <time>2023-06-25T11:26:50Z</time>
      </trkpt>
      <trkpt lat="44.31719" lon="3.00586">
        <ele>674.3</ele>
        <time>2023-06-25T11:26:51Z</time>
      </trkpt>
      <trkpt lat="44.31724" lon="3.00586">
        <ele>674.2</ele>
        <time>2023-06-25T11:26:52Z</time>
      </trkpt>
      <trkpt lat="44.3173" lon="3.00585">
        <ele>674.1</ele>
        <time>2023-06-25T11:26:53Z</time>
      </trkpt>
      <trkpt lat="44.31735" lon="3.00584">
        <ele>674.1</ele>
        <time>2023-06-25T11:26:54Z</time>
      </trkpt>
      <trkpt lat="44.31741" lon="3.00582">
        <ele>674.1</ele>
        <time>2023-06-25T11:26:55Z</time>
      </trkpt>
      <trkpt lat="44.31746" lon="3.00581">
        <ele>674.1</ele>
        <time>2023-06-25T11:26:56Z</time>
      </trkpt>
      <trkpt lat="44.31752" lon="3.00581">
        <ele>674</ele>
        <time>2023-06-25T11:26:57Z</time>
      </trkpt>
      <trkpt lat="44.31757" lon="3.0058">
        <ele>673.9</ele>
        <time>2023-06-25T11:26:58Z</time>
      </trkpt>
      <trkpt lat="44.31763" lon="3.00578">
        <ele>673.8</ele>
        <time>2023-06-25T11:26:59Z</time>
      </trkpt>
      <trkpt lat="44.31768" lon="3.00577">
        <ele>673.7</ele>
        <time>2023-06-25T11:27:00Z</time>
      </trkpt>
      <trkpt lat="44.31774" lon="3.00576">
        <ele>673.6</ele>
        <time>2023-06-25T11:27:01Z</time>
      </trkpt>
      <trkpt lat="44.3178" lon="3.00576">
        <ele>673.4</ele>
        <time>2023-06-25T11:27:02Z</time>
      </trkpt>
      <trkpt lat="44.31785" lon="3.00575">
        <ele>673.3</ele>
        <time>2023-06-25T11:27:03Z</time>
      </trkpt>
      <trkpt lat="44.31791" lon="3.00575">
        <ele>673.2</ele>
        <time>2023-06-25T11:27:04Z</time>
      </trkpt>
      <trkpt lat="44.31797" lon="3.00574">
        <ele>673.1</ele>
        <time>2023-06-25T11:27:05Z</time>
      </trkpt>
      <trkpt lat="44.31803" lon="3.00573">
        <ele>673</ele>
        <time>2023-06-25T11:27:06Z</time>
      </trkpt>
      <trkpt lat="44.31808" lon="3.00572">
        <ele>672.9</ele>
        <time>2023-06-25T11:27:07Z</time>
      </trkpt>
      <trkpt lat="44.31813" lon="3.00571">
        <ele>672.8</ele>
        <time>2023-06-25T11:27:08Z</time>
      </trkpt>
      <trkpt lat="44.31819" lon="3.00571">
        <ele>672.7</ele>
        <time>2023-06-25T11:27:09Z</time>
      </trkpt>
      <trkpt lat="44.31824" lon="3.0057">
        <ele>672.5</ele>
        <time>2023-06-25T11:27:10Z</time>
      </trkpt>
      <trkpt lat="44.31829" lon="3.00569">
        <ele>672.2</ele>
        <time>2023-06-25T11:27:11Z</time>
      </trkpt>
      <trkpt lat="44.31834" lon="3.00568">
        <ele>671.9</ele>
        <time>2023-06-25T11:27:12Z</time>
      </trkpt>
      <trkpt lat="44.31839" lon="3.00568">
        <ele>671.6</ele>
        <time>2023-06-25T11:27:13Z</time>
      </trkpt>
      <trkpt lat="44.31845" lon="3.00567">
        <ele>671.3</ele>
        <time>2023-06-25T11:27:14Z</time>
      </trkpt>
      <trkpt lat="44.3185" lon="3.00566">
        <ele>671</ele>
        <time>2023-06-25T11:27:15Z</time>
      </trkpt>
      <trkpt lat="44.31855" lon="3.00565">
        <ele>670.7</ele>
        <time>2023-06-25T11:27:16Z</time>
      </trkpt>
      <trkpt lat="44.3186" lon="3.00565">
        <ele>670.3</ele>
        <time>2023-06-25T11:27:17Z</time>
      </trkpt>
      <trkpt lat="44.31865" lon="3.00565">
        <ele>670</ele>
        <time>2023-06-25T11:27:18Z</time>
      </trkpt>
      <trkpt lat="44.3187" lon="3.00564">
        <ele>669.6</ele>
        <time>2023-06-25T11:27:19Z</time>
      </trkpt>
      <trkpt lat="44.31876" lon="3.00564">
        <ele>669.3</ele>
        <time>2023-06-25T11:27:20Z</time>
      </trkpt>
      <trkpt lat="44.31881" lon="3.00564">
        <ele>668.9</ele>
        <time>2023-06-25T11:27:21Z</time>
      </trkpt>
      <trkpt lat="44.31886" lon="3.00564">
        <ele>668.5</ele>
        <time>2023-06-25T11:27:22Z</time>
      </trkpt>
      <trkpt lat="44.31892" lon="3.00563">
        <ele>668.1</ele>
        <time>2023-06-25T11:27:23Z</time>
      </trkpt>
      <trkpt lat="44.31898" lon="3.00563">
        <ele>667.7</ele>
        <time>2023-06-25T11:27:24Z</time>
      </trkpt>
      <trkpt lat="44.31905" lon="3.00563">
        <ele>667.3</ele>
        <time>2023-06-25T11:27:25Z</time>
      </trkpt>
      <trkpt lat="44.31911" lon="3.00563">
        <ele>666.9</ele>
        <time>2023-06-25T11:27:26Z</time>
      </trkpt>
      <trkpt lat="44.31918" lon="3.00563">
        <ele>666.5</ele>
        <time>2023-06-25T11:27:27Z</time>
      </trkpt>
      <trkpt lat="44.31925" lon="3.00564">
        <ele>666.1</ele>
        <time>2023-06-25T11:27:28Z</time>
      </trkpt>
      <trkpt lat="44.3193" lon="3.00566">
        <ele>665.7</ele>
        <time>2023-06-25T11:27:29Z</time>
      </trkpt>
      <trkpt lat="44.31936" lon="3.00568">
        <ele>665.4</ele>
        <time>2023-06-25T11:27:30Z</time>
      </trkpt>
      <trkpt lat="44.31941" lon="3.00571">
        <ele>665.1</ele>
        <time>2023-06-25T11:27:31Z</time>
      </trkpt>
      <trkpt lat="44.31946" lon="3.00574">
        <ele>665</ele>
        <time>2023-06-25T11:27:32Z</time>
      </trkpt>
      <trkpt lat="44.31951" lon="3.00577">
        <ele>664.9</ele>
        <time>2023-06-25T11:27:33Z</time>
      </trkpt>
      <trkpt lat="44.31957" lon="3.0058">
        <ele>664.8</ele>
        <time>2023-06-25T11:27:34Z</time>
      </trkpt>
      <trkpt lat="44.31962" lon="3.00581">
        <ele>664.8</ele>
        <time>2023-06-25T11:27:35Z</time>
      </trkpt>
      <trkpt lat="44.31968" lon="3.0058">
        <ele>664.8</ele>
        <time>2023-06-25T11:27:36Z</time>
      </trkpt>
      <trkpt lat="44.31973" lon="3.00579">
        <ele>664.7</ele>
        <time>2023-06-25T11:27:37Z</time>
      </trkpt>
      <trkpt lat="44.31977" lon="3.00578">
        <ele>664.7</ele>
        <time>2023-06-25T11:27:38Z</time>
      </trkpt>
      <trkpt lat="44.3198" lon="3.0058">
        <ele>664.7</ele>
        <time>2023-06-25T11:27:39Z</time>
      </trkpt>
      <trkpt lat="44.31982" lon="3.00582">
        <ele>664.8</ele>
        <time>2023-06-25T11:27:40Z</time>
      </trkpt>
      <trkpt lat="44.31984" lon="3.00586">
        <ele>664.9</ele>
        <time>2023-06-25T11:27:41Z</time>
      </trkpt>
      <trkpt lat="44.31985" lon="3.0059">
        <ele>664.9</ele>
        <time>2023-06-25T11:27:42Z</time>
      </trkpt>
      <trkpt lat="44.31987" lon="3.00594">
        <ele>665</ele>
        <time>2023-06-25T11:27:43Z</time>
      </trkpt>
      <trkpt lat="44.31988" lon="3.00597">
        <ele>665</ele>
        <time>2023-06-25T11:27:44Z</time>
      </trkpt>
      <trkpt lat="44.31991" lon="3.00601">
        <ele>665</ele>
        <time>2023-06-25T11:27:45Z</time>
      </trkpt>
      <trkpt lat="44.31992" lon="3.00603">
        <ele>665</ele>
        <time>2023-06-25T11:27:46Z</time>
      </trkpt>
      <trkpt lat="44.31995" lon="3.00606">
        <ele>665</ele>
        <time>2023-06-25T11:27:48Z</time>
      </trkpt>
      <trkpt lat="44.31997" lon="3.00608">
        <ele>665</ele>
        <time>2023-06-25T11:27:49Z</time>
      </trkpt>
      <trkpt lat="44.31998" lon="3.00608">
        <ele>665</ele>
        <time>2023-06-25T11:27:50Z</time>
      </trkpt>
      <trkpt lat="44.31998" lon="3.00609">
        <ele>665</ele>
        <time>2023-06-25T11:27:51Z</time>
      </trkpt>
      <trkpt lat="44.31998" lon="3.0061">
        <ele>665</ele>
        <time>2023-06-25T11:27:52Z</time>
      </trkpt>
      <trkpt lat="44.31999" lon="3.0061">
        <ele>665</ele>
        <time>2023-06-25T11:27:53Z</time>
      </trkpt>
      <trkpt lat="44.31999" lon="3.00611">
        <ele>665</ele>
        <time>2023-06-25T11:27:55Z</time>
      </trkpt>
      <trkpt lat="44.31999" lon="3.00612">
        <ele>664.9</ele>
        <time>2023-06-25T11:27:56Z</time>
      </trkpt>
      <trkpt lat="44.31999" lon="3.00612">
        <ele>664.9</ele>
        <time>2023-06-25T11:27:57Z</time>
      </trkpt>
      <trkpt lat="44.32" lon="3.00613">
        <ele>664.9</ele>
        <time>2023-06-25T11:27:58Z</time>
      </trkpt>
      <trkpt lat="44.32003" lon="3.00615">
        <ele>664.9</ele>
        <time>2023-06-25T11:28:00Z</time>
      </trkpt>
      <trkpt lat="44.32004" lon="3.00615">
        <ele>664.9</ele>
        <time>2023-06-25T11:28:01Z</time>
      </trkpt>
      <trkpt lat="44.32006" lon="3.00617">
        <ele>664.8</ele>
        <time>2023-06-25T11:28:02Z</time>
      </trkpt>
      <trkpt lat="44.32007" lon="3.00618">
        <ele>664.8</ele>
        <time>2023-06-25T11:28:03Z</time>
      </trkpt>
      <trkpt lat="44.32009" lon="3.00619">
        <ele>664.8</ele>
        <time>2023-06-25T11:28:04Z</time>
      </trkpt>
      <trkpt lat="44.3201" lon="3.0062">
        <ele>664.8</ele>
        <time>2023-06-25T11:28:06Z</time>
      </trkpt>
      <trkpt lat="44.32011" lon="3.00622">
        <ele>664.7</ele>
        <time>2023-06-25T11:28:07Z</time>
      </trkpt>
      <trkpt lat="44.32012" lon="3.00623">
        <ele>664.7</ele>
        <time>2023-06-25T11:28:08Z</time>
      </trkpt>
      <trkpt lat="44.32014" lon="3.00624">
        <ele>664.7</ele>
        <time>2023-06-25T11:28:10Z</time>
      </trkpt>
      <trkpt lat="44.32015" lon="3.00625">
        <ele>664.7</ele>
        <time>2023-06-25T11:28:11Z</time>
      </trkpt>
      <trkpt lat="44.32016" lon="3.00627">
        <ele>664.6</ele>
        <time>2023-06-25T11:28:12Z</time>
      </trkpt>
      <trkpt lat="44.32017" lon="3.00628">
        <ele>664.6</ele>
        <time>2023-06-25T11:28:33Z</time>
      </trkpt>
      <trkpt lat="44.32019" lon="3.00629">
        <ele>664.5</ele>
        <time>2023-06-25T11:28:34Z</time>
      </trkpt>
      <trkpt lat="44.3202" lon="3.00631">
        <ele>664.5</ele>
        <time>2023-06-25T11:28:35Z</time>
      </trkpt>
      <trkpt lat="44.32022" lon="3.00633">
        <ele>664.4</ele>
        <time>2023-06-25T11:28:37Z</time>
      </trkpt>
      <trkpt lat="44.32024" lon="3.00635">
        <ele>664.4</ele>
        <time>2023-06-25T11:28:38Z</time>
      </trkpt>
      <trkpt lat="44.32026" lon="3.00637">
        <ele>664.3</ele>
        <time>2023-06-25T11:28:39Z</time>
      </trkpt>
      <trkpt lat="44.32027" lon="3.00638">
        <ele>664.3</ele>
        <time>2023-06-25T11:28:40Z</time>
      </trkpt>
      <trkpt lat="44.32029" lon="3.0064">
        <ele>664.2</ele>
        <time>2023-06-25T11:28:42Z</time>
      </trkpt>
      <trkpt lat="44.32029" lon="3.00641">
        <ele>664.2</ele>
        <time>2023-06-25T11:28:43Z</time>
      </trkpt>
      <trkpt lat="44.3203" lon="3.00641">
        <ele>664.2</ele>
        <time>2023-06-25T11:28:44Z</time>
      </trkpt>
      <trkpt lat="44.32031" lon="3.00642">
        <ele>664.2</ele>
        <time>2023-06-25T11:28:45Z</time>
      </trkpt>
      <trkpt lat="44.32032" lon="3.00644">
        <ele>664.2</ele>
        <time>2023-06-25T11:28:46Z</time>
      </trkpt>
      <trkpt lat="44.32035" lon="3.00646">
        <ele>664.1</ele>
        <time>2023-06-25T11:28:47Z</time>
      </trkpt>
      <trkpt lat="44.32036" lon="3.00648">
        <ele>664.1</ele>
        <time>2023-06-25T11:28:48Z</time>
      </trkpt>
      <trkpt lat="44.32038" lon="3.00649">
        <ele>664.1</ele>
        <time>2023-06-25T11:28:49Z</time>
      </trkpt>
      <trkpt lat="44.32039" lon="3.0065">
        <ele>664</ele>
        <time>2023-06-25T11:28:50Z</time>
      </trkpt>
      <trkpt lat="44.32041" lon="3.0065">
        <ele>664</ele>
        <time>2023-06-25T11:28:52Z</time>
      </trkpt>
      <trkpt lat="44.32043" lon="3.0065">
        <ele>664</ele>
        <time>2023-06-25T11:28:53Z</time>
      </trkpt>
      <trkpt lat="44.32044" lon="3.00651">
        <ele>664</ele>
        <time>2023-06-25T11:28:54Z</time>
      </trkpt>
      <trkpt lat="44.32044" lon="3.00652">
        <ele>663.9</ele>
        <time>2023-06-25T11:28:55Z</time>
      </trkpt>
      <trkpt lat="44.32044" lon="3.00652">
        <ele>663.9</ele>
        <time>2023-06-25T11:28:56Z</time>
      </trkpt>
      <trkpt lat="44.32044" lon="3.00652">
        <ele>663.9</ele>
        <time>2023-06-25T11:28:58Z</time>
      </trkpt>
      <trkpt lat="44.32044" lon="3.00651">
        <ele>663.9</ele>
        <time>2023-06-25T11:28:59Z</time>
      </trkpt>
      <trkpt lat="44.32044" lon="3.00651">
        <ele>663.9</ele>
        <time>2023-06-25T11:29:01Z</time>
      </trkpt>
      <trkpt lat="44.32044" lon="3.00652">
        <ele>663.9</ele>
        <time>2023-06-25T11:29:02Z</time>
      </trkpt>
      <trkpt lat="44.32044" lon="3.00652">
        <ele>663.9</ele>
        <time>2023-06-25T11:29:04Z</time>
      </trkpt>
      <trkpt lat="44.32044" lon="3.00653">
        <ele>663.9</ele>
        <time>2023-06-25T11:29:05Z</time>
      </trkpt>
      <trkpt lat="44.32045" lon="3.00654">
        <ele>663.9</ele>
        <time>2023-06-25T11:29:06Z</time>
      </trkpt>
      <trkpt lat="44.32047" lon="3.00659">
        <ele>663.8</ele>
        <time>2023-06-25T11:29:07Z</time>
      </trkpt>
      <trkpt lat="44.32049" lon="3.00662">
        <ele>663.8</ele>
        <time>2023-06-25T11:29:08Z</time>
      </trkpt>
      <trkpt lat="44.32051" lon="3.00666">
        <ele>663.8</ele>
        <time>2023-06-25T11:29:09Z</time>
      </trkpt>
      <trkpt lat="44.32054" lon="3.00669">
        <ele>663.8</ele>
        <time>2023-06-25T11:29:11Z</time>
      </trkpt>
      <trkpt lat="44.32055" lon="3.00673">
        <ele>663.8</ele>
        <time>2023-06-25T11:29:12Z</time>
      </trkpt>
      <trkpt lat="44.32057" lon="3.00676">
        <ele>663.8</ele>
        <time>2023-06-25T11:29:13Z</time>
      </trkpt>
      <trkpt lat="44.32059" lon="3.00681">
        <ele>663.8</ele>
        <time>2023-06-25T11:29:15Z</time>
      </trkpt>
      <trkpt lat="44.32062" lon="3.00688">
        <ele>663.9</ele>
        <time>2023-06-25T11:29:16Z</time>
      </trkpt>
      <trkpt lat="44.32064" lon="3.00694">
        <ele>664</ele>
        <time>2023-06-25T11:29:17Z</time>
      </trkpt>
      <trkpt lat="44.32067" lon="3.007">
        <ele>664</ele>
        <time>2023-06-25T11:29:19Z</time>
      </trkpt>
      <trkpt lat="44.32069" lon="3.00704">
        <ele>664.1</ele>
        <time>2023-06-25T11:29:20Z</time>
      </trkpt>
      <trkpt lat="44.3207" lon="3.00709">
        <ele>664.2</ele>
        <time>2023-06-25T11:29:21Z</time>
      </trkpt>
      <trkpt lat="44.32072" lon="3.00714">
        <ele>664.2</ele>
        <time>2023-06-25T11:29:22Z</time>
      </trkpt>
      <trkpt lat="44.32073" lon="3.00718">
        <ele>664.3</ele>
        <time>2023-06-25T11:29:23Z</time>
      </trkpt>
      <trkpt lat="44.32074" lon="3.00724">
        <ele>664.4</ele>
        <time>2023-06-25T11:29:25Z</time>
      </trkpt>
      <trkpt lat="44.32076" lon="3.00728">
        <ele>664.4</ele>
        <time>2023-06-25T11:29:26Z</time>
      </trkpt>
      <trkpt lat="44.32077" lon="3.00733">
        <ele>664.5</ele>
        <time>2023-06-25T11:29:27Z</time>
      </trkpt>
      <trkpt lat="44.32079" lon="3.00738">
        <ele>664.6</ele>
        <time>2023-06-25T11:29:28Z</time>
      </trkpt>
      <trkpt lat="44.3208" lon="3.00744">
        <ele>664.7</ele>
        <time>2023-06-25T11:29:29Z</time>
      </trkpt>
      <trkpt lat="44.32082" lon="3.00749">
        <ele>664.8</ele>
        <time>2023-06-25T11:29:31Z</time>
      </trkpt>
      <trkpt lat="44.32083" lon="3.00754">
        <ele>664.9</ele>
        <time>2023-06-25T11:29:32Z</time>
      </trkpt>
      <trkpt lat="44.32085" lon="3.00758">
        <ele>665</ele>
        <time>2023-06-25T11:29:33Z</time>
      </trkpt>
      <trkpt lat="44.32086" lon="3.00763">
        <ele>665.1</ele>
        <time>2023-06-25T11:29:34Z</time>
      </trkpt>
      <trkpt lat="44.32088" lon="3.00768">
        <ele>665.2</ele>
        <time>2023-06-25T11:29:35Z</time>
      </trkpt>
      <trkpt lat="44.32089" lon="3.00772">
        <ele>665.4</ele>
        <time>2023-06-25T11:29:36Z</time>
      </trkpt>
      <trkpt lat="44.3209" lon="3.00778">
        <ele>665.5</ele>
        <time>2023-06-25T11:29:37Z</time>
      </trkpt>
      <trkpt lat="44.32091" lon="3.00784">
        <ele>665.7</ele>
        <time>2023-06-25T11:29:38Z</time>
      </trkpt>
      <trkpt lat="44.32092" lon="3.00789">
        <ele>665.9</ele>
        <time>2023-06-25T11:29:39Z</time>
      </trkpt>
      <trkpt lat="44.32093" lon="3.00793">
        <ele>666.1</ele>
        <time>2023-06-25T11:29:41Z</time>
      </trkpt>
      <trkpt lat="44.32095" lon="3.00798">
        <ele>666.3</ele>
        <time>2023-06-25T11:29:42Z</time>
      </trkpt>
      <trkpt lat="44.32096" lon="3.00801">
        <ele>666.5</ele>
        <time>2023-06-25T11:29:43Z</time>
      </trkpt>
      <trkpt lat="44.32097" lon="3.00807">
        <ele>666.7</ele>
        <time>2023-06-25T11:29:44Z</time>
      </trkpt>
      <trkpt lat="44.32098" lon="3.00809">
        <ele>666.8</ele>
        <time>2023-06-25T11:29:45Z</time>
      </trkpt>
      <trkpt lat="44.321" lon="3.00813">
        <ele>667</ele>
        <time>2023-06-25T11:29:47Z</time>
      </trkpt>
      <trkpt lat="44.32102" lon="3.00816">
        <ele>667.3</ele>
        <time>2023-06-25T11:29:48Z</time>
      </trkpt>
      <trkpt lat="44.32105" lon="3.00819">
        <ele>667.5</ele>
        <time>2023-06-25T11:29:49Z</time>
      </trkpt>
      <trkpt lat="44.32106" lon="3.00821">
        <ele>667.6</ele>
        <time>2023-06-25T11:29:50Z</time>
      </trkpt>
      <trkpt lat="44.32107" lon="3.00823">
        <ele>667.8</ele>
        <time>2023-06-25T11:29:51Z</time>
      </trkpt>
      <trkpt lat="44.32111" lon="3.00827">
        <ele>668.1</ele>
        <time>2023-06-25T11:29:53Z</time>
      </trkpt>
      <trkpt lat="44.32114" lon="3.00832">
        <ele>668.5</ele>
        <time>2023-06-25T11:29:55Z</time>
      </trkpt>
      <trkpt lat="44.32116" lon="3.00836">
        <ele>668.8</ele>
        <time>2023-06-25T11:29:56Z</time>
      </trkpt>
      <trkpt lat="44.32117" lon="3.00837">
        <ele>668.9</ele>
        <time>2023-06-25T11:29:57Z</time>
      </trkpt>
      <trkpt lat="44.32119" lon="3.00841">
        <ele>669.2</ele>
        <time>2023-06-25T11:29:59Z</time>
      </trkpt>
      <trkpt lat="44.3212" lon="3.00843">
        <ele>669.3</ele>
        <time>2023-06-25T11:30:00Z</time>
      </trkpt>
      <trkpt lat="44.32121" lon="3.00846">
        <ele>669.6</ele>
        <time>2023-06-25T11:30:01Z</time>
      </trkpt>
      <trkpt lat="44.32123" lon="3.00849">
        <ele>669.8</ele>
        <time>2023-06-25T11:30:02Z</time>
      </trkpt>
      <trkpt lat="44.32124" lon="3.0085">
        <ele>669.9</ele>
        <time>2023-06-25T11:30:03Z</time>
      </trkpt>
      <trkpt lat="44.32125" lon="3.00853">
        <ele>670.1</ele>
        <time>2023-06-25T11:30:04Z</time>
      </trkpt>
      <trkpt lat="44.32127" lon="3.00856">
        <ele>670.3</ele>
        <time>2023-06-25T11:30:05Z</time>
      </trkpt>
      <trkpt lat="44.3213" lon="3.00859">
        <ele>670.6</ele>
        <time>2023-06-25T11:30:07Z</time>
      </trkpt>
      <trkpt lat="44.32132" lon="3.00862">
        <ele>670.8</ele>
        <time>2023-06-25T11:30:08Z</time>
      </trkpt>
      <trkpt lat="44.32134" lon="3.00864">
        <ele>671.1</ele>
        <time>2023-06-25T11:30:09Z</time>
      </trkpt>
      <trkpt lat="44.32137" lon="3.00868">
        <ele>671.4</ele>
        <time>2023-06-25T11:30:10Z</time>
      </trkpt>
      <trkpt lat="44.32138" lon="3.00869">
        <ele>671.6</ele>
        <time>2023-06-25T11:30:11Z</time>
      </trkpt>
      <trkpt lat="44.32141" lon="3.00871">
        <ele>671.9</ele>
        <time>2023-06-25T11:30:12Z</time>
      </trkpt>
      <trkpt lat="44.32141" lon="3.00871">
        <ele>672</ele>
        <time>2023-06-25T11:30:13Z</time>
      </trkpt>
      <trkpt lat="44.32145" lon="3.00873">
        <ele>672.4</ele>
        <time>2023-06-25T11:30:15Z</time>
      </trkpt>
      <trkpt lat="44.32146" lon="3.00874">
        <ele>672.5</ele>
        <time>2023-06-25T11:30:16Z</time>
      </trkpt>
      <trkpt lat="44.32149" lon="3.00876">
        <ele>672.9</ele>
        <time>2023-06-25T11:30:17Z</time>
      </trkpt>
      <trkpt lat="44.3215" lon="3.00878">
        <ele>673.1</ele>
        <time>2023-06-25T11:30:19Z</time>
      </trkpt>
      <trkpt lat="44.32151" lon="3.00879">
        <ele>673.3</ele>
        <time>2023-06-25T11:30:20Z</time>
      </trkpt>
      <trkpt lat="44.32152" lon="3.0088">
        <ele>673.4</ele>
        <time>2023-06-25T11:30:21Z</time>
      </trkpt>
      <trkpt lat="44.32154" lon="3.00882">
        <ele>673.6</ele>
        <time>2023-06-25T11:30:23Z</time>
      </trkpt>
      <trkpt lat="44.32155" lon="3.00883">
        <ele>673.8</ele>
        <time>2023-06-25T11:30:24Z</time>
      </trkpt>
      <trkpt lat="44.32156" lon="3.00885">
        <ele>674</ele>
        <time>2023-06-25T11:30:25Z</time>
      </trkpt>
      <trkpt lat="44.32157" lon="3.00886">
        <ele>674.2</ele>
        <time>2023-06-25T11:30:27Z</time>
      </trkpt>
      <trkpt lat="44.32158" lon="3.00887">
        <ele>674.4</ele>
        <time>2023-06-25T11:30:43Z</time>
      </trkpt>
      <trkpt lat="44.32159" lon="3.00889">
        <ele>674.7</ele>
        <time>2023-06-25T11:30:44Z</time>
      </trkpt>
      <trkpt lat="44.32161" lon="3.0089">
        <ele>674.9</ele>
        <time>2023-06-25T11:30:45Z</time>
      </trkpt>
      <trkpt lat="44.32163" lon="3.00893">
        <ele>675.4</ele>
        <time>2023-06-25T11:30:47Z</time>
      </trkpt>
      <trkpt lat="44.32164" lon="3.00894">
        <ele>675.5</ele>
        <time>2023-06-25T11:30:48Z</time>
      </trkpt>
      <trkpt lat="44.32165" lon="3.00895">
        <ele>675.8</ele>
        <time>2023-06-25T11:30:49Z</time>
      </trkpt>
      <trkpt lat="44.32166" lon="3.00897">
        <ele>676</ele>
        <time>2023-06-25T11:30:50Z</time>
      </trkpt>
      <trkpt lat="44.32168" lon="3.009">
        <ele>676.4</ele>
        <time>2023-06-25T11:30:51Z</time>
      </trkpt>
      <trkpt lat="44.32169" lon="3.00901">
        <ele>676.6</ele>
        <time>2023-06-25T11:30:52Z</time>
      </trkpt>
      <trkpt lat="44.32171" lon="3.00904">
        <ele>677.1</ele>
        <time>2023-06-25T11:30:54Z</time>
      </trkpt>
      <trkpt lat="44.32172" lon="3.00906">
        <ele>677.3</ele>
        <time>2023-06-25T11:30:55Z</time>
      </trkpt>
      <trkpt lat="44.32172" lon="3.00907">
        <ele>677.5</ele>
        <time>2023-06-25T11:30:56Z</time>
      </trkpt>
      <trkpt lat="44.32173" lon="3.00909">
        <ele>677.7</ele>
        <time>2023-06-25T11:30:58Z</time>
      </trkpt>
      <trkpt lat="44.32174" lon="3.00911">
        <ele>677.9</ele>
        <time>2023-06-25T11:31:00Z</time>
      </trkpt>
      <trkpt lat="44.32175" lon="3.00912">
        <ele>678</ele>
        <time>2023-06-25T11:31:01Z</time>
      </trkpt>
      <trkpt lat="44.32176" lon="3.00914">
        <ele>678.2</ele>
        <time>2023-06-25T11:31:02Z</time>
      </trkpt>
      <trkpt lat="44.32176" lon="3.00915">
        <ele>678.4</ele>
        <time>2023-06-25T11:31:03Z</time>
      </trkpt>
      <trkpt lat="44.32177" lon="3.00917">
        <ele>678.5</ele>
        <time>2023-06-25T11:31:05Z</time>
      </trkpt>
      <trkpt lat="44.32178" lon="3.00918">
        <ele>678.6</ele>
        <time>2023-06-25T11:31:17Z</time>
      </trkpt>
      <trkpt lat="44.32179" lon="3.0092">
        <ele>678.7</ele>
        <time>2023-06-25T11:31:18Z</time>
      </trkpt>
      <trkpt lat="44.3218" lon="3.00922">
        <ele>678.8</ele>
        <time>2023-06-25T11:31:20Z</time>
      </trkpt>
      <trkpt lat="44.32181" lon="3.00923">
        <ele>678.9</ele>
        <time>2023-06-25T11:31:21Z</time>
      </trkpt>
      <trkpt lat="44.32181" lon="3.00925">
        <ele>678.9</ele>
        <time>2023-06-25T11:31:22Z</time>
      </trkpt>
      <trkpt lat="44.32181" lon="3.00925">
        <ele>678.9</ele>
        <time>2023-06-25T11:31:23Z</time>
      </trkpt>
      <trkpt lat="44.32181" lon="3.00926">
        <ele>678.9</ele>
        <time>2023-06-25T11:31:24Z</time>
      </trkpt>
      <trkpt lat="44.32181" lon="3.00926">
        <ele>678.9</ele>
        <time>2023-06-25T11:31:25Z</time>
      </trkpt>
      <trkpt lat="44.32181" lon="3.00926">
        <ele>678.9</ele>
        <time>2023-06-25T11:31:26Z</time>
      </trkpt>
      <trkpt lat="44.32182" lon="3.00927">
        <ele>678.9</ele>
        <time>2023-06-25T11:31:28Z</time>
      </trkpt>
      <trkpt lat="44.32182" lon="3.00928">
        <ele>678.9</ele>
        <time>2023-06-25T11:31:29Z</time>
      </trkpt>
      <trkpt lat="44.32183" lon="3.00929">
        <ele>679</ele>
        <time>2023-06-25T11:31:30Z</time>
      </trkpt>
      <trkpt lat="44.32184" lon="3.00931">
        <ele>679.1</ele>
        <time>2023-06-25T11:31:32Z</time>
      </trkpt>
      <trkpt lat="44.32184" lon="3.00932">
        <ele>679.1</ele>
        <time>2023-06-25T11:31:33Z</time>
      </trkpt>
      <trkpt lat="44.32186" lon="3.00937">
        <ele>679.5</ele>
        <time>2023-06-25T11:31:35Z</time>
      </trkpt>
      <trkpt lat="44.32187" lon="3.00939">
        <ele>679.8</ele>
        <time>2023-06-25T11:31:36Z</time>
      </trkpt>
      <trkpt lat="44.32188" lon="3.0094">
        <ele>680</ele>
        <time>2023-06-25T11:31:38Z</time>
      </trkpt>
      <trkpt lat="44.32189" lon="3.00941">
        <ele>680.3</ele>
        <time>2023-06-25T11:31:39Z</time>
      </trkpt>
      <trkpt lat="44.3219" lon="3.00943">
        <ele>680.7</ele>
        <time>2023-06-25T11:31:41Z</time>
      </trkpt>
      <trkpt lat="44.32192" lon="3.00945">
        <ele>681.3</ele>
        <time>2023-06-25T11:31:42Z</time>
      </trkpt>
      <trkpt lat="44.32192" lon="3.00946">
        <ele>681.5</ele>
        <time>2023-06-25T11:31:43Z</time>
      </trkpt>
      <trkpt lat="44.32193" lon="3.00948">
        <ele>681.9</ele>
        <time>2023-06-25T11:31:44Z</time>
      </trkpt>
      <trkpt lat="44.32194" lon="3.00949">
        <ele>682.2</ele>
        <time>2023-06-25T11:31:46Z</time>
      </trkpt>
      <trkpt lat="44.32194" lon="3.00949">
        <ele>682.4</ele>
        <time>2023-06-25T11:31:47Z</time>
      </trkpt>
      <trkpt lat="44.32195" lon="3.00949">
        <ele>682.5</ele>
        <time>2023-06-25T11:31:48Z</time>
      </trkpt>
      <trkpt lat="44.32195" lon="3.0095">
        <ele>682.7</ele>
        <time>2023-06-25T11:31:49Z</time>
      </trkpt>
      <trkpt lat="44.32196" lon="3.00951">
        <ele>682.9</ele>
        <time>2023-06-25T11:31:50Z</time>
      </trkpt>
      <trkpt lat="44.32197" lon="3.00951">
        <ele>683.1</ele>
        <time>2023-06-25T11:31:51Z</time>
      </trkpt>
      <trkpt lat="44.32198" lon="3.00953">
        <ele>683.6</ele>
        <time>2023-06-25T11:31:53Z</time>
      </trkpt>
      <trkpt lat="44.322" lon="3.00955">
        <ele>684.1</ele>
        <time>2023-06-25T11:31:55Z</time>
      </trkpt>
      <trkpt lat="44.322" lon="3.00956">
        <ele>684.3</ele>
        <time>2023-06-25T11:31:56Z</time>
      </trkpt>
      <trkpt lat="44.32201" lon="3.00957">
        <ele>684.5</ele>
        <time>2023-06-25T11:31:57Z</time>
      </trkpt>
      <trkpt lat="44.32202" lon="3.00957">
        <ele>684.6</ele>
        <time>2023-06-25T11:31:58Z</time>
      </trkpt>
      <trkpt lat="44.32202" lon="3.00958">
        <ele>684.8</ele>
        <time>2023-06-25T11:31:59Z</time>
      </trkpt>
      <trkpt lat="44.32203" lon="3.00959">
        <ele>685</ele>
        <time>2023-06-25T11:32:00Z</time>
      </trkpt>
      <trkpt lat="44.32204" lon="3.00961">
        <ele>685.3</ele>
        <time>2023-06-25T11:32:02Z</time>
      </trkpt>
      <trkpt lat="44.32205" lon="3.00962">
        <ele>685.6</ele>
        <time>2023-06-25T11:32:04Z</time>
      </trkpt>
      <trkpt lat="44.32206" lon="3.00963">
        <ele>685.8</ele>
        <time>2023-06-25T11:32:05Z</time>
      </trkpt>
      <trkpt lat="44.32206" lon="3.00963">
        <ele>685.8</ele>
        <time>2023-06-25T11:32:06Z</time>
      </trkpt>
      <trkpt lat="44.32206" lon="3.00964">
        <ele>685.8</ele>
        <time>2023-06-25T11:32:07Z</time>
      </trkpt>
      <trkpt lat="44.32206" lon="3.00964">
        <ele>685.9</ele>
        <time>2023-06-25T11:32:08Z</time>
      </trkpt>
      <trkpt lat="44.32207" lon="3.00965">
        <ele>686.1</ele>
        <time>2023-06-25T11:32:09Z</time>
      </trkpt>
      <trkpt lat="44.32207" lon="3.00966">
        <ele>686.2</ele>
        <time>2023-06-25T11:32:10Z</time>
      </trkpt>
      <trkpt lat="44.32208" lon="3.00968">
        <ele>686.5</ele>
        <time>2023-06-25T11:32:11Z</time>
      </trkpt>
      <trkpt lat="44.32208" lon="3.00969">
        <ele>686.6</ele>
        <time>2023-06-25T11:32:13Z</time>
      </trkpt>
      <trkpt lat="44.32209" lon="3.00968">
        <ele>686.7</ele>
        <time>2023-06-25T11:32:14Z</time>
      </trkpt>
      <trkpt lat="44.32209" lon="3.00969">
        <ele>686.8</ele>
        <time>2023-06-25T11:32:16Z</time>
      </trkpt>
      <trkpt lat="44.3221" lon="3.00969">
        <ele>686.9</ele>
        <time>2023-06-25T11:32:17Z</time>
      </trkpt>
      <trkpt lat="44.3221" lon="3.0097">
        <ele>687</ele>
        <time>2023-06-25T11:32:18Z</time>
      </trkpt>
      <trkpt lat="44.3221" lon="3.0097">
        <ele>687</ele>
        <time>2023-06-25T11:32:19Z</time>
      </trkpt>
      <trkpt lat="44.32211" lon="3.00971">
        <ele>687.2</ele>
        <time>2023-06-25T11:32:20Z</time>
      </trkpt>
      <trkpt lat="44.32211" lon="3.00973">
        <ele>687.4</ele>
        <time>2023-06-25T11:32:21Z</time>
      </trkpt>
      <trkpt lat="44.32211" lon="3.00973">
        <ele>687.5</ele>
        <time>2023-06-25T11:32:23Z</time>
      </trkpt>
      <trkpt lat="44.32211" lon="3.00973">
        <ele>687.5</ele>
        <time>2023-06-25T11:32:24Z</time>
      </trkpt>
      <trkpt lat="44.32211" lon="3.00974">
        <ele>687.5</ele>
        <time>2023-06-25T11:32:25Z</time>
      </trkpt>
      <trkpt lat="44.32212" lon="3.00976">
        <ele>687.9</ele>
        <time>2023-06-25T11:32:27Z</time>
      </trkpt>
      <trkpt lat="44.32212" lon="3.00976">
        <ele>687.9</ele>
        <time>2023-06-25T11:32:28Z</time>
      </trkpt>
      <trkpt lat="44.32213" lon="3.00978">
        <ele>688.2</ele>
        <time>2023-06-25T11:32:30Z</time>
      </trkpt>
      <trkpt lat="44.32213" lon="3.00978">
        <ele>688.2</ele>
        <time>2023-06-25T11:32:31Z</time>
      </trkpt>
      <trkpt lat="44.32214" lon="3.0098">
        <ele>688.5</ele>
        <time>2023-06-25T11:32:32Z</time>
      </trkpt>
      <trkpt lat="44.32215" lon="3.0098">
        <ele>688.6</ele>
        <time>2023-06-25T11:32:33Z</time>
      </trkpt>
      <trkpt lat="44.32215" lon="3.00981">
        <ele>688.6</ele>
        <time>2023-06-25T11:32:34Z</time>
      </trkpt>
      <trkpt lat="44.32215" lon="3.00981">
        <ele>688.7</ele>
        <time>2023-06-25T11:32:36Z</time>
      </trkpt>
      <trkpt lat="44.32216" lon="3.00983">
        <ele>688.9</ele>
        <time>2023-06-25T11:32:37Z</time>
      </trkpt>
      <trkpt lat="44.32216" lon="3.00983">
        <ele>689</ele>
        <time>2023-06-25T11:32:38Z</time>
      </trkpt>
      <trkpt lat="44.32217" lon="3.00983">
        <ele>689.1</ele>
        <time>2023-06-25T11:32:39Z</time>
      </trkpt>
      <trkpt lat="44.32217" lon="3.00984">
        <ele>689.2</ele>
        <time>2023-06-25T11:32:40Z</time>
      </trkpt>
      <trkpt lat="44.32218" lon="3.00985">
        <ele>689.5</ele>
        <time>2023-06-25T11:32:42Z</time>
      </trkpt>
      <trkpt lat="44.32219" lon="3.00986">
        <ele>689.6</ele>
        <time>2023-06-25T11:32:43Z</time>
      </trkpt>
      <trkpt lat="44.32219" lon="3.00987">
        <ele>689.8</ele>
        <time>2023-06-25T11:32:44Z</time>
      </trkpt>
      <trkpt lat="44.3222" lon="3.00988">
        <ele>690</ele>
        <time>2023-06-25T11:32:45Z</time>
      </trkpt>
      <trkpt lat="44.32221" lon="3.0099">
        <ele>690.3</ele>
        <time>2023-06-25T11:32:46Z</time>
      </trkpt>
      <trkpt lat="44.32222" lon="3.00991">
        <ele>690.6</ele>
        <time>2023-06-25T11:32:47Z</time>
      </trkpt>
      <trkpt lat="44.32223" lon="3.00993">
        <ele>690.9</ele>
        <time>2023-06-25T11:32:49Z</time>
      </trkpt>
      <trkpt lat="44.32223" lon="3.00993">
        <ele>690.9</ele>
        <time>2023-06-25T11:32:50Z</time>
      </trkpt>
      <trkpt lat="44.32223" lon="3.00994">
        <ele>691.1</ele>
        <time>2023-06-25T11:32:51Z</time>
      </trkpt>
      <trkpt lat="44.32224" lon="3.00998">
        <ele>691.6</ele>
        <time>2023-06-25T11:32:53Z</time>
      </trkpt>
      <trkpt lat="44.32225" lon="3.00999">
        <ele>691.9</ele>
        <time>2023-06-25T11:32:54Z</time>
      </trkpt>
      <trkpt lat="44.32226" lon="3.01001">
        <ele>692.2</ele>
        <time>2023-06-25T11:32:55Z</time>
      </trkpt>
      <trkpt lat="44.32227" lon="3.01004">
        <ele>692.7</ele>
        <time>2023-06-25T11:32:57Z</time>
      </trkpt>
      <trkpt lat="44.32227" lon="3.01004">
        <ele>692.8</ele>
        <time>2023-06-25T11:32:58Z</time>
      </trkpt>
      <trkpt lat="44.32228" lon="3.01006">
        <ele>693</ele>
        <time>2023-06-25T11:33:00Z</time>
      </trkpt>
      <trkpt lat="44.32228" lon="3.01006">
        <ele>693.1</ele>
        <time>2023-06-25T11:33:01Z</time>
      </trkpt>
      <trkpt lat="44.32229" lon="3.01007">
        <ele>693.3</ele>
        <time>2023-06-25T11:33:02Z</time>
      </trkpt>
      <trkpt lat="44.32229" lon="3.01007">
        <ele>693.3</ele>
        <time>2023-06-25T11:33:04Z</time>
      </trkpt>
      <trkpt lat="44.32229" lon="3.01007">
        <ele>693.4</ele>
        <time>2023-06-25T11:33:05Z</time>
      </trkpt>
      <trkpt lat="44.3223" lon="3.01007">
        <ele>693.5</ele>
        <time>2023-06-25T11:33:06Z</time>
      </trkpt>
      <trkpt lat="44.3223" lon="3.01007">
        <ele>693.6</ele>
        <time>2023-06-25T11:33:07Z</time>
      </trkpt>
      <trkpt lat="44.32231" lon="3.01008">
        <ele>693.9</ele>
        <time>2023-06-25T11:33:09Z</time>
      </trkpt>
      <trkpt lat="44.32231" lon="3.01009">
        <ele>694.1</ele>
        <time>2023-06-25T11:33:10Z</time>
      </trkpt>
      <trkpt lat="44.32232" lon="3.01011">
        <ele>694.3</ele>
        <time>2023-06-25T11:33:11Z</time>
      </trkpt>
      <trkpt lat="44.32233" lon="3.01012">
        <ele>694.6</ele>
        <time>2023-06-25T11:33:12Z</time>
      </trkpt>
      <trkpt lat="44.32234" lon="3.01014">
        <ele>695.1</ele>
        <time>2023-06-25T11:33:14Z</time>
      </trkpt>
      <trkpt lat="44.32235" lon="3.01015">
        <ele>695.3</ele>
        <time>2023-06-25T11:33:15Z</time>
      </trkpt>
      <trkpt lat="44.32236" lon="3.01015">
        <ele>695.5</ele>
        <time>2023-06-25T11:33:16Z</time>
      </trkpt>
      <trkpt lat="44.32237" lon="3.01016">
        <ele>695.8</ele>
        <time>2023-06-25T11:33:18Z</time>
      </trkpt>
      <trkpt lat="44.32238" lon="3.01016">
        <ele>696.1</ele>
        <time>2023-06-25T11:33:20Z</time>
      </trkpt>
      <trkpt lat="44.32239" lon="3.01016">
        <ele>696.3</ele>
        <time>2023-06-25T11:33:21Z</time>
      </trkpt>
      <trkpt lat="44.3224" lon="3.01017">
        <ele>696.6</ele>
        <time>2023-06-25T11:33:22Z</time>
      </trkpt>
      <trkpt lat="44.32241" lon="3.01019">
        <ele>696.9</ele>
        <time>2023-06-25T11:33:24Z</time>
      </trkpt>
      <trkpt lat="44.32241" lon="3.0102">
        <ele>697</ele>
        <time>2023-06-25T11:33:25Z</time>
      </trkpt>
      <trkpt lat="44.32242" lon="3.01021">
        <ele>697.3</ele>
        <time>2023-06-25T11:33:26Z</time>
      </trkpt>
      <trkpt lat="44.32242" lon="3.01023">
        <ele>697.6</ele>
        <time>2023-06-25T11:33:28Z</time>
      </trkpt>
      <trkpt lat="44.32243" lon="3.01024">
        <ele>697.8</ele>
        <time>2023-06-25T11:33:29Z</time>
      </trkpt>
      <trkpt lat="44.32243" lon="3.01025">
        <ele>698.1</ele>
        <time>2023-06-25T11:33:31Z</time>
      </trkpt>
      <trkpt lat="44.32244" lon="3.01027">
        <ele>698.4</ele>
        <time>2023-06-25T11:33:32Z</time>
      </trkpt>
      <trkpt lat="44.32245" lon="3.01027">
        <ele>698.6</ele>
        <time>2023-06-25T11:33:33Z</time>
      </trkpt>
      <trkpt lat="44.32246" lon="3.01029">
        <ele>698.9</ele>
        <time>2023-06-25T11:33:35Z</time>
      </trkpt>
      <trkpt lat="44.32246" lon="3.0103">
        <ele>699.1</ele>
        <time>2023-06-25T11:33:36Z</time>
      </trkpt>
      <trkpt lat="44.32247" lon="3.01032">
        <ele>699.5</ele>
        <time>2023-06-25T11:33:38Z</time>
      </trkpt>
      <trkpt lat="44.32247" lon="3.01033">
        <ele>699.7</ele>
        <time>2023-06-25T11:33:39Z</time>
      </trkpt>
      <trkpt lat="44.32248" lon="3.01034">
        <ele>699.8</ele>
        <time>2023-06-25T11:33:40Z</time>
      </trkpt>
      <trkpt lat="44.32249" lon="3.01034">
        <ele>700</ele>
        <time>2023-06-25T11:33:41Z</time>
      </trkpt>
      <trkpt lat="44.32249" lon="3.01035">
        <ele>700.2</ele>
        <time>2023-06-25T11:33:43Z</time>
      </trkpt>
      <trkpt lat="44.3225" lon="3.01035">
        <ele>700.4</ele>
        <time>2023-06-25T11:33:44Z</time>
      </trkpt>
      <trkpt lat="44.3225" lon="3.01036">
        <ele>700.4</ele>
        <time>2023-06-25T11:33:45Z</time>
      </trkpt>
      <trkpt lat="44.3225" lon="3.01036">
        <ele>700.5</ele>
        <time>2023-06-25T11:33:46Z</time>
      </trkpt>
      <trkpt lat="44.32251" lon="3.01037">
        <ele>700.7</ele>
        <time>2023-06-25T11:33:47Z</time>
      </trkpt>
      <trkpt lat="44.32251" lon="3.01037">
        <ele>700.8</ele>
        <time>2023-06-25T11:33:49Z</time>
      </trkpt>
      <trkpt lat="44.32252" lon="3.01037">
        <ele>700.9</ele>
        <time>2023-06-25T11:33:50Z</time>
      </trkpt>
      <trkpt lat="44.32252" lon="3.01037">
        <ele>701.1</ele>
        <time>2023-06-25T11:33:51Z</time>
      </trkpt>
      <trkpt lat="44.32253" lon="3.01038">
        <ele>701.4</ele>
        <time>2023-06-25T11:33:53Z</time>
      </trkpt>
      <trkpt lat="44.32254" lon="3.0104">
        <ele>701.6</ele>
        <time>2023-06-25T11:33:55Z</time>
      </trkpt>
      <trkpt lat="44.32254" lon="3.01041">
        <ele>701.8</ele>
        <time>2023-06-25T11:33:56Z</time>
      </trkpt>
      <trkpt lat="44.32254" lon="3.01041">
        <ele>701.9</ele>
        <time>2023-06-25T11:33:58Z</time>
      </trkpt>
      <trkpt lat="44.32254" lon="3.01041">
        <ele>701.9</ele>
        <time>2023-06-25T11:33:59Z</time>
      </trkpt>
      <trkpt lat="44.32254" lon="3.01041">
        <ele>702</ele>
        <time>2023-06-25T11:34:01Z</time>
      </trkpt>
      <trkpt lat="44.32254" lon="3.01041">
        <ele>702</ele>
        <time>2023-06-25T11:34:02Z</time>
      </trkpt>
      <trkpt lat="44.32254" lon="3.01041">
        <ele>702</ele>
        <time>2023-06-25T11:34:04Z</time>
      </trkpt>
      <trkpt lat="44.32254" lon="3.01041">
        <ele>702.1</ele>
        <time>2023-06-25T11:34:05Z</time>
      </trkpt>
      <trkpt lat="44.32255" lon="3.01044">
        <ele>702.6</ele>
        <time>2023-06-25T11:34:07Z</time>
      </trkpt>
      <trkpt lat="44.32257" lon="3.01045">
        <ele>703.2</ele>
        <time>2023-06-25T11:34:09Z</time>
      </trkpt>
      <trkpt lat="44.3226" lon="3.01046">
        <ele>704.1</ele>
        <time>2023-06-25T11:34:10Z</time>
      </trkpt>
      <trkpt lat="44.32262" lon="3.01045">
        <ele>705</ele>
        <time>2023-06-25T11:34:11Z</time>
      </trkpt>
      <trkpt lat="44.32263" lon="3.01045">
        <ele>705.4</ele>
        <time>2023-06-25T11:34:12Z</time>
      </trkpt>
      <trkpt lat="44.32266" lon="3.01046">
        <ele>706.5</ele>
        <time>2023-06-25T11:34:14Z</time>
      </trkpt>
      <trkpt lat="44.32268" lon="3.01048">
        <ele>707</ele>
        <time>2023-06-25T11:34:15Z</time>
      </trkpt>
      <trkpt lat="44.32269" lon="3.01049">
        <ele>707.6</ele>
        <time>2023-06-25T11:34:16Z</time>
      </trkpt>
      <trkpt lat="44.3227" lon="3.0105">
        <ele>708.2</ele>
        <time>2023-06-25T11:34:17Z</time>
      </trkpt>
      <trkpt lat="44.32273" lon="3.01052">
        <ele>709</ele>
        <time>2023-06-25T11:34:19Z</time>
      </trkpt>
      <trkpt lat="44.32277" lon="3.01055">
        <ele>709.9</ele>
        <time>2023-06-25T11:34:21Z</time>
      </trkpt>
      <trkpt lat="44.32279" lon="3.01057">
        <ele>710.1</ele>
        <time>2023-06-25T11:34:22Z</time>
      </trkpt>
      <trkpt lat="44.3228" lon="3.01058">
        <ele>710.3</ele>
        <time>2023-06-25T11:34:23Z</time>
      </trkpt>
      <trkpt lat="44.32282" lon="3.01061">
        <ele>710.6</ele>
        <time>2023-06-25T11:34:25Z</time>
      </trkpt>
      <trkpt lat="44.32283" lon="3.01062">
        <ele>710.8</ele>
        <time>2023-06-25T11:34:26Z</time>
      </trkpt>
      <trkpt lat="44.32286" lon="3.01066">
        <ele>711.2</ele>
        <time>2023-06-25T11:34:27Z</time>
      </trkpt>
      <trkpt lat="44.32287" lon="3.01067">
        <ele>711.4</ele>
        <time>2023-06-25T11:34:28Z</time>
      </trkpt>
      <trkpt lat="44.32289" lon="3.01069">
        <ele>711.8</ele>
        <time>2023-06-25T11:34:29Z</time>
      </trkpt>
      <trkpt lat="44.3229" lon="3.0107">
        <ele>711.9</ele>
        <time>2023-06-25T11:34:30Z</time>
      </trkpt>
      <trkpt lat="44.32294" lon="3.01072">
        <ele>712.4</ele>
        <time>2023-06-25T11:34:31Z</time>
      </trkpt>
      <trkpt lat="44.32295" lon="3.01072">
        <ele>712.6</ele>
        <time>2023-06-25T11:34:32Z</time>
      </trkpt>
      <trkpt lat="44.32298" lon="3.01075">
        <ele>713.2</ele>
        <time>2023-06-25T11:34:34Z</time>
      </trkpt>
      <trkpt lat="44.32299" lon="3.01076">
        <ele>713.3</ele>
        <time>2023-06-25T11:34:35Z</time>
      </trkpt>
      <trkpt lat="44.32303" lon="3.01078">
        <ele>713.9</ele>
        <time>2023-06-25T11:34:36Z</time>
      </trkpt>
      <trkpt lat="44.32304" lon="3.01079">
        <ele>714</ele>
        <time>2023-06-25T11:34:37Z</time>
      </trkpt>
      <trkpt lat="44.32306" lon="3.01081">
        <ele>714.5</ele>
        <time>2023-06-25T11:34:38Z</time>
      </trkpt>
      <trkpt lat="44.32309" lon="3.01084">
        <ele>714.9</ele>
        <time>2023-06-25T11:34:39Z</time>
      </trkpt>
      <trkpt lat="44.32311" lon="3.01087">
        <ele>715.3</ele>
        <time>2023-06-25T11:34:40Z</time>
      </trkpt>
      <trkpt lat="44.32313" lon="3.0109">
        <ele>715.7</ele>
        <time>2023-06-25T11:34:42Z</time>
      </trkpt>
      <trkpt lat="44.32315" lon="3.01093">
        <ele>716.1</ele>
        <time>2023-06-25T11:34:43Z</time>
      </trkpt>
      <trkpt lat="44.32316" lon="3.01096">
        <ele>716.4</ele>
        <time>2023-06-25T11:34:44Z</time>
      </trkpt>
      <trkpt lat="44.32318" lon="3.01101">
        <ele>716.8</ele>
        <time>2023-06-25T11:34:45Z</time>
      </trkpt>
      <trkpt lat="44.32318" lon="3.01102">
        <ele>716.9</ele>
        <time>2023-06-25T11:34:46Z</time>
      </trkpt>
      <trkpt lat="44.32319" lon="3.01104">
        <ele>717.1</ele>
        <time>2023-06-25T11:34:47Z</time>
      </trkpt>
      <trkpt lat="44.32321" lon="3.01108">
        <ele>717.4</ele>
        <time>2023-06-25T11:34:49Z</time>
      </trkpt>
      <trkpt lat="44.32323" lon="3.01112">
        <ele>717.6</ele>
        <time>2023-06-25T11:34:50Z</time>
      </trkpt>
      <trkpt lat="44.32324" lon="3.01117">
        <ele>717.8</ele>
        <time>2023-06-25T11:34:52Z</time>
      </trkpt>
      <trkpt lat="44.32323" lon="3.01122">
        <ele>718</ele>
        <time>2023-06-25T11:34:53Z</time>
      </trkpt>
      <trkpt lat="44.32323" lon="3.01128">
        <ele>718.2</ele>
        <time>2023-06-25T11:34:55Z</time>
      </trkpt>
      <trkpt lat="44.32324" lon="3.01132">
        <ele>718.3</ele>
        <time>2023-06-25T11:34:56Z</time>
      </trkpt>
      <trkpt lat="44.32324" lon="3.01137">
        <ele>718.4</ele>
        <time>2023-06-25T11:34:58Z</time>
      </trkpt>
      <trkpt lat="44.32324" lon="3.01141">
        <ele>718.4</ele>
        <time>2023-06-25T11:34:59Z</time>
      </trkpt>
      <trkpt lat="44.32324" lon="3.01145">
        <ele>718.5</ele>
        <time>2023-06-25T11:35:00Z</time>
      </trkpt>
      <trkpt lat="44.32323" lon="3.01149">
        <ele>718.5</ele>
        <time>2023-06-25T11:35:01Z</time>
      </trkpt>
      <trkpt lat="44.32323" lon="3.01154">
        <ele>718.6</ele>
        <time>2023-06-25T11:35:02Z</time>
      </trkpt>
      <trkpt lat="44.32322" lon="3.01158">
        <ele>718.6</ele>
        <time>2023-06-25T11:35:03Z</time>
      </trkpt>
      <trkpt lat="44.3232" lon="3.01164">
        <ele>718.6</ele>
        <time>2023-06-25T11:35:04Z</time>
      </trkpt>
      <trkpt lat="44.32319" lon="3.0117">
        <ele>718.6</ele>
        <time>2023-06-25T11:35:06Z</time>
      </trkpt>
      <trkpt lat="44.32317" lon="3.01175">
        <ele>718.4</ele>
        <time>2023-06-25T11:35:07Z</time>
      </trkpt>
      <trkpt lat="44.32314" lon="3.01181">
        <ele>718.3</ele>
        <time>2023-06-25T11:35:08Z</time>
      </trkpt>
      <trkpt lat="44.32311" lon="3.01187">
        <ele>718</ele>
        <time>2023-06-25T11:35:09Z</time>
      </trkpt>
      <trkpt lat="44.32308" lon="3.01194">
        <ele>717.8</ele>
        <time>2023-06-25T11:35:10Z</time>
      </trkpt>
      <trkpt lat="44.32306" lon="3.01202">
        <ele>717.7</ele>
        <time>2023-06-25T11:35:11Z</time>
      </trkpt>
      <trkpt lat="44.32305" lon="3.01211">
        <ele>717.6</ele>
        <time>2023-06-25T11:35:13Z</time>
      </trkpt>
      <trkpt lat="44.32303" lon="3.01222">
        <ele>717.9</ele>
        <time>2023-06-25T11:35:14Z</time>
      </trkpt>
      <trkpt lat="44.32304" lon="3.01228">
        <ele>718</ele>
        <time>2023-06-25T11:35:15Z</time>
      </trkpt>
      <trkpt lat="44.32304" lon="3.01233">
        <ele>718.1</ele>
        <time>2023-06-25T11:35:16Z</time>
      </trkpt>
      <trkpt lat="44.32303" lon="3.0124">
        <ele>718.2</ele>
        <time>2023-06-25T11:35:18Z</time>
      </trkpt>
      <trkpt lat="44.32302" lon="3.01244">
        <ele>718.2</ele>
        <time>2023-06-25T11:35:19Z</time>
      </trkpt>
      <trkpt lat="44.32301" lon="3.01249">
        <ele>718.3</ele>
        <time>2023-06-25T11:35:20Z</time>
      </trkpt>
      <trkpt lat="44.323" lon="3.01256">
        <ele>718.3</ele>
        <time>2023-06-25T11:35:22Z</time>
      </trkpt>
      <trkpt lat="44.323" lon="3.0126">
        <ele>718.3</ele>
        <time>2023-06-25T11:35:23Z</time>
      </trkpt>
      <trkpt lat="44.323" lon="3.01266">
        <ele>718.2</ele>
        <time>2023-06-25T11:35:24Z</time>
      </trkpt>
      <trkpt lat="44.32299" lon="3.0127">
        <ele>718.2</ele>
        <time>2023-06-25T11:35:25Z</time>
      </trkpt>
      <trkpt lat="44.32299" lon="3.01275">
        <ele>718.2</ele>
        <time>2023-06-25T11:35:27Z</time>
      </trkpt>
      <trkpt lat="44.32299" lon="3.01279">
        <ele>718.1</ele>
        <time>2023-06-25T11:35:28Z</time>
      </trkpt>
      <trkpt lat="44.32299" lon="3.0128">
        <ele>718.1</ele>
        <time>2023-06-25T11:35:29Z</time>
      </trkpt>
      <trkpt lat="44.32297" lon="3.01283">
        <ele>718</ele>
        <time>2023-06-25T11:35:30Z</time>
      </trkpt>
      <trkpt lat="44.32295" lon="3.01292">
        <ele>717.7</ele>
        <time>2023-06-25T11:35:32Z</time>
      </trkpt>
      <trkpt lat="44.32294" lon="3.01296">
        <ele>717.5</ele>
        <time>2023-06-25T11:35:34Z</time>
      </trkpt>
      <trkpt lat="44.32292" lon="3.013">
        <ele>717.3</ele>
        <time>2023-06-25T11:35:35Z</time>
      </trkpt>
      <trkpt lat="44.32289" lon="3.01303">
        <ele>717.1</ele>
        <time>2023-06-25T11:35:36Z</time>
      </trkpt>
      <trkpt lat="44.32287" lon="3.01306">
        <ele>716.9</ele>
        <time>2023-06-25T11:35:37Z</time>
      </trkpt>
      <trkpt lat="44.32283" lon="3.01312">
        <ele>716.6</ele>
        <time>2023-06-25T11:35:38Z</time>
      </trkpt>
      <trkpt lat="44.32275" lon="3.01321">
        <ele>716.1</ele>
        <time>2023-06-25T11:35:40Z</time>
      </trkpt>
      <trkpt lat="44.3227" lon="3.01326">
        <ele>715.8</ele>
        <time>2023-06-25T11:35:41Z</time>
      </trkpt>
      <trkpt lat="44.32266" lon="3.01332">
        <ele>715.6</ele>
        <time>2023-06-25T11:35:42Z</time>
      </trkpt>
      <trkpt lat="44.32261" lon="3.01337">
        <ele>715.4</ele>
        <time>2023-06-25T11:35:43Z</time>
      </trkpt>
      <trkpt lat="44.32257" lon="3.01342">
        <ele>715.3</ele>
        <time>2023-06-25T11:35:44Z</time>
      </trkpt>
      <trkpt lat="44.32252" lon="3.01347">
        <ele>715.2</ele>
        <time>2023-06-25T11:35:45Z</time>
      </trkpt>
      <trkpt lat="44.32248" lon="3.01353">
        <ele>715.2</ele>
        <time>2023-06-25T11:35:46Z</time>
      </trkpt>
      <trkpt lat="44.32243" lon="3.01357">
        <ele>715.3</ele>
        <time>2023-06-25T11:35:47Z</time>
      </trkpt>
      <trkpt lat="44.32238" lon="3.01361">
        <ele>715.4</ele>
        <time>2023-06-25T11:35:48Z</time>
      </trkpt>
      <trkpt lat="44.32233" lon="3.01363">
        <ele>715.5</ele>
        <time>2023-06-25T11:35:49Z</time>
      </trkpt>
      <trkpt lat="44.32229" lon="3.01365">
        <ele>715.6</ele>
        <time>2023-06-25T11:35:50Z</time>
      </trkpt>
      <trkpt lat="44.32226" lon="3.01367">
        <ele>715.7</ele>
        <time>2023-06-25T11:35:51Z</time>
      </trkpt>
      <trkpt lat="44.32223" lon="3.01369">
        <ele>715.8</ele>
        <time>2023-06-25T11:35:52Z</time>
      </trkpt>
      <trkpt lat="44.32223" lon="3.01369">
        <ele>715.9</ele>
        <time>2023-06-25T11:35:53Z</time>
      </trkpt>
      <trkpt lat="44.32219" lon="3.01371">
        <ele>716</ele>
        <time>2023-06-25T11:35:54Z</time>
      </trkpt>
      <trkpt lat="44.32219" lon="3.01372">
        <ele>716.1</ele>
        <time>2023-06-25T11:35:55Z</time>
      </trkpt>
      <trkpt lat="44.32217" lon="3.01373">
        <ele>716.2</ele>
        <time>2023-06-25T11:35:56Z</time>
      </trkpt>
      <trkpt lat="44.32216" lon="3.01373">
        <ele>716.2</ele>
        <time>2023-06-25T11:35:57Z</time>
      </trkpt>
      <trkpt lat="44.32215" lon="3.01374">
        <ele>716.2</ele>
        <time>2023-06-25T11:35:58Z</time>
      </trkpt>
      <trkpt lat="44.32214" lon="3.01374">
        <ele>716.3</ele>
        <time>2023-06-25T11:36:00Z</time>
      </trkpt>
      <trkpt lat="44.32214" lon="3.01375">
        <ele>716.3</ele>
        <time>2023-06-25T11:36:02Z</time>
      </trkpt>
      <trkpt lat="44.32213" lon="3.01376">
        <ele>716.4</ele>
        <time>2023-06-25T11:36:04Z</time>
      </trkpt>
      <trkpt lat="44.32212" lon="3.01376">
        <ele>716.4</ele>
        <time>2023-06-25T11:36:05Z</time>
      </trkpt>
      <trkpt lat="44.32212" lon="3.01377">
        <ele>716.4</ele>
        <time>2023-06-25T11:36:06Z</time>
      </trkpt>
      <trkpt lat="44.32211" lon="3.01377">
        <ele>716.7</ele>
        <time>2023-06-25T11:36:08Z</time>
      </trkpt>
      <trkpt lat="44.3221" lon="3.01378">
        <ele>716.8</ele>
        <time>2023-06-25T11:36:50Z</time>
      </trkpt>
      <trkpt lat="44.32209" lon="3.01379">
        <ele>716.8</ele>
        <time>2023-06-25T11:36:51Z</time>
      </trkpt>
      <trkpt lat="44.32205" lon="3.01385">
        <ele>717.2</ele>
        <time>2023-06-25T11:36:53Z</time>
      </trkpt>
      <trkpt lat="44.32203" lon="3.01388">
        <ele>717.5</ele>
        <time>2023-06-25T11:36:54Z</time>
      </trkpt>
      <trkpt lat="44.322" lon="3.01392">
        <ele>717.8</ele>
        <time>2023-06-25T11:36:55Z</time>
      </trkpt>
      <trkpt lat="44.32198" lon="3.01395">
        <ele>718</ele>
        <time>2023-06-25T11:36:56Z</time>
      </trkpt>
      <trkpt lat="44.32196" lon="3.01399">
        <ele>718.3</ele>
        <time>2023-06-25T11:36:57Z</time>
      </trkpt>
      <trkpt lat="44.32195" lon="3.01401">
        <ele>718.3</ele>
        <time>2023-06-25T11:36:58Z</time>
      </trkpt>
      <trkpt lat="44.32194" lon="3.01403">
        <ele>718.5</ele>
        <time>2023-06-25T11:36:59Z</time>
      </trkpt>
      <trkpt lat="44.32193" lon="3.01405">
        <ele>718.6</ele>
        <time>2023-06-25T11:37:01Z</time>
      </trkpt>
      <trkpt lat="44.32191" lon="3.01408">
        <ele>718.8</ele>
        <time>2023-06-25T11:37:02Z</time>
      </trkpt>
      <trkpt lat="44.3219" lon="3.01409">
        <ele>718.9</ele>
        <time>2023-06-25T11:37:03Z</time>
      </trkpt>
      <trkpt lat="44.32188" lon="3.01413">
        <ele>719.1</ele>
        <time>2023-06-25T11:37:04Z</time>
      </trkpt>
      <trkpt lat="44.32187" lon="3.01414">
        <ele>719.2</ele>
        <time>2023-06-25T11:37:05Z</time>
      </trkpt>
      <trkpt lat="44.32184" lon="3.01419">
        <ele>719.5</ele>
        <time>2023-06-25T11:37:07Z</time>
      </trkpt>
      <trkpt lat="44.32179" lon="3.01427">
        <ele>719.9</ele>
        <time>2023-06-25T11:37:09Z</time>
      </trkpt>
      <trkpt lat="44.32176" lon="3.01432">
        <ele>720.2</ele>
        <time>2023-06-25T11:37:11Z</time>
      </trkpt>
      <trkpt lat="44.32174" lon="3.01435">
        <ele>720.4</ele>
        <time>2023-06-25T11:37:12Z</time>
      </trkpt>
      <trkpt lat="44.3217" lon="3.0144">
        <ele>720.6</ele>
        <time>2023-06-25T11:37:13Z</time>
      </trkpt>
      <trkpt lat="44.32166" lon="3.01444">
        <ele>720.8</ele>
        <time>2023-06-25T11:37:15Z</time>
      </trkpt>
      <trkpt lat="44.32163" lon="3.01448">
        <ele>721</ele>
        <time>2023-06-25T11:37:16Z</time>
      </trkpt>
      <trkpt lat="44.3216" lon="3.01452">
        <ele>721.2</ele>
        <time>2023-06-25T11:37:17Z</time>
      </trkpt>
      <trkpt lat="44.32157" lon="3.01458">
        <ele>721.4</ele>
        <time>2023-06-25T11:37:19Z</time>
      </trkpt>
      <trkpt lat="44.32155" lon="3.01462">
        <ele>721.5</ele>
        <time>2023-06-25T11:37:20Z</time>
      </trkpt>
      <trkpt lat="44.32152" lon="3.01468">
        <ele>721.5</ele>
        <time>2023-06-25T11:37:21Z</time>
      </trkpt>
      <trkpt lat="44.32149" lon="3.01473">
        <ele>721.6</ele>
        <time>2023-06-25T11:37:22Z</time>
      </trkpt>
      <trkpt lat="44.32147" lon="3.01477">
        <ele>721.6</ele>
        <time>2023-06-25T11:37:23Z</time>
      </trkpt>
      <trkpt lat="44.32144" lon="3.01482">
        <ele>721.6</ele>
        <time>2023-06-25T11:37:24Z</time>
      </trkpt>
      <trkpt lat="44.32141" lon="3.01489">
        <ele>721.5</ele>
        <time>2023-06-25T11:37:26Z</time>
      </trkpt>
      <trkpt lat="44.32139" lon="3.01494">
        <ele>721.3</ele>
        <time>2023-06-25T11:37:27Z</time>
      </trkpt>
      <trkpt lat="44.32136" lon="3.015">
        <ele>721.1</ele>
        <time>2023-06-25T11:37:28Z</time>
      </trkpt>
      <trkpt lat="44.32134" lon="3.01507">
        <ele>720.9</ele>
        <time>2023-06-25T11:37:29Z</time>
      </trkpt>
      <trkpt lat="44.32131" lon="3.01513">
        <ele>720.6</ele>
        <time>2023-06-25T11:37:30Z</time>
      </trkpt>
      <trkpt lat="44.32128" lon="3.0152">
        <ele>720.3</ele>
        <time>2023-06-25T11:37:31Z</time>
      </trkpt>
      <trkpt lat="44.32125" lon="3.01527">
        <ele>720.1</ele>
        <time>2023-06-25T11:37:32Z</time>
      </trkpt>
      <trkpt lat="44.32122" lon="3.01535">
        <ele>719.8</ele>
        <time>2023-06-25T11:37:33Z</time>
      </trkpt>
      <trkpt lat="44.32119" lon="3.01543">
        <ele>719.6</ele>
        <time>2023-06-25T11:37:34Z</time>
      </trkpt>
      <trkpt lat="44.32116" lon="3.01551">
        <ele>719.3</ele>
        <time>2023-06-25T11:37:35Z</time>
      </trkpt>
      <trkpt lat="44.32113" lon="3.01559">
        <ele>719.1</ele>
        <time>2023-06-25T11:37:36Z</time>
      </trkpt>
      <trkpt lat="44.3211" lon="3.01568">
        <ele>719</ele>
        <time>2023-06-25T11:37:37Z</time>
      </trkpt>
      <trkpt lat="44.32107" lon="3.01576">
        <ele>718.9</ele>
        <time>2023-06-25T11:37:38Z</time>
      </trkpt>
      <trkpt lat="44.32103" lon="3.01584">
        <ele>718.8</ele>
        <time>2023-06-25T11:37:39Z</time>
      </trkpt>
      <trkpt lat="44.321" lon="3.01593">
        <ele>718.8</ele>
        <time>2023-06-25T11:37:40Z</time>
      </trkpt>
      <trkpt lat="44.32097" lon="3.01601">
        <ele>718.8</ele>
        <time>2023-06-25T11:37:41Z</time>
      </trkpt>
      <trkpt lat="44.32095" lon="3.01609">
        <ele>718.8</ele>
        <time>2023-06-25T11:37:42Z</time>
      </trkpt>
      <trkpt lat="44.32093" lon="3.01617">
        <ele>718.9</ele>
        <time>2023-06-25T11:37:43Z</time>
      </trkpt>
      <trkpt lat="44.32091" lon="3.01625">
        <ele>718.9</ele>
        <time>2023-06-25T11:37:44Z</time>
      </trkpt>
      <trkpt lat="44.32089" lon="3.01633">
        <ele>718.9</ele>
        <time>2023-06-25T11:37:45Z</time>
      </trkpt>
      <trkpt lat="44.32087" lon="3.01642">
        <ele>718.9</ele>
        <time>2023-06-25T11:37:46Z</time>
      </trkpt>
      <trkpt lat="44.32085" lon="3.0165">
        <ele>718.7</ele>
        <time>2023-06-25T11:37:47Z</time>
      </trkpt>
      <trkpt lat="44.32083" lon="3.01659">
        <ele>718.5</ele>
        <time>2023-06-25T11:37:48Z</time>
      </trkpt>
      <trkpt lat="44.32081" lon="3.01668">
        <ele>718.3</ele>
        <time>2023-06-25T11:37:49Z</time>
      </trkpt>
      <trkpt lat="44.32078" lon="3.01677">
        <ele>718.2</ele>
        <time>2023-06-25T11:37:50Z</time>
      </trkpt>
      <trkpt lat="44.32075" lon="3.01685">
        <ele>718</ele>
        <time>2023-06-25T11:37:51Z</time>
      </trkpt>
      <trkpt lat="44.32072" lon="3.01693">
        <ele>717.9</ele>
        <time>2023-06-25T11:37:52Z</time>
      </trkpt>
      <trkpt lat="44.3207" lon="3.01701">
        <ele>717.9</ele>
        <time>2023-06-25T11:37:53Z</time>
      </trkpt>
      <trkpt lat="44.32067" lon="3.01709">
        <ele>717.9</ele>
        <time>2023-06-25T11:37:54Z</time>
      </trkpt>
      <trkpt lat="44.32065" lon="3.01717">
        <ele>717.9</ele>
        <time>2023-06-25T11:37:55Z</time>
      </trkpt>
      <trkpt lat="44.32064" lon="3.01726">
        <ele>718</ele>
        <time>2023-06-25T11:37:56Z</time>
      </trkpt>
      <trkpt lat="44.32062" lon="3.01733">
        <ele>718.1</ele>
        <time>2023-06-25T11:37:57Z</time>
      </trkpt>
      <trkpt lat="44.3206" lon="3.01742">
        <ele>718.1</ele>
        <time>2023-06-25T11:37:58Z</time>
      </trkpt>
      <trkpt lat="44.32058" lon="3.01749">
        <ele>718.2</ele>
        <time>2023-06-25T11:37:59Z</time>
      </trkpt>
      <trkpt lat="44.32056" lon="3.01757">
        <ele>718.3</ele>
        <time>2023-06-25T11:38:00Z</time>
      </trkpt>
      <trkpt lat="44.32054" lon="3.01765">
        <ele>718.3</ele>
        <time>2023-06-25T11:38:01Z</time>
      </trkpt>
      <trkpt lat="44.32052" lon="3.01773">
        <ele>718.4</ele>
        <time>2023-06-25T11:38:02Z</time>
      </trkpt>
      <trkpt lat="44.3205" lon="3.0178">
        <ele>718.5</ele>
        <time>2023-06-25T11:38:03Z</time>
      </trkpt>
      <trkpt lat="44.32048" lon="3.01788">
        <ele>718.6</ele>
        <time>2023-06-25T11:38:04Z</time>
      </trkpt>
      <trkpt lat="44.32045" lon="3.01796">
        <ele>718.7</ele>
        <time>2023-06-25T11:38:05Z</time>
      </trkpt>
      <trkpt lat="44.32043" lon="3.01803">
        <ele>718.8</ele>
        <time>2023-06-25T11:38:06Z</time>
      </trkpt>
      <trkpt lat="44.32041" lon="3.01811">
        <ele>718.8</ele>
        <time>2023-06-25T11:38:07Z</time>
      </trkpt>
      <trkpt lat="44.3204" lon="3.01818">
        <ele>718.9</ele>
        <time>2023-06-25T11:38:08Z</time>
      </trkpt>
      <trkpt lat="44.32038" lon="3.01825">
        <ele>719</ele>
        <time>2023-06-25T11:38:09Z</time>
      </trkpt>
      <trkpt lat="44.32036" lon="3.01833">
        <ele>719</ele>
        <time>2023-06-25T11:38:10Z</time>
      </trkpt>
      <trkpt lat="44.32034" lon="3.0184">
        <ele>719</ele>
        <time>2023-06-25T11:38:11Z</time>
      </trkpt>
      <trkpt lat="44.32032" lon="3.01847">
        <ele>719.1</ele>
        <time>2023-06-25T11:38:12Z</time>
      </trkpt>
      <trkpt lat="44.32029" lon="3.01855">
        <ele>719.1</ele>
        <time>2023-06-25T11:38:13Z</time>
      </trkpt>
      <trkpt lat="44.32027" lon="3.01861">
        <ele>719.1</ele>
        <time>2023-06-25T11:38:14Z</time>
      </trkpt>
      <trkpt lat="44.32026" lon="3.01868">
        <ele>719.1</ele>
        <time>2023-06-25T11:38:15Z</time>
      </trkpt>
      <trkpt lat="44.32023" lon="3.01873">
        <ele>719.1</ele>
        <time>2023-06-25T11:38:16Z</time>
      </trkpt>
      <trkpt lat="44.3202" lon="3.0188">
        <ele>719.1</ele>
        <time>2023-06-25T11:38:17Z</time>
      </trkpt>
      <trkpt lat="44.32018" lon="3.01886">
        <ele>719</ele>
        <time>2023-06-25T11:38:18Z</time>
      </trkpt>
      <trkpt lat="44.32015" lon="3.01893">
        <ele>718.9</ele>
        <time>2023-06-25T11:38:19Z</time>
      </trkpt>
      <trkpt lat="44.32012" lon="3.019">
        <ele>718.7</ele>
        <time>2023-06-25T11:38:20Z</time>
      </trkpt>
      <trkpt lat="44.3201" lon="3.01907">
        <ele>718.6</ele>
        <time>2023-06-25T11:38:21Z</time>
      </trkpt>
      <trkpt lat="44.32008" lon="3.01915">
        <ele>718.3</ele>
        <time>2023-06-25T11:38:22Z</time>
      </trkpt>
      <trkpt lat="44.32007" lon="3.01924">
        <ele>718</ele>
        <time>2023-06-25T11:38:23Z</time>
      </trkpt>
      <trkpt lat="44.32006" lon="3.01933">
        <ele>717.7</ele>
        <time>2023-06-25T11:38:24Z</time>
      </trkpt>
      <trkpt lat="44.32006" lon="3.01942">
        <ele>717.4</ele>
        <time>2023-06-25T11:38:25Z</time>
      </trkpt>
      <trkpt lat="44.32006" lon="3.01952">
        <ele>717.1</ele>
        <time>2023-06-25T11:38:26Z</time>
      </trkpt>
      <trkpt lat="44.32007" lon="3.01961">
        <ele>716.9</ele>
        <time>2023-06-25T11:38:27Z</time>
      </trkpt>
      <trkpt lat="44.32008" lon="3.0197">
        <ele>716.6</ele>
        <time>2023-06-25T11:38:28Z</time>
      </trkpt>
      <trkpt lat="44.3201" lon="3.0198">
        <ele>716.3</ele>
        <time>2023-06-25T11:38:29Z</time>
      </trkpt>
      <trkpt lat="44.32011" lon="3.01989">
        <ele>716</ele>
        <time>2023-06-25T11:38:30Z</time>
      </trkpt>
      <trkpt lat="44.32011" lon="3.01998">
        <ele>715.7</ele>
        <time>2023-06-25T11:38:31Z</time>
      </trkpt>
      <trkpt lat="44.32012" lon="3.02008">
        <ele>715.4</ele>
        <time>2023-06-25T11:38:32Z</time>
      </trkpt>
      <trkpt lat="44.32013" lon="3.02018">
        <ele>715.1</ele>
        <time>2023-06-25T11:38:33Z</time>
      </trkpt>
      <trkpt lat="44.32013" lon="3.02026">
        <ele>714.9</ele>
        <time>2023-06-25T11:38:34Z</time>
      </trkpt>
      <trkpt lat="44.32011" lon="3.02034">
        <ele>714.7</ele>
        <time>2023-06-25T11:38:35Z</time>
      </trkpt>
      <trkpt lat="44.32008" lon="3.02039">
        <ele>714.7</ele>
        <time>2023-06-25T11:38:36Z</time>
      </trkpt>
      <trkpt lat="44.32004" lon="3.02043">
        <ele>714.6</ele>
        <time>2023-06-25T11:38:37Z</time>
      </trkpt>
      <trkpt lat="44.32001" lon="3.02046">
        <ele>714.7</ele>
        <time>2023-06-25T11:38:38Z</time>
      </trkpt>
      <trkpt lat="44.31998" lon="3.0205">
        <ele>714.9</ele>
        <time>2023-06-25T11:38:39Z</time>
      </trkpt>
      <trkpt lat="44.31998" lon="3.02052">
        <ele>715.1</ele>
        <time>2023-06-25T11:38:40Z</time>
      </trkpt>
      <trkpt lat="44.31997" lon="3.02059">
        <ele>715.4</ele>
        <time>2023-06-25T11:38:41Z</time>
      </trkpt>
      <trkpt lat="44.31997" lon="3.02063">
        <ele>715.6</ele>
        <time>2023-06-25T11:38:42Z</time>
      </trkpt>
      <trkpt lat="44.31997" lon="3.02067">
        <ele>715.8</ele>
        <time>2023-06-25T11:38:43Z</time>
      </trkpt>
      <trkpt lat="44.31997" lon="3.02073">
        <ele>716.1</ele>
        <time>2023-06-25T11:38:44Z</time>
      </trkpt>
      <trkpt lat="44.31997" lon="3.02078">
        <ele>716.3</ele>
        <time>2023-06-25T11:38:45Z</time>
      </trkpt>
      <trkpt lat="44.31999" lon="3.02087">
        <ele>716.8</ele>
        <time>2023-06-25T11:38:47Z</time>
      </trkpt>
      <trkpt lat="44.32" lon="3.02093">
        <ele>717.1</ele>
        <time>2023-06-25T11:38:48Z</time>
      </trkpt>
      <trkpt lat="44.32001" lon="3.02099">
        <ele>717.4</ele>
        <time>2023-06-25T11:38:49Z</time>
      </trkpt>
      <trkpt lat="44.32003" lon="3.02104">
        <ele>717.7</ele>
        <time>2023-06-25T11:38:50Z</time>
      </trkpt>
      <trkpt lat="44.32005" lon="3.02111">
        <ele>718.1</ele>
        <time>2023-06-25T11:38:52Z</time>
      </trkpt>
      <trkpt lat="44.32007" lon="3.02116">
        <ele>718.4</ele>
        <time>2023-06-25T11:38:53Z</time>
      </trkpt>
      <trkpt lat="44.32009" lon="3.02121">
        <ele>718.7</ele>
        <time>2023-06-25T11:38:54Z</time>
      </trkpt>
      <trkpt lat="44.32011" lon="3.02127">
        <ele>719</ele>
        <time>2023-06-25T11:38:55Z</time>
      </trkpt>
      <trkpt lat="44.32013" lon="3.02132">
        <ele>719.2</ele>
        <time>2023-06-25T11:38:56Z</time>
      </trkpt>
      <trkpt lat="44.32015" lon="3.02137">
        <ele>719.5</ele>
        <time>2023-06-25T11:38:57Z</time>
      </trkpt>
      <trkpt lat="44.32017" lon="3.02144">
        <ele>719.9</ele>
        <time>2023-06-25T11:38:58Z</time>
      </trkpt>
      <trkpt lat="44.32021" lon="3.02153">
        <ele>720.3</ele>
        <time>2023-06-25T11:39:00Z</time>
      </trkpt>
      <trkpt lat="44.32023" lon="3.02159">
        <ele>720.6</ele>
        <time>2023-06-25T11:39:01Z</time>
      </trkpt>
      <trkpt lat="44.32026" lon="3.02169">
        <ele>721</ele>
        <time>2023-06-25T11:39:03Z</time>
      </trkpt>
      <trkpt lat="44.32029" lon="3.02175">
        <ele>721.2</ele>
        <time>2023-06-25T11:39:04Z</time>
      </trkpt>
      <trkpt lat="44.3203" lon="3.02181">
        <ele>721.5</ele>
        <time>2023-06-25T11:39:05Z</time>
      </trkpt>
      <trkpt lat="44.32032" lon="3.02187">
        <ele>721.7</ele>
        <time>2023-06-25T11:39:06Z</time>
      </trkpt>
      <trkpt lat="44.32033" lon="3.02192">
        <ele>721.9</ele>
        <time>2023-06-25T11:39:07Z</time>
      </trkpt>
      <trkpt lat="44.32035" lon="3.022">
        <ele>722.2</ele>
        <time>2023-06-25T11:39:09Z</time>
      </trkpt>
      <trkpt lat="44.32036" lon="3.02206">
        <ele>722.4</ele>
        <time>2023-06-25T11:39:10Z</time>
      </trkpt>
      <trkpt lat="44.32037" lon="3.02211">
        <ele>722.6</ele>
        <time>2023-06-25T11:39:11Z</time>
      </trkpt>
      <trkpt lat="44.32039" lon="3.02216">
        <ele>722.8</ele>
        <time>2023-06-25T11:39:12Z</time>
      </trkpt>
      <trkpt lat="44.32041" lon="3.02225">
        <ele>723.2</ele>
        <time>2023-06-25T11:39:14Z</time>
      </trkpt>
      <trkpt lat="44.32042" lon="3.0223">
        <ele>723.4</ele>
        <time>2023-06-25T11:39:15Z</time>
      </trkpt>
      <trkpt lat="44.32043" lon="3.02236">
        <ele>723.6</ele>
        <time>2023-06-25T11:39:16Z</time>
      </trkpt>
      <trkpt lat="44.32045" lon="3.02246">
        <ele>724</ele>
        <time>2023-06-25T11:39:18Z</time>
      </trkpt>
      <trkpt lat="44.32046" lon="3.02251">
        <ele>724.1</ele>
        <time>2023-06-25T11:39:19Z</time>
      </trkpt>
      <trkpt lat="44.32048" lon="3.02257">
        <ele>724.2</ele>
        <time>2023-06-25T11:39:20Z</time>
      </trkpt>
      <trkpt lat="44.32051" lon="3.02264">
        <ele>724.3</ele>
        <time>2023-06-25T11:39:22Z</time>
      </trkpt>
      <trkpt lat="44.32054" lon="3.02266">
        <ele>724.6</ele>
        <time>2023-06-25T11:39:23Z</time>
      </trkpt>
      <trkpt lat="44.32059" lon="3.02266">
        <ele>725</ele>
        <time>2023-06-25T11:39:25Z</time>
      </trkpt>
      <trkpt lat="44.32062" lon="3.02263">
        <ele>725.2</ele>
        <time>2023-06-25T11:39:26Z</time>
      </trkpt>
      <trkpt lat="44.32064" lon="3.02261">
        <ele>725.4</ele>
        <time>2023-06-25T11:39:27Z</time>
      </trkpt>
      <trkpt lat="44.32067" lon="3.02259">
        <ele>725.7</ele>
        <time>2023-06-25T11:39:28Z</time>
      </trkpt>
      <trkpt lat="44.32069" lon="3.02258">
        <ele>725.9</ele>
        <time>2023-06-25T11:39:29Z</time>
      </trkpt>
      <trkpt lat="44.32073" lon="3.02256">
        <ele>726.1</ele>
        <time>2023-06-25T11:39:31Z</time>
      </trkpt>
      <trkpt lat="44.32075" lon="3.02255">
        <ele>726.4</ele>
        <time>2023-06-25T11:39:32Z</time>
      </trkpt>
      <trkpt lat="44.32079" lon="3.02255">
        <ele>726.7</ele>
        <time>2023-06-25T11:39:33Z</time>
      </trkpt>
      <trkpt lat="44.32082" lon="3.02255">
        <ele>726.9</ele>
        <time>2023-06-25T11:39:34Z</time>
      </trkpt>
      <trkpt lat="44.32086" lon="3.02255">
        <ele>727.2</ele>
        <time>2023-06-25T11:39:35Z</time>
      </trkpt>
      <trkpt lat="44.32087" lon="3.02256">
        <ele>727.3</ele>
        <time>2023-06-25T11:39:36Z</time>
      </trkpt>
      <trkpt lat="44.3209" lon="3.02257">
        <ele>727.6</ele>
        <time>2023-06-25T11:39:37Z</time>
      </trkpt>
      <trkpt lat="44.32096" lon="3.02261">
        <ele>728.1</ele>
        <time>2023-06-25T11:39:39Z</time>
      </trkpt>
      <trkpt lat="44.32098" lon="3.02264">
        <ele>728.4</ele>
        <time>2023-06-25T11:39:41Z</time>
      </trkpt>
      <trkpt lat="44.32101" lon="3.02265">
        <ele>728.6</ele>
        <time>2023-06-25T11:39:42Z</time>
      </trkpt>
      <trkpt lat="44.32104" lon="3.02266">
        <ele>728.8</ele>
        <time>2023-06-25T11:39:43Z</time>
      </trkpt>
      <trkpt lat="44.32107" lon="3.02266">
        <ele>729.1</ele>
        <time>2023-06-25T11:39:44Z</time>
      </trkpt>
      <trkpt lat="44.3211" lon="3.02264">
        <ele>729.3</ele>
        <time>2023-06-25T11:39:45Z</time>
      </trkpt>
      <trkpt lat="44.32113" lon="3.02265">
        <ele>729.6</ele>
        <time>2023-06-25T11:39:46Z</time>
      </trkpt>
      <trkpt lat="44.32116" lon="3.02267">
        <ele>729.9</ele>
        <time>2023-06-25T11:39:48Z</time>
      </trkpt>
      <trkpt lat="44.32119" lon="3.02268">
        <ele>730.3</ele>
        <time>2023-06-25T11:39:49Z</time>
      </trkpt>
      <trkpt lat="44.32123" lon="3.02268">
        <ele>730.6</ele>
        <time>2023-06-25T11:39:50Z</time>
      </trkpt>
      <trkpt lat="44.32124" lon="3.02269">
        <ele>730.7</ele>
        <time>2023-06-25T11:39:51Z</time>
      </trkpt>
      <trkpt lat="44.32128" lon="3.0227">
        <ele>731</ele>
        <time>2023-06-25T11:39:53Z</time>
      </trkpt>
      <trkpt lat="44.32132" lon="3.0227">
        <ele>731.3</ele>
        <time>2023-06-25T11:39:54Z</time>
      </trkpt>
      <trkpt lat="44.32133" lon="3.02271">
        <ele>731.4</ele>
        <time>2023-06-25T11:39:55Z</time>
      </trkpt>
      <trkpt lat="44.32137" lon="3.02272">
        <ele>731.6</ele>
        <time>2023-06-25T11:39:56Z</time>
      </trkpt>
      <trkpt lat="44.32139" lon="3.02272">
        <ele>731.7</ele>
        <time>2023-06-25T11:39:57Z</time>
      </trkpt>
      <trkpt lat="44.32142" lon="3.02273">
        <ele>731.8</ele>
        <time>2023-06-25T11:39:58Z</time>
      </trkpt>
      <trkpt lat="44.32146" lon="3.02274">
        <ele>732</ele>
        <time>2023-06-25T11:40:00Z</time>
      </trkpt>
      <trkpt lat="44.32149" lon="3.02274">
        <ele>732.1</ele>
        <time>2023-06-25T11:40:01Z</time>
      </trkpt>
      <trkpt lat="44.32152" lon="3.02274">
        <ele>732.1</ele>
        <time>2023-06-25T11:40:02Z</time>
      </trkpt>
      <trkpt lat="44.32153" lon="3.02274">
        <ele>732.1</ele>
        <time>2023-06-25T11:40:03Z</time>
      </trkpt>
      <trkpt lat="44.32153" lon="3.02274">
        <ele>732.1</ele>
        <time>2023-06-25T11:40:05Z</time>
      </trkpt>
      <trkpt lat="44.32154" lon="3.02275">
        <ele>732.1</ele>
        <time>2023-06-25T11:40:06Z</time>
      </trkpt>
      <trkpt lat="44.32155" lon="3.02275">
        <ele>732.2</ele>
        <time>2023-06-25T11:40:08Z</time>
      </trkpt>
      <trkpt lat="44.32156" lon="3.02275">
        <ele>732.2</ele>
        <time>2023-06-25T11:40:09Z</time>
      </trkpt>
      <trkpt lat="44.32157" lon="3.02275">
        <ele>732.2</ele>
        <time>2023-06-25T11:40:11Z</time>
      </trkpt>
      <trkpt lat="44.32158" lon="3.02275">
        <ele>732.2</ele>
        <time>2023-06-25T11:40:12Z</time>
      </trkpt>
      <trkpt lat="44.32159" lon="3.02275">
        <ele>732.2</ele>
        <time>2023-06-25T11:40:13Z</time>
      </trkpt>
      <trkpt lat="44.3216" lon="3.02275">
        <ele>732.2</ele>
        <time>2023-06-25T11:40:52Z</time>
      </trkpt>
      <trkpt lat="44.32161" lon="3.02275">
        <ele>732.2</ele>
        <time>2023-06-25T11:40:53Z</time>
      </trkpt>
      <trkpt lat="44.32165" lon="3.02276">
        <ele>732.1</ele>
        <time>2023-06-25T11:40:54Z</time>
      </trkpt>
      <trkpt lat="44.32169" lon="3.02277">
        <ele>732.1</ele>
        <time>2023-06-25T11:40:55Z</time>
      </trkpt>
      <trkpt lat="44.32174" lon="3.02279">
        <ele>731.9</ele>
        <time>2023-06-25T11:40:56Z</time>
      </trkpt>
      <trkpt lat="44.32179" lon="3.0228">
        <ele>731.8</ele>
        <time>2023-06-25T11:40:57Z</time>
      </trkpt>
      <trkpt lat="44.32184" lon="3.0228">
        <ele>731.6</ele>
        <time>2023-06-25T11:40:59Z</time>
      </trkpt>
      <trkpt lat="44.32188" lon="3.0228">
        <ele>731.4</ele>
        <time>2023-06-25T11:41:00Z</time>
      </trkpt>
      <trkpt lat="44.32191" lon="3.0228">
        <ele>731.3</ele>
        <time>2023-06-25T11:41:01Z</time>
      </trkpt>
      <trkpt lat="44.32195" lon="3.02281">
        <ele>731.2</ele>
        <time>2023-06-25T11:41:02Z</time>
      </trkpt>
      <trkpt lat="44.32199" lon="3.02282">
        <ele>731</ele>
        <time>2023-06-25T11:41:03Z</time>
      </trkpt>
      <trkpt lat="44.32203" lon="3.02284">
        <ele>730.9</ele>
        <time>2023-06-25T11:41:04Z</time>
      </trkpt>
      <trkpt lat="44.32212" lon="3.02286">
        <ele>730.6</ele>
        <time>2023-06-25T11:41:06Z</time>
      </trkpt>
      <trkpt lat="44.32217" lon="3.02288">
        <ele>730.4</ele>
        <time>2023-06-25T11:41:08Z</time>
      </trkpt>
      <trkpt lat="44.32221" lon="3.02288">
        <ele>730.2</ele>
        <time>2023-06-25T11:41:09Z</time>
      </trkpt>
      <trkpt lat="44.32226" lon="3.02289">
        <ele>729.9</ele>
        <time>2023-06-25T11:41:10Z</time>
      </trkpt>
      <trkpt lat="44.32231" lon="3.02289">
        <ele>729.6</ele>
        <time>2023-06-25T11:41:11Z</time>
      </trkpt>
      <trkpt lat="44.32236" lon="3.0229">
        <ele>729.2</ele>
        <time>2023-06-25T11:41:12Z</time>
      </trkpt>
      <trkpt lat="44.32242" lon="3.0229">
        <ele>728.6</ele>
        <time>2023-06-25T11:41:14Z</time>
      </trkpt>
      <trkpt lat="44.32246" lon="3.0229">
        <ele>728.3</ele>
        <time>2023-06-25T11:41:15Z</time>
      </trkpt>
      <trkpt lat="44.32252" lon="3.02289">
        <ele>727.8</ele>
        <time>2023-06-25T11:41:16Z</time>
      </trkpt>
      <trkpt lat="44.32258" lon="3.02288">
        <ele>727.3</ele>
        <time>2023-06-25T11:41:17Z</time>
      </trkpt>
      <trkpt lat="44.3226" lon="3.02289">
        <ele>727.1</ele>
        <time>2023-06-25T11:41:18Z</time>
      </trkpt>
      <trkpt lat="44.32271" lon="3.02286">
        <ele>726.1</ele>
        <time>2023-06-25T11:41:20Z</time>
      </trkpt>
      <trkpt lat="44.32276" lon="3.02284">
        <ele>725.6</ele>
        <time>2023-06-25T11:41:22Z</time>
      </trkpt>
      <trkpt lat="44.32282" lon="3.02283">
        <ele>725.1</ele>
        <time>2023-06-25T11:41:23Z</time>
      </trkpt>
      <trkpt lat="44.32286" lon="3.02282">
        <ele>724.8</ele>
        <time>2023-06-25T11:41:24Z</time>
      </trkpt>
      <trkpt lat="44.32291" lon="3.02281">
        <ele>724.4</ele>
        <time>2023-06-25T11:41:25Z</time>
      </trkpt>
      <trkpt lat="44.32296" lon="3.02279">
        <ele>723.9</ele>
        <time>2023-06-25T11:41:27Z</time>
      </trkpt>
      <trkpt lat="44.323" lon="3.02279">
        <ele>723.7</ele>
        <time>2023-06-25T11:41:28Z</time>
      </trkpt>
      <trkpt lat="44.32304" lon="3.02278">
        <ele>723.3</ele>
        <time>2023-06-25T11:41:29Z</time>
      </trkpt>
      <trkpt lat="44.32308" lon="3.02277">
        <ele>723.1</ele>
        <time>2023-06-25T11:41:30Z</time>
      </trkpt>
      <trkpt lat="44.32312" lon="3.02276">
        <ele>722.8</ele>
        <time>2023-06-25T11:41:31Z</time>
      </trkpt>
      <trkpt lat="44.32317" lon="3.02275">
        <ele>722.6</ele>
        <time>2023-06-25T11:41:32Z</time>
      </trkpt>
      <trkpt lat="44.32321" lon="3.02274">
        <ele>722.3</ele>
        <time>2023-06-25T11:41:34Z</time>
      </trkpt>
      <trkpt lat="44.32327" lon="3.02272">
        <ele>722</ele>
        <time>2023-06-25T11:41:35Z</time>
      </trkpt>
      <trkpt lat="44.32331" lon="3.02271">
        <ele>721.8</ele>
        <time>2023-06-25T11:41:36Z</time>
      </trkpt>
      <trkpt lat="44.32336" lon="3.02269">
        <ele>721.4</ele>
        <time>2023-06-25T11:41:38Z</time>
      </trkpt>
      <trkpt lat="44.3234" lon="3.02268">
        <ele>721.2</ele>
        <time>2023-06-25T11:41:39Z</time>
      </trkpt>
      <trkpt lat="44.32345" lon="3.02266">
        <ele>720.9</ele>
        <time>2023-06-25T11:41:40Z</time>
      </trkpt>
      <trkpt lat="44.32349" lon="3.02265">
        <ele>720.7</ele>
        <time>2023-06-25T11:41:41Z</time>
      </trkpt>
      <trkpt lat="44.32353" lon="3.02264">
        <ele>720.4</ele>
        <time>2023-06-25T11:41:42Z</time>
      </trkpt>
      <trkpt lat="44.32358" lon="3.02263">
        <ele>720.1</ele>
        <time>2023-06-25T11:41:43Z</time>
      </trkpt>
      <trkpt lat="44.32365" lon="3.02263">
        <ele>719.7</ele>
        <time>2023-06-25T11:41:45Z</time>
      </trkpt>
      <trkpt lat="44.32371" lon="3.02263">
        <ele>719.5</ele>
        <time>2023-06-25T11:41:46Z</time>
      </trkpt>
      <trkpt lat="44.32376" lon="3.02264">
        <ele>719.3</ele>
        <time>2023-06-25T11:41:47Z</time>
      </trkpt>
      <trkpt lat="44.32379" lon="3.02264">
        <ele>719.1</ele>
        <time>2023-06-25T11:41:48Z</time>
      </trkpt>
      <trkpt lat="44.32384" lon="3.02264">
        <ele>719</ele>
        <time>2023-06-25T11:41:49Z</time>
      </trkpt>
      <trkpt lat="44.32389" lon="3.02264">
        <ele>718.8</ele>
        <time>2023-06-25T11:41:51Z</time>
      </trkpt>
      <trkpt lat="44.32397" lon="3.02263">
        <ele>718.7</ele>
        <time>2023-06-25T11:41:52Z</time>
      </trkpt>
      <trkpt lat="44.32402" lon="3.02263">
        <ele>718.7</ele>
        <time>2023-06-25T11:41:53Z</time>
      </trkpt>
      <trkpt lat="44.32407" lon="3.02262">
        <ele>718.6</ele>
        <time>2023-06-25T11:41:54Z</time>
      </trkpt>
      <trkpt lat="44.32412" lon="3.02261">
        <ele>718.6</ele>
        <time>2023-06-25T11:41:55Z</time>
      </trkpt>
      <trkpt lat="44.32414" lon="3.0226">
        <ele>718.6</ele>
        <time>2023-06-25T11:41:56Z</time>
      </trkpt>
      <trkpt lat="44.32422" lon="3.02259">
        <ele>718.7</ele>
        <time>2023-06-25T11:41:58Z</time>
      </trkpt>
      <trkpt lat="44.32429" lon="3.02257">
        <ele>718.9</ele>
        <time>2023-06-25T11:42:00Z</time>
      </trkpt>
      <trkpt lat="44.32434" lon="3.02256">
        <ele>719.1</ele>
        <time>2023-06-25T11:42:01Z</time>
      </trkpt>
      <trkpt lat="44.32437" lon="3.02255">
        <ele>719.2</ele>
        <time>2023-06-25T11:42:02Z</time>
      </trkpt>
      <trkpt lat="44.3244" lon="3.02254">
        <ele>719.3</ele>
        <time>2023-06-25T11:42:03Z</time>
      </trkpt>
      <trkpt lat="44.32445" lon="3.02251">
        <ele>719.4</ele>
        <time>2023-06-25T11:42:04Z</time>
      </trkpt>
      <trkpt lat="44.32448" lon="3.0225">
        <ele>719.5</ele>
        <time>2023-06-25T11:42:05Z</time>
      </trkpt>
      <trkpt lat="44.32453" lon="3.02248">
        <ele>719.6</ele>
        <time>2023-06-25T11:42:07Z</time>
      </trkpt>
      <trkpt lat="44.32456" lon="3.02247">
        <ele>719.6</ele>
        <time>2023-06-25T11:42:08Z</time>
      </trkpt>
      <trkpt lat="44.3246" lon="3.02245">
        <ele>719.6</ele>
        <time>2023-06-25T11:42:09Z</time>
      </trkpt>
      <trkpt lat="44.32463" lon="3.02244">
        <ele>719.6</ele>
        <time>2023-06-25T11:42:10Z</time>
      </trkpt>
      <trkpt lat="44.32468" lon="3.02243">
        <ele>719.6</ele>
        <time>2023-06-25T11:42:11Z</time>
      </trkpt>
      <trkpt lat="44.32475" lon="3.02242">
        <ele>719.5</ele>
        <time>2023-06-25T11:42:13Z</time>
      </trkpt>
      <trkpt lat="44.3248" lon="3.02242">
        <ele>719.4</ele>
        <time>2023-06-25T11:42:14Z</time>
      </trkpt>
      <trkpt lat="44.32484" lon="3.02241">
        <ele>719.3</ele>
        <time>2023-06-25T11:42:15Z</time>
      </trkpt>
      <trkpt lat="44.32489" lon="3.02241">
        <ele>719.1</ele>
        <time>2023-06-25T11:42:16Z</time>
      </trkpt>
      <trkpt lat="44.32495" lon="3.02239">
        <ele>718.9</ele>
        <time>2023-06-25T11:42:17Z</time>
      </trkpt>
      <trkpt lat="44.325" lon="3.02238">
        <ele>718.7</ele>
        <time>2023-06-25T11:42:18Z</time>
      </trkpt>
      <trkpt lat="44.32506" lon="3.02236">
        <ele>718.4</ele>
        <time>2023-06-25T11:42:19Z</time>
      </trkpt>
      <trkpt lat="44.32512" lon="3.02235">
        <ele>718.1</ele>
        <time>2023-06-25T11:42:20Z</time>
      </trkpt>
      <trkpt lat="44.32518" lon="3.02233">
        <ele>717.9</ele>
        <time>2023-06-25T11:42:21Z</time>
      </trkpt>
      <trkpt lat="44.32523" lon="3.02233">
        <ele>717.6</ele>
        <time>2023-06-25T11:42:22Z</time>
      </trkpt>
      <trkpt lat="44.32529" lon="3.02232">
        <ele>717.4</ele>
        <time>2023-06-25T11:42:23Z</time>
      </trkpt>
      <trkpt lat="44.32534" lon="3.02231">
        <ele>717.2</ele>
        <time>2023-06-25T11:42:24Z</time>
      </trkpt>
      <trkpt lat="44.32539" lon="3.0223">
        <ele>717</ele>
        <time>2023-06-25T11:42:25Z</time>
      </trkpt>
      <trkpt lat="44.32543" lon="3.02229">
        <ele>716.9</ele>
        <time>2023-06-25T11:42:26Z</time>
      </trkpt>
      <trkpt lat="44.32546" lon="3.0223">
        <ele>716.8</ele>
        <time>2023-06-25T11:42:27Z</time>
      </trkpt>
      <trkpt lat="44.32553" lon="3.02228">
        <ele>716.6</ele>
        <time>2023-06-25T11:42:29Z</time>
      </trkpt>
      <trkpt lat="44.3256" lon="3.02223">
        <ele>716.3</ele>
        <time>2023-06-25T11:42:31Z</time>
      </trkpt>
      <trkpt lat="44.32566" lon="3.02222">
        <ele>716.2</ele>
        <time>2023-06-25T11:42:32Z</time>
      </trkpt>
      <trkpt lat="44.32571" lon="3.02221">
        <ele>716.1</ele>
        <time>2023-06-25T11:42:33Z</time>
      </trkpt>
      <trkpt lat="44.32578" lon="3.02219">
        <ele>715.9</ele>
        <time>2023-06-25T11:42:34Z</time>
      </trkpt>
      <trkpt lat="44.32584" lon="3.02216">
        <ele>715.8</ele>
        <time>2023-06-25T11:42:36Z</time>
      </trkpt>
      <trkpt lat="44.32588" lon="3.02213">
        <ele>715.8</ele>
        <time>2023-06-25T11:42:37Z</time>
      </trkpt>
      <trkpt lat="44.32593" lon="3.02211">
        <ele>715.7</ele>
        <time>2023-06-25T11:42:38Z</time>
      </trkpt>
      <trkpt lat="44.32598" lon="3.02208">
        <ele>715.6</ele>
        <time>2023-06-25T11:42:39Z</time>
      </trkpt>
      <trkpt lat="44.32603" lon="3.02205">
        <ele>715.5</ele>
        <time>2023-06-25T11:42:40Z</time>
      </trkpt>
      <trkpt lat="44.32607" lon="3.02202">
        <ele>715.4</ele>
        <time>2023-06-25T11:42:41Z</time>
      </trkpt>
      <trkpt lat="44.32611" lon="3.02199">
        <ele>715.2</ele>
        <time>2023-06-25T11:42:42Z</time>
      </trkpt>
      <trkpt lat="44.32617" lon="3.02196">
        <ele>715</ele>
        <time>2023-06-25T11:42:43Z</time>
      </trkpt>
      <trkpt lat="44.32622" lon="3.02193">
        <ele>714.8</ele>
        <time>2023-06-25T11:42:44Z</time>
      </trkpt>
      <trkpt lat="44.32627" lon="3.02191">
        <ele>714.5</ele>
        <time>2023-06-25T11:42:45Z</time>
      </trkpt>
      <trkpt lat="44.32632" lon="3.02187">
        <ele>714.4</ele>
        <time>2023-06-25T11:42:46Z</time>
      </trkpt>
      <trkpt lat="44.32637" lon="3.02184">
        <ele>714.3</ele>
        <time>2023-06-25T11:42:47Z</time>
      </trkpt>
      <trkpt lat="44.32641" lon="3.02181">
        <ele>714.2</ele>
        <time>2023-06-25T11:42:48Z</time>
      </trkpt>
      <trkpt lat="44.32646" lon="3.02178">
        <ele>714.2</ele>
        <time>2023-06-25T11:42:49Z</time>
      </trkpt>
      <trkpt lat="44.3265" lon="3.02175">
        <ele>714.2</ele>
        <time>2023-06-25T11:42:50Z</time>
      </trkpt>
      <trkpt lat="44.32654" lon="3.02171">
        <ele>714.1</ele>
        <time>2023-06-25T11:42:51Z</time>
      </trkpt>
      <trkpt lat="44.32658" lon="3.02168">
        <ele>714.1</ele>
        <time>2023-06-25T11:42:52Z</time>
      </trkpt>
      <trkpt lat="44.32663" lon="3.02163">
        <ele>714.1</ele>
        <time>2023-06-25T11:42:54Z</time>
      </trkpt>
      <trkpt lat="44.32668" lon="3.0216">
        <ele>714.1</ele>
        <time>2023-06-25T11:42:55Z</time>
      </trkpt>
      <trkpt lat="44.32672" lon="3.02157">
        <ele>714.1</ele>
        <time>2023-06-25T11:42:56Z</time>
      </trkpt>
      <trkpt lat="44.32678" lon="3.02153">
        <ele>714</ele>
        <time>2023-06-25T11:42:58Z</time>
      </trkpt>
      <trkpt lat="44.32682" lon="3.0215">
        <ele>714</ele>
        <time>2023-06-25T11:42:59Z</time>
      </trkpt>
      <trkpt lat="44.32686" lon="3.02147">
        <ele>713.9</ele>
        <time>2023-06-25T11:43:00Z</time>
      </trkpt>
      <trkpt lat="44.32691" lon="3.02143">
        <ele>713.7</ele>
        <time>2023-06-25T11:43:02Z</time>
      </trkpt>
      <trkpt lat="44.32696" lon="3.0214">
        <ele>713.4</ele>
        <time>2023-06-25T11:43:03Z</time>
      </trkpt>
      <trkpt lat="44.32703" lon="3.02135">
        <ele>713</ele>
        <time>2023-06-25T11:43:04Z</time>
      </trkpt>
      <trkpt lat="44.32708" lon="3.02131">
        <ele>712.7</ele>
        <time>2023-06-25T11:43:05Z</time>
      </trkpt>
      <trkpt lat="44.32713" lon="3.02128">
        <ele>712.4</ele>
        <time>2023-06-25T11:43:06Z</time>
      </trkpt>
      <trkpt lat="44.32718" lon="3.02126">
        <ele>712.1</ele>
        <time>2023-06-25T11:43:07Z</time>
      </trkpt>
      <trkpt lat="44.32722" lon="3.02125">
        <ele>711.9</ele>
        <time>2023-06-25T11:43:08Z</time>
      </trkpt>
      <trkpt lat="44.32727" lon="3.02124">
        <ele>711.7</ele>
        <time>2023-06-25T11:43:09Z</time>
      </trkpt>
      <trkpt lat="44.32731" lon="3.02124">
        <ele>711.6</ele>
        <time>2023-06-25T11:43:10Z</time>
      </trkpt>
      <trkpt lat="44.32736" lon="3.02123">
        <ele>711.4</ele>
        <time>2023-06-25T11:43:12Z</time>
      </trkpt>
      <trkpt lat="44.32739" lon="3.02124">
        <ele>711.4</ele>
        <time>2023-06-25T11:43:13Z</time>
      </trkpt>
      <trkpt lat="44.32742" lon="3.02125">
        <ele>711.3</ele>
        <time>2023-06-25T11:43:14Z</time>
      </trkpt>
      <trkpt lat="44.32747" lon="3.02127">
        <ele>711.3</ele>
        <time>2023-06-25T11:43:15Z</time>
      </trkpt>
      <trkpt lat="44.32751" lon="3.02129">
        <ele>711.3</ele>
        <time>2023-06-25T11:43:16Z</time>
      </trkpt>
      <trkpt lat="44.32754" lon="3.02132">
        <ele>711.4</ele>
        <time>2023-06-25T11:43:17Z</time>
      </trkpt>
      <trkpt lat="44.32761" lon="3.02136">
        <ele>711.6</ele>
        <time>2023-06-25T11:43:19Z</time>
      </trkpt>
      <trkpt lat="44.32765" lon="3.0214">
        <ele>711.7</ele>
        <time>2023-06-25T11:43:20Z</time>
      </trkpt>
      <trkpt lat="44.32769" lon="3.02143">
        <ele>711.9</ele>
        <time>2023-06-25T11:43:21Z</time>
      </trkpt>
      <trkpt lat="44.32772" lon="3.02146">
        <ele>712.1</ele>
        <time>2023-06-25T11:43:22Z</time>
      </trkpt>
      <trkpt lat="44.32775" lon="3.02148">
        <ele>712.3</ele>
        <time>2023-06-25T11:43:23Z</time>
      </trkpt>
      <trkpt lat="44.32778" lon="3.02151">
        <ele>712.4</ele>
        <time>2023-06-25T11:43:25Z</time>
      </trkpt>
      <trkpt lat="44.32781" lon="3.02153">
        <ele>712.6</ele>
        <time>2023-06-25T11:43:26Z</time>
      </trkpt>
      <trkpt lat="44.32784" lon="3.02154">
        <ele>712.7</ele>
        <time>2023-06-25T11:43:27Z</time>
      </trkpt>
      <trkpt lat="44.32788" lon="3.02157">
        <ele>712.8</ele>
        <time>2023-06-25T11:43:28Z</time>
      </trkpt>
      <trkpt lat="44.32793" lon="3.0216">
        <ele>712.9</ele>
        <time>2023-06-25T11:43:30Z</time>
      </trkpt>
      <trkpt lat="44.32795" lon="3.02161">
        <ele>713</ele>
        <time>2023-06-25T11:43:31Z</time>
      </trkpt>
      <trkpt lat="44.328" lon="3.02163">
        <ele>713</ele>
        <time>2023-06-25T11:43:33Z</time>
      </trkpt>
      <trkpt lat="44.32804" lon="3.02164">
        <ele>713.1</ele>
        <time>2023-06-25T11:43:34Z</time>
      </trkpt>
      <trkpt lat="44.32807" lon="3.02165">
        <ele>713.1</ele>
        <time>2023-06-25T11:43:35Z</time>
      </trkpt>
      <trkpt lat="44.32811" lon="3.02166">
        <ele>713.1</ele>
        <time>2023-06-25T11:43:36Z</time>
      </trkpt>
      <trkpt lat="44.32816" lon="3.02167">
        <ele>713.1</ele>
        <time>2023-06-25T11:43:38Z</time>
      </trkpt>
      <trkpt lat="44.3282" lon="3.02168">
        <ele>713</ele>
        <time>2023-06-25T11:43:39Z</time>
      </trkpt>
      <trkpt lat="44.32825" lon="3.02169">
        <ele>713</ele>
        <time>2023-06-25T11:43:40Z</time>
      </trkpt>
      <trkpt lat="44.3283" lon="3.0217">
        <ele>713</ele>
        <time>2023-06-25T11:43:42Z</time>
      </trkpt>
      <trkpt lat="44.32835" lon="3.02171">
        <ele>713</ele>
        <time>2023-06-25T11:43:43Z</time>
      </trkpt>
      <trkpt lat="44.32839" lon="3.02172">
        <ele>712.9</ele>
        <time>2023-06-25T11:43:44Z</time>
      </trkpt>
      <trkpt lat="44.32844" lon="3.02173">
        <ele>712.8</ele>
        <time>2023-06-25T11:43:46Z</time>
      </trkpt>
      <trkpt lat="44.32848" lon="3.02174">
        <ele>712.7</ele>
        <time>2023-06-25T11:43:47Z</time>
      </trkpt>
      <trkpt lat="44.32853" lon="3.02174">
        <ele>712.6</ele>
        <time>2023-06-25T11:43:48Z</time>
      </trkpt>
      <trkpt lat="44.32859" lon="3.02175">
        <ele>712.4</ele>
        <time>2023-06-25T11:43:49Z</time>
      </trkpt>
      <trkpt lat="44.32866" lon="3.02175">
        <ele>712.2</ele>
        <time>2023-06-25T11:43:50Z</time>
      </trkpt>
      <trkpt lat="44.32872" lon="3.02175">
        <ele>711.9</ele>
        <time>2023-06-25T11:43:51Z</time>
      </trkpt>
      <trkpt lat="44.32877" lon="3.02174">
        <ele>711.6</ele>
        <time>2023-06-25T11:43:52Z</time>
      </trkpt>
      <trkpt lat="44.32882" lon="3.02174">
        <ele>711.3</ele>
        <time>2023-06-25T11:43:53Z</time>
      </trkpt>
      <trkpt lat="44.32888" lon="3.02174">
        <ele>711</ele>
        <time>2023-06-25T11:43:54Z</time>
      </trkpt>
      <trkpt lat="44.32893" lon="3.02175">
        <ele>710.6</ele>
        <time>2023-06-25T11:43:55Z</time>
      </trkpt>
      <trkpt lat="44.32897" lon="3.02176">
        <ele>710.3</ele>
        <time>2023-06-25T11:43:56Z</time>
      </trkpt>
      <trkpt lat="44.32902" lon="3.02177">
        <ele>709.9</ele>
        <time>2023-06-25T11:43:57Z</time>
      </trkpt>
      <trkpt lat="44.32907" lon="3.02177">
        <ele>709.5</ele>
        <time>2023-06-25T11:43:58Z</time>
      </trkpt>
      <trkpt lat="44.32912" lon="3.02178">
        <ele>709.1</ele>
        <time>2023-06-25T11:43:59Z</time>
      </trkpt>
      <trkpt lat="44.32916" lon="3.02179">
        <ele>708.7</ele>
        <time>2023-06-25T11:44:00Z</time>
      </trkpt>
      <trkpt lat="44.32918" lon="3.02179">
        <ele>708.4</ele>
        <time>2023-06-25T11:44:01Z</time>
      </trkpt>
      <trkpt lat="44.3293" lon="3.0218">
        <ele>707.2</ele>
        <time>2023-06-25T11:44:03Z</time>
      </trkpt>
      <trkpt lat="44.32935" lon="3.0218">
        <ele>706.7</ele>
        <time>2023-06-25T11:44:04Z</time>
      </trkpt>
      <trkpt lat="44.32939" lon="3.02181">
        <ele>706.3</ele>
        <time>2023-06-25T11:44:05Z</time>
      </trkpt>
      <trkpt lat="44.32943" lon="3.02182">
        <ele>705.9</ele>
        <time>2023-06-25T11:44:06Z</time>
      </trkpt>
      <trkpt lat="44.32949" lon="3.02183">
        <ele>705.4</ele>
        <time>2023-06-25T11:44:07Z</time>
      </trkpt>
      <trkpt lat="44.32955" lon="3.02185">
        <ele>704.9</ele>
        <time>2023-06-25T11:44:08Z</time>
      </trkpt>
      <trkpt lat="44.3296" lon="3.02187">
        <ele>704.5</ele>
        <time>2023-06-25T11:44:09Z</time>
      </trkpt>
      <trkpt lat="44.32965" lon="3.0219">
        <ele>704.1</ele>
        <time>2023-06-25T11:44:10Z</time>
      </trkpt>
      <trkpt lat="44.32969" lon="3.02194">
        <ele>703.7</ele>
        <time>2023-06-25T11:44:11Z</time>
      </trkpt>
      <trkpt lat="44.32973" lon="3.02199">
        <ele>703.2</ele>
        <time>2023-06-25T11:44:12Z</time>
      </trkpt>
      <trkpt lat="44.32976" lon="3.02205">
        <ele>702.9</ele>
        <time>2023-06-25T11:44:13Z</time>
      </trkpt>
      <trkpt lat="44.32978" lon="3.02211">
        <ele>702.6</ele>
        <time>2023-06-25T11:44:14Z</time>
      </trkpt>
      <trkpt lat="44.32979" lon="3.02218">
        <ele>702.3</ele>
        <time>2023-06-25T11:44:15Z</time>
      </trkpt>
      <trkpt lat="44.32981" lon="3.02224">
        <ele>702</ele>
        <time>2023-06-25T11:44:16Z</time>
      </trkpt>
      <trkpt lat="44.32983" lon="3.02231">
        <ele>701.7</ele>
        <time>2023-06-25T11:44:17Z</time>
      </trkpt>
      <trkpt lat="44.32985" lon="3.02238">
        <ele>701.4</ele>
        <time>2023-06-25T11:44:18Z</time>
      </trkpt>
      <trkpt lat="44.32986" lon="3.02246">
        <ele>701.1</ele>
        <time>2023-06-25T11:44:19Z</time>
      </trkpt>
      <trkpt lat="44.32988" lon="3.02253">
        <ele>700.8</ele>
        <time>2023-06-25T11:44:20Z</time>
      </trkpt>
      <trkpt lat="44.32989" lon="3.02261">
        <ele>700.5</ele>
        <time>2023-06-25T11:44:21Z</time>
      </trkpt>
      <trkpt lat="44.32989" lon="3.02269">
        <ele>700.2</ele>
        <time>2023-06-25T11:44:22Z</time>
      </trkpt>
      <trkpt lat="44.3299" lon="3.02277">
        <ele>699.9</ele>
        <time>2023-06-25T11:44:23Z</time>
      </trkpt>
      <trkpt lat="44.3299" lon="3.02283">
        <ele>699.6</ele>
        <time>2023-06-25T11:44:24Z</time>
      </trkpt>
      <trkpt lat="44.32989" lon="3.0229">
        <ele>699.4</ele>
        <time>2023-06-25T11:44:25Z</time>
      </trkpt>
      <trkpt lat="44.32988" lon="3.02295">
        <ele>699.2</ele>
        <time>2023-06-25T11:44:26Z</time>
      </trkpt>
      <trkpt lat="44.32987" lon="3.023">
        <ele>699</ele>
        <time>2023-06-25T11:44:27Z</time>
      </trkpt>
      <trkpt lat="44.32986" lon="3.02309">
        <ele>698.6</ele>
        <time>2023-06-25T11:44:28Z</time>
      </trkpt>
      <trkpt lat="44.32985" lon="3.02317">
        <ele>698.3</ele>
        <time>2023-06-25T11:44:29Z</time>
      </trkpt>
      <trkpt lat="44.32984" lon="3.02326">
        <ele>697.9</ele>
        <time>2023-06-25T11:44:30Z</time>
      </trkpt>
      <trkpt lat="44.32982" lon="3.02334">
        <ele>697.6</ele>
        <time>2023-06-25T11:44:31Z</time>
      </trkpt>
      <trkpt lat="44.32982" lon="3.02342">
        <ele>697.3</ele>
        <time>2023-06-25T11:44:32Z</time>
      </trkpt>
      <trkpt lat="44.32981" lon="3.02349">
        <ele>697</ele>
        <time>2023-06-25T11:44:33Z</time>
      </trkpt>
      <trkpt lat="44.3298" lon="3.02357">
        <ele>696.7</ele>
        <time>2023-06-25T11:44:34Z</time>
      </trkpt>
      <trkpt lat="44.32979" lon="3.02365">
        <ele>696.4</ele>
        <time>2023-06-25T11:44:35Z</time>
      </trkpt>
      <trkpt lat="44.32978" lon="3.02373">
        <ele>696</ele>
        <time>2023-06-25T11:44:36Z</time>
      </trkpt>
      <trkpt lat="44.32977" lon="3.02382">
        <ele>695.7</ele>
        <time>2023-06-25T11:44:37Z</time>
      </trkpt>
      <trkpt lat="44.32977" lon="3.0239">
        <ele>695.3</ele>
        <time>2023-06-25T11:44:38Z</time>
      </trkpt>
      <trkpt lat="44.32977" lon="3.02398">
        <ele>695</ele>
        <time>2023-06-25T11:44:39Z</time>
      </trkpt>
      <trkpt lat="44.32977" lon="3.02406">
        <ele>694.7</ele>
        <time>2023-06-25T11:44:40Z</time>
      </trkpt>
      <trkpt lat="44.32978" lon="3.02413">
        <ele>694.5</ele>
        <time>2023-06-25T11:44:41Z</time>
      </trkpt>
      <trkpt lat="44.32979" lon="3.02419">
        <ele>694.2</ele>
        <time>2023-06-25T11:44:42Z</time>
      </trkpt>
      <trkpt lat="44.32979" lon="3.02425">
        <ele>694</ele>
        <time>2023-06-25T11:44:43Z</time>
      </trkpt>
      <trkpt lat="44.3298" lon="3.02431">
        <ele>693.7</ele>
        <time>2023-06-25T11:44:44Z</time>
      </trkpt>
      <trkpt lat="44.32981" lon="3.02435">
        <ele>693.6</ele>
        <time>2023-06-25T11:44:45Z</time>
      </trkpt>
      <trkpt lat="44.32982" lon="3.02443">
        <ele>693.2</ele>
        <time>2023-06-25T11:44:46Z</time>
      </trkpt>
      <trkpt lat="44.32981" lon="3.0245">
        <ele>692.9</ele>
        <time>2023-06-25T11:44:47Z</time>
      </trkpt>
      <trkpt lat="44.32979" lon="3.02458">
        <ele>692.6</ele>
        <time>2023-06-25T11:44:48Z</time>
      </trkpt>
      <trkpt lat="44.32976" lon="3.02465">
        <ele>692.3</ele>
        <time>2023-06-25T11:44:49Z</time>
      </trkpt>
      <trkpt lat="44.32973" lon="3.02472">
        <ele>692</ele>
        <time>2023-06-25T11:44:50Z</time>
      </trkpt>
      <trkpt lat="44.3297" lon="3.02479">
        <ele>691.6</ele>
        <time>2023-06-25T11:44:51Z</time>
      </trkpt>
      <trkpt lat="44.32966" lon="3.02487">
        <ele>691.3</ele>
        <time>2023-06-25T11:44:52Z</time>
      </trkpt>
      <trkpt lat="44.32962" lon="3.02494">
        <ele>690.9</ele>
        <time>2023-06-25T11:44:53Z</time>
      </trkpt>
      <trkpt lat="44.32958" lon="3.02502">
        <ele>690.5</ele>
        <time>2023-06-25T11:44:54Z</time>
      </trkpt>
      <trkpt lat="44.32954" lon="3.02508">
        <ele>690.2</ele>
        <time>2023-06-25T11:44:55Z</time>
      </trkpt>
      <trkpt lat="44.3295" lon="3.02514">
        <ele>689.9</ele>
        <time>2023-06-25T11:44:56Z</time>
      </trkpt>
      <trkpt lat="44.32947" lon="3.0252">
        <ele>689.6</ele>
        <time>2023-06-25T11:44:57Z</time>
      </trkpt>
      <trkpt lat="44.32943" lon="3.02525">
        <ele>689.3</ele>
        <time>2023-06-25T11:44:58Z</time>
      </trkpt>
      <trkpt lat="44.32939" lon="3.0253">
        <ele>689</ele>
        <time>2023-06-25T11:44:59Z</time>
      </trkpt>
      <trkpt lat="44.32935" lon="3.02535">
        <ele>688.7</ele>
        <time>2023-06-25T11:45:00Z</time>
      </trkpt>
      <trkpt lat="44.32931" lon="3.0254">
        <ele>688.4</ele>
        <time>2023-06-25T11:45:01Z</time>
      </trkpt>
      <trkpt lat="44.32928" lon="3.02546">
        <ele>688.1</ele>
        <time>2023-06-25T11:45:02Z</time>
      </trkpt>
      <trkpt lat="44.32926" lon="3.02551">
        <ele>687.9</ele>
        <time>2023-06-25T11:45:03Z</time>
      </trkpt>
      <trkpt lat="44.32924" lon="3.02557">
        <ele>687.6</ele>
        <time>2023-06-25T11:45:04Z</time>
      </trkpt>
      <trkpt lat="44.32923" lon="3.02561">
        <ele>687.4</ele>
        <time>2023-06-25T11:45:05Z</time>
      </trkpt>
      <trkpt lat="44.32922" lon="3.02567">
        <ele>687.2</ele>
        <time>2023-06-25T11:45:06Z</time>
      </trkpt>
      <trkpt lat="44.32921" lon="3.02574">
        <ele>686.9</ele>
        <time>2023-06-25T11:45:07Z</time>
      </trkpt>
      <trkpt lat="44.3292" lon="3.02581">
        <ele>686.6</ele>
        <time>2023-06-25T11:45:08Z</time>
      </trkpt>
      <trkpt lat="44.32919" lon="3.02589">
        <ele>686.3</ele>
        <time>2023-06-25T11:45:09Z</time>
      </trkpt>
      <trkpt lat="44.32919" lon="3.02598">
        <ele>686</ele>
        <time>2023-06-25T11:45:10Z</time>
      </trkpt>
      <trkpt lat="44.32919" lon="3.02607">
        <ele>685.6</ele>
        <time>2023-06-25T11:45:11Z</time>
      </trkpt>
      <trkpt lat="44.32919" lon="3.02615">
        <ele>685.3</ele>
        <time>2023-06-25T11:45:12Z</time>
      </trkpt>
      <trkpt lat="44.32918" lon="3.02623">
        <ele>685</ele>
        <time>2023-06-25T11:45:13Z</time>
      </trkpt>
      <trkpt lat="44.32918" lon="3.0263">
        <ele>684.7</ele>
        <time>2023-06-25T11:45:14Z</time>
      </trkpt>
      <trkpt lat="44.32919" lon="3.02637">
        <ele>684.4</ele>
        <time>2023-06-25T11:45:15Z</time>
      </trkpt>
      <trkpt lat="44.3292" lon="3.02644">
        <ele>684.1</ele>
        <time>2023-06-25T11:45:16Z</time>
      </trkpt>
      <trkpt lat="44.32922" lon="3.02651">
        <ele>683.8</ele>
        <time>2023-06-25T11:45:17Z</time>
      </trkpt>
      <trkpt lat="44.32924" lon="3.02658">
        <ele>683.5</ele>
        <time>2023-06-25T11:45:18Z</time>
      </trkpt>
      <trkpt lat="44.32926" lon="3.02665">
        <ele>683.2</ele>
        <time>2023-06-25T11:45:19Z</time>
      </trkpt>
      <trkpt lat="44.32929" lon="3.02672">
        <ele>682.9</ele>
        <time>2023-06-25T11:45:20Z</time>
      </trkpt>
      <trkpt lat="44.32931" lon="3.02679">
        <ele>682.6</ele>
        <time>2023-06-25T11:45:21Z</time>
      </trkpt>
      <trkpt lat="44.32933" lon="3.02686">
        <ele>682.3</ele>
        <time>2023-06-25T11:45:22Z</time>
      </trkpt>
      <trkpt lat="44.32935" lon="3.02693">
        <ele>682</ele>
        <time>2023-06-25T11:45:23Z</time>
      </trkpt>
      <trkpt lat="44.32936" lon="3.02699">
        <ele>681.8</ele>
        <time>2023-06-25T11:45:24Z</time>
      </trkpt>
      <trkpt lat="44.32938" lon="3.02706">
        <ele>681.5</ele>
        <time>2023-06-25T11:45:25Z</time>
      </trkpt>
      <trkpt lat="44.3294" lon="3.02713">
        <ele>681.2</ele>
        <time>2023-06-25T11:45:26Z</time>
      </trkpt>
      <trkpt lat="44.32942" lon="3.0272">
        <ele>680.9</ele>
        <time>2023-06-25T11:45:27Z</time>
      </trkpt>
      <trkpt lat="44.32944" lon="3.02727">
        <ele>680.6</ele>
        <time>2023-06-25T11:45:28Z</time>
      </trkpt>
      <trkpt lat="44.32946" lon="3.02734">
        <ele>680.3</ele>
        <time>2023-06-25T11:45:29Z</time>
      </trkpt>
      <trkpt lat="44.32947" lon="3.02742">
        <ele>680</ele>
        <time>2023-06-25T11:45:30Z</time>
      </trkpt>
      <trkpt lat="44.32948" lon="3.02749">
        <ele>679.7</ele>
        <time>2023-06-25T11:45:31Z</time>
      </trkpt>
      <trkpt lat="44.32949" lon="3.02756">
        <ele>679.4</ele>
        <time>2023-06-25T11:45:32Z</time>
      </trkpt>
      <trkpt lat="44.32949" lon="3.02765">
        <ele>679.1</ele>
        <time>2023-06-25T11:45:33Z</time>
      </trkpt>
      <trkpt lat="44.32948" lon="3.02773">
        <ele>678.7</ele>
        <time>2023-06-25T11:45:34Z</time>
      </trkpt>
      <trkpt lat="44.32947" lon="3.02781">
        <ele>678.4</ele>
        <time>2023-06-25T11:45:35Z</time>
      </trkpt>
      <trkpt lat="44.32946" lon="3.02789">
        <ele>678.1</ele>
        <time>2023-06-25T11:45:36Z</time>
      </trkpt>
      <trkpt lat="44.32944" lon="3.02797">
        <ele>677.8</ele>
        <time>2023-06-25T11:45:37Z</time>
      </trkpt>
      <trkpt lat="44.32943" lon="3.02805">
        <ele>677.4</ele>
        <time>2023-06-25T11:45:38Z</time>
      </trkpt>
      <trkpt lat="44.32942" lon="3.02813">
        <ele>677.1</ele>
        <time>2023-06-25T11:45:39Z</time>
      </trkpt>
      <trkpt lat="44.32942" lon="3.02822">
        <ele>676.7</ele>
        <time>2023-06-25T11:45:40Z</time>
      </trkpt>
      <trkpt lat="44.32941" lon="3.0283">
        <ele>676.4</ele>
        <time>2023-06-25T11:45:41Z</time>
      </trkpt>
      <trkpt lat="44.32941" lon="3.02838">
        <ele>676.1</ele>
        <time>2023-06-25T11:45:42Z</time>
      </trkpt>
      <trkpt lat="44.32941" lon="3.02845">
        <ele>675.8</ele>
        <time>2023-06-25T11:45:43Z</time>
      </trkpt>
      <trkpt lat="44.32941" lon="3.02852">
        <ele>675.6</ele>
        <time>2023-06-25T11:45:44Z</time>
      </trkpt>
      <trkpt lat="44.32941" lon="3.02858">
        <ele>675.3</ele>
        <time>2023-06-25T11:45:45Z</time>
      </trkpt>
      <trkpt lat="44.32941" lon="3.02862">
        <ele>675.1</ele>
        <time>2023-06-25T11:45:46Z</time>
      </trkpt>
      <trkpt lat="44.32941" lon="3.02869">
        <ele>674.9</ele>
        <time>2023-06-25T11:45:47Z</time>
      </trkpt>
      <trkpt lat="44.32942" lon="3.02874">
        <ele>674.7</ele>
        <time>2023-06-25T11:45:48Z</time>
      </trkpt>
      <trkpt lat="44.32942" lon="3.02881">
        <ele>674.4</ele>
        <time>2023-06-25T11:45:49Z</time>
      </trkpt>
      <trkpt lat="44.32943" lon="3.02887">
        <ele>674.2</ele>
        <time>2023-06-25T11:45:50Z</time>
      </trkpt>
      <trkpt lat="44.32944" lon="3.02893">
        <ele>673.9</ele>
        <time>2023-06-25T11:45:51Z</time>
      </trkpt>
      <trkpt lat="44.32945" lon="3.02899">
        <ele>673.7</ele>
        <time>2023-06-25T11:45:52Z</time>
      </trkpt>
      <trkpt lat="44.32948" lon="3.02905">
        <ele>673.4</ele>
        <time>2023-06-25T11:45:54Z</time>
      </trkpt>
      <trkpt lat="44.32951" lon="3.02909">
        <ele>673.1</ele>
        <time>2023-06-25T11:45:55Z</time>
      </trkpt>
      <trkpt lat="44.32955" lon="3.02912">
        <ele>672.9</ele>
        <time>2023-06-25T11:45:56Z</time>
      </trkpt>
      <trkpt lat="44.32959" lon="3.02917">
        <ele>672.6</ele>
        <time>2023-06-25T11:45:57Z</time>
      </trkpt>
      <trkpt lat="44.32964" lon="3.0293">
        <ele>672</ele>
        <time>2023-06-25T11:45:59Z</time>
      </trkpt>
      <trkpt lat="44.32966" lon="3.02939">
        <ele>671.7</ele>
        <time>2023-06-25T11:46:00Z</time>
      </trkpt>
      <trkpt lat="44.32966" lon="3.02947">
        <ele>671.3</ele>
        <time>2023-06-25T11:46:01Z</time>
      </trkpt>
      <trkpt lat="44.32966" lon="3.02955">
        <ele>671</ele>
        <time>2023-06-25T11:46:02Z</time>
      </trkpt>
      <trkpt lat="44.32964" lon="3.02962">
        <ele>670.7</ele>
        <time>2023-06-25T11:46:03Z</time>
      </trkpt>
      <trkpt lat="44.32963" lon="3.02968">
        <ele>670.5</ele>
        <time>2023-06-25T11:46:04Z</time>
      </trkpt>
      <trkpt lat="44.32961" lon="3.02974">
        <ele>670.2</ele>
        <time>2023-06-25T11:46:05Z</time>
      </trkpt>
      <trkpt lat="44.3296" lon="3.02977">
        <ele>670.1</ele>
        <time>2023-06-25T11:46:06Z</time>
      </trkpt>
      <trkpt lat="44.32958" lon="3.02986">
        <ele>669.7</ele>
        <time>2023-06-25T11:46:08Z</time>
      </trkpt>
      <trkpt lat="44.32955" lon="3.02993">
        <ele>669.4</ele>
        <time>2023-06-25T11:46:09Z</time>
      </trkpt>
      <trkpt lat="44.32954" lon="3.02998">
        <ele>669.2</ele>
        <time>2023-06-25T11:46:10Z</time>
      </trkpt>
      <trkpt lat="44.32953" lon="3.03002">
        <ele>670.1</ele>
        <time>2023-06-25T11:46:11Z</time>
      </trkpt>
      <trkpt lat="44.32953" lon="3.03007">
        <ele>671.3</ele>
        <time>2023-06-25T11:46:13Z</time>
      </trkpt>
      <trkpt lat="44.32953" lon="3.03012">
        <ele>672.3</ele>
        <time>2023-06-25T11:46:14Z</time>
      </trkpt>
      <trkpt lat="44.32953" lon="3.03013">
        <ele>672.6</ele>
        <time>2023-06-25T11:46:15Z</time>
      </trkpt>
      <trkpt lat="44.32953" lon="3.03018">
        <ele>673.7</ele>
        <time>2023-06-25T11:46:16Z</time>
      </trkpt>
      <trkpt lat="44.32953" lon="3.0302">
        <ele>674.5</ele>
        <time>2023-06-25T11:46:17Z</time>
      </trkpt>
      <trkpt lat="44.32953" lon="3.03022">
        <ele>674.4</ele>
        <time>2023-06-25T11:46:18Z</time>
      </trkpt>
      <trkpt lat="44.32953" lon="3.03024">
        <ele>674.4</ele>
        <time>2023-06-25T11:46:19Z</time>
      </trkpt>
      <trkpt lat="44.32955" lon="3.03027">
        <ele>674.4</ele>
        <time>2023-06-25T11:46:20Z</time>
      </trkpt>
      <trkpt lat="44.32958" lon="3.03029">
        <ele>674.3</ele>
        <time>2023-06-25T11:46:21Z</time>
      </trkpt>
      <trkpt lat="44.32961" lon="3.03031">
        <ele>674.2</ele>
        <time>2023-06-25T11:46:22Z</time>
      </trkpt>
      <trkpt lat="44.32965" lon="3.03033">
        <ele>674.1</ele>
        <time>2023-06-25T11:46:23Z</time>
      </trkpt>
      <trkpt lat="44.32967" lon="3.03035">
        <ele>674</ele>
        <time>2023-06-25T11:46:24Z</time>
      </trkpt>
      <trkpt lat="44.32972" lon="3.03038">
        <ele>673.9</ele>
        <time>2023-06-25T11:46:25Z</time>
      </trkpt>
      <trkpt lat="44.32974" lon="3.03039">
        <ele>673.8</ele>
        <time>2023-06-25T11:46:26Z</time>
      </trkpt>
      <trkpt lat="44.32978" lon="3.03041">
        <ele>673.7</ele>
        <time>2023-06-25T11:46:27Z</time>
      </trkpt>
      <trkpt lat="44.32982" lon="3.03044">
        <ele>673.5</ele>
        <time>2023-06-25T11:46:28Z</time>
      </trkpt>
      <trkpt lat="44.32987" lon="3.03046">
        <ele>673.3</ele>
        <time>2023-06-25T11:46:29Z</time>
      </trkpt>
      <trkpt lat="44.3299" lon="3.03048">
        <ele>673.2</ele>
        <time>2023-06-25T11:46:30Z</time>
      </trkpt>
      <trkpt lat="44.32995" lon="3.03052">
        <ele>672.9</ele>
        <time>2023-06-25T11:46:31Z</time>
      </trkpt>
      <trkpt lat="44.33" lon="3.03055">
        <ele>672.7</ele>
        <time>2023-06-25T11:46:32Z</time>
      </trkpt>
      <trkpt lat="44.33005" lon="3.03058">
        <ele>672.5</ele>
        <time>2023-06-25T11:46:33Z</time>
      </trkpt>
      <trkpt lat="44.3301" lon="3.03062">
        <ele>672.3</ele>
        <time>2023-06-25T11:46:34Z</time>
      </trkpt>
      <trkpt lat="44.33016" lon="3.03066">
        <ele>672</ele>
        <time>2023-06-25T11:46:35Z</time>
      </trkpt>
      <trkpt lat="44.33021" lon="3.0307">
        <ele>671.8</ele>
        <time>2023-06-25T11:46:36Z</time>
      </trkpt>
      <trkpt lat="44.33026" lon="3.03075">
        <ele>671.6</ele>
        <time>2023-06-25T11:46:37Z</time>
      </trkpt>
      <trkpt lat="44.33031" lon="3.0308">
        <ele>671.3</ele>
        <time>2023-06-25T11:46:38Z</time>
      </trkpt>
      <trkpt lat="44.33036" lon="3.03086">
        <ele>671</ele>
        <time>2023-06-25T11:46:39Z</time>
      </trkpt>
      <trkpt lat="44.33041" lon="3.03092">
        <ele>670.7</ele>
        <time>2023-06-25T11:46:40Z</time>
      </trkpt>
      <trkpt lat="44.33047" lon="3.03098">
        <ele>670.4</ele>
        <time>2023-06-25T11:46:41Z</time>
      </trkpt>
      <trkpt lat="44.33052" lon="3.03105">
        <ele>670.1</ele>
        <time>2023-06-25T11:46:42Z</time>
      </trkpt>
      <trkpt lat="44.33057" lon="3.03112">
        <ele>669.7</ele>
        <time>2023-06-25T11:46:43Z</time>
      </trkpt>
      <trkpt lat="44.33062" lon="3.03119">
        <ele>669.4</ele>
        <time>2023-06-25T11:46:44Z</time>
      </trkpt>
      <trkpt lat="44.33068" lon="3.03126">
        <ele>669</ele>
        <time>2023-06-25T11:46:45Z</time>
      </trkpt>
      <trkpt lat="44.33074" lon="3.03134">
        <ele>668.7</ele>
        <time>2023-06-25T11:46:46Z</time>
      </trkpt>
      <trkpt lat="44.33079" lon="3.03141">
        <ele>668.3</ele>
        <time>2023-06-25T11:46:47Z</time>
      </trkpt>
      <trkpt lat="44.33084" lon="3.03149">
        <ele>667.9</ele>
        <time>2023-06-25T11:46:48Z</time>
      </trkpt>
      <trkpt lat="44.3309" lon="3.03155">
        <ele>667.5</ele>
        <time>2023-06-25T11:46:49Z</time>
      </trkpt>
      <trkpt lat="44.33095" lon="3.0316">
        <ele>667.2</ele>
        <time>2023-06-25T11:46:50Z</time>
      </trkpt>
      <trkpt lat="44.331" lon="3.03164">
        <ele>667</ele>
        <time>2023-06-25T11:46:51Z</time>
      </trkpt>
      <trkpt lat="44.33103" lon="3.03167">
        <ele>666.8</ele>
        <time>2023-06-25T11:46:52Z</time>
      </trkpt>
      <trkpt lat="44.33104" lon="3.03171">
        <ele>666.8</ele>
        <time>2023-06-25T11:46:53Z</time>
      </trkpt>
      <trkpt lat="44.33104" lon="3.03176">
        <ele>666.9</ele>
        <time>2023-06-25T11:46:54Z</time>
      </trkpt>
      <trkpt lat="44.33102" lon="3.03179">
        <ele>667</ele>
        <time>2023-06-25T11:46:55Z</time>
      </trkpt>
      <trkpt lat="44.331" lon="3.03182">
        <ele>667.1</ele>
        <time>2023-06-25T11:46:56Z</time>
      </trkpt>
      <trkpt lat="44.33098" lon="3.03185">
        <ele>667.2</ele>
        <time>2023-06-25T11:46:57Z</time>
      </trkpt>
      <trkpt lat="44.33095" lon="3.03186">
        <ele>667.4</ele>
        <time>2023-06-25T11:46:58Z</time>
      </trkpt>
      <trkpt lat="44.33092" lon="3.03189">
        <ele>667.6</ele>
        <time>2023-06-25T11:46:59Z</time>
      </trkpt>
      <trkpt lat="44.33091" lon="3.03191">
        <ele>667.7</ele>
        <time>2023-06-25T11:47:00Z</time>
      </trkpt>
      <trkpt lat="44.33089" lon="3.03195">
        <ele>667.8</ele>
        <time>2023-06-25T11:47:01Z</time>
      </trkpt>
      <trkpt lat="44.33088" lon="3.03197">
        <ele>667.9</ele>
        <time>2023-06-25T11:47:02Z</time>
      </trkpt>
      <trkpt lat="44.33084" lon="3.03202">
        <ele>668.3</ele>
        <time>2023-06-25T11:47:04Z</time>
      </trkpt>
      <trkpt lat="44.33081" lon="3.03205">
        <ele>668.5</ele>
        <time>2023-06-25T11:47:05Z</time>
      </trkpt>
      <trkpt lat="44.33077" lon="3.03211">
        <ele>668.8</ele>
        <time>2023-06-25T11:47:06Z</time>
      </trkpt>
      <trkpt lat="44.33074" lon="3.03214">
        <ele>669.2</ele>
        <time>2023-06-25T11:47:07Z</time>
      </trkpt>
      <trkpt lat="44.33071" lon="3.03219">
        <ele>669.6</ele>
        <time>2023-06-25T11:47:08Z</time>
      </trkpt>
      <trkpt lat="44.33067" lon="3.03224">
        <ele>670.1</ele>
        <time>2023-06-25T11:47:09Z</time>
      </trkpt>
      <trkpt lat="44.33064" lon="3.03228">
        <ele>670.4</ele>
        <time>2023-06-25T11:47:10Z</time>
      </trkpt>
      <trkpt lat="44.3306" lon="3.03233">
        <ele>670.9</ele>
        <time>2023-06-25T11:47:12Z</time>
      </trkpt>
      <trkpt lat="44.33058" lon="3.03237">
        <ele>671.1</ele>
        <time>2023-06-25T11:47:13Z</time>
      </trkpt>
      <trkpt lat="44.33054" lon="3.03243">
        <ele>671.3</ele>
        <time>2023-06-25T11:47:15Z</time>
      </trkpt>
      <trkpt lat="44.33053" lon="3.03246">
        <ele>671.4</ele>
        <time>2023-06-25T11:47:16Z</time>
      </trkpt>
      <trkpt lat="44.3305" lon="3.03251">
        <ele>671.5</ele>
        <time>2023-06-25T11:47:17Z</time>
      </trkpt>
      <trkpt lat="44.33047" lon="3.03258">
        <ele>671.6</ele>
        <time>2023-06-25T11:47:19Z</time>
      </trkpt>
      <trkpt lat="44.33042" lon="3.03266">
        <ele>671.6</ele>
        <time>2023-06-25T11:47:21Z</time>
      </trkpt>
      <trkpt lat="44.33038" lon="3.03273">
        <ele>671.6</ele>
        <time>2023-06-25T11:47:22Z</time>
      </trkpt>
      <trkpt lat="44.33033" lon="3.03278">
        <ele>671.7</ele>
        <time>2023-06-25T11:47:23Z</time>
      </trkpt>
      <trkpt lat="44.33029" lon="3.03283">
        <ele>671.6</ele>
        <time>2023-06-25T11:47:24Z</time>
      </trkpt>
      <trkpt lat="44.33024" lon="3.03288">
        <ele>671.6</ele>
        <time>2023-06-25T11:47:26Z</time>
      </trkpt>
      <trkpt lat="44.3302" lon="3.03292">
        <ele>671.6</ele>
        <time>2023-06-25T11:47:27Z</time>
      </trkpt>
      <trkpt lat="44.33017" lon="3.03296">
        <ele>671.5</ele>
        <time>2023-06-25T11:47:28Z</time>
      </trkpt>
      <trkpt lat="44.33011" lon="3.03299">
        <ele>671.5</ele>
        <time>2023-06-25T11:47:29Z</time>
      </trkpt>
      <trkpt lat="44.33005" lon="3.033">
        <ele>671.4</ele>
        <time>2023-06-25T11:47:30Z</time>
      </trkpt>
      <trkpt lat="44.32999" lon="3.03302">
        <ele>671.3</ele>
        <time>2023-06-25T11:47:31Z</time>
      </trkpt>
      <trkpt lat="44.32994" lon="3.03303">
        <ele>671.3</ele>
        <time>2023-06-25T11:47:32Z</time>
      </trkpt>
      <trkpt lat="44.32989" lon="3.03305">
        <ele>671.3</ele>
        <time>2023-06-25T11:47:33Z</time>
      </trkpt>
      <trkpt lat="44.32984" lon="3.03307">
        <ele>671.2</ele>
        <time>2023-06-25T11:47:34Z</time>
      </trkpt>
      <trkpt lat="44.32979" lon="3.0331">
        <ele>671.2</ele>
        <time>2023-06-25T11:47:35Z</time>
      </trkpt>
      <trkpt lat="44.32975" lon="3.03312">
        <ele>671.3</ele>
        <time>2023-06-25T11:47:36Z</time>
      </trkpt>
      <trkpt lat="44.3297" lon="3.03312">
        <ele>671.3</ele>
        <time>2023-06-25T11:47:37Z</time>
      </trkpt>
      <trkpt lat="44.32967" lon="3.03312">
        <ele>671.3</ele>
        <time>2023-06-25T11:47:38Z</time>
      </trkpt>
      <trkpt lat="44.3296" lon="3.03314">
        <ele>671.3</ele>
        <time>2023-06-25T11:47:40Z</time>
      </trkpt>
      <trkpt lat="44.32952" lon="3.03321">
        <ele>671.3</ele>
        <time>2023-06-25T11:47:42Z</time>
      </trkpt>
      <trkpt lat="44.32946" lon="3.03325">
        <ele>671.3</ele>
        <time>2023-06-25T11:47:44Z</time>
      </trkpt>
      <trkpt lat="44.32942" lon="3.03328">
        <ele>671.3</ele>
        <time>2023-06-25T11:47:45Z</time>
      </trkpt>
      <trkpt lat="44.32937" lon="3.03332">
        <ele>671.4</ele>
        <time>2023-06-25T11:47:46Z</time>
      </trkpt>
      <trkpt lat="44.3293" lon="3.03337">
        <ele>671.4</ele>
        <time>2023-06-25T11:47:48Z</time>
      </trkpt>
      <trkpt lat="44.32925" lon="3.03341">
        <ele>671.5</ele>
        <time>2023-06-25T11:47:49Z</time>
      </trkpt>
      <trkpt lat="44.32921" lon="3.03343">
        <ele>671.5</ele>
        <time>2023-06-25T11:47:50Z</time>
      </trkpt>
      <trkpt lat="44.3291" lon="3.03351">
        <ele>671.6</ele>
        <time>2023-06-25T11:47:52Z</time>
      </trkpt>
      <trkpt lat="44.32902" lon="3.03356">
        <ele>671.6</ele>
        <time>2023-06-25T11:47:54Z</time>
      </trkpt>
      <trkpt lat="44.32897" lon="3.03359">
        <ele>671.7</ele>
        <time>2023-06-25T11:47:55Z</time>
      </trkpt>
      <trkpt lat="44.32893" lon="3.03362">
        <ele>671.8</ele>
        <time>2023-06-25T11:47:56Z</time>
      </trkpt>
      <trkpt lat="44.32888" lon="3.03365">
        <ele>671.9</ele>
        <time>2023-06-25T11:47:57Z</time>
      </trkpt>
      <trkpt lat="44.32883" lon="3.03368">
        <ele>672</ele>
        <time>2023-06-25T11:47:58Z</time>
      </trkpt>
      <trkpt lat="44.32878" lon="3.03371">
        <ele>672.2</ele>
        <time>2023-06-25T11:47:59Z</time>
      </trkpt>
      <trkpt lat="44.32873" lon="3.03374">
        <ele>672.3</ele>
        <time>2023-06-25T11:48:00Z</time>
      </trkpt>
      <trkpt lat="44.32869" lon="3.03377">
        <ele>672.4</ele>
        <time>2023-06-25T11:48:01Z</time>
      </trkpt>
      <trkpt lat="44.32866" lon="3.03378">
        <ele>672.5</ele>
        <time>2023-06-25T11:48:02Z</time>
      </trkpt>
      <trkpt lat="44.32861" lon="3.03381">
        <ele>672.6</ele>
        <time>2023-06-25T11:48:03Z</time>
      </trkpt>
      <trkpt lat="44.32854" lon="3.03385">
        <ele>672.7</ele>
        <time>2023-06-25T11:48:05Z</time>
      </trkpt>
      <trkpt lat="44.32848" lon="3.03388">
        <ele>672.8</ele>
        <time>2023-06-25T11:48:06Z</time>
      </trkpt>
      <trkpt lat="44.32845" lon="3.03391">
        <ele>672.9</ele>
        <time>2023-06-25T11:48:07Z</time>
      </trkpt>
      <trkpt lat="44.32837" lon="3.03395">
        <ele>673</ele>
        <time>2023-06-25T11:48:09Z</time>
      </trkpt>
      <trkpt lat="44.32832" lon="3.03397">
        <ele>673.2</ele>
        <time>2023-06-25T11:48:10Z</time>
      </trkpt>
      <trkpt lat="44.32826" lon="3.034">
        <ele>673.4</ele>
        <time>2023-06-25T11:48:11Z</time>
      </trkpt>
      <trkpt lat="44.32822" lon="3.03402">
        <ele>673.5</ele>
        <time>2023-06-25T11:48:12Z</time>
      </trkpt>
      <trkpt lat="44.32815" lon="3.03406">
        <ele>673.8</ele>
        <time>2023-06-25T11:48:14Z</time>
      </trkpt>
      <trkpt lat="44.32811" lon="3.03409">
        <ele>673.9</ele>
        <time>2023-06-25T11:48:15Z</time>
      </trkpt>
      <trkpt lat="44.32803" lon="3.03416">
        <ele>674.3</ele>
        <time>2023-06-25T11:48:17Z</time>
      </trkpt>
      <trkpt lat="44.32797" lon="3.03421">
        <ele>674.6</ele>
        <time>2023-06-25T11:48:19Z</time>
      </trkpt>
      <trkpt lat="44.32793" lon="3.03423">
        <ele>674.7</ele>
        <time>2023-06-25T11:48:20Z</time>
      </trkpt>
      <trkpt lat="44.32788" lon="3.03429">
        <ele>675</ele>
        <time>2023-06-25T11:48:22Z</time>
      </trkpt>
      <trkpt lat="44.32784" lon="3.03433">
        <ele>675.3</ele>
        <time>2023-06-25T11:48:23Z</time>
      </trkpt>
      <trkpt lat="44.32781" lon="3.03437">
        <ele>675.5</ele>
        <time>2023-06-25T11:48:24Z</time>
      </trkpt>
      <trkpt lat="44.32777" lon="3.0344">
        <ele>675.7</ele>
        <time>2023-06-25T11:48:25Z</time>
      </trkpt>
      <trkpt lat="44.32774" lon="3.03443">
        <ele>675.9</ele>
        <time>2023-06-25T11:48:26Z</time>
      </trkpt>
      <trkpt lat="44.3277" lon="3.03446">
        <ele>676.1</ele>
        <time>2023-06-25T11:48:27Z</time>
      </trkpt>
      <trkpt lat="44.32766" lon="3.03449">
        <ele>676.3</ele>
        <time>2023-06-25T11:48:28Z</time>
      </trkpt>
      <trkpt lat="44.32763" lon="3.03451">
        <ele>676.5</ele>
        <time>2023-06-25T11:48:29Z</time>
      </trkpt>
      <trkpt lat="44.32759" lon="3.03453">
        <ele>676.6</ele>
        <time>2023-06-25T11:48:30Z</time>
      </trkpt>
      <trkpt lat="44.32755" lon="3.03455">
        <ele>676.8</ele>
        <time>2023-06-25T11:48:32Z</time>
      </trkpt>
      <trkpt lat="44.32751" lon="3.03457">
        <ele>676.9</ele>
        <time>2023-06-25T11:48:33Z</time>
      </trkpt>
      <trkpt lat="44.32746" lon="3.0346">
        <ele>677.1</ele>
        <time>2023-06-25T11:48:35Z</time>
      </trkpt>
      <trkpt lat="44.32742" lon="3.03462">
        <ele>677.3</ele>
        <time>2023-06-25T11:48:36Z</time>
      </trkpt>
      <trkpt lat="44.32738" lon="3.03463">
        <ele>677.4</ele>
        <time>2023-06-25T11:48:37Z</time>
      </trkpt>
      <trkpt lat="44.32734" lon="3.03465">
        <ele>677.6</ele>
        <time>2023-06-25T11:48:38Z</time>
      </trkpt>
      <trkpt lat="44.32726" lon="3.03469">
        <ele>677.8</ele>
        <time>2023-06-25T11:48:40Z</time>
      </trkpt>
      <trkpt lat="44.32719" lon="3.03474">
        <ele>678.1</ele>
        <time>2023-06-25T11:48:42Z</time>
      </trkpt>
      <trkpt lat="44.32715" lon="3.03477">
        <ele>678.2</ele>
        <time>2023-06-25T11:48:44Z</time>
      </trkpt>
      <trkpt lat="44.32712" lon="3.03478">
        <ele>678.3</ele>
        <time>2023-06-25T11:48:45Z</time>
      </trkpt>
      <trkpt lat="44.32709" lon="3.0348">
        <ele>678.4</ele>
        <time>2023-06-25T11:48:46Z</time>
      </trkpt>
      <trkpt lat="44.32705" lon="3.03483">
        <ele>678.6</ele>
        <time>2023-06-25T11:48:47Z</time>
      </trkpt>
      <trkpt lat="44.327" lon="3.03485">
        <ele>678.7</ele>
        <time>2023-06-25T11:48:48Z</time>
      </trkpt>
      <trkpt lat="44.32695" lon="3.03486">
        <ele>678.8</ele>
        <time>2023-06-25T11:48:50Z</time>
      </trkpt>
      <trkpt lat="44.3269" lon="3.03487">
        <ele>678.9</ele>
        <time>2023-06-25T11:48:51Z</time>
      </trkpt>
      <trkpt lat="44.32685" lon="3.03487">
        <ele>679</ele>
        <time>2023-06-25T11:48:52Z</time>
      </trkpt>
      <trkpt lat="44.32677" lon="3.03487">
        <ele>679.1</ele>
        <time>2023-06-25T11:48:54Z</time>
      </trkpt>
      <trkpt lat="44.32672" lon="3.03487">
        <ele>679.2</ele>
        <time>2023-06-25T11:48:55Z</time>
      </trkpt>
      <trkpt lat="44.32664" lon="3.03487">
        <ele>679.3</ele>
        <time>2023-06-25T11:48:57Z</time>
      </trkpt>
      <trkpt lat="44.32659" lon="3.03486">
        <ele>679.4</ele>
        <time>2023-06-25T11:48:58Z</time>
      </trkpt>
      <trkpt lat="44.32655" lon="3.03485">
        <ele>679.5</ele>
        <time>2023-06-25T11:48:59Z</time>
      </trkpt>
      <trkpt lat="44.3265" lon="3.03485">
        <ele>679.6</ele>
        <time>2023-06-25T11:49:00Z</time>
      </trkpt>
      <trkpt lat="44.32645" lon="3.03485">
        <ele>679.7</ele>
        <time>2023-06-25T11:49:01Z</time>
      </trkpt>
      <trkpt lat="44.32639" lon="3.03485">
        <ele>679.8</ele>
        <time>2023-06-25T11:49:03Z</time>
      </trkpt>
      <trkpt lat="44.32634" lon="3.03484">
        <ele>679.9</ele>
        <time>2023-06-25T11:49:04Z</time>
      </trkpt>
      <trkpt lat="44.32629" lon="3.03483">
        <ele>680</ele>
        <time>2023-06-25T11:49:05Z</time>
      </trkpt>
      <trkpt lat="44.32624" lon="3.03482">
        <ele>680.1</ele>
        <time>2023-06-25T11:49:06Z</time>
      </trkpt>
      <trkpt lat="44.32616" lon="3.03482">
        <ele>680.3</ele>
        <time>2023-06-25T11:49:08Z</time>
      </trkpt>
      <trkpt lat="44.3261" lon="3.03482">
        <ele>680.5</ele>
        <time>2023-06-25T11:49:09Z</time>
      </trkpt>
      <trkpt lat="44.32605" lon="3.03482">
        <ele>680.6</ele>
        <time>2023-06-25T11:49:10Z</time>
      </trkpt>
      <trkpt lat="44.32597" lon="3.03482">
        <ele>680.8</ele>
        <time>2023-06-25T11:49:12Z</time>
      </trkpt>
      <trkpt lat="44.32592" lon="3.03482">
        <ele>680.9</ele>
        <time>2023-06-25T11:49:13Z</time>
      </trkpt>
      <trkpt lat="44.32582" lon="3.03483">
        <ele>681.2</ele>
        <time>2023-06-25T11:49:15Z</time>
      </trkpt>
      <trkpt lat="44.32576" lon="3.03485">
        <ele>681.4</ele>
        <time>2023-06-25T11:49:17Z</time>
      </trkpt>
      <trkpt lat="44.3257" lon="3.03489">
        <ele>681.6</ele>
        <time>2023-06-25T11:49:18Z</time>
      </trkpt>
      <trkpt lat="44.32566" lon="3.03492">
        <ele>681.7</ele>
        <time>2023-06-25T11:49:19Z</time>
      </trkpt>
      <trkpt lat="44.32564" lon="3.03493">
        <ele>681.8</ele>
        <time>2023-06-25T11:49:20Z</time>
      </trkpt>
      <trkpt lat="44.32556" lon="3.03498">
        <ele>682.1</ele>
        <time>2023-06-25T11:49:22Z</time>
      </trkpt>
      <trkpt lat="44.32552" lon="3.03501">
        <ele>682.2</ele>
        <time>2023-06-25T11:49:23Z</time>
      </trkpt>
      <trkpt lat="44.32546" lon="3.03505">
        <ele>682.4</ele>
        <time>2023-06-25T11:49:25Z</time>
      </trkpt>
      <trkpt lat="44.32543" lon="3.03507">
        <ele>682.5</ele>
        <time>2023-06-25T11:49:26Z</time>
      </trkpt>
      <trkpt lat="44.32538" lon="3.0351">
        <ele>682.7</ele>
        <time>2023-06-25T11:49:27Z</time>
      </trkpt>
      <trkpt lat="44.32534" lon="3.03512">
        <ele>682.8</ele>
        <time>2023-06-25T11:49:28Z</time>
      </trkpt>
      <trkpt lat="44.3253" lon="3.03514">
        <ele>682.9</ele>
        <time>2023-06-25T11:49:29Z</time>
      </trkpt>
      <trkpt lat="44.32524" lon="3.03519">
        <ele>683.1</ele>
        <time>2023-06-25T11:49:31Z</time>
      </trkpt>
      <trkpt lat="44.32519" lon="3.03521">
        <ele>683.3</ele>
        <time>2023-06-25T11:49:32Z</time>
      </trkpt>
      <trkpt lat="44.32514" lon="3.03523">
        <ele>683.5</ele>
        <time>2023-06-25T11:49:33Z</time>
      </trkpt>
      <trkpt lat="44.32509" lon="3.03525">
        <ele>683.6</ele>
        <time>2023-06-25T11:49:34Z</time>
      </trkpt>
      <trkpt lat="44.32505" lon="3.03526">
        <ele>683.8</ele>
        <time>2023-06-25T11:49:35Z</time>
      </trkpt>
      <trkpt lat="44.325" lon="3.03528">
        <ele>684</ele>
        <time>2023-06-25T11:49:36Z</time>
      </trkpt>
      <trkpt lat="44.32494" lon="3.03529">
        <ele>684.2</ele>
        <time>2023-06-25T11:49:37Z</time>
      </trkpt>
      <trkpt lat="44.32487" lon="3.03531">
        <ele>684.4</ele>
        <time>2023-06-25T11:49:39Z</time>
      </trkpt>
      <trkpt lat="44.32483" lon="3.03531">
        <ele>684.6</ele>
        <time>2023-06-25T11:49:40Z</time>
      </trkpt>
      <trkpt lat="44.32475" lon="3.0353">
        <ele>684.9</ele>
        <time>2023-06-25T11:49:42Z</time>
      </trkpt>
      <trkpt lat="44.3247" lon="3.03527">
        <ele>685.1</ele>
        <time>2023-06-25T11:49:43Z</time>
      </trkpt>
      <trkpt lat="44.32466" lon="3.03524">
        <ele>685.3</ele>
        <time>2023-06-25T11:49:44Z</time>
      </trkpt>
      <trkpt lat="44.3246" lon="3.03522">
        <ele>685.6</ele>
        <time>2023-06-25T11:49:46Z</time>
      </trkpt>
      <trkpt lat="44.32456" lon="3.03521">
        <ele>685.8</ele>
        <time>2023-06-25T11:49:47Z</time>
      </trkpt>
      <trkpt lat="44.32451" lon="3.0352">
        <ele>686</ele>
        <time>2023-06-25T11:49:48Z</time>
      </trkpt>
      <trkpt lat="44.32447" lon="3.03518">
        <ele>686.1</ele>
        <time>2023-06-25T11:49:49Z</time>
      </trkpt>
      <trkpt lat="44.32442" lon="3.03517">
        <ele>686.3</ele>
        <time>2023-06-25T11:49:50Z</time>
      </trkpt>
      <trkpt lat="44.32438" lon="3.03515">
        <ele>686.5</ele>
        <time>2023-06-25T11:49:51Z</time>
      </trkpt>
      <trkpt lat="44.32433" lon="3.03514">
        <ele>686.6</ele>
        <time>2023-06-25T11:49:52Z</time>
      </trkpt>
      <trkpt lat="44.32429" lon="3.03513">
        <ele>686.8</ele>
        <time>2023-06-25T11:49:54Z</time>
      </trkpt>
      <trkpt lat="44.32424" lon="3.03512">
        <ele>687</ele>
        <time>2023-06-25T11:49:55Z</time>
      </trkpt>
      <trkpt lat="44.3242" lon="3.03512">
        <ele>687.1</ele>
        <time>2023-06-25T11:49:56Z</time>
      </trkpt>
      <trkpt lat="44.32416" lon="3.03511">
        <ele>687.2</ele>
        <time>2023-06-25T11:49:57Z</time>
      </trkpt>
      <trkpt lat="44.32412" lon="3.03511">
        <ele>687.4</ele>
        <time>2023-06-25T11:49:58Z</time>
      </trkpt>
      <trkpt lat="44.32406" lon="3.0351">
        <ele>687.6</ele>
        <time>2023-06-25T11:50:00Z</time>
      </trkpt>
      <trkpt lat="44.32401" lon="3.03509">
        <ele>687.8</ele>
        <time>2023-06-25T11:50:01Z</time>
      </trkpt>
      <trkpt lat="44.32394" lon="3.03507">
        <ele>688.1</ele>
        <time>2023-06-25T11:50:03Z</time>
      </trkpt>
      <trkpt lat="44.3239" lon="3.03505">
        <ele>688.2</ele>
        <time>2023-06-25T11:50:04Z</time>
      </trkpt>
      <trkpt lat="44.32387" lon="3.03504">
        <ele>688.3</ele>
        <time>2023-06-25T11:50:05Z</time>
      </trkpt>
      <trkpt lat="44.32381" lon="3.03502">
        <ele>688.5</ele>
        <time>2023-06-25T11:50:07Z</time>
      </trkpt>
      <trkpt lat="44.32378" lon="3.03501">
        <ele>688.6</ele>
        <time>2023-06-25T11:50:08Z</time>
      </trkpt>
      <trkpt lat="44.32373" lon="3.03499">
        <ele>688.8</ele>
        <time>2023-06-25T11:50:10Z</time>
      </trkpt>
      <trkpt lat="44.32369" lon="3.03499">
        <ele>688.9</ele>
        <time>2023-06-25T11:50:11Z</time>
      </trkpt>
      <trkpt lat="44.32365" lon="3.03499">
        <ele>689</ele>
        <time>2023-06-25T11:50:12Z</time>
      </trkpt>
      <trkpt lat="44.32362" lon="3.03499">
        <ele>689.1</ele>
        <time>2023-06-25T11:50:13Z</time>
      </trkpt>
      <trkpt lat="44.32359" lon="3.035">
        <ele>689.2</ele>
        <time>2023-06-25T11:50:14Z</time>
      </trkpt>
      <trkpt lat="44.32356" lon="3.03504">
        <ele>689</ele>
        <time>2023-06-25T11:50:16Z</time>
      </trkpt>
      <trkpt lat="44.32355" lon="3.03509">
        <ele>688.9</ele>
        <time>2023-06-25T11:50:17Z</time>
      </trkpt>
      <trkpt lat="44.32355" lon="3.03517">
        <ele>688.7</ele>
        <time>2023-06-25T11:50:18Z</time>
      </trkpt>
      <trkpt lat="44.32354" lon="3.03524">
        <ele>688.6</ele>
        <time>2023-06-25T11:50:19Z</time>
      </trkpt>
      <trkpt lat="44.32354" lon="3.03531">
        <ele>688.4</ele>
        <time>2023-06-25T11:50:20Z</time>
      </trkpt>
      <trkpt lat="44.32353" lon="3.03538">
        <ele>688.2</ele>
        <time>2023-06-25T11:50:21Z</time>
      </trkpt>
      <trkpt lat="44.32353" lon="3.03546">
        <ele>688</ele>
        <time>2023-06-25T11:50:22Z</time>
      </trkpt>
      <trkpt lat="44.32353" lon="3.03552">
        <ele>687.8</ele>
        <time>2023-06-25T11:50:23Z</time>
      </trkpt>
      <trkpt lat="44.32352" lon="3.03559">
        <ele>687.6</ele>
        <time>2023-06-25T11:50:24Z</time>
      </trkpt>
      <trkpt lat="44.32352" lon="3.03567">
        <ele>687.3</ele>
        <time>2023-06-25T11:50:25Z</time>
      </trkpt>
      <trkpt lat="44.32351" lon="3.03574">
        <ele>687</ele>
        <time>2023-06-25T11:50:26Z</time>
      </trkpt>
      <trkpt lat="44.3235" lon="3.03582">
        <ele>686.7</ele>
        <time>2023-06-25T11:50:27Z</time>
      </trkpt>
      <trkpt lat="44.32349" lon="3.03591">
        <ele>686.3</ele>
        <time>2023-06-25T11:50:28Z</time>
      </trkpt>
      <trkpt lat="44.32349" lon="3.03599">
        <ele>686</ele>
        <time>2023-06-25T11:50:29Z</time>
      </trkpt>
      <trkpt lat="44.32349" lon="3.03608">
        <ele>685.6</ele>
        <time>2023-06-25T11:50:30Z</time>
      </trkpt>
      <trkpt lat="44.32351" lon="3.03617">
        <ele>685.3</ele>
        <time>2023-06-25T11:50:31Z</time>
      </trkpt>
      <trkpt lat="44.32352" lon="3.03626">
        <ele>685</ele>
        <time>2023-06-25T11:50:32Z</time>
      </trkpt>
      <trkpt lat="44.32354" lon="3.03635">
        <ele>684.7</ele>
        <time>2023-06-25T11:50:33Z</time>
      </trkpt>
      <trkpt lat="44.32354" lon="3.03645">
        <ele>684.4</ele>
        <time>2023-06-25T11:50:34Z</time>
      </trkpt>
      <trkpt lat="44.32354" lon="3.03655">
        <ele>684.1</ele>
        <time>2023-06-25T11:50:35Z</time>
      </trkpt>
      <trkpt lat="44.32353" lon="3.03665">
        <ele>683.8</ele>
        <time>2023-06-25T11:50:36Z</time>
      </trkpt>
      <trkpt lat="44.32353" lon="3.03675">
        <ele>683.6</ele>
        <time>2023-06-25T11:50:37Z</time>
      </trkpt>
      <trkpt lat="44.32353" lon="3.03685">
        <ele>683.4</ele>
        <time>2023-06-25T11:50:38Z</time>
      </trkpt>
      <trkpt lat="44.32352" lon="3.03695">
        <ele>683.2</ele>
        <time>2023-06-25T11:50:39Z</time>
      </trkpt>
      <trkpt lat="44.32352" lon="3.03705">
        <ele>683</ele>
        <time>2023-06-25T11:50:40Z</time>
      </trkpt>
      <trkpt lat="44.32351" lon="3.03714">
        <ele>682.8</ele>
        <time>2023-06-25T11:50:41Z</time>
      </trkpt>
      <trkpt lat="44.3235" lon="3.03724">
        <ele>682.6</ele>
        <time>2023-06-25T11:50:42Z</time>
      </trkpt>
      <trkpt lat="44.32349" lon="3.03733">
        <ele>682.5</ele>
        <time>2023-06-25T11:50:43Z</time>
      </trkpt>
      <trkpt lat="44.32348" lon="3.03743">
        <ele>682.4</ele>
        <time>2023-06-25T11:50:44Z</time>
      </trkpt>
      <trkpt lat="44.32347" lon="3.03752">
        <ele>682.2</ele>
        <time>2023-06-25T11:50:45Z</time>
      </trkpt>
      <trkpt lat="44.32346" lon="3.03762">
        <ele>682.1</ele>
        <time>2023-06-25T11:50:46Z</time>
      </trkpt>
      <trkpt lat="44.32345" lon="3.03771">
        <ele>681.9</ele>
        <time>2023-06-25T11:50:47Z</time>
      </trkpt>
      <trkpt lat="44.32345" lon="3.0378">
        <ele>681.8</ele>
        <time>2023-06-25T11:50:48Z</time>
      </trkpt>
      <trkpt lat="44.32344" lon="3.03789">
        <ele>681.7</ele>
        <time>2023-06-25T11:50:49Z</time>
      </trkpt>
      <trkpt lat="44.32344" lon="3.03798">
        <ele>681.5</ele>
        <time>2023-06-25T11:50:50Z</time>
      </trkpt>
      <trkpt lat="44.32343" lon="3.03807">
        <ele>681.4</ele>
        <time>2023-06-25T11:50:51Z</time>
      </trkpt>
      <trkpt lat="44.32343" lon="3.03815">
        <ele>681.3</ele>
        <time>2023-06-25T11:50:52Z</time>
      </trkpt>
      <trkpt lat="44.32343" lon="3.03824">
        <ele>681.1</ele>
        <time>2023-06-25T11:50:53Z</time>
      </trkpt>
      <trkpt lat="44.32342" lon="3.03833">
        <ele>681</ele>
        <time>2023-06-25T11:50:54Z</time>
      </trkpt>
      <trkpt lat="44.32343" lon="3.03842">
        <ele>680.9</ele>
        <time>2023-06-25T11:50:55Z</time>
      </trkpt>
      <trkpt lat="44.32343" lon="3.0385">
        <ele>680.7</ele>
        <time>2023-06-25T11:50:56Z</time>
      </trkpt>
      <trkpt lat="44.32343" lon="3.03859">
        <ele>680.6</ele>
        <time>2023-06-25T11:50:57Z</time>
      </trkpt>
      <trkpt lat="44.32344" lon="3.03867">
        <ele>680.5</ele>
        <time>2023-06-25T11:50:58Z</time>
      </trkpt>
      <trkpt lat="44.32345" lon="3.03876">
        <ele>680.3</ele>
        <time>2023-06-25T11:50:59Z</time>
      </trkpt>
      <trkpt lat="44.32345" lon="3.03884">
        <ele>680.2</ele>
        <time>2023-06-25T11:51:00Z</time>
      </trkpt>
      <trkpt lat="44.32346" lon="3.03892">
        <ele>680.1</ele>
        <time>2023-06-25T11:51:01Z</time>
      </trkpt>
      <trkpt lat="44.32346" lon="3.03901">
        <ele>679.9</ele>
        <time>2023-06-25T11:51:02Z</time>
      </trkpt>
      <trkpt lat="44.32347" lon="3.0391">
        <ele>679.8</ele>
        <time>2023-06-25T11:51:03Z</time>
      </trkpt>
      <trkpt lat="44.32348" lon="3.03918">
        <ele>679.6</ele>
        <time>2023-06-25T11:51:04Z</time>
      </trkpt>
      <trkpt lat="44.32348" lon="3.03926">
        <ele>679.5</ele>
        <time>2023-06-25T11:51:05Z</time>
      </trkpt>
      <trkpt lat="44.32349" lon="3.03935">
        <ele>679.4</ele>
        <time>2023-06-25T11:51:06Z</time>
      </trkpt>
      <trkpt lat="44.3235" lon="3.03942">
        <ele>679.3</ele>
        <time>2023-06-25T11:51:07Z</time>
      </trkpt>
      <trkpt lat="44.32351" lon="3.0395">
        <ele>679.2</ele>
        <time>2023-06-25T11:51:08Z</time>
      </trkpt>
      <trkpt lat="44.32352" lon="3.03959">
        <ele>679.1</ele>
        <time>2023-06-25T11:51:09Z</time>
      </trkpt>
      <trkpt lat="44.32352" lon="3.03967">
        <ele>678.9</ele>
        <time>2023-06-25T11:51:10Z</time>
      </trkpt>
      <trkpt lat="44.32352" lon="3.03974">
        <ele>678.8</ele>
        <time>2023-06-25T11:51:11Z</time>
      </trkpt>
      <trkpt lat="44.32352" lon="3.03982">
        <ele>678.7</ele>
        <time>2023-06-25T11:51:12Z</time>
      </trkpt>
      <trkpt lat="44.3235" lon="3.03989">
        <ele>678.5</ele>
        <time>2023-06-25T11:51:13Z</time>
      </trkpt>
      <trkpt lat="44.32349" lon="3.03996">
        <ele>678.4</ele>
        <time>2023-06-25T11:51:14Z</time>
      </trkpt>
      <trkpt lat="44.32347" lon="3.04003">
        <ele>678.3</ele>
        <time>2023-06-25T11:51:15Z</time>
      </trkpt>
      <trkpt lat="44.32345" lon="3.0401">
        <ele>678.2</ele>
        <time>2023-06-25T11:51:16Z</time>
      </trkpt>
      <trkpt lat="44.32344" lon="3.04017">
        <ele>678.1</ele>
        <time>2023-06-25T11:51:17Z</time>
      </trkpt>
      <trkpt lat="44.32343" lon="3.04025">
        <ele>678.1</ele>
        <time>2023-06-25T11:51:18Z</time>
      </trkpt>
      <trkpt lat="44.32343" lon="3.04032">
        <ele>678</ele>
        <time>2023-06-25T11:51:19Z</time>
      </trkpt>
      <trkpt lat="44.32342" lon="3.04039">
        <ele>677.9</ele>
        <time>2023-06-25T11:51:20Z</time>
      </trkpt>
      <trkpt lat="44.32342" lon="3.04046">
        <ele>677.9</ele>
        <time>2023-06-25T11:51:21Z</time>
      </trkpt>
      <trkpt lat="44.32342" lon="3.04053">
        <ele>677.9</ele>
        <time>2023-06-25T11:51:22Z</time>
      </trkpt>
      <trkpt lat="44.32343" lon="3.04059">
        <ele>677.9</ele>
        <time>2023-06-25T11:51:23Z</time>
      </trkpt>
      <trkpt lat="44.32343" lon="3.04066">
        <ele>677.9</ele>
        <time>2023-06-25T11:51:24Z</time>
      </trkpt>
      <trkpt lat="44.32344" lon="3.04072">
        <ele>677.8</ele>
        <time>2023-06-25T11:51:25Z</time>
      </trkpt>
      <trkpt lat="44.32345" lon="3.04078">
        <ele>677.8</ele>
        <time>2023-06-25T11:51:26Z</time>
      </trkpt>
      <trkpt lat="44.32345" lon="3.04085">
        <ele>677.8</ele>
        <time>2023-06-25T11:51:27Z</time>
      </trkpt>
      <trkpt lat="44.32346" lon="3.04088">
        <ele>677.8</ele>
        <time>2023-06-25T11:51:28Z</time>
      </trkpt>
      <trkpt lat="44.32347" lon="3.04094">
        <ele>677.8</ele>
        <time>2023-06-25T11:51:29Z</time>
      </trkpt>
      <trkpt lat="44.32347" lon="3.04098">
        <ele>677.8</ele>
        <time>2023-06-25T11:51:30Z</time>
      </trkpt>
      <trkpt lat="44.32349" lon="3.04105">
        <ele>677.7</ele>
        <time>2023-06-25T11:51:31Z</time>
      </trkpt>
      <trkpt lat="44.3235" lon="3.04111">
        <ele>677.7</ele>
        <time>2023-06-25T11:51:32Z</time>
      </trkpt>
      <trkpt lat="44.32351" lon="3.04123">
        <ele>677.7</ele>
        <time>2023-06-25T11:51:33Z</time>
      </trkpt>
      <trkpt lat="44.32352" lon="3.04128">
        <ele>677.7</ele>
        <time>2023-06-25T11:51:34Z</time>
      </trkpt>
      <trkpt lat="44.32352" lon="3.04134">
        <ele>677.6</ele>
        <time>2023-06-25T11:51:35Z</time>
      </trkpt>
      <trkpt lat="44.32353" lon="3.04138">
        <ele>677.6</ele>
        <time>2023-06-25T11:51:36Z</time>
      </trkpt>
      <trkpt lat="44.32354" lon="3.04146">
        <ele>677.6</ele>
        <time>2023-06-25T11:51:38Z</time>
      </trkpt>
      <trkpt lat="44.32355" lon="3.04151">
        <ele>677.6</ele>
        <time>2023-06-25T11:51:39Z</time>
      </trkpt>
      <trkpt lat="44.32356" lon="3.0416">
        <ele>677.5</ele>
        <time>2023-06-25T11:51:40Z</time>
      </trkpt>
      <trkpt lat="44.32357" lon="3.04166">
        <ele>677.5</ele>
        <time>2023-06-25T11:51:41Z</time>
      </trkpt>
      <trkpt lat="44.32359" lon="3.04174">
        <ele>677.5</ele>
        <time>2023-06-25T11:51:42Z</time>
      </trkpt>
      <trkpt lat="44.3236" lon="3.04182">
        <ele>677.5</ele>
        <time>2023-06-25T11:51:43Z</time>
      </trkpt>
      <trkpt lat="44.32361" lon="3.04189">
        <ele>677.5</ele>
        <time>2023-06-25T11:51:44Z</time>
      </trkpt>
      <trkpt lat="44.32362" lon="3.04196">
        <ele>677.6</ele>
        <time>2023-06-25T11:51:45Z</time>
      </trkpt>
      <trkpt lat="44.32364" lon="3.04203">
        <ele>677.6</ele>
        <time>2023-06-25T11:51:46Z</time>
      </trkpt>
      <trkpt lat="44.32365" lon="3.0421">
        <ele>677.6</ele>
        <time>2023-06-25T11:51:47Z</time>
      </trkpt>
      <trkpt lat="44.32366" lon="3.04217">
        <ele>677.6</ele>
        <time>2023-06-25T11:51:48Z</time>
      </trkpt>
      <trkpt lat="44.32367" lon="3.04224">
        <ele>677.6</ele>
        <time>2023-06-25T11:51:49Z</time>
      </trkpt>
      <trkpt lat="44.32369" lon="3.04233">
        <ele>677.7</ele>
        <time>2023-06-25T11:51:51Z</time>
      </trkpt>
      <trkpt lat="44.3237" lon="3.04243">
        <ele>677.7</ele>
        <time>2023-06-25T11:51:52Z</time>
      </trkpt>
      <trkpt lat="44.3237" lon="3.0425">
        <ele>677.7</ele>
        <time>2023-06-25T11:51:53Z</time>
      </trkpt>
      <trkpt lat="44.3237" lon="3.04257">
        <ele>677.7</ele>
        <time>2023-06-25T11:51:54Z</time>
      </trkpt>
      <trkpt lat="44.3237" lon="3.04264">
        <ele>677.7</ele>
        <time>2023-06-25T11:51:55Z</time>
      </trkpt>
      <trkpt lat="44.3237" lon="3.04268">
        <ele>677.7</ele>
        <time>2023-06-25T11:51:56Z</time>
      </trkpt>
      <trkpt lat="44.3237" lon="3.04276">
        <ele>677.7</ele>
        <time>2023-06-25T11:51:57Z</time>
      </trkpt>
      <trkpt lat="44.32371" lon="3.04289">
        <ele>677.8</ele>
        <time>2023-06-25T11:51:59Z</time>
      </trkpt>
      <trkpt lat="44.32371" lon="3.04296">
        <ele>677.9</ele>
        <time>2023-06-25T11:52:00Z</time>
      </trkpt>
      <trkpt lat="44.32371" lon="3.04303">
        <ele>677.9</ele>
        <time>2023-06-25T11:52:01Z</time>
      </trkpt>
      <trkpt lat="44.32371" lon="3.0431">
        <ele>678</ele>
        <time>2023-06-25T11:52:02Z</time>
      </trkpt>
      <trkpt lat="44.32371" lon="3.04317">
        <ele>678.1</ele>
        <time>2023-06-25T11:52:03Z</time>
      </trkpt>
      <trkpt lat="44.32372" lon="3.04322">
        <ele>678.2</ele>
        <time>2023-06-25T11:52:04Z</time>
      </trkpt>
      <trkpt lat="44.32373" lon="3.04333">
        <ele>678.3</ele>
        <time>2023-06-25T11:52:06Z</time>
      </trkpt>
      <trkpt lat="44.32374" lon="3.04343">
        <ele>678.4</ele>
        <time>2023-06-25T11:52:08Z</time>
      </trkpt>
      <trkpt lat="44.32375" lon="3.0435">
        <ele>678.5</ele>
        <time>2023-06-25T11:52:09Z</time>
      </trkpt>
      <trkpt lat="44.32375" lon="3.04357">
        <ele>678.6</ele>
        <time>2023-06-25T11:52:10Z</time>
      </trkpt>
      <trkpt lat="44.32376" lon="3.04364">
        <ele>678.6</ele>
        <time>2023-06-25T11:52:11Z</time>
      </trkpt>
      <trkpt lat="44.32376" lon="3.04373">
        <ele>678.7</ele>
        <time>2023-06-25T11:52:12Z</time>
      </trkpt>
      <trkpt lat="44.32376" lon="3.04379">
        <ele>678.8</ele>
        <time>2023-06-25T11:52:13Z</time>
      </trkpt>
      <trkpt lat="44.32376" lon="3.04392">
        <ele>678.9</ele>
        <time>2023-06-25T11:52:15Z</time>
      </trkpt>
      <trkpt lat="44.32376" lon="3.04399">
        <ele>679</ele>
        <time>2023-06-25T11:52:16Z</time>
      </trkpt>
      <trkpt lat="44.32376" lon="3.04405">
        <ele>679.1</ele>
        <time>2023-06-25T11:52:17Z</time>
      </trkpt>
      <trkpt lat="44.32376" lon="3.04412">
        <ele>679.1</ele>
        <time>2023-06-25T11:52:18Z</time>
      </trkpt>
      <trkpt lat="44.32376" lon="3.04418">
        <ele>679.2</ele>
        <time>2023-06-25T11:52:19Z</time>
      </trkpt>
      <trkpt lat="44.32377" lon="3.04431">
        <ele>679.4</ele>
        <time>2023-06-25T11:52:21Z</time>
      </trkpt>
      <trkpt lat="44.32377" lon="3.0444">
        <ele>679.5</ele>
        <time>2023-06-25T11:52:23Z</time>
      </trkpt>
      <trkpt lat="44.32377" lon="3.04447">
        <ele>679.6</ele>
        <time>2023-06-25T11:52:24Z</time>
      </trkpt>
      <trkpt lat="44.32377" lon="3.04454">
        <ele>679.7</ele>
        <time>2023-06-25T11:52:25Z</time>
      </trkpt>
      <trkpt lat="44.32377" lon="3.04464">
        <ele>679.8</ele>
        <time>2023-06-25T11:52:27Z</time>
      </trkpt>
      <trkpt lat="44.32377" lon="3.04471">
        <ele>680</ele>
        <time>2023-06-25T11:52:28Z</time>
      </trkpt>
      <trkpt lat="44.32377" lon="3.04477">
        <ele>680.1</ele>
        <time>2023-06-25T11:52:29Z</time>
      </trkpt>
      <trkpt lat="44.32377" lon="3.04483">
        <ele>680.2</ele>
        <time>2023-06-25T11:52:30Z</time>
      </trkpt>
      <trkpt lat="44.32378" lon="3.04491">
        <ele>680.3</ele>
        <time>2023-06-25T11:52:31Z</time>
      </trkpt>
      <trkpt lat="44.32379" lon="3.04495">
        <ele>680.4</ele>
        <time>2023-06-25T11:52:32Z</time>
      </trkpt>
      <trkpt lat="44.3238" lon="3.04502">
        <ele>680.5</ele>
        <time>2023-06-25T11:52:33Z</time>
      </trkpt>
      <trkpt lat="44.3238" lon="3.04515">
        <ele>680.7</ele>
        <time>2023-06-25T11:52:35Z</time>
      </trkpt>
      <trkpt lat="44.32381" lon="3.04521">
        <ele>680.8</ele>
        <time>2023-06-25T11:52:36Z</time>
      </trkpt>
      <trkpt lat="44.32382" lon="3.04533">
        <ele>681.1</ele>
        <time>2023-06-25T11:52:38Z</time>
      </trkpt>
      <trkpt lat="44.32382" lon="3.04543">
        <ele>681.2</ele>
        <time>2023-06-25T11:52:40Z</time>
      </trkpt>
      <trkpt lat="44.3238" lon="3.0455">
        <ele>681.3</ele>
        <time>2023-06-25T11:52:41Z</time>
      </trkpt>
      <trkpt lat="44.3238" lon="3.0456">
        <ele>681.3</ele>
        <time>2023-06-25T11:52:43Z</time>
      </trkpt>
      <trkpt lat="44.3238" lon="3.04566">
        <ele>681.3</ele>
        <time>2023-06-25T11:52:44Z</time>
      </trkpt>
      <trkpt lat="44.32379" lon="3.04573">
        <ele>681.3</ele>
        <time>2023-06-25T11:52:46Z</time>
      </trkpt>
      <trkpt lat="44.32379" lon="3.04579">
        <ele>681.2</ele>
        <time>2023-06-25T11:52:47Z</time>
      </trkpt>
      <trkpt lat="44.32379" lon="3.04585">
        <ele>681</ele>
        <time>2023-06-25T11:52:48Z</time>
      </trkpt>
      <trkpt lat="44.32378" lon="3.04591">
        <ele>680.8</ele>
        <time>2023-06-25T11:52:49Z</time>
      </trkpt>
      <trkpt lat="44.32379" lon="3.04598">
        <ele>680.5</ele>
        <time>2023-06-25T11:52:50Z</time>
      </trkpt>
      <trkpt lat="44.32379" lon="3.04604">
        <ele>680.2</ele>
        <time>2023-06-25T11:52:51Z</time>
      </trkpt>
      <trkpt lat="44.32379" lon="3.0461">
        <ele>679.8</ele>
        <time>2023-06-25T11:52:52Z</time>
      </trkpt>
      <trkpt lat="44.3238" lon="3.04621">
        <ele>679.2</ele>
        <time>2023-06-25T11:52:54Z</time>
      </trkpt>
      <trkpt lat="44.3238" lon="3.04628">
        <ele>678.7</ele>
        <time>2023-06-25T11:52:55Z</time>
      </trkpt>
      <trkpt lat="44.3238" lon="3.0464">
        <ele>677.8</ele>
        <time>2023-06-25T11:52:57Z</time>
      </trkpt>
      <trkpt lat="44.3238" lon="3.04647">
        <ele>677.2</ele>
        <time>2023-06-25T11:52:58Z</time>
      </trkpt>
      <trkpt lat="44.32381" lon="3.04654">
        <ele>676.7</ele>
        <time>2023-06-25T11:52:59Z</time>
      </trkpt>
      <trkpt lat="44.32382" lon="3.04661">
        <ele>676.1</ele>
        <time>2023-06-25T11:53:00Z</time>
      </trkpt>
      <trkpt lat="44.32382" lon="3.04668">
        <ele>675.5</ele>
        <time>2023-06-25T11:53:01Z</time>
      </trkpt>
      <trkpt lat="44.32383" lon="3.04675">
        <ele>674.8</ele>
        <time>2023-06-25T11:53:02Z</time>
      </trkpt>
      <trkpt lat="44.32385" lon="3.04682">
        <ele>674</ele>
        <time>2023-06-25T11:53:03Z</time>
      </trkpt>
      <trkpt lat="44.32387" lon="3.0469">
        <ele>673.2</ele>
        <time>2023-06-25T11:53:04Z</time>
      </trkpt>
      <trkpt lat="44.32389" lon="3.04698">
        <ele>672.3</ele>
        <time>2023-06-25T11:53:05Z</time>
      </trkpt>
      <trkpt lat="44.32392" lon="3.04707">
        <ele>671.3</ele>
        <time>2023-06-25T11:53:06Z</time>
      </trkpt>
      <trkpt lat="44.32395" lon="3.04718">
        <ele>670.2</ele>
        <time>2023-06-25T11:53:07Z</time>
      </trkpt>
      <trkpt lat="44.32397" lon="3.0473">
        <ele>669.1</ele>
        <time>2023-06-25T11:53:08Z</time>
      </trkpt>
      <trkpt lat="44.32399" lon="3.04742">
        <ele>668.2</ele>
        <time>2023-06-25T11:53:09Z</time>
      </trkpt>
      <trkpt lat="44.32401" lon="3.04755">
        <ele>667.4</ele>
        <time>2023-06-25T11:53:10Z</time>
      </trkpt>
      <trkpt lat="44.32401" lon="3.04767">
        <ele>667</ele>
        <time>2023-06-25T11:53:11Z</time>
      </trkpt>
      <trkpt lat="44.32401" lon="3.04777">
        <ele>666.7</ele>
        <time>2023-06-25T11:53:12Z</time>
      </trkpt>
      <trkpt lat="44.32401" lon="3.04788">
        <ele>666.4</ele>
        <time>2023-06-25T11:53:13Z</time>
      </trkpt>
      <trkpt lat="44.32401" lon="3.04798">
        <ele>666.2</ele>
        <time>2023-06-25T11:53:14Z</time>
      </trkpt>
      <trkpt lat="44.324" lon="3.04807">
        <ele>666</ele>
        <time>2023-06-25T11:53:15Z</time>
      </trkpt>
      <trkpt lat="44.324" lon="3.04816">
        <ele>665.9</ele>
        <time>2023-06-25T11:53:16Z</time>
      </trkpt>
      <trkpt lat="44.324" lon="3.04825">
        <ele>665.8</ele>
        <time>2023-06-25T11:53:17Z</time>
      </trkpt>
      <trkpt lat="44.324" lon="3.04833">
        <ele>665.7</ele>
        <time>2023-06-25T11:53:18Z</time>
      </trkpt>
      <trkpt lat="44.324" lon="3.04841">
        <ele>665.6</ele>
        <time>2023-06-25T11:53:19Z</time>
      </trkpt>
      <trkpt lat="44.324" lon="3.04849">
        <ele>665.6</ele>
        <time>2023-06-25T11:53:20Z</time>
      </trkpt>
      <trkpt lat="44.324" lon="3.04857">
        <ele>665.5</ele>
        <time>2023-06-25T11:53:21Z</time>
      </trkpt>
      <trkpt lat="44.324" lon="3.04865">
        <ele>665.4</ele>
        <time>2023-06-25T11:53:22Z</time>
      </trkpt>
      <trkpt lat="44.324" lon="3.04873">
        <ele>665.4</ele>
        <time>2023-06-25T11:53:23Z</time>
      </trkpt>
      <trkpt lat="44.32399" lon="3.04881">
        <ele>665.2</ele>
        <time>2023-06-25T11:53:24Z</time>
      </trkpt>
      <trkpt lat="44.32399" lon="3.0489">
        <ele>665</ele>
        <time>2023-06-25T11:53:25Z</time>
      </trkpt>
      <trkpt lat="44.32399" lon="3.04899">
        <ele>664.8</ele>
        <time>2023-06-25T11:53:26Z</time>
      </trkpt>
      <trkpt lat="44.32399" lon="3.04909">
        <ele>664.6</ele>
        <time>2023-06-25T11:53:27Z</time>
      </trkpt>
      <trkpt lat="44.324" lon="3.04918">
        <ele>664.5</ele>
        <time>2023-06-25T11:53:28Z</time>
      </trkpt>
      <trkpt lat="44.324" lon="3.04927">
        <ele>664.3</ele>
        <time>2023-06-25T11:53:29Z</time>
      </trkpt>
      <trkpt lat="44.324" lon="3.04937">
        <ele>664.2</ele>
        <time>2023-06-25T11:53:30Z</time>
      </trkpt>
      <trkpt lat="44.32401" lon="3.04947">
        <ele>664.1</ele>
        <time>2023-06-25T11:53:31Z</time>
      </trkpt>
      <trkpt lat="44.32401" lon="3.04956">
        <ele>664</ele>
        <time>2023-06-25T11:53:32Z</time>
      </trkpt>
      <trkpt lat="44.32402" lon="3.04965">
        <ele>664</ele>
        <time>2023-06-25T11:53:33Z</time>
      </trkpt>
      <trkpt lat="44.32403" lon="3.04973">
        <ele>663.9</ele>
        <time>2023-06-25T11:53:34Z</time>
      </trkpt>
      <trkpt lat="44.32403" lon="3.04982">
        <ele>663.8</ele>
        <time>2023-06-25T11:53:35Z</time>
      </trkpt>
      <trkpt lat="44.32404" lon="3.04991">
        <ele>663.8</ele>
        <time>2023-06-25T11:53:36Z</time>
      </trkpt>
      <trkpt lat="44.32405" lon="3.05">
        <ele>663.8</ele>
        <time>2023-06-25T11:53:37Z</time>
      </trkpt>
      <trkpt lat="44.32405" lon="3.05009">
        <ele>663.8</ele>
        <time>2023-06-25T11:53:38Z</time>
      </trkpt>
      <trkpt lat="44.32406" lon="3.05019">
        <ele>663.8</ele>
        <time>2023-06-25T11:53:39Z</time>
      </trkpt>
      <trkpt lat="44.32407" lon="3.05028">
        <ele>663.8</ele>
        <time>2023-06-25T11:53:40Z</time>
      </trkpt>
      <trkpt lat="44.32408" lon="3.05038">
        <ele>663.8</ele>
        <time>2023-06-25T11:53:41Z</time>
      </trkpt>
      <trkpt lat="44.3241" lon="3.05046">
        <ele>663.8</ele>
        <time>2023-06-25T11:53:42Z</time>
      </trkpt>
      <trkpt lat="44.32412" lon="3.05055">
        <ele>663.8</ele>
        <time>2023-06-25T11:53:43Z</time>
      </trkpt>
      <trkpt lat="44.32414" lon="3.05063">
        <ele>663.8</ele>
        <time>2023-06-25T11:53:44Z</time>
      </trkpt>
      <trkpt lat="44.32415" lon="3.05072">
        <ele>663.9</ele>
        <time>2023-06-25T11:53:45Z</time>
      </trkpt>
      <trkpt lat="44.32417" lon="3.05079">
        <ele>663.9</ele>
        <time>2023-06-25T11:53:46Z</time>
      </trkpt>
      <trkpt lat="44.32419" lon="3.05087">
        <ele>663.9</ele>
        <time>2023-06-25T11:53:47Z</time>
      </trkpt>
      <trkpt lat="44.3242" lon="3.05095">
        <ele>663.9</ele>
        <time>2023-06-25T11:53:48Z</time>
      </trkpt>
      <trkpt lat="44.32422" lon="3.05103">
        <ele>664</ele>
        <time>2023-06-25T11:53:49Z</time>
      </trkpt>
      <trkpt lat="44.32424" lon="3.05112">
        <ele>664.1</ele>
        <time>2023-06-25T11:53:50Z</time>
      </trkpt>
      <trkpt lat="44.32426" lon="3.0512">
        <ele>664.1</ele>
        <time>2023-06-25T11:53:51Z</time>
      </trkpt>
      <trkpt lat="44.32427" lon="3.05129">
        <ele>664.2</ele>
        <time>2023-06-25T11:53:52Z</time>
      </trkpt>
      <trkpt lat="44.32429" lon="3.05138">
        <ele>664.3</ele>
        <time>2023-06-25T11:53:53Z</time>
      </trkpt>
      <trkpt lat="44.3243" lon="3.05147">
        <ele>664.3</ele>
        <time>2023-06-25T11:53:54Z</time>
      </trkpt>
      <trkpt lat="44.32431" lon="3.05155">
        <ele>664.4</ele>
        <time>2023-06-25T11:53:55Z</time>
      </trkpt>
      <trkpt lat="44.32432" lon="3.05163">
        <ele>664.5</ele>
        <time>2023-06-25T11:53:56Z</time>
      </trkpt>
      <trkpt lat="44.32432" lon="3.05171">
        <ele>664.6</ele>
        <time>2023-06-25T11:53:57Z</time>
      </trkpt>
      <trkpt lat="44.32433" lon="3.05179">
        <ele>664.7</ele>
        <time>2023-06-25T11:53:58Z</time>
      </trkpt>
      <trkpt lat="44.32433" lon="3.05187">
        <ele>664.8</ele>
        <time>2023-06-25T11:53:59Z</time>
      </trkpt>
      <trkpt lat="44.32434" lon="3.05195">
        <ele>665</ele>
        <time>2023-06-25T11:54:00Z</time>
      </trkpt>
      <trkpt lat="44.32435" lon="3.05203">
        <ele>665.1</ele>
        <time>2023-06-25T11:54:01Z</time>
      </trkpt>
      <trkpt lat="44.32435" lon="3.05211">
        <ele>665.2</ele>
        <time>2023-06-25T11:54:02Z</time>
      </trkpt>
      <trkpt lat="44.32436" lon="3.05219">
        <ele>665.4</ele>
        <time>2023-06-25T11:54:03Z</time>
      </trkpt>
      <trkpt lat="44.32437" lon="3.05226">
        <ele>665.5</ele>
        <time>2023-06-25T11:54:04Z</time>
      </trkpt>
      <trkpt lat="44.32439" lon="3.05233">
        <ele>665.5</ele>
        <time>2023-06-25T11:54:05Z</time>
      </trkpt>
      <trkpt lat="44.3244" lon="3.0524">
        <ele>665.6</ele>
        <time>2023-06-25T11:54:06Z</time>
      </trkpt>
      <trkpt lat="44.32441" lon="3.05248">
        <ele>665.7</ele>
        <time>2023-06-25T11:54:07Z</time>
      </trkpt>
      <trkpt lat="44.32442" lon="3.05256">
        <ele>665.7</ele>
        <time>2023-06-25T11:54:08Z</time>
      </trkpt>
      <trkpt lat="44.32443" lon="3.05263">
        <ele>665.7</ele>
        <time>2023-06-25T11:54:09Z</time>
      </trkpt>
      <trkpt lat="44.32443" lon="3.05271">
        <ele>665.7</ele>
        <time>2023-06-25T11:54:10Z</time>
      </trkpt>
      <trkpt lat="44.32443" lon="3.05279">
        <ele>665.7</ele>
        <time>2023-06-25T11:54:11Z</time>
      </trkpt>
      <trkpt lat="44.32443" lon="3.05287">
        <ele>665.8</ele>
        <time>2023-06-25T11:54:12Z</time>
      </trkpt>
      <trkpt lat="44.32444" lon="3.05296">
        <ele>665.8</ele>
        <time>2023-06-25T11:54:13Z</time>
      </trkpt>
      <trkpt lat="44.32444" lon="3.05304">
        <ele>665.8</ele>
        <time>2023-06-25T11:54:14Z</time>
      </trkpt>
      <trkpt lat="44.32444" lon="3.05313">
        <ele>665.8</ele>
        <time>2023-06-25T11:54:15Z</time>
      </trkpt>
      <trkpt lat="44.32445" lon="3.05321">
        <ele>665.8</ele>
        <time>2023-06-25T11:54:16Z</time>
      </trkpt>
      <trkpt lat="44.32444" lon="3.05329">
        <ele>665.8</ele>
        <time>2023-06-25T11:54:17Z</time>
      </trkpt>
      <trkpt lat="44.32444" lon="3.05337">
        <ele>665.8</ele>
        <time>2023-06-25T11:54:18Z</time>
      </trkpt>
      <trkpt lat="44.32443" lon="3.05345">
        <ele>665.8</ele>
        <time>2023-06-25T11:54:19Z</time>
      </trkpt>
      <trkpt lat="44.32443" lon="3.05353">
        <ele>665.9</ele>
        <time>2023-06-25T11:54:20Z</time>
      </trkpt>
      <trkpt lat="44.32442" lon="3.05361">
        <ele>665.9</ele>
        <time>2023-06-25T11:54:21Z</time>
      </trkpt>
      <trkpt lat="44.32441" lon="3.05369">
        <ele>665.9</ele>
        <time>2023-06-25T11:54:22Z</time>
      </trkpt>
      <trkpt lat="44.32441" lon="3.05377">
        <ele>665.9</ele>
        <time>2023-06-25T11:54:23Z</time>
      </trkpt>
      <trkpt lat="44.32441" lon="3.05385">
        <ele>665.9</ele>
        <time>2023-06-25T11:54:24Z</time>
      </trkpt>
      <trkpt lat="44.32441" lon="3.05392">
        <ele>665.9</ele>
        <time>2023-06-25T11:54:25Z</time>
      </trkpt>
      <trkpt lat="44.3244" lon="3.054">
        <ele>665.9</ele>
        <time>2023-06-25T11:54:26Z</time>
      </trkpt>
      <trkpt lat="44.3244" lon="3.05408">
        <ele>666</ele>
        <time>2023-06-25T11:54:27Z</time>
      </trkpt>
      <trkpt lat="44.32439" lon="3.05415">
        <ele>666</ele>
        <time>2023-06-25T11:54:28Z</time>
      </trkpt>
      <trkpt lat="44.32439" lon="3.05424">
        <ele>666</ele>
        <time>2023-06-25T11:54:29Z</time>
      </trkpt>
      <trkpt lat="44.32439" lon="3.05431">
        <ele>666.1</ele>
        <time>2023-06-25T11:54:30Z</time>
      </trkpt>
      <trkpt lat="44.32438" lon="3.05438">
        <ele>666.1</ele>
        <time>2023-06-25T11:54:31Z</time>
      </trkpt>
      <trkpt lat="44.32437" lon="3.05446">
        <ele>666.2</ele>
        <time>2023-06-25T11:54:32Z</time>
      </trkpt>
      <trkpt lat="44.32436" lon="3.05453">
        <ele>666.2</ele>
        <time>2023-06-25T11:54:33Z</time>
      </trkpt>
      <trkpt lat="44.32436" lon="3.05461">
        <ele>666.3</ele>
        <time>2023-06-25T11:54:34Z</time>
      </trkpt>
      <trkpt lat="44.32436" lon="3.05468">
        <ele>666.4</ele>
        <time>2023-06-25T11:54:35Z</time>
      </trkpt>
      <trkpt lat="44.32435" lon="3.05475">
        <ele>666.4</ele>
        <time>2023-06-25T11:54:36Z</time>
      </trkpt>
      <trkpt lat="44.32434" lon="3.05483">
        <ele>666.5</ele>
        <time>2023-06-25T11:54:37Z</time>
      </trkpt>
      <trkpt lat="44.32434" lon="3.0549">
        <ele>666.5</ele>
        <time>2023-06-25T11:54:38Z</time>
      </trkpt>
      <trkpt lat="44.32434" lon="3.05497">
        <ele>666.5</ele>
        <time>2023-06-25T11:54:39Z</time>
      </trkpt>
      <trkpt lat="44.32434" lon="3.05504">
        <ele>666.6</ele>
        <time>2023-06-25T11:54:40Z</time>
      </trkpt>
      <trkpt lat="44.32433" lon="3.05511">
        <ele>666.7</ele>
        <time>2023-06-25T11:54:41Z</time>
      </trkpt>
      <trkpt lat="44.32433" lon="3.05518">
        <ele>666.7</ele>
        <time>2023-06-25T11:54:42Z</time>
      </trkpt>
      <trkpt lat="44.32432" lon="3.05525">
        <ele>666.8</ele>
        <time>2023-06-25T11:54:43Z</time>
      </trkpt>
      <trkpt lat="44.32432" lon="3.05531">
        <ele>666.8</ele>
        <time>2023-06-25T11:54:44Z</time>
      </trkpt>
      <trkpt lat="44.3243" lon="3.05536">
        <ele>666.9</ele>
        <time>2023-06-25T11:54:45Z</time>
      </trkpt>
      <trkpt lat="44.32429" lon="3.05538">
        <ele>666.9</ele>
        <time>2023-06-25T11:54:46Z</time>
      </trkpt>
      <trkpt lat="44.32425" lon="3.05541">
        <ele>666.9</ele>
        <time>2023-06-25T11:54:47Z</time>
      </trkpt>
      <trkpt lat="44.32419" lon="3.05543">
        <ele>667</ele>
        <time>2023-06-25T11:54:48Z</time>
      </trkpt>
      <trkpt lat="44.32413" lon="3.05543">
        <ele>667.1</ele>
        <time>2023-06-25T11:54:49Z</time>
      </trkpt>
      <trkpt lat="44.32409" lon="3.05543">
        <ele>667.1</ele>
        <time>2023-06-25T11:54:50Z</time>
      </trkpt>
      <trkpt lat="44.32402" lon="3.05544">
        <ele>667.2</ele>
        <time>2023-06-25T11:54:51Z</time>
      </trkpt>
      <trkpt lat="44.32395" lon="3.05544">
        <ele>667.2</ele>
        <time>2023-06-25T11:54:52Z</time>
      </trkpt>
      <trkpt lat="44.32389" lon="3.05544">
        <ele>667.3</ele>
        <time>2023-06-25T11:54:53Z</time>
      </trkpt>
      <trkpt lat="44.32382" lon="3.05545">
        <ele>667.4</ele>
        <time>2023-06-25T11:54:54Z</time>
      </trkpt>
      <trkpt lat="44.32376" lon="3.05546">
        <ele>667.4</ele>
        <time>2023-06-25T11:54:55Z</time>
      </trkpt>
      <trkpt lat="44.3237" lon="3.05547">
        <ele>667.5</ele>
        <time>2023-06-25T11:54:56Z</time>
      </trkpt>
      <trkpt lat="44.32364" lon="3.05549">
        <ele>667.5</ele>
        <time>2023-06-25T11:54:57Z</time>
      </trkpt>
      <trkpt lat="44.32359" lon="3.0555">
        <ele>667.5</ele>
        <time>2023-06-25T11:54:58Z</time>
      </trkpt>
      <trkpt lat="44.32354" lon="3.05552">
        <ele>667.5</ele>
        <time>2023-06-25T11:54:59Z</time>
      </trkpt>
      <trkpt lat="44.3235" lon="3.05553">
        <ele>667.6</ele>
        <time>2023-06-25T11:55:00Z</time>
      </trkpt>
      <trkpt lat="44.3235" lon="3.05556">
        <ele>667.6</ele>
        <time>2023-06-25T11:55:01Z</time>
      </trkpt>
      <trkpt lat="44.32341" lon="3.05554">
        <ele>667.6</ele>
        <time>2023-06-25T11:55:03Z</time>
      </trkpt>
      <trkpt lat="44.32332" lon="3.05557">
        <ele>667.6</ele>
        <time>2023-06-25T11:55:04Z</time>
      </trkpt>
      <trkpt lat="44.32326" lon="3.05558">
        <ele>667.6</ele>
        <time>2023-06-25T11:55:05Z</time>
      </trkpt>
      <trkpt lat="44.32321" lon="3.05559">
        <ele>667.6</ele>
        <time>2023-06-25T11:55:06Z</time>
      </trkpt>
      <trkpt lat="44.32315" lon="3.05561">
        <ele>667.7</ele>
        <time>2023-06-25T11:55:07Z</time>
      </trkpt>
      <trkpt lat="44.3231" lon="3.05563">
        <ele>667.7</ele>
        <time>2023-06-25T11:55:08Z</time>
      </trkpt>
      <trkpt lat="44.32305" lon="3.05565">
        <ele>667.8</ele>
        <time>2023-06-25T11:55:09Z</time>
      </trkpt>
      <trkpt lat="44.323" lon="3.05567">
        <ele>667.8</ele>
        <time>2023-06-25T11:55:10Z</time>
      </trkpt>
      <trkpt lat="44.32296" lon="3.05569">
        <ele>667.9</ele>
        <time>2023-06-25T11:55:11Z</time>
      </trkpt>
      <trkpt lat="44.3229" lon="3.0557">
        <ele>667.9</ele>
        <time>2023-06-25T11:55:12Z</time>
      </trkpt>
      <trkpt lat="44.32285" lon="3.05572">
        <ele>668</ele>
        <time>2023-06-25T11:55:13Z</time>
      </trkpt>
      <trkpt lat="44.3228" lon="3.05573">
        <ele>668.1</ele>
        <time>2023-06-25T11:55:14Z</time>
      </trkpt>
      <trkpt lat="44.32275" lon="3.05575">
        <ele>668.1</ele>
        <time>2023-06-25T11:55:15Z</time>
      </trkpt>
      <trkpt lat="44.3227" lon="3.05577">
        <ele>668.2</ele>
        <time>2023-06-25T11:55:16Z</time>
      </trkpt>
      <trkpt lat="44.32264" lon="3.0558">
        <ele>668.3</ele>
        <time>2023-06-25T11:55:17Z</time>
      </trkpt>
      <trkpt lat="44.32259" lon="3.05581">
        <ele>668.4</ele>
        <time>2023-06-25T11:55:18Z</time>
      </trkpt>
      <trkpt lat="44.32254" lon="3.05582">
        <ele>668.4</ele>
        <time>2023-06-25T11:55:19Z</time>
      </trkpt>
      <trkpt lat="44.32249" lon="3.05584">
        <ele>668.5</ele>
        <time>2023-06-25T11:55:20Z</time>
      </trkpt>
      <trkpt lat="44.32243" lon="3.05586">
        <ele>668.5</ele>
        <time>2023-06-25T11:55:21Z</time>
      </trkpt>
      <trkpt lat="44.32238" lon="3.05588">
        <ele>668.5</ele>
        <time>2023-06-25T11:55:22Z</time>
      </trkpt>
      <trkpt lat="44.32232" lon="3.0559">
        <ele>668.6</ele>
        <time>2023-06-25T11:55:23Z</time>
      </trkpt>
      <trkpt lat="44.32227" lon="3.05592">
        <ele>668.6</ele>
        <time>2023-06-25T11:55:24Z</time>
      </trkpt>
      <trkpt lat="44.32222" lon="3.05594">
        <ele>668.7</ele>
        <time>2023-06-25T11:55:25Z</time>
      </trkpt>
      <trkpt lat="44.32216" lon="3.05596">
        <ele>668.7</ele>
        <time>2023-06-25T11:55:26Z</time>
      </trkpt>
      <trkpt lat="44.32211" lon="3.05598">
        <ele>668.7</ele>
        <time>2023-06-25T11:55:27Z</time>
      </trkpt>
      <trkpt lat="44.32206" lon="3.056">
        <ele>668.7</ele>
        <time>2023-06-25T11:55:28Z</time>
      </trkpt>
      <trkpt lat="44.32202" lon="3.05602">
        <ele>668.8</ele>
        <time>2023-06-25T11:55:29Z</time>
      </trkpt>
      <trkpt lat="44.32196" lon="3.05606">
        <ele>668.8</ele>
        <time>2023-06-25T11:55:30Z</time>
      </trkpt>
      <trkpt lat="44.32191" lon="3.05608">
        <ele>668.8</ele>
        <time>2023-06-25T11:55:31Z</time>
      </trkpt>
      <trkpt lat="44.32185" lon="3.05611">
        <ele>668.8</ele>
        <time>2023-06-25T11:55:32Z</time>
      </trkpt>
      <trkpt lat="44.3218" lon="3.05613">
        <ele>668.9</ele>
        <time>2023-06-25T11:55:33Z</time>
      </trkpt>
      <trkpt lat="44.32175" lon="3.05616">
        <ele>668.9</ele>
        <time>2023-06-25T11:55:34Z</time>
      </trkpt>
      <trkpt lat="44.3217" lon="3.05619">
        <ele>669</ele>
        <time>2023-06-25T11:55:35Z</time>
      </trkpt>
      <trkpt lat="44.32165" lon="3.05623">
        <ele>669</ele>
        <time>2023-06-25T11:55:36Z</time>
      </trkpt>
      <trkpt lat="44.3216" lon="3.05625">
        <ele>669.1</ele>
        <time>2023-06-25T11:55:37Z</time>
      </trkpt>
      <trkpt lat="44.32155" lon="3.05627">
        <ele>669.2</ele>
        <time>2023-06-25T11:55:38Z</time>
      </trkpt>
      <trkpt lat="44.3215" lon="3.05628">
        <ele>669.2</ele>
        <time>2023-06-25T11:55:39Z</time>
      </trkpt>
      <trkpt lat="44.32144" lon="3.0563">
        <ele>669.2</ele>
        <time>2023-06-25T11:55:40Z</time>
      </trkpt>
      <trkpt lat="44.32138" lon="3.05631">
        <ele>669.2</ele>
        <time>2023-06-25T11:55:41Z</time>
      </trkpt>
      <trkpt lat="44.32133" lon="3.05633">
        <ele>669.2</ele>
        <time>2023-06-25T11:55:42Z</time>
      </trkpt>
      <trkpt lat="44.32128" lon="3.05634">
        <ele>669.2</ele>
        <time>2023-06-25T11:55:43Z</time>
      </trkpt>
      <trkpt lat="44.32123" lon="3.05637">
        <ele>669.2</ele>
        <time>2023-06-25T11:55:44Z</time>
      </trkpt>
      <trkpt lat="44.32118" lon="3.05639">
        <ele>669.2</ele>
        <time>2023-06-25T11:55:45Z</time>
      </trkpt>
      <trkpt lat="44.32114" lon="3.05643">
        <ele>669.2</ele>
        <time>2023-06-25T11:55:46Z</time>
      </trkpt>
      <trkpt lat="44.32109" lon="3.05646">
        <ele>669.3</ele>
        <time>2023-06-25T11:55:47Z</time>
      </trkpt>
      <trkpt lat="44.32104" lon="3.0565">
        <ele>669.3</ele>
        <time>2023-06-25T11:55:48Z</time>
      </trkpt>
      <trkpt lat="44.32099" lon="3.05654">
        <ele>669.3</ele>
        <time>2023-06-25T11:55:49Z</time>
      </trkpt>
      <trkpt lat="44.32094" lon="3.05658">
        <ele>669.4</ele>
        <time>2023-06-25T11:55:50Z</time>
      </trkpt>
      <trkpt lat="44.3209" lon="3.05662">
        <ele>669.4</ele>
        <time>2023-06-25T11:55:51Z</time>
      </trkpt>
      <trkpt lat="44.32085" lon="3.05666">
        <ele>669.5</ele>
        <time>2023-06-25T11:55:52Z</time>
      </trkpt>
      <trkpt lat="44.32081" lon="3.0567">
        <ele>669.5</ele>
        <time>2023-06-25T11:55:53Z</time>
      </trkpt>
      <trkpt lat="44.32078" lon="3.05674">
        <ele>669.6</ele>
        <time>2023-06-25T11:55:54Z</time>
      </trkpt>
      <trkpt lat="44.32075" lon="3.05679">
        <ele>669.6</ele>
        <time>2023-06-25T11:55:55Z</time>
      </trkpt>
      <trkpt lat="44.32074" lon="3.05685">
        <ele>669.7</ele>
        <time>2023-06-25T11:55:56Z</time>
      </trkpt>
      <trkpt lat="44.32075" lon="3.05689">
        <ele>669.7</ele>
        <time>2023-06-25T11:55:57Z</time>
      </trkpt>
      <trkpt lat="44.32078" lon="3.05693">
        <ele>669.9</ele>
        <time>2023-06-25T11:55:58Z</time>
      </trkpt>
      <trkpt lat="44.32082" lon="3.05697">
        <ele>670</ele>
        <time>2023-06-25T11:55:59Z</time>
      </trkpt>
      <trkpt lat="44.32085" lon="3.05698">
        <ele>670.1</ele>
        <time>2023-06-25T11:56:00Z</time>
      </trkpt>
      <trkpt lat="44.32089" lon="3.05702">
        <ele>670.2</ele>
        <time>2023-06-25T11:56:01Z</time>
      </trkpt>
      <trkpt lat="44.32092" lon="3.05705">
        <ele>670.3</ele>
        <time>2023-06-25T11:56:02Z</time>
      </trkpt>
      <trkpt lat="44.32094" lon="3.05706">
        <ele>670.4</ele>
        <time>2023-06-25T11:56:03Z</time>
      </trkpt>
      <trkpt lat="44.32097" lon="3.05709">
        <ele>670.5</ele>
        <time>2023-06-25T11:56:05Z</time>
      </trkpt>
      <trkpt lat="44.32105" lon="3.05716">
        <ele>670.8</ele>
        <time>2023-06-25T11:56:06Z</time>
      </trkpt>
      <trkpt lat="44.32108" lon="3.05722">
        <ele>671</ele>
        <time>2023-06-25T11:56:08Z</time>
      </trkpt>
      <trkpt lat="44.32111" lon="3.05727">
        <ele>671.2</ele>
        <time>2023-06-25T11:56:09Z</time>
      </trkpt>
      <trkpt lat="44.32113" lon="3.05734">
        <ele>671.4</ele>
        <time>2023-06-25T11:56:10Z</time>
      </trkpt>
      <trkpt lat="44.32114" lon="3.05741">
        <ele>671.5</ele>
        <time>2023-06-25T11:56:11Z</time>
      </trkpt>
      <trkpt lat="44.32115" lon="3.05748">
        <ele>671.7</ele>
        <time>2023-06-25T11:56:12Z</time>
      </trkpt>
      <trkpt lat="44.32113" lon="3.05756">
        <ele>671.8</ele>
        <time>2023-06-25T11:56:13Z</time>
      </trkpt>
      <trkpt lat="44.32111" lon="3.05761">
        <ele>672.4</ele>
        <time>2023-06-25T11:56:14Z</time>
      </trkpt>
      <trkpt lat="44.32108" lon="3.05767">
        <ele>672.8</ele>
        <time>2023-06-25T11:56:15Z</time>
      </trkpt>
      <trkpt lat="44.32103" lon="3.05771">
        <ele>673.1</ele>
        <time>2023-06-25T11:56:17Z</time>
      </trkpt>
      <trkpt lat="44.321" lon="3.05776">
        <ele>673.4</ele>
        <time>2023-06-25T11:56:18Z</time>
      </trkpt>
      <trkpt lat="44.32096" lon="3.05779">
        <ele>673.7</ele>
        <time>2023-06-25T11:56:19Z</time>
      </trkpt>
      <trkpt lat="44.32091" lon="3.05781">
        <ele>674.1</ele>
        <time>2023-06-25T11:56:20Z</time>
      </trkpt>
      <trkpt lat="44.32086" lon="3.05783">
        <ele>674.4</ele>
        <time>2023-06-25T11:56:21Z</time>
      </trkpt>
      <trkpt lat="44.3208" lon="3.05786">
        <ele>674.9</ele>
        <time>2023-06-25T11:56:23Z</time>
      </trkpt>
      <trkpt lat="44.32076" lon="3.05788">
        <ele>675.2</ele>
        <time>2023-06-25T11:56:24Z</time>
      </trkpt>
      <trkpt lat="44.32072" lon="3.05791">
        <ele>675.5</ele>
        <time>2023-06-25T11:56:25Z</time>
      </trkpt>
      <trkpt lat="44.32068" lon="3.05795">
        <ele>675.9</ele>
        <time>2023-06-25T11:56:26Z</time>
      </trkpt>
      <trkpt lat="44.32065" lon="3.058">
        <ele>676.2</ele>
        <time>2023-06-25T11:56:27Z</time>
      </trkpt>
      <trkpt lat="44.32064" lon="3.05806">
        <ele>676.5</ele>
        <time>2023-06-25T11:56:28Z</time>
      </trkpt>
      <trkpt lat="44.32065" lon="3.05811">
        <ele>676.6</ele>
        <time>2023-06-25T11:56:29Z</time>
      </trkpt>
      <trkpt lat="44.32066" lon="3.05819">
        <ele>676.8</ele>
        <time>2023-06-25T11:56:31Z</time>
      </trkpt>
      <trkpt lat="44.32068" lon="3.05824">
        <ele>676.9</ele>
        <time>2023-06-25T11:56:32Z</time>
      </trkpt>
      <trkpt lat="44.32068" lon="3.05826">
        <ele>676.9</ele>
        <time>2023-06-25T11:56:33Z</time>
      </trkpt>
      <trkpt lat="44.3207" lon="3.05831">
        <ele>676.9</ele>
        <time>2023-06-25T11:56:34Z</time>
      </trkpt>
      <trkpt lat="44.32069" lon="3.05837">
        <ele>677</ele>
        <time>2023-06-25T11:56:36Z</time>
      </trkpt>
      <trkpt lat="44.32069" lon="3.05843">
        <ele>677.1</ele>
        <time>2023-06-25T11:56:37Z</time>
      </trkpt>
      <trkpt lat="44.32068" lon="3.05848">
        <ele>677.1</ele>
        <time>2023-06-25T11:56:38Z</time>
      </trkpt>
      <trkpt lat="44.32066" lon="3.05853">
        <ele>677</ele>
        <time>2023-06-25T11:56:39Z</time>
      </trkpt>
      <trkpt lat="44.32062" lon="3.05857">
        <ele>676.9</ele>
        <time>2023-06-25T11:56:40Z</time>
      </trkpt>
      <trkpt lat="44.32057" lon="3.05861">
        <ele>676.8</ele>
        <time>2023-06-25T11:56:41Z</time>
      </trkpt>
      <trkpt lat="44.32053" lon="3.05866">
        <ele>676.6</ele>
        <time>2023-06-25T11:56:42Z</time>
      </trkpt>
      <trkpt lat="44.32049" lon="3.05871">
        <ele>676.5</ele>
        <time>2023-06-25T11:56:43Z</time>
      </trkpt>
      <trkpt lat="44.32045" lon="3.05876">
        <ele>676.3</ele>
        <time>2023-06-25T11:56:44Z</time>
      </trkpt>
      <trkpt lat="44.32041" lon="3.05881">
        <ele>676.2</ele>
        <time>2023-06-25T11:56:45Z</time>
      </trkpt>
      <trkpt lat="44.32036" lon="3.05886">
        <ele>676.2</ele>
        <time>2023-06-25T11:56:46Z</time>
      </trkpt>
      <trkpt lat="44.32032" lon="3.05891">
        <ele>676.1</ele>
        <time>2023-06-25T11:56:47Z</time>
      </trkpt>
      <trkpt lat="44.32028" lon="3.05895">
        <ele>676.1</ele>
        <time>2023-06-25T11:56:48Z</time>
      </trkpt>
      <trkpt lat="44.32023" lon="3.059">
        <ele>676.1</ele>
        <time>2023-06-25T11:56:49Z</time>
      </trkpt>
      <trkpt lat="44.32019" lon="3.05904">
        <ele>676.1</ele>
        <time>2023-06-25T11:56:50Z</time>
      </trkpt>
      <trkpt lat="44.32015" lon="3.05908">
        <ele>676.1</ele>
        <time>2023-06-25T11:56:51Z</time>
      </trkpt>
      <trkpt lat="44.32011" lon="3.05912">
        <ele>676.2</ele>
        <time>2023-06-25T11:56:52Z</time>
      </trkpt>
      <trkpt lat="44.32007" lon="3.05915">
        <ele>676.2</ele>
        <time>2023-06-25T11:56:53Z</time>
      </trkpt>
      <trkpt lat="44.32004" lon="3.05919">
        <ele>676.3</ele>
        <time>2023-06-25T11:56:54Z</time>
      </trkpt>
      <trkpt lat="44.32001" lon="3.05922">
        <ele>676.3</ele>
        <time>2023-06-25T11:56:55Z</time>
      </trkpt>
      <trkpt lat="44.31998" lon="3.05925">
        <ele>676.4</ele>
        <time>2023-06-25T11:56:56Z</time>
      </trkpt>
      <trkpt lat="44.31994" lon="3.0593">
        <ele>676.5</ele>
        <time>2023-06-25T11:56:57Z</time>
      </trkpt>
      <trkpt lat="44.3199" lon="3.05934">
        <ele>676.6</ele>
        <time>2023-06-25T11:56:58Z</time>
      </trkpt>
      <trkpt lat="44.31987" lon="3.05939">
        <ele>676.6</ele>
        <time>2023-06-25T11:56:59Z</time>
      </trkpt>
      <trkpt lat="44.31985" lon="3.05942">
        <ele>676.7</ele>
        <time>2023-06-25T11:57:00Z</time>
      </trkpt>
      <trkpt lat="44.31979" lon="3.05951">
        <ele>676.8</ele>
        <time>2023-06-25T11:57:02Z</time>
      </trkpt>
      <trkpt lat="44.31975" lon="3.05958">
        <ele>676.8</ele>
        <time>2023-06-25T11:57:03Z</time>
      </trkpt>
      <trkpt lat="44.31972" lon="3.05963">
        <ele>676.8</ele>
        <time>2023-06-25T11:57:04Z</time>
      </trkpt>
      <trkpt lat="44.31969" lon="3.05968">
        <ele>676.8</ele>
        <time>2023-06-25T11:57:05Z</time>
      </trkpt>
      <trkpt lat="44.31963" lon="3.05977">
        <ele>676.8</ele>
        <time>2023-06-25T11:57:07Z</time>
      </trkpt>
      <trkpt lat="44.31959" lon="3.05981">
        <ele>676.7</ele>
        <time>2023-06-25T11:57:08Z</time>
      </trkpt>
      <trkpt lat="44.31955" lon="3.05987">
        <ele>676.6</ele>
        <time>2023-06-25T11:57:09Z</time>
      </trkpt>
      <trkpt lat="44.31951" lon="3.05992">
        <ele>676.5</ele>
        <time>2023-06-25T11:57:10Z</time>
      </trkpt>
      <trkpt lat="44.31946" lon="3.05997">
        <ele>676.3</ele>
        <time>2023-06-25T11:57:11Z</time>
      </trkpt>
      <trkpt lat="44.31939" lon="3.06">
        <ele>676.2</ele>
        <time>2023-06-25T11:57:12Z</time>
      </trkpt>
      <trkpt lat="44.31933" lon="3.06002">
        <ele>676.1</ele>
        <time>2023-06-25T11:57:13Z</time>
      </trkpt>
      <trkpt lat="44.31927" lon="3.06004">
        <ele>676</ele>
        <time>2023-06-25T11:57:14Z</time>
      </trkpt>
      <trkpt lat="44.31922" lon="3.06006">
        <ele>675.9</ele>
        <time>2023-06-25T11:57:15Z</time>
      </trkpt>
      <trkpt lat="44.31916" lon="3.06008">
        <ele>675.8</ele>
        <time>2023-06-25T11:57:16Z</time>
      </trkpt>
      <trkpt lat="44.3191" lon="3.06011">
        <ele>675.7</ele>
        <time>2023-06-25T11:57:17Z</time>
      </trkpt>
      <trkpt lat="44.31904" lon="3.06014">
        <ele>675.6</ele>
        <time>2023-06-25T11:57:18Z</time>
      </trkpt>
      <trkpt lat="44.31898" lon="3.06018">
        <ele>675.5</ele>
        <time>2023-06-25T11:57:19Z</time>
      </trkpt>
      <trkpt lat="44.31892" lon="3.06023">
        <ele>675.5</ele>
        <time>2023-06-25T11:57:20Z</time>
      </trkpt>
      <trkpt lat="44.31887" lon="3.06027">
        <ele>675.4</ele>
        <time>2023-06-25T11:57:21Z</time>
      </trkpt>
      <trkpt lat="44.31882" lon="3.06032">
        <ele>675.4</ele>
        <time>2023-06-25T11:57:22Z</time>
      </trkpt>
      <trkpt lat="44.31878" lon="3.06037">
        <ele>675.4</ele>
        <time>2023-06-25T11:57:23Z</time>
      </trkpt>
      <trkpt lat="44.31873" lon="3.06043">
        <ele>675.4</ele>
        <time>2023-06-25T11:57:24Z</time>
      </trkpt>
      <trkpt lat="44.31869" lon="3.06049">
        <ele>675.4</ele>
        <time>2023-06-25T11:57:25Z</time>
      </trkpt>
      <trkpt lat="44.31864" lon="3.06055">
        <ele>675.3</ele>
        <time>2023-06-25T11:57:26Z</time>
      </trkpt>
      <trkpt lat="44.3186" lon="3.06061">
        <ele>675.3</ele>
        <time>2023-06-25T11:57:27Z</time>
      </trkpt>
      <trkpt lat="44.31855" lon="3.06065">
        <ele>675.3</ele>
        <time>2023-06-25T11:57:28Z</time>
      </trkpt>
      <trkpt lat="44.31849" lon="3.0607">
        <ele>675.3</ele>
        <time>2023-06-25T11:57:29Z</time>
      </trkpt>
      <trkpt lat="44.31844" lon="3.06074">
        <ele>675.3</ele>
        <time>2023-06-25T11:57:30Z</time>
      </trkpt>
      <trkpt lat="44.31838" lon="3.06078">
        <ele>675.4</ele>
        <time>2023-06-25T11:57:31Z</time>
      </trkpt>
      <trkpt lat="44.31833" lon="3.06082">
        <ele>675.4</ele>
        <time>2023-06-25T11:57:32Z</time>
      </trkpt>
      <trkpt lat="44.31829" lon="3.06085">
        <ele>675.4</ele>
        <time>2023-06-25T11:57:33Z</time>
      </trkpt>
      <trkpt lat="44.31825" lon="3.0609">
        <ele>675.4</ele>
        <time>2023-06-25T11:57:34Z</time>
      </trkpt>
      <trkpt lat="44.31821" lon="3.06095">
        <ele>675.4</ele>
        <time>2023-06-25T11:57:35Z</time>
      </trkpt>
      <trkpt lat="44.31817" lon="3.06102">
        <ele>675.4</ele>
        <time>2023-06-25T11:57:36Z</time>
      </trkpt>
      <trkpt lat="44.31812" lon="3.06108">
        <ele>675.4</ele>
        <time>2023-06-25T11:57:37Z</time>
      </trkpt>
      <trkpt lat="44.31807" lon="3.06114">
        <ele>675.4</ele>
        <time>2023-06-25T11:57:38Z</time>
      </trkpt>
      <trkpt lat="44.31802" lon="3.06119">
        <ele>675.4</ele>
        <time>2023-06-25T11:57:39Z</time>
      </trkpt>
      <trkpt lat="44.31797" lon="3.06124">
        <ele>675.4</ele>
        <time>2023-06-25T11:57:40Z</time>
      </trkpt>
      <trkpt lat="44.31792" lon="3.06129">
        <ele>675.5</ele>
        <time>2023-06-25T11:57:41Z</time>
      </trkpt>
      <trkpt lat="44.31788" lon="3.06134">
        <ele>675.5</ele>
        <time>2023-06-25T11:57:42Z</time>
      </trkpt>
      <trkpt lat="44.31784" lon="3.0614">
        <ele>675.5</ele>
        <time>2023-06-25T11:57:43Z</time>
      </trkpt>
      <trkpt lat="44.3178" lon="3.06147">
        <ele>675.5</ele>
        <time>2023-06-25T11:57:44Z</time>
      </trkpt>
      <trkpt lat="44.31776" lon="3.06152">
        <ele>675.5</ele>
        <time>2023-06-25T11:57:45Z</time>
      </trkpt>
      <trkpt lat="44.31772" lon="3.06159">
        <ele>675.5</ele>
        <time>2023-06-25T11:57:46Z</time>
      </trkpt>
      <trkpt lat="44.31768" lon="3.06165">
        <ele>675.5</ele>
        <time>2023-06-25T11:57:47Z</time>
      </trkpt>
      <trkpt lat="44.31766" lon="3.06173">
        <ele>675.6</ele>
        <time>2023-06-25T11:57:48Z</time>
      </trkpt>
      <trkpt lat="44.31765" lon="3.06181">
        <ele>675.6</ele>
        <time>2023-06-25T11:57:49Z</time>
      </trkpt>
      <trkpt lat="44.31764" lon="3.06188">
        <ele>675.6</ele>
        <time>2023-06-25T11:57:50Z</time>
      </trkpt>
      <trkpt lat="44.31761" lon="3.06195">
        <ele>675.6</ele>
        <time>2023-06-25T11:57:51Z</time>
      </trkpt>
      <trkpt lat="44.31758" lon="3.06201">
        <ele>675.7</ele>
        <time>2023-06-25T11:57:52Z</time>
      </trkpt>
      <trkpt lat="44.31754" lon="3.06208">
        <ele>675.7</ele>
        <time>2023-06-25T11:57:53Z</time>
      </trkpt>
      <trkpt lat="44.31751" lon="3.06214">
        <ele>675.7</ele>
        <time>2023-06-25T11:57:54Z</time>
      </trkpt>
      <trkpt lat="44.31748" lon="3.06221">
        <ele>675.7</ele>
        <time>2023-06-25T11:57:55Z</time>
      </trkpt>
      <trkpt lat="44.31745" lon="3.06227">
        <ele>675.8</ele>
        <time>2023-06-25T11:57:56Z</time>
      </trkpt>
      <trkpt lat="44.31741" lon="3.06234">
        <ele>675.8</ele>
        <time>2023-06-25T11:57:57Z</time>
      </trkpt>
      <trkpt lat="44.31737" lon="3.0624">
        <ele>675.8</ele>
        <time>2023-06-25T11:57:58Z</time>
      </trkpt>
      <trkpt lat="44.31733" lon="3.06246">
        <ele>675.8</ele>
        <time>2023-06-25T11:57:59Z</time>
      </trkpt>
      <trkpt lat="44.31729" lon="3.06251">
        <ele>675.9</ele>
        <time>2023-06-25T11:58:00Z</time>
      </trkpt>
      <trkpt lat="44.31726" lon="3.06257">
        <ele>675.9</ele>
        <time>2023-06-25T11:58:01Z</time>
      </trkpt>
      <trkpt lat="44.31722" lon="3.06263">
        <ele>676</ele>
        <time>2023-06-25T11:58:02Z</time>
      </trkpt>
      <trkpt lat="44.31718" lon="3.06269">
        <ele>676.1</ele>
        <time>2023-06-25T11:58:03Z</time>
      </trkpt>
      <trkpt lat="44.31715" lon="3.06275">
        <ele>676.2</ele>
        <time>2023-06-25T11:58:04Z</time>
      </trkpt>
      <trkpt lat="44.31713" lon="3.06282">
        <ele>676.3</ele>
        <time>2023-06-25T11:58:05Z</time>
      </trkpt>
      <trkpt lat="44.31711" lon="3.06288">
        <ele>676.5</ele>
        <time>2023-06-25T11:58:06Z</time>
      </trkpt>
      <trkpt lat="44.31709" lon="3.06295">
        <ele>676.6</ele>
        <time>2023-06-25T11:58:07Z</time>
      </trkpt>
      <trkpt lat="44.31706" lon="3.06302">
        <ele>676.7</ele>
        <time>2023-06-25T11:58:08Z</time>
      </trkpt>
      <trkpt lat="44.31704" lon="3.06308">
        <ele>676.9</ele>
        <time>2023-06-25T11:58:09Z</time>
      </trkpt>
      <trkpt lat="44.31702" lon="3.06313">
        <ele>677</ele>
        <time>2023-06-25T11:58:10Z</time>
      </trkpt>
      <trkpt lat="44.317" lon="3.06316">
        <ele>677.1</ele>
        <time>2023-06-25T11:58:11Z</time>
      </trkpt>
      <trkpt lat="44.31697" lon="3.06321">
        <ele>677.3</ele>
        <time>2023-06-25T11:58:12Z</time>
      </trkpt>
      <trkpt lat="44.31695" lon="3.06326">
        <ele>677.4</ele>
        <time>2023-06-25T11:58:13Z</time>
      </trkpt>
      <trkpt lat="44.31694" lon="3.06328">
        <ele>677.5</ele>
        <time>2023-06-25T11:58:14Z</time>
      </trkpt>
      <trkpt lat="44.31692" lon="3.06332">
        <ele>677.6</ele>
        <time>2023-06-25T11:58:15Z</time>
      </trkpt>
      <trkpt lat="44.3169" lon="3.06336">
        <ele>677.8</ele>
        <time>2023-06-25T11:58:16Z</time>
      </trkpt>
      <trkpt lat="44.3169" lon="3.06339">
        <ele>677.9</ele>
        <time>2023-06-25T11:58:17Z</time>
      </trkpt>
      <trkpt lat="44.31689" lon="3.06345">
        <ele>678.1</ele>
        <time>2023-06-25T11:58:19Z</time>
      </trkpt>
      <trkpt lat="44.31686" lon="3.06352">
        <ele>678.3</ele>
        <time>2023-06-25T11:58:20Z</time>
      </trkpt>
      <trkpt lat="44.31685" lon="3.0636">
        <ele>678.6</ele>
        <time>2023-06-25T11:58:22Z</time>
      </trkpt>
      <trkpt lat="44.31685" lon="3.06365">
        <ele>679.2</ele>
        <time>2023-06-25T11:58:23Z</time>
      </trkpt>
      <trkpt lat="44.31686" lon="3.06368">
        <ele>679.3</ele>
        <time>2023-06-25T11:58:24Z</time>
      </trkpt>
      <trkpt lat="44.31687" lon="3.06368">
        <ele>679.4</ele>
        <time>2023-06-25T11:58:25Z</time>
      </trkpt>
      <trkpt lat="44.31688" lon="3.06367">
        <ele>679.4</ele>
        <time>2023-06-25T11:58:27Z</time>
      </trkpt>
      <trkpt lat="44.31689" lon="3.06367">
        <ele>679.4</ele>
        <time>2023-06-25T11:58:28Z</time>
      </trkpt>
      <trkpt lat="44.31689" lon="3.06367">
        <ele>679.5</ele>
        <time>2023-06-25T11:58:29Z</time>
      </trkpt>
      <trkpt lat="44.3169" lon="3.06367">
        <ele>679.5</ele>
        <time>2023-06-25T11:58:30Z</time>
      </trkpt>
      <trkpt lat="44.31691" lon="3.06366">
        <ele>679.6</ele>
        <time>2023-06-25T11:58:31Z</time>
      </trkpt>
      <trkpt lat="44.31692" lon="3.06366">
        <ele>679.6</ele>
        <time>2023-06-25T11:58:32Z</time>
      </trkpt>
      <trkpt lat="44.31699" lon="3.06362">
        <ele>680</ele>
        <time>2023-06-25T11:58:33Z</time>
      </trkpt>
      <trkpt lat="44.31704" lon="3.06361">
        <ele>680.3</ele>
        <time>2023-06-25T11:58:34Z</time>
      </trkpt>
      <trkpt lat="44.31709" lon="3.06361">
        <ele>680.6</ele>
        <time>2023-06-25T11:58:35Z</time>
      </trkpt>
      <trkpt lat="44.31715" lon="3.06361">
        <ele>681</ele>
        <time>2023-06-25T11:58:37Z</time>
      </trkpt>
      <trkpt lat="44.31721" lon="3.06364">
        <ele>681.4</ele>
        <time>2023-06-25T11:58:38Z</time>
      </trkpt>
      <trkpt lat="44.31726" lon="3.06368">
        <ele>681.7</ele>
        <time>2023-06-25T11:58:39Z</time>
      </trkpt>
      <trkpt lat="44.3173" lon="3.06373">
        <ele>682.1</ele>
        <time>2023-06-25T11:58:40Z</time>
      </trkpt>
      <trkpt lat="44.31737" lon="3.0638">
        <ele>682.4</ele>
        <time>2023-06-25T11:58:42Z</time>
      </trkpt>
      <trkpt lat="44.31739" lon="3.06385">
        <ele>682.5</ele>
        <time>2023-06-25T11:58:43Z</time>
      </trkpt>
      <trkpt lat="44.31744" lon="3.06394">
        <ele>682.7</ele>
        <time>2023-06-25T11:58:45Z</time>
      </trkpt>
      <trkpt lat="44.31746" lon="3.064">
        <ele>682.8</ele>
        <time>2023-06-25T11:58:46Z</time>
      </trkpt>
      <trkpt lat="44.31749" lon="3.06409">
        <ele>682.9</ele>
        <time>2023-06-25T11:58:48Z</time>
      </trkpt>
      <trkpt lat="44.3175" lon="3.06415">
        <ele>683</ele>
        <time>2023-06-25T11:58:49Z</time>
      </trkpt>
      <trkpt lat="44.31752" lon="3.06423">
        <ele>683.1</ele>
        <time>2023-06-25T11:58:51Z</time>
      </trkpt>
      <trkpt lat="44.31753" lon="3.0643">
        <ele>683.2</ele>
        <time>2023-06-25T11:58:52Z</time>
      </trkpt>
      <trkpt lat="44.31754" lon="3.06436">
        <ele>683.3</ele>
        <time>2023-06-25T11:58:53Z</time>
      </trkpt>
      <trkpt lat="44.31755" lon="3.06442">
        <ele>683.3</ele>
        <time>2023-06-25T11:58:54Z</time>
      </trkpt>
      <trkpt lat="44.31756" lon="3.0645">
        <ele>683.3</ele>
        <time>2023-06-25T11:58:55Z</time>
      </trkpt>
      <trkpt lat="44.31757" lon="3.06457">
        <ele>683.3</ele>
        <time>2023-06-25T11:58:56Z</time>
      </trkpt>
      <trkpt lat="44.31758" lon="3.06465">
        <ele>683.4</ele>
        <time>2023-06-25T11:58:58Z</time>
      </trkpt>
      <trkpt lat="44.31759" lon="3.06472">
        <ele>683.4</ele>
        <time>2023-06-25T11:58:59Z</time>
      </trkpt>
      <trkpt lat="44.3176" lon="3.06478">
        <ele>683.5</ele>
        <time>2023-06-25T11:59:00Z</time>
      </trkpt>
      <trkpt lat="44.31761" lon="3.06484">
        <ele>683.5</ele>
        <time>2023-06-25T11:59:01Z</time>
      </trkpt>
      <trkpt lat="44.31762" lon="3.06493">
        <ele>683.6</ele>
        <time>2023-06-25T11:59:02Z</time>
      </trkpt>
      <trkpt lat="44.31764" lon="3.06501">
        <ele>683.7</ele>
        <time>2023-06-25T11:59:04Z</time>
      </trkpt>
      <trkpt lat="44.31764" lon="3.06506">
        <ele>683.8</ele>
        <time>2023-06-25T11:59:05Z</time>
      </trkpt>
      <trkpt lat="44.31765" lon="3.06513">
        <ele>683.9</ele>
        <time>2023-06-25T11:59:06Z</time>
      </trkpt>
      <trkpt lat="44.31767" lon="3.06519">
        <ele>684</ele>
        <time>2023-06-25T11:59:07Z</time>
      </trkpt>
      <trkpt lat="44.31768" lon="3.06528">
        <ele>684.1</ele>
        <time>2023-06-25T11:59:09Z</time>
      </trkpt>
      <trkpt lat="44.31769" lon="3.06535">
        <ele>684.3</ele>
        <time>2023-06-25T11:59:10Z</time>
      </trkpt>
      <trkpt lat="44.31769" lon="3.06541">
        <ele>684.4</ele>
        <time>2023-06-25T11:59:11Z</time>
      </trkpt>
      <trkpt lat="44.3177" lon="3.06548">
        <ele>684.5</ele>
        <time>2023-06-25T11:59:12Z</time>
      </trkpt>
      <trkpt lat="44.3177" lon="3.06552">
        <ele>684.6</ele>
        <time>2023-06-25T11:59:13Z</time>
      </trkpt>
      <trkpt lat="44.3177" lon="3.06561">
        <ele>684.7</ele>
        <time>2023-06-25T11:59:15Z</time>
      </trkpt>
      <trkpt lat="44.31771" lon="3.06567">
        <ele>684.9</ele>
        <time>2023-06-25T11:59:16Z</time>
      </trkpt>
      <trkpt lat="44.31773" lon="3.06574">
        <ele>685</ele>
        <time>2023-06-25T11:59:18Z</time>
      </trkpt>
      <trkpt lat="44.31774" lon="3.06578">
        <ele>685.1</ele>
        <time>2023-06-25T11:59:19Z</time>
      </trkpt>
      <trkpt lat="44.31776" lon="3.06586">
        <ele>685.3</ele>
        <time>2023-06-25T11:59:21Z</time>
      </trkpt>
      <trkpt lat="44.31777" lon="3.06591">
        <ele>685.4</ele>
        <time>2023-06-25T11:59:22Z</time>
      </trkpt>
      <trkpt lat="44.31779" lon="3.06599">
        <ele>685.5</ele>
        <time>2023-06-25T11:59:24Z</time>
      </trkpt>
      <trkpt lat="44.3178" lon="3.06604">
        <ele>685.7</ele>
        <time>2023-06-25T11:59:25Z</time>
      </trkpt>
      <trkpt lat="44.31782" lon="3.06609">
        <ele>685.8</ele>
        <time>2023-06-25T11:59:26Z</time>
      </trkpt>
      <trkpt lat="44.31783" lon="3.06613">
        <ele>685.9</ele>
        <time>2023-06-25T11:59:27Z</time>
      </trkpt>
      <trkpt lat="44.31785" lon="3.06621">
        <ele>686.2</ele>
        <time>2023-06-25T11:59:29Z</time>
      </trkpt>
      <trkpt lat="44.31787" lon="3.06626">
        <ele>686.3</ele>
        <time>2023-06-25T11:59:30Z</time>
      </trkpt>
      <trkpt lat="44.31789" lon="3.06633">
        <ele>686.6</ele>
        <time>2023-06-25T11:59:32Z</time>
      </trkpt>
      <trkpt lat="44.3179" lon="3.06639">
        <ele>686.8</ele>
        <time>2023-06-25T11:59:33Z</time>
      </trkpt>
      <trkpt lat="44.31792" lon="3.06646">
        <ele>687</ele>
        <time>2023-06-25T11:59:35Z</time>
      </trkpt>
      <trkpt lat="44.31793" lon="3.0665">
        <ele>687.2</ele>
        <time>2023-06-25T11:59:36Z</time>
      </trkpt>
      <trkpt lat="44.31795" lon="3.06655">
        <ele>687.4</ele>
        <time>2023-06-25T11:59:37Z</time>
      </trkpt>
      <trkpt lat="44.31797" lon="3.06664">
        <ele>687.7</ele>
        <time>2023-06-25T11:59:39Z</time>
      </trkpt>
      <trkpt lat="44.31799" lon="3.06669">
        <ele>688</ele>
        <time>2023-06-25T11:59:40Z</time>
      </trkpt>
      <trkpt lat="44.318" lon="3.06674">
        <ele>688.2</ele>
        <time>2023-06-25T11:59:41Z</time>
      </trkpt>
      <trkpt lat="44.31801" lon="3.06678">
        <ele>688.4</ele>
        <time>2023-06-25T11:59:42Z</time>
      </trkpt>
      <trkpt lat="44.31803" lon="3.06683">
        <ele>688.6</ele>
        <time>2023-06-25T11:59:43Z</time>
      </trkpt>
      <trkpt lat="44.31804" lon="3.06686">
        <ele>688.8</ele>
        <time>2023-06-25T11:59:44Z</time>
      </trkpt>
      <trkpt lat="44.31806" lon="3.06693">
        <ele>689.1</ele>
        <time>2023-06-25T11:59:46Z</time>
      </trkpt>
      <trkpt lat="44.31807" lon="3.06697">
        <ele>689.3</ele>
        <time>2023-06-25T11:59:47Z</time>
      </trkpt>
      <trkpt lat="44.31809" lon="3.067">
        <ele>689.5</ele>
        <time>2023-06-25T11:59:49Z</time>
      </trkpt>
      <trkpt lat="44.3181" lon="3.06703">
        <ele>689.7</ele>
        <time>2023-06-25T11:59:50Z</time>
      </trkpt>
      <trkpt lat="44.31813" lon="3.06707">
        <ele>689.9</ele>
        <time>2023-06-25T11:59:51Z</time>
      </trkpt>
      <trkpt lat="44.31816" lon="3.06706">
        <ele>690.6</ele>
        <time>2023-06-25T11:59:52Z</time>
      </trkpt>
      <trkpt lat="44.31819" lon="3.06705">
        <ele>691</ele>
        <time>2023-06-25T11:59:54Z</time>
      </trkpt>
      <trkpt lat="44.31822" lon="3.06705">
        <ele>691.4</ele>
        <time>2023-06-25T11:59:55Z</time>
      </trkpt>
      <trkpt lat="44.31825" lon="3.06706">
        <ele>691.7</ele>
        <time>2023-06-25T11:59:56Z</time>
      </trkpt>
      <trkpt lat="44.31828" lon="3.06706">
        <ele>692</ele>
        <time>2023-06-25T11:59:57Z</time>
      </trkpt>
      <trkpt lat="44.31829" lon="3.06706">
        <ele>692.1</ele>
        <time>2023-06-25T11:59:58Z</time>
      </trkpt>
      <trkpt lat="44.31833" lon="3.06704">
        <ele>692.5</ele>
        <time>2023-06-25T12:00:00Z</time>
      </trkpt>
      <trkpt lat="44.31835" lon="3.06704">
        <ele>692.7</ele>
        <time>2023-06-25T12:00:01Z</time>
      </trkpt>
      <trkpt lat="44.31836" lon="3.06703">
        <ele>692.8</ele>
        <time>2023-06-25T12:00:02Z</time>
      </trkpt>
      <trkpt lat="44.31838" lon="3.06702">
        <ele>693</ele>
        <time>2023-06-25T12:00:03Z</time>
      </trkpt>
      <trkpt lat="44.3184" lon="3.06701">
        <ele>693.3</ele>
        <time>2023-06-25T12:00:04Z</time>
      </trkpt>
      <trkpt lat="44.31844" lon="3.067">
        <ele>693.6</ele>
        <time>2023-06-25T12:00:06Z</time>
      </trkpt>
      <trkpt lat="44.31849" lon="3.067">
        <ele>694</ele>
        <time>2023-06-25T12:00:08Z</time>
      </trkpt>
      <trkpt lat="44.31853" lon="3.06702">
        <ele>694.5</ele>
        <time>2023-06-25T12:00:09Z</time>
      </trkpt>
      <trkpt lat="44.31855" lon="3.06703">
        <ele>694.7</ele>
        <time>2023-06-25T12:00:10Z</time>
      </trkpt>
      <trkpt lat="44.31857" lon="3.06704">
        <ele>694.9</ele>
        <time>2023-06-25T12:00:11Z</time>
      </trkpt>
      <trkpt lat="44.31862" lon="3.06708">
        <ele>695.4</ele>
        <time>2023-06-25T12:00:13Z</time>
      </trkpt>
      <trkpt lat="44.31865" lon="3.0671">
        <ele>695.8</ele>
        <time>2023-06-25T12:00:14Z</time>
      </trkpt>
      <trkpt lat="44.31868" lon="3.06713">
        <ele>696.2</ele>
        <time>2023-06-25T12:00:15Z</time>
      </trkpt>
      <trkpt lat="44.31871" lon="3.06714">
        <ele>696.5</ele>
        <time>2023-06-25T12:00:16Z</time>
      </trkpt>
      <trkpt lat="44.31873" lon="3.06717">
        <ele>696.9</ele>
        <time>2023-06-25T12:00:17Z</time>
      </trkpt>
      <trkpt lat="44.31877" lon="3.0672">
        <ele>697.5</ele>
        <time>2023-06-25T12:00:19Z</time>
      </trkpt>
      <trkpt lat="44.3188" lon="3.06722">
        <ele>697.9</ele>
        <time>2023-06-25T12:00:20Z</time>
      </trkpt>
      <trkpt lat="44.31884" lon="3.06725">
        <ele>698.5</ele>
        <time>2023-06-25T12:00:21Z</time>
      </trkpt>
      <trkpt lat="44.31886" lon="3.06726">
        <ele>698.8</ele>
        <time>2023-06-25T12:00:22Z</time>
      </trkpt>
      <trkpt lat="44.31889" lon="3.06727">
        <ele>699.2</ele>
        <time>2023-06-25T12:00:23Z</time>
      </trkpt>
      <trkpt lat="44.31893" lon="3.06727">
        <ele>699.9</ele>
        <time>2023-06-25T12:00:25Z</time>
      </trkpt>
      <trkpt lat="44.31897" lon="3.06727">
        <ele>700.4</ele>
        <time>2023-06-25T12:00:26Z</time>
      </trkpt>
      <trkpt lat="44.31902" lon="3.06727">
        <ele>701.2</ele>
        <time>2023-06-25T12:00:28Z</time>
      </trkpt>
      <trkpt lat="44.31905" lon="3.06726">
        <ele>701.7</ele>
        <time>2023-06-25T12:00:29Z</time>
      </trkpt>
      <trkpt lat="44.31908" lon="3.06725">
        <ele>702.2</ele>
        <time>2023-06-25T12:00:30Z</time>
      </trkpt>
      <trkpt lat="44.31912" lon="3.06726">
        <ele>702.8</ele>
        <time>2023-06-25T12:00:32Z</time>
      </trkpt>
      <trkpt lat="44.31915" lon="3.06727">
        <ele>703.3</ele>
        <time>2023-06-25T12:00:33Z</time>
      </trkpt>
      <trkpt lat="44.31918" lon="3.06727">
        <ele>703.9</ele>
        <time>2023-06-25T12:00:34Z</time>
      </trkpt>
      <trkpt lat="44.3192" lon="3.06727">
        <ele>704.1</ele>
        <time>2023-06-25T12:00:35Z</time>
      </trkpt>
      <trkpt lat="44.31923" lon="3.06728">
        <ele>704.7</ele>
        <time>2023-06-25T12:00:37Z</time>
      </trkpt>
      <trkpt lat="44.31928" lon="3.06728">
        <ele>705.4</ele>
        <time>2023-06-25T12:00:39Z</time>
      </trkpt>
      <trkpt lat="44.31931" lon="3.06729">
        <ele>706</ele>
        <time>2023-06-25T12:00:40Z</time>
      </trkpt>
      <trkpt lat="44.31932" lon="3.06728">
        <ele>706.2</ele>
        <time>2023-06-25T12:00:41Z</time>
      </trkpt>
      <trkpt lat="44.31936" lon="3.06729">
        <ele>706.8</ele>
        <time>2023-06-25T12:00:42Z</time>
      </trkpt>
      <trkpt lat="44.31937" lon="3.06729">
        <ele>707</ele>
        <time>2023-06-25T12:00:43Z</time>
      </trkpt>
      <trkpt lat="44.3194" lon="3.06727">
        <ele>708.6</ele>
        <time>2023-06-25T12:00:45Z</time>
      </trkpt>
      <trkpt lat="44.31943" lon="3.06725">
        <ele>709</ele>
        <time>2023-06-25T12:00:46Z</time>
      </trkpt>
      <trkpt lat="44.31944" lon="3.06725">
        <ele>709.2</ele>
        <time>2023-06-25T12:00:48Z</time>
      </trkpt>
      <trkpt lat="44.31944" lon="3.06725">
        <ele>709.3</ele>
        <time>2023-06-25T12:00:49Z</time>
      </trkpt>
      <trkpt lat="44.31943" lon="3.06726">
        <ele>709.4</ele>
        <time>2023-06-25T12:00:51Z</time>
      </trkpt>
      <trkpt lat="44.31943" lon="3.06726">
        <ele>709.4</ele>
        <time>2023-06-25T12:00:52Z</time>
      </trkpt>
      <trkpt lat="44.31943" lon="3.06726">
        <ele>709.4</ele>
        <time>2023-06-25T12:00:54Z</time>
      </trkpt>
      <trkpt lat="44.31943" lon="3.06726">
        <ele>709.4</ele>
        <time>2023-06-25T12:00:55Z</time>
      </trkpt>
      <trkpt lat="44.31943" lon="3.06726">
        <ele>709.4</ele>
        <time>2023-06-25T12:00:57Z</time>
      </trkpt>
      <trkpt lat="44.31947" lon="3.06726">
        <ele>709.9</ele>
        <time>2023-06-25T12:01:24Z</time>
      </trkpt>
      <trkpt lat="44.31947" lon="3.06726">
        <ele>709.9</ele>
        <time>2023-06-25T12:01:25Z</time>
      </trkpt>
      <trkpt lat="44.31948" lon="3.06725">
        <ele>710.2</ele>
        <time>2023-06-25T12:01:26Z</time>
      </trkpt>
      <trkpt lat="44.31951" lon="3.06726">
        <ele>710.4</ele>
        <time>2023-06-25T12:01:28Z</time>
      </trkpt>
      <trkpt lat="44.31954" lon="3.06727">
        <ele>710.7</ele>
        <time>2023-06-25T12:01:29Z</time>
      </trkpt>
      <trkpt lat="44.31957" lon="3.06728">
        <ele>711</ele>
        <time>2023-06-25T12:01:31Z</time>
      </trkpt>
      <trkpt lat="44.31959" lon="3.0673">
        <ele>711.3</ele>
        <time>2023-06-25T12:01:32Z</time>
      </trkpt>
      <trkpt lat="44.31962" lon="3.06735">
        <ele>711.6</ele>
        <time>2023-06-25T12:01:33Z</time>
      </trkpt>
      <trkpt lat="44.31965" lon="3.06738">
        <ele>711.9</ele>
        <time>2023-06-25T12:01:34Z</time>
      </trkpt>
      <trkpt lat="44.31967" lon="3.0674">
        <ele>712.1</ele>
        <time>2023-06-25T12:01:35Z</time>
      </trkpt>
      <trkpt lat="44.3197" lon="3.06744">
        <ele>712.4</ele>
        <time>2023-06-25T12:01:37Z</time>
      </trkpt>
      <trkpt lat="44.31971" lon="3.06745">
        <ele>712.4</ele>
        <time>2023-06-25T12:01:38Z</time>
      </trkpt>
      <trkpt lat="44.31972" lon="3.06749">
        <ele>712.6</ele>
        <time>2023-06-25T12:01:39Z</time>
      </trkpt>
      <trkpt lat="44.31974" lon="3.06751">
        <ele>712.7</ele>
        <time>2023-06-25T12:01:40Z</time>
      </trkpt>
      <trkpt lat="44.31977" lon="3.06752">
        <ele>712.9</ele>
        <time>2023-06-25T12:01:42Z</time>
      </trkpt>
      <trkpt lat="44.31978" lon="3.06751">
        <ele>713</ele>
        <time>2023-06-25T12:01:43Z</time>
      </trkpt>
      <trkpt lat="44.31981" lon="3.06748">
        <ele>713.3</ele>
        <time>2023-06-25T12:01:45Z</time>
      </trkpt>
      <trkpt lat="44.31984" lon="3.06745">
        <ele>713.2</ele>
        <time>2023-06-25T12:01:46Z</time>
      </trkpt>
      <trkpt lat="44.31984" lon="3.06741">
        <ele>713.2</ele>
        <time>2023-06-25T12:01:47Z</time>
      </trkpt>
      <trkpt lat="44.31985" lon="3.06734">
        <ele>713.2</ele>
        <time>2023-06-25T12:01:49Z</time>
      </trkpt>
      <trkpt lat="44.31987" lon="3.06727">
        <ele>713.2</ele>
        <time>2023-06-25T12:01:51Z</time>
      </trkpt>
      <trkpt lat="44.3199" lon="3.06723">
        <ele>713.2</ele>
        <time>2023-06-25T12:01:52Z</time>
      </trkpt>
      <trkpt lat="44.31992" lon="3.0672">
        <ele>713.2</ele>
        <time>2023-06-25T12:01:53Z</time>
      </trkpt>
      <trkpt lat="44.31997" lon="3.06715">
        <ele>713.2</ele>
        <time>2023-06-25T12:01:55Z</time>
      </trkpt>
      <trkpt lat="44.32" lon="3.06712">
        <ele>713.2</ele>
        <time>2023-06-25T12:01:57Z</time>
      </trkpt>
      <trkpt lat="44.32003" lon="3.06709">
        <ele>713.2</ele>
        <time>2023-06-25T12:01:58Z</time>
      </trkpt>
      <trkpt lat="44.32004" lon="3.06708">
        <ele>713.2</ele>
        <time>2023-06-25T12:01:59Z</time>
      </trkpt>
      <trkpt lat="44.32007" lon="3.06706">
        <ele>713.2</ele>
        <time>2023-06-25T12:02:00Z</time>
      </trkpt>
      <trkpt lat="44.32011" lon="3.06702">
        <ele>713.2</ele>
        <time>2023-06-25T12:02:01Z</time>
      </trkpt>
      <trkpt lat="44.32016" lon="3.06698">
        <ele>713.1</ele>
        <time>2023-06-25T12:02:03Z</time>
      </trkpt>
      <trkpt lat="44.32021" lon="3.06692">
        <ele>713.1</ele>
        <time>2023-06-25T12:02:05Z</time>
      </trkpt>
      <trkpt lat="44.32024" lon="3.06688">
        <ele>713.2</ele>
        <time>2023-06-25T12:02:06Z</time>
      </trkpt>
      <trkpt lat="44.32027" lon="3.06685">
        <ele>713.3</ele>
        <time>2023-06-25T12:02:07Z</time>
      </trkpt>
      <trkpt lat="44.32033" lon="3.0668">
        <ele>713.5</ele>
        <time>2023-06-25T12:02:09Z</time>
      </trkpt>
      <trkpt lat="44.32038" lon="3.06676">
        <ele>713.6</ele>
        <time>2023-06-25T12:02:10Z</time>
      </trkpt>
      <trkpt lat="44.32041" lon="3.06673">
        <ele>713.6</ele>
        <time>2023-06-25T12:02:11Z</time>
      </trkpt>
      <trkpt lat="44.32049" lon="3.06667">
        <ele>713.7</ele>
        <time>2023-06-25T12:02:13Z</time>
      </trkpt>
      <trkpt lat="44.32053" lon="3.06662">
        <ele>713.7</ele>
        <time>2023-06-25T12:02:15Z</time>
      </trkpt>
      <trkpt lat="44.32056" lon="3.0666">
        <ele>713.7</ele>
        <time>2023-06-25T12:02:16Z</time>
      </trkpt>
      <trkpt lat="44.32061" lon="3.06658">
        <ele>713.7</ele>
        <time>2023-06-25T12:02:17Z</time>
      </trkpt>
      <trkpt lat="44.32065" lon="3.06655">
        <ele>713.6</ele>
        <time>2023-06-25T12:02:18Z</time>
      </trkpt>
      <trkpt lat="44.32071" lon="3.0665">
        <ele>713.5</ele>
        <time>2023-06-25T12:02:20Z</time>
      </trkpt>
      <trkpt lat="44.32076" lon="3.06646">
        <ele>713.4</ele>
        <time>2023-06-25T12:02:21Z</time>
      </trkpt>
      <trkpt lat="44.3208" lon="3.06643">
        <ele>713.2</ele>
        <time>2023-06-25T12:02:22Z</time>
      </trkpt>
      <trkpt lat="44.32085" lon="3.0664">
        <ele>713.1</ele>
        <time>2023-06-25T12:02:23Z</time>
      </trkpt>
      <trkpt lat="44.32089" lon="3.06637">
        <ele>712.9</ele>
        <time>2023-06-25T12:02:24Z</time>
      </trkpt>
      <trkpt lat="44.32093" lon="3.06634">
        <ele>712.8</ele>
        <time>2023-06-25T12:02:25Z</time>
      </trkpt>
      <trkpt lat="44.32097" lon="3.0663">
        <ele>712.6</ele>
        <time>2023-06-25T12:02:26Z</time>
      </trkpt>
      <trkpt lat="44.32101" lon="3.06627">
        <ele>712.5</ele>
        <time>2023-06-25T12:02:27Z</time>
      </trkpt>
      <trkpt lat="44.32106" lon="3.06624">
        <ele>712.3</ele>
        <time>2023-06-25T12:02:28Z</time>
      </trkpt>
      <trkpt lat="44.3211" lon="3.06621">
        <ele>712.2</ele>
        <time>2023-06-25T12:02:29Z</time>
      </trkpt>
      <trkpt lat="44.32114" lon="3.06617">
        <ele>712</ele>
        <time>2023-06-25T12:02:30Z</time>
      </trkpt>
      <trkpt lat="44.32118" lon="3.06614">
        <ele>711.8</ele>
        <time>2023-06-25T12:02:31Z</time>
      </trkpt>
      <trkpt lat="44.32123" lon="3.06611">
        <ele>711.7</ele>
        <time>2023-06-25T12:02:32Z</time>
      </trkpt>
      <trkpt lat="44.32127" lon="3.06608">
        <ele>711.5</ele>
        <time>2023-06-25T12:02:33Z</time>
      </trkpt>
      <trkpt lat="44.32131" lon="3.06604">
        <ele>711.4</ele>
        <time>2023-06-25T12:02:34Z</time>
      </trkpt>
      <trkpt lat="44.32135" lon="3.06601">
        <ele>711.4</ele>
        <time>2023-06-25T12:02:35Z</time>
      </trkpt>
      <trkpt lat="44.3214" lon="3.06597">
        <ele>711.3</ele>
        <time>2023-06-25T12:02:36Z</time>
      </trkpt>
      <trkpt lat="44.32143" lon="3.06592">
        <ele>711.2</ele>
        <time>2023-06-25T12:02:37Z</time>
      </trkpt>
      <trkpt lat="44.32147" lon="3.06588">
        <ele>711.1</ele>
        <time>2023-06-25T12:02:38Z</time>
      </trkpt>
      <trkpt lat="44.32151" lon="3.06584">
        <ele>711</ele>
        <time>2023-06-25T12:02:39Z</time>
      </trkpt>
      <trkpt lat="44.32155" lon="3.0658">
        <ele>710.9</ele>
        <time>2023-06-25T12:02:40Z</time>
      </trkpt>
      <trkpt lat="44.32159" lon="3.06575">
        <ele>710.8</ele>
        <time>2023-06-25T12:02:41Z</time>
      </trkpt>
      <trkpt lat="44.32163" lon="3.06571">
        <ele>710.7</ele>
        <time>2023-06-25T12:02:42Z</time>
      </trkpt>
      <trkpt lat="44.32166" lon="3.06566">
        <ele>710.6</ele>
        <time>2023-06-25T12:02:43Z</time>
      </trkpt>
      <trkpt lat="44.32169" lon="3.06561">
        <ele>710.5</ele>
        <time>2023-06-25T12:02:44Z</time>
      </trkpt>
      <trkpt lat="44.32172" lon="3.06556">
        <ele>710.5</ele>
        <time>2023-06-25T12:02:45Z</time>
      </trkpt>
      <trkpt lat="44.32175" lon="3.0655">
        <ele>710.4</ele>
        <time>2023-06-25T12:02:46Z</time>
      </trkpt>
      <trkpt lat="44.32179" lon="3.06545">
        <ele>710.3</ele>
        <time>2023-06-25T12:02:47Z</time>
      </trkpt>
      <trkpt lat="44.32182" lon="3.06539">
        <ele>710.3</ele>
        <time>2023-06-25T12:02:48Z</time>
      </trkpt>
      <trkpt lat="44.32185" lon="3.06534">
        <ele>710.2</ele>
        <time>2023-06-25T12:02:49Z</time>
      </trkpt>
      <trkpt lat="44.32188" lon="3.06528">
        <ele>710.1</ele>
        <time>2023-06-25T12:02:50Z</time>
      </trkpt>
      <trkpt lat="44.32191" lon="3.06523">
        <ele>710.1</ele>
        <time>2023-06-25T12:02:51Z</time>
      </trkpt>
      <trkpt lat="44.32195" lon="3.06517">
        <ele>710</ele>
        <time>2023-06-25T12:02:52Z</time>
      </trkpt>
      <trkpt lat="44.32198" lon="3.06512">
        <ele>709.9</ele>
        <time>2023-06-25T12:02:53Z</time>
      </trkpt>
      <trkpt lat="44.32201" lon="3.06506">
        <ele>709.9</ele>
        <time>2023-06-25T12:02:54Z</time>
      </trkpt>
      <trkpt lat="44.32204" lon="3.065">
        <ele>709.8</ele>
        <time>2023-06-25T12:02:55Z</time>
      </trkpt>
      <trkpt lat="44.32208" lon="3.06495">
        <ele>709.7</ele>
        <time>2023-06-25T12:02:56Z</time>
      </trkpt>
      <trkpt lat="44.32211" lon="3.06489">
        <ele>709.7</ele>
        <time>2023-06-25T12:02:57Z</time>
      </trkpt>
      <trkpt lat="44.32214" lon="3.06484">
        <ele>709.6</ele>
        <time>2023-06-25T12:02:58Z</time>
      </trkpt>
      <trkpt lat="44.32217" lon="3.06478">
        <ele>709.5</ele>
        <time>2023-06-25T12:02:59Z</time>
      </trkpt>
      <trkpt lat="44.3222" lon="3.06473">
        <ele>709.4</ele>
        <time>2023-06-25T12:03:00Z</time>
      </trkpt>
      <trkpt lat="44.32223" lon="3.06468">
        <ele>709.3</ele>
        <time>2023-06-25T12:03:01Z</time>
      </trkpt>
      <trkpt lat="44.32226" lon="3.06463">
        <ele>709.2</ele>
        <time>2023-06-25T12:03:02Z</time>
      </trkpt>
      <trkpt lat="44.32229" lon="3.06457">
        <ele>709.1</ele>
        <time>2023-06-25T12:03:03Z</time>
      </trkpt>
      <trkpt lat="44.32232" lon="3.06451">
        <ele>709</ele>
        <time>2023-06-25T12:03:04Z</time>
      </trkpt>
      <trkpt lat="44.32236" lon="3.06446">
        <ele>708.8</ele>
        <time>2023-06-25T12:03:05Z</time>
      </trkpt>
      <trkpt lat="44.32239" lon="3.06441">
        <ele>708.7</ele>
        <time>2023-06-25T12:03:06Z</time>
      </trkpt>
      <trkpt lat="44.32242" lon="3.06436">
        <ele>708.6</ele>
        <time>2023-06-25T12:03:07Z</time>
      </trkpt>
      <trkpt lat="44.32246" lon="3.0643">
        <ele>708.5</ele>
        <time>2023-06-25T12:03:08Z</time>
      </trkpt>
      <trkpt lat="44.32249" lon="3.06425">
        <ele>708.4</ele>
        <time>2023-06-25T12:03:09Z</time>
      </trkpt>
      <trkpt lat="44.32251" lon="3.06421">
        <ele>708.3</ele>
        <time>2023-06-25T12:03:10Z</time>
      </trkpt>
      <trkpt lat="44.32251" lon="3.06415">
        <ele>708.1</ele>
        <time>2023-06-25T12:03:11Z</time>
      </trkpt>
      <trkpt lat="44.32251" lon="3.06412">
        <ele>708.1</ele>
        <time>2023-06-25T12:03:12Z</time>
      </trkpt>
      <trkpt lat="44.32248" lon="3.06408">
        <ele>707.8</ele>
        <time>2023-06-25T12:03:13Z</time>
      </trkpt>
      <trkpt lat="44.32244" lon="3.06404">
        <ele>707.7</ele>
        <time>2023-06-25T12:03:14Z</time>
      </trkpt>
      <trkpt lat="44.32239" lon="3.06398">
        <ele>707.5</ele>
        <time>2023-06-25T12:03:15Z</time>
      </trkpt>
      <trkpt lat="44.32237" lon="3.06391">
        <ele>707.1</ele>
        <time>2023-06-25T12:03:16Z</time>
      </trkpt>
      <trkpt lat="44.32237" lon="3.06385">
        <ele>707.1</ele>
        <time>2023-06-25T12:03:17Z</time>
      </trkpt>
      <trkpt lat="44.32236" lon="3.0638">
        <ele>706.5</ele>
        <time>2023-06-25T12:03:18Z</time>
      </trkpt>
      <trkpt lat="44.32237" lon="3.06376">
        <ele>706.4</ele>
        <time>2023-06-25T12:03:19Z</time>
      </trkpt>
      <trkpt lat="44.32236" lon="3.0637">
        <ele>706.2</ele>
        <time>2023-06-25T12:03:20Z</time>
      </trkpt>
      <trkpt lat="44.32235" lon="3.06364">
        <ele>706</ele>
        <time>2023-06-25T12:03:22Z</time>
      </trkpt>
      <trkpt lat="44.32234" lon="3.06359">
        <ele>705.9</ele>
        <time>2023-06-25T12:03:23Z</time>
      </trkpt>
      <trkpt lat="44.32232" lon="3.06356">
        <ele>705.9</ele>
        <time>2023-06-25T12:03:24Z</time>
      </trkpt>
      <trkpt lat="44.32228" lon="3.06354">
        <ele>705.9</ele>
        <time>2023-06-25T12:03:26Z</time>
      </trkpt>
      <trkpt lat="44.32227" lon="3.06353">
        <ele>705.9</ele>
        <time>2023-06-25T12:03:27Z</time>
      </trkpt>
      <trkpt lat="44.32226" lon="3.06353">
        <ele>705.9</ele>
        <time>2023-06-25T12:03:28Z</time>
      </trkpt>
      <trkpt lat="44.32227" lon="3.06355">
        <ele>705.9</ele>
        <time>2023-06-25T12:03:30Z</time>
      </trkpt>
      <trkpt lat="44.32228" lon="3.06356">
        <ele>705.9</ele>
        <time>2023-06-25T12:03:31Z</time>
      </trkpt>
      <trkpt lat="44.32228" lon="3.06355">
        <ele>705.9</ele>
        <time>2023-06-25T12:03:32Z</time>
      </trkpt>
      <trkpt lat="44.32228" lon="3.06355">
        <ele>705.9</ele>
        <time>2023-06-25T12:03:34Z</time>
      </trkpt>
      <trkpt lat="44.32228" lon="3.06355">
        <ele>705.9</ele>
        <time>2023-06-25T12:03:35Z</time>
      </trkpt>
      <trkpt lat="44.32228" lon="3.06354">
        <ele>705.9</ele>
        <time>2023-06-25T12:03:37Z</time>
      </trkpt>
    </trkseg>
  </trk>
</gpx>